<?xml version="1.0" encoding="UTF-8" standalone="no" ?>
<gpx xmlns="http://www.topografix.com/GPX/1/1" xmlns:xsi="http://www.w3.org/2001/XMLSchema-instance" xsi:schemaLocation="http://www.topografix.com/GPX/1/1 http://www.topografix.com/GPX/1/1/gpx.xsd" version="1.1" creator="VisuGPX - https://www.visugpx.com">
  <metadata>
    <name>2018-08-18 Bike ride-Amberieux en Dombes O via Toussieux v42k</name>
    <desc><![CDATA[2018-08-18 Bike ride-Amberieux en Dombes O via Toussieux v42k]]></desc>
  </metadata>
  <wpt lat="45.92456" lon="4.73702">
    <ele>174</ele>
    <name><![CDATA[2018-08-18 10:31 (Start)]]></name>
  </wpt>
  <wpt lat="45.92462" lon="4.73704">
    <ele>174</ele>
    <name><![CDATA[2018-08-18 10:31 (End)]]></name>
  </wpt>
  <trk>
    <name><![CDATA[2018-08-18 10:31]]></name>
    <trkseg>
      <trkpt lat="45.92456" lon="4.73702">
        <ele>174</ele>
        <time>2018-08-18T08:31:09.806Z</time>
      </trkpt>
      <trkpt lat="45.92457" lon="4.73705">
        <ele>174</ele>
        <time>2018-08-18T08:31:24Z</time>
      </trkpt>
      <trkpt lat="45.92457" lon="4.73706">
        <ele>174</ele>
        <time>2018-08-18T08:31:25Z</time>
      </trkpt>
      <trkpt lat="45.92457" lon="4.73706">
        <ele>174</ele>
        <time>2018-08-18T08:31:26Z</time>
      </trkpt>
      <trkpt lat="45.92463" lon="4.73699">
        <ele>174</ele>
        <time>2018-08-18T08:31:33Z</time>
      </trkpt>
      <trkpt lat="45.92464" lon="4.73696">
        <ele>174</ele>
        <time>2018-08-18T08:31:34Z</time>
      </trkpt>
      <trkpt lat="45.92465" lon="4.73687">
        <ele>174</ele>
        <time>2018-08-18T08:31:37Z</time>
      </trkpt>
      <trkpt lat="45.92465" lon="4.73683">
        <ele>174</ele>
        <time>2018-08-18T08:31:38Z</time>
      </trkpt>
      <trkpt lat="45.92467" lon="4.7367">
        <ele>174</ele>
        <time>2018-08-18T08:31:41Z</time>
      </trkpt>
      <trkpt lat="45.92468" lon="4.73667">
        <ele>174</ele>
        <time>2018-08-18T08:31:42Z</time>
      </trkpt>
      <trkpt lat="45.92469" lon="4.73663">
        <ele>174</ele>
        <time>2018-08-18T08:31:43Z</time>
      </trkpt>
      <trkpt lat="45.92472" lon="4.73651">
        <ele>174</ele>
        <time>2018-08-18T08:31:44Z</time>
      </trkpt>
      <trkpt lat="45.92475" lon="4.73643">
        <ele>174</ele>
        <time>2018-08-18T08:31:47Z</time>
      </trkpt>
      <trkpt lat="45.92481" lon="4.73641">
        <ele>174</ele>
        <time>2018-08-18T08:31:48Z</time>
      </trkpt>
      <trkpt lat="45.9249" lon="4.73641">
        <ele>174</ele>
        <time>2018-08-18T08:31:50Z</time>
      </trkpt>
      <trkpt lat="45.92494" lon="4.73642">
        <ele>174</ele>
        <time>2018-08-18T08:31:51Z</time>
      </trkpt>
      <trkpt lat="45.92497" lon="4.73642">
        <ele>174</ele>
        <time>2018-08-18T08:31:52Z</time>
      </trkpt>
      <trkpt lat="45.92503" lon="4.73641">
        <ele>174</ele>
        <time>2018-08-18T08:31:53Z</time>
      </trkpt>
      <trkpt lat="45.92507" lon="4.73639">
        <ele>174</ele>
        <time>2018-08-18T08:31:54Z</time>
      </trkpt>
      <trkpt lat="45.92512" lon="4.73637">
        <ele>174</ele>
        <time>2018-08-18T08:31:55Z</time>
      </trkpt>
      <trkpt lat="45.92516" lon="4.73636">
        <ele>173</ele>
        <time>2018-08-18T08:31:56Z</time>
      </trkpt>
      <trkpt lat="45.92523" lon="4.73635">
        <ele>173</ele>
        <time>2018-08-18T08:31:57Z</time>
      </trkpt>
      <trkpt lat="45.92526" lon="4.73634">
        <ele>173</ele>
        <time>2018-08-18T08:31:58Z</time>
      </trkpt>
      <trkpt lat="45.92533" lon="4.73636">
        <ele>173</ele>
        <time>2018-08-18T08:31:59Z</time>
      </trkpt>
      <trkpt lat="45.9254" lon="4.73635">
        <ele>173</ele>
        <time>2018-08-18T08:32:01Z</time>
      </trkpt>
      <trkpt lat="45.92546" lon="4.73632">
        <ele>173</ele>
        <time>2018-08-18T08:32:02Z</time>
      </trkpt>
      <trkpt lat="45.9255" lon="4.7363">
        <ele>173</ele>
        <time>2018-08-18T08:32:03Z</time>
      </trkpt>
      <trkpt lat="45.92556" lon="4.73627">
        <ele>173</ele>
        <time>2018-08-18T08:32:04Z</time>
      </trkpt>
      <trkpt lat="45.92565" lon="4.73627">
        <ele>173</ele>
        <time>2018-08-18T08:32:06Z</time>
      </trkpt>
      <trkpt lat="45.9257" lon="4.73625">
        <ele>173</ele>
        <time>2018-08-18T08:32:07Z</time>
      </trkpt>
      <trkpt lat="45.92575" lon="4.73624">
        <ele>173</ele>
        <time>2018-08-18T08:32:09Z</time>
      </trkpt>
      <trkpt lat="45.92581" lon="4.73624">
        <ele>173</ele>
        <time>2018-08-18T08:32:10Z</time>
      </trkpt>
      <trkpt lat="45.92585" lon="4.73625">
        <ele>172</ele>
        <time>2018-08-18T08:32:11Z</time>
      </trkpt>
      <trkpt lat="45.92591" lon="4.73625">
        <ele>172</ele>
        <time>2018-08-18T08:32:12Z</time>
      </trkpt>
      <trkpt lat="45.92597" lon="4.73627">
        <ele>173</ele>
        <time>2018-08-18T08:32:14Z</time>
      </trkpt>
      <trkpt lat="45.92603" lon="4.73629">
        <ele>173</ele>
        <time>2018-08-18T08:32:15Z</time>
      </trkpt>
      <trkpt lat="45.92606" lon="4.73633">
        <ele>173</ele>
        <time>2018-08-18T08:32:16Z</time>
      </trkpt>
      <trkpt lat="45.92611" lon="4.73635">
        <ele>173</ele>
        <time>2018-08-18T08:32:17Z</time>
      </trkpt>
      <trkpt lat="45.92615" lon="4.7364">
        <ele>173</ele>
        <time>2018-08-18T08:32:18Z</time>
      </trkpt>
      <trkpt lat="45.92617" lon="4.73646">
        <ele>173</ele>
        <time>2018-08-18T08:32:19Z</time>
      </trkpt>
      <trkpt lat="45.9262" lon="4.73651">
        <ele>173</ele>
        <time>2018-08-18T08:32:20Z</time>
      </trkpt>
      <trkpt lat="45.92623" lon="4.73657">
        <ele>173</ele>
        <time>2018-08-18T08:32:21Z</time>
      </trkpt>
      <trkpt lat="45.92626" lon="4.73662">
        <ele>173</ele>
        <time>2018-08-18T08:32:22Z</time>
      </trkpt>
      <trkpt lat="45.92629" lon="4.73667">
        <ele>173</ele>
        <time>2018-08-18T08:32:23Z</time>
      </trkpt>
      <trkpt lat="45.92632" lon="4.73674">
        <ele>173</ele>
        <time>2018-08-18T08:32:24Z</time>
      </trkpt>
      <trkpt lat="45.92636" lon="4.73679">
        <ele>173</ele>
        <time>2018-08-18T08:32:25Z</time>
      </trkpt>
      <trkpt lat="45.92641" lon="4.73685">
        <ele>173</ele>
        <time>2018-08-18T08:32:26Z</time>
      </trkpt>
      <trkpt lat="45.92644" lon="4.7369">
        <ele>173</ele>
        <time>2018-08-18T08:32:27Z</time>
      </trkpt>
      <trkpt lat="45.92649" lon="4.73695">
        <ele>173</ele>
        <time>2018-08-18T08:32:28Z</time>
      </trkpt>
      <trkpt lat="45.92654" lon="4.73698">
        <ele>173</ele>
        <time>2018-08-18T08:32:29Z</time>
      </trkpt>
      <trkpt lat="45.92659" lon="4.73701">
        <ele>173</ele>
        <time>2018-08-18T08:32:30Z</time>
      </trkpt>
      <trkpt lat="45.92663" lon="4.73703">
        <ele>173</ele>
        <time>2018-08-18T08:32:31Z</time>
      </trkpt>
      <trkpt lat="45.92669" lon="4.73704">
        <ele>174</ele>
        <time>2018-08-18T08:32:32Z</time>
      </trkpt>
      <trkpt lat="45.92675" lon="4.73707">
        <ele>174</ele>
        <time>2018-08-18T08:32:33Z</time>
      </trkpt>
      <trkpt lat="45.92681" lon="4.73707">
        <ele>173</ele>
        <time>2018-08-18T08:32:34Z</time>
      </trkpt>
      <trkpt lat="45.92686" lon="4.73709">
        <ele>173</ele>
        <time>2018-08-18T08:32:35Z</time>
      </trkpt>
      <trkpt lat="45.92692" lon="4.73711">
        <ele>173</ele>
        <time>2018-08-18T08:32:36Z</time>
      </trkpt>
      <trkpt lat="45.92697" lon="4.73711">
        <ele>173</ele>
        <time>2018-08-18T08:32:37Z</time>
      </trkpt>
      <trkpt lat="45.92702" lon="4.73712">
        <ele>173</ele>
        <time>2018-08-18T08:32:38Z</time>
      </trkpt>
      <trkpt lat="45.92707" lon="4.73713">
        <ele>173</ele>
        <time>2018-08-18T08:32:39Z</time>
      </trkpt>
      <trkpt lat="45.92713" lon="4.73716">
        <ele>173</ele>
        <time>2018-08-18T08:32:40Z</time>
      </trkpt>
      <trkpt lat="45.92717" lon="4.73715">
        <ele>173</ele>
        <time>2018-08-18T08:32:41Z</time>
      </trkpt>
      <trkpt lat="45.92725" lon="4.73719">
        <ele>173</ele>
        <time>2018-08-18T08:32:43Z</time>
      </trkpt>
      <trkpt lat="45.92729" lon="4.73721">
        <ele>173</ele>
        <time>2018-08-18T08:32:44Z</time>
      </trkpt>
      <trkpt lat="45.92734" lon="4.73722">
        <ele>173</ele>
        <time>2018-08-18T08:32:45Z</time>
      </trkpt>
      <trkpt lat="45.92739" lon="4.73722">
        <ele>173</ele>
        <time>2018-08-18T08:32:46Z</time>
      </trkpt>
      <trkpt lat="45.92747" lon="4.73725">
        <ele>173</ele>
        <time>2018-08-18T08:32:48Z</time>
      </trkpt>
      <trkpt lat="45.92751" lon="4.73725">
        <ele>172</ele>
        <time>2018-08-18T08:32:49Z</time>
      </trkpt>
      <trkpt lat="45.92759" lon="4.73728">
        <ele>172</ele>
        <time>2018-08-18T08:32:51Z</time>
      </trkpt>
      <trkpt lat="45.92763" lon="4.7373">
        <ele>172</ele>
        <time>2018-08-18T08:32:52Z</time>
      </trkpt>
      <trkpt lat="45.92771" lon="4.73734">
        <ele>172</ele>
        <time>2018-08-18T08:32:55Z</time>
      </trkpt>
      <trkpt lat="45.92773" lon="4.73735">
        <ele>172</ele>
        <time>2018-08-18T08:32:56Z</time>
      </trkpt>
      <trkpt lat="45.92774" lon="4.73738">
        <ele>172</ele>
        <time>2018-08-18T08:32:57Z</time>
      </trkpt>
      <trkpt lat="45.92778" lon="4.73748">
        <ele>172</ele>
        <time>2018-08-18T08:32:58Z</time>
      </trkpt>
      <trkpt lat="45.92784" lon="4.73756">
        <ele>173</ele>
        <time>2018-08-18T08:33:00Z</time>
      </trkpt>
      <trkpt lat="45.9279" lon="4.7376">
        <ele>173</ele>
        <time>2018-08-18T08:33:01Z</time>
      </trkpt>
      <trkpt lat="45.92796" lon="4.73762">
        <ele>173</ele>
        <time>2018-08-18T08:33:02Z</time>
      </trkpt>
      <trkpt lat="45.92801" lon="4.73764">
        <ele>173</ele>
        <time>2018-08-18T08:33:03Z</time>
      </trkpt>
      <trkpt lat="45.92805" lon="4.73766">
        <ele>173</ele>
        <time>2018-08-18T08:33:04Z</time>
      </trkpt>
      <trkpt lat="45.9281" lon="4.73769">
        <ele>173</ele>
        <time>2018-08-18T08:33:05Z</time>
      </trkpt>
      <trkpt lat="45.92815" lon="4.73771">
        <ele>173</ele>
        <time>2018-08-18T08:33:06Z</time>
      </trkpt>
      <trkpt lat="45.92821" lon="4.73774">
        <ele>173</ele>
        <time>2018-08-18T08:33:07Z</time>
      </trkpt>
      <trkpt lat="45.92826" lon="4.73777">
        <ele>173</ele>
        <time>2018-08-18T08:33:08Z</time>
      </trkpt>
      <trkpt lat="45.92831" lon="4.73775">
        <ele>173</ele>
        <time>2018-08-18T08:33:09Z</time>
      </trkpt>
      <trkpt lat="45.92837" lon="4.73781">
        <ele>173</ele>
        <time>2018-08-18T08:33:10Z</time>
      </trkpt>
      <trkpt lat="45.92842" lon="4.73784">
        <ele>173</ele>
        <time>2018-08-18T08:33:11Z</time>
      </trkpt>
      <trkpt lat="45.92847" lon="4.73791">
        <ele>173</ele>
        <time>2018-08-18T08:33:12Z</time>
      </trkpt>
      <trkpt lat="45.92852" lon="4.73796">
        <ele>173</ele>
        <time>2018-08-18T08:33:13Z</time>
      </trkpt>
      <trkpt lat="45.92854" lon="4.73807">
        <ele>173</ele>
        <time>2018-08-18T08:33:15Z</time>
      </trkpt>
      <trkpt lat="45.92857" lon="4.73812">
        <ele>173</ele>
        <time>2018-08-18T08:33:16Z</time>
      </trkpt>
      <trkpt lat="45.92859" lon="4.73819">
        <ele>173</ele>
        <time>2018-08-18T08:33:17Z</time>
      </trkpt>
      <trkpt lat="45.9286" lon="4.7383">
        <ele>173</ele>
        <time>2018-08-18T08:33:18Z</time>
      </trkpt>
      <trkpt lat="45.92863" lon="4.73836">
        <ele>173</ele>
        <time>2018-08-18T08:33:19Z</time>
      </trkpt>
      <trkpt lat="45.92864" lon="4.73845">
        <ele>173</ele>
        <time>2018-08-18T08:33:20Z</time>
      </trkpt>
      <trkpt lat="45.92865" lon="4.73852">
        <ele>173</ele>
        <time>2018-08-18T08:33:21Z</time>
      </trkpt>
      <trkpt lat="45.92866" lon="4.73859">
        <ele>173</ele>
        <time>2018-08-18T08:33:22Z</time>
      </trkpt>
      <trkpt lat="45.92867" lon="4.73865">
        <ele>173</ele>
        <time>2018-08-18T08:33:23Z</time>
      </trkpt>
      <trkpt lat="45.92869" lon="4.73873">
        <ele>173</ele>
        <time>2018-08-18T08:33:24Z</time>
      </trkpt>
      <trkpt lat="45.92874" lon="4.73879">
        <ele>173</ele>
        <time>2018-08-18T08:33:25Z</time>
      </trkpt>
      <trkpt lat="45.92874" lon="4.73886">
        <ele>173</ele>
        <time>2018-08-18T08:33:26Z</time>
      </trkpt>
      <trkpt lat="45.92876" lon="4.73896">
        <ele>173</ele>
        <time>2018-08-18T08:33:27Z</time>
      </trkpt>
      <trkpt lat="45.92877" lon="4.73903">
        <ele>173</ele>
        <time>2018-08-18T08:33:28Z</time>
      </trkpt>
      <trkpt lat="45.92877" lon="4.73909">
        <ele>173</ele>
        <time>2018-08-18T08:33:29Z</time>
      </trkpt>
      <trkpt lat="45.92877" lon="4.73916">
        <ele>173</ele>
        <time>2018-08-18T08:33:30Z</time>
      </trkpt>
      <trkpt lat="45.92879" lon="4.73924">
        <ele>172</ele>
        <time>2018-08-18T08:33:31Z</time>
      </trkpt>
      <trkpt lat="45.92879" lon="4.7393">
        <ele>172</ele>
        <time>2018-08-18T08:33:32Z</time>
      </trkpt>
      <trkpt lat="45.92879" lon="4.73937">
        <ele>172</ele>
        <time>2018-08-18T08:33:33Z</time>
      </trkpt>
      <trkpt lat="45.92879" lon="4.73944">
        <ele>172</ele>
        <time>2018-08-18T08:33:34Z</time>
      </trkpt>
      <trkpt lat="45.9288" lon="4.7395">
        <ele>172</ele>
        <time>2018-08-18T08:33:35Z</time>
      </trkpt>
      <trkpt lat="45.9288" lon="4.73958">
        <ele>172</ele>
        <time>2018-08-18T08:33:36Z</time>
      </trkpt>
      <trkpt lat="45.92878" lon="4.73964">
        <ele>172</ele>
        <time>2018-08-18T08:33:37Z</time>
      </trkpt>
      <trkpt lat="45.92878" lon="4.73971">
        <ele>172</ele>
        <time>2018-08-18T08:33:38Z</time>
      </trkpt>
      <trkpt lat="45.92878" lon="4.73978">
        <ele>172</ele>
        <time>2018-08-18T08:33:39Z</time>
      </trkpt>
      <trkpt lat="45.92876" lon="4.73987">
        <ele>172</ele>
        <time>2018-08-18T08:33:40Z</time>
      </trkpt>
      <trkpt lat="45.92875" lon="4.73998">
        <ele>172</ele>
        <time>2018-08-18T08:33:42Z</time>
      </trkpt>
      <trkpt lat="45.92873" lon="4.74005">
        <ele>172</ele>
        <time>2018-08-18T08:33:43Z</time>
      </trkpt>
      <trkpt lat="45.9287" lon="4.74017">
        <ele>172</ele>
        <time>2018-08-18T08:33:45Z</time>
      </trkpt>
      <trkpt lat="45.92871" lon="4.74026">
        <ele>172</ele>
        <time>2018-08-18T08:33:46Z</time>
      </trkpt>
      <trkpt lat="45.9287" lon="4.74032">
        <ele>172</ele>
        <time>2018-08-18T08:33:47Z</time>
      </trkpt>
      <trkpt lat="45.92867" lon="4.74039">
        <ele>172</ele>
        <time>2018-08-18T08:33:48Z</time>
      </trkpt>
      <trkpt lat="45.92863" lon="4.74045">
        <ele>172</ele>
        <time>2018-08-18T08:33:49Z</time>
      </trkpt>
      <trkpt lat="45.92858" lon="4.74052">
        <ele>172</ele>
        <time>2018-08-18T08:33:50Z</time>
      </trkpt>
      <trkpt lat="45.92854" lon="4.74058">
        <ele>172</ele>
        <time>2018-08-18T08:33:51Z</time>
      </trkpt>
      <trkpt lat="45.92849" lon="4.74063">
        <ele>172</ele>
        <time>2018-08-18T08:33:52Z</time>
      </trkpt>
      <trkpt lat="45.92845" lon="4.74068">
        <ele>172</ele>
        <time>2018-08-18T08:33:53Z</time>
      </trkpt>
      <trkpt lat="45.92841" lon="4.74074">
        <ele>172</ele>
        <time>2018-08-18T08:33:54Z</time>
      </trkpt>
      <trkpt lat="45.92836" lon="4.74079">
        <ele>171</ele>
        <time>2018-08-18T08:33:55Z</time>
      </trkpt>
      <trkpt lat="45.92832" lon="4.74085">
        <ele>171</ele>
        <time>2018-08-18T08:33:56Z</time>
      </trkpt>
      <trkpt lat="45.92827" lon="4.74089">
        <ele>171</ele>
        <time>2018-08-18T08:33:57Z</time>
      </trkpt>
      <trkpt lat="45.92824" lon="4.74094">
        <ele>171</ele>
        <time>2018-08-18T08:33:58Z</time>
      </trkpt>
      <trkpt lat="45.92819" lon="4.74099">
        <ele>171</ele>
        <time>2018-08-18T08:33:59Z</time>
      </trkpt>
      <trkpt lat="45.92814" lon="4.74104">
        <ele>172</ele>
        <time>2018-08-18T08:34:00Z</time>
      </trkpt>
      <trkpt lat="45.9281" lon="4.74109">
        <ele>172</ele>
        <time>2018-08-18T08:34:01Z</time>
      </trkpt>
      <trkpt lat="45.92805" lon="4.74115">
        <ele>172</ele>
        <time>2018-08-18T08:34:02Z</time>
      </trkpt>
      <trkpt lat="45.928" lon="4.74122">
        <ele>172</ele>
        <time>2018-08-18T08:34:03Z</time>
      </trkpt>
      <trkpt lat="45.92795" lon="4.74127">
        <ele>172</ele>
        <time>2018-08-18T08:34:04Z</time>
      </trkpt>
      <trkpt lat="45.9279" lon="4.74133">
        <ele>172</ele>
        <time>2018-08-18T08:34:05Z</time>
      </trkpt>
      <trkpt lat="45.92785" lon="4.74138">
        <ele>172</ele>
        <time>2018-08-18T08:34:06Z</time>
      </trkpt>
      <trkpt lat="45.92781" lon="4.74143">
        <ele>172</ele>
        <time>2018-08-18T08:34:07Z</time>
      </trkpt>
      <trkpt lat="45.92776" lon="4.74148">
        <ele>172</ele>
        <time>2018-08-18T08:34:08Z</time>
      </trkpt>
      <trkpt lat="45.92771" lon="4.74154">
        <ele>172</ele>
        <time>2018-08-18T08:34:09Z</time>
      </trkpt>
      <trkpt lat="45.92766" lon="4.74158">
        <ele>172</ele>
        <time>2018-08-18T08:34:10Z</time>
      </trkpt>
      <trkpt lat="45.92761" lon="4.74164">
        <ele>172</ele>
        <time>2018-08-18T08:34:11Z</time>
      </trkpt>
      <trkpt lat="45.92756" lon="4.74168">
        <ele>172</ele>
        <time>2018-08-18T08:34:12Z</time>
      </trkpt>
      <trkpt lat="45.92752" lon="4.74172">
        <ele>172</ele>
        <time>2018-08-18T08:34:13Z</time>
      </trkpt>
      <trkpt lat="45.92747" lon="4.74179">
        <ele>172</ele>
        <time>2018-08-18T08:34:14Z</time>
      </trkpt>
      <trkpt lat="45.92742" lon="4.74184">
        <ele>172</ele>
        <time>2018-08-18T08:34:15Z</time>
      </trkpt>
      <trkpt lat="45.92738" lon="4.7419">
        <ele>171</ele>
        <time>2018-08-18T08:34:16Z</time>
      </trkpt>
      <trkpt lat="45.92734" lon="4.74195">
        <ele>171</ele>
        <time>2018-08-18T08:34:17Z</time>
      </trkpt>
      <trkpt lat="45.9273" lon="4.74201">
        <ele>171</ele>
        <time>2018-08-18T08:34:18Z</time>
      </trkpt>
      <trkpt lat="45.92726" lon="4.74207">
        <ele>171</ele>
        <time>2018-08-18T08:34:19Z</time>
      </trkpt>
      <trkpt lat="45.92723" lon="4.74215">
        <ele>171</ele>
        <time>2018-08-18T08:34:20Z</time>
      </trkpt>
      <trkpt lat="45.9272" lon="4.74221">
        <ele>171</ele>
        <time>2018-08-18T08:34:21Z</time>
      </trkpt>
      <trkpt lat="45.92715" lon="4.74225">
        <ele>171</ele>
        <time>2018-08-18T08:34:22Z</time>
      </trkpt>
      <trkpt lat="45.92711" lon="4.74232">
        <ele>171</ele>
        <time>2018-08-18T08:34:23Z</time>
      </trkpt>
      <trkpt lat="45.9271" lon="4.74238">
        <ele>171</ele>
        <time>2018-08-18T08:34:24Z</time>
      </trkpt>
      <trkpt lat="45.92706" lon="4.74245">
        <ele>171</ele>
        <time>2018-08-18T08:34:25Z</time>
      </trkpt>
      <trkpt lat="45.92701" lon="4.74251">
        <ele>171</ele>
        <time>2018-08-18T08:34:26Z</time>
      </trkpt>
      <trkpt lat="45.92698" lon="4.7426">
        <ele>171</ele>
        <time>2018-08-18T08:34:27Z</time>
      </trkpt>
      <trkpt lat="45.92695" lon="4.74266">
        <ele>171</ele>
        <time>2018-08-18T08:34:28Z</time>
      </trkpt>
      <trkpt lat="45.92691" lon="4.74274">
        <ele>171</ele>
        <time>2018-08-18T08:34:29Z</time>
      </trkpt>
      <trkpt lat="45.92687" lon="4.74281">
        <ele>171</ele>
        <time>2018-08-18T08:34:30Z</time>
      </trkpt>
      <trkpt lat="45.92684" lon="4.74286">
        <ele>171</ele>
        <time>2018-08-18T08:34:31Z</time>
      </trkpt>
      <trkpt lat="45.92679" lon="4.74295">
        <ele>171</ele>
        <time>2018-08-18T08:34:32Z</time>
      </trkpt>
      <trkpt lat="45.92675" lon="4.74302">
        <ele>171</ele>
        <time>2018-08-18T08:34:33Z</time>
      </trkpt>
      <trkpt lat="45.92672" lon="4.74309">
        <ele>171</ele>
        <time>2018-08-18T08:34:34Z</time>
      </trkpt>
      <trkpt lat="45.92668" lon="4.74317">
        <ele>171</ele>
        <time>2018-08-18T08:34:35Z</time>
      </trkpt>
      <trkpt lat="45.92665" lon="4.74324">
        <ele>171</ele>
        <time>2018-08-18T08:34:36Z</time>
      </trkpt>
      <trkpt lat="45.92661" lon="4.74331">
        <ele>171</ele>
        <time>2018-08-18T08:34:37Z</time>
      </trkpt>
      <trkpt lat="45.92657" lon="4.74336">
        <ele>171</ele>
        <time>2018-08-18T08:34:38Z</time>
      </trkpt>
      <trkpt lat="45.92654" lon="4.74343">
        <ele>171</ele>
        <time>2018-08-18T08:34:39Z</time>
      </trkpt>
      <trkpt lat="45.9265" lon="4.7435">
        <ele>171</ele>
        <time>2018-08-18T08:34:40Z</time>
      </trkpt>
      <trkpt lat="45.92646" lon="4.74357">
        <ele>171</ele>
        <time>2018-08-18T08:34:41Z</time>
      </trkpt>
      <trkpt lat="45.92643" lon="4.74363">
        <ele>171</ele>
        <time>2018-08-18T08:34:42Z</time>
      </trkpt>
      <trkpt lat="45.92638" lon="4.74369">
        <ele>171</ele>
        <time>2018-08-18T08:34:43Z</time>
      </trkpt>
      <trkpt lat="45.92634" lon="4.74377">
        <ele>170</ele>
        <time>2018-08-18T08:34:44Z</time>
      </trkpt>
      <trkpt lat="45.9263" lon="4.74386">
        <ele>170</ele>
        <time>2018-08-18T08:34:45Z</time>
      </trkpt>
      <trkpt lat="45.92625" lon="4.74392">
        <ele>170</ele>
        <time>2018-08-18T08:34:46Z</time>
      </trkpt>
      <trkpt lat="45.9262" lon="4.74401">
        <ele>170</ele>
        <time>2018-08-18T08:34:47Z</time>
      </trkpt>
      <trkpt lat="45.92616" lon="4.74408">
        <ele>170</ele>
        <time>2018-08-18T08:34:48Z</time>
      </trkpt>
      <trkpt lat="45.92613" lon="4.74414">
        <ele>170</ele>
        <time>2018-08-18T08:34:49Z</time>
      </trkpt>
      <trkpt lat="45.92609" lon="4.74421">
        <ele>170</ele>
        <time>2018-08-18T08:34:50Z</time>
      </trkpt>
      <trkpt lat="45.92605" lon="4.74428">
        <ele>170</ele>
        <time>2018-08-18T08:34:51Z</time>
      </trkpt>
      <trkpt lat="45.92601" lon="4.74435">
        <ele>170</ele>
        <time>2018-08-18T08:34:52Z</time>
      </trkpt>
      <trkpt lat="45.92597" lon="4.7444">
        <ele>170</ele>
        <time>2018-08-18T08:34:53Z</time>
      </trkpt>
      <trkpt lat="45.92593" lon="4.74446">
        <ele>170</ele>
        <time>2018-08-18T08:34:54Z</time>
      </trkpt>
      <trkpt lat="45.92589" lon="4.74453">
        <ele>170</ele>
        <time>2018-08-18T08:34:55Z</time>
      </trkpt>
      <trkpt lat="45.92585" lon="4.74461">
        <ele>170</ele>
        <time>2018-08-18T08:34:56Z</time>
      </trkpt>
      <trkpt lat="45.9258" lon="4.74469">
        <ele>170</ele>
        <time>2018-08-18T08:34:57Z</time>
      </trkpt>
      <trkpt lat="45.92577" lon="4.74477">
        <ele>170</ele>
        <time>2018-08-18T08:34:58Z</time>
      </trkpt>
      <trkpt lat="45.92573" lon="4.74485">
        <ele>170</ele>
        <time>2018-08-18T08:34:59Z</time>
      </trkpt>
      <trkpt lat="45.92569" lon="4.74491">
        <ele>170</ele>
        <time>2018-08-18T08:35:00Z</time>
      </trkpt>
      <trkpt lat="45.92566" lon="4.745">
        <ele>170</ele>
        <time>2018-08-18T08:35:01Z</time>
      </trkpt>
      <trkpt lat="45.92561" lon="4.74505">
        <ele>170</ele>
        <time>2018-08-18T08:35:02Z</time>
      </trkpt>
      <trkpt lat="45.92557" lon="4.74512">
        <ele>170</ele>
        <time>2018-08-18T08:35:03Z</time>
      </trkpt>
      <trkpt lat="45.92552" lon="4.7452">
        <ele>170</ele>
        <time>2018-08-18T08:35:04Z</time>
      </trkpt>
      <trkpt lat="45.92548" lon="4.74525">
        <ele>170</ele>
        <time>2018-08-18T08:35:05Z</time>
      </trkpt>
      <trkpt lat="45.92544" lon="4.74533">
        <ele>170</ele>
        <time>2018-08-18T08:35:06Z</time>
      </trkpt>
      <trkpt lat="45.9254" lon="4.74541">
        <ele>171</ele>
        <time>2018-08-18T08:35:07Z</time>
      </trkpt>
      <trkpt lat="45.92535" lon="4.74549">
        <ele>171</ele>
        <time>2018-08-18T08:35:08Z</time>
      </trkpt>
      <trkpt lat="45.92532" lon="4.74557">
        <ele>171</ele>
        <time>2018-08-18T08:35:09Z</time>
      </trkpt>
      <trkpt lat="45.92527" lon="4.74563">
        <ele>171</ele>
        <time>2018-08-18T08:35:10Z</time>
      </trkpt>
      <trkpt lat="45.92523" lon="4.74571">
        <ele>171</ele>
        <time>2018-08-18T08:35:11Z</time>
      </trkpt>
      <trkpt lat="45.92519" lon="4.74577">
        <ele>171</ele>
        <time>2018-08-18T08:35:12Z</time>
      </trkpt>
      <trkpt lat="45.92513" lon="4.74583">
        <ele>171</ele>
        <time>2018-08-18T08:35:13Z</time>
      </trkpt>
      <trkpt lat="45.92508" lon="4.74588">
        <ele>171</ele>
        <time>2018-08-18T08:35:14Z</time>
      </trkpt>
      <trkpt lat="45.92502" lon="4.74594">
        <ele>171</ele>
        <time>2018-08-18T08:35:15Z</time>
      </trkpt>
      <trkpt lat="45.92497" lon="4.746">
        <ele>171</ele>
        <time>2018-08-18T08:35:16Z</time>
      </trkpt>
      <trkpt lat="45.92492" lon="4.74607">
        <ele>171</ele>
        <time>2018-08-18T08:35:17Z</time>
      </trkpt>
      <trkpt lat="45.92486" lon="4.74612">
        <ele>171</ele>
        <time>2018-08-18T08:35:18Z</time>
      </trkpt>
      <trkpt lat="45.92482" lon="4.74617">
        <ele>171</ele>
        <time>2018-08-18T08:35:19Z</time>
      </trkpt>
      <trkpt lat="45.92478" lon="4.74622">
        <ele>171</ele>
        <time>2018-08-18T08:35:20Z</time>
      </trkpt>
      <trkpt lat="45.92473" lon="4.74629">
        <ele>171</ele>
        <time>2018-08-18T08:35:21Z</time>
      </trkpt>
      <trkpt lat="45.92469" lon="4.74636">
        <ele>171</ele>
        <time>2018-08-18T08:35:22Z</time>
      </trkpt>
      <trkpt lat="45.92465" lon="4.74643">
        <ele>171</ele>
        <time>2018-08-18T08:35:23Z</time>
      </trkpt>
      <trkpt lat="45.92461" lon="4.74649">
        <ele>171</ele>
        <time>2018-08-18T08:35:24Z</time>
      </trkpt>
      <trkpt lat="45.92457" lon="4.74656">
        <ele>171</ele>
        <time>2018-08-18T08:35:25Z</time>
      </trkpt>
      <trkpt lat="45.92453" lon="4.74664">
        <ele>171</ele>
        <time>2018-08-18T08:35:26Z</time>
      </trkpt>
      <trkpt lat="45.92448" lon="4.7467">
        <ele>171</ele>
        <time>2018-08-18T08:35:27Z</time>
      </trkpt>
      <trkpt lat="45.92445" lon="4.74676">
        <ele>171</ele>
        <time>2018-08-18T08:35:28Z</time>
      </trkpt>
      <trkpt lat="45.92442" lon="4.74685">
        <ele>171</ele>
        <time>2018-08-18T08:35:29Z</time>
      </trkpt>
      <trkpt lat="45.92438" lon="4.74691">
        <ele>171</ele>
        <time>2018-08-18T08:35:30Z</time>
      </trkpt>
      <trkpt lat="45.92434" lon="4.74699">
        <ele>171</ele>
        <time>2018-08-18T08:35:31Z</time>
      </trkpt>
      <trkpt lat="45.9243" lon="4.74705">
        <ele>171</ele>
        <time>2018-08-18T08:35:32Z</time>
      </trkpt>
      <trkpt lat="45.92426" lon="4.74711">
        <ele>171</ele>
        <time>2018-08-18T08:35:33Z</time>
      </trkpt>
      <trkpt lat="45.92423" lon="4.74721">
        <ele>171</ele>
        <time>2018-08-18T08:35:34Z</time>
      </trkpt>
      <trkpt lat="45.92421" lon="4.7473">
        <ele>171</ele>
        <time>2018-08-18T08:35:35Z</time>
      </trkpt>
      <trkpt lat="45.92418" lon="4.74739">
        <ele>172</ele>
        <time>2018-08-18T08:35:36Z</time>
      </trkpt>
      <trkpt lat="45.92415" lon="4.74748">
        <ele>172</ele>
        <time>2018-08-18T08:35:37Z</time>
      </trkpt>
      <trkpt lat="45.92413" lon="4.74755">
        <ele>172</ele>
        <time>2018-08-18T08:35:38Z</time>
      </trkpt>
      <trkpt lat="45.92411" lon="4.74765">
        <ele>172</ele>
        <time>2018-08-18T08:35:39Z</time>
      </trkpt>
      <trkpt lat="45.9241" lon="4.74776">
        <ele>171</ele>
        <time>2018-08-18T08:35:40Z</time>
      </trkpt>
      <trkpt lat="45.92407" lon="4.74785">
        <ele>171</ele>
        <time>2018-08-18T08:35:41Z</time>
      </trkpt>
      <trkpt lat="45.92405" lon="4.74794">
        <ele>171</ele>
        <time>2018-08-18T08:35:42Z</time>
      </trkpt>
      <trkpt lat="45.92404" lon="4.74803">
        <ele>171</ele>
        <time>2018-08-18T08:35:43Z</time>
      </trkpt>
      <trkpt lat="45.92402" lon="4.74811">
        <ele>171</ele>
        <time>2018-08-18T08:35:44Z</time>
      </trkpt>
      <trkpt lat="45.92401" lon="4.7482">
        <ele>171</ele>
        <time>2018-08-18T08:35:45Z</time>
      </trkpt>
      <trkpt lat="45.92398" lon="4.7483">
        <ele>171</ele>
        <time>2018-08-18T08:35:46Z</time>
      </trkpt>
      <trkpt lat="45.92395" lon="4.74839">
        <ele>171</ele>
        <time>2018-08-18T08:35:47Z</time>
      </trkpt>
      <trkpt lat="45.92393" lon="4.74848">
        <ele>171</ele>
        <time>2018-08-18T08:35:48Z</time>
      </trkpt>
      <trkpt lat="45.9239" lon="4.74856">
        <ele>171</ele>
        <time>2018-08-18T08:35:49Z</time>
      </trkpt>
      <trkpt lat="45.92387" lon="4.74864">
        <ele>171</ele>
        <time>2018-08-18T08:35:50Z</time>
      </trkpt>
      <trkpt lat="45.92384" lon="4.7487">
        <ele>171</ele>
        <time>2018-08-18T08:35:51Z</time>
      </trkpt>
      <trkpt lat="45.92381" lon="4.74878">
        <ele>171</ele>
        <time>2018-08-18T08:35:52Z</time>
      </trkpt>
      <trkpt lat="45.92378" lon="4.74885">
        <ele>171</ele>
        <time>2018-08-18T08:35:53Z</time>
      </trkpt>
      <trkpt lat="45.92376" lon="4.74892">
        <ele>171</ele>
        <time>2018-08-18T08:35:54Z</time>
      </trkpt>
      <trkpt lat="45.92373" lon="4.749">
        <ele>171</ele>
        <time>2018-08-18T08:35:55Z</time>
      </trkpt>
      <trkpt lat="45.9237" lon="4.74906">
        <ele>171</ele>
        <time>2018-08-18T08:35:56Z</time>
      </trkpt>
      <trkpt lat="45.92367" lon="4.74915">
        <ele>171</ele>
        <time>2018-08-18T08:35:57Z</time>
      </trkpt>
      <trkpt lat="45.92363" lon="4.74926">
        <ele>170</ele>
        <time>2018-08-18T08:35:58Z</time>
      </trkpt>
      <trkpt lat="45.92361" lon="4.74935">
        <ele>170</ele>
        <time>2018-08-18T08:35:59Z</time>
      </trkpt>
      <trkpt lat="45.92357" lon="4.74942">
        <ele>170</ele>
        <time>2018-08-18T08:36:00Z</time>
      </trkpt>
      <trkpt lat="45.92354" lon="4.7495">
        <ele>170</ele>
        <time>2018-08-18T08:36:01Z</time>
      </trkpt>
      <trkpt lat="45.92352" lon="4.74961">
        <ele>170</ele>
        <time>2018-08-18T08:36:02Z</time>
      </trkpt>
      <trkpt lat="45.92349" lon="4.74969">
        <ele>170</ele>
        <time>2018-08-18T08:36:03Z</time>
      </trkpt>
      <trkpt lat="45.92347" lon="4.74976">
        <ele>170</ele>
        <time>2018-08-18T08:36:04Z</time>
      </trkpt>
      <trkpt lat="45.92344" lon="4.74982">
        <ele>170</ele>
        <time>2018-08-18T08:36:05Z</time>
      </trkpt>
      <trkpt lat="45.92342" lon="4.74989">
        <ele>170</ele>
        <time>2018-08-18T08:36:06Z</time>
      </trkpt>
      <trkpt lat="45.92339" lon="4.74994">
        <ele>170</ele>
        <time>2018-08-18T08:36:07Z</time>
      </trkpt>
      <trkpt lat="45.92337" lon="4.75001">
        <ele>170</ele>
        <time>2018-08-18T08:36:08Z</time>
      </trkpt>
      <trkpt lat="45.92334" lon="4.75011">
        <ele>170</ele>
        <time>2018-08-18T08:36:09Z</time>
      </trkpt>
      <trkpt lat="45.92332" lon="4.75018">
        <ele>171</ele>
        <time>2018-08-18T08:36:10Z</time>
      </trkpt>
      <trkpt lat="45.92327" lon="4.75026">
        <ele>171</ele>
        <time>2018-08-18T08:36:11Z</time>
      </trkpt>
      <trkpt lat="45.92323" lon="4.75033">
        <ele>171</ele>
        <time>2018-08-18T08:36:12Z</time>
      </trkpt>
      <trkpt lat="45.92319" lon="4.75041">
        <ele>172</ele>
        <time>2018-08-18T08:36:13Z</time>
      </trkpt>
      <trkpt lat="45.92314" lon="4.75047">
        <ele>172</ele>
        <time>2018-08-18T08:36:14Z</time>
      </trkpt>
      <trkpt lat="45.92311" lon="4.75053">
        <ele>172</ele>
        <time>2018-08-18T08:36:15Z</time>
      </trkpt>
      <trkpt lat="45.92306" lon="4.7506">
        <ele>172</ele>
        <time>2018-08-18T08:36:16Z</time>
      </trkpt>
      <trkpt lat="45.92301" lon="4.75063">
        <ele>172</ele>
        <time>2018-08-18T08:36:17Z</time>
      </trkpt>
      <trkpt lat="45.92297" lon="4.75069">
        <ele>172</ele>
        <time>2018-08-18T08:36:18Z</time>
      </trkpt>
      <trkpt lat="45.92292" lon="4.75075">
        <ele>172</ele>
        <time>2018-08-18T08:36:19Z</time>
      </trkpt>
      <trkpt lat="45.92288" lon="4.7508">
        <ele>172</ele>
        <time>2018-08-18T08:36:20Z</time>
      </trkpt>
      <trkpt lat="45.92284" lon="4.75085">
        <ele>173</ele>
        <time>2018-08-18T08:36:21Z</time>
      </trkpt>
      <trkpt lat="45.92279" lon="4.75091">
        <ele>173</ele>
        <time>2018-08-18T08:36:22Z</time>
      </trkpt>
      <trkpt lat="45.92273" lon="4.75094">
        <ele>173</ele>
        <time>2018-08-18T08:36:23Z</time>
      </trkpt>
      <trkpt lat="45.92268" lon="4.75098">
        <ele>173</ele>
        <time>2018-08-18T08:36:24Z</time>
      </trkpt>
      <trkpt lat="45.92263" lon="4.75103">
        <ele>173</ele>
        <time>2018-08-18T08:36:25Z</time>
      </trkpt>
      <trkpt lat="45.92258" lon="4.75108">
        <ele>174</ele>
        <time>2018-08-18T08:36:26Z</time>
      </trkpt>
      <trkpt lat="45.92253" lon="4.75113">
        <ele>174</ele>
        <time>2018-08-18T08:36:27Z</time>
      </trkpt>
      <trkpt lat="45.92249" lon="4.75119">
        <ele>174</ele>
        <time>2018-08-18T08:36:28Z</time>
      </trkpt>
      <trkpt lat="45.92244" lon="4.75123">
        <ele>174</ele>
        <time>2018-08-18T08:36:29Z</time>
      </trkpt>
      <trkpt lat="45.92239" lon="4.75129">
        <ele>174</ele>
        <time>2018-08-18T08:36:30Z</time>
      </trkpt>
      <trkpt lat="45.92235" lon="4.75134">
        <ele>174</ele>
        <time>2018-08-18T08:36:31Z</time>
      </trkpt>
      <trkpt lat="45.92231" lon="4.75139">
        <ele>174</ele>
        <time>2018-08-18T08:36:32Z</time>
      </trkpt>
      <trkpt lat="45.92227" lon="4.75147">
        <ele>174</ele>
        <time>2018-08-18T08:36:33Z</time>
      </trkpt>
      <trkpt lat="45.92224" lon="4.75152">
        <ele>174</ele>
        <time>2018-08-18T08:36:34Z</time>
      </trkpt>
      <trkpt lat="45.92221" lon="4.75159">
        <ele>174</ele>
        <time>2018-08-18T08:36:35Z</time>
      </trkpt>
      <trkpt lat="45.9222" lon="4.75166">
        <ele>174</ele>
        <time>2018-08-18T08:36:36Z</time>
      </trkpt>
      <trkpt lat="45.92217" lon="4.75173">
        <ele>175</ele>
        <time>2018-08-18T08:36:37Z</time>
      </trkpt>
      <trkpt lat="45.92214" lon="4.7518">
        <ele>175</ele>
        <time>2018-08-18T08:36:38Z</time>
      </trkpt>
      <trkpt lat="45.92212" lon="4.75189">
        <ele>175</ele>
        <time>2018-08-18T08:36:39Z</time>
      </trkpt>
      <trkpt lat="45.9221" lon="4.75196">
        <ele>175</ele>
        <time>2018-08-18T08:36:40Z</time>
      </trkpt>
      <trkpt lat="45.92209" lon="4.75204">
        <ele>175</ele>
        <time>2018-08-18T08:36:41Z</time>
      </trkpt>
      <trkpt lat="45.92209" lon="4.75213">
        <ele>175</ele>
        <time>2018-08-18T08:36:42Z</time>
      </trkpt>
      <trkpt lat="45.92208" lon="4.75221">
        <ele>175</ele>
        <time>2018-08-18T08:36:43Z</time>
      </trkpt>
      <trkpt lat="45.92208" lon="4.75229">
        <ele>175</ele>
        <time>2018-08-18T08:36:44Z</time>
      </trkpt>
      <trkpt lat="45.92208" lon="4.75237">
        <ele>175</ele>
        <time>2018-08-18T08:36:45Z</time>
      </trkpt>
      <trkpt lat="45.92209" lon="4.75244">
        <ele>175</ele>
        <time>2018-08-18T08:36:46Z</time>
      </trkpt>
      <trkpt lat="45.92208" lon="4.75252">
        <ele>175</ele>
        <time>2018-08-18T08:36:47Z</time>
      </trkpt>
      <trkpt lat="45.92209" lon="4.7526">
        <ele>176</ele>
        <time>2018-08-18T08:36:48Z</time>
      </trkpt>
      <trkpt lat="45.92207" lon="4.75265">
        <ele>176</ele>
        <time>2018-08-18T08:36:49Z</time>
      </trkpt>
      <trkpt lat="45.92209" lon="4.75276">
        <ele>176</ele>
        <time>2018-08-18T08:36:50Z</time>
      </trkpt>
      <trkpt lat="45.92209" lon="4.75284">
        <ele>176</ele>
        <time>2018-08-18T08:36:51Z</time>
      </trkpt>
      <trkpt lat="45.9221" lon="4.75294">
        <ele>176</ele>
        <time>2018-08-18T08:36:52Z</time>
      </trkpt>
      <trkpt lat="45.9221" lon="4.75303">
        <ele>176</ele>
        <time>2018-08-18T08:36:53Z</time>
      </trkpt>
      <trkpt lat="45.92211" lon="4.75311">
        <ele>176</ele>
        <time>2018-08-18T08:36:54Z</time>
      </trkpt>
      <trkpt lat="45.92209" lon="4.75317">
        <ele>176</ele>
        <time>2018-08-18T08:36:55Z</time>
      </trkpt>
      <trkpt lat="45.92207" lon="4.75324">
        <ele>176</ele>
        <time>2018-08-18T08:36:56Z</time>
      </trkpt>
      <trkpt lat="45.92204" lon="4.75331">
        <ele>176</ele>
        <time>2018-08-18T08:36:58Z</time>
      </trkpt>
      <trkpt lat="45.92202" lon="4.75337">
        <ele>177</ele>
        <time>2018-08-18T08:36:59Z</time>
      </trkpt>
      <trkpt lat="45.92201" lon="4.75344">
        <ele>177</ele>
        <time>2018-08-18T08:37:00Z</time>
      </trkpt>
      <trkpt lat="45.922" lon="4.7535">
        <ele>177</ele>
        <time>2018-08-18T08:37:01Z</time>
      </trkpt>
      <trkpt lat="45.92197" lon="4.75355">
        <ele>177</ele>
        <time>2018-08-18T08:37:02Z</time>
      </trkpt>
      <trkpt lat="45.92195" lon="4.75363">
        <ele>177</ele>
        <time>2018-08-18T08:37:03Z</time>
      </trkpt>
      <trkpt lat="45.92191" lon="4.7537">
        <ele>177</ele>
        <time>2018-08-18T08:37:04Z</time>
      </trkpt>
      <trkpt lat="45.92189" lon="4.75381">
        <ele>177</ele>
        <time>2018-08-18T08:37:05Z</time>
      </trkpt>
      <trkpt lat="45.92185" lon="4.75389">
        <ele>177</ele>
        <time>2018-08-18T08:37:06Z</time>
      </trkpt>
      <trkpt lat="45.92182" lon="4.75396">
        <ele>177</ele>
        <time>2018-08-18T08:37:07Z</time>
      </trkpt>
      <trkpt lat="45.92179" lon="4.75405">
        <ele>177</ele>
        <time>2018-08-18T08:37:08Z</time>
      </trkpt>
      <trkpt lat="45.92175" lon="4.75411">
        <ele>178</ele>
        <time>2018-08-18T08:37:09Z</time>
      </trkpt>
      <trkpt lat="45.92172" lon="4.75419">
        <ele>178</ele>
        <time>2018-08-18T08:37:10Z</time>
      </trkpt>
      <trkpt lat="45.92169" lon="4.75427">
        <ele>177</ele>
        <time>2018-08-18T08:37:11Z</time>
      </trkpt>
      <trkpt lat="45.92167" lon="4.75433">
        <ele>177</ele>
        <time>2018-08-18T08:37:12Z</time>
      </trkpt>
      <trkpt lat="45.92164" lon="4.75442">
        <ele>177</ele>
        <time>2018-08-18T08:37:13Z</time>
      </trkpt>
      <trkpt lat="45.9216" lon="4.75449">
        <ele>176</ele>
        <time>2018-08-18T08:37:14Z</time>
      </trkpt>
      <trkpt lat="45.92157" lon="4.75458">
        <ele>176</ele>
        <time>2018-08-18T08:37:15Z</time>
      </trkpt>
      <trkpt lat="45.92155" lon="4.75464">
        <ele>176</ele>
        <time>2018-08-18T08:37:16Z</time>
      </trkpt>
      <trkpt lat="45.92152" lon="4.75469">
        <ele>176</ele>
        <time>2018-08-18T08:37:17Z</time>
      </trkpt>
      <trkpt lat="45.92149" lon="4.75474">
        <ele>176</ele>
        <time>2018-08-18T08:37:18Z</time>
      </trkpt>
      <trkpt lat="45.92146" lon="4.75482">
        <ele>176</ele>
        <time>2018-08-18T08:37:19Z</time>
      </trkpt>
      <trkpt lat="45.92143" lon="4.7549">
        <ele>176</ele>
        <time>2018-08-18T08:37:20Z</time>
      </trkpt>
      <trkpt lat="45.9214" lon="4.75498">
        <ele>175</ele>
        <time>2018-08-18T08:37:21Z</time>
      </trkpt>
      <trkpt lat="45.92136" lon="4.75506">
        <ele>174</ele>
        <time>2018-08-18T08:37:22Z</time>
      </trkpt>
      <trkpt lat="45.92132" lon="4.75514">
        <ele>174</ele>
        <time>2018-08-18T08:37:23Z</time>
      </trkpt>
      <trkpt lat="45.92129" lon="4.75521">
        <ele>174</ele>
        <time>2018-08-18T08:37:24Z</time>
      </trkpt>
      <trkpt lat="45.92125" lon="4.75528">
        <ele>174</ele>
        <time>2018-08-18T08:37:25Z</time>
      </trkpt>
      <trkpt lat="45.92122" lon="4.75536">
        <ele>174</ele>
        <time>2018-08-18T08:37:26Z</time>
      </trkpt>
      <trkpt lat="45.92119" lon="4.75542">
        <ele>174</ele>
        <time>2018-08-18T08:37:27Z</time>
      </trkpt>
      <trkpt lat="45.92117" lon="4.7555">
        <ele>174</ele>
        <time>2018-08-18T08:37:28Z</time>
      </trkpt>
      <trkpt lat="45.92113" lon="4.75556">
        <ele>174</ele>
        <time>2018-08-18T08:37:29Z</time>
      </trkpt>
      <trkpt lat="45.92111" lon="4.75563">
        <ele>174</ele>
        <time>2018-08-18T08:37:30Z</time>
      </trkpt>
      <trkpt lat="45.92109" lon="4.75571">
        <ele>174</ele>
        <time>2018-08-18T08:37:31Z</time>
      </trkpt>
      <trkpt lat="45.92107" lon="4.75581">
        <ele>174</ele>
        <time>2018-08-18T08:37:32Z</time>
      </trkpt>
      <trkpt lat="45.92108" lon="4.75588">
        <ele>174</ele>
        <time>2018-08-18T08:37:33Z</time>
      </trkpt>
      <trkpt lat="45.92114" lon="4.75595">
        <ele>174</ele>
        <time>2018-08-18T08:37:34Z</time>
      </trkpt>
      <trkpt lat="45.92124" lon="4.756">
        <ele>174</ele>
        <time>2018-08-18T08:37:35Z</time>
      </trkpt>
      <trkpt lat="45.92129" lon="4.75606">
        <ele>174</ele>
        <time>2018-08-18T08:37:36Z</time>
      </trkpt>
      <trkpt lat="45.92133" lon="4.75611">
        <ele>174</ele>
        <time>2018-08-18T08:37:37Z</time>
      </trkpt>
      <trkpt lat="45.92138" lon="4.75616">
        <ele>174</ele>
        <time>2018-08-18T08:37:38Z</time>
      </trkpt>
      <trkpt lat="45.92143" lon="4.75621">
        <ele>174</ele>
        <time>2018-08-18T08:37:39Z</time>
      </trkpt>
      <trkpt lat="45.92149" lon="4.75626">
        <ele>174</ele>
        <time>2018-08-18T08:37:40Z</time>
      </trkpt>
      <trkpt lat="45.92155" lon="4.75631">
        <ele>174</ele>
        <time>2018-08-18T08:37:41Z</time>
      </trkpt>
      <trkpt lat="45.92159" lon="4.75636">
        <ele>174</ele>
        <time>2018-08-18T08:37:42Z</time>
      </trkpt>
      <trkpt lat="45.92163" lon="4.75641">
        <ele>174</ele>
        <time>2018-08-18T08:37:43Z</time>
      </trkpt>
      <trkpt lat="45.92169" lon="4.75645">
        <ele>174</ele>
        <time>2018-08-18T08:37:44Z</time>
      </trkpt>
      <trkpt lat="45.92173" lon="4.7565">
        <ele>174</ele>
        <time>2018-08-18T08:37:45Z</time>
      </trkpt>
      <trkpt lat="45.92177" lon="4.75654">
        <ele>174</ele>
        <time>2018-08-18T08:37:46Z</time>
      </trkpt>
      <trkpt lat="45.92182" lon="4.75658">
        <ele>174</ele>
        <time>2018-08-18T08:37:47Z</time>
      </trkpt>
      <trkpt lat="45.92185" lon="4.75662">
        <ele>174</ele>
        <time>2018-08-18T08:37:48Z</time>
      </trkpt>
      <trkpt lat="45.92189" lon="4.75667">
        <ele>174</ele>
        <time>2018-08-18T08:37:49Z</time>
      </trkpt>
      <trkpt lat="45.92193" lon="4.75669">
        <ele>174</ele>
        <time>2018-08-18T08:37:50Z</time>
      </trkpt>
      <trkpt lat="45.92199" lon="4.75673">
        <ele>174</ele>
        <time>2018-08-18T08:37:51Z</time>
      </trkpt>
      <trkpt lat="45.92204" lon="4.75678">
        <ele>174</ele>
        <time>2018-08-18T08:37:52Z</time>
      </trkpt>
      <trkpt lat="45.92209" lon="4.75682">
        <ele>174</ele>
        <time>2018-08-18T08:37:53Z</time>
      </trkpt>
      <trkpt lat="45.92214" lon="4.75686">
        <ele>174</ele>
        <time>2018-08-18T08:37:54Z</time>
      </trkpt>
      <trkpt lat="45.92218" lon="4.7569">
        <ele>174</ele>
        <time>2018-08-18T08:37:55Z</time>
      </trkpt>
      <trkpt lat="45.92223" lon="4.75695">
        <ele>174</ele>
        <time>2018-08-18T08:37:56Z</time>
      </trkpt>
      <trkpt lat="45.92227" lon="4.757">
        <ele>174</ele>
        <time>2018-08-18T08:37:57Z</time>
      </trkpt>
      <trkpt lat="45.92233" lon="4.75709">
        <ele>174</ele>
        <time>2018-08-18T08:37:59Z</time>
      </trkpt>
      <trkpt lat="45.92236" lon="4.75713">
        <ele>174</ele>
        <time>2018-08-18T08:38:00Z</time>
      </trkpt>
      <trkpt lat="45.92239" lon="4.7572">
        <ele>174</ele>
        <time>2018-08-18T08:38:01Z</time>
      </trkpt>
      <trkpt lat="45.92242" lon="4.75726">
        <ele>174</ele>
        <time>2018-08-18T08:38:02Z</time>
      </trkpt>
      <trkpt lat="45.92244" lon="4.75734">
        <ele>174</ele>
        <time>2018-08-18T08:38:03Z</time>
      </trkpt>
      <trkpt lat="45.92248" lon="4.7574">
        <ele>174</ele>
        <time>2018-08-18T08:38:04Z</time>
      </trkpt>
      <trkpt lat="45.9225" lon="4.75747">
        <ele>174</ele>
        <time>2018-08-18T08:38:05Z</time>
      </trkpt>
      <trkpt lat="45.92252" lon="4.75754">
        <ele>174</ele>
        <time>2018-08-18T08:38:06Z</time>
      </trkpt>
      <trkpt lat="45.92254" lon="4.7576">
        <ele>174</ele>
        <time>2018-08-18T08:38:07Z</time>
      </trkpt>
      <trkpt lat="45.92255" lon="4.75767">
        <ele>174</ele>
        <time>2018-08-18T08:38:08Z</time>
      </trkpt>
      <trkpt lat="45.92256" lon="4.75773">
        <ele>174</ele>
        <time>2018-08-18T08:38:09Z</time>
      </trkpt>
      <trkpt lat="45.92256" lon="4.7578">
        <ele>174</ele>
        <time>2018-08-18T08:38:10Z</time>
      </trkpt>
      <trkpt lat="45.92257" lon="4.75787">
        <ele>174</ele>
        <time>2018-08-18T08:38:11Z</time>
      </trkpt>
      <trkpt lat="45.92258" lon="4.75795">
        <ele>174</ele>
        <time>2018-08-18T08:38:12Z</time>
      </trkpt>
      <trkpt lat="45.92259" lon="4.75802">
        <ele>174</ele>
        <time>2018-08-18T08:38:13Z</time>
      </trkpt>
      <trkpt lat="45.92261" lon="4.75809">
        <ele>174</ele>
        <time>2018-08-18T08:38:14Z</time>
      </trkpt>
      <trkpt lat="45.92264" lon="4.75815">
        <ele>174</ele>
        <time>2018-08-18T08:38:15Z</time>
      </trkpt>
      <trkpt lat="45.92267" lon="4.7582">
        <ele>174</ele>
        <time>2018-08-18T08:38:16Z</time>
      </trkpt>
      <trkpt lat="45.92271" lon="4.75826">
        <ele>174</ele>
        <time>2018-08-18T08:38:17Z</time>
      </trkpt>
      <trkpt lat="45.92276" lon="4.7583">
        <ele>174</ele>
        <time>2018-08-18T08:38:18Z</time>
      </trkpt>
      <trkpt lat="45.92283" lon="4.75835">
        <ele>173</ele>
        <time>2018-08-18T08:38:19Z</time>
      </trkpt>
      <trkpt lat="45.92289" lon="4.75839">
        <ele>173</ele>
        <time>2018-08-18T08:38:20Z</time>
      </trkpt>
      <trkpt lat="45.92295" lon="4.75843">
        <ele>173</ele>
        <time>2018-08-18T08:38:21Z</time>
      </trkpt>
      <trkpt lat="45.92301" lon="4.75846">
        <ele>173</ele>
        <time>2018-08-18T08:38:22Z</time>
      </trkpt>
      <trkpt lat="45.92306" lon="4.75849">
        <ele>173</ele>
        <time>2018-08-18T08:38:23Z</time>
      </trkpt>
      <trkpt lat="45.92312" lon="4.75853">
        <ele>173</ele>
        <time>2018-08-18T08:38:24Z</time>
      </trkpt>
      <trkpt lat="45.92317" lon="4.75855">
        <ele>173</ele>
        <time>2018-08-18T08:38:25Z</time>
      </trkpt>
      <trkpt lat="45.92323" lon="4.75859">
        <ele>173</ele>
        <time>2018-08-18T08:38:26Z</time>
      </trkpt>
      <trkpt lat="45.92329" lon="4.75863">
        <ele>173</ele>
        <time>2018-08-18T08:38:27Z</time>
      </trkpt>
      <trkpt lat="45.92334" lon="4.75867">
        <ele>173</ele>
        <time>2018-08-18T08:38:28Z</time>
      </trkpt>
      <trkpt lat="45.92339" lon="4.75871">
        <ele>173</ele>
        <time>2018-08-18T08:38:29Z</time>
      </trkpt>
      <trkpt lat="45.92345" lon="4.75875">
        <ele>173</ele>
        <time>2018-08-18T08:38:30Z</time>
      </trkpt>
      <trkpt lat="45.9235" lon="4.7588">
        <ele>173</ele>
        <time>2018-08-18T08:38:31Z</time>
      </trkpt>
      <trkpt lat="45.92355" lon="4.75883">
        <ele>173</ele>
        <time>2018-08-18T08:38:32Z</time>
      </trkpt>
      <trkpt lat="45.9236" lon="4.75886">
        <ele>173</ele>
        <time>2018-08-18T08:38:33Z</time>
      </trkpt>
      <trkpt lat="45.92366" lon="4.75889">
        <ele>173</ele>
        <time>2018-08-18T08:38:34Z</time>
      </trkpt>
      <trkpt lat="45.92371" lon="4.75893">
        <ele>173</ele>
        <time>2018-08-18T08:38:35Z</time>
      </trkpt>
      <trkpt lat="45.92376" lon="4.75896">
        <ele>173</ele>
        <time>2018-08-18T08:38:36Z</time>
      </trkpt>
      <trkpt lat="45.92381" lon="4.75899">
        <ele>173</ele>
        <time>2018-08-18T08:38:37Z</time>
      </trkpt>
      <trkpt lat="45.92386" lon="4.75902">
        <ele>173</ele>
        <time>2018-08-18T08:38:38Z</time>
      </trkpt>
      <trkpt lat="45.92391" lon="4.75906">
        <ele>173</ele>
        <time>2018-08-18T08:38:39Z</time>
      </trkpt>
      <trkpt lat="45.92396" lon="4.75909">
        <ele>173</ele>
        <time>2018-08-18T08:38:40Z</time>
      </trkpt>
      <trkpt lat="45.92401" lon="4.75912">
        <ele>172</ele>
        <time>2018-08-18T08:38:41Z</time>
      </trkpt>
      <trkpt lat="45.92406" lon="4.75916">
        <ele>172</ele>
        <time>2018-08-18T08:38:42Z</time>
      </trkpt>
      <trkpt lat="45.9241" lon="4.7592">
        <ele>172</ele>
        <time>2018-08-18T08:38:43Z</time>
      </trkpt>
      <trkpt lat="45.92415" lon="4.75923">
        <ele>172</ele>
        <time>2018-08-18T08:38:44Z</time>
      </trkpt>
      <trkpt lat="45.9242" lon="4.75926">
        <ele>172</ele>
        <time>2018-08-18T08:38:45Z</time>
      </trkpt>
      <trkpt lat="45.92424" lon="4.7593">
        <ele>172</ele>
        <time>2018-08-18T08:38:46Z</time>
      </trkpt>
      <trkpt lat="45.92429" lon="4.75934">
        <ele>172</ele>
        <time>2018-08-18T08:38:47Z</time>
      </trkpt>
      <trkpt lat="45.92435" lon="4.75937">
        <ele>172</ele>
        <time>2018-08-18T08:38:48Z</time>
      </trkpt>
      <trkpt lat="45.92439" lon="4.7594">
        <ele>172</ele>
        <time>2018-08-18T08:38:49Z</time>
      </trkpt>
      <trkpt lat="45.92443" lon="4.75943">
        <ele>172</ele>
        <time>2018-08-18T08:38:50Z</time>
      </trkpt>
      <trkpt lat="45.92448" lon="4.75947">
        <ele>172</ele>
        <time>2018-08-18T08:38:51Z</time>
      </trkpt>
      <trkpt lat="45.92452" lon="4.7595">
        <ele>172</ele>
        <time>2018-08-18T08:38:52Z</time>
      </trkpt>
      <trkpt lat="45.92456" lon="4.75953">
        <ele>172</ele>
        <time>2018-08-18T08:38:53Z</time>
      </trkpt>
      <trkpt lat="45.92462" lon="4.75955">
        <ele>172</ele>
        <time>2018-08-18T08:38:54Z</time>
      </trkpt>
      <trkpt lat="45.92466" lon="4.75958">
        <ele>172</ele>
        <time>2018-08-18T08:38:55Z</time>
      </trkpt>
      <trkpt lat="45.9247" lon="4.75962">
        <ele>172</ele>
        <time>2018-08-18T08:38:56Z</time>
      </trkpt>
      <trkpt lat="45.92473" lon="4.75965">
        <ele>172</ele>
        <time>2018-08-18T08:38:57Z</time>
      </trkpt>
      <trkpt lat="45.92478" lon="4.75968">
        <ele>172</ele>
        <time>2018-08-18T08:38:58Z</time>
      </trkpt>
      <trkpt lat="45.92484" lon="4.75973">
        <ele>172</ele>
        <time>2018-08-18T08:38:59Z</time>
      </trkpt>
      <trkpt lat="45.92487" lon="4.75976">
        <ele>172</ele>
        <time>2018-08-18T08:39:00Z</time>
      </trkpt>
      <trkpt lat="45.92494" lon="4.75983">
        <ele>172</ele>
        <time>2018-08-18T08:39:02Z</time>
      </trkpt>
      <trkpt lat="45.925" lon="4.75985">
        <ele>172</ele>
        <time>2018-08-18T08:39:03Z</time>
      </trkpt>
      <trkpt lat="45.92504" lon="4.75989">
        <ele>172</ele>
        <time>2018-08-18T08:39:04Z</time>
      </trkpt>
      <trkpt lat="45.92507" lon="4.75991">
        <ele>172</ele>
        <time>2018-08-18T08:39:05Z</time>
      </trkpt>
      <trkpt lat="45.92513" lon="4.75999">
        <ele>172</ele>
        <time>2018-08-18T08:39:07Z</time>
      </trkpt>
      <trkpt lat="45.92517" lon="4.76002">
        <ele>172</ele>
        <time>2018-08-18T08:39:08Z</time>
      </trkpt>
      <trkpt lat="45.92525" lon="4.76007">
        <ele>172</ele>
        <time>2018-08-18T08:39:10Z</time>
      </trkpt>
      <trkpt lat="45.92529" lon="4.7601">
        <ele>172</ele>
        <time>2018-08-18T08:39:11Z</time>
      </trkpt>
      <trkpt lat="45.92533" lon="4.76012">
        <ele>172</ele>
        <time>2018-08-18T08:39:12Z</time>
      </trkpt>
      <trkpt lat="45.92537" lon="4.76016">
        <ele>172</ele>
        <time>2018-08-18T08:39:13Z</time>
      </trkpt>
      <trkpt lat="45.92542" lon="4.76018">
        <ele>172</ele>
        <time>2018-08-18T08:39:14Z</time>
      </trkpt>
      <trkpt lat="45.92546" lon="4.76022">
        <ele>172</ele>
        <time>2018-08-18T08:39:15Z</time>
      </trkpt>
      <trkpt lat="45.9255" lon="4.76025">
        <ele>172</ele>
        <time>2018-08-18T08:39:16Z</time>
      </trkpt>
      <trkpt lat="45.92555" lon="4.76028">
        <ele>172</ele>
        <time>2018-08-18T08:39:17Z</time>
      </trkpt>
      <trkpt lat="45.92561" lon="4.76035">
        <ele>172</ele>
        <time>2018-08-18T08:39:19Z</time>
      </trkpt>
      <trkpt lat="45.92566" lon="4.76038">
        <ele>172</ele>
        <time>2018-08-18T08:39:20Z</time>
      </trkpt>
      <trkpt lat="45.92571" lon="4.76043">
        <ele>171</ele>
        <time>2018-08-18T08:39:21Z</time>
      </trkpt>
      <trkpt lat="45.92575" lon="4.76046">
        <ele>171</ele>
        <time>2018-08-18T08:39:22Z</time>
      </trkpt>
      <trkpt lat="45.92583" lon="4.76051">
        <ele>171</ele>
        <time>2018-08-18T08:39:24Z</time>
      </trkpt>
      <trkpt lat="45.92587" lon="4.76053">
        <ele>171</ele>
        <time>2018-08-18T08:39:25Z</time>
      </trkpt>
      <trkpt lat="45.92592" lon="4.76058">
        <ele>171</ele>
        <time>2018-08-18T08:39:26Z</time>
      </trkpt>
      <trkpt lat="45.92597" lon="4.76061">
        <ele>171</ele>
        <time>2018-08-18T08:39:27Z</time>
      </trkpt>
      <trkpt lat="45.92602" lon="4.76064">
        <ele>171</ele>
        <time>2018-08-18T08:39:28Z</time>
      </trkpt>
      <trkpt lat="45.92607" lon="4.76067">
        <ele>171</ele>
        <time>2018-08-18T08:39:29Z</time>
      </trkpt>
      <trkpt lat="45.92612" lon="4.7607">
        <ele>171</ele>
        <time>2018-08-18T08:39:30Z</time>
      </trkpt>
      <trkpt lat="45.92616" lon="4.76074">
        <ele>171</ele>
        <time>2018-08-18T08:39:31Z</time>
      </trkpt>
      <trkpt lat="45.92621" lon="4.76077">
        <ele>171</ele>
        <time>2018-08-18T08:39:32Z</time>
      </trkpt>
      <trkpt lat="45.92626" lon="4.76081">
        <ele>170</ele>
        <time>2018-08-18T08:39:33Z</time>
      </trkpt>
      <trkpt lat="45.92631" lon="4.76085">
        <ele>170</ele>
        <time>2018-08-18T08:39:34Z</time>
      </trkpt>
      <trkpt lat="45.92636" lon="4.76089">
        <ele>170</ele>
        <time>2018-08-18T08:39:35Z</time>
      </trkpt>
      <trkpt lat="45.92641" lon="4.76093">
        <ele>170</ele>
        <time>2018-08-18T08:39:36Z</time>
      </trkpt>
      <trkpt lat="45.92646" lon="4.76096">
        <ele>170</ele>
        <time>2018-08-18T08:39:37Z</time>
      </trkpt>
      <trkpt lat="45.92652" lon="4.761">
        <ele>170</ele>
        <time>2018-08-18T08:39:38Z</time>
      </trkpt>
      <trkpt lat="45.92658" lon="4.76103">
        <ele>170</ele>
        <time>2018-08-18T08:39:39Z</time>
      </trkpt>
      <trkpt lat="45.92664" lon="4.76107">
        <ele>170</ele>
        <time>2018-08-18T08:39:40Z</time>
      </trkpt>
      <trkpt lat="45.9267" lon="4.76112">
        <ele>169</ele>
        <time>2018-08-18T08:39:41Z</time>
      </trkpt>
      <trkpt lat="45.92676" lon="4.76115">
        <ele>169</ele>
        <time>2018-08-18T08:39:42Z</time>
      </trkpt>
      <trkpt lat="45.92682" lon="4.76119">
        <ele>169</ele>
        <time>2018-08-18T08:39:43Z</time>
      </trkpt>
      <trkpt lat="45.92688" lon="4.76123">
        <ele>169</ele>
        <time>2018-08-18T08:39:44Z</time>
      </trkpt>
      <trkpt lat="45.92694" lon="4.76127">
        <ele>169</ele>
        <time>2018-08-18T08:39:45Z</time>
      </trkpt>
      <trkpt lat="45.92701" lon="4.76131">
        <ele>169</ele>
        <time>2018-08-18T08:39:46Z</time>
      </trkpt>
      <trkpt lat="45.92707" lon="4.76138">
        <ele>169</ele>
        <time>2018-08-18T08:39:47Z</time>
      </trkpt>
      <trkpt lat="45.92714" lon="4.76142">
        <ele>168</ele>
        <time>2018-08-18T08:39:48Z</time>
      </trkpt>
      <trkpt lat="45.9272" lon="4.76146">
        <ele>168</ele>
        <time>2018-08-18T08:39:49Z</time>
      </trkpt>
      <trkpt lat="45.92727" lon="4.7615">
        <ele>168</ele>
        <time>2018-08-18T08:39:50Z</time>
      </trkpt>
      <trkpt lat="45.92733" lon="4.76155">
        <ele>168</ele>
        <time>2018-08-18T08:39:51Z</time>
      </trkpt>
      <trkpt lat="45.9274" lon="4.7616">
        <ele>168</ele>
        <time>2018-08-18T08:39:52Z</time>
      </trkpt>
      <trkpt lat="45.92746" lon="4.76164">
        <ele>167</ele>
        <time>2018-08-18T08:39:53Z</time>
      </trkpt>
      <trkpt lat="45.92751" lon="4.76167">
        <ele>167</ele>
        <time>2018-08-18T08:39:54Z</time>
      </trkpt>
      <trkpt lat="45.92757" lon="4.76171">
        <ele>167</ele>
        <time>2018-08-18T08:39:55Z</time>
      </trkpt>
      <trkpt lat="45.92764" lon="4.76173">
        <ele>167</ele>
        <time>2018-08-18T08:39:56Z</time>
      </trkpt>
      <trkpt lat="45.92768" lon="4.76179">
        <ele>167</ele>
        <time>2018-08-18T08:39:57Z</time>
      </trkpt>
      <trkpt lat="45.92773" lon="4.76184">
        <ele>167</ele>
        <time>2018-08-18T08:39:58Z</time>
      </trkpt>
      <trkpt lat="45.92778" lon="4.76187">
        <ele>168</ele>
        <time>2018-08-18T08:39:59Z</time>
      </trkpt>
      <trkpt lat="45.92783" lon="4.76191">
        <ele>168</ele>
        <time>2018-08-18T08:40:00Z</time>
      </trkpt>
      <trkpt lat="45.92788" lon="4.76193">
        <ele>168</ele>
        <time>2018-08-18T08:40:01Z</time>
      </trkpt>
      <trkpt lat="45.92793" lon="4.76196">
        <ele>168</ele>
        <time>2018-08-18T08:40:02Z</time>
      </trkpt>
      <trkpt lat="45.92799" lon="4.76198">
        <ele>168</ele>
        <time>2018-08-18T08:40:03Z</time>
      </trkpt>
      <trkpt lat="45.92805" lon="4.76201">
        <ele>168</ele>
        <time>2018-08-18T08:40:04Z</time>
      </trkpt>
      <trkpt lat="45.9281" lon="4.76204">
        <ele>168</ele>
        <time>2018-08-18T08:40:05Z</time>
      </trkpt>
      <trkpt lat="45.92814" lon="4.7621">
        <ele>168</ele>
        <time>2018-08-18T08:40:06Z</time>
      </trkpt>
      <trkpt lat="45.92819" lon="4.76216">
        <ele>168</ele>
        <time>2018-08-18T08:40:07Z</time>
      </trkpt>
      <trkpt lat="45.92823" lon="4.76222">
        <ele>168</ele>
        <time>2018-08-18T08:40:08Z</time>
      </trkpt>
      <trkpt lat="45.92827" lon="4.76227">
        <ele>168</ele>
        <time>2018-08-18T08:40:09Z</time>
      </trkpt>
      <trkpt lat="45.92833" lon="4.7623">
        <ele>168</ele>
        <time>2018-08-18T08:40:10Z</time>
      </trkpt>
      <trkpt lat="45.92837" lon="4.76235">
        <ele>169</ele>
        <time>2018-08-18T08:40:11Z</time>
      </trkpt>
      <trkpt lat="45.92841" lon="4.7624">
        <ele>169</ele>
        <time>2018-08-18T08:40:12Z</time>
      </trkpt>
      <trkpt lat="45.92844" lon="4.76246">
        <ele>169</ele>
        <time>2018-08-18T08:40:13Z</time>
      </trkpt>
      <trkpt lat="45.92847" lon="4.7625">
        <ele>169</ele>
        <time>2018-08-18T08:40:14Z</time>
      </trkpt>
      <trkpt lat="45.92851" lon="4.76255">
        <ele>169</ele>
        <time>2018-08-18T08:40:15Z</time>
      </trkpt>
      <trkpt lat="45.92855" lon="4.76258">
        <ele>169</ele>
        <time>2018-08-18T08:40:16Z</time>
      </trkpt>
      <trkpt lat="45.92858" lon="4.76262">
        <ele>169</ele>
        <time>2018-08-18T08:40:17Z</time>
      </trkpt>
      <trkpt lat="45.92863" lon="4.76265">
        <ele>169</ele>
        <time>2018-08-18T08:40:18Z</time>
      </trkpt>
      <trkpt lat="45.92867" lon="4.76271">
        <ele>169</ele>
        <time>2018-08-18T08:40:19Z</time>
      </trkpt>
      <trkpt lat="45.92871" lon="4.76276">
        <ele>169</ele>
        <time>2018-08-18T08:40:20Z</time>
      </trkpt>
      <trkpt lat="45.92876" lon="4.76281">
        <ele>169</ele>
        <time>2018-08-18T08:40:21Z</time>
      </trkpt>
      <trkpt lat="45.9288" lon="4.76285">
        <ele>169</ele>
        <time>2018-08-18T08:40:22Z</time>
      </trkpt>
      <trkpt lat="45.92886" lon="4.7629">
        <ele>169</ele>
        <time>2018-08-18T08:40:23Z</time>
      </trkpt>
      <trkpt lat="45.9289" lon="4.76296">
        <ele>169</ele>
        <time>2018-08-18T08:40:24Z</time>
      </trkpt>
      <trkpt lat="45.92894" lon="4.76301">
        <ele>169</ele>
        <time>2018-08-18T08:40:25Z</time>
      </trkpt>
      <trkpt lat="45.92899" lon="4.76305">
        <ele>169</ele>
        <time>2018-08-18T08:40:26Z</time>
      </trkpt>
      <trkpt lat="45.92903" lon="4.76311">
        <ele>169</ele>
        <time>2018-08-18T08:40:27Z</time>
      </trkpt>
      <trkpt lat="45.92909" lon="4.76316">
        <ele>169</ele>
        <time>2018-08-18T08:40:28Z</time>
      </trkpt>
      <trkpt lat="45.92913" lon="4.76321">
        <ele>169</ele>
        <time>2018-08-18T08:40:29Z</time>
      </trkpt>
      <trkpt lat="45.92919" lon="4.76326">
        <ele>169</ele>
        <time>2018-08-18T08:40:30Z</time>
      </trkpt>
      <trkpt lat="45.92924" lon="4.76331">
        <ele>169</ele>
        <time>2018-08-18T08:40:31Z</time>
      </trkpt>
      <trkpt lat="45.9293" lon="4.76336">
        <ele>169</ele>
        <time>2018-08-18T08:40:32Z</time>
      </trkpt>
      <trkpt lat="45.92934" lon="4.7634">
        <ele>169</ele>
        <time>2018-08-18T08:40:33Z</time>
      </trkpt>
      <trkpt lat="45.92939" lon="4.76346">
        <ele>169</ele>
        <time>2018-08-18T08:40:34Z</time>
      </trkpt>
      <trkpt lat="45.92943" lon="4.76351">
        <ele>169</ele>
        <time>2018-08-18T08:40:35Z</time>
      </trkpt>
      <trkpt lat="45.92948" lon="4.76356">
        <ele>169</ele>
        <time>2018-08-18T08:40:36Z</time>
      </trkpt>
      <trkpt lat="45.92951" lon="4.7636">
        <ele>169</ele>
        <time>2018-08-18T08:40:37Z</time>
      </trkpt>
      <trkpt lat="45.92956" lon="4.76364">
        <ele>169</ele>
        <time>2018-08-18T08:40:38Z</time>
      </trkpt>
      <trkpt lat="45.92961" lon="4.76369">
        <ele>169</ele>
        <time>2018-08-18T08:40:39Z</time>
      </trkpt>
      <trkpt lat="45.92966" lon="4.76373">
        <ele>169</ele>
        <time>2018-08-18T08:40:40Z</time>
      </trkpt>
      <trkpt lat="45.9297" lon="4.76378">
        <ele>169</ele>
        <time>2018-08-18T08:40:41Z</time>
      </trkpt>
      <trkpt lat="45.92974" lon="4.76381">
        <ele>169</ele>
        <time>2018-08-18T08:40:42Z</time>
      </trkpt>
      <trkpt lat="45.92979" lon="4.76386">
        <ele>169</ele>
        <time>2018-08-18T08:40:43Z</time>
      </trkpt>
      <trkpt lat="45.92983" lon="4.76391">
        <ele>169</ele>
        <time>2018-08-18T08:40:44Z</time>
      </trkpt>
      <trkpt lat="45.92988" lon="4.76396">
        <ele>169</ele>
        <time>2018-08-18T08:40:45Z</time>
      </trkpt>
      <trkpt lat="45.92994" lon="4.76399">
        <ele>169</ele>
        <time>2018-08-18T08:40:46Z</time>
      </trkpt>
      <trkpt lat="45.92997" lon="4.76403">
        <ele>169</ele>
        <time>2018-08-18T08:40:47Z</time>
      </trkpt>
      <trkpt lat="45.93002" lon="4.76407">
        <ele>169</ele>
        <time>2018-08-18T08:40:48Z</time>
      </trkpt>
      <trkpt lat="45.93007" lon="4.76412">
        <ele>169</ele>
        <time>2018-08-18T08:40:49Z</time>
      </trkpt>
      <trkpt lat="45.93012" lon="4.76417">
        <ele>169</ele>
        <time>2018-08-18T08:40:50Z</time>
      </trkpt>
      <trkpt lat="45.93015" lon="4.76422">
        <ele>169</ele>
        <time>2018-08-18T08:40:51Z</time>
      </trkpt>
      <trkpt lat="45.93019" lon="4.76427">
        <ele>169</ele>
        <time>2018-08-18T08:40:52Z</time>
      </trkpt>
      <trkpt lat="45.93024" lon="4.76432">
        <ele>169</ele>
        <time>2018-08-18T08:40:53Z</time>
      </trkpt>
      <trkpt lat="45.93027" lon="4.76435">
        <ele>169</ele>
        <time>2018-08-18T08:40:54Z</time>
      </trkpt>
      <trkpt lat="45.93031" lon="4.76439">
        <ele>169</ele>
        <time>2018-08-18T08:40:55Z</time>
      </trkpt>
      <trkpt lat="45.93036" lon="4.76442">
        <ele>169</ele>
        <time>2018-08-18T08:40:56Z</time>
      </trkpt>
      <trkpt lat="45.93041" lon="4.76446">
        <ele>169</ele>
        <time>2018-08-18T08:40:57Z</time>
      </trkpt>
      <trkpt lat="45.93046" lon="4.7645">
        <ele>169</ele>
        <time>2018-08-18T08:40:58Z</time>
      </trkpt>
      <trkpt lat="45.9305" lon="4.76455">
        <ele>169</ele>
        <time>2018-08-18T08:40:59Z</time>
      </trkpt>
      <trkpt lat="45.93054" lon="4.7646">
        <ele>169</ele>
        <time>2018-08-18T08:41:00Z</time>
      </trkpt>
      <trkpt lat="45.93059" lon="4.76466">
        <ele>169</ele>
        <time>2018-08-18T08:41:01Z</time>
      </trkpt>
      <trkpt lat="45.93064" lon="4.7647">
        <ele>169</ele>
        <time>2018-08-18T08:41:02Z</time>
      </trkpt>
      <trkpt lat="45.9307" lon="4.76474">
        <ele>169</ele>
        <time>2018-08-18T08:41:03Z</time>
      </trkpt>
      <trkpt lat="45.93075" lon="4.76479">
        <ele>169</ele>
        <time>2018-08-18T08:41:04Z</time>
      </trkpt>
      <trkpt lat="45.93079" lon="4.76483">
        <ele>169</ele>
        <time>2018-08-18T08:41:05Z</time>
      </trkpt>
      <trkpt lat="45.93084" lon="4.76487">
        <ele>170</ele>
        <time>2018-08-18T08:41:06Z</time>
      </trkpt>
      <trkpt lat="45.93089" lon="4.76491">
        <ele>170</ele>
        <time>2018-08-18T08:41:07Z</time>
      </trkpt>
      <trkpt lat="45.93093" lon="4.76496">
        <ele>170</ele>
        <time>2018-08-18T08:41:08Z</time>
      </trkpt>
      <trkpt lat="45.93096" lon="4.76498">
        <ele>170</ele>
        <time>2018-08-18T08:41:09Z</time>
      </trkpt>
      <trkpt lat="45.93101" lon="4.76504">
        <ele>170</ele>
        <time>2018-08-18T08:41:10Z</time>
      </trkpt>
      <trkpt lat="45.93106" lon="4.7651">
        <ele>170</ele>
        <time>2018-08-18T08:41:11Z</time>
      </trkpt>
      <trkpt lat="45.9311" lon="4.76515">
        <ele>170</ele>
        <time>2018-08-18T08:41:12Z</time>
      </trkpt>
      <trkpt lat="45.93114" lon="4.7652">
        <ele>170</ele>
        <time>2018-08-18T08:41:13Z</time>
      </trkpt>
      <trkpt lat="45.93119" lon="4.76525">
        <ele>170</ele>
        <time>2018-08-18T08:41:14Z</time>
      </trkpt>
      <trkpt lat="45.93122" lon="4.76529">
        <ele>170</ele>
        <time>2018-08-18T08:41:15Z</time>
      </trkpt>
      <trkpt lat="45.93126" lon="4.76533">
        <ele>170</ele>
        <time>2018-08-18T08:41:16Z</time>
      </trkpt>
      <trkpt lat="45.93132" lon="4.76538">
        <ele>170</ele>
        <time>2018-08-18T08:41:17Z</time>
      </trkpt>
      <trkpt lat="45.93136" lon="4.76544">
        <ele>170</ele>
        <time>2018-08-18T08:41:18Z</time>
      </trkpt>
      <trkpt lat="45.93141" lon="4.76549">
        <ele>170</ele>
        <time>2018-08-18T08:41:19Z</time>
      </trkpt>
      <trkpt lat="45.93146" lon="4.76552">
        <ele>170</ele>
        <time>2018-08-18T08:41:20Z</time>
      </trkpt>
      <trkpt lat="45.9315" lon="4.76557">
        <ele>170</ele>
        <time>2018-08-18T08:41:21Z</time>
      </trkpt>
      <trkpt lat="45.93153" lon="4.7656">
        <ele>170</ele>
        <time>2018-08-18T08:41:22Z</time>
      </trkpt>
      <trkpt lat="45.93158" lon="4.76565">
        <ele>170</ele>
        <time>2018-08-18T08:41:23Z</time>
      </trkpt>
      <trkpt lat="45.93163" lon="4.76572">
        <ele>170</ele>
        <time>2018-08-18T08:41:24Z</time>
      </trkpt>
      <trkpt lat="45.93168" lon="4.76577">
        <ele>170</ele>
        <time>2018-08-18T08:41:25Z</time>
      </trkpt>
      <trkpt lat="45.93177" lon="4.76582">
        <ele>170</ele>
        <time>2018-08-18T08:41:26Z</time>
      </trkpt>
      <trkpt lat="45.93181" lon="4.7659">
        <ele>171</ele>
        <time>2018-08-18T08:41:27Z</time>
      </trkpt>
      <trkpt lat="45.93188" lon="4.76593">
        <ele>171</ele>
        <time>2018-08-18T08:41:28Z</time>
      </trkpt>
      <trkpt lat="45.93193" lon="4.766">
        <ele>170</ele>
        <time>2018-08-18T08:41:30Z</time>
      </trkpt>
      <trkpt lat="45.93198" lon="4.76605">
        <ele>170</ele>
        <time>2018-08-18T08:41:31Z</time>
      </trkpt>
      <trkpt lat="45.93203" lon="4.76611">
        <ele>170</ele>
        <time>2018-08-18T08:41:32Z</time>
      </trkpt>
      <trkpt lat="45.93209" lon="4.76614">
        <ele>170</ele>
        <time>2018-08-18T08:41:33Z</time>
      </trkpt>
      <trkpt lat="45.93213" lon="4.76617">
        <ele>170</ele>
        <time>2018-08-18T08:41:34Z</time>
      </trkpt>
      <trkpt lat="45.93217" lon="4.76622">
        <ele>170</ele>
        <time>2018-08-18T08:41:35Z</time>
      </trkpt>
      <trkpt lat="45.93224" lon="4.7663">
        <ele>170</ele>
        <time>2018-08-18T08:41:37Z</time>
      </trkpt>
      <trkpt lat="45.93229" lon="4.76633">
        <ele>171</ele>
        <time>2018-08-18T08:41:38Z</time>
      </trkpt>
      <trkpt lat="45.93233" lon="4.76637">
        <ele>171</ele>
        <time>2018-08-18T08:41:39Z</time>
      </trkpt>
      <trkpt lat="45.93237" lon="4.76643">
        <ele>171</ele>
        <time>2018-08-18T08:41:40Z</time>
      </trkpt>
      <trkpt lat="45.93242" lon="4.76648">
        <ele>171</ele>
        <time>2018-08-18T08:41:41Z</time>
      </trkpt>
      <trkpt lat="45.93245" lon="4.76652">
        <ele>171</ele>
        <time>2018-08-18T08:41:42Z</time>
      </trkpt>
      <trkpt lat="45.93251" lon="4.76657">
        <ele>171</ele>
        <time>2018-08-18T08:41:43Z</time>
      </trkpt>
      <trkpt lat="45.93253" lon="4.76662">
        <ele>171</ele>
        <time>2018-08-18T08:41:44Z</time>
      </trkpt>
      <trkpt lat="45.9326" lon="4.76669">
        <ele>172</ele>
        <time>2018-08-18T08:41:46Z</time>
      </trkpt>
      <trkpt lat="45.93265" lon="4.76673">
        <ele>172</ele>
        <time>2018-08-18T08:41:47Z</time>
      </trkpt>
      <trkpt lat="45.93269" lon="4.76679">
        <ele>172</ele>
        <time>2018-08-18T08:41:48Z</time>
      </trkpt>
      <trkpt lat="45.93273" lon="4.76685">
        <ele>172</ele>
        <time>2018-08-18T08:41:49Z</time>
      </trkpt>
      <trkpt lat="45.93281" lon="4.76689">
        <ele>172</ele>
        <time>2018-08-18T08:41:51Z</time>
      </trkpt>
      <trkpt lat="45.93283" lon="4.76692">
        <ele>172</ele>
        <time>2018-08-18T08:41:52Z</time>
      </trkpt>
      <trkpt lat="45.9329" lon="4.76696">
        <ele>172</ele>
        <time>2018-08-18T08:41:54Z</time>
      </trkpt>
      <trkpt lat="45.93296" lon="4.76698">
        <ele>172</ele>
        <time>2018-08-18T08:41:55Z</time>
      </trkpt>
      <trkpt lat="45.93303" lon="4.76706">
        <ele>172</ele>
        <time>2018-08-18T08:41:57Z</time>
      </trkpt>
      <trkpt lat="45.93308" lon="4.76712">
        <ele>172</ele>
        <time>2018-08-18T08:41:58Z</time>
      </trkpt>
      <trkpt lat="45.93313" lon="4.76715">
        <ele>172</ele>
        <time>2018-08-18T08:41:59Z</time>
      </trkpt>
      <trkpt lat="45.93318" lon="4.76719">
        <ele>172</ele>
        <time>2018-08-18T08:42:00Z</time>
      </trkpt>
      <trkpt lat="45.93322" lon="4.76723">
        <ele>172</ele>
        <time>2018-08-18T08:42:01Z</time>
      </trkpt>
      <trkpt lat="45.93327" lon="4.7673">
        <ele>172</ele>
        <time>2018-08-18T08:42:02Z</time>
      </trkpt>
      <trkpt lat="45.93331" lon="4.76734">
        <ele>172</ele>
        <time>2018-08-18T08:42:03Z</time>
      </trkpt>
      <trkpt lat="45.93336" lon="4.76738">
        <ele>172</ele>
        <time>2018-08-18T08:42:04Z</time>
      </trkpt>
      <trkpt lat="45.9334" lon="4.76742">
        <ele>173</ele>
        <time>2018-08-18T08:42:05Z</time>
      </trkpt>
      <trkpt lat="45.93345" lon="4.76746">
        <ele>172</ele>
        <time>2018-08-18T08:42:06Z</time>
      </trkpt>
      <trkpt lat="45.93348" lon="4.76751">
        <ele>172</ele>
        <time>2018-08-18T08:42:07Z</time>
      </trkpt>
      <trkpt lat="45.93352" lon="4.76755">
        <ele>172</ele>
        <time>2018-08-18T08:42:08Z</time>
      </trkpt>
      <trkpt lat="45.93356" lon="4.7676">
        <ele>172</ele>
        <time>2018-08-18T08:42:09Z</time>
      </trkpt>
      <trkpt lat="45.9336" lon="4.76764">
        <ele>172</ele>
        <time>2018-08-18T08:42:10Z</time>
      </trkpt>
      <trkpt lat="45.93364" lon="4.76769">
        <ele>172</ele>
        <time>2018-08-18T08:42:11Z</time>
      </trkpt>
      <trkpt lat="45.93369" lon="4.76773">
        <ele>172</ele>
        <time>2018-08-18T08:42:12Z</time>
      </trkpt>
      <trkpt lat="45.93372" lon="4.76777">
        <ele>172</ele>
        <time>2018-08-18T08:42:13Z</time>
      </trkpt>
      <trkpt lat="45.93376" lon="4.76783">
        <ele>172</ele>
        <time>2018-08-18T08:42:14Z</time>
      </trkpt>
      <trkpt lat="45.9338" lon="4.76789">
        <ele>172</ele>
        <time>2018-08-18T08:42:15Z</time>
      </trkpt>
      <trkpt lat="45.93384" lon="4.76794">
        <ele>172</ele>
        <time>2018-08-18T08:42:16Z</time>
      </trkpt>
      <trkpt lat="45.93389" lon="4.76799">
        <ele>172</ele>
        <time>2018-08-18T08:42:17Z</time>
      </trkpt>
      <trkpt lat="45.93394" lon="4.76805">
        <ele>172</ele>
        <time>2018-08-18T08:42:18Z</time>
      </trkpt>
      <trkpt lat="45.93398" lon="4.76811">
        <ele>172</ele>
        <time>2018-08-18T08:42:19Z</time>
      </trkpt>
      <trkpt lat="45.93401" lon="4.76816">
        <ele>172</ele>
        <time>2018-08-18T08:42:20Z</time>
      </trkpt>
      <trkpt lat="45.93407" lon="4.76822">
        <ele>172</ele>
        <time>2018-08-18T08:42:21Z</time>
      </trkpt>
      <trkpt lat="45.9341" lon="4.76828">
        <ele>172</ele>
        <time>2018-08-18T08:42:22Z</time>
      </trkpt>
      <trkpt lat="45.93414" lon="4.76835">
        <ele>172</ele>
        <time>2018-08-18T08:42:23Z</time>
      </trkpt>
      <trkpt lat="45.93417" lon="4.76842">
        <ele>172</ele>
        <time>2018-08-18T08:42:24Z</time>
      </trkpt>
      <trkpt lat="45.93421" lon="4.76849">
        <ele>171</ele>
        <time>2018-08-18T08:42:25Z</time>
      </trkpt>
      <trkpt lat="45.93424" lon="4.76857">
        <ele>171</ele>
        <time>2018-08-18T08:42:26Z</time>
      </trkpt>
      <trkpt lat="45.93428" lon="4.76862">
        <ele>171</ele>
        <time>2018-08-18T08:42:27Z</time>
      </trkpt>
      <trkpt lat="45.93431" lon="4.7687">
        <ele>171</ele>
        <time>2018-08-18T08:42:28Z</time>
      </trkpt>
      <trkpt lat="45.93434" lon="4.76878">
        <ele>171</ele>
        <time>2018-08-18T08:42:29Z</time>
      </trkpt>
      <trkpt lat="45.93437" lon="4.76886">
        <ele>171</ele>
        <time>2018-08-18T08:42:30Z</time>
      </trkpt>
      <trkpt lat="45.93439" lon="4.76893">
        <ele>170</ele>
        <time>2018-08-18T08:42:31Z</time>
      </trkpt>
      <trkpt lat="45.93441" lon="4.769">
        <ele>170</ele>
        <time>2018-08-18T08:42:32Z</time>
      </trkpt>
      <trkpt lat="45.93441" lon="4.76908">
        <ele>170</ele>
        <time>2018-08-18T08:42:33Z</time>
      </trkpt>
      <trkpt lat="45.93442" lon="4.76915">
        <ele>170</ele>
        <time>2018-08-18T08:42:34Z</time>
      </trkpt>
      <trkpt lat="45.93444" lon="4.76923">
        <ele>170</ele>
        <time>2018-08-18T08:42:35Z</time>
      </trkpt>
      <trkpt lat="45.93446" lon="4.76929">
        <ele>170</ele>
        <time>2018-08-18T08:42:36Z</time>
      </trkpt>
      <trkpt lat="45.93447" lon="4.76937">
        <ele>170</ele>
        <time>2018-08-18T08:42:37Z</time>
      </trkpt>
      <trkpt lat="45.93449" lon="4.76944">
        <ele>170</ele>
        <time>2018-08-18T08:42:38Z</time>
      </trkpt>
      <trkpt lat="45.9345" lon="4.76951">
        <ele>170</ele>
        <time>2018-08-18T08:42:39Z</time>
      </trkpt>
      <trkpt lat="45.93451" lon="4.76959">
        <ele>170</ele>
        <time>2018-08-18T08:42:40Z</time>
      </trkpt>
      <trkpt lat="45.93452" lon="4.76967">
        <ele>170</ele>
        <time>2018-08-18T08:42:41Z</time>
      </trkpt>
      <trkpt lat="45.93454" lon="4.76975">
        <ele>170</ele>
        <time>2018-08-18T08:42:42Z</time>
      </trkpt>
      <trkpt lat="45.93455" lon="4.76983">
        <ele>170</ele>
        <time>2018-08-18T08:42:43Z</time>
      </trkpt>
      <trkpt lat="45.93456" lon="4.76992">
        <ele>170</ele>
        <time>2018-08-18T08:42:44Z</time>
      </trkpt>
      <trkpt lat="45.93457" lon="4.77">
        <ele>170</ele>
        <time>2018-08-18T08:42:45Z</time>
      </trkpt>
      <trkpt lat="45.93458" lon="4.77009">
        <ele>170</ele>
        <time>2018-08-18T08:42:46Z</time>
      </trkpt>
      <trkpt lat="45.9346" lon="4.77018">
        <ele>170</ele>
        <time>2018-08-18T08:42:47Z</time>
      </trkpt>
      <trkpt lat="45.93461" lon="4.77027">
        <ele>170</ele>
        <time>2018-08-18T08:42:48Z</time>
      </trkpt>
      <trkpt lat="45.93463" lon="4.77036">
        <ele>170</ele>
        <time>2018-08-18T08:42:49Z</time>
      </trkpt>
      <trkpt lat="45.93465" lon="4.77045">
        <ele>170</ele>
        <time>2018-08-18T08:42:50Z</time>
      </trkpt>
      <trkpt lat="45.93467" lon="4.77052">
        <ele>170</ele>
        <time>2018-08-18T08:42:51Z</time>
      </trkpt>
      <trkpt lat="45.93468" lon="4.77059">
        <ele>170</ele>
        <time>2018-08-18T08:42:52Z</time>
      </trkpt>
      <trkpt lat="45.93469" lon="4.77067">
        <ele>170</ele>
        <time>2018-08-18T08:42:53Z</time>
      </trkpt>
      <trkpt lat="45.93471" lon="4.77076">
        <ele>170</ele>
        <time>2018-08-18T08:42:54Z</time>
      </trkpt>
      <trkpt lat="45.93472" lon="4.77084">
        <ele>169</ele>
        <time>2018-08-18T08:42:55Z</time>
      </trkpt>
      <trkpt lat="45.93473" lon="4.77092">
        <ele>169</ele>
        <time>2018-08-18T08:42:56Z</time>
      </trkpt>
      <trkpt lat="45.93474" lon="4.771">
        <ele>169</ele>
        <time>2018-08-18T08:42:57Z</time>
      </trkpt>
      <trkpt lat="45.93477" lon="4.77109">
        <ele>169</ele>
        <time>2018-08-18T08:42:58Z</time>
      </trkpt>
      <trkpt lat="45.93479" lon="4.77117">
        <ele>169</ele>
        <time>2018-08-18T08:42:59Z</time>
      </trkpt>
      <trkpt lat="45.9348" lon="4.77125">
        <ele>169</ele>
        <time>2018-08-18T08:43:00Z</time>
      </trkpt>
      <trkpt lat="45.93482" lon="4.77133">
        <ele>169</ele>
        <time>2018-08-18T08:43:01Z</time>
      </trkpt>
      <trkpt lat="45.93483" lon="4.7714">
        <ele>169</ele>
        <time>2018-08-18T08:43:02Z</time>
      </trkpt>
      <trkpt lat="45.93485" lon="4.77148">
        <ele>169</ele>
        <time>2018-08-18T08:43:03Z</time>
      </trkpt>
      <trkpt lat="45.93487" lon="4.77156">
        <ele>169</ele>
        <time>2018-08-18T08:43:04Z</time>
      </trkpt>
      <trkpt lat="45.9349" lon="4.77164">
        <ele>169</ele>
        <time>2018-08-18T08:43:05Z</time>
      </trkpt>
      <trkpt lat="45.93491" lon="4.77172">
        <ele>169</ele>
        <time>2018-08-18T08:43:06Z</time>
      </trkpt>
      <trkpt lat="45.93493" lon="4.7718">
        <ele>169</ele>
        <time>2018-08-18T08:43:07Z</time>
      </trkpt>
      <trkpt lat="45.93495" lon="4.77188">
        <ele>169</ele>
        <time>2018-08-18T08:43:08Z</time>
      </trkpt>
      <trkpt lat="45.93496" lon="4.77195">
        <ele>169</ele>
        <time>2018-08-18T08:43:09Z</time>
      </trkpt>
      <trkpt lat="45.93496" lon="4.77203">
        <ele>169</ele>
        <time>2018-08-18T08:43:10Z</time>
      </trkpt>
      <trkpt lat="45.93498" lon="4.77211">
        <ele>169</ele>
        <time>2018-08-18T08:43:11Z</time>
      </trkpt>
      <trkpt lat="45.935" lon="4.77218">
        <ele>169</ele>
        <time>2018-08-18T08:43:12Z</time>
      </trkpt>
      <trkpt lat="45.93501" lon="4.77225">
        <ele>169</ele>
        <time>2018-08-18T08:43:13Z</time>
      </trkpt>
      <trkpt lat="45.93503" lon="4.77233">
        <ele>169</ele>
        <time>2018-08-18T08:43:14Z</time>
      </trkpt>
      <trkpt lat="45.93504" lon="4.77241">
        <ele>170</ele>
        <time>2018-08-18T08:43:15Z</time>
      </trkpt>
      <trkpt lat="45.93505" lon="4.77248">
        <ele>170</ele>
        <time>2018-08-18T08:43:16Z</time>
      </trkpt>
      <trkpt lat="45.93507" lon="4.77256">
        <ele>170</ele>
        <time>2018-08-18T08:43:17Z</time>
      </trkpt>
      <trkpt lat="45.93509" lon="4.77264">
        <ele>170</ele>
        <time>2018-08-18T08:43:18Z</time>
      </trkpt>
      <trkpt lat="45.93511" lon="4.77272">
        <ele>170</ele>
        <time>2018-08-18T08:43:19Z</time>
      </trkpt>
      <trkpt lat="45.93513" lon="4.77279">
        <ele>170</ele>
        <time>2018-08-18T08:43:20Z</time>
      </trkpt>
      <trkpt lat="45.93514" lon="4.77285">
        <ele>170</ele>
        <time>2018-08-18T08:43:21Z</time>
      </trkpt>
      <trkpt lat="45.93515" lon="4.77293">
        <ele>170</ele>
        <time>2018-08-18T08:43:22Z</time>
      </trkpt>
      <trkpt lat="45.93517" lon="4.77299">
        <ele>170</ele>
        <time>2018-08-18T08:43:23Z</time>
      </trkpt>
      <trkpt lat="45.93519" lon="4.77308">
        <ele>170</ele>
        <time>2018-08-18T08:43:24Z</time>
      </trkpt>
      <trkpt lat="45.93522" lon="4.77314">
        <ele>170</ele>
        <time>2018-08-18T08:43:25Z</time>
      </trkpt>
      <trkpt lat="45.93523" lon="4.77322">
        <ele>170</ele>
        <time>2018-08-18T08:43:26Z</time>
      </trkpt>
      <trkpt lat="45.93523" lon="4.77332">
        <ele>170</ele>
        <time>2018-08-18T08:43:27Z</time>
      </trkpt>
      <trkpt lat="45.93524" lon="4.77339">
        <ele>170</ele>
        <time>2018-08-18T08:43:28Z</time>
      </trkpt>
      <trkpt lat="45.93525" lon="4.77346">
        <ele>170</ele>
        <time>2018-08-18T08:43:29Z</time>
      </trkpt>
      <trkpt lat="45.93527" lon="4.77356">
        <ele>170</ele>
        <time>2018-08-18T08:43:30Z</time>
      </trkpt>
      <trkpt lat="45.93528" lon="4.77364">
        <ele>170</ele>
        <time>2018-08-18T08:43:31Z</time>
      </trkpt>
      <trkpt lat="45.93532" lon="4.77372">
        <ele>170</ele>
        <time>2018-08-18T08:43:32Z</time>
      </trkpt>
      <trkpt lat="45.93534" lon="4.77381">
        <ele>170</ele>
        <time>2018-08-18T08:43:33Z</time>
      </trkpt>
      <trkpt lat="45.93537" lon="4.7739">
        <ele>170</ele>
        <time>2018-08-18T08:43:34Z</time>
      </trkpt>
      <trkpt lat="45.93538" lon="4.77398">
        <ele>170</ele>
        <time>2018-08-18T08:43:35Z</time>
      </trkpt>
      <trkpt lat="45.93541" lon="4.77408">
        <ele>170</ele>
        <time>2018-08-18T08:43:36Z</time>
      </trkpt>
      <trkpt lat="45.93542" lon="4.77414">
        <ele>170</ele>
        <time>2018-08-18T08:43:37Z</time>
      </trkpt>
      <trkpt lat="45.93544" lon="4.77422">
        <ele>170</ele>
        <time>2018-08-18T08:43:38Z</time>
      </trkpt>
      <trkpt lat="45.93546" lon="4.77432">
        <ele>169</ele>
        <time>2018-08-18T08:43:39Z</time>
      </trkpt>
      <trkpt lat="45.93548" lon="4.7744">
        <ele>169</ele>
        <time>2018-08-18T08:43:40Z</time>
      </trkpt>
      <trkpt lat="45.9355" lon="4.77446">
        <ele>169</ele>
        <time>2018-08-18T08:43:41Z</time>
      </trkpt>
      <trkpt lat="45.93552" lon="4.77453">
        <ele>169</ele>
        <time>2018-08-18T08:43:42Z</time>
      </trkpt>
      <trkpt lat="45.93553" lon="4.77462">
        <ele>169</ele>
        <time>2018-08-18T08:43:43Z</time>
      </trkpt>
      <trkpt lat="45.93555" lon="4.7747">
        <ele>169</ele>
        <time>2018-08-18T08:43:44Z</time>
      </trkpt>
      <trkpt lat="45.93556" lon="4.77477">
        <ele>169</ele>
        <time>2018-08-18T08:43:45Z</time>
      </trkpt>
      <trkpt lat="45.93556" lon="4.77485">
        <ele>169</ele>
        <time>2018-08-18T08:43:46Z</time>
      </trkpt>
      <trkpt lat="45.9356" lon="4.7749">
        <ele>169</ele>
        <time>2018-08-18T08:43:47Z</time>
      </trkpt>
      <trkpt lat="45.93561" lon="4.77496">
        <ele>169</ele>
        <time>2018-08-18T08:43:48Z</time>
      </trkpt>
      <trkpt lat="45.93563" lon="4.77504">
        <ele>169</ele>
        <time>2018-08-18T08:43:49Z</time>
      </trkpt>
      <trkpt lat="45.93566" lon="4.7751">
        <ele>169</ele>
        <time>2018-08-18T08:43:50Z</time>
      </trkpt>
      <trkpt lat="45.93568" lon="4.77517">
        <ele>169</ele>
        <time>2018-08-18T08:43:51Z</time>
      </trkpt>
      <trkpt lat="45.93571" lon="4.77524">
        <ele>169</ele>
        <time>2018-08-18T08:43:52Z</time>
      </trkpt>
      <trkpt lat="45.93572" lon="4.77532">
        <ele>169</ele>
        <time>2018-08-18T08:43:53Z</time>
      </trkpt>
      <trkpt lat="45.93574" lon="4.7754">
        <ele>169</ele>
        <time>2018-08-18T08:43:54Z</time>
      </trkpt>
      <trkpt lat="45.93575" lon="4.77548">
        <ele>169</ele>
        <time>2018-08-18T08:43:55Z</time>
      </trkpt>
      <trkpt lat="45.93577" lon="4.77555">
        <ele>169</ele>
        <time>2018-08-18T08:43:56Z</time>
      </trkpt>
      <trkpt lat="45.93579" lon="4.77563">
        <ele>169</ele>
        <time>2018-08-18T08:43:57Z</time>
      </trkpt>
      <trkpt lat="45.93581" lon="4.77571">
        <ele>170</ele>
        <time>2018-08-18T08:43:58Z</time>
      </trkpt>
      <trkpt lat="45.93582" lon="4.77577">
        <ele>170</ele>
        <time>2018-08-18T08:43:59Z</time>
      </trkpt>
      <trkpt lat="45.93585" lon="4.77585">
        <ele>170</ele>
        <time>2018-08-18T08:44:00Z</time>
      </trkpt>
      <trkpt lat="45.93586" lon="4.77592">
        <ele>170</ele>
        <time>2018-08-18T08:44:01Z</time>
      </trkpt>
      <trkpt lat="45.93588" lon="4.776">
        <ele>170</ele>
        <time>2018-08-18T08:44:02Z</time>
      </trkpt>
      <trkpt lat="45.93593" lon="4.77608">
        <ele>170</ele>
        <time>2018-08-18T08:44:03Z</time>
      </trkpt>
      <trkpt lat="45.93595" lon="4.77615">
        <ele>170</ele>
        <time>2018-08-18T08:44:04Z</time>
      </trkpt>
      <trkpt lat="45.93598" lon="4.7762">
        <ele>170</ele>
        <time>2018-08-18T08:44:05Z</time>
      </trkpt>
      <trkpt lat="45.936" lon="4.77627">
        <ele>169</ele>
        <time>2018-08-18T08:44:06Z</time>
      </trkpt>
      <trkpt lat="45.93602" lon="4.77635">
        <ele>169</ele>
        <time>2018-08-18T08:44:07Z</time>
      </trkpt>
      <trkpt lat="45.93604" lon="4.77641">
        <ele>169</ele>
        <time>2018-08-18T08:44:08Z</time>
      </trkpt>
      <trkpt lat="45.93608" lon="4.77647">
        <ele>169</ele>
        <time>2018-08-18T08:44:09Z</time>
      </trkpt>
      <trkpt lat="45.9361" lon="4.77654">
        <ele>169</ele>
        <time>2018-08-18T08:44:10Z</time>
      </trkpt>
      <trkpt lat="45.93613" lon="4.77659">
        <ele>169</ele>
        <time>2018-08-18T08:44:11Z</time>
      </trkpt>
      <trkpt lat="45.93615" lon="4.77665">
        <ele>169</ele>
        <time>2018-08-18T08:44:12Z</time>
      </trkpt>
      <trkpt lat="45.93619" lon="4.77672">
        <ele>169</ele>
        <time>2018-08-18T08:44:13Z</time>
      </trkpt>
      <trkpt lat="45.93621" lon="4.77678">
        <ele>169</ele>
        <time>2018-08-18T08:44:14Z</time>
      </trkpt>
      <trkpt lat="45.93624" lon="4.77685">
        <ele>169</ele>
        <time>2018-08-18T08:44:15Z</time>
      </trkpt>
      <trkpt lat="45.93627" lon="4.77691">
        <ele>169</ele>
        <time>2018-08-18T08:44:16Z</time>
      </trkpt>
      <trkpt lat="45.9363" lon="4.77703">
        <ele>169</ele>
        <time>2018-08-18T08:44:18Z</time>
      </trkpt>
      <trkpt lat="45.93634" lon="4.77708">
        <ele>170</ele>
        <time>2018-08-18T08:44:19Z</time>
      </trkpt>
      <trkpt lat="45.93637" lon="4.77715">
        <ele>170</ele>
        <time>2018-08-18T08:44:21Z</time>
      </trkpt>
      <trkpt lat="45.9364" lon="4.77719">
        <ele>170</ele>
        <time>2018-08-18T08:44:22Z</time>
      </trkpt>
      <trkpt lat="45.93643" lon="4.77726">
        <ele>170</ele>
        <time>2018-08-18T08:44:24Z</time>
      </trkpt>
      <trkpt lat="45.93646" lon="4.77732">
        <ele>170</ele>
        <time>2018-08-18T08:44:25Z</time>
      </trkpt>
      <trkpt lat="45.93651" lon="4.77739">
        <ele>170</ele>
        <time>2018-08-18T08:44:27Z</time>
      </trkpt>
      <trkpt lat="45.93652" lon="4.77742">
        <ele>170</ele>
        <time>2018-08-18T08:44:28Z</time>
      </trkpt>
      <trkpt lat="45.93656" lon="4.77747">
        <ele>170</ele>
        <time>2018-08-18T08:44:30Z</time>
      </trkpt>
      <trkpt lat="45.93662" lon="4.77754">
        <ele>171</ele>
        <time>2018-08-18T08:44:31Z</time>
      </trkpt>
      <trkpt lat="45.93667" lon="4.77762">
        <ele>170</ele>
        <time>2018-08-18T08:44:34Z</time>
      </trkpt>
      <trkpt lat="45.93669" lon="4.77764">
        <ele>170</ele>
        <time>2018-08-18T08:44:35Z</time>
      </trkpt>
      <trkpt lat="45.93674" lon="4.77771">
        <ele>170</ele>
        <time>2018-08-18T08:44:36Z</time>
      </trkpt>
      <trkpt lat="45.93677" lon="4.77775">
        <ele>170</ele>
        <time>2018-08-18T08:44:37Z</time>
      </trkpt>
      <trkpt lat="45.93682" lon="4.77782">
        <ele>170</ele>
        <time>2018-08-18T08:44:39Z</time>
      </trkpt>
      <trkpt lat="45.93685" lon="4.77785">
        <ele>170</ele>
        <time>2018-08-18T08:44:40Z</time>
      </trkpt>
      <trkpt lat="45.9369" lon="4.77793">
        <ele>169</ele>
        <time>2018-08-18T08:44:42Z</time>
      </trkpt>
      <trkpt lat="45.93693" lon="4.77798">
        <ele>169</ele>
        <time>2018-08-18T08:44:43Z</time>
      </trkpt>
      <trkpt lat="45.93699" lon="4.77806">
        <ele>169</ele>
        <time>2018-08-18T08:44:45Z</time>
      </trkpt>
      <trkpt lat="45.93702" lon="4.7781">
        <ele>169</ele>
        <time>2018-08-18T08:44:46Z</time>
      </trkpt>
      <trkpt lat="45.93709" lon="4.77818">
        <ele>169</ele>
        <time>2018-08-18T08:44:48Z</time>
      </trkpt>
      <trkpt lat="45.93712" lon="4.77821">
        <ele>169</ele>
        <time>2018-08-18T08:44:49Z</time>
      </trkpt>
      <trkpt lat="45.93716" lon="4.77827">
        <ele>169</ele>
        <time>2018-08-18T08:44:51Z</time>
      </trkpt>
      <trkpt lat="45.9372" lon="4.77832">
        <ele>168</ele>
        <time>2018-08-18T08:44:52Z</time>
      </trkpt>
      <trkpt lat="45.93725" lon="4.7784">
        <ele>167</ele>
        <time>2018-08-18T08:44:54Z</time>
      </trkpt>
      <trkpt lat="45.93728" lon="4.77843">
        <ele>167</ele>
        <time>2018-08-18T08:44:55Z</time>
      </trkpt>
      <trkpt lat="45.93733" lon="4.77851">
        <ele>167</ele>
        <time>2018-08-18T08:44:57Z</time>
      </trkpt>
      <trkpt lat="45.93736" lon="4.77855">
        <ele>167</ele>
        <time>2018-08-18T08:44:58Z</time>
      </trkpt>
      <trkpt lat="45.93743" lon="4.77863">
        <ele>167</ele>
        <time>2018-08-18T08:45:00Z</time>
      </trkpt>
      <trkpt lat="45.93746" lon="4.77867">
        <ele>167</ele>
        <time>2018-08-18T08:45:01Z</time>
      </trkpt>
      <trkpt lat="45.93752" lon="4.77875">
        <ele>166</ele>
        <time>2018-08-18T08:45:04Z</time>
      </trkpt>
      <trkpt lat="45.93756" lon="4.77881">
        <ele>166</ele>
        <time>2018-08-18T08:45:05Z</time>
      </trkpt>
      <trkpt lat="45.93762" lon="4.77888">
        <ele>166</ele>
        <time>2018-08-18T08:45:07Z</time>
      </trkpt>
      <trkpt lat="45.93765" lon="4.77892">
        <ele>166</ele>
        <time>2018-08-18T08:45:08Z</time>
      </trkpt>
      <trkpt lat="45.93772" lon="4.77899">
        <ele>166</ele>
        <time>2018-08-18T08:45:10Z</time>
      </trkpt>
      <trkpt lat="45.93777" lon="4.77902">
        <ele>166</ele>
        <time>2018-08-18T08:45:11Z</time>
      </trkpt>
      <trkpt lat="45.93783" lon="4.7791">
        <ele>166</ele>
        <time>2018-08-18T08:45:13Z</time>
      </trkpt>
      <trkpt lat="45.93786" lon="4.77914">
        <ele>166</ele>
        <time>2018-08-18T08:45:14Z</time>
      </trkpt>
      <trkpt lat="45.93791" lon="4.77922">
        <ele>168</ele>
        <time>2018-08-18T08:45:16Z</time>
      </trkpt>
      <trkpt lat="45.93794" lon="4.77927">
        <ele>168</ele>
        <time>2018-08-18T08:45:17Z</time>
      </trkpt>
      <trkpt lat="45.938" lon="4.77934">
        <ele>168</ele>
        <time>2018-08-18T08:45:19Z</time>
      </trkpt>
      <trkpt lat="45.93803" lon="4.77938">
        <ele>169</ele>
        <time>2018-08-18T08:45:20Z</time>
      </trkpt>
      <trkpt lat="45.93809" lon="4.77948">
        <ele>169</ele>
        <time>2018-08-18T08:45:22Z</time>
      </trkpt>
      <trkpt lat="45.93813" lon="4.77952">
        <ele>170</ele>
        <time>2018-08-18T08:45:23Z</time>
      </trkpt>
      <trkpt lat="45.93817" lon="4.77955">
        <ele>170</ele>
        <time>2018-08-18T08:45:24Z</time>
      </trkpt>
      <trkpt lat="45.93821" lon="4.7796">
        <ele>170</ele>
        <time>2018-08-18T08:45:25Z</time>
      </trkpt>
      <trkpt lat="45.93825" lon="4.77964">
        <ele>171</ele>
        <time>2018-08-18T08:45:26Z</time>
      </trkpt>
      <trkpt lat="45.93828" lon="4.77969">
        <ele>172</ele>
        <time>2018-08-18T08:45:27Z</time>
      </trkpt>
      <trkpt lat="45.93832" lon="4.77972">
        <ele>172</ele>
        <time>2018-08-18T08:45:28Z</time>
      </trkpt>
      <trkpt lat="45.93835" lon="4.77977">
        <ele>178</ele>
        <time>2018-08-18T08:45:29Z</time>
      </trkpt>
      <trkpt lat="45.93837" lon="4.77983">
        <ele>178</ele>
        <time>2018-08-18T08:45:30Z</time>
      </trkpt>
      <trkpt lat="45.93839" lon="4.7799">
        <ele>179</ele>
        <time>2018-08-18T08:45:31Z</time>
      </trkpt>
      <trkpt lat="45.93841" lon="4.77997">
        <ele>179</ele>
        <time>2018-08-18T08:45:32Z</time>
      </trkpt>
      <trkpt lat="45.93841" lon="4.78006">
        <ele>181</ele>
        <time>2018-08-18T08:45:33Z</time>
      </trkpt>
      <trkpt lat="45.93841" lon="4.78014">
        <ele>181</ele>
        <time>2018-08-18T08:45:34Z</time>
      </trkpt>
      <trkpt lat="45.93843" lon="4.78021">
        <ele>182</ele>
        <time>2018-08-18T08:45:35Z</time>
      </trkpt>
      <trkpt lat="45.93846" lon="4.78026">
        <ele>182</ele>
        <time>2018-08-18T08:45:36Z</time>
      </trkpt>
      <trkpt lat="45.93851" lon="4.78028">
        <ele>182</ele>
        <time>2018-08-18T08:45:37Z</time>
      </trkpt>
      <trkpt lat="45.93856" lon="4.78029">
        <ele>183</ele>
        <time>2018-08-18T08:45:38Z</time>
      </trkpt>
      <trkpt lat="45.9386" lon="4.78029">
        <ele>183</ele>
        <time>2018-08-18T08:45:39Z</time>
      </trkpt>
      <trkpt lat="45.93868" lon="4.78027">
        <ele>183</ele>
        <time>2018-08-18T08:45:41Z</time>
      </trkpt>
      <trkpt lat="45.9387" lon="4.78027">
        <ele>183</ele>
        <time>2018-08-18T08:45:42Z</time>
      </trkpt>
      <trkpt lat="45.93877" lon="4.78025">
        <ele>184</ele>
        <time>2018-08-18T08:45:45Z</time>
      </trkpt>
      <trkpt lat="45.93879" lon="4.78023">
        <ele>184</ele>
        <time>2018-08-18T08:45:46Z</time>
      </trkpt>
      <trkpt lat="45.93886" lon="4.78017">
        <ele>184</ele>
        <time>2018-08-18T08:45:49Z</time>
      </trkpt>
      <trkpt lat="45.93888" lon="4.78015">
        <ele>184</ele>
        <time>2018-08-18T08:45:50Z</time>
      </trkpt>
      <trkpt lat="45.93894" lon="4.78008">
        <ele>184</ele>
        <time>2018-08-18T08:45:53Z</time>
      </trkpt>
      <trkpt lat="45.93896" lon="4.78006">
        <ele>185</ele>
        <time>2018-08-18T08:45:54Z</time>
      </trkpt>
      <trkpt lat="45.93903" lon="4.78">
        <ele>183</ele>
        <time>2018-08-18T08:45:57Z</time>
      </trkpt>
      <trkpt lat="45.93905" lon="4.77997">
        <ele>183</ele>
        <time>2018-08-18T08:45:58Z</time>
      </trkpt>
      <trkpt lat="45.93911" lon="4.77991">
        <ele>184</ele>
        <time>2018-08-18T08:46:01Z</time>
      </trkpt>
      <trkpt lat="45.93913" lon="4.77989">
        <ele>183</ele>
        <time>2018-08-18T08:46:02Z</time>
      </trkpt>
      <trkpt lat="45.9392" lon="4.77982">
        <ele>188</ele>
        <time>2018-08-18T08:46:05Z</time>
      </trkpt>
      <trkpt lat="45.93922" lon="4.7798">
        <ele>188</ele>
        <time>2018-08-18T08:46:06Z</time>
      </trkpt>
      <trkpt lat="45.93928" lon="4.77973">
        <ele>188</ele>
        <time>2018-08-18T08:46:10Z</time>
      </trkpt>
      <trkpt lat="45.93929" lon="4.77972">
        <ele>188</ele>
        <time>2018-08-18T08:46:11Z</time>
      </trkpt>
      <trkpt lat="45.93935" lon="4.77966">
        <ele>189</ele>
        <time>2018-08-18T08:46:15Z</time>
      </trkpt>
      <trkpt lat="45.93937" lon="4.77964">
        <ele>189</ele>
        <time>2018-08-18T08:46:16Z</time>
      </trkpt>
      <trkpt lat="45.93944" lon="4.77959">
        <ele>189</ele>
        <time>2018-08-18T08:46:20Z</time>
      </trkpt>
      <trkpt lat="45.93946" lon="4.77958">
        <ele>189</ele>
        <time>2018-08-18T08:46:21Z</time>
      </trkpt>
      <trkpt lat="45.93953" lon="4.77955">
        <ele>190</ele>
        <time>2018-08-18T08:46:26Z</time>
      </trkpt>
      <trkpt lat="45.93955" lon="4.77954">
        <ele>190</ele>
        <time>2018-08-18T08:46:27Z</time>
      </trkpt>
      <trkpt lat="45.93962" lon="4.77951">
        <ele>190</ele>
        <time>2018-08-18T08:46:31Z</time>
      </trkpt>
      <trkpt lat="45.93964" lon="4.7795">
        <ele>190</ele>
        <time>2018-08-18T08:46:32Z</time>
      </trkpt>
      <trkpt lat="45.93972" lon="4.77945">
        <ele>191</ele>
        <time>2018-08-18T08:46:36Z</time>
      </trkpt>
      <trkpt lat="45.93974" lon="4.77944">
        <ele>191</ele>
        <time>2018-08-18T08:46:37Z</time>
      </trkpt>
      <trkpt lat="45.93981" lon="4.77939">
        <ele>191</ele>
        <time>2018-08-18T08:46:41Z</time>
      </trkpt>
      <trkpt lat="45.93983" lon="4.77938">
        <ele>191</ele>
        <time>2018-08-18T08:46:42Z</time>
      </trkpt>
      <trkpt lat="45.9399" lon="4.77934">
        <ele>192</ele>
        <time>2018-08-18T08:46:46Z</time>
      </trkpt>
      <trkpt lat="45.93992" lon="4.77933">
        <ele>192</ele>
        <time>2018-08-18T08:46:47Z</time>
      </trkpt>
      <trkpt lat="45.93999" lon="4.77929">
        <ele>193</ele>
        <time>2018-08-18T08:46:51Z</time>
      </trkpt>
      <trkpt lat="45.94001" lon="4.77928">
        <ele>197</ele>
        <time>2018-08-18T08:46:52Z</time>
      </trkpt>
      <trkpt lat="45.9401" lon="4.77929">
        <ele>197</ele>
        <time>2018-08-18T08:46:57Z</time>
      </trkpt>
      <trkpt lat="45.94011" lon="4.7793">
        <ele>198</ele>
        <time>2018-08-18T08:46:58Z</time>
      </trkpt>
      <trkpt lat="45.94015" lon="4.77939">
        <ele>199</ele>
        <time>2018-08-18T08:47:03Z</time>
      </trkpt>
      <trkpt lat="45.94016" lon="4.77942">
        <ele>199</ele>
        <time>2018-08-18T08:47:04Z</time>
      </trkpt>
      <trkpt lat="45.94017" lon="4.77951">
        <ele>200</ele>
        <time>2018-08-18T08:47:07Z</time>
      </trkpt>
      <trkpt lat="45.94017" lon="4.77955">
        <ele>200</ele>
        <time>2018-08-18T08:47:08Z</time>
      </trkpt>
      <trkpt lat="45.94016" lon="4.77966">
        <ele>200</ele>
        <time>2018-08-18T08:47:11Z</time>
      </trkpt>
      <trkpt lat="45.94015" lon="4.77971">
        <ele>200</ele>
        <time>2018-08-18T08:47:12Z</time>
      </trkpt>
      <trkpt lat="45.94013" lon="4.77982">
        <ele>199</ele>
        <time>2018-08-18T08:47:15Z</time>
      </trkpt>
      <trkpt lat="45.94012" lon="4.77987">
        <ele>199</ele>
        <time>2018-08-18T08:47:16Z</time>
      </trkpt>
      <trkpt lat="45.9401" lon="4.77998">
        <ele>198</ele>
        <time>2018-08-18T08:47:19Z</time>
      </trkpt>
      <trkpt lat="45.9401" lon="4.78002">
        <ele>198</ele>
        <time>2018-08-18T08:47:20Z</time>
      </trkpt>
      <trkpt lat="45.94007" lon="4.78013">
        <ele>199</ele>
        <time>2018-08-18T08:47:23Z</time>
      </trkpt>
      <trkpt lat="45.94006" lon="4.78016">
        <ele>199</ele>
        <time>2018-08-18T08:47:24Z</time>
      </trkpt>
      <trkpt lat="45.94005" lon="4.78023">
        <ele>200</ele>
        <time>2018-08-18T08:47:26Z</time>
      </trkpt>
      <trkpt lat="45.94003" lon="4.78034">
        <ele>201</ele>
        <time>2018-08-18T08:47:27Z</time>
      </trkpt>
      <trkpt lat="45.93999" lon="4.78044">
        <ele>195</ele>
        <time>2018-08-18T08:47:32Z</time>
      </trkpt>
      <trkpt lat="45.93998" lon="4.78048">
        <ele>195</ele>
        <time>2018-08-18T08:47:33Z</time>
      </trkpt>
      <trkpt lat="45.93996" lon="4.78058">
        <ele>195</ele>
        <time>2018-08-18T08:47:36Z</time>
      </trkpt>
      <trkpt lat="45.93995" lon="4.78071">
        <ele>196</ele>
        <time>2018-08-18T08:47:37Z</time>
      </trkpt>
      <trkpt lat="45.93994" lon="4.78081">
        <ele>198</ele>
        <time>2018-08-18T08:47:40Z</time>
      </trkpt>
      <trkpt lat="45.93994" lon="4.78086">
        <ele>198</ele>
        <time>2018-08-18T08:47:41Z</time>
      </trkpt>
      <trkpt lat="45.93993" lon="4.78094">
        <ele>198</ele>
        <time>2018-08-18T08:47:43Z</time>
      </trkpt>
      <trkpt lat="45.93993" lon="4.78099">
        <ele>197</ele>
        <time>2018-08-18T08:47:44Z</time>
      </trkpt>
      <trkpt lat="45.93992" lon="4.7811">
        <ele>197</ele>
        <time>2018-08-18T08:47:46Z</time>
      </trkpt>
      <trkpt lat="45.93991" lon="4.78114">
        <ele>197</ele>
        <time>2018-08-18T08:47:47Z</time>
      </trkpt>
      <trkpt lat="45.9399" lon="4.78123">
        <ele>197</ele>
        <time>2018-08-18T08:47:49Z</time>
      </trkpt>
      <trkpt lat="45.93987" lon="4.78137">
        <ele>197</ele>
        <time>2018-08-18T08:47:50Z</time>
      </trkpt>
      <trkpt lat="45.93986" lon="4.78143">
        <ele>198</ele>
        <time>2018-08-18T08:47:52Z</time>
      </trkpt>
      <trkpt lat="45.93985" lon="4.78152">
        <ele>198</ele>
        <time>2018-08-18T08:47:53Z</time>
      </trkpt>
      <trkpt lat="45.93991" lon="4.7816">
        <ele>199</ele>
        <time>2018-08-18T08:47:57Z</time>
      </trkpt>
      <trkpt lat="45.93993" lon="4.78162">
        <ele>200</ele>
        <time>2018-08-18T08:47:58Z</time>
      </trkpt>
      <trkpt lat="45.94001" lon="4.78167">
        <ele>201</ele>
        <time>2018-08-18T08:48:01Z</time>
      </trkpt>
      <trkpt lat="45.94003" lon="4.78168">
        <ele>201</ele>
        <time>2018-08-18T08:48:02Z</time>
      </trkpt>
      <trkpt lat="45.9401" lon="4.78172">
        <ele>202</ele>
        <time>2018-08-18T08:48:05Z</time>
      </trkpt>
      <trkpt lat="45.94013" lon="4.78173">
        <ele>203</ele>
        <time>2018-08-18T08:48:06Z</time>
      </trkpt>
      <trkpt lat="45.9402" lon="4.78176">
        <ele>203</ele>
        <time>2018-08-18T08:48:09Z</time>
      </trkpt>
      <trkpt lat="45.94022" lon="4.78177">
        <ele>204</ele>
        <time>2018-08-18T08:48:10Z</time>
      </trkpt>
      <trkpt lat="45.94028" lon="4.78181">
        <ele>204</ele>
        <time>2018-08-18T08:48:12Z</time>
      </trkpt>
      <trkpt lat="45.94031" lon="4.78183">
        <ele>204</ele>
        <time>2018-08-18T08:48:13Z</time>
      </trkpt>
      <trkpt lat="45.94037" lon="4.78188">
        <ele>205</ele>
        <time>2018-08-18T08:48:15Z</time>
      </trkpt>
      <trkpt lat="45.94039" lon="4.78189">
        <ele>205</ele>
        <time>2018-08-18T08:48:16Z</time>
      </trkpt>
      <trkpt lat="45.94045" lon="4.78194">
        <ele>205</ele>
        <time>2018-08-18T08:48:19Z</time>
      </trkpt>
      <trkpt lat="45.94047" lon="4.78197">
        <ele>205</ele>
        <time>2018-08-18T08:48:20Z</time>
      </trkpt>
      <trkpt lat="45.94055" lon="4.78203">
        <ele>206</ele>
        <time>2018-08-18T08:48:23Z</time>
      </trkpt>
      <trkpt lat="45.94057" lon="4.78204">
        <ele>206</ele>
        <time>2018-08-18T08:48:24Z</time>
      </trkpt>
      <trkpt lat="45.94063" lon="4.78208">
        <ele>206</ele>
        <time>2018-08-18T08:48:27Z</time>
      </trkpt>
      <trkpt lat="45.94065" lon="4.7821">
        <ele>206</ele>
        <time>2018-08-18T08:48:28Z</time>
      </trkpt>
      <trkpt lat="45.9407" lon="4.78216">
        <ele>206</ele>
        <time>2018-08-18T08:48:31Z</time>
      </trkpt>
      <trkpt lat="45.94072" lon="4.78218">
        <ele>206</ele>
        <time>2018-08-18T08:48:32Z</time>
      </trkpt>
      <trkpt lat="45.94079" lon="4.78222">
        <ele>206</ele>
        <time>2018-08-18T08:48:35Z</time>
      </trkpt>
      <trkpt lat="45.94082" lon="4.78224">
        <ele>206</ele>
        <time>2018-08-18T08:48:36Z</time>
      </trkpt>
      <trkpt lat="45.94089" lon="4.78227">
        <ele>212</ele>
        <time>2018-08-18T08:48:39Z</time>
      </trkpt>
      <trkpt lat="45.94092" lon="4.78229">
        <ele>212</ele>
        <time>2018-08-18T08:48:40Z</time>
      </trkpt>
      <trkpt lat="45.941" lon="4.78234">
        <ele>212</ele>
        <time>2018-08-18T08:48:43Z</time>
      </trkpt>
      <trkpt lat="45.94103" lon="4.78237">
        <ele>213</ele>
        <time>2018-08-18T08:48:44Z</time>
      </trkpt>
      <trkpt lat="45.94108" lon="4.78241">
        <ele>213</ele>
        <time>2018-08-18T08:48:46Z</time>
      </trkpt>
      <trkpt lat="45.94111" lon="4.78243">
        <ele>213</ele>
        <time>2018-08-18T08:48:47Z</time>
      </trkpt>
      <trkpt lat="45.94119" lon="4.78248">
        <ele>214</ele>
        <time>2018-08-18T08:48:50Z</time>
      </trkpt>
      <trkpt lat="45.94121" lon="4.78249">
        <ele>214</ele>
        <time>2018-08-18T08:48:51Z</time>
      </trkpt>
      <trkpt lat="45.94128" lon="4.78256">
        <ele>214</ele>
        <time>2018-08-18T08:48:55Z</time>
      </trkpt>
      <trkpt lat="45.94131" lon="4.78258">
        <ele>214</ele>
        <time>2018-08-18T08:48:56Z</time>
      </trkpt>
      <trkpt lat="45.94138" lon="4.78262">
        <ele>215</ele>
        <time>2018-08-18T08:48:59Z</time>
      </trkpt>
      <trkpt lat="45.94141" lon="4.78264">
        <ele>215</ele>
        <time>2018-08-18T08:49:00Z</time>
      </trkpt>
      <trkpt lat="45.94146" lon="4.78266">
        <ele>215</ele>
        <time>2018-08-18T08:49:02Z</time>
      </trkpt>
      <trkpt lat="45.94155" lon="4.7827">
        <ele>216</ele>
        <time>2018-08-18T08:49:03Z</time>
      </trkpt>
      <trkpt lat="45.94162" lon="4.78271">
        <ele>216</ele>
        <time>2018-08-18T08:49:07Z</time>
      </trkpt>
      <trkpt lat="45.94164" lon="4.78272">
        <ele>216</ele>
        <time>2018-08-18T08:49:08Z</time>
      </trkpt>
      <trkpt lat="45.94172" lon="4.78277">
        <ele>220</ele>
        <time>2018-08-18T08:49:12Z</time>
      </trkpt>
      <trkpt lat="45.94175" lon="4.78279">
        <ele>221</ele>
        <time>2018-08-18T08:49:13Z</time>
      </trkpt>
      <trkpt lat="45.94182" lon="4.78286">
        <ele>221</ele>
        <time>2018-08-18T08:49:16Z</time>
      </trkpt>
      <trkpt lat="45.94184" lon="4.78288">
        <ele>221</ele>
        <time>2018-08-18T08:49:17Z</time>
      </trkpt>
      <trkpt lat="45.9419" lon="4.78294">
        <ele>221</ele>
        <time>2018-08-18T08:49:20Z</time>
      </trkpt>
      <trkpt lat="45.94193" lon="4.78295">
        <ele>221</ele>
        <time>2018-08-18T08:49:21Z</time>
      </trkpt>
      <trkpt lat="45.94201" lon="4.78297">
        <ele>221</ele>
        <time>2018-08-18T08:49:24Z</time>
      </trkpt>
      <trkpt lat="45.94204" lon="4.78297">
        <ele>221</ele>
        <time>2018-08-18T08:49:25Z</time>
      </trkpt>
      <trkpt lat="45.9421" lon="4.78297">
        <ele>221</ele>
        <time>2018-08-18T08:49:27Z</time>
      </trkpt>
      <trkpt lat="45.94213" lon="4.78297">
        <ele>221</ele>
        <time>2018-08-18T08:49:28Z</time>
      </trkpt>
      <trkpt lat="45.94222" lon="4.78299">
        <ele>222</ele>
        <time>2018-08-18T08:49:31Z</time>
      </trkpt>
      <trkpt lat="45.94224" lon="4.78299">
        <ele>222</ele>
        <time>2018-08-18T08:49:32Z</time>
      </trkpt>
      <trkpt lat="45.94233" lon="4.78301">
        <ele>222</ele>
        <time>2018-08-18T08:49:35Z</time>
      </trkpt>
      <trkpt lat="45.94236" lon="4.78301">
        <ele>222</ele>
        <time>2018-08-18T08:49:36Z</time>
      </trkpt>
      <trkpt lat="45.94244" lon="4.78303">
        <ele>222</ele>
        <time>2018-08-18T08:49:39Z</time>
      </trkpt>
      <trkpt lat="45.94246" lon="4.78304">
        <ele>222</ele>
        <time>2018-08-18T08:49:40Z</time>
      </trkpt>
      <trkpt lat="45.94254" lon="4.78308">
        <ele>227</ele>
        <time>2018-08-18T08:49:43Z</time>
      </trkpt>
      <trkpt lat="45.94256" lon="4.7831">
        <ele>226</ele>
        <time>2018-08-18T08:49:44Z</time>
      </trkpt>
      <trkpt lat="45.94264" lon="4.78314">
        <ele>226</ele>
        <time>2018-08-18T08:49:47Z</time>
      </trkpt>
      <trkpt lat="45.94266" lon="4.78316">
        <ele>226</ele>
        <time>2018-08-18T08:49:48Z</time>
      </trkpt>
      <trkpt lat="45.94273" lon="4.78322">
        <ele>227</ele>
        <time>2018-08-18T08:49:51Z</time>
      </trkpt>
      <trkpt lat="45.94275" lon="4.78324">
        <ele>227</ele>
        <time>2018-08-18T08:49:52Z</time>
      </trkpt>
      <trkpt lat="45.94282" lon="4.78332">
        <ele>227</ele>
        <time>2018-08-18T08:49:55Z</time>
      </trkpt>
      <trkpt lat="45.94284" lon="4.78335">
        <ele>227</ele>
        <time>2018-08-18T08:49:56Z</time>
      </trkpt>
      <trkpt lat="45.94291" lon="4.78342">
        <ele>228</ele>
        <time>2018-08-18T08:49:59Z</time>
      </trkpt>
      <trkpt lat="45.94293" lon="4.78344">
        <ele>228</ele>
        <time>2018-08-18T08:50:00Z</time>
      </trkpt>
      <trkpt lat="45.94299" lon="4.78353">
        <ele>229</ele>
        <time>2018-08-18T08:50:04Z</time>
      </trkpt>
      <trkpt lat="45.943" lon="4.78355">
        <ele>229</ele>
        <time>2018-08-18T08:50:05Z</time>
      </trkpt>
      <trkpt lat="45.94304" lon="4.78363">
        <ele>229</ele>
        <time>2018-08-18T08:50:08Z</time>
      </trkpt>
      <trkpt lat="45.94305" lon="4.78366">
        <ele>229</ele>
        <time>2018-08-18T08:50:09Z</time>
      </trkpt>
      <trkpt lat="45.9431" lon="4.78375">
        <ele>229</ele>
        <time>2018-08-18T08:50:12Z</time>
      </trkpt>
      <trkpt lat="45.94311" lon="4.78378">
        <ele>230</ele>
        <time>2018-08-18T08:50:13Z</time>
      </trkpt>
      <trkpt lat="45.94315" lon="4.78386">
        <ele>230</ele>
        <time>2018-08-18T08:50:16Z</time>
      </trkpt>
      <trkpt lat="45.94317" lon="4.78389">
        <ele>230</ele>
        <time>2018-08-18T08:50:17Z</time>
      </trkpt>
      <trkpt lat="45.94322" lon="4.78397">
        <ele>230</ele>
        <time>2018-08-18T08:50:21Z</time>
      </trkpt>
      <trkpt lat="45.94327" lon="4.78408">
        <ele>229</ele>
        <time>2018-08-18T08:50:22Z</time>
      </trkpt>
      <trkpt lat="45.94331" lon="4.78418">
        <ele>230</ele>
        <time>2018-08-18T08:50:26Z</time>
      </trkpt>
      <trkpt lat="45.94332" lon="4.78421">
        <ele>231</ele>
        <time>2018-08-18T08:50:27Z</time>
      </trkpt>
      <trkpt lat="45.94336" lon="4.78429">
        <ele>232</ele>
        <time>2018-08-18T08:50:31Z</time>
      </trkpt>
      <trkpt lat="45.94337" lon="4.78432">
        <ele>232</ele>
        <time>2018-08-18T08:50:32Z</time>
      </trkpt>
      <trkpt lat="45.94342" lon="4.78439">
        <ele>234</ele>
        <time>2018-08-18T08:50:35Z</time>
      </trkpt>
      <trkpt lat="45.94343" lon="4.78442">
        <ele>234</ele>
        <time>2018-08-18T08:50:36Z</time>
      </trkpt>
      <trkpt lat="45.94349" lon="4.7845">
        <ele>235</ele>
        <time>2018-08-18T08:50:39Z</time>
      </trkpt>
      <trkpt lat="45.94351" lon="4.78452">
        <ele>235</ele>
        <time>2018-08-18T08:50:40Z</time>
      </trkpt>
      <trkpt lat="45.94355" lon="4.7846">
        <ele>236</ele>
        <time>2018-08-18T08:50:43Z</time>
      </trkpt>
      <trkpt lat="45.94357" lon="4.78462">
        <ele>236</ele>
        <time>2018-08-18T08:50:44Z</time>
      </trkpt>
      <trkpt lat="45.94361" lon="4.7847">
        <ele>236</ele>
        <time>2018-08-18T08:50:47Z</time>
      </trkpt>
      <trkpt lat="45.94363" lon="4.78472">
        <ele>236</ele>
        <time>2018-08-18T08:50:48Z</time>
      </trkpt>
      <trkpt lat="45.94367" lon="4.78479">
        <ele>236</ele>
        <time>2018-08-18T08:50:51Z</time>
      </trkpt>
      <trkpt lat="45.94369" lon="4.78482">
        <ele>236</ele>
        <time>2018-08-18T08:50:52Z</time>
      </trkpt>
      <trkpt lat="45.94374" lon="4.78488">
        <ele>236</ele>
        <time>2018-08-18T08:50:55Z</time>
      </trkpt>
      <trkpt lat="45.94377" lon="4.7849">
        <ele>236</ele>
        <time>2018-08-18T08:50:56Z</time>
      </trkpt>
      <trkpt lat="45.94383" lon="4.78498">
        <ele>236</ele>
        <time>2018-08-18T08:51:00Z</time>
      </trkpt>
      <trkpt lat="45.94385" lon="4.785">
        <ele>238</ele>
        <time>2018-08-18T08:51:01Z</time>
      </trkpt>
      <trkpt lat="45.9439" lon="4.78506">
        <ele>237</ele>
        <time>2018-08-18T08:51:04Z</time>
      </trkpt>
      <trkpt lat="45.94392" lon="4.78509">
        <ele>237</ele>
        <time>2018-08-18T08:51:05Z</time>
      </trkpt>
      <trkpt lat="45.94397" lon="4.78515">
        <ele>237</ele>
        <time>2018-08-18T08:51:08Z</time>
      </trkpt>
      <trkpt lat="45.94399" lon="4.78517">
        <ele>237</ele>
        <time>2018-08-18T08:51:09Z</time>
      </trkpt>
      <trkpt lat="45.94405" lon="4.78522">
        <ele>237</ele>
        <time>2018-08-18T08:51:12Z</time>
      </trkpt>
      <trkpt lat="45.94407" lon="4.78525">
        <ele>237</ele>
        <time>2018-08-18T08:51:13Z</time>
      </trkpt>
      <trkpt lat="45.94413" lon="4.78531">
        <ele>237</ele>
        <time>2018-08-18T08:51:16Z</time>
      </trkpt>
      <trkpt lat="45.94415" lon="4.78534">
        <ele>237</ele>
        <time>2018-08-18T08:51:17Z</time>
      </trkpt>
      <trkpt lat="45.9442" lon="4.78542">
        <ele>238</ele>
        <time>2018-08-18T08:51:20Z</time>
      </trkpt>
      <trkpt lat="45.94422" lon="4.78545">
        <ele>238</ele>
        <time>2018-08-18T08:51:21Z</time>
      </trkpt>
      <trkpt lat="45.94427" lon="4.78552">
        <ele>238</ele>
        <time>2018-08-18T08:51:24Z</time>
      </trkpt>
      <trkpt lat="45.94428" lon="4.78554">
        <ele>238</ele>
        <time>2018-08-18T08:51:25Z</time>
      </trkpt>
      <trkpt lat="45.94433" lon="4.78562">
        <ele>238</ele>
        <time>2018-08-18T08:51:28Z</time>
      </trkpt>
      <trkpt lat="45.94444" lon="4.7857">
        <ele>239</ele>
        <time>2018-08-18T08:51:29Z</time>
      </trkpt>
      <trkpt lat="45.9445" lon="4.78577">
        <ele>239</ele>
        <time>2018-08-18T08:51:32Z</time>
      </trkpt>
      <trkpt lat="45.94451" lon="4.7858">
        <ele>239</ele>
        <time>2018-08-18T08:51:33Z</time>
      </trkpt>
      <trkpt lat="45.94454" lon="4.78591">
        <ele>240</ele>
        <time>2018-08-18T08:51:37Z</time>
      </trkpt>
      <trkpt lat="45.94456" lon="4.78593">
        <ele>240</ele>
        <time>2018-08-18T08:51:38Z</time>
      </trkpt>
      <trkpt lat="45.9446" lon="4.78604">
        <ele>241</ele>
        <time>2018-08-18T08:51:41Z</time>
      </trkpt>
      <trkpt lat="45.94461" lon="4.78606">
        <ele>241</ele>
        <time>2018-08-18T08:51:42Z</time>
      </trkpt>
      <trkpt lat="45.94463" lon="4.78616">
        <ele>241</ele>
        <time>2018-08-18T08:51:45Z</time>
      </trkpt>
      <trkpt lat="45.94464" lon="4.78619">
        <ele>241</ele>
        <time>2018-08-18T08:51:46Z</time>
      </trkpt>
      <trkpt lat="45.94465" lon="4.7863">
        <ele>241</ele>
        <time>2018-08-18T08:51:50Z</time>
      </trkpt>
      <trkpt lat="45.94466" lon="4.78632">
        <ele>241</ele>
        <time>2018-08-18T08:51:51Z</time>
      </trkpt>
      <trkpt lat="45.94468" lon="4.78642">
        <ele>241</ele>
        <time>2018-08-18T08:51:55Z</time>
      </trkpt>
      <trkpt lat="45.94469" lon="4.78645">
        <ele>241</ele>
        <time>2018-08-18T08:51:56Z</time>
      </trkpt>
      <trkpt lat="45.94471" lon="4.78656">
        <ele>241</ele>
        <time>2018-08-18T08:52:00Z</time>
      </trkpt>
      <trkpt lat="45.94472" lon="4.78659">
        <ele>241</ele>
        <time>2018-08-18T08:52:01Z</time>
      </trkpt>
      <trkpt lat="45.94474" lon="4.7867">
        <ele>244</ele>
        <time>2018-08-18T08:52:05Z</time>
      </trkpt>
      <trkpt lat="45.94474" lon="4.78673">
        <ele>244</ele>
        <time>2018-08-18T08:52:06Z</time>
      </trkpt>
      <trkpt lat="45.94474" lon="4.78685">
        <ele>244</ele>
        <time>2018-08-18T08:52:11Z</time>
      </trkpt>
      <trkpt lat="45.94474" lon="4.78687">
        <ele>244</ele>
        <time>2018-08-18T08:52:12Z</time>
      </trkpt>
      <trkpt lat="45.94474" lon="4.78698">
        <ele>245</ele>
        <time>2018-08-18T08:52:16Z</time>
      </trkpt>
      <trkpt lat="45.94474" lon="4.78701">
        <ele>245</ele>
        <time>2018-08-18T08:52:17Z</time>
      </trkpt>
      <trkpt lat="45.94475" lon="4.78712">
        <ele>245</ele>
        <time>2018-08-18T08:52:21Z</time>
      </trkpt>
      <trkpt lat="45.94476" lon="4.78715">
        <ele>245</ele>
        <time>2018-08-18T08:52:22Z</time>
      </trkpt>
      <trkpt lat="45.94478" lon="4.78726">
        <ele>246</ele>
        <time>2018-08-18T08:52:26Z</time>
      </trkpt>
      <trkpt lat="45.94478" lon="4.78729">
        <ele>246</ele>
        <time>2018-08-18T08:52:27Z</time>
      </trkpt>
      <trkpt lat="45.9448" lon="4.7874">
        <ele>246</ele>
        <time>2018-08-18T08:52:32Z</time>
      </trkpt>
      <trkpt lat="45.94482" lon="4.78742">
        <ele>246</ele>
        <time>2018-08-18T08:52:33Z</time>
      </trkpt>
      <trkpt lat="45.94483" lon="4.78753">
        <ele>249</ele>
        <time>2018-08-18T08:52:38Z</time>
      </trkpt>
      <trkpt lat="45.94482" lon="4.78755">
        <ele>249</ele>
        <time>2018-08-18T08:52:39Z</time>
      </trkpt>
      <trkpt lat="45.94478" lon="4.78766">
        <ele>249</ele>
        <time>2018-08-18T08:52:43Z</time>
      </trkpt>
      <trkpt lat="45.94477" lon="4.78769">
        <ele>249</ele>
        <time>2018-08-18T08:52:44Z</time>
      </trkpt>
      <trkpt lat="45.94474" lon="4.78778">
        <ele>250</ele>
        <time>2018-08-18T08:52:47Z</time>
      </trkpt>
      <trkpt lat="45.94473" lon="4.78781">
        <ele>250</ele>
        <time>2018-08-18T08:52:48Z</time>
      </trkpt>
      <trkpt lat="45.94471" lon="4.7879">
        <ele>250</ele>
        <time>2018-08-18T08:52:51Z</time>
      </trkpt>
      <trkpt lat="45.9447" lon="4.78793">
        <ele>250</ele>
        <time>2018-08-18T08:52:52Z</time>
      </trkpt>
      <trkpt lat="45.94466" lon="4.78803">
        <ele>251</ele>
        <time>2018-08-18T08:52:57Z</time>
      </trkpt>
      <trkpt lat="45.94466" lon="4.78806">
        <ele>251</ele>
        <time>2018-08-18T08:52:58Z</time>
      </trkpt>
      <trkpt lat="45.94464" lon="4.78818">
        <ele>251</ele>
        <time>2018-08-18T08:53:02Z</time>
      </trkpt>
      <trkpt lat="45.94463" lon="4.78821">
        <ele>251</ele>
        <time>2018-08-18T08:53:03Z</time>
      </trkpt>
      <trkpt lat="45.94461" lon="4.78832">
        <ele>251</ele>
        <time>2018-08-18T08:53:07Z</time>
      </trkpt>
      <trkpt lat="45.9446" lon="4.78834">
        <ele>253</ele>
        <time>2018-08-18T08:53:08Z</time>
      </trkpt>
      <trkpt lat="45.94458" lon="4.78844">
        <ele>253</ele>
        <time>2018-08-18T08:53:12Z</time>
      </trkpt>
      <trkpt lat="45.94457" lon="4.78847">
        <ele>253</ele>
        <time>2018-08-18T08:53:13Z</time>
      </trkpt>
      <trkpt lat="45.94456" lon="4.78858">
        <ele>253</ele>
        <time>2018-08-18T08:53:17Z</time>
      </trkpt>
      <trkpt lat="45.94455" lon="4.78861">
        <ele>253</ele>
        <time>2018-08-18T08:53:18Z</time>
      </trkpt>
      <trkpt lat="45.94454" lon="4.78871">
        <ele>253</ele>
        <time>2018-08-18T08:53:21Z</time>
      </trkpt>
      <trkpt lat="45.94454" lon="4.78874">
        <ele>253</ele>
        <time>2018-08-18T08:53:22Z</time>
      </trkpt>
      <trkpt lat="45.94455" lon="4.78886">
        <ele>253</ele>
        <time>2018-08-18T08:53:26Z</time>
      </trkpt>
      <trkpt lat="45.94455" lon="4.78889">
        <ele>253</ele>
        <time>2018-08-18T08:53:27Z</time>
      </trkpt>
      <trkpt lat="45.94455" lon="4.789">
        <ele>253</ele>
        <time>2018-08-18T08:53:31Z</time>
      </trkpt>
      <trkpt lat="45.94455" lon="4.78902">
        <ele>253</ele>
        <time>2018-08-18T08:53:32Z</time>
      </trkpt>
      <trkpt lat="45.94455" lon="4.78914">
        <ele>253</ele>
        <time>2018-08-18T08:53:36Z</time>
      </trkpt>
      <trkpt lat="45.94456" lon="4.78918">
        <ele>254</ele>
        <time>2018-08-18T08:53:37Z</time>
      </trkpt>
      <trkpt lat="45.94458" lon="4.78929">
        <ele>254</ele>
        <time>2018-08-18T08:53:40Z</time>
      </trkpt>
      <trkpt lat="45.94459" lon="4.78933">
        <ele>254</ele>
        <time>2018-08-18T08:53:41Z</time>
      </trkpt>
      <trkpt lat="45.94462" lon="4.78944">
        <ele>254</ele>
        <time>2018-08-18T08:53:45Z</time>
      </trkpt>
      <trkpt lat="45.94463" lon="4.78946">
        <ele>254</ele>
        <time>2018-08-18T08:53:46Z</time>
      </trkpt>
      <trkpt lat="45.94466" lon="4.78957">
        <ele>254</ele>
        <time>2018-08-18T08:53:50Z</time>
      </trkpt>
      <trkpt lat="45.94467" lon="4.7896">
        <ele>254</ele>
        <time>2018-08-18T08:53:51Z</time>
      </trkpt>
      <trkpt lat="45.94472" lon="4.7897">
        <ele>254</ele>
        <time>2018-08-18T08:53:55Z</time>
      </trkpt>
      <trkpt lat="45.94474" lon="4.78973">
        <ele>254</ele>
        <time>2018-08-18T08:53:56Z</time>
      </trkpt>
      <trkpt lat="45.94478" lon="4.78982">
        <ele>254</ele>
        <time>2018-08-18T08:53:59Z</time>
      </trkpt>
      <trkpt lat="45.9448" lon="4.78985">
        <ele>254</ele>
        <time>2018-08-18T08:54:00Z</time>
      </trkpt>
      <trkpt lat="45.94485" lon="4.78992">
        <ele>254</ele>
        <time>2018-08-18T08:54:03Z</time>
      </trkpt>
      <trkpt lat="45.94487" lon="4.78994">
        <ele>254</ele>
        <time>2018-08-18T08:54:04Z</time>
      </trkpt>
      <trkpt lat="45.94492" lon="4.79003">
        <ele>254</ele>
        <time>2018-08-18T08:54:07Z</time>
      </trkpt>
      <trkpt lat="45.94494" lon="4.79006">
        <ele>254</ele>
        <time>2018-08-18T08:54:08Z</time>
      </trkpt>
      <trkpt lat="45.945" lon="4.79016">
        <ele>254</ele>
        <time>2018-08-18T08:54:12Z</time>
      </trkpt>
      <trkpt lat="45.94501" lon="4.79019">
        <ele>255</ele>
        <time>2018-08-18T08:54:13Z</time>
      </trkpt>
      <trkpt lat="45.94506" lon="4.79028">
        <ele>255</ele>
        <time>2018-08-18T08:54:16Z</time>
      </trkpt>
      <trkpt lat="45.94508" lon="4.79032">
        <ele>255</ele>
        <time>2018-08-18T08:54:17Z</time>
      </trkpt>
      <trkpt lat="45.94511" lon="4.79041">
        <ele>255</ele>
        <time>2018-08-18T08:54:20Z</time>
      </trkpt>
      <trkpt lat="45.94514" lon="4.79046">
        <ele>255</ele>
        <time>2018-08-18T08:54:21Z</time>
      </trkpt>
      <trkpt lat="45.94518" lon="4.79056">
        <ele>255</ele>
        <time>2018-08-18T08:54:24Z</time>
      </trkpt>
      <trkpt lat="45.9452" lon="4.7906">
        <ele>255</ele>
        <time>2018-08-18T08:54:25Z</time>
      </trkpt>
      <trkpt lat="45.94524" lon="4.79067">
        <ele>255</ele>
        <time>2018-08-18T08:54:27Z</time>
      </trkpt>
      <trkpt lat="45.94526" lon="4.79072">
        <ele>255</ele>
        <time>2018-08-18T08:54:28Z</time>
      </trkpt>
      <trkpt lat="45.94531" lon="4.79082">
        <ele>255</ele>
        <time>2018-08-18T08:54:29Z</time>
      </trkpt>
      <trkpt lat="45.94536" lon="4.79091">
        <ele>256</ele>
        <time>2018-08-18T08:54:31Z</time>
      </trkpt>
      <trkpt lat="45.94539" lon="4.79096">
        <ele>256</ele>
        <time>2018-08-18T08:54:32Z</time>
      </trkpt>
      <trkpt lat="45.94542" lon="4.79101">
        <ele>256</ele>
        <time>2018-08-18T08:54:33Z</time>
      </trkpt>
      <trkpt lat="45.94545" lon="4.79106">
        <ele>256</ele>
        <time>2018-08-18T08:54:34Z</time>
      </trkpt>
      <trkpt lat="45.94549" lon="4.79111">
        <ele>256</ele>
        <time>2018-08-18T08:54:35Z</time>
      </trkpt>
      <trkpt lat="45.94551" lon="4.79115">
        <ele>256</ele>
        <time>2018-08-18T08:54:36Z</time>
      </trkpt>
      <trkpt lat="45.94554" lon="4.7912">
        <ele>257</ele>
        <time>2018-08-18T08:54:37Z</time>
      </trkpt>
      <trkpt lat="45.94558" lon="4.79124">
        <ele>257</ele>
        <time>2018-08-18T08:54:38Z</time>
      </trkpt>
      <trkpt lat="45.94562" lon="4.79135">
        <ele>257</ele>
        <time>2018-08-18T08:54:40Z</time>
      </trkpt>
      <trkpt lat="45.94564" lon="4.79139">
        <ele>257</ele>
        <time>2018-08-18T08:54:41Z</time>
      </trkpt>
      <trkpt lat="45.94568" lon="4.79149">
        <ele>257</ele>
        <time>2018-08-18T08:54:43Z</time>
      </trkpt>
      <trkpt lat="45.94569" lon="4.7915">
        <ele>257</ele>
        <time>2018-08-18T08:54:44Z</time>
      </trkpt>
      <trkpt lat="45.94574" lon="4.79158">
        <ele>258</ele>
        <time>2018-08-18T08:54:45Z</time>
      </trkpt>
      <trkpt lat="45.94577" lon="4.79168">
        <ele>258</ele>
        <time>2018-08-18T08:54:46Z</time>
      </trkpt>
      <trkpt lat="45.94582" lon="4.79175">
        <ele>258</ele>
        <time>2018-08-18T08:54:48Z</time>
      </trkpt>
      <trkpt lat="45.94582" lon="4.7918">
        <ele>257</ele>
        <time>2018-08-18T08:54:49Z</time>
      </trkpt>
      <trkpt lat="45.94588" lon="4.79187">
        <ele>258</ele>
        <time>2018-08-18T08:54:50Z</time>
      </trkpt>
      <trkpt lat="45.94591" lon="4.79193">
        <ele>257</ele>
        <time>2018-08-18T08:54:51Z</time>
      </trkpt>
      <trkpt lat="45.94593" lon="4.79198">
        <ele>257</ele>
        <time>2018-08-18T08:54:52Z</time>
      </trkpt>
      <trkpt lat="45.94595" lon="4.79205">
        <ele>257</ele>
        <time>2018-08-18T08:54:53Z</time>
      </trkpt>
      <trkpt lat="45.94598" lon="4.79212">
        <ele>257</ele>
        <time>2018-08-18T08:54:54Z</time>
      </trkpt>
      <trkpt lat="45.946" lon="4.79217">
        <ele>257</ele>
        <time>2018-08-18T08:54:55Z</time>
      </trkpt>
      <trkpt lat="45.94603" lon="4.79224">
        <ele>256</ele>
        <time>2018-08-18T08:54:56Z</time>
      </trkpt>
      <trkpt lat="45.94605" lon="4.7923">
        <ele>256</ele>
        <time>2018-08-18T08:54:57Z</time>
      </trkpt>
      <trkpt lat="45.9461" lon="4.79241">
        <ele>256</ele>
        <time>2018-08-18T08:54:59Z</time>
      </trkpt>
      <trkpt lat="45.94613" lon="4.79246">
        <ele>256</ele>
        <time>2018-08-18T08:55:00Z</time>
      </trkpt>
      <trkpt lat="45.94617" lon="4.79252">
        <ele>255</ele>
        <time>2018-08-18T08:55:02Z</time>
      </trkpt>
      <trkpt lat="45.94619" lon="4.7926">
        <ele>255</ele>
        <time>2018-08-18T08:55:03Z</time>
      </trkpt>
      <trkpt lat="45.94625" lon="4.79268">
        <ele>255</ele>
        <time>2018-08-18T08:55:05Z</time>
      </trkpt>
      <trkpt lat="45.94628" lon="4.79274">
        <ele>254</ele>
        <time>2018-08-18T08:55:06Z</time>
      </trkpt>
      <trkpt lat="45.94632" lon="4.7928">
        <ele>254</ele>
        <time>2018-08-18T08:55:07Z</time>
      </trkpt>
      <trkpt lat="45.94635" lon="4.79286">
        <ele>254</ele>
        <time>2018-08-18T08:55:08Z</time>
      </trkpt>
      <trkpt lat="45.94639" lon="4.79297">
        <ele>254</ele>
        <time>2018-08-18T08:55:10Z</time>
      </trkpt>
      <trkpt lat="45.94642" lon="4.79303">
        <ele>254</ele>
        <time>2018-08-18T08:55:11Z</time>
      </trkpt>
      <trkpt lat="45.94644" lon="4.79308">
        <ele>254</ele>
        <time>2018-08-18T08:55:12Z</time>
      </trkpt>
      <trkpt lat="45.94647" lon="4.79313">
        <ele>254</ele>
        <time>2018-08-18T08:55:13Z</time>
      </trkpt>
      <trkpt lat="45.9465" lon="4.79318">
        <ele>254</ele>
        <time>2018-08-18T08:55:15Z</time>
      </trkpt>
      <trkpt lat="45.94654" lon="4.79325">
        <ele>254</ele>
        <time>2018-08-18T08:55:16Z</time>
      </trkpt>
      <trkpt lat="45.94657" lon="4.79334">
        <ele>254</ele>
        <time>2018-08-18T08:55:18Z</time>
      </trkpt>
      <trkpt lat="45.9466" lon="4.7934">
        <ele>254</ele>
        <time>2018-08-18T08:55:19Z</time>
      </trkpt>
      <trkpt lat="45.94663" lon="4.79346">
        <ele>254</ele>
        <time>2018-08-18T08:55:20Z</time>
      </trkpt>
      <trkpt lat="45.94666" lon="4.79352">
        <ele>254</ele>
        <time>2018-08-18T08:55:21Z</time>
      </trkpt>
      <trkpt lat="45.94669" lon="4.79358">
        <ele>253</ele>
        <time>2018-08-18T08:55:22Z</time>
      </trkpt>
      <trkpt lat="45.94672" lon="4.79363">
        <ele>253</ele>
        <time>2018-08-18T08:55:23Z</time>
      </trkpt>
      <trkpt lat="45.94676" lon="4.79374">
        <ele>253</ele>
        <time>2018-08-18T08:55:25Z</time>
      </trkpt>
      <trkpt lat="45.94677" lon="4.79379">
        <ele>253</ele>
        <time>2018-08-18T08:55:26Z</time>
      </trkpt>
      <trkpt lat="45.94683" lon="4.79389">
        <ele>253</ele>
        <time>2018-08-18T08:55:28Z</time>
      </trkpt>
      <trkpt lat="45.94687" lon="4.79394">
        <ele>253</ele>
        <time>2018-08-18T08:55:29Z</time>
      </trkpt>
      <trkpt lat="45.94689" lon="4.794">
        <ele>253</ele>
        <time>2018-08-18T08:55:30Z</time>
      </trkpt>
      <trkpt lat="45.94692" lon="4.79406">
        <ele>253</ele>
        <time>2018-08-18T08:55:31Z</time>
      </trkpt>
      <trkpt lat="45.94697" lon="4.79412">
        <ele>253</ele>
        <time>2018-08-18T08:55:32Z</time>
      </trkpt>
      <trkpt lat="45.947" lon="4.79419">
        <ele>253</ele>
        <time>2018-08-18T08:55:33Z</time>
      </trkpt>
      <trkpt lat="45.94703" lon="4.79425">
        <ele>253</ele>
        <time>2018-08-18T08:55:34Z</time>
      </trkpt>
      <trkpt lat="45.94708" lon="4.79431">
        <ele>253</ele>
        <time>2018-08-18T08:55:35Z</time>
      </trkpt>
      <trkpt lat="45.94712" lon="4.79437">
        <ele>253</ele>
        <time>2018-08-18T08:55:36Z</time>
      </trkpt>
      <trkpt lat="45.94715" lon="4.79443">
        <ele>253</ele>
        <time>2018-08-18T08:55:37Z</time>
      </trkpt>
      <trkpt lat="45.94718" lon="4.79451">
        <ele>253</ele>
        <time>2018-08-18T08:55:38Z</time>
      </trkpt>
      <trkpt lat="45.94721" lon="4.79458">
        <ele>253</ele>
        <time>2018-08-18T08:55:39Z</time>
      </trkpt>
      <trkpt lat="45.94724" lon="4.79464">
        <ele>253</ele>
        <time>2018-08-18T08:55:40Z</time>
      </trkpt>
      <trkpt lat="45.94727" lon="4.79471">
        <ele>253</ele>
        <time>2018-08-18T08:55:41Z</time>
      </trkpt>
      <trkpt lat="45.94732" lon="4.79479">
        <ele>253</ele>
        <time>2018-08-18T08:55:42Z</time>
      </trkpt>
      <trkpt lat="45.94735" lon="4.79486">
        <ele>253</ele>
        <time>2018-08-18T08:55:43Z</time>
      </trkpt>
      <trkpt lat="45.94739" lon="4.79493">
        <ele>252</ele>
        <time>2018-08-18T08:55:44Z</time>
      </trkpt>
      <trkpt lat="45.94742" lon="4.79501">
        <ele>252</ele>
        <time>2018-08-18T08:55:45Z</time>
      </trkpt>
      <trkpt lat="45.94744" lon="4.79508">
        <ele>252</ele>
        <time>2018-08-18T08:55:46Z</time>
      </trkpt>
      <trkpt lat="45.94746" lon="4.79514">
        <ele>252</ele>
        <time>2018-08-18T08:55:47Z</time>
      </trkpt>
      <trkpt lat="45.9475" lon="4.79524">
        <ele>253</ele>
        <time>2018-08-18T08:55:48Z</time>
      </trkpt>
      <trkpt lat="45.94752" lon="4.7953">
        <ele>252</ele>
        <time>2018-08-18T08:55:49Z</time>
      </trkpt>
      <trkpt lat="45.94753" lon="4.79542">
        <ele>252</ele>
        <time>2018-08-18T08:55:51Z</time>
      </trkpt>
      <trkpt lat="45.94755" lon="4.79547">
        <ele>252</ele>
        <time>2018-08-18T08:55:52Z</time>
      </trkpt>
      <trkpt lat="45.94758" lon="4.79552">
        <ele>252</ele>
        <time>2018-08-18T08:55:53Z</time>
      </trkpt>
      <trkpt lat="45.94758" lon="4.7956">
        <ele>252</ele>
        <time>2018-08-18T08:55:54Z</time>
      </trkpt>
      <trkpt lat="45.94759" lon="4.79566">
        <ele>252</ele>
        <time>2018-08-18T08:55:55Z</time>
      </trkpt>
      <trkpt lat="45.94758" lon="4.79573">
        <ele>252</ele>
        <time>2018-08-18T08:55:56Z</time>
      </trkpt>
      <trkpt lat="45.94759" lon="4.79586">
        <ele>252</ele>
        <time>2018-08-18T08:55:58Z</time>
      </trkpt>
      <trkpt lat="45.9476" lon="4.79592">
        <ele>253</ele>
        <time>2018-08-18T08:55:59Z</time>
      </trkpt>
      <trkpt lat="45.94761" lon="4.79601">
        <ele>253</ele>
        <time>2018-08-18T08:56:00Z</time>
      </trkpt>
      <trkpt lat="45.94763" lon="4.79608">
        <ele>253</ele>
        <time>2018-08-18T08:56:01Z</time>
      </trkpt>
      <trkpt lat="45.94765" lon="4.79614">
        <ele>253</ele>
        <time>2018-08-18T08:56:02Z</time>
      </trkpt>
      <trkpt lat="45.94767" lon="4.7962">
        <ele>253</ele>
        <time>2018-08-18T08:56:03Z</time>
      </trkpt>
      <trkpt lat="45.94769" lon="4.79626">
        <ele>253</ele>
        <time>2018-08-18T08:56:04Z</time>
      </trkpt>
      <trkpt lat="45.94771" lon="4.79633">
        <ele>253</ele>
        <time>2018-08-18T08:56:05Z</time>
      </trkpt>
      <trkpt lat="45.94774" lon="4.79639">
        <ele>254</ele>
        <time>2018-08-18T08:56:06Z</time>
      </trkpt>
      <trkpt lat="45.94777" lon="4.79646">
        <ele>254</ele>
        <time>2018-08-18T08:56:07Z</time>
      </trkpt>
      <trkpt lat="45.94778" lon="4.79653">
        <ele>254</ele>
        <time>2018-08-18T08:56:08Z</time>
      </trkpt>
      <trkpt lat="45.94781" lon="4.79659">
        <ele>254</ele>
        <time>2018-08-18T08:56:09Z</time>
      </trkpt>
      <trkpt lat="45.94783" lon="4.79666">
        <ele>254</ele>
        <time>2018-08-18T08:56:10Z</time>
      </trkpt>
      <trkpt lat="45.94785" lon="4.79672">
        <ele>254</ele>
        <time>2018-08-18T08:56:11Z</time>
      </trkpt>
      <trkpt lat="45.94786" lon="4.79679">
        <ele>254</ele>
        <time>2018-08-18T08:56:12Z</time>
      </trkpt>
      <trkpt lat="45.94786" lon="4.79686">
        <ele>254</ele>
        <time>2018-08-18T08:56:13Z</time>
      </trkpt>
      <trkpt lat="45.94788" lon="4.79699">
        <ele>254</ele>
        <time>2018-08-18T08:56:15Z</time>
      </trkpt>
      <trkpt lat="45.94789" lon="4.79705">
        <ele>254</ele>
        <time>2018-08-18T08:56:16Z</time>
      </trkpt>
      <trkpt lat="45.94793" lon="4.79715">
        <ele>254</ele>
        <time>2018-08-18T08:56:18Z</time>
      </trkpt>
      <trkpt lat="45.94795" lon="4.7972">
        <ele>254</ele>
        <time>2018-08-18T08:56:19Z</time>
      </trkpt>
      <trkpt lat="45.94798" lon="4.79731">
        <ele>254</ele>
        <time>2018-08-18T08:56:21Z</time>
      </trkpt>
      <trkpt lat="45.94798" lon="4.79739">
        <ele>254</ele>
        <time>2018-08-18T08:56:22Z</time>
      </trkpt>
      <trkpt lat="45.94801" lon="4.79745">
        <ele>254</ele>
        <time>2018-08-18T08:56:23Z</time>
      </trkpt>
      <trkpt lat="45.94803" lon="4.79751">
        <ele>254</ele>
        <time>2018-08-18T08:56:24Z</time>
      </trkpt>
      <trkpt lat="45.94808" lon="4.7976">
        <ele>254</ele>
        <time>2018-08-18T08:56:25Z</time>
      </trkpt>
      <trkpt lat="45.94811" lon="4.79768">
        <ele>254</ele>
        <time>2018-08-18T08:56:26Z</time>
      </trkpt>
      <trkpt lat="45.94814" lon="4.79776">
        <ele>254</ele>
        <time>2018-08-18T08:56:27Z</time>
      </trkpt>
      <trkpt lat="45.94815" lon="4.79783">
        <ele>254</ele>
        <time>2018-08-18T08:56:28Z</time>
      </trkpt>
      <trkpt lat="45.94812" lon="4.79789">
        <ele>254</ele>
        <time>2018-08-18T08:56:29Z</time>
      </trkpt>
      <trkpt lat="45.94814" lon="4.79796">
        <ele>254</ele>
        <time>2018-08-18T08:56:30Z</time>
      </trkpt>
      <trkpt lat="45.94815" lon="4.79803">
        <ele>254</ele>
        <time>2018-08-18T08:56:31Z</time>
      </trkpt>
      <trkpt lat="45.9482" lon="4.79811">
        <ele>254</ele>
        <time>2018-08-18T08:56:32Z</time>
      </trkpt>
      <trkpt lat="45.94822" lon="4.79817">
        <ele>254</ele>
        <time>2018-08-18T08:56:33Z</time>
      </trkpt>
      <trkpt lat="45.94824" lon="4.79824">
        <ele>254</ele>
        <time>2018-08-18T08:56:34Z</time>
      </trkpt>
      <trkpt lat="45.94827" lon="4.7983">
        <ele>254</ele>
        <time>2018-08-18T08:56:35Z</time>
      </trkpt>
      <trkpt lat="45.94829" lon="4.79838">
        <ele>254</ele>
        <time>2018-08-18T08:56:36Z</time>
      </trkpt>
      <trkpt lat="45.9483" lon="4.79845">
        <ele>254</ele>
        <time>2018-08-18T08:56:37Z</time>
      </trkpt>
      <trkpt lat="45.94832" lon="4.79851">
        <ele>254</ele>
        <time>2018-08-18T08:56:38Z</time>
      </trkpt>
      <trkpt lat="45.94833" lon="4.79857">
        <ele>255</ele>
        <time>2018-08-18T08:56:39Z</time>
      </trkpt>
      <trkpt lat="45.94836" lon="4.79865">
        <ele>255</ele>
        <time>2018-08-18T08:56:40Z</time>
      </trkpt>
      <trkpt lat="45.94837" lon="4.79876">
        <ele>255</ele>
        <time>2018-08-18T08:56:42Z</time>
      </trkpt>
      <trkpt lat="45.94839" lon="4.79881">
        <ele>255</ele>
        <time>2018-08-18T08:56:43Z</time>
      </trkpt>
      <trkpt lat="45.9484" lon="4.79889">
        <ele>255</ele>
        <time>2018-08-18T08:56:44Z</time>
      </trkpt>
      <trkpt lat="45.94844" lon="4.79896">
        <ele>255</ele>
        <time>2018-08-18T08:56:45Z</time>
      </trkpt>
      <trkpt lat="45.94846" lon="4.79902">
        <ele>255</ele>
        <time>2018-08-18T08:56:46Z</time>
      </trkpt>
      <trkpt lat="45.94848" lon="4.79908">
        <ele>256</ele>
        <time>2018-08-18T08:56:47Z</time>
      </trkpt>
      <trkpt lat="45.94851" lon="4.79913">
        <ele>256</ele>
        <time>2018-08-18T08:56:50Z</time>
      </trkpt>
      <trkpt lat="45.94854" lon="4.79919">
        <ele>256</ele>
        <time>2018-08-18T08:56:51Z</time>
      </trkpt>
      <trkpt lat="45.94858" lon="4.79928">
        <ele>256</ele>
        <time>2018-08-18T08:56:53Z</time>
      </trkpt>
      <trkpt lat="45.94861" lon="4.79933">
        <ele>256</ele>
        <time>2018-08-18T08:56:54Z</time>
      </trkpt>
      <trkpt lat="45.94866" lon="4.79944">
        <ele>256</ele>
        <time>2018-08-18T08:56:56Z</time>
      </trkpt>
      <trkpt lat="45.94869" lon="4.79949">
        <ele>256</ele>
        <time>2018-08-18T08:56:57Z</time>
      </trkpt>
      <trkpt lat="45.94873" lon="4.79959">
        <ele>256</ele>
        <time>2018-08-18T08:56:59Z</time>
      </trkpt>
      <trkpt lat="45.94875" lon="4.79966">
        <ele>256</ele>
        <time>2018-08-18T08:57:00Z</time>
      </trkpt>
      <trkpt lat="45.94878" lon="4.79977">
        <ele>256</ele>
        <time>2018-08-18T08:57:02Z</time>
      </trkpt>
      <trkpt lat="45.9488" lon="4.79982">
        <ele>256</ele>
        <time>2018-08-18T08:57:03Z</time>
      </trkpt>
      <trkpt lat="45.94883" lon="4.79988">
        <ele>256</ele>
        <time>2018-08-18T08:57:04Z</time>
      </trkpt>
      <trkpt lat="45.94885" lon="4.79994">
        <ele>256</ele>
        <time>2018-08-18T08:57:05Z</time>
      </trkpt>
      <trkpt lat="45.94887" lon="4.8">
        <ele>256</ele>
        <time>2018-08-18T08:57:06Z</time>
      </trkpt>
      <trkpt lat="45.94888" lon="4.80006">
        <ele>256</ele>
        <time>2018-08-18T08:57:07Z</time>
      </trkpt>
      <trkpt lat="45.9489" lon="4.80012">
        <ele>256</ele>
        <time>2018-08-18T08:57:08Z</time>
      </trkpt>
      <trkpt lat="45.94891" lon="4.80019">
        <ele>256</ele>
        <time>2018-08-18T08:57:09Z</time>
      </trkpt>
      <trkpt lat="45.94894" lon="4.80027">
        <ele>256</ele>
        <time>2018-08-18T08:57:10Z</time>
      </trkpt>
      <trkpt lat="45.94894" lon="4.80034">
        <ele>256</ele>
        <time>2018-08-18T08:57:11Z</time>
      </trkpt>
      <trkpt lat="45.94896" lon="4.80041">
        <ele>256</ele>
        <time>2018-08-18T08:57:12Z</time>
      </trkpt>
      <trkpt lat="45.94898" lon="4.80047">
        <ele>256</ele>
        <time>2018-08-18T08:57:13Z</time>
      </trkpt>
      <trkpt lat="45.94899" lon="4.80054">
        <ele>256</ele>
        <time>2018-08-18T08:57:14Z</time>
      </trkpt>
      <trkpt lat="45.94901" lon="4.80062">
        <ele>256</ele>
        <time>2018-08-18T08:57:15Z</time>
      </trkpt>
      <trkpt lat="45.94904" lon="4.80068">
        <ele>256</ele>
        <time>2018-08-18T08:57:16Z</time>
      </trkpt>
      <trkpt lat="45.94906" lon="4.80075">
        <ele>257</ele>
        <time>2018-08-18T08:57:17Z</time>
      </trkpt>
      <trkpt lat="45.94908" lon="4.80087">
        <ele>257</ele>
        <time>2018-08-18T08:57:19Z</time>
      </trkpt>
      <trkpt lat="45.94909" lon="4.80089">
        <ele>257</ele>
        <time>2018-08-18T08:57:20Z</time>
      </trkpt>
      <trkpt lat="45.94911" lon="4.80099">
        <ele>256</ele>
        <time>2018-08-18T08:57:22Z</time>
      </trkpt>
      <trkpt lat="45.94912" lon="4.80103">
        <ele>256</ele>
        <time>2018-08-18T08:57:23Z</time>
      </trkpt>
      <trkpt lat="45.94912" lon="4.80106">
        <ele>256</ele>
        <time>2018-08-18T08:57:24Z</time>
      </trkpt>
      <trkpt lat="45.94913" lon="4.80117">
        <ele>256</ele>
        <time>2018-08-18T08:57:25Z</time>
      </trkpt>
      <trkpt lat="45.94917" lon="4.80128">
        <ele>256</ele>
        <time>2018-08-18T08:57:27Z</time>
      </trkpt>
      <trkpt lat="45.94918" lon="4.80133">
        <ele>256</ele>
        <time>2018-08-18T08:57:28Z</time>
      </trkpt>
      <trkpt lat="45.94922" lon="4.80142">
        <ele>256</ele>
        <time>2018-08-18T08:57:30Z</time>
      </trkpt>
      <trkpt lat="45.94923" lon="4.80149">
        <ele>255</ele>
        <time>2018-08-18T08:57:31Z</time>
      </trkpt>
      <trkpt lat="45.94925" lon="4.80156">
        <ele>255</ele>
        <time>2018-08-18T08:57:32Z</time>
      </trkpt>
      <trkpt lat="45.94927" lon="4.80163">
        <ele>255</ele>
        <time>2018-08-18T08:57:33Z</time>
      </trkpt>
      <trkpt lat="45.94928" lon="4.8017">
        <ele>255</ele>
        <time>2018-08-18T08:57:34Z</time>
      </trkpt>
      <trkpt lat="45.9493" lon="4.80176">
        <ele>256</ele>
        <time>2018-08-18T08:57:35Z</time>
      </trkpt>
      <trkpt lat="45.9493" lon="4.80183">
        <ele>256</ele>
        <time>2018-08-18T08:57:36Z</time>
      </trkpt>
      <trkpt lat="45.94931" lon="4.8019">
        <ele>256</ele>
        <time>2018-08-18T08:57:37Z</time>
      </trkpt>
      <trkpt lat="45.94932" lon="4.80196">
        <ele>256</ele>
        <time>2018-08-18T08:57:38Z</time>
      </trkpt>
      <trkpt lat="45.94933" lon="4.80205">
        <ele>256</ele>
        <time>2018-08-18T08:57:39Z</time>
      </trkpt>
      <trkpt lat="45.94933" lon="4.80212">
        <ele>256</ele>
        <time>2018-08-18T08:57:40Z</time>
      </trkpt>
      <trkpt lat="45.94935" lon="4.8022">
        <ele>256</ele>
        <time>2018-08-18T08:57:41Z</time>
      </trkpt>
      <trkpt lat="45.94936" lon="4.80226">
        <ele>256</ele>
        <time>2018-08-18T08:57:42Z</time>
      </trkpt>
      <trkpt lat="45.94936" lon="4.80233">
        <ele>256</ele>
        <time>2018-08-18T08:57:43Z</time>
      </trkpt>
      <trkpt lat="45.94936" lon="4.8024">
        <ele>256</ele>
        <time>2018-08-18T08:57:44Z</time>
      </trkpt>
      <trkpt lat="45.94937" lon="4.80246">
        <ele>256</ele>
        <time>2018-08-18T08:57:45Z</time>
      </trkpt>
      <trkpt lat="45.94939" lon="4.80258">
        <ele>257</ele>
        <time>2018-08-18T08:57:47Z</time>
      </trkpt>
      <trkpt lat="45.94939" lon="4.80263">
        <ele>257</ele>
        <time>2018-08-18T08:57:48Z</time>
      </trkpt>
      <trkpt lat="45.9494" lon="4.80275">
        <ele>257</ele>
        <time>2018-08-18T08:57:50Z</time>
      </trkpt>
      <trkpt lat="45.94941" lon="4.80281">
        <ele>257</ele>
        <time>2018-08-18T08:57:51Z</time>
      </trkpt>
      <trkpt lat="45.94942" lon="4.80289">
        <ele>257</ele>
        <time>2018-08-18T08:57:52Z</time>
      </trkpt>
      <trkpt lat="45.94942" lon="4.80296">
        <ele>257</ele>
        <time>2018-08-18T08:57:53Z</time>
      </trkpt>
      <trkpt lat="45.94941" lon="4.80302">
        <ele>257</ele>
        <time>2018-08-18T08:57:54Z</time>
      </trkpt>
      <trkpt lat="45.94942" lon="4.8031">
        <ele>257</ele>
        <time>2018-08-18T08:57:55Z</time>
      </trkpt>
      <trkpt lat="45.94943" lon="4.80316">
        <ele>257</ele>
        <time>2018-08-18T08:57:56Z</time>
      </trkpt>
      <trkpt lat="45.94943" lon="4.80324">
        <ele>257</ele>
        <time>2018-08-18T08:57:57Z</time>
      </trkpt>
      <trkpt lat="45.94944" lon="4.80336">
        <ele>258</ele>
        <time>2018-08-18T08:57:59Z</time>
      </trkpt>
      <trkpt lat="45.94943" lon="4.80344">
        <ele>258</ele>
        <time>2018-08-18T08:58:00Z</time>
      </trkpt>
      <trkpt lat="45.94943" lon="4.8035">
        <ele>258</ele>
        <time>2018-08-18T08:58:01Z</time>
      </trkpt>
      <trkpt lat="45.94942" lon="4.80357">
        <ele>258</ele>
        <time>2018-08-18T08:58:02Z</time>
      </trkpt>
      <trkpt lat="45.94942" lon="4.80363">
        <ele>258</ele>
        <time>2018-08-18T08:58:03Z</time>
      </trkpt>
      <trkpt lat="45.94943" lon="4.80371">
        <ele>258</ele>
        <time>2018-08-18T08:58:04Z</time>
      </trkpt>
      <trkpt lat="45.94943" lon="4.80378">
        <ele>258</ele>
        <time>2018-08-18T08:58:05Z</time>
      </trkpt>
      <trkpt lat="45.94944" lon="4.80385">
        <ele>258</ele>
        <time>2018-08-18T08:58:06Z</time>
      </trkpt>
      <trkpt lat="45.94945" lon="4.80396">
        <ele>258</ele>
        <time>2018-08-18T08:58:08Z</time>
      </trkpt>
      <trkpt lat="45.94945" lon="4.80401">
        <ele>258</ele>
        <time>2018-08-18T08:58:09Z</time>
      </trkpt>
      <trkpt lat="45.94945" lon="4.80408">
        <ele>258</ele>
        <time>2018-08-18T08:58:10Z</time>
      </trkpt>
      <trkpt lat="45.94946" lon="4.80416">
        <ele>259</ele>
        <time>2018-08-18T08:58:11Z</time>
      </trkpt>
      <trkpt lat="45.94946" lon="4.80428">
        <ele>259</ele>
        <time>2018-08-18T08:58:13Z</time>
      </trkpt>
      <trkpt lat="45.94945" lon="4.80435">
        <ele>259</ele>
        <time>2018-08-18T08:58:14Z</time>
      </trkpt>
      <trkpt lat="45.94945" lon="4.80442">
        <ele>259</ele>
        <time>2018-08-18T08:58:15Z</time>
      </trkpt>
      <trkpt lat="45.94945" lon="4.80449">
        <ele>259</ele>
        <time>2018-08-18T08:58:16Z</time>
      </trkpt>
      <trkpt lat="45.94944" lon="4.80457">
        <ele>258</ele>
        <time>2018-08-18T08:58:17Z</time>
      </trkpt>
      <trkpt lat="45.94945" lon="4.80463">
        <ele>258</ele>
        <time>2018-08-18T08:58:18Z</time>
      </trkpt>
      <trkpt lat="45.94945" lon="4.80475">
        <ele>258</ele>
        <time>2018-08-18T08:58:20Z</time>
      </trkpt>
      <trkpt lat="45.94945" lon="4.80482">
        <ele>258</ele>
        <time>2018-08-18T08:58:21Z</time>
      </trkpt>
      <trkpt lat="45.94945" lon="4.80494">
        <ele>258</ele>
        <time>2018-08-18T08:58:23Z</time>
      </trkpt>
      <trkpt lat="45.94946" lon="4.805">
        <ele>258</ele>
        <time>2018-08-18T08:58:24Z</time>
      </trkpt>
      <trkpt lat="45.94946" lon="4.80506">
        <ele>258</ele>
        <time>2018-08-18T08:58:25Z</time>
      </trkpt>
      <trkpt lat="45.94945" lon="4.80514">
        <ele>258</ele>
        <time>2018-08-18T08:58:26Z</time>
      </trkpt>
      <trkpt lat="45.94944" lon="4.8052">
        <ele>258</ele>
        <time>2018-08-18T08:58:27Z</time>
      </trkpt>
      <trkpt lat="45.94946" lon="4.80527">
        <ele>258</ele>
        <time>2018-08-18T08:58:28Z</time>
      </trkpt>
      <trkpt lat="45.94946" lon="4.80539">
        <ele>258</ele>
        <time>2018-08-18T08:58:30Z</time>
      </trkpt>
      <trkpt lat="45.94946" lon="4.80545">
        <ele>258</ele>
        <time>2018-08-18T08:58:31Z</time>
      </trkpt>
      <trkpt lat="45.94945" lon="4.80553">
        <ele>258</ele>
        <time>2018-08-18T08:58:32Z</time>
      </trkpt>
      <trkpt lat="45.94945" lon="4.8056">
        <ele>257</ele>
        <time>2018-08-18T08:58:33Z</time>
      </trkpt>
      <trkpt lat="45.94946" lon="4.80571">
        <ele>257</ele>
        <time>2018-08-18T08:58:35Z</time>
      </trkpt>
      <trkpt lat="45.94945" lon="4.8058">
        <ele>257</ele>
        <time>2018-08-18T08:58:36Z</time>
      </trkpt>
      <trkpt lat="45.94946" lon="4.80587">
        <ele>258</ele>
        <time>2018-08-18T08:58:37Z</time>
      </trkpt>
      <trkpt lat="45.94947" lon="4.80595">
        <ele>258</ele>
        <time>2018-08-18T08:58:38Z</time>
      </trkpt>
      <trkpt lat="45.94948" lon="4.80607">
        <ele>258</ele>
        <time>2018-08-18T08:58:40Z</time>
      </trkpt>
      <trkpt lat="45.94948" lon="4.80614">
        <ele>258</ele>
        <time>2018-08-18T08:58:41Z</time>
      </trkpt>
      <trkpt lat="45.94948" lon="4.8062">
        <ele>258</ele>
        <time>2018-08-18T08:58:42Z</time>
      </trkpt>
      <trkpt lat="45.94948" lon="4.80627">
        <ele>258</ele>
        <time>2018-08-18T08:58:43Z</time>
      </trkpt>
      <trkpt lat="45.94947" lon="4.80639">
        <ele>258</ele>
        <time>2018-08-18T08:58:45Z</time>
      </trkpt>
      <trkpt lat="45.94949" lon="4.80644">
        <ele>259</ele>
        <time>2018-08-18T08:58:46Z</time>
      </trkpt>
      <trkpt lat="45.94949" lon="4.8065">
        <ele>259</ele>
        <time>2018-08-18T08:58:47Z</time>
      </trkpt>
      <trkpt lat="45.9495" lon="4.80657">
        <ele>259</ele>
        <time>2018-08-18T08:58:48Z</time>
      </trkpt>
      <trkpt lat="45.94951" lon="4.80664">
        <ele>259</ele>
        <time>2018-08-18T08:58:49Z</time>
      </trkpt>
      <trkpt lat="45.9495" lon="4.8067">
        <ele>259</ele>
        <time>2018-08-18T08:58:50Z</time>
      </trkpt>
      <trkpt lat="45.94949" lon="4.80683">
        <ele>259</ele>
        <time>2018-08-18T08:58:52Z</time>
      </trkpt>
      <trkpt lat="45.9495" lon="4.80687">
        <ele>259</ele>
        <time>2018-08-18T08:58:53Z</time>
      </trkpt>
      <trkpt lat="45.94951" lon="4.80699">
        <ele>259</ele>
        <time>2018-08-18T08:58:55Z</time>
      </trkpt>
      <trkpt lat="45.94951" lon="4.80705">
        <ele>259</ele>
        <time>2018-08-18T08:58:56Z</time>
      </trkpt>
      <trkpt lat="45.94949" lon="4.80717">
        <ele>259</ele>
        <time>2018-08-18T08:58:58Z</time>
      </trkpt>
      <trkpt lat="45.94948" lon="4.80724">
        <ele>259</ele>
        <time>2018-08-18T08:58:59Z</time>
      </trkpt>
      <trkpt lat="45.9495" lon="4.80731">
        <ele>259</ele>
        <time>2018-08-18T08:59:00Z</time>
      </trkpt>
      <trkpt lat="45.94951" lon="4.80737">
        <ele>259</ele>
        <time>2018-08-18T08:59:01Z</time>
      </trkpt>
      <trkpt lat="45.94951" lon="4.80749">
        <ele>259</ele>
        <time>2018-08-18T08:59:03Z</time>
      </trkpt>
      <trkpt lat="45.9495" lon="4.80755">
        <ele>259</ele>
        <time>2018-08-18T08:59:04Z</time>
      </trkpt>
      <trkpt lat="45.9495" lon="4.80767">
        <ele>259</ele>
        <time>2018-08-18T08:59:06Z</time>
      </trkpt>
      <trkpt lat="45.94949" lon="4.80773">
        <ele>259</ele>
        <time>2018-08-18T08:59:07Z</time>
      </trkpt>
      <trkpt lat="45.94947" lon="4.80783">
        <ele>259</ele>
        <time>2018-08-18T08:59:10Z</time>
      </trkpt>
      <trkpt lat="45.94946" lon="4.80786">
        <ele>259</ele>
        <time>2018-08-18T08:59:11Z</time>
      </trkpt>
      <trkpt lat="45.94946" lon="4.80794">
        <ele>259</ele>
        <time>2018-08-18T08:59:14Z</time>
      </trkpt>
      <trkpt lat="45.94946" lon="4.80805">
        <ele>259</ele>
        <time>2018-08-18T08:59:15Z</time>
      </trkpt>
      <trkpt lat="45.94948" lon="4.8081">
        <ele>258</ele>
        <time>2018-08-18T08:59:16Z</time>
      </trkpt>
      <trkpt lat="45.94952" lon="4.80816">
        <ele>258</ele>
        <time>2018-08-18T08:59:17Z</time>
      </trkpt>
      <trkpt lat="45.94955" lon="4.80823">
        <ele>258</ele>
        <time>2018-08-18T08:59:18Z</time>
      </trkpt>
      <trkpt lat="45.94957" lon="4.80829">
        <ele>258</ele>
        <time>2018-08-18T08:59:19Z</time>
      </trkpt>
      <trkpt lat="45.94959" lon="4.80836">
        <ele>259</ele>
        <time>2018-08-18T08:59:20Z</time>
      </trkpt>
      <trkpt lat="45.94963" lon="4.80844">
        <ele>259</ele>
        <time>2018-08-18T08:59:21Z</time>
      </trkpt>
      <trkpt lat="45.94965" lon="4.80852">
        <ele>259</ele>
        <time>2018-08-18T08:59:22Z</time>
      </trkpt>
      <trkpt lat="45.94965" lon="4.80858">
        <ele>259</ele>
        <time>2018-08-18T08:59:23Z</time>
      </trkpt>
      <trkpt lat="45.94966" lon="4.80869">
        <ele>259</ele>
        <time>2018-08-18T08:59:25Z</time>
      </trkpt>
      <trkpt lat="45.94968" lon="4.80876">
        <ele>258</ele>
        <time>2018-08-18T08:59:26Z</time>
      </trkpt>
      <trkpt lat="45.9497" lon="4.80886">
        <ele>258</ele>
        <time>2018-08-18T08:59:28Z</time>
      </trkpt>
      <trkpt lat="45.94971" lon="4.80893">
        <ele>258</ele>
        <time>2018-08-18T08:59:29Z</time>
      </trkpt>
      <trkpt lat="45.94972" lon="4.809">
        <ele>258</ele>
        <time>2018-08-18T08:59:30Z</time>
      </trkpt>
      <trkpt lat="45.94973" lon="4.80908">
        <ele>258</ele>
        <time>2018-08-18T08:59:31Z</time>
      </trkpt>
      <trkpt lat="45.94976" lon="4.80917">
        <ele>258</ele>
        <time>2018-08-18T08:59:32Z</time>
      </trkpt>
      <trkpt lat="45.94978" lon="4.80924">
        <ele>258</ele>
        <time>2018-08-18T08:59:33Z</time>
      </trkpt>
      <trkpt lat="45.9498" lon="4.80931">
        <ele>258</ele>
        <time>2018-08-18T08:59:34Z</time>
      </trkpt>
      <trkpt lat="45.94981" lon="4.8094">
        <ele>258</ele>
        <time>2018-08-18T08:59:35Z</time>
      </trkpt>
      <trkpt lat="45.94982" lon="4.80947">
        <ele>258</ele>
        <time>2018-08-18T08:59:36Z</time>
      </trkpt>
      <trkpt lat="45.94983" lon="4.80954">
        <ele>258</ele>
        <time>2018-08-18T08:59:37Z</time>
      </trkpt>
      <trkpt lat="45.94984" lon="4.80961">
        <ele>258</ele>
        <time>2018-08-18T08:59:38Z</time>
      </trkpt>
      <trkpt lat="45.94985" lon="4.80969">
        <ele>258</ele>
        <time>2018-08-18T08:59:39Z</time>
      </trkpt>
      <trkpt lat="45.94986" lon="4.80976">
        <ele>258</ele>
        <time>2018-08-18T08:59:40Z</time>
      </trkpt>
      <trkpt lat="45.94986" lon="4.80984">
        <ele>258</ele>
        <time>2018-08-18T08:59:41Z</time>
      </trkpt>
      <trkpt lat="45.94987" lon="4.80992">
        <ele>257</ele>
        <time>2018-08-18T08:59:42Z</time>
      </trkpt>
      <trkpt lat="45.94987" lon="4.81">
        <ele>257</ele>
        <time>2018-08-18T08:59:43Z</time>
      </trkpt>
      <trkpt lat="45.94988" lon="4.81008">
        <ele>257</ele>
        <time>2018-08-18T08:59:44Z</time>
      </trkpt>
      <trkpt lat="45.94988" lon="4.81017">
        <ele>257</ele>
        <time>2018-08-18T08:59:45Z</time>
      </trkpt>
      <trkpt lat="45.94989" lon="4.81026">
        <ele>257</ele>
        <time>2018-08-18T08:59:46Z</time>
      </trkpt>
      <trkpt lat="45.9499" lon="4.81034">
        <ele>257</ele>
        <time>2018-08-18T08:59:47Z</time>
      </trkpt>
      <trkpt lat="45.9499" lon="4.81042">
        <ele>257</ele>
        <time>2018-08-18T08:59:48Z</time>
      </trkpt>
      <trkpt lat="45.9499" lon="4.8105">
        <ele>257</ele>
        <time>2018-08-18T08:59:49Z</time>
      </trkpt>
      <trkpt lat="45.94991" lon="4.81057">
        <ele>257</ele>
        <time>2018-08-18T08:59:50Z</time>
      </trkpt>
      <trkpt lat="45.94992" lon="4.81066">
        <ele>257</ele>
        <time>2018-08-18T08:59:51Z</time>
      </trkpt>
      <trkpt lat="45.94992" lon="4.81074">
        <ele>257</ele>
        <time>2018-08-18T08:59:52Z</time>
      </trkpt>
      <trkpt lat="45.94993" lon="4.81082">
        <ele>257</ele>
        <time>2018-08-18T08:59:53Z</time>
      </trkpt>
      <trkpt lat="45.94993" lon="4.8109">
        <ele>257</ele>
        <time>2018-08-18T08:59:54Z</time>
      </trkpt>
      <trkpt lat="45.94994" lon="4.81097">
        <ele>257</ele>
        <time>2018-08-18T08:59:55Z</time>
      </trkpt>
      <trkpt lat="45.94995" lon="4.81106">
        <ele>257</ele>
        <time>2018-08-18T08:59:56Z</time>
      </trkpt>
      <trkpt lat="45.94996" lon="4.81116">
        <ele>257</ele>
        <time>2018-08-18T08:59:57Z</time>
      </trkpt>
      <trkpt lat="45.94996" lon="4.81125">
        <ele>256</ele>
        <time>2018-08-18T08:59:58Z</time>
      </trkpt>
      <trkpt lat="45.94997" lon="4.81135">
        <ele>256</ele>
        <time>2018-08-18T08:59:59Z</time>
      </trkpt>
      <trkpt lat="45.94999" lon="4.81144">
        <ele>256</ele>
        <time>2018-08-18T09:00:00Z</time>
      </trkpt>
      <trkpt lat="45.95" lon="4.81153">
        <ele>256</ele>
        <time>2018-08-18T09:00:01Z</time>
      </trkpt>
      <trkpt lat="45.95001" lon="4.81163">
        <ele>256</ele>
        <time>2018-08-18T09:00:02Z</time>
      </trkpt>
      <trkpt lat="45.95002" lon="4.81173">
        <ele>256</ele>
        <time>2018-08-18T09:00:03Z</time>
      </trkpt>
      <trkpt lat="45.95003" lon="4.81181">
        <ele>256</ele>
        <time>2018-08-18T09:00:04Z</time>
      </trkpt>
      <trkpt lat="45.95005" lon="4.81191">
        <ele>256</ele>
        <time>2018-08-18T09:00:05Z</time>
      </trkpt>
      <trkpt lat="45.95007" lon="4.81201">
        <ele>256</ele>
        <time>2018-08-18T09:00:06Z</time>
      </trkpt>
      <trkpt lat="45.95008" lon="4.81211">
        <ele>256</ele>
        <time>2018-08-18T09:00:07Z</time>
      </trkpt>
      <trkpt lat="45.95008" lon="4.81219">
        <ele>256</ele>
        <time>2018-08-18T09:00:08Z</time>
      </trkpt>
      <trkpt lat="45.95009" lon="4.81227">
        <ele>256</ele>
        <time>2018-08-18T09:00:09Z</time>
      </trkpt>
      <trkpt lat="45.95009" lon="4.81236">
        <ele>256</ele>
        <time>2018-08-18T09:00:10Z</time>
      </trkpt>
      <trkpt lat="45.95011" lon="4.81245">
        <ele>256</ele>
        <time>2018-08-18T09:00:11Z</time>
      </trkpt>
      <trkpt lat="45.95012" lon="4.81253">
        <ele>256</ele>
        <time>2018-08-18T09:00:12Z</time>
      </trkpt>
      <trkpt lat="45.95014" lon="4.81262">
        <ele>256</ele>
        <time>2018-08-18T09:00:13Z</time>
      </trkpt>
      <trkpt lat="45.95015" lon="4.8127">
        <ele>255</ele>
        <time>2018-08-18T09:00:14Z</time>
      </trkpt>
      <trkpt lat="45.95017" lon="4.81278">
        <ele>255</ele>
        <time>2018-08-18T09:00:15Z</time>
      </trkpt>
      <trkpt lat="45.95019" lon="4.81287">
        <ele>255</ele>
        <time>2018-08-18T09:00:16Z</time>
      </trkpt>
      <trkpt lat="45.95021" lon="4.81294">
        <ele>255</ele>
        <time>2018-08-18T09:00:17Z</time>
      </trkpt>
      <trkpt lat="45.95022" lon="4.81302">
        <ele>255</ele>
        <time>2018-08-18T09:00:18Z</time>
      </trkpt>
      <trkpt lat="45.95024" lon="4.81309">
        <ele>255</ele>
        <time>2018-08-18T09:00:19Z</time>
      </trkpt>
      <trkpt lat="45.95026" lon="4.81317">
        <ele>255</ele>
        <time>2018-08-18T09:00:20Z</time>
      </trkpt>
      <trkpt lat="45.95029" lon="4.81323">
        <ele>255</ele>
        <time>2018-08-18T09:00:21Z</time>
      </trkpt>
      <trkpt lat="45.95031" lon="4.81331">
        <ele>255</ele>
        <time>2018-08-18T09:00:22Z</time>
      </trkpt>
      <trkpt lat="45.95033" lon="4.81337">
        <ele>254</ele>
        <time>2018-08-18T09:00:23Z</time>
      </trkpt>
      <trkpt lat="45.95035" lon="4.81345">
        <ele>254</ele>
        <time>2018-08-18T09:00:24Z</time>
      </trkpt>
      <trkpt lat="45.95037" lon="4.81352">
        <ele>254</ele>
        <time>2018-08-18T09:00:25Z</time>
      </trkpt>
      <trkpt lat="45.95039" lon="4.81359">
        <ele>254</ele>
        <time>2018-08-18T09:00:26Z</time>
      </trkpt>
      <trkpt lat="45.95041" lon="4.81368">
        <ele>254</ele>
        <time>2018-08-18T09:00:27Z</time>
      </trkpt>
      <trkpt lat="45.95044" lon="4.81376">
        <ele>254</ele>
        <time>2018-08-18T09:00:28Z</time>
      </trkpt>
      <trkpt lat="45.95047" lon="4.81385">
        <ele>254</ele>
        <time>2018-08-18T09:00:29Z</time>
      </trkpt>
      <trkpt lat="45.9505" lon="4.81394">
        <ele>253</ele>
        <time>2018-08-18T09:00:30Z</time>
      </trkpt>
      <trkpt lat="45.95053" lon="4.81402">
        <ele>253</ele>
        <time>2018-08-18T09:00:31Z</time>
      </trkpt>
      <trkpt lat="45.95056" lon="4.8141">
        <ele>253</ele>
        <time>2018-08-18T09:00:32Z</time>
      </trkpt>
      <trkpt lat="45.95059" lon="4.81419">
        <ele>253</ele>
        <time>2018-08-18T09:00:33Z</time>
      </trkpt>
      <trkpt lat="45.95062" lon="4.81428">
        <ele>252</ele>
        <time>2018-08-18T09:00:34Z</time>
      </trkpt>
      <trkpt lat="45.95065" lon="4.81437">
        <ele>253</ele>
        <time>2018-08-18T09:00:35Z</time>
      </trkpt>
      <trkpt lat="45.95068" lon="4.81446">
        <ele>253</ele>
        <time>2018-08-18T09:00:36Z</time>
      </trkpt>
      <trkpt lat="45.9507" lon="4.81454">
        <ele>253</ele>
        <time>2018-08-18T09:00:37Z</time>
      </trkpt>
      <trkpt lat="45.95072" lon="4.81461">
        <ele>253</ele>
        <time>2018-08-18T09:00:38Z</time>
      </trkpt>
      <trkpt lat="45.95075" lon="4.81469">
        <ele>253</ele>
        <time>2018-08-18T09:00:39Z</time>
      </trkpt>
      <trkpt lat="45.95078" lon="4.81478">
        <ele>253</ele>
        <time>2018-08-18T09:00:40Z</time>
      </trkpt>
      <trkpt lat="45.95082" lon="4.81488">
        <ele>252</ele>
        <time>2018-08-18T09:00:41Z</time>
      </trkpt>
      <trkpt lat="45.95085" lon="4.81497">
        <ele>252</ele>
        <time>2018-08-18T09:00:42Z</time>
      </trkpt>
      <trkpt lat="45.95088" lon="4.81507">
        <ele>252</ele>
        <time>2018-08-18T09:00:43Z</time>
      </trkpt>
      <trkpt lat="45.95089" lon="4.81515">
        <ele>252</ele>
        <time>2018-08-18T09:00:44Z</time>
      </trkpt>
      <trkpt lat="45.95094" lon="4.81525">
        <ele>251</ele>
        <time>2018-08-18T09:00:45Z</time>
      </trkpt>
      <trkpt lat="45.95097" lon="4.81534">
        <ele>251</ele>
        <time>2018-08-18T09:00:46Z</time>
      </trkpt>
      <trkpt lat="45.951" lon="4.81542">
        <ele>251</ele>
        <time>2018-08-18T09:00:47Z</time>
      </trkpt>
      <trkpt lat="45.95104" lon="4.81553">
        <ele>251</ele>
        <time>2018-08-18T09:00:48Z</time>
      </trkpt>
      <trkpt lat="45.95107" lon="4.81563">
        <ele>251</ele>
        <time>2018-08-18T09:00:49Z</time>
      </trkpt>
      <trkpt lat="45.9511" lon="4.81571">
        <ele>251</ele>
        <time>2018-08-18T09:00:50Z</time>
      </trkpt>
      <trkpt lat="45.95113" lon="4.81579">
        <ele>251</ele>
        <time>2018-08-18T09:00:51Z</time>
      </trkpt>
      <trkpt lat="45.95115" lon="4.81587">
        <ele>252</ele>
        <time>2018-08-18T09:00:52Z</time>
      </trkpt>
      <trkpt lat="45.9512" lon="4.81594">
        <ele>252</ele>
        <time>2018-08-18T09:00:53Z</time>
      </trkpt>
      <trkpt lat="45.95121" lon="4.81601">
        <ele>252</ele>
        <time>2018-08-18T09:00:54Z</time>
      </trkpt>
      <trkpt lat="45.95122" lon="4.81608">
        <ele>252</ele>
        <time>2018-08-18T09:00:55Z</time>
      </trkpt>
      <trkpt lat="45.95127" lon="4.81618">
        <ele>252</ele>
        <time>2018-08-18T09:00:56Z</time>
      </trkpt>
      <trkpt lat="45.95128" lon="4.81624">
        <ele>252</ele>
        <time>2018-08-18T09:00:57Z</time>
      </trkpt>
      <trkpt lat="45.95131" lon="4.8163">
        <ele>253</ele>
        <time>2018-08-18T09:00:58Z</time>
      </trkpt>
      <trkpt lat="45.95134" lon="4.81637">
        <ele>253</ele>
        <time>2018-08-18T09:00:59Z</time>
      </trkpt>
      <trkpt lat="45.95135" lon="4.81643">
        <ele>253</ele>
        <time>2018-08-18T09:01:00Z</time>
      </trkpt>
      <trkpt lat="45.95138" lon="4.8165">
        <ele>253</ele>
        <time>2018-08-18T09:01:01Z</time>
      </trkpt>
      <trkpt lat="45.95142" lon="4.8166">
        <ele>253</ele>
        <time>2018-08-18T09:01:03Z</time>
      </trkpt>
      <trkpt lat="45.95144" lon="4.81667">
        <ele>255</ele>
        <time>2018-08-18T09:01:04Z</time>
      </trkpt>
      <trkpt lat="45.95147" lon="4.81677">
        <ele>255</ele>
        <time>2018-08-18T09:01:06Z</time>
      </trkpt>
      <trkpt lat="45.95147" lon="4.81681">
        <ele>255</ele>
        <time>2018-08-18T09:01:07Z</time>
      </trkpt>
      <trkpt lat="45.9515" lon="4.81693">
        <ele>255</ele>
        <time>2018-08-18T09:01:11Z</time>
      </trkpt>
      <trkpt lat="45.95152" lon="4.81697">
        <ele>255</ele>
        <time>2018-08-18T09:01:12Z</time>
      </trkpt>
      <trkpt lat="45.95157" lon="4.81706">
        <ele>255</ele>
        <time>2018-08-18T09:01:15Z</time>
      </trkpt>
      <trkpt lat="45.95159" lon="4.81709">
        <ele>256</ele>
        <time>2018-08-18T09:01:16Z</time>
      </trkpt>
      <trkpt lat="45.9516" lon="4.81711">
        <ele>256</ele>
        <time>2018-08-18T09:01:17Z</time>
      </trkpt>
      <trkpt lat="45.95165" lon="4.8172">
        <ele>256</ele>
        <time>2018-08-18T09:01:18Z</time>
      </trkpt>
      <trkpt lat="45.95169" lon="4.81728">
        <ele>257</ele>
        <time>2018-08-18T09:01:21Z</time>
      </trkpt>
      <trkpt lat="45.95171" lon="4.81731">
        <ele>257</ele>
        <time>2018-08-18T09:01:22Z</time>
      </trkpt>
      <trkpt lat="45.95174" lon="4.81738">
        <ele>257</ele>
        <time>2018-08-18T09:01:24Z</time>
      </trkpt>
      <trkpt lat="45.95176" lon="4.81742">
        <ele>257</ele>
        <time>2018-08-18T09:01:25Z</time>
      </trkpt>
      <trkpt lat="45.95179" lon="4.8175">
        <ele>258</ele>
        <time>2018-08-18T09:01:27Z</time>
      </trkpt>
      <trkpt lat="45.95181" lon="4.81754">
        <ele>258</ele>
        <time>2018-08-18T09:01:28Z</time>
      </trkpt>
      <trkpt lat="45.95185" lon="4.81762">
        <ele>258</ele>
        <time>2018-08-18T09:01:30Z</time>
      </trkpt>
      <trkpt lat="45.95188" lon="4.81766">
        <ele>258</ele>
        <time>2018-08-18T09:01:31Z</time>
      </trkpt>
      <trkpt lat="45.95192" lon="4.81773">
        <ele>258</ele>
        <time>2018-08-18T09:01:33Z</time>
      </trkpt>
      <trkpt lat="45.95195" lon="4.81777">
        <ele>258</ele>
        <time>2018-08-18T09:01:34Z</time>
      </trkpt>
      <trkpt lat="45.95202" lon="4.81788">
        <ele>258</ele>
        <time>2018-08-18T09:01:35Z</time>
      </trkpt>
      <trkpt lat="45.95207" lon="4.81795">
        <ele>259</ele>
        <time>2018-08-18T09:01:38Z</time>
      </trkpt>
      <trkpt lat="45.95212" lon="4.81804">
        <ele>259</ele>
        <time>2018-08-18T09:01:39Z</time>
      </trkpt>
      <trkpt lat="45.95217" lon="4.81812">
        <ele>259</ele>
        <time>2018-08-18T09:01:41Z</time>
      </trkpt>
      <trkpt lat="45.9522" lon="4.81817">
        <ele>259</ele>
        <time>2018-08-18T09:01:42Z</time>
      </trkpt>
      <trkpt lat="45.95226" lon="4.81825">
        <ele>259</ele>
        <time>2018-08-18T09:01:44Z</time>
      </trkpt>
      <trkpt lat="45.95229" lon="4.8183">
        <ele>259</ele>
        <time>2018-08-18T09:01:45Z</time>
      </trkpt>
      <trkpt lat="45.95235" lon="4.81833">
        <ele>259</ele>
        <time>2018-08-18T09:01:46Z</time>
      </trkpt>
      <trkpt lat="45.95238" lon="4.81836">
        <ele>259</ele>
        <time>2018-08-18T09:01:47Z</time>
      </trkpt>
      <trkpt lat="45.95243" lon="4.81846">
        <ele>260</ele>
        <time>2018-08-18T09:01:49Z</time>
      </trkpt>
      <trkpt lat="45.95246" lon="4.81849">
        <ele>260</ele>
        <time>2018-08-18T09:01:50Z</time>
      </trkpt>
      <trkpt lat="45.95253" lon="4.81857">
        <ele>260</ele>
        <time>2018-08-18T09:01:54Z</time>
      </trkpt>
      <trkpt lat="45.95254" lon="4.8186">
        <ele>260</ele>
        <time>2018-08-18T09:01:55Z</time>
      </trkpt>
      <trkpt lat="45.95255" lon="4.81862">
        <ele>260</ele>
        <time>2018-08-18T09:01:56Z</time>
      </trkpt>
      <trkpt lat="45.95263" lon="4.81872">
        <ele>260</ele>
        <time>2018-08-18T09:01:57Z</time>
      </trkpt>
      <trkpt lat="45.95267" lon="4.81881">
        <ele>260</ele>
        <time>2018-08-18T09:01:59Z</time>
      </trkpt>
      <trkpt lat="45.9527" lon="4.81885">
        <ele>260</ele>
        <time>2018-08-18T09:02:00Z</time>
      </trkpt>
      <trkpt lat="45.95274" lon="4.81891">
        <ele>260</ele>
        <time>2018-08-18T09:02:02Z</time>
      </trkpt>
      <trkpt lat="45.95278" lon="4.81896">
        <ele>260</ele>
        <time>2018-08-18T09:02:03Z</time>
      </trkpt>
      <trkpt lat="45.95284" lon="4.81905">
        <ele>260</ele>
        <time>2018-08-18T09:02:05Z</time>
      </trkpt>
      <trkpt lat="45.95287" lon="4.81909">
        <ele>260</ele>
        <time>2018-08-18T09:02:06Z</time>
      </trkpt>
      <trkpt lat="45.95292" lon="4.81918">
        <ele>261</ele>
        <time>2018-08-18T09:02:08Z</time>
      </trkpt>
      <trkpt lat="45.95295" lon="4.81922">
        <ele>261</ele>
        <time>2018-08-18T09:02:09Z</time>
      </trkpt>
      <trkpt lat="45.953" lon="4.81931">
        <ele>261</ele>
        <time>2018-08-18T09:02:11Z</time>
      </trkpt>
      <trkpt lat="45.95303" lon="4.81935">
        <ele>261</ele>
        <time>2018-08-18T09:02:12Z</time>
      </trkpt>
      <trkpt lat="45.95309" lon="4.81943">
        <ele>261</ele>
        <time>2018-08-18T09:02:14Z</time>
      </trkpt>
      <trkpt lat="45.95313" lon="4.81947">
        <ele>261</ele>
        <time>2018-08-18T09:02:15Z</time>
      </trkpt>
      <trkpt lat="45.95319" lon="4.81954">
        <ele>262</ele>
        <time>2018-08-18T09:02:17Z</time>
      </trkpt>
      <trkpt lat="45.95324" lon="4.81957">
        <ele>262</ele>
        <time>2018-08-18T09:02:18Z</time>
      </trkpt>
      <trkpt lat="45.95328" lon="4.81961">
        <ele>262</ele>
        <time>2018-08-18T09:02:19Z</time>
      </trkpt>
      <trkpt lat="45.95334" lon="4.81965">
        <ele>261</ele>
        <time>2018-08-18T09:02:20Z</time>
      </trkpt>
      <trkpt lat="45.95341" lon="4.81971">
        <ele>261</ele>
        <time>2018-08-18T09:02:22Z</time>
      </trkpt>
      <trkpt lat="45.95345" lon="4.81975">
        <ele>261</ele>
        <time>2018-08-18T09:02:23Z</time>
      </trkpt>
      <trkpt lat="45.95349" lon="4.81978">
        <ele>261</ele>
        <time>2018-08-18T09:02:24Z</time>
      </trkpt>
      <trkpt lat="45.95352" lon="4.81982">
        <ele>262</ele>
        <time>2018-08-18T09:02:25Z</time>
      </trkpt>
      <trkpt lat="45.95358" lon="4.8199">
        <ele>261</ele>
        <time>2018-08-18T09:02:27Z</time>
      </trkpt>
      <trkpt lat="45.95362" lon="4.81996">
        <ele>261</ele>
        <time>2018-08-18T09:02:28Z</time>
      </trkpt>
      <trkpt lat="45.95366" lon="4.82001">
        <ele>262</ele>
        <time>2018-08-18T09:02:29Z</time>
      </trkpt>
      <trkpt lat="45.95371" lon="4.82005">
        <ele>262</ele>
        <time>2018-08-18T09:02:30Z</time>
      </trkpt>
      <trkpt lat="45.95376" lon="4.82009">
        <ele>262</ele>
        <time>2018-08-18T09:02:31Z</time>
      </trkpt>
      <trkpt lat="45.95382" lon="4.82015">
        <ele>262</ele>
        <time>2018-08-18T09:02:32Z</time>
      </trkpt>
      <trkpt lat="45.95385" lon="4.8202">
        <ele>261</ele>
        <time>2018-08-18T09:02:33Z</time>
      </trkpt>
      <trkpt lat="45.95389" lon="4.82025">
        <ele>261</ele>
        <time>2018-08-18T09:02:34Z</time>
      </trkpt>
      <trkpt lat="45.95393" lon="4.82029">
        <ele>261</ele>
        <time>2018-08-18T09:02:35Z</time>
      </trkpt>
      <trkpt lat="45.95398" lon="4.82034">
        <ele>261</ele>
        <time>2018-08-18T09:02:36Z</time>
      </trkpt>
      <trkpt lat="45.95402" lon="4.82039">
        <ele>261</ele>
        <time>2018-08-18T09:02:37Z</time>
      </trkpt>
      <trkpt lat="45.95406" lon="4.82046">
        <ele>261</ele>
        <time>2018-08-18T09:02:38Z</time>
      </trkpt>
      <trkpt lat="45.95409" lon="4.82052">
        <ele>261</ele>
        <time>2018-08-18T09:02:39Z</time>
      </trkpt>
      <trkpt lat="45.95414" lon="4.82057">
        <ele>261</ele>
        <time>2018-08-18T09:02:40Z</time>
      </trkpt>
      <trkpt lat="45.95418" lon="4.82061">
        <ele>260</ele>
        <time>2018-08-18T09:02:41Z</time>
      </trkpt>
      <trkpt lat="45.95424" lon="4.82063">
        <ele>260</ele>
        <time>2018-08-18T09:02:42Z</time>
      </trkpt>
      <trkpt lat="45.95427" lon="4.82068">
        <ele>260</ele>
        <time>2018-08-18T09:02:43Z</time>
      </trkpt>
      <trkpt lat="45.95431" lon="4.82074">
        <ele>260</ele>
        <time>2018-08-18T09:02:44Z</time>
      </trkpt>
      <trkpt lat="45.95438" lon="4.8208">
        <ele>260</ele>
        <time>2018-08-18T09:02:46Z</time>
      </trkpt>
      <trkpt lat="45.95442" lon="4.82085">
        <ele>260</ele>
        <time>2018-08-18T09:02:47Z</time>
      </trkpt>
      <trkpt lat="45.95446" lon="4.82089">
        <ele>260</ele>
        <time>2018-08-18T09:02:48Z</time>
      </trkpt>
      <trkpt lat="45.9545" lon="4.82093">
        <ele>260</ele>
        <time>2018-08-18T09:02:49Z</time>
      </trkpt>
      <trkpt lat="45.95455" lon="4.82098">
        <ele>260</ele>
        <time>2018-08-18T09:02:50Z</time>
      </trkpt>
      <trkpt lat="45.95463" lon="4.82099">
        <ele>260</ele>
        <time>2018-08-18T09:02:51Z</time>
      </trkpt>
      <trkpt lat="45.95465" lon="4.82106">
        <ele>260</ele>
        <time>2018-08-18T09:02:52Z</time>
      </trkpt>
      <trkpt lat="45.95471" lon="4.82111">
        <ele>260</ele>
        <time>2018-08-18T09:02:53Z</time>
      </trkpt>
      <trkpt lat="45.95475" lon="4.82116">
        <ele>260</ele>
        <time>2018-08-18T09:02:54Z</time>
      </trkpt>
      <trkpt lat="45.9548" lon="4.8212">
        <ele>260</ele>
        <time>2018-08-18T09:02:55Z</time>
      </trkpt>
      <trkpt lat="45.95485" lon="4.82126">
        <ele>260</ele>
        <time>2018-08-18T09:02:56Z</time>
      </trkpt>
      <trkpt lat="45.95489" lon="4.82132">
        <ele>260</ele>
        <time>2018-08-18T09:02:57Z</time>
      </trkpt>
      <trkpt lat="45.95493" lon="4.82136">
        <ele>260</ele>
        <time>2018-08-18T09:02:58Z</time>
      </trkpt>
      <trkpt lat="45.95497" lon="4.8214">
        <ele>260</ele>
        <time>2018-08-18T09:02:59Z</time>
      </trkpt>
      <trkpt lat="45.95501" lon="4.82144">
        <ele>259</ele>
        <time>2018-08-18T09:03:00Z</time>
      </trkpt>
      <trkpt lat="45.95507" lon="4.82146">
        <ele>259</ele>
        <time>2018-08-18T09:03:01Z</time>
      </trkpt>
      <trkpt lat="45.95512" lon="4.82151">
        <ele>259</ele>
        <time>2018-08-18T09:03:02Z</time>
      </trkpt>
      <trkpt lat="45.95517" lon="4.82157">
        <ele>259</ele>
        <time>2018-08-18T09:03:03Z</time>
      </trkpt>
      <trkpt lat="45.95521" lon="4.82163">
        <ele>259</ele>
        <time>2018-08-18T09:03:04Z</time>
      </trkpt>
      <trkpt lat="45.95526" lon="4.82167">
        <ele>259</ele>
        <time>2018-08-18T09:03:05Z</time>
      </trkpt>
      <trkpt lat="45.95531" lon="4.82172">
        <ele>259</ele>
        <time>2018-08-18T09:03:06Z</time>
      </trkpt>
      <trkpt lat="45.95535" lon="4.82176">
        <ele>259</ele>
        <time>2018-08-18T09:03:07Z</time>
      </trkpt>
      <trkpt lat="45.9554" lon="4.8218">
        <ele>259</ele>
        <time>2018-08-18T09:03:08Z</time>
      </trkpt>
      <trkpt lat="45.95546" lon="4.82184">
        <ele>259</ele>
        <time>2018-08-18T09:03:09Z</time>
      </trkpt>
      <trkpt lat="45.95551" lon="4.82188">
        <ele>259</ele>
        <time>2018-08-18T09:03:10Z</time>
      </trkpt>
      <trkpt lat="45.95555" lon="4.82192">
        <ele>259</ele>
        <time>2018-08-18T09:03:11Z</time>
      </trkpt>
      <trkpt lat="45.95559" lon="4.82197">
        <ele>259</ele>
        <time>2018-08-18T09:03:12Z</time>
      </trkpt>
      <trkpt lat="45.95564" lon="4.82201">
        <ele>258</ele>
        <time>2018-08-18T09:03:13Z</time>
      </trkpt>
      <trkpt lat="45.95569" lon="4.82205">
        <ele>258</ele>
        <time>2018-08-18T09:03:14Z</time>
      </trkpt>
      <trkpt lat="45.95575" lon="4.82209">
        <ele>258</ele>
        <time>2018-08-18T09:03:15Z</time>
      </trkpt>
      <trkpt lat="45.95581" lon="4.82213">
        <ele>258</ele>
        <time>2018-08-18T09:03:16Z</time>
      </trkpt>
      <trkpt lat="45.95586" lon="4.82217">
        <ele>257</ele>
        <time>2018-08-18T09:03:17Z</time>
      </trkpt>
      <trkpt lat="45.95591" lon="4.82221">
        <ele>257</ele>
        <time>2018-08-18T09:03:18Z</time>
      </trkpt>
      <trkpt lat="45.95598" lon="4.82223">
        <ele>257</ele>
        <time>2018-08-18T09:03:19Z</time>
      </trkpt>
      <trkpt lat="45.95605" lon="4.82231">
        <ele>257</ele>
        <time>2018-08-18T09:03:21Z</time>
      </trkpt>
      <trkpt lat="45.95613" lon="4.82228">
        <ele>257</ele>
        <time>2018-08-18T09:03:22Z</time>
      </trkpt>
      <trkpt lat="45.95619" lon="4.82227">
        <ele>257</ele>
        <time>2018-08-18T09:03:23Z</time>
      </trkpt>
      <trkpt lat="45.95626" lon="4.82226">
        <ele>257</ele>
        <time>2018-08-18T09:03:24Z</time>
      </trkpt>
      <trkpt lat="45.9563" lon="4.82228">
        <ele>257</ele>
        <time>2018-08-18T09:03:25Z</time>
      </trkpt>
      <trkpt lat="45.95636" lon="4.82226">
        <ele>257</ele>
        <time>2018-08-18T09:03:26Z</time>
      </trkpt>
      <trkpt lat="45.95642" lon="4.82227">
        <ele>257</ele>
        <time>2018-08-18T09:03:27Z</time>
      </trkpt>
      <trkpt lat="45.95651" lon="4.82226">
        <ele>257</ele>
        <time>2018-08-18T09:03:28Z</time>
      </trkpt>
      <trkpt lat="45.95658" lon="4.82227">
        <ele>257</ele>
        <time>2018-08-18T09:03:29Z</time>
      </trkpt>
      <trkpt lat="45.95664" lon="4.8223">
        <ele>257</ele>
        <time>2018-08-18T09:03:30Z</time>
      </trkpt>
      <trkpt lat="45.9567" lon="4.82233">
        <ele>255</ele>
        <time>2018-08-18T09:03:31Z</time>
      </trkpt>
      <trkpt lat="45.95676" lon="4.82237">
        <ele>255</ele>
        <time>2018-08-18T09:03:32Z</time>
      </trkpt>
      <trkpt lat="45.95682" lon="4.8224">
        <ele>255</ele>
        <time>2018-08-18T09:03:33Z</time>
      </trkpt>
      <trkpt lat="45.95686" lon="4.82246">
        <ele>255</ele>
        <time>2018-08-18T09:03:34Z</time>
      </trkpt>
      <trkpt lat="45.95692" lon="4.8225">
        <ele>255</ele>
        <time>2018-08-18T09:03:35Z</time>
      </trkpt>
      <trkpt lat="45.95696" lon="4.82256">
        <ele>255</ele>
        <time>2018-08-18T09:03:36Z</time>
      </trkpt>
      <trkpt lat="45.95699" lon="4.82259">
        <ele>255</ele>
        <time>2018-08-18T09:03:37Z</time>
      </trkpt>
      <trkpt lat="45.95702" lon="4.82265">
        <ele>255</ele>
        <time>2018-08-18T09:03:38Z</time>
      </trkpt>
      <trkpt lat="45.95709" lon="4.82271">
        <ele>255</ele>
        <time>2018-08-18T09:03:39Z</time>
      </trkpt>
      <trkpt lat="45.95709" lon="4.82276">
        <ele>255</ele>
        <time>2018-08-18T09:03:40Z</time>
      </trkpt>
      <trkpt lat="45.95716" lon="4.82279">
        <ele>255</ele>
        <time>2018-08-18T09:03:41Z</time>
      </trkpt>
      <trkpt lat="45.95722" lon="4.82285">
        <ele>255</ele>
        <time>2018-08-18T09:03:42Z</time>
      </trkpt>
      <trkpt lat="45.95727" lon="4.82291">
        <ele>255</ele>
        <time>2018-08-18T09:03:43Z</time>
      </trkpt>
      <trkpt lat="45.95731" lon="4.82296">
        <ele>255</ele>
        <time>2018-08-18T09:03:44Z</time>
      </trkpt>
      <trkpt lat="45.95737" lon="4.82301">
        <ele>255</ele>
        <time>2018-08-18T09:03:45Z</time>
      </trkpt>
      <trkpt lat="45.95741" lon="4.82307">
        <ele>255</ele>
        <time>2018-08-18T09:03:46Z</time>
      </trkpt>
      <trkpt lat="45.95748" lon="4.82311">
        <ele>255</ele>
        <time>2018-08-18T09:03:47Z</time>
      </trkpt>
      <trkpt lat="45.95752" lon="4.82317">
        <ele>253</ele>
        <time>2018-08-18T09:03:48Z</time>
      </trkpt>
      <trkpt lat="45.95757" lon="4.82319">
        <ele>253</ele>
        <time>2018-08-18T09:03:49Z</time>
      </trkpt>
      <trkpt lat="45.95763" lon="4.82327">
        <ele>253</ele>
        <time>2018-08-18T09:03:50Z</time>
      </trkpt>
      <trkpt lat="45.95767" lon="4.82332">
        <ele>253</ele>
        <time>2018-08-18T09:03:51Z</time>
      </trkpt>
      <trkpt lat="45.95772" lon="4.82338">
        <ele>254</ele>
        <time>2018-08-18T09:03:52Z</time>
      </trkpt>
      <trkpt lat="45.95779" lon="4.82344">
        <ele>253</ele>
        <time>2018-08-18T09:03:53Z</time>
      </trkpt>
      <trkpt lat="45.95785" lon="4.82354">
        <ele>253</ele>
        <time>2018-08-18T09:03:54Z</time>
      </trkpt>
      <trkpt lat="45.95792" lon="4.82358">
        <ele>252</ele>
        <time>2018-08-18T09:03:55Z</time>
      </trkpt>
      <trkpt lat="45.95796" lon="4.82362">
        <ele>252</ele>
        <time>2018-08-18T09:03:56Z</time>
      </trkpt>
      <trkpt lat="45.95804" lon="4.82365">
        <ele>252</ele>
        <time>2018-08-18T09:03:57Z</time>
      </trkpt>
      <trkpt lat="45.9581" lon="4.82368">
        <ele>252</ele>
        <time>2018-08-18T09:03:58Z</time>
      </trkpt>
      <trkpt lat="45.95816" lon="4.8237">
        <ele>252</ele>
        <time>2018-08-18T09:03:59Z</time>
      </trkpt>
      <trkpt lat="45.95824" lon="4.82372">
        <ele>252</ele>
        <time>2018-08-18T09:04:00Z</time>
      </trkpt>
      <trkpt lat="45.95833" lon="4.82372">
        <ele>251</ele>
        <time>2018-08-18T09:04:01Z</time>
      </trkpt>
      <trkpt lat="45.9584" lon="4.82374">
        <ele>246</ele>
        <time>2018-08-18T09:04:02Z</time>
      </trkpt>
      <trkpt lat="45.95849" lon="4.82375">
        <ele>246</ele>
        <time>2018-08-18T09:04:03Z</time>
      </trkpt>
      <trkpt lat="45.95856" lon="4.82378">
        <ele>245</ele>
        <time>2018-08-18T09:04:04Z</time>
      </trkpt>
      <trkpt lat="45.95871" lon="4.82377">
        <ele>245</ele>
        <time>2018-08-18T09:04:05Z</time>
      </trkpt>
      <trkpt lat="45.9588" lon="4.82378">
        <ele>244</ele>
        <time>2018-08-18T09:04:06Z</time>
      </trkpt>
      <trkpt lat="45.95888" lon="4.8238">
        <ele>244</ele>
        <time>2018-08-18T09:04:07Z</time>
      </trkpt>
      <trkpt lat="45.95901" lon="4.82374">
        <ele>243</ele>
        <time>2018-08-18T09:04:08Z</time>
      </trkpt>
      <trkpt lat="45.95911" lon="4.82372">
        <ele>242</ele>
        <time>2018-08-18T09:04:09Z</time>
      </trkpt>
      <trkpt lat="45.95921" lon="4.8237">
        <ele>238</ele>
        <time>2018-08-18T09:04:10Z</time>
      </trkpt>
      <trkpt lat="45.95934" lon="4.82365">
        <ele>238</ele>
        <time>2018-08-18T09:04:11Z</time>
      </trkpt>
      <trkpt lat="45.95944" lon="4.82364">
        <ele>237</ele>
        <time>2018-08-18T09:04:12Z</time>
      </trkpt>
      <trkpt lat="45.95954" lon="4.82364">
        <ele>237</ele>
        <time>2018-08-18T09:04:13Z</time>
      </trkpt>
      <trkpt lat="45.95965" lon="4.82361">
        <ele>237</ele>
        <time>2018-08-18T09:04:14Z</time>
      </trkpt>
      <trkpt lat="45.95974" lon="4.82359">
        <ele>237</ele>
        <time>2018-08-18T09:04:15Z</time>
      </trkpt>
      <trkpt lat="45.95981" lon="4.82361">
        <ele>237</ele>
        <time>2018-08-18T09:04:16Z</time>
      </trkpt>
      <trkpt lat="45.95988" lon="4.82362">
        <ele>237</ele>
        <time>2018-08-18T09:04:17Z</time>
      </trkpt>
      <trkpt lat="45.95997" lon="4.8236">
        <ele>236</ele>
        <time>2018-08-18T09:04:18Z</time>
      </trkpt>
      <trkpt lat="45.96005" lon="4.82359">
        <ele>235</ele>
        <time>2018-08-18T09:04:19Z</time>
      </trkpt>
      <trkpt lat="45.96012" lon="4.82359">
        <ele>235</ele>
        <time>2018-08-18T09:04:20Z</time>
      </trkpt>
      <trkpt lat="45.96017" lon="4.82362">
        <ele>235</ele>
        <time>2018-08-18T09:04:21Z</time>
      </trkpt>
      <trkpt lat="45.96022" lon="4.82366">
        <ele>235</ele>
        <time>2018-08-18T09:04:22Z</time>
      </trkpt>
      <trkpt lat="45.96024" lon="4.82374">
        <ele>235</ele>
        <time>2018-08-18T09:04:23Z</time>
      </trkpt>
      <trkpt lat="45.96025" lon="4.82382">
        <ele>235</ele>
        <time>2018-08-18T09:04:24Z</time>
      </trkpt>
      <trkpt lat="45.96026" lon="4.82389">
        <ele>235</ele>
        <time>2018-08-18T09:04:25Z</time>
      </trkpt>
      <trkpt lat="45.96026" lon="4.82397">
        <ele>235</ele>
        <time>2018-08-18T09:04:26Z</time>
      </trkpt>
      <trkpt lat="45.96024" lon="4.82406">
        <ele>235</ele>
        <time>2018-08-18T09:04:27Z</time>
      </trkpt>
      <trkpt lat="45.96023" lon="4.82412">
        <ele>235</ele>
        <time>2018-08-18T09:04:28Z</time>
      </trkpt>
      <trkpt lat="45.96022" lon="4.8242">
        <ele>235</ele>
        <time>2018-08-18T09:04:29Z</time>
      </trkpt>
      <trkpt lat="45.9602" lon="4.82427">
        <ele>235</ele>
        <time>2018-08-18T09:04:30Z</time>
      </trkpt>
      <trkpt lat="45.96019" lon="4.82434">
        <ele>235</ele>
        <time>2018-08-18T09:04:31Z</time>
      </trkpt>
      <trkpt lat="45.96018" lon="4.8244">
        <ele>235</ele>
        <time>2018-08-18T09:04:32Z</time>
      </trkpt>
      <trkpt lat="45.96017" lon="4.82449">
        <ele>235</ele>
        <time>2018-08-18T09:04:33Z</time>
      </trkpt>
      <trkpt lat="45.96016" lon="4.82456">
        <ele>235</ele>
        <time>2018-08-18T09:04:34Z</time>
      </trkpt>
      <trkpt lat="45.96015" lon="4.82464">
        <ele>235</ele>
        <time>2018-08-18T09:04:35Z</time>
      </trkpt>
      <trkpt lat="45.96013" lon="4.82471">
        <ele>235</ele>
        <time>2018-08-18T09:04:36Z</time>
      </trkpt>
      <trkpt lat="45.96012" lon="4.82477">
        <ele>235</ele>
        <time>2018-08-18T09:04:37Z</time>
      </trkpt>
      <trkpt lat="45.96011" lon="4.82485">
        <ele>235</ele>
        <time>2018-08-18T09:04:38Z</time>
      </trkpt>
      <trkpt lat="45.9601" lon="4.82492">
        <ele>235</ele>
        <time>2018-08-18T09:04:39Z</time>
      </trkpt>
      <trkpt lat="45.96008" lon="4.82499">
        <ele>235</ele>
        <time>2018-08-18T09:04:40Z</time>
      </trkpt>
      <trkpt lat="45.96007" lon="4.82506">
        <ele>235</ele>
        <time>2018-08-18T09:04:41Z</time>
      </trkpt>
      <trkpt lat="45.96009" lon="4.82513">
        <ele>235</ele>
        <time>2018-08-18T09:04:42Z</time>
      </trkpt>
      <trkpt lat="45.96009" lon="4.8252">
        <ele>235</ele>
        <time>2018-08-18T09:04:43Z</time>
      </trkpt>
      <trkpt lat="45.96009" lon="4.82526">
        <ele>235</ele>
        <time>2018-08-18T09:04:44Z</time>
      </trkpt>
      <trkpt lat="45.96008" lon="4.82533">
        <ele>235</ele>
        <time>2018-08-18T09:04:45Z</time>
      </trkpt>
      <trkpt lat="45.9601" lon="4.8254">
        <ele>235</ele>
        <time>2018-08-18T09:04:46Z</time>
      </trkpt>
      <trkpt lat="45.9601" lon="4.82549">
        <ele>235</ele>
        <time>2018-08-18T09:04:47Z</time>
      </trkpt>
      <trkpt lat="45.9601" lon="4.82557">
        <ele>235</ele>
        <time>2018-08-18T09:04:48Z</time>
      </trkpt>
      <trkpt lat="45.96011" lon="4.82569">
        <ele>234</ele>
        <time>2018-08-18T09:04:50Z</time>
      </trkpt>
      <trkpt lat="45.96013" lon="4.82576">
        <ele>234</ele>
        <time>2018-08-18T09:04:51Z</time>
      </trkpt>
      <trkpt lat="45.96017" lon="4.82587">
        <ele>235</ele>
        <time>2018-08-18T09:04:53Z</time>
      </trkpt>
      <trkpt lat="45.96019" lon="4.82593">
        <ele>235</ele>
        <time>2018-08-18T09:04:54Z</time>
      </trkpt>
      <trkpt lat="45.96021" lon="4.82598">
        <ele>235</ele>
        <time>2018-08-18T09:04:55Z</time>
      </trkpt>
      <trkpt lat="45.96022" lon="4.82604">
        <ele>235</ele>
        <time>2018-08-18T09:04:56Z</time>
      </trkpt>
      <trkpt lat="45.96024" lon="4.8261">
        <ele>235</ele>
        <time>2018-08-18T09:04:57Z</time>
      </trkpt>
      <trkpt lat="45.96027" lon="4.82617">
        <ele>235</ele>
        <time>2018-08-18T09:04:58Z</time>
      </trkpt>
      <trkpt lat="45.96031" lon="4.82624">
        <ele>235</ele>
        <time>2018-08-18T09:04:59Z</time>
      </trkpt>
      <trkpt lat="45.96033" lon="4.82631">
        <ele>235</ele>
        <time>2018-08-18T09:05:00Z</time>
      </trkpt>
      <trkpt lat="45.96035" lon="4.82638">
        <ele>235</ele>
        <time>2018-08-18T09:05:01Z</time>
      </trkpt>
      <trkpt lat="45.96037" lon="4.82643">
        <ele>235</ele>
        <time>2018-08-18T09:05:02Z</time>
      </trkpt>
      <trkpt lat="45.96038" lon="4.82649">
        <ele>235</ele>
        <time>2018-08-18T09:05:03Z</time>
      </trkpt>
      <trkpt lat="45.96041" lon="4.82657">
        <ele>235</ele>
        <time>2018-08-18T09:05:04Z</time>
      </trkpt>
      <trkpt lat="45.96045" lon="4.82668">
        <ele>236</ele>
        <time>2018-08-18T09:05:06Z</time>
      </trkpt>
      <trkpt lat="45.96047" lon="4.82674">
        <ele>236</ele>
        <time>2018-08-18T09:05:07Z</time>
      </trkpt>
      <trkpt lat="45.96051" lon="4.82686">
        <ele>236</ele>
        <time>2018-08-18T09:05:09Z</time>
      </trkpt>
      <trkpt lat="45.96053" lon="4.82692">
        <ele>237</ele>
        <time>2018-08-18T09:05:10Z</time>
      </trkpt>
      <trkpt lat="45.96057" lon="4.82703">
        <ele>237</ele>
        <time>2018-08-18T09:05:12Z</time>
      </trkpt>
      <trkpt lat="45.96059" lon="4.82709">
        <ele>237</ele>
        <time>2018-08-18T09:05:13Z</time>
      </trkpt>
      <trkpt lat="45.96064" lon="4.8272">
        <ele>237</ele>
        <time>2018-08-18T09:05:15Z</time>
      </trkpt>
      <trkpt lat="45.96066" lon="4.82726">
        <ele>237</ele>
        <time>2018-08-18T09:05:16Z</time>
      </trkpt>
      <trkpt lat="45.96069" lon="4.82736">
        <ele>237</ele>
        <time>2018-08-18T09:05:18Z</time>
      </trkpt>
      <trkpt lat="45.96071" lon="4.82742">
        <ele>237</ele>
        <time>2018-08-18T09:05:19Z</time>
      </trkpt>
      <trkpt lat="45.96073" lon="4.82749">
        <ele>237</ele>
        <time>2018-08-18T09:05:20Z</time>
      </trkpt>
      <trkpt lat="45.96074" lon="4.82756">
        <ele>238</ele>
        <time>2018-08-18T09:05:21Z</time>
      </trkpt>
      <trkpt lat="45.96075" lon="4.82763">
        <ele>238</ele>
        <time>2018-08-18T09:05:22Z</time>
      </trkpt>
      <trkpt lat="45.96077" lon="4.82769">
        <ele>238</ele>
        <time>2018-08-18T09:05:23Z</time>
      </trkpt>
      <trkpt lat="45.96079" lon="4.82776">
        <ele>238</ele>
        <time>2018-08-18T09:05:24Z</time>
      </trkpt>
      <trkpt lat="45.96081" lon="4.82782">
        <ele>238</ele>
        <time>2018-08-18T09:05:25Z</time>
      </trkpt>
      <trkpt lat="45.96084" lon="4.82789">
        <ele>237</ele>
        <time>2018-08-18T09:05:26Z</time>
      </trkpt>
      <trkpt lat="45.96085" lon="4.82795">
        <ele>237</ele>
        <time>2018-08-18T09:05:27Z</time>
      </trkpt>
      <trkpt lat="45.96088" lon="4.82803">
        <ele>237</ele>
        <time>2018-08-18T09:05:28Z</time>
      </trkpt>
      <trkpt lat="45.96089" lon="4.82811">
        <ele>237</ele>
        <time>2018-08-18T09:05:29Z</time>
      </trkpt>
      <trkpt lat="45.9609" lon="4.82818">
        <ele>237</ele>
        <time>2018-08-18T09:05:30Z</time>
      </trkpt>
      <trkpt lat="45.96092" lon="4.82825">
        <ele>237</ele>
        <time>2018-08-18T09:05:31Z</time>
      </trkpt>
      <trkpt lat="45.96093" lon="4.82831">
        <ele>237</ele>
        <time>2018-08-18T09:05:32Z</time>
      </trkpt>
      <trkpt lat="45.96094" lon="4.82837">
        <ele>237</ele>
        <time>2018-08-18T09:05:33Z</time>
      </trkpt>
      <trkpt lat="45.96095" lon="4.8285">
        <ele>237</ele>
        <time>2018-08-18T09:05:35Z</time>
      </trkpt>
      <trkpt lat="45.96095" lon="4.82857">
        <ele>237</ele>
        <time>2018-08-18T09:05:36Z</time>
      </trkpt>
      <trkpt lat="45.96095" lon="4.82863">
        <ele>237</ele>
        <time>2018-08-18T09:05:37Z</time>
      </trkpt>
      <trkpt lat="45.96091" lon="4.8287">
        <ele>237</ele>
        <time>2018-08-18T09:05:38Z</time>
      </trkpt>
      <trkpt lat="45.96089" lon="4.82883">
        <ele>237</ele>
        <time>2018-08-18T09:05:40Z</time>
      </trkpt>
      <trkpt lat="45.96087" lon="4.82889">
        <ele>237</ele>
        <time>2018-08-18T09:05:41Z</time>
      </trkpt>
      <trkpt lat="45.96086" lon="4.82897">
        <ele>238</ele>
        <time>2018-08-18T09:05:42Z</time>
      </trkpt>
      <trkpt lat="45.96086" lon="4.82904">
        <ele>238</ele>
        <time>2018-08-18T09:05:43Z</time>
      </trkpt>
      <trkpt lat="45.96084" lon="4.82911">
        <ele>238</ele>
        <time>2018-08-18T09:05:44Z</time>
      </trkpt>
      <trkpt lat="45.96082" lon="4.82916">
        <ele>238</ele>
        <time>2018-08-18T09:05:45Z</time>
      </trkpt>
      <trkpt lat="45.9608" lon="4.82924">
        <ele>239</ele>
        <time>2018-08-18T09:05:46Z</time>
      </trkpt>
      <trkpt lat="45.96079" lon="4.82931">
        <ele>240</ele>
        <time>2018-08-18T09:05:47Z</time>
      </trkpt>
      <trkpt lat="45.96079" lon="4.82944">
        <ele>241</ele>
        <time>2018-08-18T09:05:49Z</time>
      </trkpt>
      <trkpt lat="45.96076" lon="4.82951">
        <ele>241</ele>
        <time>2018-08-18T09:05:50Z</time>
      </trkpt>
      <trkpt lat="45.96075" lon="4.82957">
        <ele>241</ele>
        <time>2018-08-18T09:05:51Z</time>
      </trkpt>
      <trkpt lat="45.96074" lon="4.82965">
        <ele>241</ele>
        <time>2018-08-18T09:05:52Z</time>
      </trkpt>
      <trkpt lat="45.96074" lon="4.82974">
        <ele>241</ele>
        <time>2018-08-18T09:05:53Z</time>
      </trkpt>
      <trkpt lat="45.96071" lon="4.8298">
        <ele>241</ele>
        <time>2018-08-18T09:05:54Z</time>
      </trkpt>
      <trkpt lat="45.96072" lon="4.82988">
        <ele>241</ele>
        <time>2018-08-18T09:05:55Z</time>
      </trkpt>
      <trkpt lat="45.96071" lon="4.82995">
        <ele>240</ele>
        <time>2018-08-18T09:05:56Z</time>
      </trkpt>
      <trkpt lat="45.9607" lon="4.83007">
        <ele>241</ele>
        <time>2018-08-18T09:05:58Z</time>
      </trkpt>
      <trkpt lat="45.9607" lon="4.83013">
        <ele>242</ele>
        <time>2018-08-18T09:05:59Z</time>
      </trkpt>
      <trkpt lat="45.96069" lon="4.83025">
        <ele>242</ele>
        <time>2018-08-18T09:06:01Z</time>
      </trkpt>
      <trkpt lat="45.96069" lon="4.83031">
        <ele>242</ele>
        <time>2018-08-18T09:06:02Z</time>
      </trkpt>
      <trkpt lat="45.96068" lon="4.83038">
        <ele>243</ele>
        <time>2018-08-18T09:06:03Z</time>
      </trkpt>
      <trkpt lat="45.96066" lon="4.83048">
        <ele>243</ele>
        <time>2018-08-18T09:06:04Z</time>
      </trkpt>
      <trkpt lat="45.9607" lon="4.83055">
        <ele>243</ele>
        <time>2018-08-18T09:06:05Z</time>
      </trkpt>
      <trkpt lat="45.96073" lon="4.83061">
        <ele>242</ele>
        <time>2018-08-18T09:06:06Z</time>
      </trkpt>
      <trkpt lat="45.96077" lon="4.83068">
        <ele>242</ele>
        <time>2018-08-18T09:06:07Z</time>
      </trkpt>
      <trkpt lat="45.96079" lon="4.83075">
        <ele>241</ele>
        <time>2018-08-18T09:06:08Z</time>
      </trkpt>
      <trkpt lat="45.96081" lon="4.8308">
        <ele>241</ele>
        <time>2018-08-18T09:06:09Z</time>
      </trkpt>
      <trkpt lat="45.96082" lon="4.83087">
        <ele>241</ele>
        <time>2018-08-18T09:06:10Z</time>
      </trkpt>
      <trkpt lat="45.96085" lon="4.83095">
        <ele>240</ele>
        <time>2018-08-18T09:06:11Z</time>
      </trkpt>
      <trkpt lat="45.96085" lon="4.83102">
        <ele>240</ele>
        <time>2018-08-18T09:06:12Z</time>
      </trkpt>
      <trkpt lat="45.96087" lon="4.8311">
        <ele>240</ele>
        <time>2018-08-18T09:06:13Z</time>
      </trkpt>
      <trkpt lat="45.96086" lon="4.83117">
        <ele>240</ele>
        <time>2018-08-18T09:06:14Z</time>
      </trkpt>
      <trkpt lat="45.96086" lon="4.83124">
        <ele>240</ele>
        <time>2018-08-18T09:06:15Z</time>
      </trkpt>
      <trkpt lat="45.96085" lon="4.83132">
        <ele>240</ele>
        <time>2018-08-18T09:06:16Z</time>
      </trkpt>
      <trkpt lat="45.96086" lon="4.8314">
        <ele>240</ele>
        <time>2018-08-18T09:06:17Z</time>
      </trkpt>
      <trkpt lat="45.96086" lon="4.83147">
        <ele>240</ele>
        <time>2018-08-18T09:06:18Z</time>
      </trkpt>
      <trkpt lat="45.96087" lon="4.83154">
        <ele>240</ele>
        <time>2018-08-18T09:06:19Z</time>
      </trkpt>
      <trkpt lat="45.96086" lon="4.83161">
        <ele>240</ele>
        <time>2018-08-18T09:06:20Z</time>
      </trkpt>
      <trkpt lat="45.96087" lon="4.83168">
        <ele>240</ele>
        <time>2018-08-18T09:06:21Z</time>
      </trkpt>
      <trkpt lat="45.96088" lon="4.83175">
        <ele>240</ele>
        <time>2018-08-18T09:06:22Z</time>
      </trkpt>
      <trkpt lat="45.96089" lon="4.83183">
        <ele>240</ele>
        <time>2018-08-18T09:06:23Z</time>
      </trkpt>
      <trkpt lat="45.96089" lon="4.8319">
        <ele>240</ele>
        <time>2018-08-18T09:06:24Z</time>
      </trkpt>
      <trkpt lat="45.96089" lon="4.83198">
        <ele>240</ele>
        <time>2018-08-18T09:06:25Z</time>
      </trkpt>
      <trkpt lat="45.96089" lon="4.83206">
        <ele>240</ele>
        <time>2018-08-18T09:06:26Z</time>
      </trkpt>
      <trkpt lat="45.96089" lon="4.83214">
        <ele>240</ele>
        <time>2018-08-18T09:06:27Z</time>
      </trkpt>
      <trkpt lat="45.9609" lon="4.83221">
        <ele>240</ele>
        <time>2018-08-18T09:06:28Z</time>
      </trkpt>
      <trkpt lat="45.9609" lon="4.83227">
        <ele>240</ele>
        <time>2018-08-18T09:06:29Z</time>
      </trkpt>
      <trkpt lat="45.9609" lon="4.83234">
        <ele>240</ele>
        <time>2018-08-18T09:06:30Z</time>
      </trkpt>
      <trkpt lat="45.96089" lon="4.83245">
        <ele>240</ele>
        <time>2018-08-18T09:06:32Z</time>
      </trkpt>
      <trkpt lat="45.96088" lon="4.83251">
        <ele>240</ele>
        <time>2018-08-18T09:06:33Z</time>
      </trkpt>
      <trkpt lat="45.96089" lon="4.83258">
        <ele>240</ele>
        <time>2018-08-18T09:06:34Z</time>
      </trkpt>
      <trkpt lat="45.9609" lon="4.83267">
        <ele>241</ele>
        <time>2018-08-18T09:06:35Z</time>
      </trkpt>
      <trkpt lat="45.9609" lon="4.83274">
        <ele>241</ele>
        <time>2018-08-18T09:06:36Z</time>
      </trkpt>
      <trkpt lat="45.96091" lon="4.83281">
        <ele>241</ele>
        <time>2018-08-18T09:06:37Z</time>
      </trkpt>
      <trkpt lat="45.96092" lon="4.83289">
        <ele>241</ele>
        <time>2018-08-18T09:06:38Z</time>
      </trkpt>
      <trkpt lat="45.96093" lon="4.83299">
        <ele>241</ele>
        <time>2018-08-18T09:06:39Z</time>
      </trkpt>
      <trkpt lat="45.96094" lon="4.83306">
        <ele>241</ele>
        <time>2018-08-18T09:06:40Z</time>
      </trkpt>
      <trkpt lat="45.96095" lon="4.83314">
        <ele>241</ele>
        <time>2018-08-18T09:06:41Z</time>
      </trkpt>
      <trkpt lat="45.96096" lon="4.83321">
        <ele>241</ele>
        <time>2018-08-18T09:06:42Z</time>
      </trkpt>
      <trkpt lat="45.96096" lon="4.83329">
        <ele>241</ele>
        <time>2018-08-18T09:06:43Z</time>
      </trkpt>
      <trkpt lat="45.96098" lon="4.83335">
        <ele>242</ele>
        <time>2018-08-18T09:06:44Z</time>
      </trkpt>
      <trkpt lat="45.96099" lon="4.83342">
        <ele>242</ele>
        <time>2018-08-18T09:06:45Z</time>
      </trkpt>
      <trkpt lat="45.96101" lon="4.83349">
        <ele>242</ele>
        <time>2018-08-18T09:06:46Z</time>
      </trkpt>
      <trkpt lat="45.961" lon="4.83356">
        <ele>242</ele>
        <time>2018-08-18T09:06:47Z</time>
      </trkpt>
      <trkpt lat="45.96102" lon="4.83363">
        <ele>242</ele>
        <time>2018-08-18T09:06:48Z</time>
      </trkpt>
      <trkpt lat="45.96103" lon="4.83369">
        <ele>242</ele>
        <time>2018-08-18T09:06:49Z</time>
      </trkpt>
      <trkpt lat="45.96105" lon="4.83376">
        <ele>242</ele>
        <time>2018-08-18T09:06:50Z</time>
      </trkpt>
      <trkpt lat="45.96108" lon="4.83383">
        <ele>242</ele>
        <time>2018-08-18T09:06:51Z</time>
      </trkpt>
      <trkpt lat="45.96109" lon="4.83395">
        <ele>243</ele>
        <time>2018-08-18T09:06:53Z</time>
      </trkpt>
      <trkpt lat="45.9611" lon="4.834">
        <ele>243</ele>
        <time>2018-08-18T09:06:54Z</time>
      </trkpt>
      <trkpt lat="45.96112" lon="4.83406">
        <ele>243</ele>
        <time>2018-08-18T09:06:55Z</time>
      </trkpt>
      <trkpt lat="45.96113" lon="4.83413">
        <ele>243</ele>
        <time>2018-08-18T09:06:56Z</time>
      </trkpt>
      <trkpt lat="45.96115" lon="4.83421">
        <ele>243</ele>
        <time>2018-08-18T09:06:58Z</time>
      </trkpt>
      <trkpt lat="45.96116" lon="4.83428">
        <ele>243</ele>
        <time>2018-08-18T09:06:59Z</time>
      </trkpt>
      <trkpt lat="45.96118" lon="4.83434">
        <ele>242</ele>
        <time>2018-08-18T09:07:00Z</time>
      </trkpt>
      <trkpt lat="45.9612" lon="4.83441">
        <ele>242</ele>
        <time>2018-08-18T09:07:01Z</time>
      </trkpt>
      <trkpt lat="45.96124" lon="4.8345">
        <ele>242</ele>
        <time>2018-08-18T09:07:03Z</time>
      </trkpt>
      <trkpt lat="45.96124" lon="4.83452">
        <ele>242</ele>
        <time>2018-08-18T09:07:04Z</time>
      </trkpt>
      <trkpt lat="45.96127" lon="4.83461">
        <ele>242</ele>
        <time>2018-08-18T09:07:05Z</time>
      </trkpt>
      <trkpt lat="45.96127" lon="4.83467">
        <ele>242</ele>
        <time>2018-08-18T09:07:06Z</time>
      </trkpt>
      <trkpt lat="45.96128" lon="4.83478">
        <ele>242</ele>
        <time>2018-08-18T09:07:08Z</time>
      </trkpt>
      <trkpt lat="45.96128" lon="4.83483">
        <ele>242</ele>
        <time>2018-08-18T09:07:09Z</time>
      </trkpt>
      <trkpt lat="45.96129" lon="4.83494">
        <ele>242</ele>
        <time>2018-08-18T09:07:11Z</time>
      </trkpt>
      <trkpt lat="45.96129" lon="4.835">
        <ele>242</ele>
        <time>2018-08-18T09:07:12Z</time>
      </trkpt>
      <trkpt lat="45.96131" lon="4.83512">
        <ele>242</ele>
        <time>2018-08-18T09:07:16Z</time>
      </trkpt>
      <trkpt lat="45.96133" lon="4.83523">
        <ele>242</ele>
        <time>2018-08-18T09:07:17Z</time>
      </trkpt>
      <trkpt lat="45.96135" lon="4.83531">
        <ele>242</ele>
        <time>2018-08-18T09:07:19Z</time>
      </trkpt>
      <trkpt lat="45.96136" lon="4.83538">
        <ele>242</ele>
        <time>2018-08-18T09:07:20Z</time>
      </trkpt>
      <trkpt lat="45.96138" lon="4.83549">
        <ele>242</ele>
        <time>2018-08-18T09:07:22Z</time>
      </trkpt>
      <trkpt lat="45.96139" lon="4.83556">
        <ele>242</ele>
        <time>2018-08-18T09:07:23Z</time>
      </trkpt>
      <trkpt lat="45.96141" lon="4.83566">
        <ele>242</ele>
        <time>2018-08-18T09:07:25Z</time>
      </trkpt>
      <trkpt lat="45.96143" lon="4.83572">
        <ele>241</ele>
        <time>2018-08-18T09:07:26Z</time>
      </trkpt>
      <trkpt lat="45.96144" lon="4.83578">
        <ele>241</ele>
        <time>2018-08-18T09:07:27Z</time>
      </trkpt>
      <trkpt lat="45.96147" lon="4.83584">
        <ele>242</ele>
        <time>2018-08-18T09:07:28Z</time>
      </trkpt>
      <trkpt lat="45.96151" lon="4.83595">
        <ele>242</ele>
        <time>2018-08-18T09:07:30Z</time>
      </trkpt>
      <trkpt lat="45.96152" lon="4.83602">
        <ele>242</ele>
        <time>2018-08-18T09:07:31Z</time>
      </trkpt>
      <trkpt lat="45.96154" lon="4.83608">
        <ele>242</ele>
        <time>2018-08-18T09:07:32Z</time>
      </trkpt>
      <trkpt lat="45.96157" lon="4.83615">
        <ele>242</ele>
        <time>2018-08-18T09:07:33Z</time>
      </trkpt>
      <trkpt lat="45.96158" lon="4.83623">
        <ele>242</ele>
        <time>2018-08-18T09:07:34Z</time>
      </trkpt>
      <trkpt lat="45.9616" lon="4.8363">
        <ele>243</ele>
        <time>2018-08-18T09:07:35Z</time>
      </trkpt>
      <trkpt lat="45.96164" lon="4.83637">
        <ele>243</ele>
        <time>2018-08-18T09:07:36Z</time>
      </trkpt>
      <trkpt lat="45.96165" lon="4.83643">
        <ele>243</ele>
        <time>2018-08-18T09:07:37Z</time>
      </trkpt>
      <trkpt lat="45.9617" lon="4.83653">
        <ele>242</ele>
        <time>2018-08-18T09:07:39Z</time>
      </trkpt>
      <trkpt lat="45.96173" lon="4.83658">
        <ele>242</ele>
        <time>2018-08-18T09:07:40Z</time>
      </trkpt>
      <trkpt lat="45.96181" lon="4.83662">
        <ele>242</ele>
        <time>2018-08-18T09:07:42Z</time>
      </trkpt>
      <trkpt lat="45.96185" lon="4.83666">
        <ele>242</ele>
        <time>2018-08-18T09:07:43Z</time>
      </trkpt>
      <trkpt lat="45.96188" lon="4.83672">
        <ele>243</ele>
        <time>2018-08-18T09:07:44Z</time>
      </trkpt>
      <trkpt lat="45.96192" lon="4.83676">
        <ele>243</ele>
        <time>2018-08-18T09:07:45Z</time>
      </trkpt>
      <trkpt lat="45.96197" lon="4.83682">
        <ele>243</ele>
        <time>2018-08-18T09:07:46Z</time>
      </trkpt>
      <trkpt lat="45.96201" lon="4.83686">
        <ele>243</ele>
        <time>2018-08-18T09:07:47Z</time>
      </trkpt>
      <trkpt lat="45.96205" lon="4.8369">
        <ele>243</ele>
        <time>2018-08-18T09:07:48Z</time>
      </trkpt>
      <trkpt lat="45.96209" lon="4.83694">
        <ele>243</ele>
        <time>2018-08-18T09:07:49Z</time>
      </trkpt>
      <trkpt lat="45.96214" lon="4.83702">
        <ele>244</ele>
        <time>2018-08-18T09:07:51Z</time>
      </trkpt>
      <trkpt lat="45.96218" lon="4.83705">
        <ele>244</ele>
        <time>2018-08-18T09:07:52Z</time>
      </trkpt>
      <trkpt lat="45.96223" lon="4.83711">
        <ele>244</ele>
        <time>2018-08-18T09:07:53Z</time>
      </trkpt>
      <trkpt lat="45.96225" lon="4.83715">
        <ele>244</ele>
        <time>2018-08-18T09:07:54Z</time>
      </trkpt>
      <trkpt lat="45.96229" lon="4.83719">
        <ele>244</ele>
        <time>2018-08-18T09:07:55Z</time>
      </trkpt>
      <trkpt lat="45.96234" lon="4.83723">
        <ele>244</ele>
        <time>2018-08-18T09:07:56Z</time>
      </trkpt>
      <trkpt lat="45.96237" lon="4.83727">
        <ele>244</ele>
        <time>2018-08-18T09:07:57Z</time>
      </trkpt>
      <trkpt lat="45.96243" lon="4.83732">
        <ele>244</ele>
        <time>2018-08-18T09:07:58Z</time>
      </trkpt>
      <trkpt lat="45.9625" lon="4.83739">
        <ele>244</ele>
        <time>2018-08-18T09:08:00Z</time>
      </trkpt>
      <trkpt lat="45.96253" lon="4.83743">
        <ele>245</ele>
        <time>2018-08-18T09:08:01Z</time>
      </trkpt>
      <trkpt lat="45.9626" lon="4.83749">
        <ele>245</ele>
        <time>2018-08-18T09:08:03Z</time>
      </trkpt>
      <trkpt lat="45.96264" lon="4.83754">
        <ele>245</ele>
        <time>2018-08-18T09:08:04Z</time>
      </trkpt>
      <trkpt lat="45.9627" lon="4.83761">
        <ele>245</ele>
        <time>2018-08-18T09:08:06Z</time>
      </trkpt>
      <trkpt lat="45.96274" lon="4.83765">
        <ele>245</ele>
        <time>2018-08-18T09:08:07Z</time>
      </trkpt>
      <trkpt lat="45.9628" lon="4.83772">
        <ele>245</ele>
        <time>2018-08-18T09:08:09Z</time>
      </trkpt>
      <trkpt lat="45.96284" lon="4.83775">
        <ele>245</ele>
        <time>2018-08-18T09:08:10Z</time>
      </trkpt>
      <trkpt lat="45.96291" lon="4.83782">
        <ele>245</ele>
        <time>2018-08-18T09:08:12Z</time>
      </trkpt>
      <trkpt lat="45.96295" lon="4.83785">
        <ele>245</ele>
        <time>2018-08-18T09:08:13Z</time>
      </trkpt>
      <trkpt lat="45.96302" lon="4.83793">
        <ele>245</ele>
        <time>2018-08-18T09:08:15Z</time>
      </trkpt>
      <trkpt lat="45.96306" lon="4.83796">
        <ele>245</ele>
        <time>2018-08-18T09:08:16Z</time>
      </trkpt>
      <trkpt lat="45.96311" lon="4.83799">
        <ele>245</ele>
        <time>2018-08-18T09:08:17Z</time>
      </trkpt>
      <trkpt lat="45.96315" lon="4.83803">
        <ele>245</ele>
        <time>2018-08-18T09:08:18Z</time>
      </trkpt>
      <trkpt lat="45.96319" lon="4.83806">
        <ele>245</ele>
        <time>2018-08-18T09:08:19Z</time>
      </trkpt>
      <trkpt lat="45.96323" lon="4.83808">
        <ele>245</ele>
        <time>2018-08-18T09:08:20Z</time>
      </trkpt>
      <trkpt lat="45.9633" lon="4.83814">
        <ele>244</ele>
        <time>2018-08-18T09:08:22Z</time>
      </trkpt>
      <trkpt lat="45.96333" lon="4.83818">
        <ele>244</ele>
        <time>2018-08-18T09:08:23Z</time>
      </trkpt>
      <trkpt lat="45.9634" lon="4.83824">
        <ele>245</ele>
        <time>2018-08-18T09:08:25Z</time>
      </trkpt>
      <trkpt lat="45.96343" lon="4.83828">
        <ele>245</ele>
        <time>2018-08-18T09:08:26Z</time>
      </trkpt>
      <trkpt lat="45.96349" lon="4.83836">
        <ele>245</ele>
        <time>2018-08-18T09:08:28Z</time>
      </trkpt>
      <trkpt lat="45.96351" lon="4.8384">
        <ele>245</ele>
        <time>2018-08-18T09:08:29Z</time>
      </trkpt>
      <trkpt lat="45.96355" lon="4.83848">
        <ele>246</ele>
        <time>2018-08-18T09:08:31Z</time>
      </trkpt>
      <trkpt lat="45.96357" lon="4.83852">
        <ele>246</ele>
        <time>2018-08-18T09:08:32Z</time>
      </trkpt>
      <trkpt lat="45.96362" lon="4.8386">
        <ele>247</ele>
        <time>2018-08-18T09:08:34Z</time>
      </trkpt>
      <trkpt lat="45.96364" lon="4.83863">
        <ele>247</ele>
        <time>2018-08-18T09:08:35Z</time>
      </trkpt>
      <trkpt lat="45.9637" lon="4.83873">
        <ele>247</ele>
        <time>2018-08-18T09:08:38Z</time>
      </trkpt>
      <trkpt lat="45.96371" lon="4.83876">
        <ele>247</ele>
        <time>2018-08-18T09:08:39Z</time>
      </trkpt>
      <trkpt lat="45.96375" lon="4.83886">
        <ele>248</ele>
        <time>2018-08-18T09:08:42Z</time>
      </trkpt>
      <trkpt lat="45.96376" lon="4.83889">
        <ele>248</ele>
        <time>2018-08-18T09:08:43Z</time>
      </trkpt>
      <trkpt lat="45.96379" lon="4.83901">
        <ele>248</ele>
        <time>2018-08-18T09:08:47Z</time>
      </trkpt>
      <trkpt lat="45.9638" lon="4.83904">
        <ele>248</ele>
        <time>2018-08-18T09:08:48Z</time>
      </trkpt>
      <trkpt lat="45.96384" lon="4.83914">
        <ele>248</ele>
        <time>2018-08-18T09:08:51Z</time>
      </trkpt>
      <trkpt lat="45.96386" lon="4.83918">
        <ele>251</ele>
        <time>2018-08-18T09:08:52Z</time>
      </trkpt>
      <trkpt lat="45.96389" lon="4.83929">
        <ele>251</ele>
        <time>2018-08-18T09:08:55Z</time>
      </trkpt>
      <trkpt lat="45.96391" lon="4.83934">
        <ele>251</ele>
        <time>2018-08-18T09:08:56Z</time>
      </trkpt>
      <trkpt lat="45.96394" lon="4.83942">
        <ele>252</ele>
        <time>2018-08-18T09:08:58Z</time>
      </trkpt>
      <trkpt lat="45.96396" lon="4.83946">
        <ele>252</ele>
        <time>2018-08-18T09:08:59Z</time>
      </trkpt>
      <trkpt lat="45.964" lon="4.83953">
        <ele>252</ele>
        <time>2018-08-18T09:09:01Z</time>
      </trkpt>
      <trkpt lat="45.96402" lon="4.83957">
        <ele>252</ele>
        <time>2018-08-18T09:09:02Z</time>
      </trkpt>
      <trkpt lat="45.96407" lon="4.83964">
        <ele>252</ele>
        <time>2018-08-18T09:09:04Z</time>
      </trkpt>
      <trkpt lat="45.96409" lon="4.83968">
        <ele>253</ele>
        <time>2018-08-18T09:09:05Z</time>
      </trkpt>
      <trkpt lat="45.96413" lon="4.83976">
        <ele>253</ele>
        <time>2018-08-18T09:09:07Z</time>
      </trkpt>
      <trkpt lat="45.96414" lon="4.83979">
        <ele>253</ele>
        <time>2018-08-18T09:09:08Z</time>
      </trkpt>
      <trkpt lat="45.96417" lon="4.83987">
        <ele>251</ele>
        <time>2018-08-18T09:09:10Z</time>
      </trkpt>
      <trkpt lat="45.96418" lon="4.83991">
        <ele>252</ele>
        <time>2018-08-18T09:09:11Z</time>
      </trkpt>
      <trkpt lat="45.96422" lon="4.84001">
        <ele>252</ele>
        <time>2018-08-18T09:09:14Z</time>
      </trkpt>
      <trkpt lat="45.96424" lon="4.84005">
        <ele>252</ele>
        <time>2018-08-18T09:09:15Z</time>
      </trkpt>
      <trkpt lat="45.96428" lon="4.84014">
        <ele>252</ele>
        <time>2018-08-18T09:09:18Z</time>
      </trkpt>
      <trkpt lat="45.9643" lon="4.84016">
        <ele>252</ele>
        <time>2018-08-18T09:09:19Z</time>
      </trkpt>
      <trkpt lat="45.96433" lon="4.84023">
        <ele>251</ele>
        <time>2018-08-18T09:09:21Z</time>
      </trkpt>
      <trkpt lat="45.96434" lon="4.84028">
        <ele>251</ele>
        <time>2018-08-18T09:09:22Z</time>
      </trkpt>
      <trkpt lat="45.96437" lon="4.84038">
        <ele>251</ele>
        <time>2018-08-18T09:09:24Z</time>
      </trkpt>
      <trkpt lat="45.96438" lon="4.84043">
        <ele>251</ele>
        <time>2018-08-18T09:09:25Z</time>
      </trkpt>
      <trkpt lat="45.96441" lon="4.84051">
        <ele>251</ele>
        <time>2018-08-18T09:09:27Z</time>
      </trkpt>
      <trkpt lat="45.96443" lon="4.84055">
        <ele>251</ele>
        <time>2018-08-18T09:09:28Z</time>
      </trkpt>
      <trkpt lat="45.96448" lon="4.84065">
        <ele>251</ele>
        <time>2018-08-18T09:09:31Z</time>
      </trkpt>
      <trkpt lat="45.9645" lon="4.8407">
        <ele>251</ele>
        <time>2018-08-18T09:09:32Z</time>
      </trkpt>
      <trkpt lat="45.96454" lon="4.84077">
        <ele>251</ele>
        <time>2018-08-18T09:09:34Z</time>
      </trkpt>
      <trkpt lat="45.96456" lon="4.84081">
        <ele>251</ele>
        <time>2018-08-18T09:09:35Z</time>
      </trkpt>
      <trkpt lat="45.96459" lon="4.84088">
        <ele>252</ele>
        <time>2018-08-18T09:09:37Z</time>
      </trkpt>
      <trkpt lat="45.96461" lon="4.84092">
        <ele>252</ele>
        <time>2018-08-18T09:09:38Z</time>
      </trkpt>
      <trkpt lat="45.96464" lon="4.84099">
        <ele>251</ele>
        <time>2018-08-18T09:09:40Z</time>
      </trkpt>
      <trkpt lat="45.96466" lon="4.84103">
        <ele>251</ele>
        <time>2018-08-18T09:09:41Z</time>
      </trkpt>
      <trkpt lat="45.96469" lon="4.84111">
        <ele>251</ele>
        <time>2018-08-18T09:09:43Z</time>
      </trkpt>
      <trkpt lat="45.96473" lon="4.84123">
        <ele>251</ele>
        <time>2018-08-18T09:09:44Z</time>
      </trkpt>
      <trkpt lat="45.96477" lon="4.84132">
        <ele>251</ele>
        <time>2018-08-18T09:09:46Z</time>
      </trkpt>
      <trkpt lat="45.96478" lon="4.84137">
        <ele>251</ele>
        <time>2018-08-18T09:09:47Z</time>
      </trkpt>
      <trkpt lat="45.9648" lon="4.84142">
        <ele>251</ele>
        <time>2018-08-18T09:09:49Z</time>
      </trkpt>
      <trkpt lat="45.96482" lon="4.84151">
        <ele>251</ele>
        <time>2018-08-18T09:09:50Z</time>
      </trkpt>
      <trkpt lat="45.96484" lon="4.84161">
        <ele>250</ele>
        <time>2018-08-18T09:09:52Z</time>
      </trkpt>
      <trkpt lat="45.96485" lon="4.84166">
        <ele>250</ele>
        <time>2018-08-18T09:09:53Z</time>
      </trkpt>
      <trkpt lat="45.96488" lon="4.84177">
        <ele>251</ele>
        <time>2018-08-18T09:09:55Z</time>
      </trkpt>
      <trkpt lat="45.96489" lon="4.84183">
        <ele>251</ele>
        <time>2018-08-18T09:09:56Z</time>
      </trkpt>
      <trkpt lat="45.96491" lon="4.84195">
        <ele>251</ele>
        <time>2018-08-18T09:09:58Z</time>
      </trkpt>
      <trkpt lat="45.96493" lon="4.842">
        <ele>251</ele>
        <time>2018-08-18T09:09:59Z</time>
      </trkpt>
      <trkpt lat="45.96495" lon="4.84206">
        <ele>251</ele>
        <time>2018-08-18T09:10:00Z</time>
      </trkpt>
      <trkpt lat="45.96496" lon="4.84213">
        <ele>251</ele>
        <time>2018-08-18T09:10:01Z</time>
      </trkpt>
      <trkpt lat="45.96497" lon="4.84221">
        <ele>252</ele>
        <time>2018-08-18T09:10:02Z</time>
      </trkpt>
      <trkpt lat="45.96499" lon="4.84228">
        <ele>252</ele>
        <time>2018-08-18T09:10:03Z</time>
      </trkpt>
      <trkpt lat="45.965" lon="4.84237">
        <ele>250</ele>
        <time>2018-08-18T09:10:04Z</time>
      </trkpt>
      <trkpt lat="45.96502" lon="4.84246">
        <ele>251</ele>
        <time>2018-08-18T09:10:05Z</time>
      </trkpt>
      <trkpt lat="45.96504" lon="4.84254">
        <ele>251</ele>
        <time>2018-08-18T09:10:06Z</time>
      </trkpt>
      <trkpt lat="45.96506" lon="4.84261">
        <ele>251</ele>
        <time>2018-08-18T09:10:07Z</time>
      </trkpt>
      <trkpt lat="45.96508" lon="4.84268">
        <ele>250</ele>
        <time>2018-08-18T09:10:08Z</time>
      </trkpt>
      <trkpt lat="45.96511" lon="4.84276">
        <ele>250</ele>
        <time>2018-08-18T09:10:09Z</time>
      </trkpt>
      <trkpt lat="45.96512" lon="4.84283">
        <ele>250</ele>
        <time>2018-08-18T09:10:10Z</time>
      </trkpt>
      <trkpt lat="45.96513" lon="4.8429">
        <ele>250</ele>
        <time>2018-08-18T09:10:11Z</time>
      </trkpt>
      <trkpt lat="45.96514" lon="4.84297">
        <ele>250</ele>
        <time>2018-08-18T09:10:12Z</time>
      </trkpt>
      <trkpt lat="45.96515" lon="4.84305">
        <ele>250</ele>
        <time>2018-08-18T09:10:13Z</time>
      </trkpt>
      <trkpt lat="45.9652" lon="4.84314">
        <ele>250</ele>
        <time>2018-08-18T09:10:14Z</time>
      </trkpt>
      <trkpt lat="45.96523" lon="4.84322">
        <ele>250</ele>
        <time>2018-08-18T09:10:15Z</time>
      </trkpt>
      <trkpt lat="45.96523" lon="4.8433">
        <ele>250</ele>
        <time>2018-08-18T09:10:16Z</time>
      </trkpt>
      <trkpt lat="45.96526" lon="4.84338">
        <ele>251</ele>
        <time>2018-08-18T09:10:17Z</time>
      </trkpt>
      <trkpt lat="45.96527" lon="4.8435">
        <ele>251</ele>
        <time>2018-08-18T09:10:19Z</time>
      </trkpt>
      <trkpt lat="45.96529" lon="4.84357">
        <ele>251</ele>
        <time>2018-08-18T09:10:20Z</time>
      </trkpt>
      <trkpt lat="45.96531" lon="4.84366">
        <ele>251</ele>
        <time>2018-08-18T09:10:21Z</time>
      </trkpt>
      <trkpt lat="45.96532" lon="4.84374">
        <ele>251</ele>
        <time>2018-08-18T09:10:22Z</time>
      </trkpt>
      <trkpt lat="45.96532" lon="4.84381">
        <ele>251</ele>
        <time>2018-08-18T09:10:23Z</time>
      </trkpt>
      <trkpt lat="45.96532" lon="4.84388">
        <ele>252</ele>
        <time>2018-08-18T09:10:24Z</time>
      </trkpt>
      <trkpt lat="45.96532" lon="4.84393">
        <ele>252</ele>
        <time>2018-08-18T09:10:25Z</time>
      </trkpt>
      <trkpt lat="45.96533" lon="4.84401">
        <ele>252</ele>
        <time>2018-08-18T09:10:26Z</time>
      </trkpt>
      <trkpt lat="45.96533" lon="4.84408">
        <ele>252</ele>
        <time>2018-08-18T09:10:27Z</time>
      </trkpt>
      <trkpt lat="45.96532" lon="4.84416">
        <ele>252</ele>
        <time>2018-08-18T09:10:28Z</time>
      </trkpt>
      <trkpt lat="45.96532" lon="4.84423">
        <ele>253</ele>
        <time>2018-08-18T09:10:29Z</time>
      </trkpt>
      <trkpt lat="45.96531" lon="4.84431">
        <ele>253</ele>
        <time>2018-08-18T09:10:30Z</time>
      </trkpt>
      <trkpt lat="45.96531" lon="4.84439">
        <ele>253</ele>
        <time>2018-08-18T09:10:31Z</time>
      </trkpt>
      <trkpt lat="45.9653" lon="4.84447">
        <ele>253</ele>
        <time>2018-08-18T09:10:32Z</time>
      </trkpt>
      <trkpt lat="45.9653" lon="4.84455">
        <ele>253</ele>
        <time>2018-08-18T09:10:33Z</time>
      </trkpt>
      <trkpt lat="45.96529" lon="4.84463">
        <ele>253</ele>
        <time>2018-08-18T09:10:34Z</time>
      </trkpt>
      <trkpt lat="45.96529" lon="4.8447">
        <ele>253</ele>
        <time>2018-08-18T09:10:35Z</time>
      </trkpt>
      <trkpt lat="45.96529" lon="4.84476">
        <ele>253</ele>
        <time>2018-08-18T09:10:36Z</time>
      </trkpt>
      <trkpt lat="45.96528" lon="4.84489">
        <ele>253</ele>
        <time>2018-08-18T09:10:38Z</time>
      </trkpt>
      <trkpt lat="45.96527" lon="4.84494">
        <ele>253</ele>
        <time>2018-08-18T09:10:39Z</time>
      </trkpt>
      <trkpt lat="45.96527" lon="4.84507">
        <ele>253</ele>
        <time>2018-08-18T09:10:41Z</time>
      </trkpt>
      <trkpt lat="45.96528" lon="4.84511">
        <ele>253</ele>
        <time>2018-08-18T09:10:42Z</time>
      </trkpt>
      <trkpt lat="45.96528" lon="4.84519">
        <ele>253</ele>
        <time>2018-08-18T09:10:43Z</time>
      </trkpt>
      <trkpt lat="45.96527" lon="4.84525">
        <ele>253</ele>
        <time>2018-08-18T09:10:44Z</time>
      </trkpt>
      <trkpt lat="45.96526" lon="4.84532">
        <ele>253</ele>
        <time>2018-08-18T09:10:45Z</time>
      </trkpt>
      <trkpt lat="45.96527" lon="4.84539">
        <ele>253</ele>
        <time>2018-08-18T09:10:46Z</time>
      </trkpt>
      <trkpt lat="45.96525" lon="4.84547">
        <ele>253</ele>
        <time>2018-08-18T09:10:47Z</time>
      </trkpt>
      <trkpt lat="45.96524" lon="4.84555">
        <ele>253</ele>
        <time>2018-08-18T09:10:48Z</time>
      </trkpt>
      <trkpt lat="45.96524" lon="4.84562">
        <ele>253</ele>
        <time>2018-08-18T09:10:49Z</time>
      </trkpt>
      <trkpt lat="45.96523" lon="4.8457">
        <ele>253</ele>
        <time>2018-08-18T09:10:50Z</time>
      </trkpt>
      <trkpt lat="45.96523" lon="4.84578">
        <ele>253</ele>
        <time>2018-08-18T09:10:51Z</time>
      </trkpt>
      <trkpt lat="45.96522" lon="4.84586">
        <ele>252</ele>
        <time>2018-08-18T09:10:52Z</time>
      </trkpt>
      <trkpt lat="45.96524" lon="4.84595">
        <ele>252</ele>
        <time>2018-08-18T09:10:53Z</time>
      </trkpt>
      <trkpt lat="45.96523" lon="4.84602">
        <ele>252</ele>
        <time>2018-08-18T09:10:54Z</time>
      </trkpt>
      <trkpt lat="45.96522" lon="4.84608">
        <ele>252</ele>
        <time>2018-08-18T09:10:55Z</time>
      </trkpt>
      <trkpt lat="45.96523" lon="4.84615">
        <ele>252</ele>
        <time>2018-08-18T09:10:56Z</time>
      </trkpt>
      <trkpt lat="45.96521" lon="4.84626">
        <ele>252</ele>
        <time>2018-08-18T09:10:58Z</time>
      </trkpt>
      <trkpt lat="45.96522" lon="4.84633">
        <ele>252</ele>
        <time>2018-08-18T09:10:59Z</time>
      </trkpt>
      <trkpt lat="45.96523" lon="4.84645">
        <ele>252</ele>
        <time>2018-08-18T09:11:01Z</time>
      </trkpt>
      <trkpt lat="45.96523" lon="4.84651">
        <ele>252</ele>
        <time>2018-08-18T09:11:02Z</time>
      </trkpt>
      <trkpt lat="45.96524" lon="4.84658">
        <ele>252</ele>
        <time>2018-08-18T09:11:03Z</time>
      </trkpt>
      <trkpt lat="45.96525" lon="4.84664">
        <ele>252</ele>
        <time>2018-08-18T09:11:04Z</time>
      </trkpt>
      <trkpt lat="45.96526" lon="4.84673">
        <ele>252</ele>
        <time>2018-08-18T09:11:06Z</time>
      </trkpt>
      <trkpt lat="45.96528" lon="4.8468">
        <ele>252</ele>
        <time>2018-08-18T09:11:07Z</time>
      </trkpt>
      <trkpt lat="45.96531" lon="4.84692">
        <ele>253</ele>
        <time>2018-08-18T09:11:09Z</time>
      </trkpt>
      <trkpt lat="45.96532" lon="4.84696">
        <ele>253</ele>
        <time>2018-08-18T09:11:10Z</time>
      </trkpt>
      <trkpt lat="45.96532" lon="4.84702">
        <ele>253</ele>
        <time>2018-08-18T09:11:11Z</time>
      </trkpt>
      <trkpt lat="45.96532" lon="4.84709">
        <ele>253</ele>
        <time>2018-08-18T09:11:12Z</time>
      </trkpt>
      <trkpt lat="45.96532" lon="4.84721">
        <ele>253</ele>
        <time>2018-08-18T09:11:14Z</time>
      </trkpt>
      <trkpt lat="45.96531" lon="4.84727">
        <ele>253</ele>
        <time>2018-08-18T09:11:15Z</time>
      </trkpt>
      <trkpt lat="45.96529" lon="4.8474">
        <ele>253</ele>
        <time>2018-08-18T09:11:17Z</time>
      </trkpt>
      <trkpt lat="45.96527" lon="4.84746">
        <ele>253</ele>
        <time>2018-08-18T09:11:18Z</time>
      </trkpt>
      <trkpt lat="45.96525" lon="4.84757">
        <ele>253</ele>
        <time>2018-08-18T09:11:20Z</time>
      </trkpt>
      <trkpt lat="45.96524" lon="4.84762">
        <ele>253</ele>
        <time>2018-08-18T09:11:21Z</time>
      </trkpt>
      <trkpt lat="45.96521" lon="4.84773">
        <ele>254</ele>
        <time>2018-08-18T09:11:23Z</time>
      </trkpt>
      <trkpt lat="45.9652" lon="4.84778">
        <ele>254</ele>
        <time>2018-08-18T09:11:24Z</time>
      </trkpt>
      <trkpt lat="45.96517" lon="4.84788">
        <ele>254</ele>
        <time>2018-08-18T09:11:26Z</time>
      </trkpt>
      <trkpt lat="45.96516" lon="4.84793">
        <ele>254</ele>
        <time>2018-08-18T09:11:27Z</time>
      </trkpt>
      <trkpt lat="45.96513" lon="4.84803">
        <ele>254</ele>
        <time>2018-08-18T09:11:29Z</time>
      </trkpt>
      <trkpt lat="45.96512" lon="4.84808">
        <ele>254</ele>
        <time>2018-08-18T09:11:30Z</time>
      </trkpt>
      <trkpt lat="45.9651" lon="4.84817">
        <ele>254</ele>
        <time>2018-08-18T09:11:33Z</time>
      </trkpt>
      <trkpt lat="45.96509" lon="4.84821">
        <ele>254</ele>
        <time>2018-08-18T09:11:34Z</time>
      </trkpt>
      <trkpt lat="45.96507" lon="4.84833">
        <ele>253</ele>
        <time>2018-08-18T09:11:37Z</time>
      </trkpt>
      <trkpt lat="45.96506" lon="4.84837">
        <ele>254</ele>
        <time>2018-08-18T09:11:38Z</time>
      </trkpt>
      <trkpt lat="45.96505" lon="4.84846">
        <ele>255</ele>
        <time>2018-08-18T09:11:40Z</time>
      </trkpt>
      <trkpt lat="45.96504" lon="4.8485">
        <ele>256</ele>
        <time>2018-08-18T09:11:41Z</time>
      </trkpt>
      <trkpt lat="45.96503" lon="4.8486">
        <ele>257</ele>
        <time>2018-08-18T09:11:43Z</time>
      </trkpt>
      <trkpt lat="45.96502" lon="4.84864">
        <ele>257</ele>
        <time>2018-08-18T09:11:44Z</time>
      </trkpt>
      <trkpt lat="45.96501" lon="4.84873">
        <ele>257</ele>
        <time>2018-08-18T09:11:46Z</time>
      </trkpt>
      <trkpt lat="45.965" lon="4.84877">
        <ele>255</ele>
        <time>2018-08-18T09:11:47Z</time>
      </trkpt>
      <trkpt lat="45.96498" lon="4.84886">
        <ele>255</ele>
        <time>2018-08-18T09:11:49Z</time>
      </trkpt>
      <trkpt lat="45.96498" lon="4.84891">
        <ele>256</ele>
        <time>2018-08-18T09:11:50Z</time>
      </trkpt>
      <trkpt lat="45.96496" lon="4.84903">
        <ele>256</ele>
        <time>2018-08-18T09:11:53Z</time>
      </trkpt>
      <trkpt lat="45.96495" lon="4.84907">
        <ele>256</ele>
        <time>2018-08-18T09:11:54Z</time>
      </trkpt>
      <trkpt lat="45.96494" lon="4.84915">
        <ele>257</ele>
        <time>2018-08-18T09:11:56Z</time>
      </trkpt>
      <trkpt lat="45.96493" lon="4.8492">
        <ele>258</ele>
        <time>2018-08-18T09:11:57Z</time>
      </trkpt>
      <trkpt lat="45.96491" lon="4.84928">
        <ele>259</ele>
        <time>2018-08-18T09:11:59Z</time>
      </trkpt>
      <trkpt lat="45.9649" lon="4.84932">
        <ele>259</ele>
        <time>2018-08-18T09:12:00Z</time>
      </trkpt>
      <trkpt lat="45.96487" lon="4.84942">
        <ele>260</ele>
        <time>2018-08-18T09:12:03Z</time>
      </trkpt>
      <trkpt lat="45.96486" lon="4.84945">
        <ele>260</ele>
        <time>2018-08-18T09:12:04Z</time>
      </trkpt>
      <trkpt lat="45.96482" lon="4.84955">
        <ele>261</ele>
        <time>2018-08-18T09:12:07Z</time>
      </trkpt>
      <trkpt lat="45.96481" lon="4.84958">
        <ele>261</ele>
        <time>2018-08-18T09:12:08Z</time>
      </trkpt>
      <trkpt lat="45.96478" lon="4.84969">
        <ele>262</ele>
        <time>2018-08-18T09:12:10Z</time>
      </trkpt>
      <trkpt lat="45.96478" lon="4.84973">
        <ele>262</ele>
        <time>2018-08-18T09:12:11Z</time>
      </trkpt>
      <trkpt lat="45.96476" lon="4.84984">
        <ele>262</ele>
        <time>2018-08-18T09:12:14Z</time>
      </trkpt>
      <trkpt lat="45.96475" lon="4.84988">
        <ele>262</ele>
        <time>2018-08-18T09:12:15Z</time>
      </trkpt>
      <trkpt lat="45.96473" lon="4.84999">
        <ele>263</ele>
        <time>2018-08-18T09:12:18Z</time>
      </trkpt>
      <trkpt lat="45.96472" lon="4.85002">
        <ele>266</ele>
        <time>2018-08-18T09:12:19Z</time>
      </trkpt>
      <trkpt lat="45.9647" lon="4.85013">
        <ele>266</ele>
        <time>2018-08-18T09:12:22Z</time>
      </trkpt>
      <trkpt lat="45.9647" lon="4.85017">
        <ele>266</ele>
        <time>2018-08-18T09:12:23Z</time>
      </trkpt>
      <trkpt lat="45.96469" lon="4.85026">
        <ele>266</ele>
        <time>2018-08-18T09:12:25Z</time>
      </trkpt>
      <trkpt lat="45.96469" lon="4.8503">
        <ele>266</ele>
        <time>2018-08-18T09:12:26Z</time>
      </trkpt>
      <trkpt lat="45.96469" lon="4.85043">
        <ele>266</ele>
        <time>2018-08-18T09:12:29Z</time>
      </trkpt>
      <trkpt lat="45.96469" lon="4.85046">
        <ele>266</ele>
        <time>2018-08-18T09:12:30Z</time>
      </trkpt>
      <trkpt lat="45.96469" lon="4.85058">
        <ele>266</ele>
        <time>2018-08-18T09:12:33Z</time>
      </trkpt>
      <trkpt lat="45.96469" lon="4.85061">
        <ele>266</ele>
        <time>2018-08-18T09:12:34Z</time>
      </trkpt>
      <trkpt lat="45.96469" lon="4.85073">
        <ele>267</ele>
        <time>2018-08-18T09:12:37Z</time>
      </trkpt>
      <trkpt lat="45.96469" lon="4.85076">
        <ele>267</ele>
        <time>2018-08-18T09:12:38Z</time>
      </trkpt>
      <trkpt lat="45.96468" lon="4.85086">
        <ele>268</ele>
        <time>2018-08-18T09:12:40Z</time>
      </trkpt>
      <trkpt lat="45.96468" lon="4.8509">
        <ele>268</ele>
        <time>2018-08-18T09:12:41Z</time>
      </trkpt>
      <trkpt lat="45.96467" lon="4.85099">
        <ele>268</ele>
        <time>2018-08-18T09:12:43Z</time>
      </trkpt>
      <trkpt lat="45.96467" lon="4.85103">
        <ele>268</ele>
        <time>2018-08-18T09:12:44Z</time>
      </trkpt>
      <trkpt lat="45.96465" lon="4.85115">
        <ele>268</ele>
        <time>2018-08-18T09:12:47Z</time>
      </trkpt>
      <trkpt lat="45.96464" lon="4.85119">
        <ele>268</ele>
        <time>2018-08-18T09:12:48Z</time>
      </trkpt>
      <trkpt lat="45.96461" lon="4.8513">
        <ele>268</ele>
        <time>2018-08-18T09:12:51Z</time>
      </trkpt>
      <trkpt lat="45.9646" lon="4.85134">
        <ele>268</ele>
        <time>2018-08-18T09:12:52Z</time>
      </trkpt>
      <trkpt lat="45.96457" lon="4.85146">
        <ele>268</ele>
        <time>2018-08-18T09:12:55Z</time>
      </trkpt>
      <trkpt lat="45.96457" lon="4.85148">
        <ele>268</ele>
        <time>2018-08-18T09:12:56Z</time>
      </trkpt>
      <trkpt lat="45.96455" lon="4.85159">
        <ele>268</ele>
        <time>2018-08-18T09:12:59Z</time>
      </trkpt>
      <trkpt lat="45.96455" lon="4.85164">
        <ele>268</ele>
        <time>2018-08-18T09:13:00Z</time>
      </trkpt>
      <trkpt lat="45.96454" lon="4.85172">
        <ele>269</ele>
        <time>2018-08-18T09:13:01Z</time>
      </trkpt>
      <trkpt lat="45.96453" lon="4.85178">
        <ele>269</ele>
        <time>2018-08-18T09:13:02Z</time>
      </trkpt>
      <trkpt lat="45.96452" lon="4.85187">
        <ele>269</ele>
        <time>2018-08-18T09:13:04Z</time>
      </trkpt>
      <trkpt lat="45.96452" lon="4.85192">
        <ele>269</ele>
        <time>2018-08-18T09:13:05Z</time>
      </trkpt>
      <trkpt lat="45.96451" lon="4.85197">
        <ele>269</ele>
        <time>2018-08-18T09:13:06Z</time>
      </trkpt>
      <trkpt lat="45.96451" lon="4.8521">
        <ele>269</ele>
        <time>2018-08-18T09:13:07Z</time>
      </trkpt>
      <trkpt lat="45.9645" lon="4.85221">
        <ele>269</ele>
        <time>2018-08-18T09:13:09Z</time>
      </trkpt>
      <trkpt lat="45.9645" lon="4.85226">
        <ele>269</ele>
        <time>2018-08-18T09:13:10Z</time>
      </trkpt>
      <trkpt lat="45.9645" lon="4.85238">
        <ele>269</ele>
        <time>2018-08-18T09:13:14Z</time>
      </trkpt>
      <trkpt lat="45.9645" lon="4.85242">
        <ele>269</ele>
        <time>2018-08-18T09:13:15Z</time>
      </trkpt>
      <trkpt lat="45.96449" lon="4.85254">
        <ele>270</ele>
        <time>2018-08-18T09:13:16Z</time>
      </trkpt>
      <trkpt lat="45.96449" lon="4.85257">
        <ele>270</ele>
        <time>2018-08-18T09:13:17Z</time>
      </trkpt>
      <trkpt lat="45.9645" lon="4.85269">
        <ele>270</ele>
        <time>2018-08-18T09:13:19Z</time>
      </trkpt>
      <trkpt lat="45.9645" lon="4.85275">
        <ele>270</ele>
        <time>2018-08-18T09:13:20Z</time>
      </trkpt>
      <trkpt lat="45.9645" lon="4.85287">
        <ele>270</ele>
        <time>2018-08-18T09:13:22Z</time>
      </trkpt>
      <trkpt lat="45.9645" lon="4.85293">
        <ele>270</ele>
        <time>2018-08-18T09:13:23Z</time>
      </trkpt>
      <trkpt lat="45.96451" lon="4.85304">
        <ele>271</ele>
        <time>2018-08-18T09:13:26Z</time>
      </trkpt>
      <trkpt lat="45.96451" lon="4.85308">
        <ele>271</ele>
        <time>2018-08-18T09:13:27Z</time>
      </trkpt>
      <trkpt lat="45.96452" lon="4.85312">
        <ele>271</ele>
        <time>2018-08-18T09:13:28Z</time>
      </trkpt>
      <trkpt lat="45.96453" lon="4.85323">
        <ele>271</ele>
        <time>2018-08-18T09:13:29Z</time>
      </trkpt>
      <trkpt lat="45.96453" lon="4.85334">
        <ele>272</ele>
        <time>2018-08-18T09:13:31Z</time>
      </trkpt>
      <trkpt lat="45.96454" lon="4.85339">
        <ele>272</ele>
        <time>2018-08-18T09:13:32Z</time>
      </trkpt>
      <trkpt lat="45.96455" lon="4.8535">
        <ele>272</ele>
        <time>2018-08-18T09:13:34Z</time>
      </trkpt>
      <trkpt lat="45.96455" lon="4.85356">
        <ele>272</ele>
        <time>2018-08-18T09:13:35Z</time>
      </trkpt>
      <trkpt lat="45.96456" lon="4.85367">
        <ele>272</ele>
        <time>2018-08-18T09:13:37Z</time>
      </trkpt>
      <trkpt lat="45.96457" lon="4.85373">
        <ele>272</ele>
        <time>2018-08-18T09:13:38Z</time>
      </trkpt>
      <trkpt lat="45.96457" lon="4.85378">
        <ele>272</ele>
        <time>2018-08-18T09:13:40Z</time>
      </trkpt>
      <trkpt lat="45.96458" lon="4.85388">
        <ele>272</ele>
        <time>2018-08-18T09:13:41Z</time>
      </trkpt>
      <trkpt lat="45.96458" lon="4.85399">
        <ele>272</ele>
        <time>2018-08-18T09:13:43Z</time>
      </trkpt>
      <trkpt lat="45.96458" lon="4.85405">
        <ele>272</ele>
        <time>2018-08-18T09:13:44Z</time>
      </trkpt>
      <trkpt lat="45.9646" lon="4.85416">
        <ele>272</ele>
        <time>2018-08-18T09:13:46Z</time>
      </trkpt>
      <trkpt lat="45.96461" lon="4.85421">
        <ele>272</ele>
        <time>2018-08-18T09:13:47Z</time>
      </trkpt>
      <trkpt lat="45.96462" lon="4.85432">
        <ele>272</ele>
        <time>2018-08-18T09:13:49Z</time>
      </trkpt>
      <trkpt lat="45.96463" lon="4.85437">
        <ele>272</ele>
        <time>2018-08-18T09:13:50Z</time>
      </trkpt>
      <trkpt lat="45.96463" lon="4.85443">
        <ele>272</ele>
        <time>2018-08-18T09:13:51Z</time>
      </trkpt>
      <trkpt lat="45.96465" lon="4.85453">
        <ele>272</ele>
        <time>2018-08-18T09:13:52Z</time>
      </trkpt>
      <trkpt lat="45.96464" lon="4.8546">
        <ele>272</ele>
        <time>2018-08-18T09:13:53Z</time>
      </trkpt>
      <trkpt lat="45.96465" lon="4.85467">
        <ele>272</ele>
        <time>2018-08-18T09:13:54Z</time>
      </trkpt>
      <trkpt lat="45.96466" lon="4.85475">
        <ele>272</ele>
        <time>2018-08-18T09:13:55Z</time>
      </trkpt>
      <trkpt lat="45.96464" lon="4.85481">
        <ele>272</ele>
        <time>2018-08-18T09:13:56Z</time>
      </trkpt>
      <trkpt lat="45.96463" lon="4.85494">
        <ele>272</ele>
        <time>2018-08-18T09:13:58Z</time>
      </trkpt>
      <trkpt lat="45.96463" lon="4.855">
        <ele>272</ele>
        <time>2018-08-18T09:13:59Z</time>
      </trkpt>
      <trkpt lat="45.96463" lon="4.85505">
        <ele>272</ele>
        <time>2018-08-18T09:14:01Z</time>
      </trkpt>
      <trkpt lat="45.96464" lon="4.85515">
        <ele>272</ele>
        <time>2018-08-18T09:14:02Z</time>
      </trkpt>
      <trkpt lat="45.96464" lon="4.85525">
        <ele>272</ele>
        <time>2018-08-18T09:14:04Z</time>
      </trkpt>
      <trkpt lat="45.96466" lon="4.8553">
        <ele>272</ele>
        <time>2018-08-18T09:14:05Z</time>
      </trkpt>
      <trkpt lat="45.96466" lon="4.85542">
        <ele>272</ele>
        <time>2018-08-18T09:14:07Z</time>
      </trkpt>
      <trkpt lat="45.96466" lon="4.85545">
        <ele>272</ele>
        <time>2018-08-18T09:14:08Z</time>
      </trkpt>
      <trkpt lat="45.96466" lon="4.85557">
        <ele>272</ele>
        <time>2018-08-18T09:14:10Z</time>
      </trkpt>
      <trkpt lat="45.96466" lon="4.85563">
        <ele>272</ele>
        <time>2018-08-18T09:14:11Z</time>
      </trkpt>
      <trkpt lat="45.96467" lon="4.85574">
        <ele>271</ele>
        <time>2018-08-18T09:14:13Z</time>
      </trkpt>
      <trkpt lat="45.96468" lon="4.85577">
        <ele>271</ele>
        <time>2018-08-18T09:14:14Z</time>
      </trkpt>
      <trkpt lat="45.96469" lon="4.85587">
        <ele>271</ele>
        <time>2018-08-18T09:14:17Z</time>
      </trkpt>
      <trkpt lat="45.9647" lon="4.85597">
        <ele>271</ele>
        <time>2018-08-18T09:14:18Z</time>
      </trkpt>
      <trkpt lat="45.96471" lon="4.85608">
        <ele>271</ele>
        <time>2018-08-18T09:14:20Z</time>
      </trkpt>
      <trkpt lat="45.96472" lon="4.85614">
        <ele>271</ele>
        <time>2018-08-18T09:14:21Z</time>
      </trkpt>
      <trkpt lat="45.96472" lon="4.85621">
        <ele>271</ele>
        <time>2018-08-18T09:14:22Z</time>
      </trkpt>
      <trkpt lat="45.96471" lon="4.85629">
        <ele>271</ele>
        <time>2018-08-18T09:14:23Z</time>
      </trkpt>
      <trkpt lat="45.96473" lon="4.85636">
        <ele>271</ele>
        <time>2018-08-18T09:14:24Z</time>
      </trkpt>
      <trkpt lat="45.9647" lon="4.85642">
        <ele>271</ele>
        <time>2018-08-18T09:14:25Z</time>
      </trkpt>
      <trkpt lat="45.96472" lon="4.85648">
        <ele>271</ele>
        <time>2018-08-18T09:14:26Z</time>
      </trkpt>
      <trkpt lat="45.96474" lon="4.85654">
        <ele>271</ele>
        <time>2018-08-18T09:14:27Z</time>
      </trkpt>
      <trkpt lat="45.96474" lon="4.85661">
        <ele>271</ele>
        <time>2018-08-18T09:14:29Z</time>
      </trkpt>
      <trkpt lat="45.96474" lon="4.85669">
        <ele>272</ele>
        <time>2018-08-18T09:14:30Z</time>
      </trkpt>
      <trkpt lat="45.96475" lon="4.85679">
        <ele>272</ele>
        <time>2018-08-18T09:14:32Z</time>
      </trkpt>
      <trkpt lat="45.96476" lon="4.85685">
        <ele>272</ele>
        <time>2018-08-18T09:14:33Z</time>
      </trkpt>
      <trkpt lat="45.96478" lon="4.85696">
        <ele>272</ele>
        <time>2018-08-18T09:14:35Z</time>
      </trkpt>
      <trkpt lat="45.96478" lon="4.85701">
        <ele>272</ele>
        <time>2018-08-18T09:14:36Z</time>
      </trkpt>
      <trkpt lat="45.9648" lon="4.85712">
        <ele>272</ele>
        <time>2018-08-18T09:14:38Z</time>
      </trkpt>
      <trkpt lat="45.9648" lon="4.85718">
        <ele>272</ele>
        <time>2018-08-18T09:14:39Z</time>
      </trkpt>
      <trkpt lat="45.96482" lon="4.85729">
        <ele>273</ele>
        <time>2018-08-18T09:14:41Z</time>
      </trkpt>
      <trkpt lat="45.96483" lon="4.85734">
        <ele>273</ele>
        <time>2018-08-18T09:14:42Z</time>
      </trkpt>
      <trkpt lat="45.96484" lon="4.8574">
        <ele>273</ele>
        <time>2018-08-18T09:14:44Z</time>
      </trkpt>
      <trkpt lat="45.96485" lon="4.85749">
        <ele>273</ele>
        <time>2018-08-18T09:14:45Z</time>
      </trkpt>
      <trkpt lat="45.96486" lon="4.8576">
        <ele>274</ele>
        <time>2018-08-18T09:14:47Z</time>
      </trkpt>
      <trkpt lat="45.96487" lon="4.85765">
        <ele>274</ele>
        <time>2018-08-18T09:14:48Z</time>
      </trkpt>
      <trkpt lat="45.96488" lon="4.85771">
        <ele>274</ele>
        <time>2018-08-18T09:14:50Z</time>
      </trkpt>
      <trkpt lat="45.96489" lon="4.85781">
        <ele>274</ele>
        <time>2018-08-18T09:14:51Z</time>
      </trkpt>
      <trkpt lat="45.96491" lon="4.85792">
        <ele>274</ele>
        <time>2018-08-18T09:14:53Z</time>
      </trkpt>
      <trkpt lat="45.96492" lon="4.85798">
        <ele>274</ele>
        <time>2018-08-18T09:14:54Z</time>
      </trkpt>
      <trkpt lat="45.96494" lon="4.85809">
        <ele>274</ele>
        <time>2018-08-18T09:14:56Z</time>
      </trkpt>
      <trkpt lat="45.96495" lon="4.85815">
        <ele>274</ele>
        <time>2018-08-18T09:14:57Z</time>
      </trkpt>
      <trkpt lat="45.96497" lon="4.85828">
        <ele>275</ele>
        <time>2018-08-18T09:14:59Z</time>
      </trkpt>
      <trkpt lat="45.96499" lon="4.85834">
        <ele>275</ele>
        <time>2018-08-18T09:15:00Z</time>
      </trkpt>
      <trkpt lat="45.96501" lon="4.85844">
        <ele>275</ele>
        <time>2018-08-18T09:15:02Z</time>
      </trkpt>
      <trkpt lat="45.96501" lon="4.85847">
        <ele>275</ele>
        <time>2018-08-18T09:15:03Z</time>
      </trkpt>
      <trkpt lat="45.96503" lon="4.85859">
        <ele>275</ele>
        <time>2018-08-18T09:15:05Z</time>
      </trkpt>
      <trkpt lat="45.96504" lon="4.85865">
        <ele>275</ele>
        <time>2018-08-18T09:15:06Z</time>
      </trkpt>
      <trkpt lat="45.96506" lon="4.85876">
        <ele>275</ele>
        <time>2018-08-18T09:15:08Z</time>
      </trkpt>
      <trkpt lat="45.96507" lon="4.85882">
        <ele>275</ele>
        <time>2018-08-18T09:15:09Z</time>
      </trkpt>
      <trkpt lat="45.96508" lon="4.85889">
        <ele>275</ele>
        <time>2018-08-18T09:15:10Z</time>
      </trkpt>
      <trkpt lat="45.9651" lon="4.85895">
        <ele>275</ele>
        <time>2018-08-18T09:15:11Z</time>
      </trkpt>
      <trkpt lat="45.96511" lon="4.85906">
        <ele>275</ele>
        <time>2018-08-18T09:15:13Z</time>
      </trkpt>
      <trkpt lat="45.96516" lon="4.85912">
        <ele>275</ele>
        <time>2018-08-18T09:15:14Z</time>
      </trkpt>
      <trkpt lat="45.96518" lon="4.85923">
        <ele>275</ele>
        <time>2018-08-18T09:15:16Z</time>
      </trkpt>
      <trkpt lat="45.96518" lon="4.85928">
        <ele>275</ele>
        <time>2018-08-18T09:15:17Z</time>
      </trkpt>
      <trkpt lat="45.96521" lon="4.85937">
        <ele>275</ele>
        <time>2018-08-18T09:15:19Z</time>
      </trkpt>
      <trkpt lat="45.96523" lon="4.85942">
        <ele>275</ele>
        <time>2018-08-18T09:15:20Z</time>
      </trkpt>
      <trkpt lat="45.96527" lon="4.85952">
        <ele>275</ele>
        <time>2018-08-18T09:15:22Z</time>
      </trkpt>
      <trkpt lat="45.96529" lon="4.85958">
        <ele>275</ele>
        <time>2018-08-18T09:15:23Z</time>
      </trkpt>
      <trkpt lat="45.96534" lon="4.85968">
        <ele>275</ele>
        <time>2018-08-18T09:15:25Z</time>
      </trkpt>
      <trkpt lat="45.96536" lon="4.85972">
        <ele>275</ele>
        <time>2018-08-18T09:15:26Z</time>
      </trkpt>
      <trkpt lat="45.96541" lon="4.8598">
        <ele>275</ele>
        <time>2018-08-18T09:15:28Z</time>
      </trkpt>
      <trkpt lat="45.96543" lon="4.85985">
        <ele>275</ele>
        <time>2018-08-18T09:15:29Z</time>
      </trkpt>
      <trkpt lat="45.96548" lon="4.85995">
        <ele>275</ele>
        <time>2018-08-18T09:15:31Z</time>
      </trkpt>
      <trkpt lat="45.9655" lon="4.86">
        <ele>276</ele>
        <time>2018-08-18T09:15:32Z</time>
      </trkpt>
      <trkpt lat="45.96554" lon="4.86009">
        <ele>276</ele>
        <time>2018-08-18T09:15:34Z</time>
      </trkpt>
      <trkpt lat="45.96556" lon="4.86014">
        <ele>276</ele>
        <time>2018-08-18T09:15:35Z</time>
      </trkpt>
      <trkpt lat="45.96562" lon="4.86023">
        <ele>276</ele>
        <time>2018-08-18T09:15:37Z</time>
      </trkpt>
      <trkpt lat="45.96564" lon="4.86028">
        <ele>276</ele>
        <time>2018-08-18T09:15:38Z</time>
      </trkpt>
      <trkpt lat="45.96569" lon="4.86037">
        <ele>276</ele>
        <time>2018-08-18T09:15:40Z</time>
      </trkpt>
      <trkpt lat="45.96571" lon="4.86041">
        <ele>276</ele>
        <time>2018-08-18T09:15:41Z</time>
      </trkpt>
      <trkpt lat="45.96574" lon="4.86047">
        <ele>276</ele>
        <time>2018-08-18T09:15:43Z</time>
      </trkpt>
      <trkpt lat="45.96578" lon="4.86052">
        <ele>277</ele>
        <time>2018-08-18T09:15:44Z</time>
      </trkpt>
      <trkpt lat="45.96582" lon="4.86061">
        <ele>277</ele>
        <time>2018-08-18T09:15:47Z</time>
      </trkpt>
      <trkpt lat="45.96583" lon="4.86064">
        <ele>277</ele>
        <time>2018-08-18T09:15:48Z</time>
      </trkpt>
      <trkpt lat="45.96586" lon="4.86072">
        <ele>279</ele>
        <time>2018-08-18T09:15:50Z</time>
      </trkpt>
      <trkpt lat="45.96588" lon="4.86076">
        <ele>279</ele>
        <time>2018-08-18T09:15:51Z</time>
      </trkpt>
      <trkpt lat="45.9659" lon="4.86084">
        <ele>279</ele>
        <time>2018-08-18T09:15:53Z</time>
      </trkpt>
      <trkpt lat="45.96591" lon="4.86089">
        <ele>279</ele>
        <time>2018-08-18T09:15:54Z</time>
      </trkpt>
      <trkpt lat="45.96593" lon="4.86097">
        <ele>280</ele>
        <time>2018-08-18T09:15:56Z</time>
      </trkpt>
      <trkpt lat="45.96595" lon="4.86102">
        <ele>280</ele>
        <time>2018-08-18T09:15:57Z</time>
      </trkpt>
      <trkpt lat="45.96597" lon="4.8611">
        <ele>281</ele>
        <time>2018-08-18T09:15:59Z</time>
      </trkpt>
      <trkpt lat="45.96597" lon="4.86114">
        <ele>281</ele>
        <time>2018-08-18T09:16:00Z</time>
      </trkpt>
      <trkpt lat="45.96598" lon="4.86123">
        <ele>281</ele>
        <time>2018-08-18T09:16:02Z</time>
      </trkpt>
      <trkpt lat="45.96597" lon="4.86127">
        <ele>281</ele>
        <time>2018-08-18T09:16:03Z</time>
      </trkpt>
      <trkpt lat="45.96597" lon="4.86137">
        <ele>281</ele>
        <time>2018-08-18T09:16:05Z</time>
      </trkpt>
      <trkpt lat="45.96596" lon="4.86142">
        <ele>281</ele>
        <time>2018-08-18T09:16:06Z</time>
      </trkpt>
      <trkpt lat="45.96596" lon="4.86155">
        <ele>281</ele>
        <time>2018-08-18T09:16:07Z</time>
      </trkpt>
      <trkpt lat="45.96595" lon="4.86166">
        <ele>281</ele>
        <time>2018-08-18T09:16:11Z</time>
      </trkpt>
      <trkpt lat="45.96594" lon="4.8617">
        <ele>281</ele>
        <time>2018-08-18T09:16:12Z</time>
      </trkpt>
      <trkpt lat="45.96593" lon="4.86182">
        <ele>281</ele>
        <time>2018-08-18T09:16:15Z</time>
      </trkpt>
      <trkpt lat="45.96593" lon="4.86186">
        <ele>282</ele>
        <time>2018-08-18T09:16:16Z</time>
      </trkpt>
      <trkpt lat="45.96592" lon="4.86199">
        <ele>282</ele>
        <time>2018-08-18T09:16:19Z</time>
      </trkpt>
      <trkpt lat="45.96591" lon="4.86203">
        <ele>282</ele>
        <time>2018-08-18T09:16:20Z</time>
      </trkpt>
      <trkpt lat="45.96591" lon="4.86207">
        <ele>282</ele>
        <time>2018-08-18T09:16:21Z</time>
      </trkpt>
      <trkpt lat="45.9659" lon="4.8622">
        <ele>282</ele>
        <time>2018-08-18T09:16:22Z</time>
      </trkpt>
      <trkpt lat="45.96589" lon="4.86233">
        <ele>282</ele>
        <time>2018-08-18T09:16:26Z</time>
      </trkpt>
      <trkpt lat="45.96588" lon="4.86236">
        <ele>282</ele>
        <time>2018-08-18T09:16:27Z</time>
      </trkpt>
      <trkpt lat="45.96586" lon="4.86249">
        <ele>281</ele>
        <time>2018-08-18T09:16:30Z</time>
      </trkpt>
      <trkpt lat="45.96586" lon="4.86253">
        <ele>282</ele>
        <time>2018-08-18T09:16:31Z</time>
      </trkpt>
      <trkpt lat="45.96585" lon="4.86262">
        <ele>282</ele>
        <time>2018-08-18T09:16:33Z</time>
      </trkpt>
      <trkpt lat="45.96584" lon="4.86267">
        <ele>283</ele>
        <time>2018-08-18T09:16:34Z</time>
      </trkpt>
      <trkpt lat="45.96583" lon="4.86276">
        <ele>282</ele>
        <time>2018-08-18T09:16:36Z</time>
      </trkpt>
      <trkpt lat="45.96583" lon="4.86281">
        <ele>282</ele>
        <time>2018-08-18T09:16:37Z</time>
      </trkpt>
      <trkpt lat="45.96581" lon="4.86296">
        <ele>282</ele>
        <time>2018-08-18T09:16:38Z</time>
      </trkpt>
      <trkpt lat="45.96581" lon="4.86305">
        <ele>283</ele>
        <time>2018-08-18T09:16:41Z</time>
      </trkpt>
      <trkpt lat="45.96581" lon="4.86309">
        <ele>283</ele>
        <time>2018-08-18T09:16:42Z</time>
      </trkpt>
      <trkpt lat="45.96581" lon="4.86321">
        <ele>284</ele>
        <time>2018-08-18T09:16:45Z</time>
      </trkpt>
      <trkpt lat="45.96581" lon="4.86325">
        <ele>284</ele>
        <time>2018-08-18T09:16:46Z</time>
      </trkpt>
      <trkpt lat="45.96581" lon="4.86333">
        <ele>285</ele>
        <time>2018-08-18T09:16:48Z</time>
      </trkpt>
      <trkpt lat="45.96581" lon="4.86338">
        <ele>285</ele>
        <time>2018-08-18T09:16:49Z</time>
      </trkpt>
      <trkpt lat="45.96581" lon="4.86352">
        <ele>285</ele>
        <time>2018-08-18T09:16:50Z</time>
      </trkpt>
      <trkpt lat="45.96581" lon="4.86364">
        <ele>286</ele>
        <time>2018-08-18T09:16:53Z</time>
      </trkpt>
      <trkpt lat="45.96581" lon="4.86367">
        <ele>286</ele>
        <time>2018-08-18T09:16:54Z</time>
      </trkpt>
      <trkpt lat="45.96581" lon="4.86376">
        <ele>286</ele>
        <time>2018-08-18T09:16:56Z</time>
      </trkpt>
      <trkpt lat="45.96581" lon="4.86388">
        <ele>287</ele>
        <time>2018-08-18T09:16:57Z</time>
      </trkpt>
      <trkpt lat="45.96581" lon="4.86399">
        <ele>288</ele>
        <time>2018-08-18T09:16:59Z</time>
      </trkpt>
      <trkpt lat="45.96581" lon="4.86405">
        <ele>288</ele>
        <time>2018-08-18T09:17:00Z</time>
      </trkpt>
      <trkpt lat="45.96581" lon="4.86417">
        <ele>290</ele>
        <time>2018-08-18T09:17:03Z</time>
      </trkpt>
      <trkpt lat="45.96581" lon="4.8642">
        <ele>290</ele>
        <time>2018-08-18T09:17:04Z</time>
      </trkpt>
      <trkpt lat="45.96582" lon="4.86431">
        <ele>289</ele>
        <time>2018-08-18T09:17:07Z</time>
      </trkpt>
      <trkpt lat="45.96583" lon="4.86435">
        <ele>289</ele>
        <time>2018-08-18T09:17:08Z</time>
      </trkpt>
      <trkpt lat="45.96583" lon="4.86448">
        <ele>289</ele>
        <time>2018-08-18T09:17:11Z</time>
      </trkpt>
      <trkpt lat="45.96584" lon="4.86452">
        <ele>291</ele>
        <time>2018-08-18T09:17:12Z</time>
      </trkpt>
      <trkpt lat="45.96584" lon="4.86465">
        <ele>291</ele>
        <time>2018-08-18T09:17:15Z</time>
      </trkpt>
      <trkpt lat="45.96584" lon="4.86469">
        <ele>291</ele>
        <time>2018-08-18T09:17:16Z</time>
      </trkpt>
      <trkpt lat="45.96585" lon="4.86482">
        <ele>292</ele>
        <time>2018-08-18T09:17:19Z</time>
      </trkpt>
      <trkpt lat="45.96585" lon="4.86486">
        <ele>292</ele>
        <time>2018-08-18T09:17:20Z</time>
      </trkpt>
      <trkpt lat="45.9659" lon="4.86496">
        <ele>292</ele>
        <time>2018-08-18T09:17:23Z</time>
      </trkpt>
      <trkpt lat="45.96595" lon="4.86507">
        <ele>291</ele>
        <time>2018-08-18T09:17:24Z</time>
      </trkpt>
      <trkpt lat="45.96601" lon="4.86514">
        <ele>291</ele>
        <time>2018-08-18T09:17:26Z</time>
      </trkpt>
      <trkpt lat="45.96602" lon="4.86516">
        <ele>291</ele>
        <time>2018-08-18T09:17:27Z</time>
      </trkpt>
      <trkpt lat="45.96608" lon="4.86521">
        <ele>291</ele>
        <time>2018-08-18T09:17:30Z</time>
      </trkpt>
      <trkpt lat="45.96611" lon="4.86523">
        <ele>291</ele>
        <time>2018-08-18T09:17:31Z</time>
      </trkpt>
      <trkpt lat="45.96613" lon="4.86525">
        <ele>291</ele>
        <time>2018-08-18T09:17:32Z</time>
      </trkpt>
      <trkpt lat="45.9662" lon="4.86531">
        <ele>291</ele>
        <time>2018-08-18T09:17:33Z</time>
      </trkpt>
      <trkpt lat="45.96626" lon="4.86535">
        <ele>291</ele>
        <time>2018-08-18T09:17:36Z</time>
      </trkpt>
      <trkpt lat="45.96631" lon="4.8654">
        <ele>291</ele>
        <time>2018-08-18T09:17:37Z</time>
      </trkpt>
      <trkpt lat="45.96638" lon="4.86546">
        <ele>291</ele>
        <time>2018-08-18T09:17:41Z</time>
      </trkpt>
      <trkpt lat="45.9664" lon="4.86548">
        <ele>291</ele>
        <time>2018-08-18T09:17:42Z</time>
      </trkpt>
      <trkpt lat="45.96646" lon="4.86555">
        <ele>291</ele>
        <time>2018-08-18T09:17:43Z</time>
      </trkpt>
      <trkpt lat="45.96649" lon="4.86559">
        <ele>291</ele>
        <time>2018-08-18T09:17:44Z</time>
      </trkpt>
      <trkpt lat="45.96655" lon="4.86566">
        <ele>290</ele>
        <time>2018-08-18T09:17:46Z</time>
      </trkpt>
      <trkpt lat="45.96658" lon="4.86569">
        <ele>290</ele>
        <time>2018-08-18T09:17:47Z</time>
      </trkpt>
      <trkpt lat="45.96665" lon="4.86576">
        <ele>290</ele>
        <time>2018-08-18T09:17:49Z</time>
      </trkpt>
      <trkpt lat="45.96669" lon="4.86579">
        <ele>290</ele>
        <time>2018-08-18T09:17:50Z</time>
      </trkpt>
      <trkpt lat="45.96676" lon="4.86585">
        <ele>290</ele>
        <time>2018-08-18T09:17:52Z</time>
      </trkpt>
      <trkpt lat="45.9668" lon="4.86587">
        <ele>290</ele>
        <time>2018-08-18T09:17:53Z</time>
      </trkpt>
      <trkpt lat="45.96687" lon="4.86593">
        <ele>290</ele>
        <time>2018-08-18T09:17:55Z</time>
      </trkpt>
      <trkpt lat="45.9669" lon="4.86597">
        <ele>290</ele>
        <time>2018-08-18T09:17:56Z</time>
      </trkpt>
      <trkpt lat="45.96698" lon="4.86603">
        <ele>290</ele>
        <time>2018-08-18T09:17:58Z</time>
      </trkpt>
      <trkpt lat="45.96701" lon="4.86606">
        <ele>290</ele>
        <time>2018-08-18T09:17:59Z</time>
      </trkpt>
      <trkpt lat="45.96708" lon="4.86612">
        <ele>290</ele>
        <time>2018-08-18T09:18:01Z</time>
      </trkpt>
      <trkpt lat="45.96711" lon="4.86615">
        <ele>290</ele>
        <time>2018-08-18T09:18:02Z</time>
      </trkpt>
      <trkpt lat="45.96718" lon="4.8662">
        <ele>290</ele>
        <time>2018-08-18T09:18:04Z</time>
      </trkpt>
      <trkpt lat="45.96721" lon="4.86622">
        <ele>290</ele>
        <time>2018-08-18T09:18:05Z</time>
      </trkpt>
      <trkpt lat="45.96727" lon="4.86624">
        <ele>290</ele>
        <time>2018-08-18T09:18:07Z</time>
      </trkpt>
      <trkpt lat="45.96732" lon="4.86627">
        <ele>290</ele>
        <time>2018-08-18T09:18:08Z</time>
      </trkpt>
      <trkpt lat="45.96738" lon="4.86631">
        <ele>290</ele>
        <time>2018-08-18T09:18:10Z</time>
      </trkpt>
      <trkpt lat="45.96742" lon="4.86634">
        <ele>290</ele>
        <time>2018-08-18T09:18:11Z</time>
      </trkpt>
      <trkpt lat="45.96744" lon="4.86642">
        <ele>290</ele>
        <time>2018-08-18T09:18:14Z</time>
      </trkpt>
      <trkpt lat="45.96745" lon="4.86647">
        <ele>290</ele>
        <time>2018-08-18T09:18:15Z</time>
      </trkpt>
      <trkpt lat="45.96743" lon="4.86654">
        <ele>290</ele>
        <time>2018-08-18T09:18:17Z</time>
      </trkpt>
      <trkpt lat="45.96738" lon="4.86666">
        <ele>290</ele>
        <time>2018-08-18T09:18:18Z</time>
      </trkpt>
      <trkpt lat="45.96735" lon="4.86671">
        <ele>290</ele>
        <time>2018-08-18T09:18:19Z</time>
      </trkpt>
      <trkpt lat="45.9673" lon="4.86676">
        <ele>290</ele>
        <time>2018-08-18T09:18:20Z</time>
      </trkpt>
      <trkpt lat="45.96727" lon="4.86682">
        <ele>289</ele>
        <time>2018-08-18T09:18:21Z</time>
      </trkpt>
      <trkpt lat="45.96725" lon="4.86687">
        <ele>289</ele>
        <time>2018-08-18T09:18:22Z</time>
      </trkpt>
      <trkpt lat="45.96721" lon="4.86694">
        <ele>289</ele>
        <time>2018-08-18T09:18:23Z</time>
      </trkpt>
      <trkpt lat="45.96717" lon="4.867">
        <ele>289</ele>
        <time>2018-08-18T09:18:24Z</time>
      </trkpt>
      <trkpt lat="45.96714" lon="4.86705">
        <ele>289</ele>
        <time>2018-08-18T09:18:25Z</time>
      </trkpt>
      <trkpt lat="45.9671" lon="4.86711">
        <ele>289</ele>
        <time>2018-08-18T09:18:26Z</time>
      </trkpt>
      <trkpt lat="45.96707" lon="4.86718">
        <ele>289</ele>
        <time>2018-08-18T09:18:27Z</time>
      </trkpt>
      <trkpt lat="45.96704" lon="4.86724">
        <ele>289</ele>
        <time>2018-08-18T09:18:28Z</time>
      </trkpt>
      <trkpt lat="45.96701" lon="4.86728">
        <ele>289</ele>
        <time>2018-08-18T09:18:29Z</time>
      </trkpt>
      <trkpt lat="45.96696" lon="4.86735">
        <ele>289</ele>
        <time>2018-08-18T09:18:30Z</time>
      </trkpt>
      <trkpt lat="45.96692" lon="4.8674">
        <ele>289</ele>
        <time>2018-08-18T09:18:31Z</time>
      </trkpt>
      <trkpt lat="45.96688" lon="4.86746">
        <ele>289</ele>
        <time>2018-08-18T09:18:32Z</time>
      </trkpt>
      <trkpt lat="45.96684" lon="4.86755">
        <ele>289</ele>
        <time>2018-08-18T09:18:33Z</time>
      </trkpt>
      <trkpt lat="45.96683" lon="4.8676">
        <ele>289</ele>
        <time>2018-08-18T09:18:34Z</time>
      </trkpt>
      <trkpt lat="45.96679" lon="4.86765">
        <ele>289</ele>
        <time>2018-08-18T09:18:35Z</time>
      </trkpt>
      <trkpt lat="45.96676" lon="4.8677">
        <ele>289</ele>
        <time>2018-08-18T09:18:36Z</time>
      </trkpt>
      <trkpt lat="45.96671" lon="4.86778">
        <ele>289</ele>
        <time>2018-08-18T09:18:37Z</time>
      </trkpt>
      <trkpt lat="45.96668" lon="4.86784">
        <ele>289</ele>
        <time>2018-08-18T09:18:38Z</time>
      </trkpt>
      <trkpt lat="45.96663" lon="4.86783">
        <ele>288</ele>
        <time>2018-08-18T09:18:39Z</time>
      </trkpt>
      <trkpt lat="45.96659" lon="4.86789">
        <ele>288</ele>
        <time>2018-08-18T09:18:40Z</time>
      </trkpt>
      <trkpt lat="45.96655" lon="4.86794">
        <ele>288</ele>
        <time>2018-08-18T09:18:41Z</time>
      </trkpt>
      <trkpt lat="45.96652" lon="4.868">
        <ele>288</ele>
        <time>2018-08-18T09:18:42Z</time>
      </trkpt>
      <trkpt lat="45.96649" lon="4.86806">
        <ele>288</ele>
        <time>2018-08-18T09:18:43Z</time>
      </trkpt>
      <trkpt lat="45.96645" lon="4.86813">
        <ele>288</ele>
        <time>2018-08-18T09:18:44Z</time>
      </trkpt>
      <trkpt lat="45.96641" lon="4.86818">
        <ele>288</ele>
        <time>2018-08-18T09:18:45Z</time>
      </trkpt>
      <trkpt lat="45.96637" lon="4.86823">
        <ele>288</ele>
        <time>2018-08-18T09:18:46Z</time>
      </trkpt>
      <trkpt lat="45.96634" lon="4.86829">
        <ele>288</ele>
        <time>2018-08-18T09:18:47Z</time>
      </trkpt>
      <trkpt lat="45.96632" lon="4.86834">
        <ele>287</ele>
        <time>2018-08-18T09:18:48Z</time>
      </trkpt>
      <trkpt lat="45.96627" lon="4.86839">
        <ele>287</ele>
        <time>2018-08-18T09:18:49Z</time>
      </trkpt>
      <trkpt lat="45.96624" lon="4.86844">
        <ele>287</ele>
        <time>2018-08-18T09:18:50Z</time>
      </trkpt>
      <trkpt lat="45.96623" lon="4.86853">
        <ele>287</ele>
        <time>2018-08-18T09:18:51Z</time>
      </trkpt>
      <trkpt lat="45.96621" lon="4.86863">
        <ele>287</ele>
        <time>2018-08-18T09:18:52Z</time>
      </trkpt>
      <trkpt lat="45.96618" lon="4.86871">
        <ele>287</ele>
        <time>2018-08-18T09:18:53Z</time>
      </trkpt>
      <trkpt lat="45.96615" lon="4.86878">
        <ele>287</ele>
        <time>2018-08-18T09:18:54Z</time>
      </trkpt>
      <trkpt lat="45.96611" lon="4.86883">
        <ele>287</ele>
        <time>2018-08-18T09:18:55Z</time>
      </trkpt>
      <trkpt lat="45.96607" lon="4.86888">
        <ele>287</ele>
        <time>2018-08-18T09:18:56Z</time>
      </trkpt>
      <trkpt lat="45.96604" lon="4.86893">
        <ele>286</ele>
        <time>2018-08-18T09:18:57Z</time>
      </trkpt>
      <trkpt lat="45.966" lon="4.86899">
        <ele>286</ele>
        <time>2018-08-18T09:18:58Z</time>
      </trkpt>
      <trkpt lat="45.96596" lon="4.86902">
        <ele>286</ele>
        <time>2018-08-18T09:18:59Z</time>
      </trkpt>
      <trkpt lat="45.96592" lon="4.86908">
        <ele>286</ele>
        <time>2018-08-18T09:19:00Z</time>
      </trkpt>
      <trkpt lat="45.96588" lon="4.86914">
        <ele>285</ele>
        <time>2018-08-18T09:19:01Z</time>
      </trkpt>
      <trkpt lat="45.96584" lon="4.86921">
        <ele>285</ele>
        <time>2018-08-18T09:19:02Z</time>
      </trkpt>
      <trkpt lat="45.96581" lon="4.86927">
        <ele>284</ele>
        <time>2018-08-18T09:19:03Z</time>
      </trkpt>
      <trkpt lat="45.96578" lon="4.86935">
        <ele>284</ele>
        <time>2018-08-18T09:19:04Z</time>
      </trkpt>
      <trkpt lat="45.96573" lon="4.8694">
        <ele>284</ele>
        <time>2018-08-18T09:19:05Z</time>
      </trkpt>
      <trkpt lat="45.96569" lon="4.86945">
        <ele>284</ele>
        <time>2018-08-18T09:19:06Z</time>
      </trkpt>
      <trkpt lat="45.96565" lon="4.86951">
        <ele>284</ele>
        <time>2018-08-18T09:19:07Z</time>
      </trkpt>
      <trkpt lat="45.96561" lon="4.86957">
        <ele>283</ele>
        <time>2018-08-18T09:19:08Z</time>
      </trkpt>
      <trkpt lat="45.96553" lon="4.8696">
        <ele>283</ele>
        <time>2018-08-18T09:19:10Z</time>
      </trkpt>
      <trkpt lat="45.96547" lon="4.86962">
        <ele>283</ele>
        <time>2018-08-18T09:19:11Z</time>
      </trkpt>
      <trkpt lat="45.96544" lon="4.86969">
        <ele>283</ele>
        <time>2018-08-18T09:19:14Z</time>
      </trkpt>
      <trkpt lat="45.96542" lon="4.86972">
        <ele>283</ele>
        <time>2018-08-18T09:19:15Z</time>
      </trkpt>
      <trkpt lat="45.96541" lon="4.8698">
        <ele>283</ele>
        <time>2018-08-18T09:19:16Z</time>
      </trkpt>
      <trkpt lat="45.96541" lon="4.86986">
        <ele>283</ele>
        <time>2018-08-18T09:19:17Z</time>
      </trkpt>
      <trkpt lat="45.9654" lon="4.86996">
        <ele>283</ele>
        <time>2018-08-18T09:19:19Z</time>
      </trkpt>
      <trkpt lat="45.9654" lon="4.86999">
        <ele>283</ele>
        <time>2018-08-18T09:19:20Z</time>
      </trkpt>
      <trkpt lat="45.96539" lon="4.87011">
        <ele>283</ele>
        <time>2018-08-18T09:19:24Z</time>
      </trkpt>
      <trkpt lat="45.96538" lon="4.87014">
        <ele>283</ele>
        <time>2018-08-18T09:19:25Z</time>
      </trkpt>
      <trkpt lat="45.96536" lon="4.87017">
        <ele>283</ele>
        <time>2018-08-18T09:19:27Z</time>
      </trkpt>
      <trkpt lat="45.96535" lon="4.87018">
        <ele>283</ele>
        <time>2018-08-18T09:19:28Z</time>
      </trkpt>
      <trkpt lat="45.96533" lon="4.87029">
        <ele>283</ele>
        <time>2018-08-18T09:24:10.331Z</time>
      </trkpt>
      <trkpt lat="45.96532" lon="4.8703">
        <ele>283</ele>
        <time>2018-08-18T09:24:16.666Z</time>
      </trkpt>
      <trkpt lat="45.96532" lon="4.8703">
        <ele>283</ele>
        <time>2018-08-18T09:24:23Z</time>
      </trkpt>
      <trkpt lat="45.96532" lon="4.8703">
        <ele>283</ele>
        <time>2018-08-18T09:24:24Z</time>
      </trkpt>
      <trkpt lat="45.96532" lon="4.8703">
        <ele>283</ele>
        <time>2018-08-18T09:24:26Z</time>
      </trkpt>
      <trkpt lat="45.96532" lon="4.87029">
        <ele>283</ele>
        <time>2018-08-18T09:24:27Z</time>
      </trkpt>
      <trkpt lat="45.96535" lon="4.87025">
        <ele>283</ele>
        <time>2018-08-18T09:26:28Z</time>
      </trkpt>
      <trkpt lat="45.96536" lon="4.87024">
        <ele>283</ele>
        <time>2018-08-18T09:26:29Z</time>
      </trkpt>
      <trkpt lat="45.96536" lon="4.87023">
        <ele>283</ele>
        <time>2018-08-18T09:26:30Z</time>
      </trkpt>
      <trkpt lat="45.96545" lon="4.87024">
        <ele>283</ele>
        <time>2018-08-18T09:26:35Z</time>
      </trkpt>
      <trkpt lat="45.96546" lon="4.87026">
        <ele>283</ele>
        <time>2018-08-18T09:26:36Z</time>
      </trkpt>
      <trkpt lat="45.96551" lon="4.87033">
        <ele>283</ele>
        <time>2018-08-18T09:26:39Z</time>
      </trkpt>
      <trkpt lat="45.96553" lon="4.87036">
        <ele>283</ele>
        <time>2018-08-18T09:26:40Z</time>
      </trkpt>
      <trkpt lat="45.96556" lon="4.87044">
        <ele>283</ele>
        <time>2018-08-18T09:26:42Z</time>
      </trkpt>
      <trkpt lat="45.96557" lon="4.87049">
        <ele>283</ele>
        <time>2018-08-18T09:26:43Z</time>
      </trkpt>
      <trkpt lat="45.96558" lon="4.87058">
        <ele>283</ele>
        <time>2018-08-18T09:26:45Z</time>
      </trkpt>
      <trkpt lat="45.96558" lon="4.87062">
        <ele>283</ele>
        <time>2018-08-18T09:26:46Z</time>
      </trkpt>
      <trkpt lat="45.96558" lon="4.87074">
        <ele>283</ele>
        <time>2018-08-18T09:26:50Z</time>
      </trkpt>
      <trkpt lat="45.96556" lon="4.87075">
        <ele>283</ele>
        <time>2018-08-18T09:26:51Z</time>
      </trkpt>
      <trkpt lat="45.96547" lon="4.87077">
        <ele>283</ele>
        <time>2018-08-18T09:26:56Z</time>
      </trkpt>
      <trkpt lat="45.96546" lon="4.87076">
        <ele>283</ele>
        <time>2018-08-18T09:26:57Z</time>
      </trkpt>
      <trkpt lat="45.96542" lon="4.87067">
        <ele>283</ele>
        <time>2018-08-18T09:27:00Z</time>
      </trkpt>
      <trkpt lat="45.96541" lon="4.8705">
        <ele>283</ele>
        <time>2018-08-18T09:27:01Z</time>
      </trkpt>
      <trkpt lat="45.96545" lon="4.87032">
        <ele>283</ele>
        <time>2018-08-18T09:27:02Z</time>
      </trkpt>
      <trkpt lat="45.96549" lon="4.87022">
        <ele>283</ele>
        <time>2018-08-18T09:27:07Z</time>
      </trkpt>
      <trkpt lat="45.9655" lon="4.87019">
        <ele>283</ele>
        <time>2018-08-18T09:27:08Z</time>
      </trkpt>
      <trkpt lat="45.9655" lon="4.87016">
        <ele>283</ele>
        <time>2018-08-18T09:27:09Z</time>
      </trkpt>
      <trkpt lat="45.96549" lon="4.87">
        <ele>283</ele>
        <time>2018-08-18T09:27:10Z</time>
      </trkpt>
      <trkpt lat="45.96556" lon="4.86995">
        <ele>284</ele>
        <time>2018-08-18T09:27:15Z</time>
      </trkpt>
      <trkpt lat="45.96559" lon="4.86994">
        <ele>284</ele>
        <time>2018-08-18T09:27:16Z</time>
      </trkpt>
      <trkpt lat="45.96567" lon="4.86993">
        <ele>284</ele>
        <time>2018-08-18T09:27:17Z</time>
      </trkpt>
      <trkpt lat="45.96571" lon="4.86992">
        <ele>284</ele>
        <time>2018-08-18T09:27:18Z</time>
      </trkpt>
      <trkpt lat="45.96578" lon="4.86991">
        <ele>284</ele>
        <time>2018-08-18T09:27:21Z</time>
      </trkpt>
      <trkpt lat="45.96585" lon="4.86989">
        <ele>285</ele>
        <time>2018-08-18T09:27:22Z</time>
      </trkpt>
      <trkpt lat="45.96593" lon="4.86985">
        <ele>286</ele>
        <time>2018-08-18T09:27:24Z</time>
      </trkpt>
      <trkpt lat="45.96596" lon="4.86983">
        <ele>286</ele>
        <time>2018-08-18T09:27:25Z</time>
      </trkpt>
      <trkpt lat="45.96603" lon="4.86982">
        <ele>286</ele>
        <time>2018-08-18T09:27:28Z</time>
      </trkpt>
      <trkpt lat="45.96605" lon="4.86982">
        <ele>286</ele>
        <time>2018-08-18T09:27:29Z</time>
      </trkpt>
      <trkpt lat="45.96613" lon="4.86982">
        <ele>286</ele>
        <time>2018-08-18T09:27:32Z</time>
      </trkpt>
      <trkpt lat="45.96621" lon="4.86981">
        <ele>286</ele>
        <time>2018-08-18T09:27:33Z</time>
      </trkpt>
      <trkpt lat="45.96628" lon="4.86979">
        <ele>286</ele>
        <time>2018-08-18T09:27:37Z</time>
      </trkpt>
      <trkpt lat="45.96631" lon="4.86978">
        <ele>286</ele>
        <time>2018-08-18T09:27:38Z</time>
      </trkpt>
      <trkpt lat="45.96636" lon="4.86978">
        <ele>286</ele>
        <time>2018-08-18T09:27:40Z</time>
      </trkpt>
      <trkpt lat="45.96645" lon="4.86978">
        <ele>286</ele>
        <time>2018-08-18T09:27:41Z</time>
      </trkpt>
      <trkpt lat="45.96652" lon="4.86983">
        <ele>287</ele>
        <time>2018-08-18T09:27:44Z</time>
      </trkpt>
      <trkpt lat="45.96654" lon="4.86985">
        <ele>287</ele>
        <time>2018-08-18T09:27:45Z</time>
      </trkpt>
      <trkpt lat="45.96656" lon="4.86989">
        <ele>287</ele>
        <time>2018-08-18T09:27:46Z</time>
      </trkpt>
      <trkpt lat="45.96661" lon="4.87">
        <ele>287</ele>
        <time>2018-08-18T09:27:47Z</time>
      </trkpt>
      <trkpt lat="45.96665" lon="4.8701">
        <ele>286</ele>
        <time>2018-08-18T09:27:49Z</time>
      </trkpt>
      <trkpt lat="45.96667" lon="4.87015">
        <ele>287</ele>
        <time>2018-08-18T09:27:50Z</time>
      </trkpt>
      <trkpt lat="45.96673" lon="4.87023">
        <ele>287</ele>
        <time>2018-08-18T09:27:52Z</time>
      </trkpt>
      <trkpt lat="45.96676" lon="4.87026">
        <ele>287</ele>
        <time>2018-08-18T09:27:53Z</time>
      </trkpt>
      <trkpt lat="45.96683" lon="4.87033">
        <ele>287</ele>
        <time>2018-08-18T09:27:55Z</time>
      </trkpt>
      <trkpt lat="45.96688" lon="4.87035">
        <ele>287</ele>
        <time>2018-08-18T09:27:56Z</time>
      </trkpt>
      <trkpt lat="45.96692" lon="4.87039">
        <ele>287</ele>
        <time>2018-08-18T09:27:57Z</time>
      </trkpt>
      <trkpt lat="45.96696" lon="4.87042">
        <ele>287</ele>
        <time>2018-08-18T09:27:58Z</time>
      </trkpt>
      <trkpt lat="45.967" lon="4.87046">
        <ele>287</ele>
        <time>2018-08-18T09:27:59Z</time>
      </trkpt>
      <trkpt lat="45.96705" lon="4.87049">
        <ele>287</ele>
        <time>2018-08-18T09:28:00Z</time>
      </trkpt>
      <trkpt lat="45.96713" lon="4.87053">
        <ele>287</ele>
        <time>2018-08-18T09:28:02Z</time>
      </trkpt>
      <trkpt lat="45.96717" lon="4.87056">
        <ele>287</ele>
        <time>2018-08-18T09:28:03Z</time>
      </trkpt>
      <trkpt lat="45.9672" lon="4.87059">
        <ele>287</ele>
        <time>2018-08-18T09:28:04Z</time>
      </trkpt>
      <trkpt lat="45.96726" lon="4.87061">
        <ele>287</ele>
        <time>2018-08-18T09:28:05Z</time>
      </trkpt>
      <trkpt lat="45.9673" lon="4.87063">
        <ele>287</ele>
        <time>2018-08-18T09:28:06Z</time>
      </trkpt>
      <trkpt lat="45.96735" lon="4.87066">
        <ele>287</ele>
        <time>2018-08-18T09:28:07Z</time>
      </trkpt>
      <trkpt lat="45.96739" lon="4.87068">
        <ele>287</ele>
        <time>2018-08-18T09:28:08Z</time>
      </trkpt>
      <trkpt lat="45.96743" lon="4.87072">
        <ele>287</ele>
        <time>2018-08-18T09:28:09Z</time>
      </trkpt>
      <trkpt lat="45.96749" lon="4.87078">
        <ele>287</ele>
        <time>2018-08-18T09:28:11Z</time>
      </trkpt>
      <trkpt lat="45.96752" lon="4.87082">
        <ele>287</ele>
        <time>2018-08-18T09:28:12Z</time>
      </trkpt>
      <trkpt lat="45.96758" lon="4.8709">
        <ele>287</ele>
        <time>2018-08-18T09:28:14Z</time>
      </trkpt>
      <trkpt lat="45.96761" lon="4.87094">
        <ele>287</ele>
        <time>2018-08-18T09:28:15Z</time>
      </trkpt>
      <trkpt lat="45.96767" lon="4.87103">
        <ele>286</ele>
        <time>2018-08-18T09:28:17Z</time>
      </trkpt>
      <trkpt lat="45.9677" lon="4.87109">
        <ele>286</ele>
        <time>2018-08-18T09:28:18Z</time>
      </trkpt>
      <trkpt lat="45.96774" lon="4.87115">
        <ele>286</ele>
        <time>2018-08-18T09:28:19Z</time>
      </trkpt>
      <trkpt lat="45.96777" lon="4.87119">
        <ele>286</ele>
        <time>2018-08-18T09:28:20Z</time>
      </trkpt>
      <trkpt lat="45.96784" lon="4.87127">
        <ele>286</ele>
        <time>2018-08-18T09:28:22Z</time>
      </trkpt>
      <trkpt lat="45.96786" lon="4.87134">
        <ele>286</ele>
        <time>2018-08-18T09:28:23Z</time>
      </trkpt>
      <trkpt lat="45.96789" lon="4.8714">
        <ele>286</ele>
        <time>2018-08-18T09:28:24Z</time>
      </trkpt>
      <trkpt lat="45.96793" lon="4.87144">
        <ele>286</ele>
        <time>2018-08-18T09:28:25Z</time>
      </trkpt>
      <trkpt lat="45.96799" lon="4.87146">
        <ele>286</ele>
        <time>2018-08-18T09:28:27Z</time>
      </trkpt>
      <trkpt lat="45.96804" lon="4.87141">
        <ele>286</ele>
        <time>2018-08-18T09:28:28Z</time>
      </trkpt>
      <trkpt lat="45.96808" lon="4.87133">
        <ele>286</ele>
        <time>2018-08-18T09:28:30Z</time>
      </trkpt>
      <trkpt lat="45.96809" lon="4.87127">
        <ele>286</ele>
        <time>2018-08-18T09:28:31Z</time>
      </trkpt>
      <trkpt lat="45.96811" lon="4.87122">
        <ele>286</ele>
        <time>2018-08-18T09:28:32Z</time>
      </trkpt>
      <trkpt lat="45.96813" lon="4.87115">
        <ele>286</ele>
        <time>2018-08-18T09:28:33Z</time>
      </trkpt>
      <trkpt lat="45.96816" lon="4.87103">
        <ele>287</ele>
        <time>2018-08-18T09:28:35Z</time>
      </trkpt>
      <trkpt lat="45.96816" lon="4.87094">
        <ele>287</ele>
        <time>2018-08-18T09:28:36Z</time>
      </trkpt>
      <trkpt lat="45.96817" lon="4.87087">
        <ele>287</ele>
        <time>2018-08-18T09:28:37Z</time>
      </trkpt>
      <trkpt lat="45.96819" lon="4.87081">
        <ele>287</ele>
        <time>2018-08-18T09:28:38Z</time>
      </trkpt>
      <trkpt lat="45.96823" lon="4.87074">
        <ele>287</ele>
        <time>2018-08-18T09:28:40Z</time>
      </trkpt>
      <trkpt lat="45.96824" lon="4.87069">
        <ele>287</ele>
        <time>2018-08-18T09:28:41Z</time>
      </trkpt>
      <trkpt lat="45.96826" lon="4.8706">
        <ele>287</ele>
        <time>2018-08-18T09:28:43Z</time>
      </trkpt>
      <trkpt lat="45.96828" lon="4.87058">
        <ele>287</ele>
        <time>2018-08-18T09:28:44Z</time>
      </trkpt>
      <trkpt lat="45.96831" lon="4.87049">
        <ele>287</ele>
        <time>2018-08-18T09:28:46Z</time>
      </trkpt>
      <trkpt lat="45.96832" lon="4.87043">
        <ele>287</ele>
        <time>2018-08-18T09:28:47Z</time>
      </trkpt>
      <trkpt lat="45.96835" lon="4.87032">
        <ele>287</ele>
        <time>2018-08-18T09:28:49Z</time>
      </trkpt>
      <trkpt lat="45.96836" lon="4.87026">
        <ele>287</ele>
        <time>2018-08-18T09:28:50Z</time>
      </trkpt>
      <trkpt lat="45.96842" lon="4.87016">
        <ele>287</ele>
        <time>2018-08-18T09:28:52Z</time>
      </trkpt>
      <trkpt lat="45.96843" lon="4.87008">
        <ele>288</ele>
        <time>2018-08-18T09:28:53Z</time>
      </trkpt>
      <trkpt lat="45.96847" lon="4.87004">
        <ele>288</ele>
        <time>2018-08-18T09:28:54Z</time>
      </trkpt>
      <trkpt lat="45.9685" lon="4.86998">
        <ele>288</ele>
        <time>2018-08-18T09:28:55Z</time>
      </trkpt>
      <trkpt lat="45.96852" lon="4.8699">
        <ele>288</ele>
        <time>2018-08-18T09:28:58Z</time>
      </trkpt>
      <trkpt lat="45.96854" lon="4.86981">
        <ele>288</ele>
        <time>2018-08-18T09:28:59Z</time>
      </trkpt>
      <trkpt lat="45.96857" lon="4.8697">
        <ele>288</ele>
        <time>2018-08-18T09:29:01Z</time>
      </trkpt>
      <trkpt lat="45.96859" lon="4.86962">
        <ele>288</ele>
        <time>2018-08-18T09:29:02Z</time>
      </trkpt>
      <trkpt lat="45.96862" lon="4.86951">
        <ele>288</ele>
        <time>2018-08-18T09:29:04Z</time>
      </trkpt>
      <trkpt lat="45.96865" lon="4.86947">
        <ele>288</ele>
        <time>2018-08-18T09:29:05Z</time>
      </trkpt>
      <trkpt lat="45.96867" lon="4.86942">
        <ele>288</ele>
        <time>2018-08-18T09:29:06Z</time>
      </trkpt>
      <trkpt lat="45.96869" lon="4.86935">
        <ele>288</ele>
        <time>2018-08-18T09:29:07Z</time>
      </trkpt>
      <trkpt lat="45.96872" lon="4.86927">
        <ele>288</ele>
        <time>2018-08-18T09:29:08Z</time>
      </trkpt>
      <trkpt lat="45.96874" lon="4.86921">
        <ele>288</ele>
        <time>2018-08-18T09:29:09Z</time>
      </trkpt>
      <trkpt lat="45.96877" lon="4.86912">
        <ele>289</ele>
        <time>2018-08-18T09:29:10Z</time>
      </trkpt>
      <trkpt lat="45.96879" lon="4.86907">
        <ele>289</ele>
        <time>2018-08-18T09:29:11Z</time>
      </trkpt>
      <trkpt lat="45.9688" lon="4.86901">
        <ele>289</ele>
        <time>2018-08-18T09:29:12Z</time>
      </trkpt>
      <trkpt lat="45.96882" lon="4.86893">
        <ele>289</ele>
        <time>2018-08-18T09:29:13Z</time>
      </trkpt>
      <trkpt lat="45.96884" lon="4.86888">
        <ele>289</ele>
        <time>2018-08-18T09:29:14Z</time>
      </trkpt>
      <trkpt lat="45.96885" lon="4.8688">
        <ele>289</ele>
        <time>2018-08-18T09:29:15Z</time>
      </trkpt>
      <trkpt lat="45.96885" lon="4.86873">
        <ele>289</ele>
        <time>2018-08-18T09:29:16Z</time>
      </trkpt>
      <trkpt lat="45.96887" lon="4.86867">
        <ele>289</ele>
        <time>2018-08-18T09:29:17Z</time>
      </trkpt>
      <trkpt lat="45.96888" lon="4.86859">
        <ele>289</ele>
        <time>2018-08-18T09:29:18Z</time>
      </trkpt>
      <trkpt lat="45.96891" lon="4.86853">
        <ele>289</ele>
        <time>2018-08-18T09:29:19Z</time>
      </trkpt>
      <trkpt lat="45.96894" lon="4.86842">
        <ele>289</ele>
        <time>2018-08-18T09:29:21Z</time>
      </trkpt>
      <trkpt lat="45.96895" lon="4.86837">
        <ele>288</ele>
        <time>2018-08-18T09:29:22Z</time>
      </trkpt>
      <trkpt lat="45.96899" lon="4.86828">
        <ele>288</ele>
        <time>2018-08-18T09:29:24Z</time>
      </trkpt>
      <trkpt lat="45.969" lon="4.86821">
        <ele>288</ele>
        <time>2018-08-18T09:29:25Z</time>
      </trkpt>
      <trkpt lat="45.96907" lon="4.86819">
        <ele>288</ele>
        <time>2018-08-18T09:29:28Z</time>
      </trkpt>
      <trkpt lat="45.96909" lon="4.86817">
        <ele>288</ele>
        <time>2018-08-18T09:29:29Z</time>
      </trkpt>
      <trkpt lat="45.96916" lon="4.86814">
        <ele>288</ele>
        <time>2018-08-18T09:29:32Z</time>
      </trkpt>
      <trkpt lat="45.96918" lon="4.86815">
        <ele>287</ele>
        <time>2018-08-18T09:29:33Z</time>
      </trkpt>
      <trkpt lat="45.96929" lon="4.8682">
        <ele>287</ele>
        <time>2018-08-18T09:29:34Z</time>
      </trkpt>
      <trkpt lat="45.96933" lon="4.86822">
        <ele>287</ele>
        <time>2018-08-18T09:29:35Z</time>
      </trkpt>
      <trkpt lat="45.96939" lon="4.86826">
        <ele>287</ele>
        <time>2018-08-18T09:29:36Z</time>
      </trkpt>
      <trkpt lat="45.96943" lon="4.86828">
        <ele>287</ele>
        <time>2018-08-18T09:29:37Z</time>
      </trkpt>
      <trkpt lat="45.96949" lon="4.86831">
        <ele>287</ele>
        <time>2018-08-18T09:29:38Z</time>
      </trkpt>
      <trkpt lat="45.96954" lon="4.86835">
        <ele>287</ele>
        <time>2018-08-18T09:29:39Z</time>
      </trkpt>
      <trkpt lat="45.96959" lon="4.86837">
        <ele>287</ele>
        <time>2018-08-18T09:29:40Z</time>
      </trkpt>
      <trkpt lat="45.96964" lon="4.86839">
        <ele>287</ele>
        <time>2018-08-18T09:29:41Z</time>
      </trkpt>
      <trkpt lat="45.96969" lon="4.86841">
        <ele>286</ele>
        <time>2018-08-18T09:29:42Z</time>
      </trkpt>
      <trkpt lat="45.96974" lon="4.86842">
        <ele>286</ele>
        <time>2018-08-18T09:29:43Z</time>
      </trkpt>
      <trkpt lat="45.96979" lon="4.86843">
        <ele>286</ele>
        <time>2018-08-18T09:29:44Z</time>
      </trkpt>
      <trkpt lat="45.96984" lon="4.86844">
        <ele>286</ele>
        <time>2018-08-18T09:29:45Z</time>
      </trkpt>
      <trkpt lat="45.96988" lon="4.86846">
        <ele>286</ele>
        <time>2018-08-18T09:29:46Z</time>
      </trkpt>
      <trkpt lat="45.96993" lon="4.86846">
        <ele>286</ele>
        <time>2018-08-18T09:29:47Z</time>
      </trkpt>
      <trkpt lat="45.96998" lon="4.86846">
        <ele>286</ele>
        <time>2018-08-18T09:29:48Z</time>
      </trkpt>
      <trkpt lat="45.97003" lon="4.86846">
        <ele>285</ele>
        <time>2018-08-18T09:29:49Z</time>
      </trkpt>
      <trkpt lat="45.97009" lon="4.86845">
        <ele>285</ele>
        <time>2018-08-18T09:29:50Z</time>
      </trkpt>
      <trkpt lat="45.97014" lon="4.86845">
        <ele>285</ele>
        <time>2018-08-18T09:29:51Z</time>
      </trkpt>
      <trkpt lat="45.97019" lon="4.86843">
        <ele>285</ele>
        <time>2018-08-18T09:29:52Z</time>
      </trkpt>
      <trkpt lat="45.97026" lon="4.86841">
        <ele>285</ele>
        <time>2018-08-18T09:29:53Z</time>
      </trkpt>
      <trkpt lat="45.97032" lon="4.86841">
        <ele>285</ele>
        <time>2018-08-18T09:29:54Z</time>
      </trkpt>
      <trkpt lat="45.97038" lon="4.8684">
        <ele>285</ele>
        <time>2018-08-18T09:29:55Z</time>
      </trkpt>
      <trkpt lat="45.97043" lon="4.86839">
        <ele>285</ele>
        <time>2018-08-18T09:29:56Z</time>
      </trkpt>
      <trkpt lat="45.97049" lon="4.86839">
        <ele>285</ele>
        <time>2018-08-18T09:29:57Z</time>
      </trkpt>
      <trkpt lat="45.97053" lon="4.86839">
        <ele>285</ele>
        <time>2018-08-18T09:29:58Z</time>
      </trkpt>
      <trkpt lat="45.97062" lon="4.86839">
        <ele>284</ele>
        <time>2018-08-18T09:30:00Z</time>
      </trkpt>
      <trkpt lat="45.97067" lon="4.86838">
        <ele>284</ele>
        <time>2018-08-18T09:30:01Z</time>
      </trkpt>
      <trkpt lat="45.97071" lon="4.86838">
        <ele>284</ele>
        <time>2018-08-18T09:30:02Z</time>
      </trkpt>
      <trkpt lat="45.97077" lon="4.86836">
        <ele>284</ele>
        <time>2018-08-18T09:30:03Z</time>
      </trkpt>
      <trkpt lat="45.97081" lon="4.86834">
        <ele>284</ele>
        <time>2018-08-18T09:30:04Z</time>
      </trkpt>
      <trkpt lat="45.97086" lon="4.86832">
        <ele>284</ele>
        <time>2018-08-18T09:30:05Z</time>
      </trkpt>
      <trkpt lat="45.97092" lon="4.86831">
        <ele>284</ele>
        <time>2018-08-18T09:30:06Z</time>
      </trkpt>
      <trkpt lat="45.97097" lon="4.86829">
        <ele>284</ele>
        <time>2018-08-18T09:30:07Z</time>
      </trkpt>
      <trkpt lat="45.97102" lon="4.86829">
        <ele>284</ele>
        <time>2018-08-18T09:30:08Z</time>
      </trkpt>
      <trkpt lat="45.97107" lon="4.86828">
        <ele>284</ele>
        <time>2018-08-18T09:30:09Z</time>
      </trkpt>
      <trkpt lat="45.97111" lon="4.86827">
        <ele>283</ele>
        <time>2018-08-18T09:30:10Z</time>
      </trkpt>
      <trkpt lat="45.97116" lon="4.86826">
        <ele>283</ele>
        <time>2018-08-18T09:30:11Z</time>
      </trkpt>
      <trkpt lat="45.97121" lon="4.86824">
        <ele>283</ele>
        <time>2018-08-18T09:30:12Z</time>
      </trkpt>
      <trkpt lat="45.97127" lon="4.86822">
        <ele>283</ele>
        <time>2018-08-18T09:30:13Z</time>
      </trkpt>
      <trkpt lat="45.97135" lon="4.86819">
        <ele>283</ele>
        <time>2018-08-18T09:30:15Z</time>
      </trkpt>
      <trkpt lat="45.97137" lon="4.8682">
        <ele>283</ele>
        <time>2018-08-18T09:30:16Z</time>
      </trkpt>
      <trkpt lat="45.97141" lon="4.86819">
        <ele>283</ele>
        <time>2018-08-18T09:30:17Z</time>
      </trkpt>
      <trkpt lat="45.97146" lon="4.86816">
        <ele>283</ele>
        <time>2018-08-18T09:30:18Z</time>
      </trkpt>
      <trkpt lat="45.9715" lon="4.86814">
        <ele>283</ele>
        <time>2018-08-18T09:30:19Z</time>
      </trkpt>
      <trkpt lat="45.97155" lon="4.86813">
        <ele>283</ele>
        <time>2018-08-18T09:30:20Z</time>
      </trkpt>
      <trkpt lat="45.97163" lon="4.8681">
        <ele>283</ele>
        <time>2018-08-18T09:30:22Z</time>
      </trkpt>
      <trkpt lat="45.97167" lon="4.86808">
        <ele>283</ele>
        <time>2018-08-18T09:30:23Z</time>
      </trkpt>
      <trkpt lat="45.9717" lon="4.86808">
        <ele>283</ele>
        <time>2018-08-18T09:30:24Z</time>
      </trkpt>
      <trkpt lat="45.97179" lon="4.86801">
        <ele>284</ele>
        <time>2018-08-18T09:30:25Z</time>
      </trkpt>
      <trkpt lat="45.97182" lon="4.86801">
        <ele>284</ele>
        <time>2018-08-18T09:30:26Z</time>
      </trkpt>
      <trkpt lat="45.97188" lon="4.86799">
        <ele>284</ele>
        <time>2018-08-18T09:30:27Z</time>
      </trkpt>
      <trkpt lat="45.97192" lon="4.86797">
        <ele>284</ele>
        <time>2018-08-18T09:30:28Z</time>
      </trkpt>
      <trkpt lat="45.97198" lon="4.86795">
        <ele>284</ele>
        <time>2018-08-18T09:30:29Z</time>
      </trkpt>
      <trkpt lat="45.97203" lon="4.86793">
        <ele>284</ele>
        <time>2018-08-18T09:30:30Z</time>
      </trkpt>
      <trkpt lat="45.97209" lon="4.86791">
        <ele>284</ele>
        <time>2018-08-18T09:30:31Z</time>
      </trkpt>
      <trkpt lat="45.97214" lon="4.8679">
        <ele>284</ele>
        <time>2018-08-18T09:30:32Z</time>
      </trkpt>
      <trkpt lat="45.97219" lon="4.86789">
        <ele>284</ele>
        <time>2018-08-18T09:30:33Z</time>
      </trkpt>
      <trkpt lat="45.97225" lon="4.86789">
        <ele>284</ele>
        <time>2018-08-18T09:30:34Z</time>
      </trkpt>
      <trkpt lat="45.97231" lon="4.86788">
        <ele>284</ele>
        <time>2018-08-18T09:30:35Z</time>
      </trkpt>
      <trkpt lat="45.97237" lon="4.86791">
        <ele>284</ele>
        <time>2018-08-18T09:30:36Z</time>
      </trkpt>
      <trkpt lat="45.97242" lon="4.86793">
        <ele>284</ele>
        <time>2018-08-18T09:30:37Z</time>
      </trkpt>
      <trkpt lat="45.97246" lon="4.86797">
        <ele>284</ele>
        <time>2018-08-18T09:30:38Z</time>
      </trkpt>
      <trkpt lat="45.97251" lon="4.86801">
        <ele>285</ele>
        <time>2018-08-18T09:30:39Z</time>
      </trkpt>
      <trkpt lat="45.97255" lon="4.86807">
        <ele>285</ele>
        <time>2018-08-18T09:30:40Z</time>
      </trkpt>
      <trkpt lat="45.97259" lon="4.8681">
        <ele>285</ele>
        <time>2018-08-18T09:30:41Z</time>
      </trkpt>
      <trkpt lat="45.97261" lon="4.86817">
        <ele>285</ele>
        <time>2018-08-18T09:30:42Z</time>
      </trkpt>
      <trkpt lat="45.97265" lon="4.86821">
        <ele>285</ele>
        <time>2018-08-18T09:30:43Z</time>
      </trkpt>
      <trkpt lat="45.97267" lon="4.86828">
        <ele>285</ele>
        <time>2018-08-18T09:30:44Z</time>
      </trkpt>
      <trkpt lat="45.97269" lon="4.86835">
        <ele>285</ele>
        <time>2018-08-18T09:30:45Z</time>
      </trkpt>
      <trkpt lat="45.97274" lon="4.86844">
        <ele>285</ele>
        <time>2018-08-18T09:30:47Z</time>
      </trkpt>
      <trkpt lat="45.97277" lon="4.86848">
        <ele>285</ele>
        <time>2018-08-18T09:30:48Z</time>
      </trkpt>
      <trkpt lat="45.97282" lon="4.86853">
        <ele>285</ele>
        <time>2018-08-18T09:30:49Z</time>
      </trkpt>
      <trkpt lat="45.97286" lon="4.86859">
        <ele>285</ele>
        <time>2018-08-18T09:30:50Z</time>
      </trkpt>
      <trkpt lat="45.97289" lon="4.86864">
        <ele>285</ele>
        <time>2018-08-18T09:30:51Z</time>
      </trkpt>
      <trkpt lat="45.97292" lon="4.86869">
        <ele>284</ele>
        <time>2018-08-18T09:30:52Z</time>
      </trkpt>
      <trkpt lat="45.97295" lon="4.86876">
        <ele>284</ele>
        <time>2018-08-18T09:30:53Z</time>
      </trkpt>
      <trkpt lat="45.97298" lon="4.86881">
        <ele>284</ele>
        <time>2018-08-18T09:30:54Z</time>
      </trkpt>
      <trkpt lat="45.97302" lon="4.86886">
        <ele>284</ele>
        <time>2018-08-18T09:30:55Z</time>
      </trkpt>
      <trkpt lat="45.97305" lon="4.86891">
        <ele>284</ele>
        <time>2018-08-18T09:30:56Z</time>
      </trkpt>
      <trkpt lat="45.9731" lon="4.86897">
        <ele>284</ele>
        <time>2018-08-18T09:30:57Z</time>
      </trkpt>
      <trkpt lat="45.97314" lon="4.869">
        <ele>284</ele>
        <time>2018-08-18T09:30:58Z</time>
      </trkpt>
      <trkpt lat="45.97317" lon="4.86904">
        <ele>284</ele>
        <time>2018-08-18T09:30:59Z</time>
      </trkpt>
      <trkpt lat="45.97321" lon="4.86909">
        <ele>284</ele>
        <time>2018-08-18T09:31:00Z</time>
      </trkpt>
      <trkpt lat="45.97324" lon="4.86913">
        <ele>284</ele>
        <time>2018-08-18T09:31:01Z</time>
      </trkpt>
      <trkpt lat="45.97327" lon="4.86918">
        <ele>284</ele>
        <time>2018-08-18T09:31:02Z</time>
      </trkpt>
      <trkpt lat="45.9733" lon="4.86923">
        <ele>284</ele>
        <time>2018-08-18T09:31:03Z</time>
      </trkpt>
      <trkpt lat="45.97337" lon="4.8693">
        <ele>284</ele>
        <time>2018-08-18T09:31:04Z</time>
      </trkpt>
      <trkpt lat="45.97341" lon="4.86936">
        <ele>284</ele>
        <time>2018-08-18T09:31:05Z</time>
      </trkpt>
      <trkpt lat="45.97344" lon="4.8694">
        <ele>284</ele>
        <time>2018-08-18T09:31:06Z</time>
      </trkpt>
      <trkpt lat="45.97348" lon="4.86945">
        <ele>284</ele>
        <time>2018-08-18T09:31:07Z</time>
      </trkpt>
      <trkpt lat="45.97352" lon="4.8695">
        <ele>284</ele>
        <time>2018-08-18T09:31:08Z</time>
      </trkpt>
      <trkpt lat="45.97358" lon="4.86957">
        <ele>284</ele>
        <time>2018-08-18T09:31:10Z</time>
      </trkpt>
      <trkpt lat="45.9736" lon="4.86963">
        <ele>285</ele>
        <time>2018-08-18T09:31:11Z</time>
      </trkpt>
      <trkpt lat="45.97365" lon="4.8697">
        <ele>285</ele>
        <time>2018-08-18T09:31:13Z</time>
      </trkpt>
      <trkpt lat="45.97366" lon="4.86971">
        <ele>285</ele>
        <time>2018-08-18T09:31:14Z</time>
      </trkpt>
      <trkpt lat="45.97371" lon="4.86975">
        <ele>285</ele>
        <time>2018-08-18T09:31:15Z</time>
      </trkpt>
      <trkpt lat="45.97375" lon="4.8698">
        <ele>285</ele>
        <time>2018-08-18T09:31:16Z</time>
      </trkpt>
      <trkpt lat="45.9738" lon="4.86985">
        <ele>285</ele>
        <time>2018-08-18T09:31:17Z</time>
      </trkpt>
      <trkpt lat="45.97385" lon="4.86988">
        <ele>285</ele>
        <time>2018-08-18T09:31:18Z</time>
      </trkpt>
      <trkpt lat="45.97389" lon="4.86992">
        <ele>285</ele>
        <time>2018-08-18T09:31:19Z</time>
      </trkpt>
      <trkpt lat="45.97394" lon="4.86996">
        <ele>285</ele>
        <time>2018-08-18T09:31:20Z</time>
      </trkpt>
      <trkpt lat="45.97398" lon="4.87001">
        <ele>285</ele>
        <time>2018-08-18T09:31:21Z</time>
      </trkpt>
      <trkpt lat="45.97402" lon="4.87006">
        <ele>285</ele>
        <time>2018-08-18T09:31:22Z</time>
      </trkpt>
      <trkpt lat="45.97407" lon="4.8701">
        <ele>285</ele>
        <time>2018-08-18T09:31:23Z</time>
      </trkpt>
      <trkpt lat="45.9741" lon="4.87013">
        <ele>285</ele>
        <time>2018-08-18T09:31:24Z</time>
      </trkpt>
      <trkpt lat="45.97416" lon="4.87016">
        <ele>285</ele>
        <time>2018-08-18T09:31:25Z</time>
      </trkpt>
      <trkpt lat="45.97419" lon="4.8702">
        <ele>284</ele>
        <time>2018-08-18T09:31:26Z</time>
      </trkpt>
      <trkpt lat="45.97423" lon="4.87024">
        <ele>284</ele>
        <time>2018-08-18T09:31:27Z</time>
      </trkpt>
      <trkpt lat="45.97427" lon="4.87027">
        <ele>284</ele>
        <time>2018-08-18T09:31:28Z</time>
      </trkpt>
      <trkpt lat="45.9743" lon="4.87033">
        <ele>284</ele>
        <time>2018-08-18T09:31:29Z</time>
      </trkpt>
      <trkpt lat="45.97433" lon="4.87038">
        <ele>284</ele>
        <time>2018-08-18T09:31:30Z</time>
      </trkpt>
      <trkpt lat="45.9744" lon="4.87041">
        <ele>284</ele>
        <time>2018-08-18T09:31:31Z</time>
      </trkpt>
      <trkpt lat="45.97444" lon="4.87046">
        <ele>284</ele>
        <time>2018-08-18T09:31:32Z</time>
      </trkpt>
      <trkpt lat="45.97452" lon="4.87053">
        <ele>284</ele>
        <time>2018-08-18T09:31:34Z</time>
      </trkpt>
      <trkpt lat="45.97456" lon="4.87058">
        <ele>284</ele>
        <time>2018-08-18T09:31:35Z</time>
      </trkpt>
      <trkpt lat="45.9746" lon="4.87062">
        <ele>284</ele>
        <time>2018-08-18T09:31:36Z</time>
      </trkpt>
      <trkpt lat="45.97464" lon="4.87065">
        <ele>284</ele>
        <time>2018-08-18T09:31:37Z</time>
      </trkpt>
      <trkpt lat="45.9747" lon="4.87072">
        <ele>284</ele>
        <time>2018-08-18T09:31:39Z</time>
      </trkpt>
      <trkpt lat="45.97474" lon="4.87077">
        <ele>284</ele>
        <time>2018-08-18T09:31:40Z</time>
      </trkpt>
      <trkpt lat="45.97479" lon="4.87082">
        <ele>284</ele>
        <time>2018-08-18T09:31:41Z</time>
      </trkpt>
      <trkpt lat="45.97483" lon="4.87086">
        <ele>283</ele>
        <time>2018-08-18T09:31:42Z</time>
      </trkpt>
      <trkpt lat="45.97488" lon="4.87091">
        <ele>283</ele>
        <time>2018-08-18T09:31:43Z</time>
      </trkpt>
      <trkpt lat="45.97493" lon="4.87096">
        <ele>283</ele>
        <time>2018-08-18T09:31:44Z</time>
      </trkpt>
      <trkpt lat="45.97498" lon="4.87101">
        <ele>283</ele>
        <time>2018-08-18T09:31:45Z</time>
      </trkpt>
      <trkpt lat="45.97503" lon="4.87105">
        <ele>283</ele>
        <time>2018-08-18T09:31:46Z</time>
      </trkpt>
      <trkpt lat="45.97507" lon="4.87111">
        <ele>283</ele>
        <time>2018-08-18T09:31:47Z</time>
      </trkpt>
      <trkpt lat="45.97511" lon="4.87117">
        <ele>283</ele>
        <time>2018-08-18T09:31:48Z</time>
      </trkpt>
      <trkpt lat="45.97516" lon="4.8712">
        <ele>283</ele>
        <time>2018-08-18T09:31:49Z</time>
      </trkpt>
      <trkpt lat="45.9752" lon="4.87126">
        <ele>283</ele>
        <time>2018-08-18T09:31:50Z</time>
      </trkpt>
      <trkpt lat="45.97525" lon="4.87131">
        <ele>283</ele>
        <time>2018-08-18T09:31:51Z</time>
      </trkpt>
      <trkpt lat="45.9753" lon="4.87136">
        <ele>283</ele>
        <time>2018-08-18T09:31:52Z</time>
      </trkpt>
      <trkpt lat="45.97535" lon="4.8714">
        <ele>283</ele>
        <time>2018-08-18T09:31:53Z</time>
      </trkpt>
      <trkpt lat="45.9754" lon="4.87145">
        <ele>283</ele>
        <time>2018-08-18T09:31:54Z</time>
      </trkpt>
      <trkpt lat="45.97546" lon="4.87148">
        <ele>283</ele>
        <time>2018-08-18T09:31:55Z</time>
      </trkpt>
      <trkpt lat="45.97551" lon="4.87155">
        <ele>283</ele>
        <time>2018-08-18T09:31:56Z</time>
      </trkpt>
      <trkpt lat="45.97555" lon="4.87161">
        <ele>283</ele>
        <time>2018-08-18T09:31:57Z</time>
      </trkpt>
      <trkpt lat="45.9756" lon="4.87166">
        <ele>283</ele>
        <time>2018-08-18T09:31:58Z</time>
      </trkpt>
      <trkpt lat="45.97565" lon="4.8717">
        <ele>283</ele>
        <time>2018-08-18T09:31:59Z</time>
      </trkpt>
      <trkpt lat="45.97567" lon="4.87173">
        <ele>283</ele>
        <time>2018-08-18T09:32:00Z</time>
      </trkpt>
      <trkpt lat="45.97573" lon="4.87179">
        <ele>283</ele>
        <time>2018-08-18T09:32:01Z</time>
      </trkpt>
      <trkpt lat="45.97577" lon="4.87184">
        <ele>283</ele>
        <time>2018-08-18T09:32:02Z</time>
      </trkpt>
      <trkpt lat="45.97582" lon="4.87188">
        <ele>283</ele>
        <time>2018-08-18T09:32:03Z</time>
      </trkpt>
      <trkpt lat="45.97587" lon="4.87192">
        <ele>283</ele>
        <time>2018-08-18T09:32:04Z</time>
      </trkpt>
      <trkpt lat="45.97593" lon="4.87198">
        <ele>283</ele>
        <time>2018-08-18T09:32:05Z</time>
      </trkpt>
      <trkpt lat="45.97598" lon="4.87202">
        <ele>284</ele>
        <time>2018-08-18T09:32:06Z</time>
      </trkpt>
      <trkpt lat="45.97603" lon="4.87206">
        <ele>284</ele>
        <time>2018-08-18T09:32:07Z</time>
      </trkpt>
      <trkpt lat="45.97608" lon="4.8721">
        <ele>284</ele>
        <time>2018-08-18T09:32:08Z</time>
      </trkpt>
      <trkpt lat="45.97613" lon="4.87214">
        <ele>284</ele>
        <time>2018-08-18T09:32:09Z</time>
      </trkpt>
      <trkpt lat="45.97618" lon="4.8722">
        <ele>284</ele>
        <time>2018-08-18T09:32:10Z</time>
      </trkpt>
      <trkpt lat="45.97623" lon="4.87225">
        <ele>284</ele>
        <time>2018-08-18T09:32:11Z</time>
      </trkpt>
      <trkpt lat="45.97627" lon="4.87229">
        <ele>284</ele>
        <time>2018-08-18T09:32:12Z</time>
      </trkpt>
      <trkpt lat="45.97632" lon="4.87233">
        <ele>284</ele>
        <time>2018-08-18T09:32:13Z</time>
      </trkpt>
      <trkpt lat="45.97637" lon="4.87237">
        <ele>284</ele>
        <time>2018-08-18T09:32:14Z</time>
      </trkpt>
      <trkpt lat="45.97642" lon="4.87242">
        <ele>284</ele>
        <time>2018-08-18T09:32:15Z</time>
      </trkpt>
      <trkpt lat="45.97647" lon="4.87246">
        <ele>285</ele>
        <time>2018-08-18T09:32:16Z</time>
      </trkpt>
      <trkpt lat="45.97653" lon="4.87251">
        <ele>285</ele>
        <time>2018-08-18T09:32:17Z</time>
      </trkpt>
      <trkpt lat="45.97657" lon="4.87256">
        <ele>285</ele>
        <time>2018-08-18T09:32:18Z</time>
      </trkpt>
      <trkpt lat="45.97662" lon="4.87261">
        <ele>285</ele>
        <time>2018-08-18T09:32:19Z</time>
      </trkpt>
      <trkpt lat="45.97667" lon="4.87267">
        <ele>285</ele>
        <time>2018-08-18T09:32:20Z</time>
      </trkpt>
      <trkpt lat="45.97671" lon="4.8727">
        <ele>286</ele>
        <time>2018-08-18T09:32:21Z</time>
      </trkpt>
      <trkpt lat="45.97676" lon="4.87274">
        <ele>286</ele>
        <time>2018-08-18T09:32:22Z</time>
      </trkpt>
      <trkpt lat="45.9768" lon="4.87278">
        <ele>286</ele>
        <time>2018-08-18T09:32:23Z</time>
      </trkpt>
      <trkpt lat="45.97685" lon="4.87281">
        <ele>286</ele>
        <time>2018-08-18T09:32:24Z</time>
      </trkpt>
      <trkpt lat="45.97688" lon="4.87286">
        <ele>286</ele>
        <time>2018-08-18T09:32:25Z</time>
      </trkpt>
      <trkpt lat="45.97693" lon="4.87291">
        <ele>286</ele>
        <time>2018-08-18T09:32:26Z</time>
      </trkpt>
      <trkpt lat="45.97697" lon="4.87296">
        <ele>286</ele>
        <time>2018-08-18T09:32:27Z</time>
      </trkpt>
      <trkpt lat="45.97701" lon="4.873">
        <ele>286</ele>
        <time>2018-08-18T09:32:28Z</time>
      </trkpt>
      <trkpt lat="45.97705" lon="4.87304">
        <ele>286</ele>
        <time>2018-08-18T09:32:29Z</time>
      </trkpt>
      <trkpt lat="45.97709" lon="4.87309">
        <ele>286</ele>
        <time>2018-08-18T09:32:30Z</time>
      </trkpt>
      <trkpt lat="45.97713" lon="4.87313">
        <ele>286</ele>
        <time>2018-08-18T09:32:31Z</time>
      </trkpt>
      <trkpt lat="45.97716" lon="4.8732">
        <ele>286</ele>
        <time>2018-08-18T09:32:32Z</time>
      </trkpt>
      <trkpt lat="45.97721" lon="4.87324">
        <ele>286</ele>
        <time>2018-08-18T09:32:33Z</time>
      </trkpt>
      <trkpt lat="45.97724" lon="4.87331">
        <ele>286</ele>
        <time>2018-08-18T09:32:34Z</time>
      </trkpt>
      <trkpt lat="45.97728" lon="4.87336">
        <ele>286</ele>
        <time>2018-08-18T09:32:35Z</time>
      </trkpt>
      <trkpt lat="45.97732" lon="4.87343">
        <ele>286</ele>
        <time>2018-08-18T09:32:36Z</time>
      </trkpt>
      <trkpt lat="45.97737" lon="4.87348">
        <ele>286</ele>
        <time>2018-08-18T09:32:37Z</time>
      </trkpt>
      <trkpt lat="45.97742" lon="4.87353">
        <ele>286</ele>
        <time>2018-08-18T09:32:38Z</time>
      </trkpt>
      <trkpt lat="45.97747" lon="4.87358">
        <ele>286</ele>
        <time>2018-08-18T09:32:39Z</time>
      </trkpt>
      <trkpt lat="45.9775" lon="4.87362">
        <ele>285</ele>
        <time>2018-08-18T09:32:40Z</time>
      </trkpt>
      <trkpt lat="45.97756" lon="4.8737">
        <ele>285</ele>
        <time>2018-08-18T09:32:42Z</time>
      </trkpt>
      <trkpt lat="45.97758" lon="4.87373">
        <ele>285</ele>
        <time>2018-08-18T09:32:43Z</time>
      </trkpt>
      <trkpt lat="45.97762" lon="4.87378">
        <ele>284</ele>
        <time>2018-08-18T09:32:44Z</time>
      </trkpt>
      <trkpt lat="45.97765" lon="4.87382">
        <ele>284</ele>
        <time>2018-08-18T09:32:45Z</time>
      </trkpt>
      <trkpt lat="45.97769" lon="4.87386">
        <ele>284</ele>
        <time>2018-08-18T09:32:46Z</time>
      </trkpt>
      <trkpt lat="45.97773" lon="4.87393">
        <ele>284</ele>
        <time>2018-08-18T09:32:47Z</time>
      </trkpt>
      <trkpt lat="45.97777" lon="4.87399">
        <ele>284</ele>
        <time>2018-08-18T09:32:48Z</time>
      </trkpt>
      <trkpt lat="45.97782" lon="4.87405">
        <ele>284</ele>
        <time>2018-08-18T09:32:49Z</time>
      </trkpt>
      <trkpt lat="45.97786" lon="4.87411">
        <ele>284</ele>
        <time>2018-08-18T09:32:50Z</time>
      </trkpt>
      <trkpt lat="45.9779" lon="4.87417">
        <ele>284</ele>
        <time>2018-08-18T09:32:51Z</time>
      </trkpt>
      <trkpt lat="45.97795" lon="4.87422">
        <ele>283</ele>
        <time>2018-08-18T09:32:52Z</time>
      </trkpt>
      <trkpt lat="45.97799" lon="4.87427">
        <ele>283</ele>
        <time>2018-08-18T09:32:53Z</time>
      </trkpt>
      <trkpt lat="45.97804" lon="4.87434">
        <ele>283</ele>
        <time>2018-08-18T09:32:54Z</time>
      </trkpt>
      <trkpt lat="45.97808" lon="4.87437">
        <ele>282</ele>
        <time>2018-08-18T09:32:55Z</time>
      </trkpt>
      <trkpt lat="45.97814" lon="4.87442">
        <ele>282</ele>
        <time>2018-08-18T09:32:56Z</time>
      </trkpt>
      <trkpt lat="45.9782" lon="4.87448">
        <ele>282</ele>
        <time>2018-08-18T09:32:57Z</time>
      </trkpt>
      <trkpt lat="45.97826" lon="4.87454">
        <ele>282</ele>
        <time>2018-08-18T09:32:58Z</time>
      </trkpt>
      <trkpt lat="45.97831" lon="4.87459">
        <ele>282</ele>
        <time>2018-08-18T09:32:59Z</time>
      </trkpt>
      <trkpt lat="45.97836" lon="4.87464">
        <ele>281</ele>
        <time>2018-08-18T09:33:00Z</time>
      </trkpt>
      <trkpt lat="45.97841" lon="4.87471">
        <ele>281</ele>
        <time>2018-08-18T09:33:01Z</time>
      </trkpt>
      <trkpt lat="45.97847" lon="4.87477">
        <ele>281</ele>
        <time>2018-08-18T09:33:02Z</time>
      </trkpt>
      <trkpt lat="45.97852" lon="4.87482">
        <ele>281</ele>
        <time>2018-08-18T09:33:03Z</time>
      </trkpt>
      <trkpt lat="45.97858" lon="4.87488">
        <ele>281</ele>
        <time>2018-08-18T09:33:04Z</time>
      </trkpt>
      <trkpt lat="45.97862" lon="4.87494">
        <ele>280</ele>
        <time>2018-08-18T09:33:05Z</time>
      </trkpt>
      <trkpt lat="45.97867" lon="4.875">
        <ele>280</ele>
        <time>2018-08-18T09:33:06Z</time>
      </trkpt>
      <trkpt lat="45.97872" lon="4.87503">
        <ele>281</ele>
        <time>2018-08-18T09:33:07Z</time>
      </trkpt>
      <trkpt lat="45.97878" lon="4.87507">
        <ele>281</ele>
        <time>2018-08-18T09:33:08Z</time>
      </trkpt>
      <trkpt lat="45.97884" lon="4.87512">
        <ele>281</ele>
        <time>2018-08-18T09:33:09Z</time>
      </trkpt>
      <trkpt lat="45.9789" lon="4.87515">
        <ele>280</ele>
        <time>2018-08-18T09:33:10Z</time>
      </trkpt>
      <trkpt lat="45.97895" lon="4.87519">
        <ele>280</ele>
        <time>2018-08-18T09:33:11Z</time>
      </trkpt>
      <trkpt lat="45.97901" lon="4.87521">
        <ele>280</ele>
        <time>2018-08-18T09:33:12Z</time>
      </trkpt>
      <trkpt lat="45.97906" lon="4.87523">
        <ele>280</ele>
        <time>2018-08-18T09:33:13Z</time>
      </trkpt>
      <trkpt lat="45.97912" lon="4.87525">
        <ele>280</ele>
        <time>2018-08-18T09:33:14Z</time>
      </trkpt>
      <trkpt lat="45.97918" lon="4.87527">
        <ele>279</ele>
        <time>2018-08-18T09:33:15Z</time>
      </trkpt>
      <trkpt lat="45.97924" lon="4.87526">
        <ele>279</ele>
        <time>2018-08-18T09:33:16Z</time>
      </trkpt>
      <trkpt lat="45.97931" lon="4.87528">
        <ele>279</ele>
        <time>2018-08-18T09:33:17Z</time>
      </trkpt>
      <trkpt lat="45.97938" lon="4.87531">
        <ele>279</ele>
        <time>2018-08-18T09:33:18Z</time>
      </trkpt>
      <trkpt lat="45.97944" lon="4.87533">
        <ele>279</ele>
        <time>2018-08-18T09:33:19Z</time>
      </trkpt>
      <trkpt lat="45.9795" lon="4.87536">
        <ele>279</ele>
        <time>2018-08-18T09:33:20Z</time>
      </trkpt>
      <trkpt lat="45.97955" lon="4.87537">
        <ele>279</ele>
        <time>2018-08-18T09:33:21Z</time>
      </trkpt>
      <trkpt lat="45.9796" lon="4.87542">
        <ele>279</ele>
        <time>2018-08-18T09:33:22Z</time>
      </trkpt>
      <trkpt lat="45.97965" lon="4.87546">
        <ele>279</ele>
        <time>2018-08-18T09:33:23Z</time>
      </trkpt>
      <trkpt lat="45.9797" lon="4.87549">
        <ele>279</ele>
        <time>2018-08-18T09:33:24Z</time>
      </trkpt>
      <trkpt lat="45.97975" lon="4.87553">
        <ele>279</ele>
        <time>2018-08-18T09:33:25Z</time>
      </trkpt>
      <trkpt lat="45.9798" lon="4.87558">
        <ele>279</ele>
        <time>2018-08-18T09:33:26Z</time>
      </trkpt>
      <trkpt lat="45.97983" lon="4.87563">
        <ele>279</ele>
        <time>2018-08-18T09:33:27Z</time>
      </trkpt>
      <trkpt lat="45.97987" lon="4.87568">
        <ele>280</ele>
        <time>2018-08-18T09:33:28Z</time>
      </trkpt>
      <trkpt lat="45.97991" lon="4.87576">
        <ele>280</ele>
        <time>2018-08-18T09:33:29Z</time>
      </trkpt>
      <trkpt lat="45.97994" lon="4.87582">
        <ele>280</ele>
        <time>2018-08-18T09:33:30Z</time>
      </trkpt>
      <trkpt lat="45.97997" lon="4.87588">
        <ele>280</ele>
        <time>2018-08-18T09:33:31Z</time>
      </trkpt>
      <trkpt lat="45.98" lon="4.87594">
        <ele>280</ele>
        <time>2018-08-18T09:33:32Z</time>
      </trkpt>
      <trkpt lat="45.98002" lon="4.87601">
        <ele>280</ele>
        <time>2018-08-18T09:33:33Z</time>
      </trkpt>
      <trkpt lat="45.98004" lon="4.87607">
        <ele>280</ele>
        <time>2018-08-18T09:33:34Z</time>
      </trkpt>
      <trkpt lat="45.98006" lon="4.87615">
        <ele>280</ele>
        <time>2018-08-18T09:33:35Z</time>
      </trkpt>
      <trkpt lat="45.98008" lon="4.87621">
        <ele>280</ele>
        <time>2018-08-18T09:33:36Z</time>
      </trkpt>
      <trkpt lat="45.9801" lon="4.87628">
        <ele>280</ele>
        <time>2018-08-18T09:33:37Z</time>
      </trkpt>
      <trkpt lat="45.98012" lon="4.87634">
        <ele>280</ele>
        <time>2018-08-18T09:33:38Z</time>
      </trkpt>
      <trkpt lat="45.98015" lon="4.87642">
        <ele>280</ele>
        <time>2018-08-18T09:33:39Z</time>
      </trkpt>
      <trkpt lat="45.98016" lon="4.87649">
        <ele>280</ele>
        <time>2018-08-18T09:33:40Z</time>
      </trkpt>
      <trkpt lat="45.98019" lon="4.87656">
        <ele>280</ele>
        <time>2018-08-18T09:33:41Z</time>
      </trkpt>
      <trkpt lat="45.98022" lon="4.87668">
        <ele>280</ele>
        <time>2018-08-18T09:33:43Z</time>
      </trkpt>
      <trkpt lat="45.98028" lon="4.87674">
        <ele>280</ele>
        <time>2018-08-18T09:33:44Z</time>
      </trkpt>
      <trkpt lat="45.9803" lon="4.87681">
        <ele>280</ele>
        <time>2018-08-18T09:33:45Z</time>
      </trkpt>
      <trkpt lat="45.98032" lon="4.87688">
        <ele>280</ele>
        <time>2018-08-18T09:33:46Z</time>
      </trkpt>
      <trkpt lat="45.98034" lon="4.87695">
        <ele>280</ele>
        <time>2018-08-18T09:33:47Z</time>
      </trkpt>
      <trkpt lat="45.98037" lon="4.87702">
        <ele>280</ele>
        <time>2018-08-18T09:33:48Z</time>
      </trkpt>
      <trkpt lat="45.98039" lon="4.8771">
        <ele>279</ele>
        <time>2018-08-18T09:33:49Z</time>
      </trkpt>
      <trkpt lat="45.98042" lon="4.87718">
        <ele>280</ele>
        <time>2018-08-18T09:33:50Z</time>
      </trkpt>
      <trkpt lat="45.98044" lon="4.87724">
        <ele>280</ele>
        <time>2018-08-18T09:33:51Z</time>
      </trkpt>
      <trkpt lat="45.98046" lon="4.87732">
        <ele>280</ele>
        <time>2018-08-18T09:33:52Z</time>
      </trkpt>
      <trkpt lat="45.98048" lon="4.87741">
        <ele>280</ele>
        <time>2018-08-18T09:33:53Z</time>
      </trkpt>
      <trkpt lat="45.9805" lon="4.87748">
        <ele>280</ele>
        <time>2018-08-18T09:33:54Z</time>
      </trkpt>
      <trkpt lat="45.98053" lon="4.87755">
        <ele>280</ele>
        <time>2018-08-18T09:33:55Z</time>
      </trkpt>
      <trkpt lat="45.98056" lon="4.87763">
        <ele>280</ele>
        <time>2018-08-18T09:33:56Z</time>
      </trkpt>
      <trkpt lat="45.98059" lon="4.8777">
        <ele>280</ele>
        <time>2018-08-18T09:33:57Z</time>
      </trkpt>
      <trkpt lat="45.98061" lon="4.87777">
        <ele>280</ele>
        <time>2018-08-18T09:33:58Z</time>
      </trkpt>
      <trkpt lat="45.98063" lon="4.87784">
        <ele>280</ele>
        <time>2018-08-18T09:33:59Z</time>
      </trkpt>
      <trkpt lat="45.98065" lon="4.87791">
        <ele>280</ele>
        <time>2018-08-18T09:34:00Z</time>
      </trkpt>
      <trkpt lat="45.98067" lon="4.87798">
        <ele>280</ele>
        <time>2018-08-18T09:34:01Z</time>
      </trkpt>
      <trkpt lat="45.98068" lon="4.87805">
        <ele>280</ele>
        <time>2018-08-18T09:34:02Z</time>
      </trkpt>
      <trkpt lat="45.98069" lon="4.87812">
        <ele>280</ele>
        <time>2018-08-18T09:34:03Z</time>
      </trkpt>
      <trkpt lat="45.98071" lon="4.87819">
        <ele>279</ele>
        <time>2018-08-18T09:34:04Z</time>
      </trkpt>
      <trkpt lat="45.98072" lon="4.87825">
        <ele>279</ele>
        <time>2018-08-18T09:34:05Z</time>
      </trkpt>
      <trkpt lat="45.98075" lon="4.87832">
        <ele>279</ele>
        <time>2018-08-18T09:34:06Z</time>
      </trkpt>
      <trkpt lat="45.98077" lon="4.87838">
        <ele>279</ele>
        <time>2018-08-18T09:34:07Z</time>
      </trkpt>
      <trkpt lat="45.98079" lon="4.87846">
        <ele>279</ele>
        <time>2018-08-18T09:34:08Z</time>
      </trkpt>
      <trkpt lat="45.98081" lon="4.87855">
        <ele>280</ele>
        <time>2018-08-18T09:34:09Z</time>
      </trkpt>
      <trkpt lat="45.98085" lon="4.87863">
        <ele>278</ele>
        <time>2018-08-18T09:34:10Z</time>
      </trkpt>
      <trkpt lat="45.98087" lon="4.87871">
        <ele>278</ele>
        <time>2018-08-18T09:34:11Z</time>
      </trkpt>
      <trkpt lat="45.9809" lon="4.8788">
        <ele>278</ele>
        <time>2018-08-18T09:34:12Z</time>
      </trkpt>
      <trkpt lat="45.98091" lon="4.87888">
        <ele>278</ele>
        <time>2018-08-18T09:34:13Z</time>
      </trkpt>
      <trkpt lat="45.98094" lon="4.87896">
        <ele>278</ele>
        <time>2018-08-18T09:34:14Z</time>
      </trkpt>
      <trkpt lat="45.98096" lon="4.87905">
        <ele>278</ele>
        <time>2018-08-18T09:34:15Z</time>
      </trkpt>
      <trkpt lat="45.98098" lon="4.87911">
        <ele>278</ele>
        <time>2018-08-18T09:34:16Z</time>
      </trkpt>
      <trkpt lat="45.98101" lon="4.8792">
        <ele>278</ele>
        <time>2018-08-18T09:34:17Z</time>
      </trkpt>
      <trkpt lat="45.98103" lon="4.87929">
        <ele>277</ele>
        <time>2018-08-18T09:34:18Z</time>
      </trkpt>
      <trkpt lat="45.98105" lon="4.87937">
        <ele>277</ele>
        <time>2018-08-18T09:34:19Z</time>
      </trkpt>
      <trkpt lat="45.98108" lon="4.87945">
        <ele>277</ele>
        <time>2018-08-18T09:34:20Z</time>
      </trkpt>
      <trkpt lat="45.98111" lon="4.87954">
        <ele>277</ele>
        <time>2018-08-18T09:34:21Z</time>
      </trkpt>
      <trkpt lat="45.98114" lon="4.87965">
        <ele>277</ele>
        <time>2018-08-18T09:34:22Z</time>
      </trkpt>
      <trkpt lat="45.98117" lon="4.87973">
        <ele>277</ele>
        <time>2018-08-18T09:34:23Z</time>
      </trkpt>
      <trkpt lat="45.9812" lon="4.87981">
        <ele>277</ele>
        <time>2018-08-18T09:34:24Z</time>
      </trkpt>
      <trkpt lat="45.98123" lon="4.87991">
        <ele>277</ele>
        <time>2018-08-18T09:34:25Z</time>
      </trkpt>
      <trkpt lat="45.98126" lon="4.88">
        <ele>277</ele>
        <time>2018-08-18T09:34:26Z</time>
      </trkpt>
      <trkpt lat="45.98129" lon="4.88008">
        <ele>276</ele>
        <time>2018-08-18T09:34:27Z</time>
      </trkpt>
      <trkpt lat="45.98131" lon="4.88017">
        <ele>276</ele>
        <time>2018-08-18T09:34:28Z</time>
      </trkpt>
      <trkpt lat="45.98133" lon="4.88026">
        <ele>276</ele>
        <time>2018-08-18T09:34:29Z</time>
      </trkpt>
      <trkpt lat="45.98136" lon="4.88034">
        <ele>276</ele>
        <time>2018-08-18T09:34:30Z</time>
      </trkpt>
      <trkpt lat="45.98139" lon="4.88043">
        <ele>275</ele>
        <time>2018-08-18T09:34:31Z</time>
      </trkpt>
      <trkpt lat="45.98142" lon="4.88052">
        <ele>275</ele>
        <time>2018-08-18T09:34:32Z</time>
      </trkpt>
      <trkpt lat="45.98145" lon="4.88063">
        <ele>275</ele>
        <time>2018-08-18T09:34:33Z</time>
      </trkpt>
      <trkpt lat="45.98148" lon="4.88073">
        <ele>275</ele>
        <time>2018-08-18T09:34:34Z</time>
      </trkpt>
      <trkpt lat="45.98151" lon="4.88082">
        <ele>274</ele>
        <time>2018-08-18T09:34:35Z</time>
      </trkpt>
      <trkpt lat="45.98154" lon="4.88091">
        <ele>274</ele>
        <time>2018-08-18T09:34:36Z</time>
      </trkpt>
      <trkpt lat="45.98157" lon="4.88102">
        <ele>274</ele>
        <time>2018-08-18T09:34:37Z</time>
      </trkpt>
      <trkpt lat="45.9816" lon="4.88112">
        <ele>274</ele>
        <time>2018-08-18T09:34:38Z</time>
      </trkpt>
      <trkpt lat="45.98163" lon="4.8812">
        <ele>274</ele>
        <time>2018-08-18T09:34:39Z</time>
      </trkpt>
      <trkpt lat="45.98166" lon="4.8813">
        <ele>274</ele>
        <time>2018-08-18T09:34:40Z</time>
      </trkpt>
      <trkpt lat="45.98168" lon="4.8814">
        <ele>273</ele>
        <time>2018-08-18T09:34:41Z</time>
      </trkpt>
      <trkpt lat="45.98171" lon="4.88149">
        <ele>273</ele>
        <time>2018-08-18T09:34:42Z</time>
      </trkpt>
      <trkpt lat="45.98174" lon="4.88159">
        <ele>273</ele>
        <time>2018-08-18T09:34:43Z</time>
      </trkpt>
      <trkpt lat="45.98179" lon="4.88168">
        <ele>273</ele>
        <time>2018-08-18T09:34:44Z</time>
      </trkpt>
      <trkpt lat="45.98182" lon="4.88176">
        <ele>273</ele>
        <time>2018-08-18T09:34:45Z</time>
      </trkpt>
      <trkpt lat="45.98185" lon="4.88185">
        <ele>273</ele>
        <time>2018-08-18T09:34:46Z</time>
      </trkpt>
      <trkpt lat="45.98188" lon="4.88194">
        <ele>273</ele>
        <time>2018-08-18T09:34:47Z</time>
      </trkpt>
      <trkpt lat="45.9819" lon="4.88201">
        <ele>273</ele>
        <time>2018-08-18T09:34:48Z</time>
      </trkpt>
      <trkpt lat="45.98191" lon="4.88209">
        <ele>273</ele>
        <time>2018-08-18T09:34:49Z</time>
      </trkpt>
      <trkpt lat="45.98193" lon="4.88218">
        <ele>273</ele>
        <time>2018-08-18T09:34:50Z</time>
      </trkpt>
      <trkpt lat="45.98195" lon="4.88224">
        <ele>273</ele>
        <time>2018-08-18T09:34:51Z</time>
      </trkpt>
      <trkpt lat="45.98197" lon="4.88232">
        <ele>273</ele>
        <time>2018-08-18T09:34:52Z</time>
      </trkpt>
      <trkpt lat="45.98199" lon="4.8824">
        <ele>273</ele>
        <time>2018-08-18T09:34:53Z</time>
      </trkpt>
      <trkpt lat="45.98201" lon="4.88248">
        <ele>273</ele>
        <time>2018-08-18T09:34:54Z</time>
      </trkpt>
      <trkpt lat="45.98203" lon="4.88256">
        <ele>274</ele>
        <time>2018-08-18T09:34:55Z</time>
      </trkpt>
      <trkpt lat="45.98207" lon="4.88265">
        <ele>274</ele>
        <time>2018-08-18T09:34:56Z</time>
      </trkpt>
      <trkpt lat="45.98209" lon="4.88273">
        <ele>274</ele>
        <time>2018-08-18T09:34:57Z</time>
      </trkpt>
      <trkpt lat="45.9821" lon="4.88282">
        <ele>274</ele>
        <time>2018-08-18T09:34:58Z</time>
      </trkpt>
      <trkpt lat="45.9821" lon="4.8829">
        <ele>274</ele>
        <time>2018-08-18T09:34:59Z</time>
      </trkpt>
      <trkpt lat="45.9821" lon="4.88298">
        <ele>274</ele>
        <time>2018-08-18T09:35:00Z</time>
      </trkpt>
      <trkpt lat="45.98211" lon="4.88305">
        <ele>274</ele>
        <time>2018-08-18T09:35:01Z</time>
      </trkpt>
      <trkpt lat="45.98212" lon="4.88313">
        <ele>274</ele>
        <time>2018-08-18T09:35:02Z</time>
      </trkpt>
      <trkpt lat="45.98212" lon="4.88321">
        <ele>274</ele>
        <time>2018-08-18T09:35:03Z</time>
      </trkpt>
      <trkpt lat="45.98212" lon="4.88328">
        <ele>274</ele>
        <time>2018-08-18T09:35:04Z</time>
      </trkpt>
      <trkpt lat="45.98213" lon="4.8834">
        <ele>275</ele>
        <time>2018-08-18T09:35:06Z</time>
      </trkpt>
      <trkpt lat="45.98214" lon="4.88347">
        <ele>275</ele>
        <time>2018-08-18T09:35:07Z</time>
      </trkpt>
      <trkpt lat="45.98214" lon="4.88354">
        <ele>275</ele>
        <time>2018-08-18T09:35:08Z</time>
      </trkpt>
      <trkpt lat="45.98216" lon="4.8836">
        <ele>275</ele>
        <time>2018-08-18T09:35:09Z</time>
      </trkpt>
      <trkpt lat="45.98216" lon="4.88367">
        <ele>275</ele>
        <time>2018-08-18T09:35:10Z</time>
      </trkpt>
      <trkpt lat="45.98217" lon="4.88375">
        <ele>275</ele>
        <time>2018-08-18T09:35:11Z</time>
      </trkpt>
      <trkpt lat="45.98216" lon="4.88382">
        <ele>275</ele>
        <time>2018-08-18T09:35:12Z</time>
      </trkpt>
      <trkpt lat="45.98218" lon="4.8839">
        <ele>275</ele>
        <time>2018-08-18T09:35:13Z</time>
      </trkpt>
      <trkpt lat="45.98219" lon="4.88397">
        <ele>275</ele>
        <time>2018-08-18T09:35:14Z</time>
      </trkpt>
      <trkpt lat="45.9822" lon="4.88403">
        <ele>275</ele>
        <time>2018-08-18T09:35:15Z</time>
      </trkpt>
      <trkpt lat="45.98221" lon="4.88411">
        <ele>275</ele>
        <time>2018-08-18T09:35:16Z</time>
      </trkpt>
      <trkpt lat="45.98223" lon="4.88418">
        <ele>276</ele>
        <time>2018-08-18T09:35:17Z</time>
      </trkpt>
      <trkpt lat="45.98226" lon="4.8843">
        <ele>276</ele>
        <time>2018-08-18T09:35:19Z</time>
      </trkpt>
      <trkpt lat="45.98227" lon="4.88437">
        <ele>276</ele>
        <time>2018-08-18T09:35:20Z</time>
      </trkpt>
      <trkpt lat="45.9823" lon="4.88448">
        <ele>276</ele>
        <time>2018-08-18T09:35:22Z</time>
      </trkpt>
      <trkpt lat="45.98231" lon="4.88455">
        <ele>276</ele>
        <time>2018-08-18T09:35:23Z</time>
      </trkpt>
      <trkpt lat="45.98232" lon="4.88462">
        <ele>276</ele>
        <time>2018-08-18T09:35:24Z</time>
      </trkpt>
      <trkpt lat="45.98234" lon="4.88468">
        <ele>276</ele>
        <time>2018-08-18T09:35:25Z</time>
      </trkpt>
      <trkpt lat="45.98237" lon="4.88479">
        <ele>276</ele>
        <time>2018-08-18T09:35:27Z</time>
      </trkpt>
      <trkpt lat="45.98239" lon="4.88485">
        <ele>276</ele>
        <time>2018-08-18T09:35:28Z</time>
      </trkpt>
      <trkpt lat="45.98241" lon="4.88491">
        <ele>276</ele>
        <time>2018-08-18T09:35:29Z</time>
      </trkpt>
      <trkpt lat="45.98242" lon="4.88497">
        <ele>277</ele>
        <time>2018-08-18T09:35:30Z</time>
      </trkpt>
      <trkpt lat="45.98245" lon="4.88509">
        <ele>277</ele>
        <time>2018-08-18T09:35:32Z</time>
      </trkpt>
      <trkpt lat="45.98247" lon="4.88516">
        <ele>276</ele>
        <time>2018-08-18T09:35:33Z</time>
      </trkpt>
      <trkpt lat="45.9825" lon="4.88525">
        <ele>276</ele>
        <time>2018-08-18T09:35:34Z</time>
      </trkpt>
      <trkpt lat="45.98251" lon="4.88532">
        <ele>276</ele>
        <time>2018-08-18T09:35:35Z</time>
      </trkpt>
      <trkpt lat="45.98253" lon="4.8854">
        <ele>276</ele>
        <time>2018-08-18T09:35:36Z</time>
      </trkpt>
      <trkpt lat="45.98255" lon="4.88548">
        <ele>276</ele>
        <time>2018-08-18T09:35:37Z</time>
      </trkpt>
      <trkpt lat="45.98256" lon="4.88554">
        <ele>276</ele>
        <time>2018-08-18T09:35:38Z</time>
      </trkpt>
      <trkpt lat="45.98256" lon="4.88561">
        <ele>276</ele>
        <time>2018-08-18T09:35:39Z</time>
      </trkpt>
      <trkpt lat="45.98259" lon="4.8857">
        <ele>276</ele>
        <time>2018-08-18T09:35:40Z</time>
      </trkpt>
      <trkpt lat="45.98261" lon="4.88578">
        <ele>276</ele>
        <time>2018-08-18T09:35:41Z</time>
      </trkpt>
      <trkpt lat="45.98263" lon="4.88584">
        <ele>275</ele>
        <time>2018-08-18T09:35:42Z</time>
      </trkpt>
      <trkpt lat="45.98264" lon="4.8859">
        <ele>275</ele>
        <time>2018-08-18T09:35:43Z</time>
      </trkpt>
      <trkpt lat="45.98267" lon="4.88595">
        <ele>275</ele>
        <time>2018-08-18T09:35:44Z</time>
      </trkpt>
      <trkpt lat="45.98268" lon="4.88602">
        <ele>276</ele>
        <time>2018-08-18T09:35:45Z</time>
      </trkpt>
      <trkpt lat="45.98271" lon="4.88611">
        <ele>276</ele>
        <time>2018-08-18T09:35:46Z</time>
      </trkpt>
      <trkpt lat="45.98273" lon="4.88618">
        <ele>276</ele>
        <time>2018-08-18T09:35:47Z</time>
      </trkpt>
      <trkpt lat="45.98275" lon="4.88625">
        <ele>276</ele>
        <time>2018-08-18T09:35:48Z</time>
      </trkpt>
      <trkpt lat="45.98277" lon="4.88632">
        <ele>276</ele>
        <time>2018-08-18T09:35:49Z</time>
      </trkpt>
      <trkpt lat="45.9828" lon="4.88641">
        <ele>276</ele>
        <time>2018-08-18T09:35:50Z</time>
      </trkpt>
      <trkpt lat="45.98281" lon="4.88648">
        <ele>276</ele>
        <time>2018-08-18T09:35:51Z</time>
      </trkpt>
      <trkpt lat="45.98282" lon="4.88655">
        <ele>276</ele>
        <time>2018-08-18T09:35:52Z</time>
      </trkpt>
      <trkpt lat="45.98284" lon="4.88662">
        <ele>276</ele>
        <time>2018-08-18T09:35:53Z</time>
      </trkpt>
      <trkpt lat="45.98288" lon="4.88673">
        <ele>276</ele>
        <time>2018-08-18T09:35:55Z</time>
      </trkpt>
      <trkpt lat="45.98291" lon="4.88679">
        <ele>276</ele>
        <time>2018-08-18T09:35:56Z</time>
      </trkpt>
      <trkpt lat="45.98292" lon="4.88685">
        <ele>276</ele>
        <time>2018-08-18T09:35:57Z</time>
      </trkpt>
      <trkpt lat="45.98294" lon="4.88692">
        <ele>276</ele>
        <time>2018-08-18T09:35:58Z</time>
      </trkpt>
      <trkpt lat="45.98296" lon="4.88699">
        <ele>276</ele>
        <time>2018-08-18T09:35:59Z</time>
      </trkpt>
      <trkpt lat="45.98298" lon="4.88706">
        <ele>276</ele>
        <time>2018-08-18T09:36:00Z</time>
      </trkpt>
      <trkpt lat="45.98299" lon="4.88713">
        <ele>276</ele>
        <time>2018-08-18T09:36:01Z</time>
      </trkpt>
      <trkpt lat="45.98302" lon="4.88721">
        <ele>276</ele>
        <time>2018-08-18T09:36:02Z</time>
      </trkpt>
      <trkpt lat="45.98303" lon="4.88727">
        <ele>276</ele>
        <time>2018-08-18T09:36:03Z</time>
      </trkpt>
      <trkpt lat="45.98304" lon="4.88734">
        <ele>276</ele>
        <time>2018-08-18T09:36:04Z</time>
      </trkpt>
      <trkpt lat="45.98305" lon="4.8874">
        <ele>276</ele>
        <time>2018-08-18T09:36:05Z</time>
      </trkpt>
      <trkpt lat="45.98307" lon="4.88746">
        <ele>276</ele>
        <time>2018-08-18T09:36:06Z</time>
      </trkpt>
      <trkpt lat="45.9831" lon="4.88758">
        <ele>276</ele>
        <time>2018-08-18T09:36:08Z</time>
      </trkpt>
      <trkpt lat="45.98312" lon="4.88765">
        <ele>276</ele>
        <time>2018-08-18T09:36:09Z</time>
      </trkpt>
      <trkpt lat="45.98314" lon="4.88772">
        <ele>277</ele>
        <time>2018-08-18T09:36:10Z</time>
      </trkpt>
      <trkpt lat="45.98316" lon="4.88777">
        <ele>277</ele>
        <time>2018-08-18T09:36:11Z</time>
      </trkpt>
      <trkpt lat="45.98318" lon="4.88789">
        <ele>277</ele>
        <time>2018-08-18T09:36:13Z</time>
      </trkpt>
      <trkpt lat="45.98319" lon="4.88796">
        <ele>277</ele>
        <time>2018-08-18T09:36:14Z</time>
      </trkpt>
      <trkpt lat="45.98321" lon="4.88803">
        <ele>277</ele>
        <time>2018-08-18T09:36:15Z</time>
      </trkpt>
      <trkpt lat="45.98322" lon="4.88809">
        <ele>277</ele>
        <time>2018-08-18T09:36:16Z</time>
      </trkpt>
      <trkpt lat="45.98324" lon="4.88815">
        <ele>277</ele>
        <time>2018-08-18T09:36:17Z</time>
      </trkpt>
      <trkpt lat="45.98327" lon="4.88821">
        <ele>277</ele>
        <time>2018-08-18T09:36:18Z</time>
      </trkpt>
      <trkpt lat="45.98328" lon="4.88828">
        <ele>278</ele>
        <time>2018-08-18T09:36:19Z</time>
      </trkpt>
      <trkpt lat="45.9833" lon="4.88833">
        <ele>278</ele>
        <time>2018-08-18T09:36:20Z</time>
      </trkpt>
      <trkpt lat="45.98331" lon="4.8884">
        <ele>278</ele>
        <time>2018-08-18T09:36:21Z</time>
      </trkpt>
      <trkpt lat="45.98333" lon="4.88847">
        <ele>279</ele>
        <time>2018-08-18T09:36:22Z</time>
      </trkpt>
      <trkpt lat="45.98336" lon="4.88855">
        <ele>279</ele>
        <time>2018-08-18T09:36:23Z</time>
      </trkpt>
      <trkpt lat="45.98338" lon="4.88861">
        <ele>280</ele>
        <time>2018-08-18T09:36:24Z</time>
      </trkpt>
      <trkpt lat="45.98339" lon="4.88873">
        <ele>280</ele>
        <time>2018-08-18T09:36:26Z</time>
      </trkpt>
      <trkpt lat="45.9834" lon="4.8888">
        <ele>280</ele>
        <time>2018-08-18T09:36:27Z</time>
      </trkpt>
      <trkpt lat="45.98342" lon="4.88888">
        <ele>280</ele>
        <time>2018-08-18T09:36:28Z</time>
      </trkpt>
      <trkpt lat="45.98344" lon="4.88894">
        <ele>280</ele>
        <time>2018-08-18T09:36:29Z</time>
      </trkpt>
      <trkpt lat="45.98345" lon="4.889">
        <ele>280</ele>
        <time>2018-08-18T09:36:30Z</time>
      </trkpt>
      <trkpt lat="45.98346" lon="4.88906">
        <ele>280</ele>
        <time>2018-08-18T09:36:31Z</time>
      </trkpt>
      <trkpt lat="45.98348" lon="4.88913">
        <ele>280</ele>
        <time>2018-08-18T09:36:32Z</time>
      </trkpt>
      <trkpt lat="45.98349" lon="4.88919">
        <ele>281</ele>
        <time>2018-08-18T09:36:33Z</time>
      </trkpt>
      <trkpt lat="45.98351" lon="4.88925">
        <ele>281</ele>
        <time>2018-08-18T09:36:34Z</time>
      </trkpt>
      <trkpt lat="45.98352" lon="4.88932">
        <ele>281</ele>
        <time>2018-08-18T09:36:35Z</time>
      </trkpt>
      <trkpt lat="45.98353" lon="4.88939">
        <ele>282</ele>
        <time>2018-08-18T09:36:36Z</time>
      </trkpt>
      <trkpt lat="45.98355" lon="4.88945">
        <ele>282</ele>
        <time>2018-08-18T09:36:37Z</time>
      </trkpt>
      <trkpt lat="45.98357" lon="4.88957">
        <ele>282</ele>
        <time>2018-08-18T09:36:39Z</time>
      </trkpt>
      <trkpt lat="45.98358" lon="4.88963">
        <ele>282</ele>
        <time>2018-08-18T09:36:40Z</time>
      </trkpt>
      <trkpt lat="45.98359" lon="4.8897">
        <ele>282</ele>
        <time>2018-08-18T09:36:41Z</time>
      </trkpt>
      <trkpt lat="45.98361" lon="4.88975">
        <ele>282</ele>
        <time>2018-08-18T09:36:42Z</time>
      </trkpt>
      <trkpt lat="45.98363" lon="4.88987">
        <ele>282</ele>
        <time>2018-08-18T09:36:44Z</time>
      </trkpt>
      <trkpt lat="45.98368" lon="4.88997">
        <ele>283</ele>
        <time>2018-08-18T09:36:45Z</time>
      </trkpt>
      <trkpt lat="45.98369" lon="4.89006">
        <ele>283</ele>
        <time>2018-08-18T09:36:47Z</time>
      </trkpt>
      <trkpt lat="45.98371" lon="4.89013">
        <ele>284</ele>
        <time>2018-08-18T09:36:48Z</time>
      </trkpt>
      <trkpt lat="45.98372" lon="4.89019">
        <ele>284</ele>
        <time>2018-08-18T09:36:49Z</time>
      </trkpt>
      <trkpt lat="45.98374" lon="4.89025">
        <ele>284</ele>
        <time>2018-08-18T09:36:50Z</time>
      </trkpt>
      <trkpt lat="45.98375" lon="4.89032">
        <ele>284</ele>
        <time>2018-08-18T09:36:51Z</time>
      </trkpt>
      <trkpt lat="45.98376" lon="4.89038">
        <ele>284</ele>
        <time>2018-08-18T09:36:52Z</time>
      </trkpt>
      <trkpt lat="45.9838" lon="4.89048">
        <ele>284</ele>
        <time>2018-08-18T09:36:54Z</time>
      </trkpt>
      <trkpt lat="45.98381" lon="4.89054">
        <ele>284</ele>
        <time>2018-08-18T09:36:55Z</time>
      </trkpt>
      <trkpt lat="45.98384" lon="4.89064">
        <ele>285</ele>
        <time>2018-08-18T09:36:57Z</time>
      </trkpt>
      <trkpt lat="45.98386" lon="4.89069">
        <ele>285</ele>
        <time>2018-08-18T09:36:58Z</time>
      </trkpt>
      <trkpt lat="45.9839" lon="4.89078">
        <ele>285</ele>
        <time>2018-08-18T09:37:00Z</time>
      </trkpt>
      <trkpt lat="45.98392" lon="4.89083">
        <ele>285</ele>
        <time>2018-08-18T09:37:01Z</time>
      </trkpt>
      <trkpt lat="45.98396" lon="4.89092">
        <ele>286</ele>
        <time>2018-08-18T09:37:03Z</time>
      </trkpt>
      <trkpt lat="45.98398" lon="4.89097">
        <ele>286</ele>
        <time>2018-08-18T09:37:04Z</time>
      </trkpt>
      <trkpt lat="45.98404" lon="4.89106">
        <ele>286</ele>
        <time>2018-08-18T09:37:06Z</time>
      </trkpt>
      <trkpt lat="45.98406" lon="4.8911">
        <ele>286</ele>
        <time>2018-08-18T09:37:07Z</time>
      </trkpt>
      <trkpt lat="45.98411" lon="4.89118">
        <ele>285</ele>
        <time>2018-08-18T09:37:09Z</time>
      </trkpt>
      <trkpt lat="45.98414" lon="4.89123">
        <ele>285</ele>
        <time>2018-08-18T09:37:10Z</time>
      </trkpt>
      <trkpt lat="45.98419" lon="4.8913">
        <ele>288</ele>
        <time>2018-08-18T09:37:12Z</time>
      </trkpt>
      <trkpt lat="45.98422" lon="4.89134">
        <ele>288</ele>
        <time>2018-08-18T09:37:13Z</time>
      </trkpt>
      <trkpt lat="45.98428" lon="4.89141">
        <ele>288</ele>
        <time>2018-08-18T09:37:15Z</time>
      </trkpt>
      <trkpt lat="45.9843" lon="4.89146">
        <ele>288</ele>
        <time>2018-08-18T09:37:16Z</time>
      </trkpt>
      <trkpt lat="45.98435" lon="4.89156">
        <ele>288</ele>
        <time>2018-08-18T09:37:18Z</time>
      </trkpt>
      <trkpt lat="45.98437" lon="4.8916">
        <ele>288</ele>
        <time>2018-08-18T09:37:19Z</time>
      </trkpt>
      <trkpt lat="45.98442" lon="4.89169">
        <ele>288</ele>
        <time>2018-08-18T09:37:23Z</time>
      </trkpt>
      <trkpt lat="45.98444" lon="4.89173">
        <ele>288</ele>
        <time>2018-08-18T09:37:24Z</time>
      </trkpt>
      <trkpt lat="45.98449" lon="4.89183">
        <ele>288</ele>
        <time>2018-08-18T09:37:27Z</time>
      </trkpt>
      <trkpt lat="45.98455" lon="4.89193">
        <ele>289</ele>
        <time>2018-08-18T09:37:28Z</time>
      </trkpt>
      <trkpt lat="45.9846" lon="4.89203">
        <ele>289</ele>
        <time>2018-08-18T09:37:32Z</time>
      </trkpt>
      <trkpt lat="45.98462" lon="4.89206">
        <ele>289</ele>
        <time>2018-08-18T09:37:33Z</time>
      </trkpt>
      <trkpt lat="45.98467" lon="4.89216">
        <ele>289</ele>
        <time>2018-08-18T09:37:36Z</time>
      </trkpt>
      <trkpt lat="45.98468" lon="4.8922">
        <ele>289</ele>
        <time>2018-08-18T09:37:37Z</time>
      </trkpt>
      <trkpt lat="45.98472" lon="4.89228">
        <ele>289</ele>
        <time>2018-08-18T09:37:39Z</time>
      </trkpt>
      <trkpt lat="45.98473" lon="4.89231">
        <ele>289</ele>
        <time>2018-08-18T09:37:40Z</time>
      </trkpt>
      <trkpt lat="45.98477" lon="4.89238">
        <ele>289</ele>
        <time>2018-08-18T09:37:42Z</time>
      </trkpt>
      <trkpt lat="45.98479" lon="4.89242">
        <ele>289</ele>
        <time>2018-08-18T09:37:43Z</time>
      </trkpt>
      <trkpt lat="45.98483" lon="4.8925">
        <ele>289</ele>
        <time>2018-08-18T09:37:45Z</time>
      </trkpt>
      <trkpt lat="45.98485" lon="4.89254">
        <ele>291</ele>
        <time>2018-08-18T09:37:46Z</time>
      </trkpt>
      <trkpt lat="45.9849" lon="4.89263">
        <ele>291</ele>
        <time>2018-08-18T09:37:49Z</time>
      </trkpt>
      <trkpt lat="45.98492" lon="4.89266">
        <ele>291</ele>
        <time>2018-08-18T09:37:50Z</time>
      </trkpt>
      <trkpt lat="45.98496" lon="4.89272">
        <ele>292</ele>
        <time>2018-08-18T09:37:52Z</time>
      </trkpt>
      <trkpt lat="45.98498" lon="4.89276">
        <ele>292</ele>
        <time>2018-08-18T09:37:53Z</time>
      </trkpt>
      <trkpt lat="45.98503" lon="4.89283">
        <ele>292</ele>
        <time>2018-08-18T09:37:55Z</time>
      </trkpt>
      <trkpt lat="45.9851" lon="4.89294">
        <ele>292</ele>
        <time>2018-08-18T09:37:56Z</time>
      </trkpt>
      <trkpt lat="45.98513" lon="4.89298">
        <ele>293</ele>
        <time>2018-08-18T09:37:58Z</time>
      </trkpt>
      <trkpt lat="45.98517" lon="4.89305">
        <ele>293</ele>
        <time>2018-08-18T09:37:59Z</time>
      </trkpt>
      <trkpt lat="45.98523" lon="4.89314">
        <ele>293</ele>
        <time>2018-08-18T09:38:01Z</time>
      </trkpt>
      <trkpt lat="45.98526" lon="4.89319">
        <ele>293</ele>
        <time>2018-08-18T09:38:02Z</time>
      </trkpt>
      <trkpt lat="45.9853" lon="4.89325">
        <ele>293</ele>
        <time>2018-08-18T09:38:04Z</time>
      </trkpt>
      <trkpt lat="45.98536" lon="4.89335">
        <ele>295</ele>
        <time>2018-08-18T09:38:05Z</time>
      </trkpt>
      <trkpt lat="45.98542" lon="4.89343">
        <ele>295</ele>
        <time>2018-08-18T09:38:07Z</time>
      </trkpt>
      <trkpt lat="45.98545" lon="4.89347">
        <ele>295</ele>
        <time>2018-08-18T09:38:08Z</time>
      </trkpt>
      <trkpt lat="45.98551" lon="4.89354">
        <ele>295</ele>
        <time>2018-08-18T09:38:10Z</time>
      </trkpt>
      <trkpt lat="45.98554" lon="4.89358">
        <ele>295</ele>
        <time>2018-08-18T09:38:11Z</time>
      </trkpt>
      <trkpt lat="45.9856" lon="4.89366">
        <ele>295</ele>
        <time>2018-08-18T09:38:13Z</time>
      </trkpt>
      <trkpt lat="45.98563" lon="4.89371">
        <ele>295</ele>
        <time>2018-08-18T09:38:14Z</time>
      </trkpt>
      <trkpt lat="45.98566" lon="4.89374">
        <ele>295</ele>
        <time>2018-08-18T09:38:15Z</time>
      </trkpt>
      <trkpt lat="45.98572" lon="4.89378">
        <ele>295</ele>
        <time>2018-08-18T09:38:16Z</time>
      </trkpt>
      <trkpt lat="45.98575" lon="4.89382">
        <ele>295</ele>
        <time>2018-08-18T09:38:19Z</time>
      </trkpt>
      <trkpt lat="45.98581" lon="4.8939">
        <ele>295</ele>
        <time>2018-08-18T09:38:20Z</time>
      </trkpt>
      <trkpt lat="45.98589" lon="4.89396">
        <ele>292</ele>
        <time>2018-08-18T09:38:23Z</time>
      </trkpt>
      <trkpt lat="45.98591" lon="4.89398">
        <ele>292</ele>
        <time>2018-08-18T09:38:24Z</time>
      </trkpt>
      <trkpt lat="45.98597" lon="4.89405">
        <ele>292</ele>
        <time>2018-08-18T09:38:25Z</time>
      </trkpt>
      <trkpt lat="45.98601" lon="4.89411">
        <ele>292</ele>
        <time>2018-08-18T09:38:26Z</time>
      </trkpt>
      <trkpt lat="45.98608" lon="4.89419">
        <ele>292</ele>
        <time>2018-08-18T09:38:28Z</time>
      </trkpt>
      <trkpt lat="45.98611" lon="4.89423">
        <ele>292</ele>
        <time>2018-08-18T09:38:29Z</time>
      </trkpt>
      <trkpt lat="45.98618" lon="4.8943">
        <ele>292</ele>
        <time>2018-08-18T09:38:31Z</time>
      </trkpt>
      <trkpt lat="45.98626" lon="4.89436">
        <ele>291</ele>
        <time>2018-08-18T09:38:32Z</time>
      </trkpt>
      <trkpt lat="45.98633" lon="4.89441">
        <ele>291</ele>
        <time>2018-08-18T09:38:34Z</time>
      </trkpt>
      <trkpt lat="45.98637" lon="4.89445">
        <ele>291</ele>
        <time>2018-08-18T09:38:35Z</time>
      </trkpt>
      <trkpt lat="45.98644" lon="4.89452">
        <ele>291</ele>
        <time>2018-08-18T09:38:37Z</time>
      </trkpt>
      <trkpt lat="45.98647" lon="4.89456">
        <ele>291</ele>
        <time>2018-08-18T09:38:38Z</time>
      </trkpt>
      <trkpt lat="45.98651" lon="4.8946">
        <ele>290</ele>
        <time>2018-08-18T09:38:39Z</time>
      </trkpt>
      <trkpt lat="45.98654" lon="4.89464">
        <ele>290</ele>
        <time>2018-08-18T09:38:40Z</time>
      </trkpt>
      <trkpt lat="45.98661" lon="4.89473">
        <ele>290</ele>
        <time>2018-08-18T09:38:42Z</time>
      </trkpt>
      <trkpt lat="45.98664" lon="4.89476">
        <ele>290</ele>
        <time>2018-08-18T09:38:43Z</time>
      </trkpt>
      <trkpt lat="45.9867" lon="4.89484">
        <ele>289</ele>
        <time>2018-08-18T09:38:45Z</time>
      </trkpt>
      <trkpt lat="45.98674" lon="4.89488">
        <ele>289</ele>
        <time>2018-08-18T09:38:46Z</time>
      </trkpt>
      <trkpt lat="45.9868" lon="4.89496">
        <ele>289</ele>
        <time>2018-08-18T09:38:48Z</time>
      </trkpt>
      <trkpt lat="45.98683" lon="4.895">
        <ele>289</ele>
        <time>2018-08-18T09:38:49Z</time>
      </trkpt>
      <trkpt lat="45.98689" lon="4.89508">
        <ele>289</ele>
        <time>2018-08-18T09:38:51Z</time>
      </trkpt>
      <trkpt lat="45.98692" lon="4.89512">
        <ele>289</ele>
        <time>2018-08-18T09:38:52Z</time>
      </trkpt>
      <trkpt lat="45.98698" lon="4.8952">
        <ele>289</ele>
        <time>2018-08-18T09:38:54Z</time>
      </trkpt>
      <trkpt lat="45.98701" lon="4.89525">
        <ele>289</ele>
        <time>2018-08-18T09:38:55Z</time>
      </trkpt>
      <trkpt lat="45.98706" lon="4.89533">
        <ele>289</ele>
        <time>2018-08-18T09:38:57Z</time>
      </trkpt>
      <trkpt lat="45.9871" lon="4.89538">
        <ele>289</ele>
        <time>2018-08-18T09:38:58Z</time>
      </trkpt>
      <trkpt lat="45.98713" lon="4.89542">
        <ele>290</ele>
        <time>2018-08-18T09:38:59Z</time>
      </trkpt>
      <trkpt lat="45.98716" lon="4.89547">
        <ele>290</ele>
        <time>2018-08-18T09:39:00Z</time>
      </trkpt>
      <trkpt lat="45.98719" lon="4.89551">
        <ele>290</ele>
        <time>2018-08-18T09:39:01Z</time>
      </trkpt>
      <trkpt lat="45.98723" lon="4.89556">
        <ele>290</ele>
        <time>2018-08-18T09:39:02Z</time>
      </trkpt>
      <trkpt lat="45.98729" lon="4.89565">
        <ele>290</ele>
        <time>2018-08-18T09:39:04Z</time>
      </trkpt>
      <trkpt lat="45.98732" lon="4.89569">
        <ele>290</ele>
        <time>2018-08-18T09:39:05Z</time>
      </trkpt>
      <trkpt lat="45.98738" lon="4.89578">
        <ele>290</ele>
        <time>2018-08-18T09:39:07Z</time>
      </trkpt>
      <trkpt lat="45.98741" lon="4.89582">
        <ele>291</ele>
        <time>2018-08-18T09:39:08Z</time>
      </trkpt>
      <trkpt lat="45.98747" lon="4.8959">
        <ele>291</ele>
        <time>2018-08-18T09:39:10Z</time>
      </trkpt>
      <trkpt lat="45.9875" lon="4.89594">
        <ele>291</ele>
        <time>2018-08-18T09:39:11Z</time>
      </trkpt>
      <trkpt lat="45.98755" lon="4.89603">
        <ele>291</ele>
        <time>2018-08-18T09:39:13Z</time>
      </trkpt>
      <trkpt lat="45.98758" lon="4.89606">
        <ele>291</ele>
        <time>2018-08-18T09:39:14Z</time>
      </trkpt>
      <trkpt lat="45.98764" lon="4.89614">
        <ele>291</ele>
        <time>2018-08-18T09:39:16Z</time>
      </trkpt>
      <trkpt lat="45.98767" lon="4.89618">
        <ele>291</ele>
        <time>2018-08-18T09:39:17Z</time>
      </trkpt>
      <trkpt lat="45.98773" lon="4.89626">
        <ele>291</ele>
        <time>2018-08-18T09:39:20Z</time>
      </trkpt>
      <trkpt lat="45.98775" lon="4.89629">
        <ele>291</ele>
        <time>2018-08-18T09:39:21Z</time>
      </trkpt>
      <trkpt lat="45.98777" lon="4.89632">
        <ele>291</ele>
        <time>2018-08-18T09:39:22Z</time>
      </trkpt>
      <trkpt lat="45.98783" lon="4.8964">
        <ele>291</ele>
        <time>2018-08-18T09:39:23Z</time>
      </trkpt>
      <trkpt lat="45.98788" lon="4.89647">
        <ele>291</ele>
        <time>2018-08-18T09:39:25Z</time>
      </trkpt>
      <trkpt lat="45.98791" lon="4.89651">
        <ele>291</ele>
        <time>2018-08-18T09:39:26Z</time>
      </trkpt>
      <trkpt lat="45.98796" lon="4.89658">
        <ele>291</ele>
        <time>2018-08-18T09:39:29Z</time>
      </trkpt>
      <trkpt lat="45.98798" lon="4.89661">
        <ele>291</ele>
        <time>2018-08-18T09:39:30Z</time>
      </trkpt>
      <trkpt lat="45.98805" lon="4.89669">
        <ele>292</ele>
        <time>2018-08-18T09:39:33Z</time>
      </trkpt>
      <trkpt lat="45.98807" lon="4.89673">
        <ele>292</ele>
        <time>2018-08-18T09:39:34Z</time>
      </trkpt>
      <trkpt lat="45.98813" lon="4.89678">
        <ele>292</ele>
        <time>2018-08-18T09:39:36Z</time>
      </trkpt>
      <trkpt lat="45.98815" lon="4.89681">
        <ele>292</ele>
        <time>2018-08-18T09:39:37Z</time>
      </trkpt>
      <trkpt lat="45.98821" lon="4.89687">
        <ele>292</ele>
        <time>2018-08-18T09:39:39Z</time>
      </trkpt>
      <trkpt lat="45.98824" lon="4.8969">
        <ele>292</ele>
        <time>2018-08-18T09:39:40Z</time>
      </trkpt>
      <trkpt lat="45.9883" lon="4.89695">
        <ele>292</ele>
        <time>2018-08-18T09:39:42Z</time>
      </trkpt>
      <trkpt lat="45.98833" lon="4.89698">
        <ele>292</ele>
        <time>2018-08-18T09:39:43Z</time>
      </trkpt>
      <trkpt lat="45.98839" lon="4.89704">
        <ele>292</ele>
        <time>2018-08-18T09:39:45Z</time>
      </trkpt>
      <trkpt lat="45.98842" lon="4.89706">
        <ele>292</ele>
        <time>2018-08-18T09:39:46Z</time>
      </trkpt>
      <trkpt lat="45.98847" lon="4.89712">
        <ele>293</ele>
        <time>2018-08-18T09:39:48Z</time>
      </trkpt>
      <trkpt lat="45.9885" lon="4.89714">
        <ele>293</ele>
        <time>2018-08-18T09:39:49Z</time>
      </trkpt>
      <trkpt lat="45.98859" lon="4.89721">
        <ele>293</ele>
        <time>2018-08-18T09:39:50Z</time>
      </trkpt>
      <trkpt lat="45.98865" lon="4.89727">
        <ele>293</ele>
        <time>2018-08-18T09:39:53Z</time>
      </trkpt>
      <trkpt lat="45.98867" lon="4.89729">
        <ele>293</ele>
        <time>2018-08-18T09:39:54Z</time>
      </trkpt>
      <trkpt lat="45.98874" lon="4.89734">
        <ele>293</ele>
        <time>2018-08-18T09:39:57Z</time>
      </trkpt>
      <trkpt lat="45.98876" lon="4.89736">
        <ele>293</ele>
        <time>2018-08-18T09:39:58Z</time>
      </trkpt>
      <trkpt lat="45.98882" lon="4.89739">
        <ele>293</ele>
        <time>2018-08-18T09:40:00Z</time>
      </trkpt>
      <trkpt lat="45.98885" lon="4.8974">
        <ele>293</ele>
        <time>2018-08-18T09:40:01Z</time>
      </trkpt>
      <trkpt lat="45.98894" lon="4.89746">
        <ele>293</ele>
        <time>2018-08-18T09:40:02Z</time>
      </trkpt>
      <trkpt lat="45.98901" lon="4.89751">
        <ele>293</ele>
        <time>2018-08-18T09:40:04Z</time>
      </trkpt>
      <trkpt lat="45.98905" lon="4.89754">
        <ele>293</ele>
        <time>2018-08-18T09:40:05Z</time>
      </trkpt>
      <trkpt lat="45.98911" lon="4.89758">
        <ele>293</ele>
        <time>2018-08-18T09:40:07Z</time>
      </trkpt>
      <trkpt lat="45.98915" lon="4.89761">
        <ele>293</ele>
        <time>2018-08-18T09:40:08Z</time>
      </trkpt>
      <trkpt lat="45.98923" lon="4.89766">
        <ele>293</ele>
        <time>2018-08-18T09:40:10Z</time>
      </trkpt>
      <trkpt lat="45.98927" lon="4.89768">
        <ele>293</ele>
        <time>2018-08-18T09:40:11Z</time>
      </trkpt>
      <trkpt lat="45.98934" lon="4.89773">
        <ele>293</ele>
        <time>2018-08-18T09:40:13Z</time>
      </trkpt>
      <trkpt lat="45.98938" lon="4.89776">
        <ele>293</ele>
        <time>2018-08-18T09:40:14Z</time>
      </trkpt>
      <trkpt lat="45.98943" lon="4.89779">
        <ele>293</ele>
        <time>2018-08-18T09:40:15Z</time>
      </trkpt>
      <trkpt lat="45.98946" lon="4.89782">
        <ele>293</ele>
        <time>2018-08-18T09:40:16Z</time>
      </trkpt>
      <trkpt lat="45.98953" lon="4.89789">
        <ele>293</ele>
        <time>2018-08-18T09:40:18Z</time>
      </trkpt>
      <trkpt lat="45.98957" lon="4.89792">
        <ele>293</ele>
        <time>2018-08-18T09:40:19Z</time>
      </trkpt>
      <trkpt lat="45.98961" lon="4.89796">
        <ele>293</ele>
        <time>2018-08-18T09:40:20Z</time>
      </trkpt>
      <trkpt lat="45.98964" lon="4.898">
        <ele>293</ele>
        <time>2018-08-18T09:40:21Z</time>
      </trkpt>
      <trkpt lat="45.98968" lon="4.89804">
        <ele>293</ele>
        <time>2018-08-18T09:40:22Z</time>
      </trkpt>
      <trkpt lat="45.98971" lon="4.89807">
        <ele>293</ele>
        <time>2018-08-18T09:40:23Z</time>
      </trkpt>
      <trkpt lat="45.98975" lon="4.89811">
        <ele>293</ele>
        <time>2018-08-18T09:40:24Z</time>
      </trkpt>
      <trkpt lat="45.98979" lon="4.89815">
        <ele>293</ele>
        <time>2018-08-18T09:40:25Z</time>
      </trkpt>
      <trkpt lat="45.98986" lon="4.89823">
        <ele>293</ele>
        <time>2018-08-18T09:40:27Z</time>
      </trkpt>
      <trkpt lat="45.98989" lon="4.89827">
        <ele>293</ele>
        <time>2018-08-18T09:40:28Z</time>
      </trkpt>
      <trkpt lat="45.98994" lon="4.8983">
        <ele>293</ele>
        <time>2018-08-18T09:40:29Z</time>
      </trkpt>
      <trkpt lat="45.98997" lon="4.89834">
        <ele>293</ele>
        <time>2018-08-18T09:40:30Z</time>
      </trkpt>
      <trkpt lat="45.99001" lon="4.89839">
        <ele>293</ele>
        <time>2018-08-18T09:40:31Z</time>
      </trkpt>
      <trkpt lat="45.99004" lon="4.89843">
        <ele>293</ele>
        <time>2018-08-18T09:40:32Z</time>
      </trkpt>
      <trkpt lat="45.99007" lon="4.89848">
        <ele>293</ele>
        <time>2018-08-18T09:40:33Z</time>
      </trkpt>
      <trkpt lat="45.99011" lon="4.89852">
        <ele>293</ele>
        <time>2018-08-18T09:40:34Z</time>
      </trkpt>
      <trkpt lat="45.99017" lon="4.89861">
        <ele>293</ele>
        <time>2018-08-18T09:40:36Z</time>
      </trkpt>
      <trkpt lat="45.9902" lon="4.89866">
        <ele>293</ele>
        <time>2018-08-18T09:40:37Z</time>
      </trkpt>
      <trkpt lat="45.99026" lon="4.89874">
        <ele>293</ele>
        <time>2018-08-18T09:40:39Z</time>
      </trkpt>
      <trkpt lat="45.9903" lon="4.89879">
        <ele>293</ele>
        <time>2018-08-18T09:40:40Z</time>
      </trkpt>
      <trkpt lat="45.99033" lon="4.89884">
        <ele>293</ele>
        <time>2018-08-18T09:40:41Z</time>
      </trkpt>
      <trkpt lat="45.99037" lon="4.89888">
        <ele>293</ele>
        <time>2018-08-18T09:40:42Z</time>
      </trkpt>
      <trkpt lat="45.99044" lon="4.89897">
        <ele>293</ele>
        <time>2018-08-18T09:40:44Z</time>
      </trkpt>
      <trkpt lat="45.99047" lon="4.89901">
        <ele>293</ele>
        <time>2018-08-18T09:40:45Z</time>
      </trkpt>
      <trkpt lat="45.99051" lon="4.89908">
        <ele>293</ele>
        <time>2018-08-18T09:40:47Z</time>
      </trkpt>
      <trkpt lat="45.99054" lon="4.89912">
        <ele>293</ele>
        <time>2018-08-18T09:40:48Z</time>
      </trkpt>
      <trkpt lat="45.99059" lon="4.89919">
        <ele>294</ele>
        <time>2018-08-18T09:40:50Z</time>
      </trkpt>
      <trkpt lat="45.99062" lon="4.89924">
        <ele>294</ele>
        <time>2018-08-18T09:40:51Z</time>
      </trkpt>
      <trkpt lat="45.99067" lon="4.89929">
        <ele>294</ele>
        <time>2018-08-18T09:40:52Z</time>
      </trkpt>
      <trkpt lat="45.9907" lon="4.89933">
        <ele>294</ele>
        <time>2018-08-18T09:40:53Z</time>
      </trkpt>
      <trkpt lat="45.99074" lon="4.89939">
        <ele>294</ele>
        <time>2018-08-18T09:40:54Z</time>
      </trkpt>
      <trkpt lat="45.99078" lon="4.89945">
        <ele>294</ele>
        <time>2018-08-18T09:40:55Z</time>
      </trkpt>
      <trkpt lat="45.99082" lon="4.89948">
        <ele>294</ele>
        <time>2018-08-18T09:40:56Z</time>
      </trkpt>
      <trkpt lat="45.99086" lon="4.89953">
        <ele>295</ele>
        <time>2018-08-18T09:40:57Z</time>
      </trkpt>
      <trkpt lat="45.99089" lon="4.89958">
        <ele>295</ele>
        <time>2018-08-18T09:40:58Z</time>
      </trkpt>
      <trkpt lat="45.99093" lon="4.89963">
        <ele>295</ele>
        <time>2018-08-18T09:40:59Z</time>
      </trkpt>
      <trkpt lat="45.99096" lon="4.89968">
        <ele>295</ele>
        <time>2018-08-18T09:41:00Z</time>
      </trkpt>
      <trkpt lat="45.991" lon="4.89972">
        <ele>295</ele>
        <time>2018-08-18T09:41:01Z</time>
      </trkpt>
      <trkpt lat="45.99103" lon="4.89976">
        <ele>295</ele>
        <time>2018-08-18T09:41:02Z</time>
      </trkpt>
      <trkpt lat="45.99106" lon="4.89982">
        <ele>295</ele>
        <time>2018-08-18T09:41:03Z</time>
      </trkpt>
      <trkpt lat="45.99112" lon="4.8999">
        <ele>295</ele>
        <time>2018-08-18T09:41:05Z</time>
      </trkpt>
      <trkpt lat="45.99115" lon="4.89996">
        <ele>295</ele>
        <time>2018-08-18T09:41:06Z</time>
      </trkpt>
      <trkpt lat="45.99118" lon="4.90001">
        <ele>296</ele>
        <time>2018-08-18T09:41:07Z</time>
      </trkpt>
      <trkpt lat="45.99121" lon="4.90005">
        <ele>296</ele>
        <time>2018-08-18T09:41:08Z</time>
      </trkpt>
      <trkpt lat="45.99125" lon="4.9001">
        <ele>296</ele>
        <time>2018-08-18T09:41:09Z</time>
      </trkpt>
      <trkpt lat="45.99129" lon="4.90015">
        <ele>296</ele>
        <time>2018-08-18T09:41:10Z</time>
      </trkpt>
      <trkpt lat="45.99133" lon="4.90019">
        <ele>296</ele>
        <time>2018-08-18T09:41:11Z</time>
      </trkpt>
      <trkpt lat="45.99136" lon="4.90024">
        <ele>297</ele>
        <time>2018-08-18T09:41:12Z</time>
      </trkpt>
      <trkpt lat="45.99143" lon="4.90031">
        <ele>297</ele>
        <time>2018-08-18T09:41:14Z</time>
      </trkpt>
      <trkpt lat="45.99147" lon="4.90035">
        <ele>297</ele>
        <time>2018-08-18T09:41:15Z</time>
      </trkpt>
      <trkpt lat="45.99153" lon="4.90043">
        <ele>297</ele>
        <time>2018-08-18T09:41:17Z</time>
      </trkpt>
      <trkpt lat="45.99156" lon="4.90048">
        <ele>297</ele>
        <time>2018-08-18T09:41:18Z</time>
      </trkpt>
      <trkpt lat="45.99158" lon="4.90053">
        <ele>297</ele>
        <time>2018-08-18T09:41:19Z</time>
      </trkpt>
      <trkpt lat="45.99161" lon="4.90058">
        <ele>297</ele>
        <time>2018-08-18T09:41:20Z</time>
      </trkpt>
      <trkpt lat="45.99164" lon="4.90063">
        <ele>297</ele>
        <time>2018-08-18T09:41:21Z</time>
      </trkpt>
      <trkpt lat="45.99169" lon="4.90066">
        <ele>297</ele>
        <time>2018-08-18T09:41:22Z</time>
      </trkpt>
      <trkpt lat="45.99176" lon="4.90075">
        <ele>297</ele>
        <time>2018-08-18T09:41:24Z</time>
      </trkpt>
      <trkpt lat="45.99179" lon="4.9008">
        <ele>297</ele>
        <time>2018-08-18T09:41:25Z</time>
      </trkpt>
      <trkpt lat="45.99186" lon="4.90088">
        <ele>297</ele>
        <time>2018-08-18T09:41:27Z</time>
      </trkpt>
      <trkpt lat="45.99189" lon="4.90091">
        <ele>297</ele>
        <time>2018-08-18T09:41:28Z</time>
      </trkpt>
      <trkpt lat="45.99196" lon="4.90097">
        <ele>297</ele>
        <time>2018-08-18T09:41:30Z</time>
      </trkpt>
      <trkpt lat="45.99199" lon="4.90103">
        <ele>297</ele>
        <time>2018-08-18T09:41:31Z</time>
      </trkpt>
      <trkpt lat="45.99202" lon="4.90108">
        <ele>297</ele>
        <time>2018-08-18T09:41:32Z</time>
      </trkpt>
      <trkpt lat="45.99205" lon="4.90112">
        <ele>297</ele>
        <time>2018-08-18T09:41:33Z</time>
      </trkpt>
      <trkpt lat="45.99209" lon="4.90117">
        <ele>297</ele>
        <time>2018-08-18T09:41:34Z</time>
      </trkpt>
      <trkpt lat="45.99212" lon="4.90121">
        <ele>297</ele>
        <time>2018-08-18T09:41:35Z</time>
      </trkpt>
      <trkpt lat="45.99217" lon="4.90125">
        <ele>297</ele>
        <time>2018-08-18T09:41:36Z</time>
      </trkpt>
      <trkpt lat="45.9922" lon="4.90129">
        <ele>297</ele>
        <time>2018-08-18T09:41:37Z</time>
      </trkpt>
      <trkpt lat="45.99225" lon="4.90132">
        <ele>297</ele>
        <time>2018-08-18T09:41:38Z</time>
      </trkpt>
      <trkpt lat="45.99228" lon="4.90137">
        <ele>297</ele>
        <time>2018-08-18T09:41:39Z</time>
      </trkpt>
      <trkpt lat="45.99234" lon="4.90146">
        <ele>297</ele>
        <time>2018-08-18T09:41:41Z</time>
      </trkpt>
      <trkpt lat="45.99236" lon="4.90152">
        <ele>297</ele>
        <time>2018-08-18T09:41:42Z</time>
      </trkpt>
      <trkpt lat="45.9924" lon="4.90158">
        <ele>297</ele>
        <time>2018-08-18T09:41:43Z</time>
      </trkpt>
      <trkpt lat="45.99245" lon="4.90163">
        <ele>297</ele>
        <time>2018-08-18T09:41:44Z</time>
      </trkpt>
      <trkpt lat="45.99252" lon="4.90172">
        <ele>297</ele>
        <time>2018-08-18T09:41:46Z</time>
      </trkpt>
      <trkpt lat="45.99255" lon="4.90177">
        <ele>297</ele>
        <time>2018-08-18T09:41:47Z</time>
      </trkpt>
      <trkpt lat="45.99259" lon="4.90182">
        <ele>298</ele>
        <time>2018-08-18T09:41:48Z</time>
      </trkpt>
      <trkpt lat="45.99262" lon="4.90185">
        <ele>298</ele>
        <time>2018-08-18T09:41:49Z</time>
      </trkpt>
      <trkpt lat="45.99268" lon="4.90193">
        <ele>298</ele>
        <time>2018-08-18T09:41:51Z</time>
      </trkpt>
      <trkpt lat="45.99269" lon="4.90196">
        <ele>298</ele>
        <time>2018-08-18T09:41:52Z</time>
      </trkpt>
      <trkpt lat="45.99274" lon="4.90204">
        <ele>298</ele>
        <time>2018-08-18T09:41:54Z</time>
      </trkpt>
      <trkpt lat="45.99278" lon="4.90209">
        <ele>298</ele>
        <time>2018-08-18T09:41:55Z</time>
      </trkpt>
      <trkpt lat="45.9928" lon="4.90214">
        <ele>298</ele>
        <time>2018-08-18T09:41:56Z</time>
      </trkpt>
      <trkpt lat="45.99284" lon="4.90219">
        <ele>298</ele>
        <time>2018-08-18T09:41:57Z</time>
      </trkpt>
      <trkpt lat="45.9929" lon="4.90228">
        <ele>298</ele>
        <time>2018-08-18T09:41:59Z</time>
      </trkpt>
      <trkpt lat="45.99294" lon="4.90231">
        <ele>298</ele>
        <time>2018-08-18T09:42:00Z</time>
      </trkpt>
      <trkpt lat="45.99299" lon="4.90234">
        <ele>298</ele>
        <time>2018-08-18T09:42:01Z</time>
      </trkpt>
      <trkpt lat="45.99302" lon="4.90238">
        <ele>298</ele>
        <time>2018-08-18T09:42:02Z</time>
      </trkpt>
      <trkpt lat="45.99306" lon="4.90244">
        <ele>298</ele>
        <time>2018-08-18T09:42:04Z</time>
      </trkpt>
      <trkpt lat="45.9931" lon="4.9025">
        <ele>298</ele>
        <time>2018-08-18T09:42:05Z</time>
      </trkpt>
      <trkpt lat="45.99313" lon="4.90261">
        <ele>299</ele>
        <time>2018-08-18T09:42:08Z</time>
      </trkpt>
      <trkpt lat="45.99314" lon="4.90264">
        <ele>299</ele>
        <time>2018-08-18T09:42:09Z</time>
      </trkpt>
      <trkpt lat="45.99315" lon="4.90272">
        <ele>299</ele>
        <time>2018-08-18T09:42:11Z</time>
      </trkpt>
      <trkpt lat="45.99317" lon="4.90284">
        <ele>299</ele>
        <time>2018-08-18T09:42:12Z</time>
      </trkpt>
      <trkpt lat="45.99325" lon="4.90286">
        <ele>299</ele>
        <time>2018-08-18T09:42:14Z</time>
      </trkpt>
      <trkpt lat="45.9933" lon="4.90289">
        <ele>299</ele>
        <time>2018-08-18T09:42:15Z</time>
      </trkpt>
      <trkpt lat="45.99333" lon="4.90289">
        <ele>299</ele>
        <time>2018-08-18T09:42:16Z</time>
      </trkpt>
      <trkpt lat="45.99339" lon="4.9029">
        <ele>299</ele>
        <time>2018-08-18T09:42:17Z</time>
      </trkpt>
      <trkpt lat="45.99347" lon="4.90291">
        <ele>299</ele>
        <time>2018-08-18T09:42:19Z</time>
      </trkpt>
      <trkpt lat="45.99352" lon="4.90293">
        <ele>300</ele>
        <time>2018-08-18T09:42:20Z</time>
      </trkpt>
      <trkpt lat="45.9936" lon="4.90295">
        <ele>300</ele>
        <time>2018-08-18T09:42:22Z</time>
      </trkpt>
      <trkpt lat="45.99365" lon="4.90296">
        <ele>300</ele>
        <time>2018-08-18T09:42:23Z</time>
      </trkpt>
      <trkpt lat="45.99373" lon="4.90297">
        <ele>300</ele>
        <time>2018-08-18T09:42:25Z</time>
      </trkpt>
      <trkpt lat="45.99378" lon="4.90296">
        <ele>300</ele>
        <time>2018-08-18T09:42:26Z</time>
      </trkpt>
      <trkpt lat="45.99384" lon="4.90293">
        <ele>300</ele>
        <time>2018-08-18T09:42:27Z</time>
      </trkpt>
      <trkpt lat="45.99389" lon="4.90293">
        <ele>300</ele>
        <time>2018-08-18T09:42:28Z</time>
      </trkpt>
      <trkpt lat="45.99394" lon="4.90294">
        <ele>300</ele>
        <time>2018-08-18T09:42:29Z</time>
      </trkpt>
      <trkpt lat="45.99399" lon="4.90295">
        <ele>300</ele>
        <time>2018-08-18T09:42:30Z</time>
      </trkpt>
      <trkpt lat="45.99406" lon="4.90297">
        <ele>300</ele>
        <time>2018-08-18T09:42:32Z</time>
      </trkpt>
      <trkpt lat="45.99412" lon="4.90297">
        <ele>300</ele>
        <time>2018-08-18T09:42:33Z</time>
      </trkpt>
      <trkpt lat="45.9942" lon="4.90298">
        <ele>300</ele>
        <time>2018-08-18T09:42:35Z</time>
      </trkpt>
      <trkpt lat="45.99424" lon="4.90298">
        <ele>300</ele>
        <time>2018-08-18T09:42:36Z</time>
      </trkpt>
      <trkpt lat="45.99433" lon="4.90299">
        <ele>300</ele>
        <time>2018-08-18T09:42:38Z</time>
      </trkpt>
      <trkpt lat="45.99438" lon="4.90299">
        <ele>300</ele>
        <time>2018-08-18T09:42:39Z</time>
      </trkpt>
      <trkpt lat="45.99444" lon="4.90301">
        <ele>300</ele>
        <time>2018-08-18T09:42:40Z</time>
      </trkpt>
      <trkpt lat="45.9945" lon="4.90304">
        <ele>300</ele>
        <time>2018-08-18T09:42:41Z</time>
      </trkpt>
      <trkpt lat="45.99454" lon="4.90304">
        <ele>300</ele>
        <time>2018-08-18T09:42:42Z</time>
      </trkpt>
      <trkpt lat="45.99459" lon="4.90306">
        <ele>300</ele>
        <time>2018-08-18T09:42:43Z</time>
      </trkpt>
      <trkpt lat="45.99463" lon="4.90307">
        <ele>300</ele>
        <time>2018-08-18T09:42:44Z</time>
      </trkpt>
      <trkpt lat="45.99469" lon="4.90307">
        <ele>300</ele>
        <time>2018-08-18T09:42:45Z</time>
      </trkpt>
      <trkpt lat="45.99474" lon="4.90307">
        <ele>300</ele>
        <time>2018-08-18T09:42:46Z</time>
      </trkpt>
      <trkpt lat="45.99479" lon="4.90307">
        <ele>300</ele>
        <time>2018-08-18T09:42:47Z</time>
      </trkpt>
      <trkpt lat="45.99487" lon="4.90309">
        <ele>300</ele>
        <time>2018-08-18T09:42:49Z</time>
      </trkpt>
      <trkpt lat="45.99491" lon="4.9031">
        <ele>300</ele>
        <time>2018-08-18T09:42:50Z</time>
      </trkpt>
      <trkpt lat="45.99499" lon="4.90314">
        <ele>300</ele>
        <time>2018-08-18T09:42:52Z</time>
      </trkpt>
      <trkpt lat="45.99504" lon="4.90312">
        <ele>300</ele>
        <time>2018-08-18T09:42:53Z</time>
      </trkpt>
      <trkpt lat="45.99509" lon="4.90313">
        <ele>301</ele>
        <time>2018-08-18T09:42:54Z</time>
      </trkpt>
      <trkpt lat="45.99513" lon="4.90314">
        <ele>300</ele>
        <time>2018-08-18T09:42:55Z</time>
      </trkpt>
      <trkpt lat="45.99522" lon="4.90315">
        <ele>300</ele>
        <time>2018-08-18T09:42:57Z</time>
      </trkpt>
      <trkpt lat="45.99526" lon="4.90319">
        <ele>300</ele>
        <time>2018-08-18T09:42:58Z</time>
      </trkpt>
      <trkpt lat="45.99531" lon="4.90319">
        <ele>300</ele>
        <time>2018-08-18T09:42:59Z</time>
      </trkpt>
      <trkpt lat="45.99535" lon="4.90319">
        <ele>300</ele>
        <time>2018-08-18T09:43:00Z</time>
      </trkpt>
      <trkpt lat="45.99543" lon="4.90321">
        <ele>300</ele>
        <time>2018-08-18T09:43:02Z</time>
      </trkpt>
      <trkpt lat="45.99547" lon="4.90322">
        <ele>300</ele>
        <time>2018-08-18T09:43:03Z</time>
      </trkpt>
      <trkpt lat="45.99552" lon="4.90323">
        <ele>301</ele>
        <time>2018-08-18T09:43:04Z</time>
      </trkpt>
      <trkpt lat="45.99557" lon="4.90324">
        <ele>301</ele>
        <time>2018-08-18T09:43:05Z</time>
      </trkpt>
      <trkpt lat="45.99564" lon="4.90325">
        <ele>301</ele>
        <time>2018-08-18T09:43:07Z</time>
      </trkpt>
      <trkpt lat="45.99567" lon="4.90323">
        <ele>301</ele>
        <time>2018-08-18T09:43:08Z</time>
      </trkpt>
      <trkpt lat="45.9957" lon="4.90324">
        <ele>301</ele>
        <time>2018-08-18T09:43:10Z</time>
      </trkpt>
      <trkpt lat="45.99578" lon="4.90323">
        <ele>301</ele>
        <time>2018-08-18T09:43:11Z</time>
      </trkpt>
      <trkpt lat="45.99585" lon="4.90323">
        <ele>301</ele>
        <time>2018-08-18T09:43:13Z</time>
      </trkpt>
      <trkpt lat="45.99589" lon="4.90323">
        <ele>301</ele>
        <time>2018-08-18T09:43:14Z</time>
      </trkpt>
      <trkpt lat="45.99595" lon="4.90323">
        <ele>301</ele>
        <time>2018-08-18T09:43:15Z</time>
      </trkpt>
      <trkpt lat="45.996" lon="4.90323">
        <ele>301</ele>
        <time>2018-08-18T09:43:16Z</time>
      </trkpt>
      <trkpt lat="45.99607" lon="4.90326">
        <ele>301</ele>
        <time>2018-08-18T09:43:18Z</time>
      </trkpt>
      <trkpt lat="45.9961" lon="4.90327">
        <ele>301</ele>
        <time>2018-08-18T09:43:19Z</time>
      </trkpt>
      <trkpt lat="45.99613" lon="4.90328">
        <ele>302</ele>
        <time>2018-08-18T09:43:21Z</time>
      </trkpt>
      <trkpt lat="45.9962" lon="4.9033">
        <ele>302</ele>
        <time>2018-08-18T09:43:22Z</time>
      </trkpt>
      <trkpt lat="45.99629" lon="4.9033">
        <ele>302</ele>
        <time>2018-08-18T09:43:24Z</time>
      </trkpt>
      <trkpt lat="45.99633" lon="4.9033">
        <ele>302</ele>
        <time>2018-08-18T09:43:25Z</time>
      </trkpt>
      <trkpt lat="45.99641" lon="4.90332">
        <ele>302</ele>
        <time>2018-08-18T09:43:27Z</time>
      </trkpt>
      <trkpt lat="45.99647" lon="4.9033">
        <ele>302</ele>
        <time>2018-08-18T09:43:28Z</time>
      </trkpt>
      <trkpt lat="45.99656" lon="4.90329">
        <ele>302</ele>
        <time>2018-08-18T09:43:30Z</time>
      </trkpt>
      <trkpt lat="45.9966" lon="4.90328">
        <ele>302</ele>
        <time>2018-08-18T09:43:31Z</time>
      </trkpt>
      <trkpt lat="45.99669" lon="4.90327">
        <ele>303</ele>
        <time>2018-08-18T09:43:36Z</time>
      </trkpt>
      <trkpt lat="45.9967" lon="4.90326">
        <ele>303</ele>
        <time>2018-08-18T09:43:37Z</time>
      </trkpt>
      <trkpt lat="45.99671" lon="4.90315">
        <ele>304</ele>
        <time>2018-08-18T09:43:41Z</time>
      </trkpt>
      <trkpt lat="45.99671" lon="4.90311">
        <ele>304</ele>
        <time>2018-08-18T09:43:42Z</time>
      </trkpt>
      <trkpt lat="45.99673" lon="4.90301">
        <ele>304</ele>
        <time>2018-08-18T09:43:44Z</time>
      </trkpt>
      <trkpt lat="45.99675" lon="4.90288">
        <ele>304</ele>
        <time>2018-08-18T09:43:45Z</time>
      </trkpt>
      <trkpt lat="45.99678" lon="4.90282">
        <ele>304</ele>
        <time>2018-08-18T09:43:47Z</time>
      </trkpt>
      <trkpt lat="45.99681" lon="4.90273">
        <ele>305</ele>
        <time>2018-08-18T09:43:48Z</time>
      </trkpt>
      <trkpt lat="45.99684" lon="4.90263">
        <ele>305</ele>
        <time>2018-08-18T09:43:50Z</time>
      </trkpt>
      <trkpt lat="45.99685" lon="4.90257">
        <ele>305</ele>
        <time>2018-08-18T09:43:51Z</time>
      </trkpt>
      <trkpt lat="45.99685" lon="4.9025">
        <ele>305</ele>
        <time>2018-08-18T09:43:52Z</time>
      </trkpt>
      <trkpt lat="45.99682" lon="4.90242">
        <ele>304</ele>
        <time>2018-08-18T09:43:53Z</time>
      </trkpt>
      <trkpt lat="45.99679" lon="4.90235">
        <ele>304</ele>
        <time>2018-08-18T09:43:54Z</time>
      </trkpt>
      <trkpt lat="45.99678" lon="4.9023">
        <ele>304</ele>
        <time>2018-08-18T09:43:55Z</time>
      </trkpt>
      <trkpt lat="45.99677" lon="4.90224">
        <ele>304</ele>
        <time>2018-08-18T09:43:56Z</time>
      </trkpt>
      <trkpt lat="45.99677" lon="4.90216">
        <ele>303</ele>
        <time>2018-08-18T09:43:57Z</time>
      </trkpt>
      <trkpt lat="45.99675" lon="4.90209">
        <ele>303</ele>
        <time>2018-08-18T09:43:58Z</time>
      </trkpt>
      <trkpt lat="45.99674" lon="4.90202">
        <ele>303</ele>
        <time>2018-08-18T09:43:59Z</time>
      </trkpt>
      <trkpt lat="45.99673" lon="4.90195">
        <ele>303</ele>
        <time>2018-08-18T09:44:00Z</time>
      </trkpt>
      <trkpt lat="45.9967" lon="4.90187">
        <ele>302</ele>
        <time>2018-08-18T09:44:01Z</time>
      </trkpt>
      <trkpt lat="45.99668" lon="4.90178">
        <ele>302</ele>
        <time>2018-08-18T09:44:02Z</time>
      </trkpt>
      <trkpt lat="45.99665" lon="4.90167">
        <ele>301</ele>
        <time>2018-08-18T09:44:03Z</time>
      </trkpt>
      <trkpt lat="45.99663" lon="4.90158">
        <ele>300</ele>
        <time>2018-08-18T09:44:04Z</time>
      </trkpt>
      <trkpt lat="45.99659" lon="4.90148">
        <ele>300</ele>
        <time>2018-08-18T09:44:05Z</time>
      </trkpt>
      <trkpt lat="45.99658" lon="4.90137">
        <ele>300</ele>
        <time>2018-08-18T09:44:06Z</time>
      </trkpt>
      <trkpt lat="45.99657" lon="4.90127">
        <ele>299</ele>
        <time>2018-08-18T09:44:07Z</time>
      </trkpt>
      <trkpt lat="45.99654" lon="4.90115">
        <ele>299</ele>
        <time>2018-08-18T09:44:08Z</time>
      </trkpt>
      <trkpt lat="45.99651" lon="4.90104">
        <ele>299</ele>
        <time>2018-08-18T09:44:09Z</time>
      </trkpt>
      <trkpt lat="45.99647" lon="4.90093">
        <ele>299</ele>
        <time>2018-08-18T09:44:10Z</time>
      </trkpt>
      <trkpt lat="45.99643" lon="4.90084">
        <ele>298</ele>
        <time>2018-08-18T09:44:11Z</time>
      </trkpt>
      <trkpt lat="45.99639" lon="4.90075">
        <ele>297</ele>
        <time>2018-08-18T09:44:12Z</time>
      </trkpt>
      <trkpt lat="45.99635" lon="4.90065">
        <ele>297</ele>
        <time>2018-08-18T09:44:13Z</time>
      </trkpt>
      <trkpt lat="45.9963" lon="4.90055">
        <ele>297</ele>
        <time>2018-08-18T09:44:14Z</time>
      </trkpt>
      <trkpt lat="45.99625" lon="4.90044">
        <ele>297</ele>
        <time>2018-08-18T09:44:15Z</time>
      </trkpt>
      <trkpt lat="45.99621" lon="4.90033">
        <ele>296</ele>
        <time>2018-08-18T09:44:16Z</time>
      </trkpt>
      <trkpt lat="45.99617" lon="4.90022">
        <ele>296</ele>
        <time>2018-08-18T09:44:17Z</time>
      </trkpt>
      <trkpt lat="45.99615" lon="4.9001">
        <ele>296</ele>
        <time>2018-08-18T09:44:18Z</time>
      </trkpt>
      <trkpt lat="45.99613" lon="4.89999">
        <ele>295</ele>
        <time>2018-08-18T09:44:19Z</time>
      </trkpt>
      <trkpt lat="45.9961" lon="4.89987">
        <ele>294</ele>
        <time>2018-08-18T09:44:20Z</time>
      </trkpt>
      <trkpt lat="45.99608" lon="4.89976">
        <ele>294</ele>
        <time>2018-08-18T09:44:21Z</time>
      </trkpt>
      <trkpt lat="45.99607" lon="4.89966">
        <ele>294</ele>
        <time>2018-08-18T09:44:22Z</time>
      </trkpt>
      <trkpt lat="45.99606" lon="4.89954">
        <ele>294</ele>
        <time>2018-08-18T09:44:23Z</time>
      </trkpt>
      <trkpt lat="45.99606" lon="4.89943">
        <ele>294</ele>
        <time>2018-08-18T09:44:24Z</time>
      </trkpt>
      <trkpt lat="45.99606" lon="4.89932">
        <ele>293</ele>
        <time>2018-08-18T09:44:25Z</time>
      </trkpt>
      <trkpt lat="45.99607" lon="4.89923">
        <ele>293</ele>
        <time>2018-08-18T09:44:26Z</time>
      </trkpt>
      <trkpt lat="45.99606" lon="4.89912">
        <ele>292</ele>
        <time>2018-08-18T09:44:27Z</time>
      </trkpt>
      <trkpt lat="45.99607" lon="4.89902">
        <ele>292</ele>
        <time>2018-08-18T09:44:28Z</time>
      </trkpt>
      <trkpt lat="45.99606" lon="4.89892">
        <ele>292</ele>
        <time>2018-08-18T09:44:29Z</time>
      </trkpt>
      <trkpt lat="45.99607" lon="4.89883">
        <ele>292</ele>
        <time>2018-08-18T09:44:30Z</time>
      </trkpt>
      <trkpt lat="45.99606" lon="4.89871">
        <ele>293</ele>
        <time>2018-08-18T09:44:31Z</time>
      </trkpt>
      <trkpt lat="45.99605" lon="4.8986">
        <ele>293</ele>
        <time>2018-08-18T09:44:32Z</time>
      </trkpt>
      <trkpt lat="45.99605" lon="4.89851">
        <ele>293</ele>
        <time>2018-08-18T09:44:33Z</time>
      </trkpt>
      <trkpt lat="45.99605" lon="4.89841">
        <ele>293</ele>
        <time>2018-08-18T09:44:34Z</time>
      </trkpt>
      <trkpt lat="45.99606" lon="4.89832">
        <ele>292</ele>
        <time>2018-08-18T09:44:35Z</time>
      </trkpt>
      <trkpt lat="45.99607" lon="4.89822">
        <ele>292</ele>
        <time>2018-08-18T09:44:36Z</time>
      </trkpt>
      <trkpt lat="45.99605" lon="4.89812">
        <ele>292</ele>
        <time>2018-08-18T09:44:37Z</time>
      </trkpt>
      <trkpt lat="45.99606" lon="4.89802">
        <ele>292</ele>
        <time>2018-08-18T09:44:38Z</time>
      </trkpt>
      <trkpt lat="45.99607" lon="4.89792">
        <ele>292</ele>
        <time>2018-08-18T09:44:39Z</time>
      </trkpt>
      <trkpt lat="45.99607" lon="4.89785">
        <ele>292</ele>
        <time>2018-08-18T09:44:40Z</time>
      </trkpt>
      <trkpt lat="45.99608" lon="4.89776">
        <ele>292</ele>
        <time>2018-08-18T09:44:41Z</time>
      </trkpt>
      <trkpt lat="45.99611" lon="4.89766">
        <ele>292</ele>
        <time>2018-08-18T09:44:43Z</time>
      </trkpt>
      <trkpt lat="45.99612" lon="4.89761">
        <ele>292</ele>
        <time>2018-08-18T09:44:44Z</time>
      </trkpt>
      <trkpt lat="45.99612" lon="4.89752">
        <ele>292</ele>
        <time>2018-08-18T09:44:45Z</time>
      </trkpt>
      <trkpt lat="45.99612" lon="4.89742">
        <ele>292</ele>
        <time>2018-08-18T09:44:46Z</time>
      </trkpt>
      <trkpt lat="45.99612" lon="4.89732">
        <ele>292</ele>
        <time>2018-08-18T09:44:47Z</time>
      </trkpt>
      <trkpt lat="45.99612" lon="4.89722">
        <ele>292</ele>
        <time>2018-08-18T09:44:48Z</time>
      </trkpt>
      <trkpt lat="45.99612" lon="4.89712">
        <ele>291</ele>
        <time>2018-08-18T09:44:49Z</time>
      </trkpt>
      <trkpt lat="45.99611" lon="4.89703">
        <ele>291</ele>
        <time>2018-08-18T09:44:50Z</time>
      </trkpt>
      <trkpt lat="45.99613" lon="4.89695">
        <ele>291</ele>
        <time>2018-08-18T09:44:51Z</time>
      </trkpt>
      <trkpt lat="45.99613" lon="4.89687">
        <ele>291</ele>
        <time>2018-08-18T09:44:52Z</time>
      </trkpt>
      <trkpt lat="45.99613" lon="4.89679">
        <ele>291</ele>
        <time>2018-08-18T09:44:53Z</time>
      </trkpt>
      <trkpt lat="45.99612" lon="4.89669">
        <ele>291</ele>
        <time>2018-08-18T09:44:54Z</time>
      </trkpt>
      <trkpt lat="45.99612" lon="4.89661">
        <ele>291</ele>
        <time>2018-08-18T09:44:55Z</time>
      </trkpt>
      <trkpt lat="45.99612" lon="4.89654">
        <ele>291</ele>
        <time>2018-08-18T09:44:56Z</time>
      </trkpt>
      <trkpt lat="45.99613" lon="4.89648">
        <ele>291</ele>
        <time>2018-08-18T09:44:57Z</time>
      </trkpt>
      <trkpt lat="45.99613" lon="4.89638">
        <ele>291</ele>
        <time>2018-08-18T09:44:58Z</time>
      </trkpt>
      <trkpt lat="45.99612" lon="4.89632">
        <ele>291</ele>
        <time>2018-08-18T09:44:59Z</time>
      </trkpt>
      <trkpt lat="45.99611" lon="4.89624">
        <ele>291</ele>
        <time>2018-08-18T09:45:00Z</time>
      </trkpt>
      <trkpt lat="45.9961" lon="4.89617">
        <ele>291</ele>
        <time>2018-08-18T09:45:01Z</time>
      </trkpt>
      <trkpt lat="45.99608" lon="4.8961">
        <ele>291</ele>
        <time>2018-08-18T09:45:02Z</time>
      </trkpt>
      <trkpt lat="45.99608" lon="4.89601">
        <ele>291</ele>
        <time>2018-08-18T09:45:03Z</time>
      </trkpt>
      <trkpt lat="45.99607" lon="4.89593">
        <ele>292</ele>
        <time>2018-08-18T09:45:04Z</time>
      </trkpt>
      <trkpt lat="45.99606" lon="4.89584">
        <ele>292</ele>
        <time>2018-08-18T09:45:05Z</time>
      </trkpt>
      <trkpt lat="45.99604" lon="4.89572">
        <ele>291</ele>
        <time>2018-08-18T09:45:06Z</time>
      </trkpt>
      <trkpt lat="45.99604" lon="4.89565">
        <ele>291</ele>
        <time>2018-08-18T09:45:07Z</time>
      </trkpt>
      <trkpt lat="45.99603" lon="4.89553">
        <ele>291</ele>
        <time>2018-08-18T09:45:08Z</time>
      </trkpt>
      <trkpt lat="45.99602" lon="4.89546">
        <ele>291</ele>
        <time>2018-08-18T09:45:09Z</time>
      </trkpt>
      <trkpt lat="45.99602" lon="4.89537">
        <ele>291</ele>
        <time>2018-08-18T09:45:10Z</time>
      </trkpt>
      <trkpt lat="45.99601" lon="4.89528">
        <ele>291</ele>
        <time>2018-08-18T09:45:11Z</time>
      </trkpt>
      <trkpt lat="45.99602" lon="4.8952">
        <ele>291</ele>
        <time>2018-08-18T09:45:12Z</time>
      </trkpt>
      <trkpt lat="45.99601" lon="4.8951">
        <ele>290</ele>
        <time>2018-08-18T09:45:13Z</time>
      </trkpt>
      <trkpt lat="45.99603" lon="4.89504">
        <ele>290</ele>
        <time>2018-08-18T09:45:14Z</time>
      </trkpt>
      <trkpt lat="45.99602" lon="4.89498">
        <ele>290</ele>
        <time>2018-08-18T09:45:15Z</time>
      </trkpt>
      <trkpt lat="45.99603" lon="4.8949">
        <ele>290</ele>
        <time>2018-08-18T09:45:16Z</time>
      </trkpt>
      <trkpt lat="45.99601" lon="4.89481">
        <ele>290</ele>
        <time>2018-08-18T09:45:17Z</time>
      </trkpt>
      <trkpt lat="45.996" lon="4.89473">
        <ele>290</ele>
        <time>2018-08-18T09:45:18Z</time>
      </trkpt>
      <trkpt lat="45.996" lon="4.89465">
        <ele>290</ele>
        <time>2018-08-18T09:45:19Z</time>
      </trkpt>
      <trkpt lat="45.996" lon="4.89458">
        <ele>290</ele>
        <time>2018-08-18T09:45:20Z</time>
      </trkpt>
      <trkpt lat="45.99599" lon="4.89449">
        <ele>290</ele>
        <time>2018-08-18T09:45:21Z</time>
      </trkpt>
      <trkpt lat="45.99598" lon="4.8944">
        <ele>290</ele>
        <time>2018-08-18T09:45:22Z</time>
      </trkpt>
      <trkpt lat="45.99597" lon="4.89431">
        <ele>290</ele>
        <time>2018-08-18T09:45:23Z</time>
      </trkpt>
      <trkpt lat="45.99597" lon="4.89422">
        <ele>290</ele>
        <time>2018-08-18T09:45:24Z</time>
      </trkpt>
      <trkpt lat="45.99596" lon="4.89414">
        <ele>290</ele>
        <time>2018-08-18T09:45:25Z</time>
      </trkpt>
      <trkpt lat="45.99596" lon="4.89404">
        <ele>290</ele>
        <time>2018-08-18T09:45:26Z</time>
      </trkpt>
      <trkpt lat="45.99595" lon="4.89394">
        <ele>290</ele>
        <time>2018-08-18T09:45:27Z</time>
      </trkpt>
      <trkpt lat="45.99596" lon="4.89384">
        <ele>290</ele>
        <time>2018-08-18T09:45:28Z</time>
      </trkpt>
      <trkpt lat="45.99594" lon="4.89375">
        <ele>289</ele>
        <time>2018-08-18T09:45:29Z</time>
      </trkpt>
      <trkpt lat="45.99594" lon="4.89366">
        <ele>289</ele>
        <time>2018-08-18T09:45:30Z</time>
      </trkpt>
      <trkpt lat="45.99593" lon="4.89357">
        <ele>289</ele>
        <time>2018-08-18T09:45:31Z</time>
      </trkpt>
      <trkpt lat="45.99592" lon="4.89347">
        <ele>289</ele>
        <time>2018-08-18T09:45:32Z</time>
      </trkpt>
      <trkpt lat="45.99592" lon="4.89338">
        <ele>289</ele>
        <time>2018-08-18T09:45:33Z</time>
      </trkpt>
      <trkpt lat="45.99592" lon="4.89329">
        <ele>289</ele>
        <time>2018-08-18T09:45:34Z</time>
      </trkpt>
      <trkpt lat="45.99591" lon="4.89321">
        <ele>289</ele>
        <time>2018-08-18T09:45:35Z</time>
      </trkpt>
      <trkpt lat="45.99591" lon="4.89312">
        <ele>289</ele>
        <time>2018-08-18T09:45:36Z</time>
      </trkpt>
      <trkpt lat="45.9959" lon="4.89304">
        <ele>289</ele>
        <time>2018-08-18T09:45:37Z</time>
      </trkpt>
      <trkpt lat="45.99589" lon="4.89296">
        <ele>289</ele>
        <time>2018-08-18T09:45:38Z</time>
      </trkpt>
      <trkpt lat="45.99588" lon="4.89288">
        <ele>289</ele>
        <time>2018-08-18T09:45:39Z</time>
      </trkpt>
      <trkpt lat="45.99587" lon="4.8928">
        <ele>289</ele>
        <time>2018-08-18T09:45:40Z</time>
      </trkpt>
      <trkpt lat="45.99586" lon="4.89271">
        <ele>288</ele>
        <time>2018-08-18T09:45:41Z</time>
      </trkpt>
      <trkpt lat="45.99585" lon="4.89261">
        <ele>288</ele>
        <time>2018-08-18T09:45:42Z</time>
      </trkpt>
      <trkpt lat="45.99586" lon="4.89253">
        <ele>288</ele>
        <time>2018-08-18T09:45:43Z</time>
      </trkpt>
      <trkpt lat="45.99585" lon="4.89244">
        <ele>288</ele>
        <time>2018-08-18T09:45:44Z</time>
      </trkpt>
      <trkpt lat="45.99584" lon="4.89235">
        <ele>288</ele>
        <time>2018-08-18T09:45:45Z</time>
      </trkpt>
      <trkpt lat="45.99583" lon="4.89226">
        <ele>288</ele>
        <time>2018-08-18T09:45:46Z</time>
      </trkpt>
      <trkpt lat="45.99583" lon="4.89217">
        <ele>288</ele>
        <time>2018-08-18T09:45:47Z</time>
      </trkpt>
      <trkpt lat="45.99582" lon="4.89207">
        <ele>288</ele>
        <time>2018-08-18T09:45:48Z</time>
      </trkpt>
      <trkpt lat="45.99582" lon="4.89198">
        <ele>288</ele>
        <time>2018-08-18T09:45:49Z</time>
      </trkpt>
      <trkpt lat="45.99581" lon="4.89186">
        <ele>288</ele>
        <time>2018-08-18T09:45:50Z</time>
      </trkpt>
      <trkpt lat="45.9958" lon="4.89177">
        <ele>288</ele>
        <time>2018-08-18T09:45:51Z</time>
      </trkpt>
      <trkpt lat="45.99579" lon="4.89168">
        <ele>288</ele>
        <time>2018-08-18T09:45:52Z</time>
      </trkpt>
      <trkpt lat="45.9958" lon="4.8916">
        <ele>288</ele>
        <time>2018-08-18T09:45:53Z</time>
      </trkpt>
      <trkpt lat="45.99579" lon="4.89151">
        <ele>289</ele>
        <time>2018-08-18T09:45:54Z</time>
      </trkpt>
      <trkpt lat="45.99579" lon="4.89141">
        <ele>289</ele>
        <time>2018-08-18T09:45:55Z</time>
      </trkpt>
      <trkpt lat="45.99578" lon="4.89132">
        <ele>289</ele>
        <time>2018-08-18T09:45:56Z</time>
      </trkpt>
      <trkpt lat="45.99578" lon="4.89124">
        <ele>289</ele>
        <time>2018-08-18T09:45:57Z</time>
      </trkpt>
      <trkpt lat="45.99577" lon="4.89115">
        <ele>289</ele>
        <time>2018-08-18T09:45:58Z</time>
      </trkpt>
      <trkpt lat="45.99577" lon="4.89107">
        <ele>289</ele>
        <time>2018-08-18T09:45:59Z</time>
      </trkpt>
      <trkpt lat="45.99578" lon="4.89099">
        <ele>289</ele>
        <time>2018-08-18T09:46:00Z</time>
      </trkpt>
      <trkpt lat="45.99576" lon="4.89089">
        <ele>289</ele>
        <time>2018-08-18T09:46:01Z</time>
      </trkpt>
      <trkpt lat="45.99577" lon="4.8908">
        <ele>289</ele>
        <time>2018-08-18T09:46:02Z</time>
      </trkpt>
      <trkpt lat="45.99579" lon="4.89072">
        <ele>289</ele>
        <time>2018-08-18T09:46:03Z</time>
      </trkpt>
      <trkpt lat="45.9958" lon="4.89062">
        <ele>289</ele>
        <time>2018-08-18T09:46:04Z</time>
      </trkpt>
      <trkpt lat="45.99581" lon="4.89053">
        <ele>288</ele>
        <time>2018-08-18T09:46:05Z</time>
      </trkpt>
      <trkpt lat="45.99582" lon="4.89043">
        <ele>288</ele>
        <time>2018-08-18T09:46:06Z</time>
      </trkpt>
      <trkpt lat="45.99583" lon="4.89033">
        <ele>288</ele>
        <time>2018-08-18T09:46:07Z</time>
      </trkpt>
      <trkpt lat="45.99584" lon="4.89024">
        <ele>288</ele>
        <time>2018-08-18T09:46:08Z</time>
      </trkpt>
      <trkpt lat="45.99585" lon="4.89016">
        <ele>288</ele>
        <time>2018-08-18T09:46:09Z</time>
      </trkpt>
      <trkpt lat="45.99586" lon="4.89006">
        <ele>288</ele>
        <time>2018-08-18T09:46:10Z</time>
      </trkpt>
      <trkpt lat="45.99586" lon="4.88996">
        <ele>288</ele>
        <time>2018-08-18T09:46:11Z</time>
      </trkpt>
      <trkpt lat="45.99587" lon="4.88986">
        <ele>288</ele>
        <time>2018-08-18T09:46:12Z</time>
      </trkpt>
      <trkpt lat="45.99586" lon="4.88977">
        <ele>288</ele>
        <time>2018-08-18T09:46:13Z</time>
      </trkpt>
      <trkpt lat="45.99585" lon="4.88968">
        <ele>288</ele>
        <time>2018-08-18T09:46:14Z</time>
      </trkpt>
      <trkpt lat="45.99585" lon="4.88959">
        <ele>288</ele>
        <time>2018-08-18T09:46:15Z</time>
      </trkpt>
      <trkpt lat="45.99583" lon="4.88949">
        <ele>287</ele>
        <time>2018-08-18T09:46:16Z</time>
      </trkpt>
      <trkpt lat="45.99583" lon="4.88941">
        <ele>287</ele>
        <time>2018-08-18T09:46:17Z</time>
      </trkpt>
      <trkpt lat="45.99582" lon="4.88932">
        <ele>287</ele>
        <time>2018-08-18T09:46:18Z</time>
      </trkpt>
      <trkpt lat="45.99579" lon="4.88919">
        <ele>287</ele>
        <time>2018-08-18T09:46:19Z</time>
      </trkpt>
      <trkpt lat="45.99579" lon="4.88911">
        <ele>287</ele>
        <time>2018-08-18T09:46:20Z</time>
      </trkpt>
      <trkpt lat="45.99579" lon="4.88904">
        <ele>287</ele>
        <time>2018-08-18T09:46:21Z</time>
      </trkpt>
      <trkpt lat="45.99579" lon="4.88895">
        <ele>287</ele>
        <time>2018-08-18T09:46:22Z</time>
      </trkpt>
      <trkpt lat="45.99578" lon="4.88887">
        <ele>287</ele>
        <time>2018-08-18T09:46:23Z</time>
      </trkpt>
      <trkpt lat="45.99576" lon="4.88878">
        <ele>287</ele>
        <time>2018-08-18T09:46:24Z</time>
      </trkpt>
      <trkpt lat="45.99575" lon="4.88869">
        <ele>287</ele>
        <time>2018-08-18T09:46:25Z</time>
      </trkpt>
      <trkpt lat="45.99573" lon="4.8886">
        <ele>287</ele>
        <time>2018-08-18T09:46:26Z</time>
      </trkpt>
      <trkpt lat="45.99573" lon="4.88851">
        <ele>287</ele>
        <time>2018-08-18T09:46:27Z</time>
      </trkpt>
      <trkpt lat="45.99572" lon="4.88843">
        <ele>287</ele>
        <time>2018-08-18T09:46:28Z</time>
      </trkpt>
      <trkpt lat="45.99571" lon="4.88833">
        <ele>287</ele>
        <time>2018-08-18T09:46:29Z</time>
      </trkpt>
      <trkpt lat="45.9957" lon="4.88824">
        <ele>287</ele>
        <time>2018-08-18T09:46:30Z</time>
      </trkpt>
      <trkpt lat="45.99569" lon="4.88815">
        <ele>287</ele>
        <time>2018-08-18T09:46:31Z</time>
      </trkpt>
      <trkpt lat="45.99567" lon="4.88805">
        <ele>287</ele>
        <time>2018-08-18T09:46:32Z</time>
      </trkpt>
      <trkpt lat="45.99568" lon="4.88796">
        <ele>287</ele>
        <time>2018-08-18T09:46:33Z</time>
      </trkpt>
      <trkpt lat="45.99566" lon="4.88786">
        <ele>287</ele>
        <time>2018-08-18T09:46:34Z</time>
      </trkpt>
      <trkpt lat="45.99565" lon="4.88776">
        <ele>287</ele>
        <time>2018-08-18T09:46:35Z</time>
      </trkpt>
      <trkpt lat="45.99565" lon="4.88768">
        <ele>287</ele>
        <time>2018-08-18T09:46:36Z</time>
      </trkpt>
      <trkpt lat="45.99565" lon="4.88758">
        <ele>287</ele>
        <time>2018-08-18T09:46:37Z</time>
      </trkpt>
      <trkpt lat="45.99564" lon="4.88748">
        <ele>287</ele>
        <time>2018-08-18T09:46:38Z</time>
      </trkpt>
      <trkpt lat="45.99564" lon="4.88739">
        <ele>287</ele>
        <time>2018-08-18T09:46:39Z</time>
      </trkpt>
      <trkpt lat="45.99563" lon="4.8873">
        <ele>287</ele>
        <time>2018-08-18T09:46:40Z</time>
      </trkpt>
      <trkpt lat="45.99562" lon="4.88721">
        <ele>286</ele>
        <time>2018-08-18T09:46:41Z</time>
      </trkpt>
      <trkpt lat="45.99561" lon="4.88713">
        <ele>286</ele>
        <time>2018-08-18T09:46:42Z</time>
      </trkpt>
      <trkpt lat="45.99561" lon="4.88703">
        <ele>286</ele>
        <time>2018-08-18T09:46:43Z</time>
      </trkpt>
      <trkpt lat="45.9956" lon="4.88694">
        <ele>286</ele>
        <time>2018-08-18T09:46:44Z</time>
      </trkpt>
      <trkpt lat="45.99559" lon="4.88684">
        <ele>286</ele>
        <time>2018-08-18T09:46:45Z</time>
      </trkpt>
      <trkpt lat="45.99558" lon="4.88676">
        <ele>286</ele>
        <time>2018-08-18T09:46:46Z</time>
      </trkpt>
      <trkpt lat="45.99557" lon="4.88667">
        <ele>286</ele>
        <time>2018-08-18T09:46:47Z</time>
      </trkpt>
      <trkpt lat="45.99556" lon="4.88655">
        <ele>286</ele>
        <time>2018-08-18T09:46:48Z</time>
      </trkpt>
      <trkpt lat="45.99556" lon="4.88645">
        <ele>286</ele>
        <time>2018-08-18T09:46:49Z</time>
      </trkpt>
      <trkpt lat="45.99555" lon="4.88634">
        <ele>286</ele>
        <time>2018-08-18T09:46:50Z</time>
      </trkpt>
      <trkpt lat="45.99554" lon="4.88625">
        <ele>286</ele>
        <time>2018-08-18T09:46:51Z</time>
      </trkpt>
      <trkpt lat="45.99553" lon="4.88615">
        <ele>286</ele>
        <time>2018-08-18T09:46:52Z</time>
      </trkpt>
      <trkpt lat="45.99551" lon="4.88607">
        <ele>286</ele>
        <time>2018-08-18T09:46:53Z</time>
      </trkpt>
      <trkpt lat="45.9955" lon="4.88596">
        <ele>286</ele>
        <time>2018-08-18T09:46:54Z</time>
      </trkpt>
      <trkpt lat="45.9955" lon="4.88586">
        <ele>286</ele>
        <time>2018-08-18T09:46:55Z</time>
      </trkpt>
      <trkpt lat="45.99548" lon="4.88578">
        <ele>286</ele>
        <time>2018-08-18T09:46:56Z</time>
      </trkpt>
      <trkpt lat="45.99547" lon="4.88568">
        <ele>286</ele>
        <time>2018-08-18T09:46:57Z</time>
      </trkpt>
      <trkpt lat="45.99544" lon="4.8856">
        <ele>285</ele>
        <time>2018-08-18T09:46:58Z</time>
      </trkpt>
      <trkpt lat="45.99542" lon="4.88552">
        <ele>285</ele>
        <time>2018-08-18T09:46:59Z</time>
      </trkpt>
      <trkpt lat="45.99539" lon="4.88545">
        <ele>285</ele>
        <time>2018-08-18T09:47:00Z</time>
      </trkpt>
      <trkpt lat="45.99536" lon="4.88536">
        <ele>285</ele>
        <time>2018-08-18T09:47:01Z</time>
      </trkpt>
      <trkpt lat="45.99532" lon="4.88528">
        <ele>285</ele>
        <time>2018-08-18T09:47:02Z</time>
      </trkpt>
      <trkpt lat="45.99527" lon="4.8852">
        <ele>285</ele>
        <time>2018-08-18T09:47:03Z</time>
      </trkpt>
      <trkpt lat="45.99523" lon="4.88511">
        <ele>285</ele>
        <time>2018-08-18T09:47:04Z</time>
      </trkpt>
      <trkpt lat="45.99518" lon="4.88503">
        <ele>285</ele>
        <time>2018-08-18T09:47:05Z</time>
      </trkpt>
      <trkpt lat="45.99514" lon="4.88497">
        <ele>284</ele>
        <time>2018-08-18T09:47:06Z</time>
      </trkpt>
      <trkpt lat="45.9951" lon="4.8849">
        <ele>284</ele>
        <time>2018-08-18T09:47:07Z</time>
      </trkpt>
      <trkpt lat="45.99505" lon="4.88481">
        <ele>284</ele>
        <time>2018-08-18T09:47:08Z</time>
      </trkpt>
      <trkpt lat="45.995" lon="4.88472">
        <ele>284</ele>
        <time>2018-08-18T09:47:09Z</time>
      </trkpt>
      <trkpt lat="45.99496" lon="4.88465">
        <ele>284</ele>
        <time>2018-08-18T09:47:10Z</time>
      </trkpt>
      <trkpt lat="45.99491" lon="4.88456">
        <ele>284</ele>
        <time>2018-08-18T09:47:11Z</time>
      </trkpt>
      <trkpt lat="45.99487" lon="4.88447">
        <ele>284</ele>
        <time>2018-08-18T09:47:12Z</time>
      </trkpt>
      <trkpt lat="45.99482" lon="4.88438">
        <ele>284</ele>
        <time>2018-08-18T09:47:13Z</time>
      </trkpt>
      <trkpt lat="45.99478" lon="4.88433">
        <ele>284</ele>
        <time>2018-08-18T09:47:14Z</time>
      </trkpt>
      <trkpt lat="45.9947" lon="4.88424">
        <ele>284</ele>
        <time>2018-08-18T09:47:15Z</time>
      </trkpt>
      <trkpt lat="45.99464" lon="4.88419">
        <ele>284</ele>
        <time>2018-08-18T09:47:16Z</time>
      </trkpt>
      <trkpt lat="45.99457" lon="4.88414">
        <ele>283</ele>
        <time>2018-08-18T09:47:17Z</time>
      </trkpt>
      <trkpt lat="45.9945" lon="4.88407">
        <ele>283</ele>
        <time>2018-08-18T09:47:18Z</time>
      </trkpt>
      <trkpt lat="45.99444" lon="4.88401">
        <ele>283</ele>
        <time>2018-08-18T09:47:19Z</time>
      </trkpt>
      <trkpt lat="45.99438" lon="4.88393">
        <ele>283</ele>
        <time>2018-08-18T09:47:20Z</time>
      </trkpt>
      <trkpt lat="45.99434" lon="4.88385">
        <ele>283</ele>
        <time>2018-08-18T09:47:21Z</time>
      </trkpt>
      <trkpt lat="45.9943" lon="4.88375">
        <ele>283</ele>
        <time>2018-08-18T09:47:22Z</time>
      </trkpt>
      <trkpt lat="45.99426" lon="4.88367">
        <ele>283</ele>
        <time>2018-08-18T09:47:23Z</time>
      </trkpt>
      <trkpt lat="45.99422" lon="4.88357">
        <ele>283</ele>
        <time>2018-08-18T09:47:24Z</time>
      </trkpt>
      <trkpt lat="45.99419" lon="4.88347">
        <ele>282</ele>
        <time>2018-08-18T09:47:25Z</time>
      </trkpt>
      <trkpt lat="45.99414" lon="4.88337">
        <ele>282</ele>
        <time>2018-08-18T09:47:26Z</time>
      </trkpt>
      <trkpt lat="45.99409" lon="4.88327">
        <ele>283</ele>
        <time>2018-08-18T09:47:27Z</time>
      </trkpt>
      <trkpt lat="45.99405" lon="4.88316">
        <ele>283</ele>
        <time>2018-08-18T09:47:28Z</time>
      </trkpt>
      <trkpt lat="45.994" lon="4.88305">
        <ele>284</ele>
        <time>2018-08-18T09:47:29Z</time>
      </trkpt>
      <trkpt lat="45.99396" lon="4.88296">
        <ele>284</ele>
        <time>2018-08-18T09:47:30Z</time>
      </trkpt>
      <trkpt lat="45.99392" lon="4.88285">
        <ele>284</ele>
        <time>2018-08-18T09:47:31Z</time>
      </trkpt>
      <trkpt lat="45.99388" lon="4.88275">
        <ele>284</ele>
        <time>2018-08-18T09:47:32Z</time>
      </trkpt>
      <trkpt lat="45.99385" lon="4.88266">
        <ele>285</ele>
        <time>2018-08-18T09:47:33Z</time>
      </trkpt>
      <trkpt lat="45.9938" lon="4.88257">
        <ele>285</ele>
        <time>2018-08-18T09:47:34Z</time>
      </trkpt>
      <trkpt lat="45.99377" lon="4.88249">
        <ele>287</ele>
        <time>2018-08-18T09:47:35Z</time>
      </trkpt>
      <trkpt lat="45.99371" lon="4.88241">
        <ele>287</ele>
        <time>2018-08-18T09:47:36Z</time>
      </trkpt>
      <trkpt lat="45.99367" lon="4.88236">
        <ele>287</ele>
        <time>2018-08-18T09:47:37Z</time>
      </trkpt>
      <trkpt lat="45.99361" lon="4.8823">
        <ele>287</ele>
        <time>2018-08-18T09:47:38Z</time>
      </trkpt>
      <trkpt lat="45.99356" lon="4.88225">
        <ele>287</ele>
        <time>2018-08-18T09:47:39Z</time>
      </trkpt>
      <trkpt lat="45.9935" lon="4.88218">
        <ele>287</ele>
        <time>2018-08-18T09:47:40Z</time>
      </trkpt>
      <trkpt lat="45.99344" lon="4.88213">
        <ele>287</ele>
        <time>2018-08-18T09:47:41Z</time>
      </trkpt>
      <trkpt lat="45.99338" lon="4.88208">
        <ele>287</ele>
        <time>2018-08-18T09:47:42Z</time>
      </trkpt>
      <trkpt lat="45.99333" lon="4.88202">
        <ele>285</ele>
        <time>2018-08-18T09:47:43Z</time>
      </trkpt>
      <trkpt lat="45.99325" lon="4.88194">
        <ele>285</ele>
        <time>2018-08-18T09:47:44Z</time>
      </trkpt>
      <trkpt lat="45.99316" lon="4.88186">
        <ele>285</ele>
        <time>2018-08-18T09:47:45Z</time>
      </trkpt>
      <trkpt lat="45.99308" lon="4.88178">
        <ele>285</ele>
        <time>2018-08-18T09:47:46Z</time>
      </trkpt>
      <trkpt lat="45.99301" lon="4.88172">
        <ele>285</ele>
        <time>2018-08-18T09:47:47Z</time>
      </trkpt>
      <trkpt lat="45.99294" lon="4.88166">
        <ele>284</ele>
        <time>2018-08-18T09:47:48Z</time>
      </trkpt>
      <trkpt lat="45.99287" lon="4.88161">
        <ele>284</ele>
        <time>2018-08-18T09:47:49Z</time>
      </trkpt>
      <trkpt lat="45.99283" lon="4.88152">
        <ele>284</ele>
        <time>2018-08-18T09:47:50Z</time>
      </trkpt>
      <trkpt lat="45.99278" lon="4.88147">
        <ele>283</ele>
        <time>2018-08-18T09:47:51Z</time>
      </trkpt>
      <trkpt lat="45.99271" lon="4.88141">
        <ele>283</ele>
        <time>2018-08-18T09:47:52Z</time>
      </trkpt>
      <trkpt lat="45.99265" lon="4.88137">
        <ele>283</ele>
        <time>2018-08-18T09:47:53Z</time>
      </trkpt>
      <trkpt lat="45.99259" lon="4.88132">
        <ele>283</ele>
        <time>2018-08-18T09:47:54Z</time>
      </trkpt>
      <trkpt lat="45.99252" lon="4.88126">
        <ele>283</ele>
        <time>2018-08-18T09:47:55Z</time>
      </trkpt>
      <trkpt lat="45.99246" lon="4.8812">
        <ele>280</ele>
        <time>2018-08-18T09:47:56Z</time>
      </trkpt>
      <trkpt lat="45.99236" lon="4.88115">
        <ele>280</ele>
        <time>2018-08-18T09:47:57Z</time>
      </trkpt>
      <trkpt lat="45.9923" lon="4.88109">
        <ele>280</ele>
        <time>2018-08-18T09:47:58Z</time>
      </trkpt>
      <trkpt lat="45.99226" lon="4.88104">
        <ele>280</ele>
        <time>2018-08-18T09:47:59Z</time>
      </trkpt>
      <trkpt lat="45.99219" lon="4.88098">
        <ele>280</ele>
        <time>2018-08-18T09:48:00Z</time>
      </trkpt>
      <trkpt lat="45.99212" lon="4.88093">
        <ele>280</ele>
        <time>2018-08-18T09:48:01Z</time>
      </trkpt>
      <trkpt lat="45.99204" lon="4.88087">
        <ele>280</ele>
        <time>2018-08-18T09:48:02Z</time>
      </trkpt>
      <trkpt lat="45.99197" lon="4.88082">
        <ele>280</ele>
        <time>2018-08-18T09:48:03Z</time>
      </trkpt>
      <trkpt lat="45.9919" lon="4.88076">
        <ele>280</ele>
        <time>2018-08-18T09:48:04Z</time>
      </trkpt>
      <trkpt lat="45.99185" lon="4.88073">
        <ele>279</ele>
        <time>2018-08-18T09:48:05Z</time>
      </trkpt>
      <trkpt lat="45.99178" lon="4.88067">
        <ele>279</ele>
        <time>2018-08-18T09:48:06Z</time>
      </trkpt>
      <trkpt lat="45.99171" lon="4.88062">
        <ele>279</ele>
        <time>2018-08-18T09:48:07Z</time>
      </trkpt>
      <trkpt lat="45.99165" lon="4.88056">
        <ele>279</ele>
        <time>2018-08-18T09:48:08Z</time>
      </trkpt>
      <trkpt lat="45.99158" lon="4.88051">
        <ele>279</ele>
        <time>2018-08-18T09:48:09Z</time>
      </trkpt>
      <trkpt lat="45.99151" lon="4.88047">
        <ele>279</ele>
        <time>2018-08-18T09:48:10Z</time>
      </trkpt>
      <trkpt lat="45.99144" lon="4.88042">
        <ele>279</ele>
        <time>2018-08-18T09:48:11Z</time>
      </trkpt>
      <trkpt lat="45.99138" lon="4.8804">
        <ele>279</ele>
        <time>2018-08-18T09:48:12Z</time>
      </trkpt>
      <trkpt lat="45.99133" lon="4.88037">
        <ele>279</ele>
        <time>2018-08-18T09:48:13Z</time>
      </trkpt>
      <trkpt lat="45.99126" lon="4.88033">
        <ele>279</ele>
        <time>2018-08-18T09:48:14Z</time>
      </trkpt>
      <trkpt lat="45.99119" lon="4.88027">
        <ele>278</ele>
        <time>2018-08-18T09:48:15Z</time>
      </trkpt>
      <trkpt lat="45.99112" lon="4.88022">
        <ele>278</ele>
        <time>2018-08-18T09:48:16Z</time>
      </trkpt>
      <trkpt lat="45.99105" lon="4.88019">
        <ele>278</ele>
        <time>2018-08-18T09:48:17Z</time>
      </trkpt>
      <trkpt lat="45.99097" lon="4.88014">
        <ele>278</ele>
        <time>2018-08-18T09:48:18Z</time>
      </trkpt>
      <trkpt lat="45.9909" lon="4.8801">
        <ele>278</ele>
        <time>2018-08-18T09:48:19Z</time>
      </trkpt>
      <trkpt lat="45.99083" lon="4.88005">
        <ele>278</ele>
        <time>2018-08-18T09:48:20Z</time>
      </trkpt>
      <trkpt lat="45.99077" lon="4.88">
        <ele>278</ele>
        <time>2018-08-18T09:48:21Z</time>
      </trkpt>
      <trkpt lat="45.9907" lon="4.87996">
        <ele>277</ele>
        <time>2018-08-18T09:48:22Z</time>
      </trkpt>
      <trkpt lat="45.99062" lon="4.87993">
        <ele>277</ele>
        <time>2018-08-18T09:48:23Z</time>
      </trkpt>
      <trkpt lat="45.99054" lon="4.87988">
        <ele>277</ele>
        <time>2018-08-18T09:48:24Z</time>
      </trkpt>
      <trkpt lat="45.99048" lon="4.87984">
        <ele>277</ele>
        <time>2018-08-18T09:48:25Z</time>
      </trkpt>
      <trkpt lat="45.99041" lon="4.8798">
        <ele>276</ele>
        <time>2018-08-18T09:48:26Z</time>
      </trkpt>
      <trkpt lat="45.99034" lon="4.87976">
        <ele>276</ele>
        <time>2018-08-18T09:48:27Z</time>
      </trkpt>
      <trkpt lat="45.99026" lon="4.8797">
        <ele>276</ele>
        <time>2018-08-18T09:48:28Z</time>
      </trkpt>
      <trkpt lat="45.99019" lon="4.87965">
        <ele>276</ele>
        <time>2018-08-18T09:48:29Z</time>
      </trkpt>
      <trkpt lat="45.99012" lon="4.87961">
        <ele>276</ele>
        <time>2018-08-18T09:48:30Z</time>
      </trkpt>
      <trkpt lat="45.99004" lon="4.87957">
        <ele>276</ele>
        <time>2018-08-18T09:48:31Z</time>
      </trkpt>
      <trkpt lat="45.98995" lon="4.87951">
        <ele>274</ele>
        <time>2018-08-18T09:48:32Z</time>
      </trkpt>
      <trkpt lat="45.98987" lon="4.87948">
        <ele>274</ele>
        <time>2018-08-18T09:48:33Z</time>
      </trkpt>
      <trkpt lat="45.9898" lon="4.87945">
        <ele>274</ele>
        <time>2018-08-18T09:48:34Z</time>
      </trkpt>
      <trkpt lat="45.98972" lon="4.87941">
        <ele>274</ele>
        <time>2018-08-18T09:48:35Z</time>
      </trkpt>
      <trkpt lat="45.98964" lon="4.87935">
        <ele>274</ele>
        <time>2018-08-18T09:48:36Z</time>
      </trkpt>
      <trkpt lat="45.98955" lon="4.87931">
        <ele>273</ele>
        <time>2018-08-18T09:48:37Z</time>
      </trkpt>
      <trkpt lat="45.98947" lon="4.87927">
        <ele>273</ele>
        <time>2018-08-18T09:48:38Z</time>
      </trkpt>
      <trkpt lat="45.98939" lon="4.8792">
        <ele>272</ele>
        <time>2018-08-18T09:48:39Z</time>
      </trkpt>
      <trkpt lat="45.98931" lon="4.87914">
        <ele>273</ele>
        <time>2018-08-18T09:48:40Z</time>
      </trkpt>
      <trkpt lat="45.98923" lon="4.87907">
        <ele>272</ele>
        <time>2018-08-18T09:48:41Z</time>
      </trkpt>
      <trkpt lat="45.98913" lon="4.87897">
        <ele>272</ele>
        <time>2018-08-18T09:48:42Z</time>
      </trkpt>
      <trkpt lat="45.98905" lon="4.87887">
        <ele>272</ele>
        <time>2018-08-18T09:48:43Z</time>
      </trkpt>
      <trkpt lat="45.98898" lon="4.87878">
        <ele>272</ele>
        <time>2018-08-18T09:48:44Z</time>
      </trkpt>
      <trkpt lat="45.98894" lon="4.87871">
        <ele>272</ele>
        <time>2018-08-18T09:48:45Z</time>
      </trkpt>
      <trkpt lat="45.98887" lon="4.87863">
        <ele>272</ele>
        <time>2018-08-18T09:48:46Z</time>
      </trkpt>
      <trkpt lat="45.98881" lon="4.87854">
        <ele>272</ele>
        <time>2018-08-18T09:48:47Z</time>
      </trkpt>
      <trkpt lat="45.98875" lon="4.87845">
        <ele>272</ele>
        <time>2018-08-18T09:48:48Z</time>
      </trkpt>
      <trkpt lat="45.98871" lon="4.87835">
        <ele>273</ele>
        <time>2018-08-18T09:48:49Z</time>
      </trkpt>
      <trkpt lat="45.98867" lon="4.87825">
        <ele>273</ele>
        <time>2018-08-18T09:48:50Z</time>
      </trkpt>
      <trkpt lat="45.98862" lon="4.87814">
        <ele>273</ele>
        <time>2018-08-18T09:48:51Z</time>
      </trkpt>
      <trkpt lat="45.98856" lon="4.87803">
        <ele>273</ele>
        <time>2018-08-18T09:48:52Z</time>
      </trkpt>
      <trkpt lat="45.98852" lon="4.87793">
        <ele>273</ele>
        <time>2018-08-18T09:48:53Z</time>
      </trkpt>
      <trkpt lat="45.98848" lon="4.87781">
        <ele>273</ele>
        <time>2018-08-18T09:48:54Z</time>
      </trkpt>
      <trkpt lat="45.98846" lon="4.87771">
        <ele>273</ele>
        <time>2018-08-18T09:48:55Z</time>
      </trkpt>
      <trkpt lat="45.98844" lon="4.87762">
        <ele>273</ele>
        <time>2018-08-18T09:48:56Z</time>
      </trkpt>
      <trkpt lat="45.98842" lon="4.87751">
        <ele>273</ele>
        <time>2018-08-18T09:48:57Z</time>
      </trkpt>
      <trkpt lat="45.98839" lon="4.87741">
        <ele>273</ele>
        <time>2018-08-18T09:48:58Z</time>
      </trkpt>
      <trkpt lat="45.98836" lon="4.87731">
        <ele>273</ele>
        <time>2018-08-18T09:48:59Z</time>
      </trkpt>
      <trkpt lat="45.98835" lon="4.87722">
        <ele>273</ele>
        <time>2018-08-18T09:49:00Z</time>
      </trkpt>
      <trkpt lat="45.98833" lon="4.87712">
        <ele>273</ele>
        <time>2018-08-18T09:49:01Z</time>
      </trkpt>
      <trkpt lat="45.9883" lon="4.87702">
        <ele>273</ele>
        <time>2018-08-18T09:49:02Z</time>
      </trkpt>
      <trkpt lat="45.98828" lon="4.87691">
        <ele>273</ele>
        <time>2018-08-18T09:49:03Z</time>
      </trkpt>
      <trkpt lat="45.98827" lon="4.87681">
        <ele>273</ele>
        <time>2018-08-18T09:49:04Z</time>
      </trkpt>
      <trkpt lat="45.98825" lon="4.87671">
        <ele>273</ele>
        <time>2018-08-18T09:49:05Z</time>
      </trkpt>
      <trkpt lat="45.98822" lon="4.87661">
        <ele>272</ele>
        <time>2018-08-18T09:49:06Z</time>
      </trkpt>
      <trkpt lat="45.98821" lon="4.87651">
        <ele>272</ele>
        <time>2018-08-18T09:49:07Z</time>
      </trkpt>
      <trkpt lat="45.98821" lon="4.87643">
        <ele>272</ele>
        <time>2018-08-18T09:49:08Z</time>
      </trkpt>
      <trkpt lat="45.98818" lon="4.87635">
        <ele>272</ele>
        <time>2018-08-18T09:49:09Z</time>
      </trkpt>
      <trkpt lat="45.98816" lon="4.87628">
        <ele>271</ele>
        <time>2018-08-18T09:49:10Z</time>
      </trkpt>
      <trkpt lat="45.98813" lon="4.8762">
        <ele>271</ele>
        <time>2018-08-18T09:49:11Z</time>
      </trkpt>
      <trkpt lat="45.9881" lon="4.87611">
        <ele>271</ele>
        <time>2018-08-18T09:49:12Z</time>
      </trkpt>
      <trkpt lat="45.98806" lon="4.87604">
        <ele>271</ele>
        <time>2018-08-18T09:49:13Z</time>
      </trkpt>
      <trkpt lat="45.98799" lon="4.87596">
        <ele>271</ele>
        <time>2018-08-18T09:49:14Z</time>
      </trkpt>
      <trkpt lat="45.98793" lon="4.87589">
        <ele>271</ele>
        <time>2018-08-18T09:49:15Z</time>
      </trkpt>
      <trkpt lat="45.98789" lon="4.87584">
        <ele>271</ele>
        <time>2018-08-18T09:49:16Z</time>
      </trkpt>
      <trkpt lat="45.98784" lon="4.87578">
        <ele>269</ele>
        <time>2018-08-18T09:49:17Z</time>
      </trkpt>
      <trkpt lat="45.9878" lon="4.87573">
        <ele>269</ele>
        <time>2018-08-18T09:49:18Z</time>
      </trkpt>
      <trkpt lat="45.98774" lon="4.87568">
        <ele>269</ele>
        <time>2018-08-18T09:49:19Z</time>
      </trkpt>
      <trkpt lat="45.98767" lon="4.87562">
        <ele>269</ele>
        <time>2018-08-18T09:49:20Z</time>
      </trkpt>
      <trkpt lat="45.9876" lon="4.87557">
        <ele>269</ele>
        <time>2018-08-18T09:49:21Z</time>
      </trkpt>
      <trkpt lat="45.98752" lon="4.87551">
        <ele>269</ele>
        <time>2018-08-18T09:49:22Z</time>
      </trkpt>
      <trkpt lat="45.98745" lon="4.87551">
        <ele>267</ele>
        <time>2018-08-18T09:49:23Z</time>
      </trkpt>
      <trkpt lat="45.98738" lon="4.8755">
        <ele>267</ele>
        <time>2018-08-18T09:49:24Z</time>
      </trkpt>
      <trkpt lat="45.98731" lon="4.87551">
        <ele>267</ele>
        <time>2018-08-18T09:49:25Z</time>
      </trkpt>
      <trkpt lat="45.98725" lon="4.87553">
        <ele>267</ele>
        <time>2018-08-18T09:49:26Z</time>
      </trkpt>
      <trkpt lat="45.98719" lon="4.87553">
        <ele>267</ele>
        <time>2018-08-18T09:49:27Z</time>
      </trkpt>
      <trkpt lat="45.98712" lon="4.87555">
        <ele>267</ele>
        <time>2018-08-18T09:49:28Z</time>
      </trkpt>
      <trkpt lat="45.9871" lon="4.87561">
        <ele>267</ele>
        <time>2018-08-18T09:49:29Z</time>
      </trkpt>
      <trkpt lat="45.98706" lon="4.87564">
        <ele>267</ele>
        <time>2018-08-18T09:49:30Z</time>
      </trkpt>
      <trkpt lat="45.98699" lon="4.87565">
        <ele>267</ele>
        <time>2018-08-18T09:49:31Z</time>
      </trkpt>
      <trkpt lat="45.98693" lon="4.87568">
        <ele>267</ele>
        <time>2018-08-18T09:49:32Z</time>
      </trkpt>
      <trkpt lat="45.98686" lon="4.8757">
        <ele>267</ele>
        <time>2018-08-18T09:49:33Z</time>
      </trkpt>
      <trkpt lat="45.98681" lon="4.8757">
        <ele>267</ele>
        <time>2018-08-18T09:49:34Z</time>
      </trkpt>
      <trkpt lat="45.98675" lon="4.87571">
        <ele>267</ele>
        <time>2018-08-18T09:49:35Z</time>
      </trkpt>
      <trkpt lat="45.98669" lon="4.87571">
        <ele>267</ele>
        <time>2018-08-18T09:49:36Z</time>
      </trkpt>
      <trkpt lat="45.98662" lon="4.87569">
        <ele>267</ele>
        <time>2018-08-18T09:49:37Z</time>
      </trkpt>
      <trkpt lat="45.9866" lon="4.87565">
        <ele>267</ele>
        <time>2018-08-18T09:49:38Z</time>
      </trkpt>
      <trkpt lat="45.98656" lon="4.87561">
        <ele>267</ele>
        <time>2018-08-18T09:49:39Z</time>
      </trkpt>
      <trkpt lat="45.98654" lon="4.87554">
        <ele>267</ele>
        <time>2018-08-18T09:49:40Z</time>
      </trkpt>
      <trkpt lat="45.98651" lon="4.87547">
        <ele>267</ele>
        <time>2018-08-18T09:49:41Z</time>
      </trkpt>
      <trkpt lat="45.98649" lon="4.87541">
        <ele>267</ele>
        <time>2018-08-18T09:49:42Z</time>
      </trkpt>
      <trkpt lat="45.98647" lon="4.87533">
        <ele>267</ele>
        <time>2018-08-18T09:49:43Z</time>
      </trkpt>
      <trkpt lat="45.98645" lon="4.87527">
        <ele>267</ele>
        <time>2018-08-18T09:49:44Z</time>
      </trkpt>
      <trkpt lat="45.98642" lon="4.8752">
        <ele>267</ele>
        <time>2018-08-18T09:49:45Z</time>
      </trkpt>
      <trkpt lat="45.98641" lon="4.87511">
        <ele>267</ele>
        <time>2018-08-18T09:49:46Z</time>
      </trkpt>
      <trkpt lat="45.98639" lon="4.87503">
        <ele>267</ele>
        <time>2018-08-18T09:49:47Z</time>
      </trkpt>
      <trkpt lat="45.98637" lon="4.87496">
        <ele>267</ele>
        <time>2018-08-18T09:49:48Z</time>
      </trkpt>
      <trkpt lat="45.98634" lon="4.87489">
        <ele>268</ele>
        <time>2018-08-18T09:49:49Z</time>
      </trkpt>
      <trkpt lat="45.98633" lon="4.87482">
        <ele>268</ele>
        <time>2018-08-18T09:49:50Z</time>
      </trkpt>
      <trkpt lat="45.98631" lon="4.87471">
        <ele>268</ele>
        <time>2018-08-18T09:49:52Z</time>
      </trkpt>
      <trkpt lat="45.9863" lon="4.87464">
        <ele>268</ele>
        <time>2018-08-18T09:49:53Z</time>
      </trkpt>
      <trkpt lat="45.98628" lon="4.87458">
        <ele>268</ele>
        <time>2018-08-18T09:49:54Z</time>
      </trkpt>
      <trkpt lat="45.98627" lon="4.87452">
        <ele>268</ele>
        <time>2018-08-18T09:49:55Z</time>
      </trkpt>
      <trkpt lat="45.98626" lon="4.87446">
        <ele>268</ele>
        <time>2018-08-18T09:49:56Z</time>
      </trkpt>
      <trkpt lat="45.98624" lon="4.8744">
        <ele>269</ele>
        <time>2018-08-18T09:49:57Z</time>
      </trkpt>
      <trkpt lat="45.98622" lon="4.87427">
        <ele>269</ele>
        <time>2018-08-18T09:49:59Z</time>
      </trkpt>
      <trkpt lat="45.98622" lon="4.87422">
        <ele>269</ele>
        <time>2018-08-18T09:50:00Z</time>
      </trkpt>
      <trkpt lat="45.9862" lon="4.87409">
        <ele>271</ele>
        <time>2018-08-18T09:50:02Z</time>
      </trkpt>
      <trkpt lat="45.98619" lon="4.87404">
        <ele>271</ele>
        <time>2018-08-18T09:50:03Z</time>
      </trkpt>
      <trkpt lat="45.98616" lon="4.87393">
        <ele>271</ele>
        <time>2018-08-18T09:50:05Z</time>
      </trkpt>
      <trkpt lat="45.98616" lon="4.87388">
        <ele>271</ele>
        <time>2018-08-18T09:50:06Z</time>
      </trkpt>
      <trkpt lat="45.98612" lon="4.87377">
        <ele>271</ele>
        <time>2018-08-18T09:50:08Z</time>
      </trkpt>
      <trkpt lat="45.98612" lon="4.87371">
        <ele>271</ele>
        <time>2018-08-18T09:50:09Z</time>
      </trkpt>
      <trkpt lat="45.9861" lon="4.8736">
        <ele>272</ele>
        <time>2018-08-18T09:50:11Z</time>
      </trkpt>
      <trkpt lat="45.98609" lon="4.87357">
        <ele>272</ele>
        <time>2018-08-18T09:50:12Z</time>
      </trkpt>
      <trkpt lat="45.98608" lon="4.87349">
        <ele>272</ele>
        <time>2018-08-18T09:50:13Z</time>
      </trkpt>
      <trkpt lat="45.98606" lon="4.87343">
        <ele>272</ele>
        <time>2018-08-18T09:50:14Z</time>
      </trkpt>
      <trkpt lat="45.98605" lon="4.87331">
        <ele>274</ele>
        <time>2018-08-18T09:50:16Z</time>
      </trkpt>
      <trkpt lat="45.98604" lon="4.87326">
        <ele>274</ele>
        <time>2018-08-18T09:50:17Z</time>
      </trkpt>
      <trkpt lat="45.98605" lon="4.87315">
        <ele>274</ele>
        <time>2018-08-18T09:50:19Z</time>
      </trkpt>
      <trkpt lat="45.98606" lon="4.8731">
        <ele>274</ele>
        <time>2018-08-18T09:50:20Z</time>
      </trkpt>
      <trkpt lat="45.98606" lon="4.87297">
        <ele>275</ele>
        <time>2018-08-18T09:50:22Z</time>
      </trkpt>
      <trkpt lat="45.98606" lon="4.87291">
        <ele>275</ele>
        <time>2018-08-18T09:50:23Z</time>
      </trkpt>
      <trkpt lat="45.98607" lon="4.87281">
        <ele>275</ele>
        <time>2018-08-18T09:50:25Z</time>
      </trkpt>
      <trkpt lat="45.98607" lon="4.87278">
        <ele>275</ele>
        <time>2018-08-18T09:50:26Z</time>
      </trkpt>
      <trkpt lat="45.98608" lon="4.87268">
        <ele>275</ele>
        <time>2018-08-18T09:50:27Z</time>
      </trkpt>
      <trkpt lat="45.98608" lon="4.87261">
        <ele>275</ele>
        <time>2018-08-18T09:50:28Z</time>
      </trkpt>
      <trkpt lat="45.98608" lon="4.8725">
        <ele>277</ele>
        <time>2018-08-18T09:50:30Z</time>
      </trkpt>
      <trkpt lat="45.98608" lon="4.8724">
        <ele>277</ele>
        <time>2018-08-18T09:50:31Z</time>
      </trkpt>
      <trkpt lat="45.98609" lon="4.87233">
        <ele>277</ele>
        <time>2018-08-18T09:50:34Z</time>
      </trkpt>
      <trkpt lat="45.98609" lon="4.8722">
        <ele>277</ele>
        <time>2018-08-18T09:50:35Z</time>
      </trkpt>
      <trkpt lat="45.98611" lon="4.87209">
        <ele>277</ele>
        <time>2018-08-18T09:50:37Z</time>
      </trkpt>
      <trkpt lat="45.98611" lon="4.87201">
        <ele>277</ele>
        <time>2018-08-18T09:50:38Z</time>
      </trkpt>
      <trkpt lat="45.98613" lon="4.87199">
        <ele>277</ele>
        <time>2018-08-18T09:50:39Z</time>
      </trkpt>
      <trkpt lat="45.98616" lon="4.87189">
        <ele>278</ele>
        <time>2018-08-18T09:50:40Z</time>
      </trkpt>
      <trkpt lat="45.98619" lon="4.87178">
        <ele>278</ele>
        <time>2018-08-18T09:50:44Z</time>
      </trkpt>
      <trkpt lat="45.98621" lon="4.87166">
        <ele>279</ele>
        <time>2018-08-18T09:50:45Z</time>
      </trkpt>
      <trkpt lat="45.98623" lon="4.8716">
        <ele>279</ele>
        <time>2018-08-18T09:50:47Z</time>
      </trkpt>
      <trkpt lat="45.98625" lon="4.87151">
        <ele>279</ele>
        <time>2018-08-18T09:50:48Z</time>
      </trkpt>
      <trkpt lat="45.98625" lon="4.87145">
        <ele>279</ele>
        <time>2018-08-18T09:50:50Z</time>
      </trkpt>
      <trkpt lat="45.98623" lon="4.8713">
        <ele>279</ele>
        <time>2018-08-18T09:50:51Z</time>
      </trkpt>
      <trkpt lat="45.98623" lon="4.87124">
        <ele>279</ele>
        <time>2018-08-18T09:50:52Z</time>
      </trkpt>
      <trkpt lat="45.98621" lon="4.87118">
        <ele>279</ele>
        <time>2018-08-18T09:50:53Z</time>
      </trkpt>
      <trkpt lat="45.9862" lon="4.87111">
        <ele>279</ele>
        <time>2018-08-18T09:50:54Z</time>
      </trkpt>
      <trkpt lat="45.98618" lon="4.87104">
        <ele>279</ele>
        <time>2018-08-18T09:50:55Z</time>
      </trkpt>
      <trkpt lat="45.98615" lon="4.87095">
        <ele>279</ele>
        <time>2018-08-18T09:50:56Z</time>
      </trkpt>
      <trkpt lat="45.98612" lon="4.87087">
        <ele>279</ele>
        <time>2018-08-18T09:50:57Z</time>
      </trkpt>
      <trkpt lat="45.98611" lon="4.87075">
        <ele>279</ele>
        <time>2018-08-18T09:50:59Z</time>
      </trkpt>
      <trkpt lat="45.98609" lon="4.87067">
        <ele>279</ele>
        <time>2018-08-18T09:51:00Z</time>
      </trkpt>
      <trkpt lat="45.98607" lon="4.87055">
        <ele>279</ele>
        <time>2018-08-18T09:51:02Z</time>
      </trkpt>
      <trkpt lat="45.98605" lon="4.87048">
        <ele>279</ele>
        <time>2018-08-18T09:51:03Z</time>
      </trkpt>
      <trkpt lat="45.98603" lon="4.8704">
        <ele>279</ele>
        <time>2018-08-18T09:51:04Z</time>
      </trkpt>
      <trkpt lat="45.986" lon="4.87034">
        <ele>279</ele>
        <time>2018-08-18T09:51:05Z</time>
      </trkpt>
      <trkpt lat="45.98597" lon="4.87022">
        <ele>279</ele>
        <time>2018-08-18T09:51:07Z</time>
      </trkpt>
      <trkpt lat="45.98595" lon="4.87016">
        <ele>279</ele>
        <time>2018-08-18T09:51:08Z</time>
      </trkpt>
      <trkpt lat="45.98594" lon="4.87006">
        <ele>279</ele>
        <time>2018-08-18T09:51:10Z</time>
      </trkpt>
      <trkpt lat="45.98593" lon="4.87001">
        <ele>279</ele>
        <time>2018-08-18T09:51:11Z</time>
      </trkpt>
      <trkpt lat="45.98592" lon="4.86989">
        <ele>279</ele>
        <time>2018-08-18T09:51:13Z</time>
      </trkpt>
      <trkpt lat="45.98592" lon="4.86984">
        <ele>279</ele>
        <time>2018-08-18T09:51:14Z</time>
      </trkpt>
      <trkpt lat="45.9859" lon="4.86972">
        <ele>279</ele>
        <time>2018-08-18T09:51:16Z</time>
      </trkpt>
      <trkpt lat="45.9859" lon="4.86966">
        <ele>279</ele>
        <time>2018-08-18T09:51:17Z</time>
      </trkpt>
      <trkpt lat="45.98591" lon="4.86959">
        <ele>279</ele>
        <time>2018-08-18T09:51:18Z</time>
      </trkpt>
      <trkpt lat="45.98591" lon="4.86951">
        <ele>278</ele>
        <time>2018-08-18T09:51:19Z</time>
      </trkpt>
      <trkpt lat="45.9859" lon="4.86944">
        <ele>278</ele>
        <time>2018-08-18T09:51:20Z</time>
      </trkpt>
      <trkpt lat="45.9859" lon="4.86936">
        <ele>279</ele>
        <time>2018-08-18T09:51:21Z</time>
      </trkpt>
      <trkpt lat="45.98591" lon="4.86929">
        <ele>279</ele>
        <time>2018-08-18T09:51:22Z</time>
      </trkpt>
      <trkpt lat="45.9859" lon="4.86922">
        <ele>279</ele>
        <time>2018-08-18T09:51:23Z</time>
      </trkpt>
      <trkpt lat="45.98591" lon="4.8691">
        <ele>278</ele>
        <time>2018-08-18T09:51:25Z</time>
      </trkpt>
      <trkpt lat="45.98591" lon="4.86904">
        <ele>278</ele>
        <time>2018-08-18T09:51:26Z</time>
      </trkpt>
      <trkpt lat="45.98591" lon="4.86894">
        <ele>278</ele>
        <time>2018-08-18T09:51:28Z</time>
      </trkpt>
      <trkpt lat="45.98591" lon="4.86889">
        <ele>278</ele>
        <time>2018-08-18T09:51:29Z</time>
      </trkpt>
      <trkpt lat="45.98591" lon="4.86878">
        <ele>277</ele>
        <time>2018-08-18T09:51:31Z</time>
      </trkpt>
      <trkpt lat="45.9859" lon="4.86871">
        <ele>277</ele>
        <time>2018-08-18T09:51:32Z</time>
      </trkpt>
      <trkpt lat="45.98589" lon="4.8686">
        <ele>277</ele>
        <time>2018-08-18T09:51:34Z</time>
      </trkpt>
      <trkpt lat="45.98589" lon="4.86855">
        <ele>277</ele>
        <time>2018-08-18T09:51:35Z</time>
      </trkpt>
      <trkpt lat="45.9859" lon="4.86844">
        <ele>277</ele>
        <time>2018-08-18T09:51:37Z</time>
      </trkpt>
      <trkpt lat="45.9859" lon="4.86838">
        <ele>277</ele>
        <time>2018-08-18T09:51:38Z</time>
      </trkpt>
      <trkpt lat="45.9859" lon="4.86826">
        <ele>277</ele>
        <time>2018-08-18T09:51:40Z</time>
      </trkpt>
      <trkpt lat="45.98589" lon="4.86819">
        <ele>276</ele>
        <time>2018-08-18T09:51:41Z</time>
      </trkpt>
      <trkpt lat="45.98587" lon="4.86812">
        <ele>276</ele>
        <time>2018-08-18T09:51:42Z</time>
      </trkpt>
      <trkpt lat="45.98586" lon="4.86805">
        <ele>276</ele>
        <time>2018-08-18T09:51:43Z</time>
      </trkpt>
      <trkpt lat="45.98585" lon="4.86794">
        <ele>276</ele>
        <time>2018-08-18T09:51:45Z</time>
      </trkpt>
      <trkpt lat="45.98583" lon="4.86786">
        <ele>277</ele>
        <time>2018-08-18T09:51:46Z</time>
      </trkpt>
      <trkpt lat="45.98581" lon="4.8678">
        <ele>277</ele>
        <time>2018-08-18T09:51:47Z</time>
      </trkpt>
      <trkpt lat="45.98578" lon="4.86772">
        <ele>277</ele>
        <time>2018-08-18T09:51:48Z</time>
      </trkpt>
      <trkpt lat="45.98578" lon="4.86759">
        <ele>277</ele>
        <time>2018-08-18T09:51:50Z</time>
      </trkpt>
      <trkpt lat="45.98577" lon="4.86751">
        <ele>276</ele>
        <time>2018-08-18T09:51:51Z</time>
      </trkpt>
      <trkpt lat="45.98575" lon="4.86739">
        <ele>277</ele>
        <time>2018-08-18T09:51:53Z</time>
      </trkpt>
      <trkpt lat="45.98572" lon="4.86731">
        <ele>277</ele>
        <time>2018-08-18T09:51:54Z</time>
      </trkpt>
      <trkpt lat="45.98571" lon="4.86719">
        <ele>277</ele>
        <time>2018-08-18T09:51:56Z</time>
      </trkpt>
      <trkpt lat="45.98571" lon="4.86711">
        <ele>277</ele>
        <time>2018-08-18T09:51:57Z</time>
      </trkpt>
      <trkpt lat="45.9857" lon="4.86704">
        <ele>277</ele>
        <time>2018-08-18T09:51:58Z</time>
      </trkpt>
      <trkpt lat="45.9857" lon="4.86696">
        <ele>277</ele>
        <time>2018-08-18T09:51:59Z</time>
      </trkpt>
      <trkpt lat="45.9857" lon="4.8669">
        <ele>277</ele>
        <time>2018-08-18T09:52:00Z</time>
      </trkpt>
      <trkpt lat="45.98569" lon="4.86682">
        <ele>276</ele>
        <time>2018-08-18T09:52:01Z</time>
      </trkpt>
      <trkpt lat="45.98569" lon="4.86675">
        <ele>276</ele>
        <time>2018-08-18T09:52:02Z</time>
      </trkpt>
      <trkpt lat="45.98567" lon="4.86666">
        <ele>277</ele>
        <time>2018-08-18T09:52:03Z</time>
      </trkpt>
      <trkpt lat="45.98566" lon="4.8666">
        <ele>277</ele>
        <time>2018-08-18T09:52:04Z</time>
      </trkpt>
      <trkpt lat="45.98565" lon="4.86653">
        <ele>277</ele>
        <time>2018-08-18T09:52:05Z</time>
      </trkpt>
      <trkpt lat="45.98566" lon="4.86643">
        <ele>277</ele>
        <time>2018-08-18T09:52:07Z</time>
      </trkpt>
      <trkpt lat="45.98565" lon="4.86638">
        <ele>277</ele>
        <time>2018-08-18T09:52:08Z</time>
      </trkpt>
      <trkpt lat="45.98564" lon="4.86625">
        <ele>278</ele>
        <time>2018-08-18T09:52:10Z</time>
      </trkpt>
      <trkpt lat="45.98565" lon="4.86619">
        <ele>278</ele>
        <time>2018-08-18T09:52:11Z</time>
      </trkpt>
      <trkpt lat="45.98564" lon="4.86613">
        <ele>278</ele>
        <time>2018-08-18T09:52:12Z</time>
      </trkpt>
      <trkpt lat="45.98562" lon="4.86604">
        <ele>278</ele>
        <time>2018-08-18T09:52:13Z</time>
      </trkpt>
      <trkpt lat="45.98561" lon="4.86597">
        <ele>278</ele>
        <time>2018-08-18T09:52:14Z</time>
      </trkpt>
      <trkpt lat="45.9856" lon="4.86589">
        <ele>278</ele>
        <time>2018-08-18T09:52:15Z</time>
      </trkpt>
      <trkpt lat="45.98558" lon="4.86582">
        <ele>278</ele>
        <time>2018-08-18T09:52:16Z</time>
      </trkpt>
      <trkpt lat="45.98555" lon="4.86575">
        <ele>278</ele>
        <time>2018-08-18T09:52:17Z</time>
      </trkpt>
      <trkpt lat="45.98551" lon="4.86568">
        <ele>278</ele>
        <time>2018-08-18T09:52:18Z</time>
      </trkpt>
      <trkpt lat="45.98546" lon="4.86562">
        <ele>278</ele>
        <time>2018-08-18T09:52:19Z</time>
      </trkpt>
      <trkpt lat="45.98543" lon="4.86555">
        <ele>278</ele>
        <time>2018-08-18T09:52:20Z</time>
      </trkpt>
      <trkpt lat="45.9854" lon="4.86548">
        <ele>278</ele>
        <time>2018-08-18T09:52:21Z</time>
      </trkpt>
      <trkpt lat="45.98536" lon="4.86542">
        <ele>278</ele>
        <time>2018-08-18T09:52:22Z</time>
      </trkpt>
      <trkpt lat="45.98534" lon="4.86536">
        <ele>278</ele>
        <time>2018-08-18T09:52:23Z</time>
      </trkpt>
      <trkpt lat="45.98529" lon="4.8653">
        <ele>279</ele>
        <time>2018-08-18T09:52:24Z</time>
      </trkpt>
      <trkpt lat="45.98526" lon="4.86525">
        <ele>279</ele>
        <time>2018-08-18T09:52:25Z</time>
      </trkpt>
      <trkpt lat="45.98522" lon="4.86518">
        <ele>279</ele>
        <time>2018-08-18T09:52:26Z</time>
      </trkpt>
      <trkpt lat="45.98517" lon="4.86511">
        <ele>279</ele>
        <time>2018-08-18T09:52:27Z</time>
      </trkpt>
      <trkpt lat="45.98515" lon="4.86505">
        <ele>279</ele>
        <time>2018-08-18T09:52:28Z</time>
      </trkpt>
      <trkpt lat="45.98513" lon="4.86499">
        <ele>279</ele>
        <time>2018-08-18T09:52:29Z</time>
      </trkpt>
      <trkpt lat="45.98509" lon="4.86492">
        <ele>279</ele>
        <time>2018-08-18T09:52:30Z</time>
      </trkpt>
      <trkpt lat="45.98506" lon="4.86486">
        <ele>279</ele>
        <time>2018-08-18T09:52:31Z</time>
      </trkpt>
      <trkpt lat="45.98503" lon="4.86479">
        <ele>278</ele>
        <time>2018-08-18T09:52:32Z</time>
      </trkpt>
      <trkpt lat="45.985" lon="4.86472">
        <ele>278</ele>
        <time>2018-08-18T09:52:33Z</time>
      </trkpt>
      <trkpt lat="45.98496" lon="4.86465">
        <ele>278</ele>
        <time>2018-08-18T09:52:34Z</time>
      </trkpt>
      <trkpt lat="45.98494" lon="4.8646">
        <ele>278</ele>
        <time>2018-08-18T09:52:35Z</time>
      </trkpt>
      <trkpt lat="45.98492" lon="4.86454">
        <ele>278</ele>
        <time>2018-08-18T09:52:36Z</time>
      </trkpt>
      <trkpt lat="45.98486" lon="4.86449">
        <ele>278</ele>
        <time>2018-08-18T09:52:37Z</time>
      </trkpt>
      <trkpt lat="45.98481" lon="4.86439">
        <ele>278</ele>
        <time>2018-08-18T09:52:39Z</time>
      </trkpt>
      <trkpt lat="45.98479" lon="4.86434">
        <ele>278</ele>
        <time>2018-08-18T09:52:40Z</time>
      </trkpt>
      <trkpt lat="45.98475" lon="4.86424">
        <ele>278</ele>
        <time>2018-08-18T09:52:42Z</time>
      </trkpt>
      <trkpt lat="45.98474" lon="4.86418">
        <ele>278</ele>
        <time>2018-08-18T09:52:43Z</time>
      </trkpt>
      <trkpt lat="45.98471" lon="4.86408">
        <ele>277</ele>
        <time>2018-08-18T09:52:45Z</time>
      </trkpt>
      <trkpt lat="45.98469" lon="4.86404">
        <ele>277</ele>
        <time>2018-08-18T09:52:46Z</time>
      </trkpt>
      <trkpt lat="45.98466" lon="4.86398">
        <ele>277</ele>
        <time>2018-08-18T09:52:47Z</time>
      </trkpt>
      <trkpt lat="45.98463" lon="4.86391">
        <ele>277</ele>
        <time>2018-08-18T09:52:48Z</time>
      </trkpt>
      <trkpt lat="45.98462" lon="4.86386">
        <ele>277</ele>
        <time>2018-08-18T09:52:49Z</time>
      </trkpt>
      <trkpt lat="45.98459" lon="4.86379">
        <ele>277</ele>
        <time>2018-08-18T09:52:50Z</time>
      </trkpt>
      <trkpt lat="45.98458" lon="4.86372">
        <ele>277</ele>
        <time>2018-08-18T09:52:51Z</time>
      </trkpt>
      <trkpt lat="45.98456" lon="4.86366">
        <ele>277</ele>
        <time>2018-08-18T09:52:52Z</time>
      </trkpt>
      <trkpt lat="45.98454" lon="4.86359">
        <ele>277</ele>
        <time>2018-08-18T09:52:53Z</time>
      </trkpt>
      <trkpt lat="45.98451" lon="4.86351">
        <ele>277</ele>
        <time>2018-08-18T09:52:54Z</time>
      </trkpt>
      <trkpt lat="45.9845" lon="4.86344">
        <ele>277</ele>
        <time>2018-08-18T09:52:55Z</time>
      </trkpt>
      <trkpt lat="45.98448" lon="4.86337">
        <ele>277</ele>
        <time>2018-08-18T09:52:56Z</time>
      </trkpt>
      <trkpt lat="45.98446" lon="4.8633">
        <ele>276</ele>
        <time>2018-08-18T09:52:57Z</time>
      </trkpt>
      <trkpt lat="45.98445" lon="4.86318">
        <ele>276</ele>
        <time>2018-08-18T09:52:58Z</time>
      </trkpt>
      <trkpt lat="45.98444" lon="4.8631">
        <ele>276</ele>
        <time>2018-08-18T09:52:59Z</time>
      </trkpt>
      <trkpt lat="45.98442" lon="4.86304">
        <ele>276</ele>
        <time>2018-08-18T09:53:00Z</time>
      </trkpt>
      <trkpt lat="45.98442" lon="4.86292">
        <ele>276</ele>
        <time>2018-08-18T09:53:02Z</time>
      </trkpt>
      <trkpt lat="45.98441" lon="4.86285">
        <ele>276</ele>
        <time>2018-08-18T09:53:03Z</time>
      </trkpt>
      <trkpt lat="45.9844" lon="4.86273">
        <ele>276</ele>
        <time>2018-08-18T09:53:05Z</time>
      </trkpt>
      <trkpt lat="45.98437" lon="4.86265">
        <ele>275</ele>
        <time>2018-08-18T09:53:06Z</time>
      </trkpt>
      <trkpt lat="45.98436" lon="4.86254">
        <ele>275</ele>
        <time>2018-08-18T09:53:08Z</time>
      </trkpt>
      <trkpt lat="45.98434" lon="4.86249">
        <ele>275</ele>
        <time>2018-08-18T09:53:09Z</time>
      </trkpt>
      <trkpt lat="45.98431" lon="4.86238">
        <ele>275</ele>
        <time>2018-08-18T09:53:11Z</time>
      </trkpt>
      <trkpt lat="45.98431" lon="4.86232">
        <ele>275</ele>
        <time>2018-08-18T09:53:12Z</time>
      </trkpt>
      <trkpt lat="45.98429" lon="4.86221">
        <ele>275</ele>
        <time>2018-08-18T09:53:14Z</time>
      </trkpt>
      <trkpt lat="45.98428" lon="4.86215">
        <ele>275</ele>
        <time>2018-08-18T09:53:15Z</time>
      </trkpt>
      <trkpt lat="45.98426" lon="4.86203">
        <ele>275</ele>
        <time>2018-08-18T09:53:17Z</time>
      </trkpt>
      <trkpt lat="45.98425" lon="4.86197">
        <ele>275</ele>
        <time>2018-08-18T09:53:18Z</time>
      </trkpt>
      <trkpt lat="45.98425" lon="4.86185">
        <ele>275</ele>
        <time>2018-08-18T09:53:20Z</time>
      </trkpt>
      <trkpt lat="45.98424" lon="4.86178">
        <ele>275</ele>
        <time>2018-08-18T09:53:21Z</time>
      </trkpt>
      <trkpt lat="45.98422" lon="4.86165">
        <ele>276</ele>
        <time>2018-08-18T09:53:23Z</time>
      </trkpt>
      <trkpt lat="45.98421" lon="4.86159">
        <ele>276</ele>
        <time>2018-08-18T09:53:24Z</time>
      </trkpt>
      <trkpt lat="45.98419" lon="4.86146">
        <ele>276</ele>
        <time>2018-08-18T09:53:26Z</time>
      </trkpt>
      <trkpt lat="45.98422" lon="4.86142">
        <ele>275</ele>
        <time>2018-08-18T09:53:27Z</time>
      </trkpt>
      <trkpt lat="45.98419" lon="4.86133">
        <ele>276</ele>
        <time>2018-08-18T09:53:28Z</time>
      </trkpt>
      <trkpt lat="45.98417" lon="4.86125">
        <ele>276</ele>
        <time>2018-08-18T09:53:29Z</time>
      </trkpt>
      <trkpt lat="45.98415" lon="4.86116">
        <ele>277</ele>
        <time>2018-08-18T09:53:30Z</time>
      </trkpt>
      <trkpt lat="45.98414" lon="4.86108">
        <ele>277</ele>
        <time>2018-08-18T09:53:31Z</time>
      </trkpt>
      <trkpt lat="45.98413" lon="4.86098">
        <ele>277</ele>
        <time>2018-08-18T09:53:32Z</time>
      </trkpt>
      <trkpt lat="45.98411" lon="4.86088">
        <ele>277</ele>
        <time>2018-08-18T09:53:33Z</time>
      </trkpt>
      <trkpt lat="45.98408" lon="4.86078">
        <ele>277</ele>
        <time>2018-08-18T09:53:34Z</time>
      </trkpt>
      <trkpt lat="45.98405" lon="4.86068">
        <ele>277</ele>
        <time>2018-08-18T09:53:35Z</time>
      </trkpt>
      <trkpt lat="45.98402" lon="4.86057">
        <ele>277</ele>
        <time>2018-08-18T09:53:36Z</time>
      </trkpt>
      <trkpt lat="45.98401" lon="4.86048">
        <ele>277</ele>
        <time>2018-08-18T09:53:37Z</time>
      </trkpt>
      <trkpt lat="45.984" lon="4.86038">
        <ele>277</ele>
        <time>2018-08-18T09:53:38Z</time>
      </trkpt>
      <trkpt lat="45.98394" lon="4.86027">
        <ele>277</ele>
        <time>2018-08-18T09:53:39Z</time>
      </trkpt>
      <trkpt lat="45.9839" lon="4.86017">
        <ele>277</ele>
        <time>2018-08-18T09:53:40Z</time>
      </trkpt>
      <trkpt lat="45.98387" lon="4.86008">
        <ele>277</ele>
        <time>2018-08-18T09:53:41Z</time>
      </trkpt>
      <trkpt lat="45.98385" lon="4.85998">
        <ele>277</ele>
        <time>2018-08-18T09:53:42Z</time>
      </trkpt>
      <trkpt lat="45.9838" lon="4.85991">
        <ele>276</ele>
        <time>2018-08-18T09:53:43Z</time>
      </trkpt>
      <trkpt lat="45.98376" lon="4.85981">
        <ele>276</ele>
        <time>2018-08-18T09:53:44Z</time>
      </trkpt>
      <trkpt lat="45.98373" lon="4.85973">
        <ele>276</ele>
        <time>2018-08-18T09:53:45Z</time>
      </trkpt>
      <trkpt lat="45.98369" lon="4.85964">
        <ele>276</ele>
        <time>2018-08-18T09:53:46Z</time>
      </trkpt>
      <trkpt lat="45.98367" lon="4.85956">
        <ele>276</ele>
        <time>2018-08-18T09:53:47Z</time>
      </trkpt>
      <trkpt lat="45.98365" lon="4.85947">
        <ele>276</ele>
        <time>2018-08-18T09:53:48Z</time>
      </trkpt>
      <trkpt lat="45.98362" lon="4.85939">
        <ele>276</ele>
        <time>2018-08-18T09:53:49Z</time>
      </trkpt>
      <trkpt lat="45.98358" lon="4.85929">
        <ele>276</ele>
        <time>2018-08-18T09:53:50Z</time>
      </trkpt>
      <trkpt lat="45.98354" lon="4.85923">
        <ele>276</ele>
        <time>2018-08-18T09:53:51Z</time>
      </trkpt>
      <trkpt lat="45.98351" lon="4.85916">
        <ele>276</ele>
        <time>2018-08-18T09:53:52Z</time>
      </trkpt>
      <trkpt lat="45.98346" lon="4.85908">
        <ele>276</ele>
        <time>2018-08-18T09:53:53Z</time>
      </trkpt>
      <trkpt lat="45.98341" lon="4.859">
        <ele>276</ele>
        <time>2018-08-18T09:53:54Z</time>
      </trkpt>
      <trkpt lat="45.98338" lon="4.85894">
        <ele>276</ele>
        <time>2018-08-18T09:53:55Z</time>
      </trkpt>
      <trkpt lat="45.98333" lon="4.85884">
        <ele>276</ele>
        <time>2018-08-18T09:53:57Z</time>
      </trkpt>
      <trkpt lat="45.9833" lon="4.85875">
        <ele>276</ele>
        <time>2018-08-18T09:53:58Z</time>
      </trkpt>
      <trkpt lat="45.98327" lon="4.85865">
        <ele>276</ele>
        <time>2018-08-18T09:53:59Z</time>
      </trkpt>
      <trkpt lat="45.98325" lon="4.85859">
        <ele>276</ele>
        <time>2018-08-18T09:54:00Z</time>
      </trkpt>
      <trkpt lat="45.98322" lon="4.85851">
        <ele>276</ele>
        <time>2018-08-18T09:54:01Z</time>
      </trkpt>
      <trkpt lat="45.98319" lon="4.85843">
        <ele>276</ele>
        <time>2018-08-18T09:54:02Z</time>
      </trkpt>
      <trkpt lat="45.98317" lon="4.85835">
        <ele>276</ele>
        <time>2018-08-18T09:54:03Z</time>
      </trkpt>
      <trkpt lat="45.98314" lon="4.85828">
        <ele>275</ele>
        <time>2018-08-18T09:54:04Z</time>
      </trkpt>
      <trkpt lat="45.98311" lon="4.8582">
        <ele>275</ele>
        <time>2018-08-18T09:54:05Z</time>
      </trkpt>
      <trkpt lat="45.98307" lon="4.85813">
        <ele>275</ele>
        <time>2018-08-18T09:54:06Z</time>
      </trkpt>
      <trkpt lat="45.98304" lon="4.85805">
        <ele>275</ele>
        <time>2018-08-18T09:54:07Z</time>
      </trkpt>
      <trkpt lat="45.983" lon="4.85797">
        <ele>275</ele>
        <time>2018-08-18T09:54:08Z</time>
      </trkpt>
      <trkpt lat="45.98297" lon="4.85788">
        <ele>275</ele>
        <time>2018-08-18T09:54:09Z</time>
      </trkpt>
      <trkpt lat="45.98294" lon="4.8578">
        <ele>275</ele>
        <time>2018-08-18T09:54:10Z</time>
      </trkpt>
      <trkpt lat="45.98291" lon="4.85772">
        <ele>275</ele>
        <time>2018-08-18T09:54:11Z</time>
      </trkpt>
      <trkpt lat="45.98288" lon="4.85765">
        <ele>275</ele>
        <time>2018-08-18T09:54:12Z</time>
      </trkpt>
      <trkpt lat="45.98285" lon="4.85757">
        <ele>275</ele>
        <time>2018-08-18T09:54:13Z</time>
      </trkpt>
      <trkpt lat="45.9828" lon="4.85749">
        <ele>274</ele>
        <time>2018-08-18T09:54:14Z</time>
      </trkpt>
      <trkpt lat="45.98278" lon="4.85743">
        <ele>274</ele>
        <time>2018-08-18T09:54:15Z</time>
      </trkpt>
      <trkpt lat="45.98274" lon="4.85736">
        <ele>274</ele>
        <time>2018-08-18T09:54:16Z</time>
      </trkpt>
      <trkpt lat="45.98271" lon="4.8573">
        <ele>274</ele>
        <time>2018-08-18T09:54:17Z</time>
      </trkpt>
      <trkpt lat="45.98268" lon="4.85723">
        <ele>275</ele>
        <time>2018-08-18T09:54:18Z</time>
      </trkpt>
      <trkpt lat="45.98266" lon="4.85717">
        <ele>275</ele>
        <time>2018-08-18T09:54:19Z</time>
      </trkpt>
      <trkpt lat="45.98262" lon="4.85709">
        <ele>275</ele>
        <time>2018-08-18T09:54:20Z</time>
      </trkpt>
      <trkpt lat="45.98259" lon="4.85703">
        <ele>275</ele>
        <time>2018-08-18T09:54:21Z</time>
      </trkpt>
      <trkpt lat="45.98256" lon="4.85695">
        <ele>275</ele>
        <time>2018-08-18T09:54:22Z</time>
      </trkpt>
      <trkpt lat="45.98253" lon="4.85687">
        <ele>275</ele>
        <time>2018-08-18T09:54:23Z</time>
      </trkpt>
      <trkpt lat="45.98248" lon="4.85678">
        <ele>276</ele>
        <time>2018-08-18T09:54:24Z</time>
      </trkpt>
      <trkpt lat="45.98245" lon="4.85669">
        <ele>276</ele>
        <time>2018-08-18T09:54:25Z</time>
      </trkpt>
      <trkpt lat="45.9824" lon="4.85659">
        <ele>276</ele>
        <time>2018-08-18T09:54:26Z</time>
      </trkpt>
      <trkpt lat="45.98237" lon="4.8565">
        <ele>276</ele>
        <time>2018-08-18T09:54:27Z</time>
      </trkpt>
      <trkpt lat="45.98234" lon="4.85642">
        <ele>277</ele>
        <time>2018-08-18T09:54:28Z</time>
      </trkpt>
      <trkpt lat="45.98232" lon="4.85634">
        <ele>277</ele>
        <time>2018-08-18T09:54:29Z</time>
      </trkpt>
      <trkpt lat="45.9823" lon="4.85627">
        <ele>277</ele>
        <time>2018-08-18T09:54:30Z</time>
      </trkpt>
      <trkpt lat="45.98227" lon="4.85619">
        <ele>277</ele>
        <time>2018-08-18T09:54:31Z</time>
      </trkpt>
      <trkpt lat="45.98225" lon="4.85612">
        <ele>277</ele>
        <time>2018-08-18T09:54:32Z</time>
      </trkpt>
      <trkpt lat="45.98221" lon="4.85604">
        <ele>277</ele>
        <time>2018-08-18T09:54:33Z</time>
      </trkpt>
      <trkpt lat="45.98217" lon="4.85597">
        <ele>277</ele>
        <time>2018-08-18T09:54:34Z</time>
      </trkpt>
      <trkpt lat="45.98214" lon="4.85589">
        <ele>277</ele>
        <time>2018-08-18T09:54:35Z</time>
      </trkpt>
      <trkpt lat="45.98212" lon="4.85582">
        <ele>276</ele>
        <time>2018-08-18T09:54:36Z</time>
      </trkpt>
      <trkpt lat="45.98208" lon="4.85573">
        <ele>276</ele>
        <time>2018-08-18T09:54:37Z</time>
      </trkpt>
      <trkpt lat="45.98206" lon="4.85565">
        <ele>276</ele>
        <time>2018-08-18T09:54:38Z</time>
      </trkpt>
      <trkpt lat="45.98203" lon="4.85557">
        <ele>276</ele>
        <time>2018-08-18T09:54:39Z</time>
      </trkpt>
      <trkpt lat="45.982" lon="4.85548">
        <ele>276</ele>
        <time>2018-08-18T09:54:40Z</time>
      </trkpt>
      <trkpt lat="45.98197" lon="4.8554">
        <ele>276</ele>
        <time>2018-08-18T09:54:41Z</time>
      </trkpt>
      <trkpt lat="45.98194" lon="4.85533">
        <ele>276</ele>
        <time>2018-08-18T09:54:42Z</time>
      </trkpt>
      <trkpt lat="45.98192" lon="4.85525">
        <ele>276</ele>
        <time>2018-08-18T09:54:43Z</time>
      </trkpt>
      <trkpt lat="45.98192" lon="4.85516">
        <ele>275</ele>
        <time>2018-08-18T09:54:44Z</time>
      </trkpt>
      <trkpt lat="45.98187" lon="4.85508">
        <ele>275</ele>
        <time>2018-08-18T09:54:45Z</time>
      </trkpt>
      <trkpt lat="45.98181" lon="4.855">
        <ele>275</ele>
        <time>2018-08-18T09:54:46Z</time>
      </trkpt>
      <trkpt lat="45.98178" lon="4.85493">
        <ele>275</ele>
        <time>2018-08-18T09:54:47Z</time>
      </trkpt>
      <trkpt lat="45.98176" lon="4.85485">
        <ele>275</ele>
        <time>2018-08-18T09:54:48Z</time>
      </trkpt>
      <trkpt lat="45.98171" lon="4.85477">
        <ele>275</ele>
        <time>2018-08-18T09:54:49Z</time>
      </trkpt>
      <trkpt lat="45.98167" lon="4.85469">
        <ele>275</ele>
        <time>2018-08-18T09:54:50Z</time>
      </trkpt>
      <trkpt lat="45.98163" lon="4.85462">
        <ele>275</ele>
        <time>2018-08-18T09:54:51Z</time>
      </trkpt>
      <trkpt lat="45.9816" lon="4.85454">
        <ele>276</ele>
        <time>2018-08-18T09:54:52Z</time>
      </trkpt>
      <trkpt lat="45.98158" lon="4.85447">
        <ele>276</ele>
        <time>2018-08-18T09:54:53Z</time>
      </trkpt>
      <trkpt lat="45.98155" lon="4.85439">
        <ele>276</ele>
        <time>2018-08-18T09:54:54Z</time>
      </trkpt>
      <trkpt lat="45.98151" lon="4.85431">
        <ele>276</ele>
        <time>2018-08-18T09:54:55Z</time>
      </trkpt>
      <trkpt lat="45.98148" lon="4.85423">
        <ele>276</ele>
        <time>2018-08-18T09:54:56Z</time>
      </trkpt>
      <trkpt lat="45.98143" lon="4.85413">
        <ele>276</ele>
        <time>2018-08-18T09:54:57Z</time>
      </trkpt>
      <trkpt lat="45.9814" lon="4.85404">
        <ele>276</ele>
        <time>2018-08-18T09:54:58Z</time>
      </trkpt>
      <trkpt lat="45.98134" lon="4.85396">
        <ele>276</ele>
        <time>2018-08-18T09:54:59Z</time>
      </trkpt>
      <trkpt lat="45.9813" lon="4.85388">
        <ele>276</ele>
        <time>2018-08-18T09:55:00Z</time>
      </trkpt>
      <trkpt lat="45.98128" lon="4.8538">
        <ele>276</ele>
        <time>2018-08-18T09:55:01Z</time>
      </trkpt>
      <trkpt lat="45.98125" lon="4.85372">
        <ele>276</ele>
        <time>2018-08-18T09:55:02Z</time>
      </trkpt>
      <trkpt lat="45.98122" lon="4.85365">
        <ele>276</ele>
        <time>2018-08-18T09:55:03Z</time>
      </trkpt>
      <trkpt lat="45.98119" lon="4.85358">
        <ele>276</ele>
        <time>2018-08-18T09:55:04Z</time>
      </trkpt>
      <trkpt lat="45.98115" lon="4.85348">
        <ele>276</ele>
        <time>2018-08-18T09:55:06Z</time>
      </trkpt>
      <trkpt lat="45.98112" lon="4.85342">
        <ele>276</ele>
        <time>2018-08-18T09:55:07Z</time>
      </trkpt>
      <trkpt lat="45.9811" lon="4.85335">
        <ele>276</ele>
        <time>2018-08-18T09:55:08Z</time>
      </trkpt>
      <trkpt lat="45.98108" lon="4.85328">
        <ele>276</ele>
        <time>2018-08-18T09:55:09Z</time>
      </trkpt>
      <trkpt lat="45.98106" lon="4.85321">
        <ele>276</ele>
        <time>2018-08-18T09:55:10Z</time>
      </trkpt>
      <trkpt lat="45.98103" lon="4.85314">
        <ele>276</ele>
        <time>2018-08-18T09:55:11Z</time>
      </trkpt>
      <trkpt lat="45.981" lon="4.85307">
        <ele>276</ele>
        <time>2018-08-18T09:55:12Z</time>
      </trkpt>
      <trkpt lat="45.98097" lon="4.853">
        <ele>276</ele>
        <time>2018-08-18T09:55:13Z</time>
      </trkpt>
      <trkpt lat="45.98095" lon="4.85293">
        <ele>276</ele>
        <time>2018-08-18T09:55:14Z</time>
      </trkpt>
      <trkpt lat="45.98093" lon="4.85286">
        <ele>276</ele>
        <time>2018-08-18T09:55:15Z</time>
      </trkpt>
      <trkpt lat="45.9809" lon="4.8528">
        <ele>276</ele>
        <time>2018-08-18T09:55:16Z</time>
      </trkpt>
      <trkpt lat="45.98088" lon="4.85275">
        <ele>276</ele>
        <time>2018-08-18T09:55:17Z</time>
      </trkpt>
      <trkpt lat="45.98086" lon="4.8527">
        <ele>276</ele>
        <time>2018-08-18T09:55:18Z</time>
      </trkpt>
      <trkpt lat="45.98084" lon="4.85263">
        <ele>276</ele>
        <time>2018-08-18T09:55:19Z</time>
      </trkpt>
      <trkpt lat="45.98079" lon="4.85253">
        <ele>276</ele>
        <time>2018-08-18T09:55:21Z</time>
      </trkpt>
      <trkpt lat="45.98077" lon="4.85248">
        <ele>276</ele>
        <time>2018-08-18T09:55:22Z</time>
      </trkpt>
      <trkpt lat="45.98072" lon="4.85238">
        <ele>276</ele>
        <time>2018-08-18T09:55:25Z</time>
      </trkpt>
      <trkpt lat="45.98071" lon="4.85235">
        <ele>276</ele>
        <time>2018-08-18T09:55:26Z</time>
      </trkpt>
      <trkpt lat="45.98064" lon="4.85226">
        <ele>276</ele>
        <time>2018-08-18T09:55:30Z</time>
      </trkpt>
      <trkpt lat="45.98063" lon="4.85224">
        <ele>276</ele>
        <time>2018-08-18T09:55:31Z</time>
      </trkpt>
      <trkpt lat="45.98058" lon="4.85217">
        <ele>276</ele>
        <time>2018-08-18T09:55:35Z</time>
      </trkpt>
      <trkpt lat="45.98054" lon="4.85206">
        <ele>276</ele>
        <time>2018-08-18T09:55:36Z</time>
      </trkpt>
      <trkpt lat="45.98053" lon="4.85199">
        <ele>276</ele>
        <time>2018-08-18T09:55:37Z</time>
      </trkpt>
      <trkpt lat="45.98051" lon="4.85192">
        <ele>276</ele>
        <time>2018-08-18T09:55:38Z</time>
      </trkpt>
      <trkpt lat="45.9805" lon="4.85186">
        <ele>276</ele>
        <time>2018-08-18T09:55:39Z</time>
      </trkpt>
      <trkpt lat="45.98046" lon="4.85178">
        <ele>276</ele>
        <time>2018-08-18T09:55:40Z</time>
      </trkpt>
      <trkpt lat="45.98044" lon="4.85171">
        <ele>275</ele>
        <time>2018-08-18T09:55:41Z</time>
      </trkpt>
      <trkpt lat="45.98044" lon="4.85165">
        <ele>275</ele>
        <time>2018-08-18T09:55:42Z</time>
      </trkpt>
      <trkpt lat="45.98042" lon="4.85159">
        <ele>275</ele>
        <time>2018-08-18T09:55:43Z</time>
      </trkpt>
      <trkpt lat="45.9804" lon="4.8515">
        <ele>275</ele>
        <time>2018-08-18T09:55:44Z</time>
      </trkpt>
      <trkpt lat="45.98038" lon="4.85143">
        <ele>275</ele>
        <time>2018-08-18T09:55:45Z</time>
      </trkpt>
      <trkpt lat="45.98034" lon="4.85135">
        <ele>275</ele>
        <time>2018-08-18T09:55:46Z</time>
      </trkpt>
      <trkpt lat="45.9803" lon="4.85126">
        <ele>274</ele>
        <time>2018-08-18T09:55:47Z</time>
      </trkpt>
      <trkpt lat="45.98028" lon="4.85117">
        <ele>274</ele>
        <time>2018-08-18T09:55:48Z</time>
      </trkpt>
      <trkpt lat="45.98026" lon="4.85107">
        <ele>274</ele>
        <time>2018-08-18T09:55:49Z</time>
      </trkpt>
      <trkpt lat="45.98021" lon="4.85098">
        <ele>274</ele>
        <time>2018-08-18T09:55:50Z</time>
      </trkpt>
      <trkpt lat="45.98019" lon="4.85089">
        <ele>274</ele>
        <time>2018-08-18T09:55:51Z</time>
      </trkpt>
      <trkpt lat="45.98018" lon="4.85082">
        <ele>273</ele>
        <time>2018-08-18T09:55:52Z</time>
      </trkpt>
      <trkpt lat="45.98016" lon="4.85072">
        <ele>273</ele>
        <time>2018-08-18T09:55:53Z</time>
      </trkpt>
      <trkpt lat="45.98016" lon="4.85063">
        <ele>273</ele>
        <time>2018-08-18T09:55:54Z</time>
      </trkpt>
      <trkpt lat="45.98017" lon="4.85054">
        <ele>273</ele>
        <time>2018-08-18T09:55:55Z</time>
      </trkpt>
      <trkpt lat="45.98019" lon="4.85046">
        <ele>273</ele>
        <time>2018-08-18T09:55:56Z</time>
      </trkpt>
      <trkpt lat="45.98017" lon="4.85038">
        <ele>273</ele>
        <time>2018-08-18T09:55:57Z</time>
      </trkpt>
      <trkpt lat="45.98017" lon="4.85029">
        <ele>273</ele>
        <time>2018-08-18T09:55:58Z</time>
      </trkpt>
      <trkpt lat="45.98017" lon="4.85022">
        <ele>273</ele>
        <time>2018-08-18T09:55:59Z</time>
      </trkpt>
      <trkpt lat="45.98016" lon="4.85013">
        <ele>273</ele>
        <time>2018-08-18T09:56:00Z</time>
      </trkpt>
      <trkpt lat="45.98016" lon="4.85005">
        <ele>272</ele>
        <time>2018-08-18T09:56:01Z</time>
      </trkpt>
      <trkpt lat="45.98015" lon="4.84998">
        <ele>272</ele>
        <time>2018-08-18T09:56:02Z</time>
      </trkpt>
      <trkpt lat="45.98013" lon="4.8499">
        <ele>272</ele>
        <time>2018-08-18T09:56:03Z</time>
      </trkpt>
      <trkpt lat="45.98012" lon="4.84983">
        <ele>272</ele>
        <time>2018-08-18T09:56:04Z</time>
      </trkpt>
      <trkpt lat="45.98012" lon="4.84976">
        <ele>272</ele>
        <time>2018-08-18T09:56:05Z</time>
      </trkpt>
      <trkpt lat="45.98012" lon="4.84969">
        <ele>272</ele>
        <time>2018-08-18T09:56:06Z</time>
      </trkpt>
      <trkpt lat="45.98011" lon="4.84959">
        <ele>272</ele>
        <time>2018-08-18T09:56:07Z</time>
      </trkpt>
      <trkpt lat="45.98011" lon="4.84952">
        <ele>272</ele>
        <time>2018-08-18T09:56:08Z</time>
      </trkpt>
      <trkpt lat="45.9801" lon="4.84944">
        <ele>272</ele>
        <time>2018-08-18T09:56:09Z</time>
      </trkpt>
      <trkpt lat="45.98009" lon="4.84936">
        <ele>272</ele>
        <time>2018-08-18T09:56:10Z</time>
      </trkpt>
      <trkpt lat="45.9801" lon="4.84928">
        <ele>272</ele>
        <time>2018-08-18T09:56:11Z</time>
      </trkpt>
      <trkpt lat="45.98007" lon="4.8492">
        <ele>272</ele>
        <time>2018-08-18T09:56:12Z</time>
      </trkpt>
      <trkpt lat="45.98006" lon="4.84913">
        <ele>272</ele>
        <time>2018-08-18T09:56:13Z</time>
      </trkpt>
      <trkpt lat="45.98005" lon="4.84905">
        <ele>272</ele>
        <time>2018-08-18T09:56:14Z</time>
      </trkpt>
      <trkpt lat="45.98005" lon="4.84892">
        <ele>272</ele>
        <time>2018-08-18T09:56:16Z</time>
      </trkpt>
      <trkpt lat="45.98004" lon="4.84885">
        <ele>272</ele>
        <time>2018-08-18T09:56:17Z</time>
      </trkpt>
      <trkpt lat="45.98003" lon="4.84878">
        <ele>272</ele>
        <time>2018-08-18T09:56:18Z</time>
      </trkpt>
      <trkpt lat="45.98005" lon="4.84867">
        <ele>272</ele>
        <time>2018-08-18T09:56:19Z</time>
      </trkpt>
      <trkpt lat="45.98004" lon="4.84858">
        <ele>272</ele>
        <time>2018-08-18T09:56:20Z</time>
      </trkpt>
      <trkpt lat="45.98002" lon="4.84849">
        <ele>272</ele>
        <time>2018-08-18T09:56:21Z</time>
      </trkpt>
      <trkpt lat="45.98001" lon="4.8484">
        <ele>272</ele>
        <time>2018-08-18T09:56:22Z</time>
      </trkpt>
      <trkpt lat="45.98001" lon="4.84833">
        <ele>272</ele>
        <time>2018-08-18T09:56:23Z</time>
      </trkpt>
      <trkpt lat="45.97999" lon="4.84825">
        <ele>273</ele>
        <time>2018-08-18T09:56:24Z</time>
      </trkpt>
      <trkpt lat="45.97997" lon="4.84817">
        <ele>273</ele>
        <time>2018-08-18T09:56:25Z</time>
      </trkpt>
      <trkpt lat="45.97996" lon="4.84809">
        <ele>273</ele>
        <time>2018-08-18T09:56:26Z</time>
      </trkpt>
      <trkpt lat="45.97995" lon="4.84801">
        <ele>274</ele>
        <time>2018-08-18T09:56:27Z</time>
      </trkpt>
      <trkpt lat="45.97995" lon="4.84793">
        <ele>274</ele>
        <time>2018-08-18T09:56:28Z</time>
      </trkpt>
      <trkpt lat="45.97995" lon="4.84785">
        <ele>274</ele>
        <time>2018-08-18T09:56:29Z</time>
      </trkpt>
      <trkpt lat="45.97993" lon="4.84777">
        <ele>274</ele>
        <time>2018-08-18T09:56:30Z</time>
      </trkpt>
      <trkpt lat="45.97993" lon="4.84769">
        <ele>274</ele>
        <time>2018-08-18T09:56:31Z</time>
      </trkpt>
      <trkpt lat="45.97992" lon="4.84762">
        <ele>275</ele>
        <time>2018-08-18T09:56:32Z</time>
      </trkpt>
      <trkpt lat="45.97992" lon="4.84754">
        <ele>275</ele>
        <time>2018-08-18T09:56:33Z</time>
      </trkpt>
      <trkpt lat="45.97993" lon="4.84743">
        <ele>275</ele>
        <time>2018-08-18T09:56:35Z</time>
      </trkpt>
      <trkpt lat="45.97994" lon="4.84736">
        <ele>275</ele>
        <time>2018-08-18T09:56:36Z</time>
      </trkpt>
      <trkpt lat="45.97994" lon="4.8473">
        <ele>275</ele>
        <time>2018-08-18T09:56:37Z</time>
      </trkpt>
      <trkpt lat="45.97994" lon="4.84722">
        <ele>275</ele>
        <time>2018-08-18T09:56:38Z</time>
      </trkpt>
      <trkpt lat="45.97993" lon="4.84714">
        <ele>275</ele>
        <time>2018-08-18T09:56:39Z</time>
      </trkpt>
      <trkpt lat="45.97993" lon="4.84706">
        <ele>275</ele>
        <time>2018-08-18T09:56:40Z</time>
      </trkpt>
      <trkpt lat="45.97991" lon="4.84698">
        <ele>275</ele>
        <time>2018-08-18T09:56:41Z</time>
      </trkpt>
      <trkpt lat="45.9799" lon="4.84689">
        <ele>275</ele>
        <time>2018-08-18T09:56:42Z</time>
      </trkpt>
      <trkpt lat="45.97989" lon="4.8468">
        <ele>275</ele>
        <time>2018-08-18T09:56:43Z</time>
      </trkpt>
      <trkpt lat="45.97987" lon="4.8467">
        <ele>275</ele>
        <time>2018-08-18T09:56:44Z</time>
      </trkpt>
      <trkpt lat="45.97986" lon="4.84662">
        <ele>274</ele>
        <time>2018-08-18T09:56:45Z</time>
      </trkpt>
      <trkpt lat="45.97985" lon="4.84655">
        <ele>274</ele>
        <time>2018-08-18T09:56:46Z</time>
      </trkpt>
      <trkpt lat="45.97985" lon="4.84646">
        <ele>274</ele>
        <time>2018-08-18T09:56:47Z</time>
      </trkpt>
      <trkpt lat="45.97983" lon="4.84638">
        <ele>275</ele>
        <time>2018-08-18T09:56:48Z</time>
      </trkpt>
      <trkpt lat="45.97982" lon="4.84629">
        <ele>275</ele>
        <time>2018-08-18T09:56:49Z</time>
      </trkpt>
      <trkpt lat="45.97981" lon="4.84621">
        <ele>275</ele>
        <time>2018-08-18T09:56:50Z</time>
      </trkpt>
      <trkpt lat="45.97979" lon="4.84612">
        <ele>275</ele>
        <time>2018-08-18T09:56:51Z</time>
      </trkpt>
      <trkpt lat="45.97978" lon="4.84603">
        <ele>275</ele>
        <time>2018-08-18T09:56:52Z</time>
      </trkpt>
      <trkpt lat="45.97977" lon="4.84595">
        <ele>274</ele>
        <time>2018-08-18T09:56:53Z</time>
      </trkpt>
      <trkpt lat="45.97975" lon="4.84587">
        <ele>274</ele>
        <time>2018-08-18T09:56:54Z</time>
      </trkpt>
      <trkpt lat="45.97974" lon="4.84578">
        <ele>275</ele>
        <time>2018-08-18T09:56:55Z</time>
      </trkpt>
      <trkpt lat="45.97972" lon="4.84571">
        <ele>275</ele>
        <time>2018-08-18T09:56:56Z</time>
      </trkpt>
      <trkpt lat="45.97971" lon="4.84564">
        <ele>275</ele>
        <time>2018-08-18T09:56:57Z</time>
      </trkpt>
      <trkpt lat="45.97969" lon="4.84558">
        <ele>275</ele>
        <time>2018-08-18T09:56:58Z</time>
      </trkpt>
      <trkpt lat="45.97968" lon="4.84551">
        <ele>275</ele>
        <time>2018-08-18T09:56:59Z</time>
      </trkpt>
      <trkpt lat="45.97968" lon="4.84544">
        <ele>275</ele>
        <time>2018-08-18T09:57:00Z</time>
      </trkpt>
      <trkpt lat="45.97966" lon="4.84538">
        <ele>275</ele>
        <time>2018-08-18T09:57:01Z</time>
      </trkpt>
      <trkpt lat="45.97965" lon="4.8453">
        <ele>275</ele>
        <time>2018-08-18T09:57:02Z</time>
      </trkpt>
      <trkpt lat="45.97963" lon="4.84524">
        <ele>275</ele>
        <time>2018-08-18T09:57:03Z</time>
      </trkpt>
      <trkpt lat="45.97961" lon="4.84516">
        <ele>275</ele>
        <time>2018-08-18T09:57:04Z</time>
      </trkpt>
      <trkpt lat="45.9796" lon="4.84509">
        <ele>275</ele>
        <time>2018-08-18T09:57:05Z</time>
      </trkpt>
      <trkpt lat="45.97959" lon="4.84501">
        <ele>275</ele>
        <time>2018-08-18T09:57:06Z</time>
      </trkpt>
      <trkpt lat="45.97957" lon="4.84492">
        <ele>275</ele>
        <time>2018-08-18T09:57:07Z</time>
      </trkpt>
      <trkpt lat="45.97955" lon="4.84484">
        <ele>275</ele>
        <time>2018-08-18T09:57:08Z</time>
      </trkpt>
      <trkpt lat="45.97954" lon="4.84477">
        <ele>275</ele>
        <time>2018-08-18T09:57:09Z</time>
      </trkpt>
      <trkpt lat="45.97953" lon="4.84469">
        <ele>275</ele>
        <time>2018-08-18T09:57:10Z</time>
      </trkpt>
      <trkpt lat="45.97952" lon="4.84462">
        <ele>275</ele>
        <time>2018-08-18T09:57:11Z</time>
      </trkpt>
      <trkpt lat="45.97951" lon="4.84454">
        <ele>275</ele>
        <time>2018-08-18T09:57:12Z</time>
      </trkpt>
      <trkpt lat="45.9795" lon="4.84446">
        <ele>275</ele>
        <time>2018-08-18T09:57:13Z</time>
      </trkpt>
      <trkpt lat="45.97949" lon="4.84439">
        <ele>275</ele>
        <time>2018-08-18T09:57:14Z</time>
      </trkpt>
      <trkpt lat="45.97948" lon="4.84431">
        <ele>275</ele>
        <time>2018-08-18T09:57:15Z</time>
      </trkpt>
      <trkpt lat="45.97947" lon="4.84423">
        <ele>275</ele>
        <time>2018-08-18T09:57:16Z</time>
      </trkpt>
      <trkpt lat="45.97945" lon="4.84415">
        <ele>275</ele>
        <time>2018-08-18T09:57:17Z</time>
      </trkpt>
      <trkpt lat="45.97944" lon="4.84407">
        <ele>275</ele>
        <time>2018-08-18T09:57:18Z</time>
      </trkpt>
      <trkpt lat="45.97943" lon="4.84399">
        <ele>275</ele>
        <time>2018-08-18T09:57:19Z</time>
      </trkpt>
      <trkpt lat="45.9794" lon="4.84391">
        <ele>275</ele>
        <time>2018-08-18T09:57:20Z</time>
      </trkpt>
      <trkpt lat="45.97939" lon="4.84383">
        <ele>275</ele>
        <time>2018-08-18T09:57:21Z</time>
      </trkpt>
      <trkpt lat="45.97938" lon="4.84377">
        <ele>275</ele>
        <time>2018-08-18T09:57:22Z</time>
      </trkpt>
      <trkpt lat="45.97937" lon="4.84369">
        <ele>275</ele>
        <time>2018-08-18T09:57:23Z</time>
      </trkpt>
      <trkpt lat="45.97937" lon="4.84362">
        <ele>275</ele>
        <time>2018-08-18T09:57:24Z</time>
      </trkpt>
      <trkpt lat="45.97938" lon="4.8435">
        <ele>275</ele>
        <time>2018-08-18T09:57:26Z</time>
      </trkpt>
      <trkpt lat="45.97936" lon="4.84344">
        <ele>275</ele>
        <time>2018-08-18T09:57:27Z</time>
      </trkpt>
      <trkpt lat="45.97935" lon="4.84332">
        <ele>275</ele>
        <time>2018-08-18T09:57:29Z</time>
      </trkpt>
      <trkpt lat="45.97934" lon="4.84326">
        <ele>275</ele>
        <time>2018-08-18T09:57:30Z</time>
      </trkpt>
      <trkpt lat="45.97931" lon="4.84315">
        <ele>275</ele>
        <time>2018-08-18T09:57:32Z</time>
      </trkpt>
      <trkpt lat="45.9793" lon="4.84309">
        <ele>275</ele>
        <time>2018-08-18T09:57:33Z</time>
      </trkpt>
      <trkpt lat="45.97929" lon="4.84297">
        <ele>275</ele>
        <time>2018-08-18T09:57:35Z</time>
      </trkpt>
      <trkpt lat="45.97928" lon="4.84291">
        <ele>275</ele>
        <time>2018-08-18T09:57:36Z</time>
      </trkpt>
      <trkpt lat="45.97927" lon="4.84282">
        <ele>275</ele>
        <time>2018-08-18T09:57:37Z</time>
      </trkpt>
      <trkpt lat="45.97926" lon="4.84274">
        <ele>275</ele>
        <time>2018-08-18T09:57:38Z</time>
      </trkpt>
      <trkpt lat="45.97931" lon="4.84264">
        <ele>275</ele>
        <time>2018-08-18T09:57:40Z</time>
      </trkpt>
      <trkpt lat="45.97936" lon="4.8426">
        <ele>275</ele>
        <time>2018-08-18T09:57:41Z</time>
      </trkpt>
      <trkpt lat="45.97941" lon="4.84253">
        <ele>275</ele>
        <time>2018-08-18T09:57:42Z</time>
      </trkpt>
      <trkpt lat="45.97947" lon="4.8425">
        <ele>275</ele>
        <time>2018-08-18T09:57:43Z</time>
      </trkpt>
      <trkpt lat="45.97951" lon="4.84245">
        <ele>275</ele>
        <time>2018-08-18T09:57:44Z</time>
      </trkpt>
      <trkpt lat="45.97955" lon="4.84239">
        <ele>275</ele>
        <time>2018-08-18T09:57:45Z</time>
      </trkpt>
      <trkpt lat="45.9796" lon="4.84233">
        <ele>274</ele>
        <time>2018-08-18T09:57:46Z</time>
      </trkpt>
      <trkpt lat="45.97965" lon="4.84226">
        <ele>274</ele>
        <time>2018-08-18T09:57:47Z</time>
      </trkpt>
      <trkpt lat="45.9797" lon="4.84222">
        <ele>274</ele>
        <time>2018-08-18T09:57:48Z</time>
      </trkpt>
      <trkpt lat="45.97974" lon="4.84216">
        <ele>274</ele>
        <time>2018-08-18T09:57:49Z</time>
      </trkpt>
      <trkpt lat="45.97978" lon="4.84212">
        <ele>274</ele>
        <time>2018-08-18T09:57:50Z</time>
      </trkpt>
      <trkpt lat="45.97983" lon="4.84208">
        <ele>274</ele>
        <time>2018-08-18T09:57:51Z</time>
      </trkpt>
      <trkpt lat="45.97987" lon="4.84202">
        <ele>274</ele>
        <time>2018-08-18T09:57:52Z</time>
      </trkpt>
      <trkpt lat="45.97991" lon="4.84198">
        <ele>274</ele>
        <time>2018-08-18T09:57:53Z</time>
      </trkpt>
      <trkpt lat="45.97996" lon="4.84191">
        <ele>274</ele>
        <time>2018-08-18T09:57:54Z</time>
      </trkpt>
      <trkpt lat="45.98" lon="4.84187">
        <ele>274</ele>
        <time>2018-08-18T09:57:55Z</time>
      </trkpt>
      <trkpt lat="45.98005" lon="4.84183">
        <ele>274</ele>
        <time>2018-08-18T09:57:56Z</time>
      </trkpt>
      <trkpt lat="45.98009" lon="4.84179">
        <ele>274</ele>
        <time>2018-08-18T09:57:57Z</time>
      </trkpt>
      <trkpt lat="45.98014" lon="4.84175">
        <ele>274</ele>
        <time>2018-08-18T09:57:58Z</time>
      </trkpt>
      <trkpt lat="45.98018" lon="4.84171">
        <ele>274</ele>
        <time>2018-08-18T09:57:59Z</time>
      </trkpt>
      <trkpt lat="45.98023" lon="4.84167">
        <ele>274</ele>
        <time>2018-08-18T09:58:00Z</time>
      </trkpt>
      <trkpt lat="45.98027" lon="4.84164">
        <ele>273</ele>
        <time>2018-08-18T09:58:01Z</time>
      </trkpt>
      <trkpt lat="45.98034" lon="4.84157">
        <ele>273</ele>
        <time>2018-08-18T09:58:03Z</time>
      </trkpt>
      <trkpt lat="45.98038" lon="4.84154">
        <ele>273</ele>
        <time>2018-08-18T09:58:04Z</time>
      </trkpt>
      <trkpt lat="45.98042" lon="4.8415">
        <ele>273</ele>
        <time>2018-08-18T09:58:05Z</time>
      </trkpt>
      <trkpt lat="45.98047" lon="4.84145">
        <ele>273</ele>
        <time>2018-08-18T09:58:06Z</time>
      </trkpt>
      <trkpt lat="45.98051" lon="4.8414">
        <ele>273</ele>
        <time>2018-08-18T09:58:07Z</time>
      </trkpt>
      <trkpt lat="45.98055" lon="4.84136">
        <ele>273</ele>
        <time>2018-08-18T09:58:08Z</time>
      </trkpt>
      <trkpt lat="45.98061" lon="4.8413">
        <ele>273</ele>
        <time>2018-08-18T09:58:09Z</time>
      </trkpt>
      <trkpt lat="45.98065" lon="4.84126">
        <ele>273</ele>
        <time>2018-08-18T09:58:10Z</time>
      </trkpt>
      <trkpt lat="45.9807" lon="4.84121">
        <ele>273</ele>
        <time>2018-08-18T09:58:11Z</time>
      </trkpt>
      <trkpt lat="45.98073" lon="4.84116">
        <ele>273</ele>
        <time>2018-08-18T09:58:12Z</time>
      </trkpt>
      <trkpt lat="45.98077" lon="4.84113">
        <ele>273</ele>
        <time>2018-08-18T09:58:13Z</time>
      </trkpt>
      <trkpt lat="45.98081" lon="4.84109">
        <ele>273</ele>
        <time>2018-08-18T09:58:14Z</time>
      </trkpt>
      <trkpt lat="45.98085" lon="4.84105">
        <ele>273</ele>
        <time>2018-08-18T09:58:15Z</time>
      </trkpt>
      <trkpt lat="45.98089" lon="4.84101">
        <ele>273</ele>
        <time>2018-08-18T09:58:16Z</time>
      </trkpt>
      <trkpt lat="45.98093" lon="4.84099">
        <ele>273</ele>
        <time>2018-08-18T09:58:17Z</time>
      </trkpt>
      <trkpt lat="45.98097" lon="4.84094">
        <ele>273</ele>
        <time>2018-08-18T09:58:18Z</time>
      </trkpt>
      <trkpt lat="45.98101" lon="4.84091">
        <ele>273</ele>
        <time>2018-08-18T09:58:19Z</time>
      </trkpt>
      <trkpt lat="45.98105" lon="4.84087">
        <ele>273</ele>
        <time>2018-08-18T09:58:20Z</time>
      </trkpt>
      <trkpt lat="45.98109" lon="4.84083">
        <ele>273</ele>
        <time>2018-08-18T09:58:21Z</time>
      </trkpt>
      <trkpt lat="45.98113" lon="4.8408">
        <ele>273</ele>
        <time>2018-08-18T09:58:22Z</time>
      </trkpt>
      <trkpt lat="45.98121" lon="4.84073">
        <ele>273</ele>
        <time>2018-08-18T09:58:24Z</time>
      </trkpt>
      <trkpt lat="45.98124" lon="4.8407">
        <ele>273</ele>
        <time>2018-08-18T09:58:25Z</time>
      </trkpt>
      <trkpt lat="45.98128" lon="4.84066">
        <ele>273</ele>
        <time>2018-08-18T09:58:26Z</time>
      </trkpt>
      <trkpt lat="45.98132" lon="4.84061">
        <ele>273</ele>
        <time>2018-08-18T09:58:27Z</time>
      </trkpt>
      <trkpt lat="45.98135" lon="4.84057">
        <ele>273</ele>
        <time>2018-08-18T09:58:28Z</time>
      </trkpt>
      <trkpt lat="45.9814" lon="4.84051">
        <ele>273</ele>
        <time>2018-08-18T09:58:29Z</time>
      </trkpt>
      <trkpt lat="45.98143" lon="4.84046">
        <ele>273</ele>
        <time>2018-08-18T09:58:30Z</time>
      </trkpt>
      <trkpt lat="45.98147" lon="4.84042">
        <ele>273</ele>
        <time>2018-08-18T09:58:31Z</time>
      </trkpt>
      <trkpt lat="45.98153" lon="4.84034">
        <ele>273</ele>
        <time>2018-08-18T09:58:33Z</time>
      </trkpt>
      <trkpt lat="45.98156" lon="4.84029">
        <ele>273</ele>
        <time>2018-08-18T09:58:34Z</time>
      </trkpt>
      <trkpt lat="45.98159" lon="4.84022">
        <ele>273</ele>
        <time>2018-08-18T09:58:35Z</time>
      </trkpt>
      <trkpt lat="45.98162" lon="4.84018">
        <ele>273</ele>
        <time>2018-08-18T09:58:36Z</time>
      </trkpt>
      <trkpt lat="45.98168" lon="4.84008">
        <ele>273</ele>
        <time>2018-08-18T09:58:38Z</time>
      </trkpt>
      <trkpt lat="45.9817" lon="4.84002">
        <ele>273</ele>
        <time>2018-08-18T09:58:39Z</time>
      </trkpt>
      <trkpt lat="45.98173" lon="4.83997">
        <ele>273</ele>
        <time>2018-08-18T09:58:40Z</time>
      </trkpt>
      <trkpt lat="45.98176" lon="4.83991">
        <ele>273</ele>
        <time>2018-08-18T09:58:41Z</time>
      </trkpt>
      <trkpt lat="45.98179" lon="4.83986">
        <ele>273</ele>
        <time>2018-08-18T09:58:42Z</time>
      </trkpt>
      <trkpt lat="45.98181" lon="4.8398">
        <ele>273</ele>
        <time>2018-08-18T09:58:43Z</time>
      </trkpt>
      <trkpt lat="45.98183" lon="4.83975">
        <ele>273</ele>
        <time>2018-08-18T09:58:44Z</time>
      </trkpt>
      <trkpt lat="45.98185" lon="4.83968">
        <ele>273</ele>
        <time>2018-08-18T09:58:45Z</time>
      </trkpt>
      <trkpt lat="45.98187" lon="4.83962">
        <ele>273</ele>
        <time>2018-08-18T09:58:46Z</time>
      </trkpt>
      <trkpt lat="45.98189" lon="4.83956">
        <ele>273</ele>
        <time>2018-08-18T09:58:47Z</time>
      </trkpt>
      <trkpt lat="45.98192" lon="4.83949">
        <ele>273</ele>
        <time>2018-08-18T09:58:48Z</time>
      </trkpt>
      <trkpt lat="45.98194" lon="4.83944">
        <ele>273</ele>
        <time>2018-08-18T09:58:49Z</time>
      </trkpt>
      <trkpt lat="45.98198" lon="4.83937">
        <ele>273</ele>
        <time>2018-08-18T09:58:50Z</time>
      </trkpt>
      <trkpt lat="45.98199" lon="4.83932">
        <ele>273</ele>
        <time>2018-08-18T09:58:51Z</time>
      </trkpt>
      <trkpt lat="45.982" lon="4.83925">
        <ele>273</ele>
        <time>2018-08-18T09:58:52Z</time>
      </trkpt>
      <trkpt lat="45.98202" lon="4.83918">
        <ele>273</ele>
        <time>2018-08-18T09:58:53Z</time>
      </trkpt>
      <trkpt lat="45.98204" lon="4.83912">
        <ele>273</ele>
        <time>2018-08-18T09:58:54Z</time>
      </trkpt>
      <trkpt lat="45.98206" lon="4.83904">
        <ele>273</ele>
        <time>2018-08-18T09:58:55Z</time>
      </trkpt>
      <trkpt lat="45.98208" lon="4.83899">
        <ele>273</ele>
        <time>2018-08-18T09:58:56Z</time>
      </trkpt>
      <trkpt lat="45.9821" lon="4.83891">
        <ele>273</ele>
        <time>2018-08-18T09:58:57Z</time>
      </trkpt>
      <trkpt lat="45.98212" lon="4.83885">
        <ele>273</ele>
        <time>2018-08-18T09:58:58Z</time>
      </trkpt>
      <trkpt lat="45.98215" lon="4.83879">
        <ele>272</ele>
        <time>2018-08-18T09:58:59Z</time>
      </trkpt>
      <trkpt lat="45.98218" lon="4.83872">
        <ele>272</ele>
        <time>2018-08-18T09:59:00Z</time>
      </trkpt>
      <trkpt lat="45.98221" lon="4.83866">
        <ele>272</ele>
        <time>2018-08-18T09:59:01Z</time>
      </trkpt>
      <trkpt lat="45.98224" lon="4.8386">
        <ele>272</ele>
        <time>2018-08-18T09:59:02Z</time>
      </trkpt>
      <trkpt lat="45.98227" lon="4.83854">
        <ele>272</ele>
        <time>2018-08-18T09:59:03Z</time>
      </trkpt>
      <trkpt lat="45.98229" lon="4.83847">
        <ele>272</ele>
        <time>2018-08-18T09:59:04Z</time>
      </trkpt>
      <trkpt lat="45.98231" lon="4.83841">
        <ele>272</ele>
        <time>2018-08-18T09:59:05Z</time>
      </trkpt>
      <trkpt lat="45.98232" lon="4.83833">
        <ele>272</ele>
        <time>2018-08-18T09:59:06Z</time>
      </trkpt>
      <trkpt lat="45.98235" lon="4.83826">
        <ele>272</ele>
        <time>2018-08-18T09:59:07Z</time>
      </trkpt>
      <trkpt lat="45.98239" lon="4.83815">
        <ele>272</ele>
        <time>2018-08-18T09:59:09Z</time>
      </trkpt>
      <trkpt lat="45.9824" lon="4.8381">
        <ele>272</ele>
        <time>2018-08-18T09:59:10Z</time>
      </trkpt>
      <trkpt lat="45.98245" lon="4.83801">
        <ele>272</ele>
        <time>2018-08-18T09:59:12Z</time>
      </trkpt>
      <trkpt lat="45.98247" lon="4.83792">
        <ele>272</ele>
        <time>2018-08-18T09:59:13Z</time>
      </trkpt>
      <trkpt lat="45.98249" lon="4.83785">
        <ele>272</ele>
        <time>2018-08-18T09:59:14Z</time>
      </trkpt>
      <trkpt lat="45.98252" lon="4.83779">
        <ele>272</ele>
        <time>2018-08-18T09:59:15Z</time>
      </trkpt>
      <trkpt lat="45.98254" lon="4.83772">
        <ele>272</ele>
        <time>2018-08-18T09:59:16Z</time>
      </trkpt>
      <trkpt lat="45.98256" lon="4.83766">
        <ele>272</ele>
        <time>2018-08-18T09:59:17Z</time>
      </trkpt>
      <trkpt lat="45.98259" lon="4.8376">
        <ele>272</ele>
        <time>2018-08-18T09:59:18Z</time>
      </trkpt>
      <trkpt lat="45.98263" lon="4.83752">
        <ele>272</ele>
        <time>2018-08-18T09:59:19Z</time>
      </trkpt>
      <trkpt lat="45.98266" lon="4.83747">
        <ele>272</ele>
        <time>2018-08-18T09:59:20Z</time>
      </trkpt>
      <trkpt lat="45.98269" lon="4.8374">
        <ele>272</ele>
        <time>2018-08-18T09:59:21Z</time>
      </trkpt>
      <trkpt lat="45.98272" lon="4.83732">
        <ele>272</ele>
        <time>2018-08-18T09:59:22Z</time>
      </trkpt>
      <trkpt lat="45.98274" lon="4.83725">
        <ele>272</ele>
        <time>2018-08-18T09:59:23Z</time>
      </trkpt>
      <trkpt lat="45.98277" lon="4.83718">
        <ele>272</ele>
        <time>2018-08-18T09:59:24Z</time>
      </trkpt>
      <trkpt lat="45.9828" lon="4.8371">
        <ele>272</ele>
        <time>2018-08-18T09:59:25Z</time>
      </trkpt>
      <trkpt lat="45.98282" lon="4.83703">
        <ele>272</ele>
        <time>2018-08-18T09:59:26Z</time>
      </trkpt>
      <trkpt lat="45.98284" lon="4.83695">
        <ele>272</ele>
        <time>2018-08-18T09:59:27Z</time>
      </trkpt>
      <trkpt lat="45.98285" lon="4.83689">
        <ele>272</ele>
        <time>2018-08-18T09:59:28Z</time>
      </trkpt>
      <trkpt lat="45.98288" lon="4.83683">
        <ele>272</ele>
        <time>2018-08-18T09:59:29Z</time>
      </trkpt>
      <trkpt lat="45.98289" lon="4.83676">
        <ele>272</ele>
        <time>2018-08-18T09:59:30Z</time>
      </trkpt>
      <trkpt lat="45.98291" lon="4.83668">
        <ele>272</ele>
        <time>2018-08-18T09:59:31Z</time>
      </trkpt>
      <trkpt lat="45.98294" lon="4.83661">
        <ele>271</ele>
        <time>2018-08-18T09:59:32Z</time>
      </trkpt>
      <trkpt lat="45.98296" lon="4.83654">
        <ele>271</ele>
        <time>2018-08-18T09:59:33Z</time>
      </trkpt>
      <trkpt lat="45.983" lon="4.83646">
        <ele>271</ele>
        <time>2018-08-18T09:59:34Z</time>
      </trkpt>
      <trkpt lat="45.98304" lon="4.83638">
        <ele>271</ele>
        <time>2018-08-18T09:59:35Z</time>
      </trkpt>
      <trkpt lat="45.98307" lon="4.83631">
        <ele>271</ele>
        <time>2018-08-18T09:59:36Z</time>
      </trkpt>
      <trkpt lat="45.9831" lon="4.83624">
        <ele>271</ele>
        <time>2018-08-18T09:59:37Z</time>
      </trkpt>
      <trkpt lat="45.98314" lon="4.83619">
        <ele>271</ele>
        <time>2018-08-18T09:59:38Z</time>
      </trkpt>
      <trkpt lat="45.98316" lon="4.83612">
        <ele>271</ele>
        <time>2018-08-18T09:59:39Z</time>
      </trkpt>
      <trkpt lat="45.98321" lon="4.83607">
        <ele>271</ele>
        <time>2018-08-18T09:59:40Z</time>
      </trkpt>
      <trkpt lat="45.98325" lon="4.83602">
        <ele>271</ele>
        <time>2018-08-18T09:59:41Z</time>
      </trkpt>
      <trkpt lat="45.98328" lon="4.83597">
        <ele>271</ele>
        <time>2018-08-18T09:59:42Z</time>
      </trkpt>
      <trkpt lat="45.98332" lon="4.83592">
        <ele>270</ele>
        <time>2018-08-18T09:59:43Z</time>
      </trkpt>
      <trkpt lat="45.98336" lon="4.83586">
        <ele>270</ele>
        <time>2018-08-18T09:59:44Z</time>
      </trkpt>
      <trkpt lat="45.98339" lon="4.83579">
        <ele>270</ele>
        <time>2018-08-18T09:59:45Z</time>
      </trkpt>
      <trkpt lat="45.98343" lon="4.83572">
        <ele>270</ele>
        <time>2018-08-18T09:59:46Z</time>
      </trkpt>
      <trkpt lat="45.98348" lon="4.83566">
        <ele>269</ele>
        <time>2018-08-18T09:59:47Z</time>
      </trkpt>
      <trkpt lat="45.98353" lon="4.8356">
        <ele>269</ele>
        <time>2018-08-18T09:59:48Z</time>
      </trkpt>
      <trkpt lat="45.98358" lon="4.83553">
        <ele>269</ele>
        <time>2018-08-18T09:59:49Z</time>
      </trkpt>
      <trkpt lat="45.98363" lon="4.83548">
        <ele>269</ele>
        <time>2018-08-18T09:59:50Z</time>
      </trkpt>
      <trkpt lat="45.98368" lon="4.83542">
        <ele>269</ele>
        <time>2018-08-18T09:59:51Z</time>
      </trkpt>
      <trkpt lat="45.98372" lon="4.83536">
        <ele>269</ele>
        <time>2018-08-18T09:59:52Z</time>
      </trkpt>
      <trkpt lat="45.98376" lon="4.8353">
        <ele>269</ele>
        <time>2018-08-18T09:59:53Z</time>
      </trkpt>
      <trkpt lat="45.98379" lon="4.83523">
        <ele>269</ele>
        <time>2018-08-18T09:59:54Z</time>
      </trkpt>
      <trkpt lat="45.98383" lon="4.83518">
        <ele>269</ele>
        <time>2018-08-18T09:59:55Z</time>
      </trkpt>
      <trkpt lat="45.98388" lon="4.8351">
        <ele>269</ele>
        <time>2018-08-18T09:59:56Z</time>
      </trkpt>
      <trkpt lat="45.98393" lon="4.83504">
        <ele>269</ele>
        <time>2018-08-18T09:59:57Z</time>
      </trkpt>
      <trkpt lat="45.98397" lon="4.83498">
        <ele>269</ele>
        <time>2018-08-18T09:59:58Z</time>
      </trkpt>
      <trkpt lat="45.98401" lon="4.83492">
        <ele>269</ele>
        <time>2018-08-18T09:59:59Z</time>
      </trkpt>
      <trkpt lat="45.98405" lon="4.83487">
        <ele>269</ele>
        <time>2018-08-18T10:00:00Z</time>
      </trkpt>
      <trkpt lat="45.98409" lon="4.83482">
        <ele>269</ele>
        <time>2018-08-18T10:00:01Z</time>
      </trkpt>
      <trkpt lat="45.98413" lon="4.83476">
        <ele>269</ele>
        <time>2018-08-18T10:00:02Z</time>
      </trkpt>
      <trkpt lat="45.98416" lon="4.83471">
        <ele>269</ele>
        <time>2018-08-18T10:00:03Z</time>
      </trkpt>
      <trkpt lat="45.98419" lon="4.83466">
        <ele>268</ele>
        <time>2018-08-18T10:00:04Z</time>
      </trkpt>
      <trkpt lat="45.98423" lon="4.83461">
        <ele>268</ele>
        <time>2018-08-18T10:00:05Z</time>
      </trkpt>
      <trkpt lat="45.98428" lon="4.83456">
        <ele>268</ele>
        <time>2018-08-18T10:00:06Z</time>
      </trkpt>
      <trkpt lat="45.98431" lon="4.83452">
        <ele>268</ele>
        <time>2018-08-18T10:00:07Z</time>
      </trkpt>
      <trkpt lat="45.98436" lon="4.83447">
        <ele>268</ele>
        <time>2018-08-18T10:00:08Z</time>
      </trkpt>
      <trkpt lat="45.9844" lon="4.83443">
        <ele>268</ele>
        <time>2018-08-18T10:00:09Z</time>
      </trkpt>
      <trkpt lat="45.98443" lon="4.83438">
        <ele>268</ele>
        <time>2018-08-18T10:00:10Z</time>
      </trkpt>
      <trkpt lat="45.98447" lon="4.83432">
        <ele>268</ele>
        <time>2018-08-18T10:00:11Z</time>
      </trkpt>
      <trkpt lat="45.98451" lon="4.83428">
        <ele>269</ele>
        <time>2018-08-18T10:00:12Z</time>
      </trkpt>
      <trkpt lat="45.98455" lon="4.83423">
        <ele>269</ele>
        <time>2018-08-18T10:00:13Z</time>
      </trkpt>
      <trkpt lat="45.98459" lon="4.83418">
        <ele>269</ele>
        <time>2018-08-18T10:00:14Z</time>
      </trkpt>
      <trkpt lat="45.98463" lon="4.83412">
        <ele>269</ele>
        <time>2018-08-18T10:00:15Z</time>
      </trkpt>
      <trkpt lat="45.98466" lon="4.83406">
        <ele>269</ele>
        <time>2018-08-18T10:00:16Z</time>
      </trkpt>
      <trkpt lat="45.98469" lon="4.83401">
        <ele>269</ele>
        <time>2018-08-18T10:00:17Z</time>
      </trkpt>
      <trkpt lat="45.98473" lon="4.83397">
        <ele>269</ele>
        <time>2018-08-18T10:00:18Z</time>
      </trkpt>
      <trkpt lat="45.98477" lon="4.83392">
        <ele>269</ele>
        <time>2018-08-18T10:00:19Z</time>
      </trkpt>
      <trkpt lat="45.98481" lon="4.83387">
        <ele>269</ele>
        <time>2018-08-18T10:00:20Z</time>
      </trkpt>
      <trkpt lat="45.98485" lon="4.83384">
        <ele>269</ele>
        <time>2018-08-18T10:00:21Z</time>
      </trkpt>
      <trkpt lat="45.98489" lon="4.8338">
        <ele>269</ele>
        <time>2018-08-18T10:00:22Z</time>
      </trkpt>
      <trkpt lat="45.98493" lon="4.83375">
        <ele>269</ele>
        <time>2018-08-18T10:00:23Z</time>
      </trkpt>
      <trkpt lat="45.98497" lon="4.83369">
        <ele>270</ele>
        <time>2018-08-18T10:00:24Z</time>
      </trkpt>
      <trkpt lat="45.985" lon="4.83365">
        <ele>269</ele>
        <time>2018-08-18T10:00:25Z</time>
      </trkpt>
      <trkpt lat="45.98506" lon="4.83355">
        <ele>270</ele>
        <time>2018-08-18T10:00:27Z</time>
      </trkpt>
      <trkpt lat="45.98511" lon="4.83349">
        <ele>270</ele>
        <time>2018-08-18T10:00:28Z</time>
      </trkpt>
      <trkpt lat="45.98513" lon="4.83342">
        <ele>270</ele>
        <time>2018-08-18T10:00:29Z</time>
      </trkpt>
      <trkpt lat="45.98516" lon="4.83338">
        <ele>270</ele>
        <time>2018-08-18T10:00:30Z</time>
      </trkpt>
      <trkpt lat="45.9852" lon="4.83334">
        <ele>270</ele>
        <time>2018-08-18T10:00:31Z</time>
      </trkpt>
      <trkpt lat="45.98524" lon="4.83329">
        <ele>270</ele>
        <time>2018-08-18T10:00:32Z</time>
      </trkpt>
      <trkpt lat="45.9853" lon="4.8332">
        <ele>269</ele>
        <time>2018-08-18T10:00:34Z</time>
      </trkpt>
      <trkpt lat="45.98534" lon="4.83317">
        <ele>269</ele>
        <time>2018-08-18T10:00:35Z</time>
      </trkpt>
      <trkpt lat="45.98538" lon="4.83312">
        <ele>269</ele>
        <time>2018-08-18T10:00:36Z</time>
      </trkpt>
      <trkpt lat="45.98542" lon="4.83306">
        <ele>269</ele>
        <time>2018-08-18T10:00:37Z</time>
      </trkpt>
      <trkpt lat="45.98545" lon="4.833">
        <ele>269</ele>
        <time>2018-08-18T10:00:38Z</time>
      </trkpt>
      <trkpt lat="45.98549" lon="4.83294">
        <ele>269</ele>
        <time>2018-08-18T10:00:39Z</time>
      </trkpt>
      <trkpt lat="45.98553" lon="4.8329">
        <ele>269</ele>
        <time>2018-08-18T10:00:40Z</time>
      </trkpt>
      <trkpt lat="45.98557" lon="4.83284">
        <ele>269</ele>
        <time>2018-08-18T10:00:41Z</time>
      </trkpt>
      <trkpt lat="45.98562" lon="4.83279">
        <ele>269</ele>
        <time>2018-08-18T10:00:42Z</time>
      </trkpt>
      <trkpt lat="45.98566" lon="4.83272">
        <ele>269</ele>
        <time>2018-08-18T10:00:43Z</time>
      </trkpt>
      <trkpt lat="45.9857" lon="4.83268">
        <ele>269</ele>
        <time>2018-08-18T10:00:44Z</time>
      </trkpt>
      <trkpt lat="45.98573" lon="4.83262">
        <ele>269</ele>
        <time>2018-08-18T10:00:45Z</time>
      </trkpt>
      <trkpt lat="45.98577" lon="4.83256">
        <ele>268</ele>
        <time>2018-08-18T10:00:46Z</time>
      </trkpt>
      <trkpt lat="45.98581" lon="4.83252">
        <ele>268</ele>
        <time>2018-08-18T10:00:47Z</time>
      </trkpt>
      <trkpt lat="45.98584" lon="4.83248">
        <ele>268</ele>
        <time>2018-08-18T10:00:48Z</time>
      </trkpt>
      <trkpt lat="45.98588" lon="4.83245">
        <ele>268</ele>
        <time>2018-08-18T10:00:49Z</time>
      </trkpt>
      <trkpt lat="45.98592" lon="4.83239">
        <ele>268</ele>
        <time>2018-08-18T10:00:50Z</time>
      </trkpt>
      <trkpt lat="45.98597" lon="4.83233">
        <ele>268</ele>
        <time>2018-08-18T10:00:51Z</time>
      </trkpt>
      <trkpt lat="45.98601" lon="4.83227">
        <ele>268</ele>
        <time>2018-08-18T10:00:52Z</time>
      </trkpt>
      <trkpt lat="45.98605" lon="4.83221">
        <ele>267</ele>
        <time>2018-08-18T10:00:53Z</time>
      </trkpt>
      <trkpt lat="45.98609" lon="4.83216">
        <ele>267</ele>
        <time>2018-08-18T10:00:54Z</time>
      </trkpt>
      <trkpt lat="45.98613" lon="4.83211">
        <ele>267</ele>
        <time>2018-08-18T10:00:55Z</time>
      </trkpt>
      <trkpt lat="45.98617" lon="4.83204">
        <ele>267</ele>
        <time>2018-08-18T10:00:56Z</time>
      </trkpt>
      <trkpt lat="45.98621" lon="4.83198">
        <ele>267</ele>
        <time>2018-08-18T10:00:57Z</time>
      </trkpt>
      <trkpt lat="45.98625" lon="4.83194">
        <ele>267</ele>
        <time>2018-08-18T10:00:58Z</time>
      </trkpt>
      <trkpt lat="45.98629" lon="4.83189">
        <ele>267</ele>
        <time>2018-08-18T10:00:59Z</time>
      </trkpt>
      <trkpt lat="45.98633" lon="4.83185">
        <ele>267</ele>
        <time>2018-08-18T10:01:00Z</time>
      </trkpt>
      <trkpt lat="45.98637" lon="4.8318">
        <ele>267</ele>
        <time>2018-08-18T10:01:01Z</time>
      </trkpt>
      <trkpt lat="45.98642" lon="4.83178">
        <ele>267</ele>
        <time>2018-08-18T10:01:02Z</time>
      </trkpt>
      <trkpt lat="45.98646" lon="4.83173">
        <ele>267</ele>
        <time>2018-08-18T10:01:03Z</time>
      </trkpt>
      <trkpt lat="45.98652" lon="4.83169">
        <ele>267</ele>
        <time>2018-08-18T10:01:04Z</time>
      </trkpt>
      <trkpt lat="45.98658" lon="4.83163">
        <ele>267</ele>
        <time>2018-08-18T10:01:05Z</time>
      </trkpt>
      <trkpt lat="45.98663" lon="4.83159">
        <ele>267</ele>
        <time>2018-08-18T10:01:06Z</time>
      </trkpt>
      <trkpt lat="45.98668" lon="4.83154">
        <ele>266</ele>
        <time>2018-08-18T10:01:07Z</time>
      </trkpt>
      <trkpt lat="45.98673" lon="4.83149">
        <ele>266</ele>
        <time>2018-08-18T10:01:08Z</time>
      </trkpt>
      <trkpt lat="45.98678" lon="4.83145">
        <ele>266</ele>
        <time>2018-08-18T10:01:09Z</time>
      </trkpt>
      <trkpt lat="45.98683" lon="4.83142">
        <ele>266</ele>
        <time>2018-08-18T10:01:10Z</time>
      </trkpt>
      <trkpt lat="45.98688" lon="4.83135">
        <ele>266</ele>
        <time>2018-08-18T10:01:11Z</time>
      </trkpt>
      <trkpt lat="45.98694" lon="4.83132">
        <ele>266</ele>
        <time>2018-08-18T10:01:12Z</time>
      </trkpt>
      <trkpt lat="45.98699" lon="4.83129">
        <ele>267</ele>
        <time>2018-08-18T10:01:13Z</time>
      </trkpt>
      <trkpt lat="45.98703" lon="4.83125">
        <ele>267</ele>
        <time>2018-08-18T10:01:14Z</time>
      </trkpt>
      <trkpt lat="45.98709" lon="4.83121">
        <ele>267</ele>
        <time>2018-08-18T10:01:15Z</time>
      </trkpt>
      <trkpt lat="45.98713" lon="4.83117">
        <ele>267</ele>
        <time>2018-08-18T10:01:16Z</time>
      </trkpt>
      <trkpt lat="45.98718" lon="4.83113">
        <ele>267</ele>
        <time>2018-08-18T10:01:17Z</time>
      </trkpt>
      <trkpt lat="45.98723" lon="4.83108">
        <ele>267</ele>
        <time>2018-08-18T10:01:18Z</time>
      </trkpt>
      <trkpt lat="45.98727" lon="4.83103">
        <ele>267</ele>
        <time>2018-08-18T10:01:19Z</time>
      </trkpt>
      <trkpt lat="45.98732" lon="4.83098">
        <ele>267</ele>
        <time>2018-08-18T10:01:20Z</time>
      </trkpt>
      <trkpt lat="45.98737" lon="4.83094">
        <ele>267</ele>
        <time>2018-08-18T10:01:21Z</time>
      </trkpt>
      <trkpt lat="45.98741" lon="4.8309">
        <ele>267</ele>
        <time>2018-08-18T10:01:22Z</time>
      </trkpt>
      <trkpt lat="45.98746" lon="4.83086">
        <ele>267</ele>
        <time>2018-08-18T10:01:23Z</time>
      </trkpt>
      <trkpt lat="45.9875" lon="4.83083">
        <ele>267</ele>
        <time>2018-08-18T10:01:24Z</time>
      </trkpt>
      <trkpt lat="45.98755" lon="4.83079">
        <ele>266</ele>
        <time>2018-08-18T10:01:25Z</time>
      </trkpt>
      <trkpt lat="45.9876" lon="4.83077">
        <ele>266</ele>
        <time>2018-08-18T10:01:26Z</time>
      </trkpt>
      <trkpt lat="45.98765" lon="4.8307">
        <ele>266</ele>
        <time>2018-08-18T10:01:27Z</time>
      </trkpt>
      <trkpt lat="45.9877" lon="4.83066">
        <ele>265</ele>
        <time>2018-08-18T10:01:28Z</time>
      </trkpt>
      <trkpt lat="45.98776" lon="4.83059">
        <ele>265</ele>
        <time>2018-08-18T10:01:29Z</time>
      </trkpt>
      <trkpt lat="45.98781" lon="4.83055">
        <ele>265</ele>
        <time>2018-08-18T10:01:30Z</time>
      </trkpt>
      <trkpt lat="45.98786" lon="4.83051">
        <ele>265</ele>
        <time>2018-08-18T10:01:31Z</time>
      </trkpt>
      <trkpt lat="45.98791" lon="4.83045">
        <ele>265</ele>
        <time>2018-08-18T10:01:32Z</time>
      </trkpt>
      <trkpt lat="45.98797" lon="4.8304">
        <ele>265</ele>
        <time>2018-08-18T10:01:33Z</time>
      </trkpt>
      <trkpt lat="45.98802" lon="4.83035">
        <ele>264</ele>
        <time>2018-08-18T10:01:34Z</time>
      </trkpt>
      <trkpt lat="45.98807" lon="4.83031">
        <ele>264</ele>
        <time>2018-08-18T10:01:35Z</time>
      </trkpt>
      <trkpt lat="45.98813" lon="4.83025">
        <ele>264</ele>
        <time>2018-08-18T10:01:36Z</time>
      </trkpt>
      <trkpt lat="45.9882" lon="4.83021">
        <ele>264</ele>
        <time>2018-08-18T10:01:37Z</time>
      </trkpt>
      <trkpt lat="45.98826" lon="4.83017">
        <ele>264</ele>
        <time>2018-08-18T10:01:38Z</time>
      </trkpt>
      <trkpt lat="45.98833" lon="4.83012">
        <ele>264</ele>
        <time>2018-08-18T10:01:39Z</time>
      </trkpt>
      <trkpt lat="45.98839" lon="4.83008">
        <ele>262</ele>
        <time>2018-08-18T10:01:40Z</time>
      </trkpt>
      <trkpt lat="45.98845" lon="4.83005">
        <ele>262</ele>
        <time>2018-08-18T10:01:41Z</time>
      </trkpt>
      <trkpt lat="45.98851" lon="4.82998">
        <ele>261</ele>
        <time>2018-08-18T10:01:42Z</time>
      </trkpt>
      <trkpt lat="45.98858" lon="4.82995">
        <ele>261</ele>
        <time>2018-08-18T10:01:43Z</time>
      </trkpt>
      <trkpt lat="45.98865" lon="4.8299">
        <ele>260</ele>
        <time>2018-08-18T10:01:44Z</time>
      </trkpt>
      <trkpt lat="45.98872" lon="4.82985">
        <ele>260</ele>
        <time>2018-08-18T10:01:45Z</time>
      </trkpt>
      <trkpt lat="45.98879" lon="4.8298">
        <ele>260</ele>
        <time>2018-08-18T10:01:46Z</time>
      </trkpt>
      <trkpt lat="45.98887" lon="4.82974">
        <ele>259</ele>
        <time>2018-08-18T10:01:47Z</time>
      </trkpt>
      <trkpt lat="45.98895" lon="4.82969">
        <ele>259</ele>
        <time>2018-08-18T10:01:48Z</time>
      </trkpt>
      <trkpt lat="45.98903" lon="4.82962">
        <ele>259</ele>
        <time>2018-08-18T10:01:49Z</time>
      </trkpt>
      <trkpt lat="45.9891" lon="4.82955">
        <ele>258</ele>
        <time>2018-08-18T10:01:50Z</time>
      </trkpt>
      <trkpt lat="45.98916" lon="4.82945">
        <ele>258</ele>
        <time>2018-08-18T10:01:51Z</time>
      </trkpt>
      <trkpt lat="45.98922" lon="4.82934">
        <ele>255</ele>
        <time>2018-08-18T10:01:52Z</time>
      </trkpt>
      <trkpt lat="45.98928" lon="4.82921">
        <ele>255</ele>
        <time>2018-08-18T10:01:53Z</time>
      </trkpt>
      <trkpt lat="45.98935" lon="4.82907">
        <ele>254</ele>
        <time>2018-08-18T10:01:54Z</time>
      </trkpt>
      <trkpt lat="45.98941" lon="4.82894">
        <ele>253</ele>
        <time>2018-08-18T10:01:55Z</time>
      </trkpt>
      <trkpt lat="45.98946" lon="4.82879">
        <ele>253</ele>
        <time>2018-08-18T10:01:56Z</time>
      </trkpt>
      <trkpt lat="45.98952" lon="4.82863">
        <ele>252</ele>
        <time>2018-08-18T10:01:57Z</time>
      </trkpt>
      <trkpt lat="45.98957" lon="4.82847">
        <ele>252</ele>
        <time>2018-08-18T10:01:58Z</time>
      </trkpt>
      <trkpt lat="45.98964" lon="4.82833">
        <ele>249</ele>
        <time>2018-08-18T10:01:59Z</time>
      </trkpt>
      <trkpt lat="45.98972" lon="4.82819">
        <ele>249</ele>
        <time>2018-08-18T10:02:00Z</time>
      </trkpt>
      <trkpt lat="45.98979" lon="4.82804">
        <ele>248</ele>
        <time>2018-08-18T10:02:01Z</time>
      </trkpt>
      <trkpt lat="45.98985" lon="4.82788">
        <ele>247</ele>
        <time>2018-08-18T10:02:02Z</time>
      </trkpt>
      <trkpt lat="45.98992" lon="4.82773">
        <ele>246</ele>
        <time>2018-08-18T10:02:03Z</time>
      </trkpt>
      <trkpt lat="45.98997" lon="4.82758">
        <ele>243</ele>
        <time>2018-08-18T10:02:04Z</time>
      </trkpt>
      <trkpt lat="45.99004" lon="4.82743">
        <ele>240</ele>
        <time>2018-08-18T10:02:05Z</time>
      </trkpt>
      <trkpt lat="45.9901" lon="4.8273">
        <ele>239</ele>
        <time>2018-08-18T10:02:06Z</time>
      </trkpt>
      <trkpt lat="45.99016" lon="4.82716">
        <ele>239</ele>
        <time>2018-08-18T10:02:07Z</time>
      </trkpt>
      <trkpt lat="45.99021" lon="4.82703">
        <ele>238</ele>
        <time>2018-08-18T10:02:08Z</time>
      </trkpt>
      <trkpt lat="45.99027" lon="4.82689">
        <ele>238</ele>
        <time>2018-08-18T10:02:09Z</time>
      </trkpt>
      <trkpt lat="45.99032" lon="4.82676">
        <ele>238</ele>
        <time>2018-08-18T10:02:10Z</time>
      </trkpt>
      <trkpt lat="45.99038" lon="4.82665">
        <ele>236</ele>
        <time>2018-08-18T10:02:11Z</time>
      </trkpt>
      <trkpt lat="45.99043" lon="4.82652">
        <ele>236</ele>
        <time>2018-08-18T10:02:12Z</time>
      </trkpt>
      <trkpt lat="45.99049" lon="4.82642">
        <ele>236</ele>
        <time>2018-08-18T10:02:13Z</time>
      </trkpt>
      <trkpt lat="45.99054" lon="4.82632">
        <ele>236</ele>
        <time>2018-08-18T10:02:14Z</time>
      </trkpt>
      <trkpt lat="45.99059" lon="4.82622">
        <ele>236</ele>
        <time>2018-08-18T10:02:15Z</time>
      </trkpt>
      <trkpt lat="45.99063" lon="4.82612">
        <ele>236</ele>
        <time>2018-08-18T10:02:16Z</time>
      </trkpt>
      <trkpt lat="45.99067" lon="4.82603">
        <ele>236</ele>
        <time>2018-08-18T10:02:17Z</time>
      </trkpt>
      <trkpt lat="45.9907" lon="4.82597">
        <ele>235</ele>
        <time>2018-08-18T10:02:18Z</time>
      </trkpt>
      <trkpt lat="45.99072" lon="4.8259">
        <ele>235</ele>
        <time>2018-08-18T10:02:19Z</time>
      </trkpt>
      <trkpt lat="45.99075" lon="4.82584">
        <ele>235</ele>
        <time>2018-08-18T10:02:20Z</time>
      </trkpt>
      <trkpt lat="45.99075" lon="4.82573">
        <ele>235</ele>
        <time>2018-08-18T10:02:23Z</time>
      </trkpt>
      <trkpt lat="45.99071" lon="4.82569">
        <ele>235</ele>
        <time>2018-08-18T10:02:24Z</time>
      </trkpt>
      <trkpt lat="45.99066" lon="4.82567">
        <ele>235</ele>
        <time>2018-08-18T10:02:25Z</time>
      </trkpt>
      <trkpt lat="45.99061" lon="4.82566">
        <ele>235</ele>
        <time>2018-08-18T10:02:26Z</time>
      </trkpt>
      <trkpt lat="45.99056" lon="4.82565">
        <ele>235</ele>
        <time>2018-08-18T10:02:27Z</time>
      </trkpt>
      <trkpt lat="45.99051" lon="4.82564">
        <ele>235</ele>
        <time>2018-08-18T10:02:28Z</time>
      </trkpt>
      <trkpt lat="45.99047" lon="4.82562">
        <ele>235</ele>
        <time>2018-08-18T10:02:29Z</time>
      </trkpt>
      <trkpt lat="45.99043" lon="4.82558">
        <ele>235</ele>
        <time>2018-08-18T10:02:30Z</time>
      </trkpt>
      <trkpt lat="45.99039" lon="4.82554">
        <ele>235</ele>
        <time>2018-08-18T10:02:31Z</time>
      </trkpt>
      <trkpt lat="45.99033" lon="4.82551">
        <ele>235</ele>
        <time>2018-08-18T10:02:32Z</time>
      </trkpt>
      <trkpt lat="45.99029" lon="4.82546">
        <ele>235</ele>
        <time>2018-08-18T10:02:33Z</time>
      </trkpt>
      <trkpt lat="45.99024" lon="4.82542">
        <ele>235</ele>
        <time>2018-08-18T10:02:34Z</time>
      </trkpt>
      <trkpt lat="45.99019" lon="4.82535">
        <ele>235</ele>
        <time>2018-08-18T10:02:35Z</time>
      </trkpt>
      <trkpt lat="45.99015" lon="4.8253">
        <ele>235</ele>
        <time>2018-08-18T10:02:36Z</time>
      </trkpt>
      <trkpt lat="45.9901" lon="4.82524">
        <ele>235</ele>
        <time>2018-08-18T10:02:37Z</time>
      </trkpt>
      <trkpt lat="45.99007" lon="4.82519">
        <ele>235</ele>
        <time>2018-08-18T10:02:38Z</time>
      </trkpt>
      <trkpt lat="45.99003" lon="4.82512">
        <ele>235</ele>
        <time>2018-08-18T10:02:39Z</time>
      </trkpt>
      <trkpt lat="45.98999" lon="4.82506">
        <ele>236</ele>
        <time>2018-08-18T10:02:40Z</time>
      </trkpt>
      <trkpt lat="45.98997" lon="4.82499">
        <ele>235</ele>
        <time>2018-08-18T10:02:41Z</time>
      </trkpt>
      <trkpt lat="45.98994" lon="4.82492">
        <ele>236</ele>
        <time>2018-08-18T10:02:42Z</time>
      </trkpt>
      <trkpt lat="45.9899" lon="4.82485">
        <ele>236</ele>
        <time>2018-08-18T10:02:43Z</time>
      </trkpt>
      <trkpt lat="45.98988" lon="4.82477">
        <ele>236</ele>
        <time>2018-08-18T10:02:44Z</time>
      </trkpt>
      <trkpt lat="45.98987" lon="4.8247">
        <ele>236</ele>
        <time>2018-08-18T10:02:45Z</time>
      </trkpt>
      <trkpt lat="45.98983" lon="4.82462">
        <ele>236</ele>
        <time>2018-08-18T10:02:46Z</time>
      </trkpt>
      <trkpt lat="45.9898" lon="4.82455">
        <ele>236</ele>
        <time>2018-08-18T10:02:47Z</time>
      </trkpt>
      <trkpt lat="45.98978" lon="4.82449">
        <ele>236</ele>
        <time>2018-08-18T10:02:48Z</time>
      </trkpt>
      <trkpt lat="45.98975" lon="4.82442">
        <ele>236</ele>
        <time>2018-08-18T10:02:49Z</time>
      </trkpt>
      <trkpt lat="45.98975" lon="4.82435">
        <ele>236</ele>
        <time>2018-08-18T10:02:50Z</time>
      </trkpt>
      <trkpt lat="45.98972" lon="4.82429">
        <ele>236</ele>
        <time>2018-08-18T10:02:51Z</time>
      </trkpt>
      <trkpt lat="45.9897" lon="4.82423">
        <ele>236</ele>
        <time>2018-08-18T10:02:52Z</time>
      </trkpt>
      <trkpt lat="45.98968" lon="4.82417">
        <ele>236</ele>
        <time>2018-08-18T10:02:53Z</time>
      </trkpt>
      <trkpt lat="45.98966" lon="4.82411">
        <ele>235</ele>
        <time>2018-08-18T10:02:54Z</time>
      </trkpt>
      <trkpt lat="45.98964" lon="4.824">
        <ele>235</ele>
        <time>2018-08-18T10:02:56Z</time>
      </trkpt>
      <trkpt lat="45.98963" lon="4.82395">
        <ele>235</ele>
        <time>2018-08-18T10:02:57Z</time>
      </trkpt>
      <trkpt lat="45.98961" lon="4.82382">
        <ele>235</ele>
        <time>2018-08-18T10:03:01Z</time>
      </trkpt>
      <trkpt lat="45.98959" lon="4.82372">
        <ele>235</ele>
        <time>2018-08-18T10:03:02Z</time>
      </trkpt>
      <trkpt lat="45.98958" lon="4.82366">
        <ele>235</ele>
        <time>2018-08-18T10:03:03Z</time>
      </trkpt>
      <trkpt lat="45.98955" lon="4.8236">
        <ele>235</ele>
        <time>2018-08-18T10:03:04Z</time>
      </trkpt>
      <trkpt lat="45.98953" lon="4.82354">
        <ele>235</ele>
        <time>2018-08-18T10:03:05Z</time>
      </trkpt>
      <trkpt lat="45.98952" lon="4.82347">
        <ele>235</ele>
        <time>2018-08-18T10:03:06Z</time>
      </trkpt>
      <trkpt lat="45.9895" lon="4.82341">
        <ele>235</ele>
        <time>2018-08-18T10:03:07Z</time>
      </trkpt>
      <trkpt lat="45.98947" lon="4.82334">
        <ele>235</ele>
        <time>2018-08-18T10:03:08Z</time>
      </trkpt>
      <trkpt lat="45.98946" lon="4.82329">
        <ele>234</ele>
        <time>2018-08-18T10:03:09Z</time>
      </trkpt>
      <trkpt lat="45.98942" lon="4.82323">
        <ele>234</ele>
        <time>2018-08-18T10:03:10Z</time>
      </trkpt>
      <trkpt lat="45.98938" lon="4.82318">
        <ele>234</ele>
        <time>2018-08-18T10:03:11Z</time>
      </trkpt>
      <trkpt lat="45.98934" lon="4.82313">
        <ele>234</ele>
        <time>2018-08-18T10:03:12Z</time>
      </trkpt>
      <trkpt lat="45.98931" lon="4.82309">
        <ele>234</ele>
        <time>2018-08-18T10:03:13Z</time>
      </trkpt>
      <trkpt lat="45.98927" lon="4.82304">
        <ele>234</ele>
        <time>2018-08-18T10:03:14Z</time>
      </trkpt>
      <trkpt lat="45.98924" lon="4.823">
        <ele>234</ele>
        <time>2018-08-18T10:03:15Z</time>
      </trkpt>
      <trkpt lat="45.98921" lon="4.82294">
        <ele>234</ele>
        <time>2018-08-18T10:03:16Z</time>
      </trkpt>
      <trkpt lat="45.98915" lon="4.82289">
        <ele>236</ele>
        <time>2018-08-18T10:03:17Z</time>
      </trkpt>
      <trkpt lat="45.9891" lon="4.82284">
        <ele>236</ele>
        <time>2018-08-18T10:03:18Z</time>
      </trkpt>
      <trkpt lat="45.98906" lon="4.82281">
        <ele>236</ele>
        <time>2018-08-18T10:03:19Z</time>
      </trkpt>
      <trkpt lat="45.98902" lon="4.82276">
        <ele>236</ele>
        <time>2018-08-18T10:03:20Z</time>
      </trkpt>
      <trkpt lat="45.98898" lon="4.82273">
        <ele>236</ele>
        <time>2018-08-18T10:03:21Z</time>
      </trkpt>
      <trkpt lat="45.98894" lon="4.82267">
        <ele>236</ele>
        <time>2018-08-18T10:03:22Z</time>
      </trkpt>
      <trkpt lat="45.9889" lon="4.82259">
        <ele>236</ele>
        <time>2018-08-18T10:03:23Z</time>
      </trkpt>
      <trkpt lat="45.98886" lon="4.8225">
        <ele>236</ele>
        <time>2018-08-18T10:03:24Z</time>
      </trkpt>
      <trkpt lat="45.98882" lon="4.82244">
        <ele>236</ele>
        <time>2018-08-18T10:03:25Z</time>
      </trkpt>
      <trkpt lat="45.98879" lon="4.82237">
        <ele>236</ele>
        <time>2018-08-18T10:03:26Z</time>
      </trkpt>
      <trkpt lat="45.98875" lon="4.8223">
        <ele>236</ele>
        <time>2018-08-18T10:03:27Z</time>
      </trkpt>
      <trkpt lat="45.98873" lon="4.82223">
        <ele>236</ele>
        <time>2018-08-18T10:03:28Z</time>
      </trkpt>
      <trkpt lat="45.9887" lon="4.82218">
        <ele>236</ele>
        <time>2018-08-18T10:03:29Z</time>
      </trkpt>
      <trkpt lat="45.98867" lon="4.82211">
        <ele>236</ele>
        <time>2018-08-18T10:03:30Z</time>
      </trkpt>
      <trkpt lat="45.98864" lon="4.82206">
        <ele>236</ele>
        <time>2018-08-18T10:03:31Z</time>
      </trkpt>
      <trkpt lat="45.98862" lon="4.82199">
        <ele>236</ele>
        <time>2018-08-18T10:03:32Z</time>
      </trkpt>
      <trkpt lat="45.9886" lon="4.82192">
        <ele>236</ele>
        <time>2018-08-18T10:03:33Z</time>
      </trkpt>
      <trkpt lat="45.98859" lon="4.82185">
        <ele>236</ele>
        <time>2018-08-18T10:03:34Z</time>
      </trkpt>
      <trkpt lat="45.98855" lon="4.82176">
        <ele>236</ele>
        <time>2018-08-18T10:03:35Z</time>
      </trkpt>
      <trkpt lat="45.98853" lon="4.82168">
        <ele>236</ele>
        <time>2018-08-18T10:03:36Z</time>
      </trkpt>
      <trkpt lat="45.9885" lon="4.8216">
        <ele>236</ele>
        <time>2018-08-18T10:03:37Z</time>
      </trkpt>
      <trkpt lat="45.98845" lon="4.82149">
        <ele>236</ele>
        <time>2018-08-18T10:03:38Z</time>
      </trkpt>
      <trkpt lat="45.98843" lon="4.8214">
        <ele>236</ele>
        <time>2018-08-18T10:03:39Z</time>
      </trkpt>
      <trkpt lat="45.98841" lon="4.82132">
        <ele>236</ele>
        <time>2018-08-18T10:03:40Z</time>
      </trkpt>
      <trkpt lat="45.98841" lon="4.82126">
        <ele>236</ele>
        <time>2018-08-18T10:03:41Z</time>
      </trkpt>
      <trkpt lat="45.98839" lon="4.82118">
        <ele>235</ele>
        <time>2018-08-18T10:03:42Z</time>
      </trkpt>
      <trkpt lat="45.98839" lon="4.82112">
        <ele>235</ele>
        <time>2018-08-18T10:03:43Z</time>
      </trkpt>
      <trkpt lat="45.98837" lon="4.82104">
        <ele>236</ele>
        <time>2018-08-18T10:03:44Z</time>
      </trkpt>
      <trkpt lat="45.98836" lon="4.82095">
        <ele>236</ele>
        <time>2018-08-18T10:03:45Z</time>
      </trkpt>
      <trkpt lat="45.98834" lon="4.82087">
        <ele>236</ele>
        <time>2018-08-18T10:03:46Z</time>
      </trkpt>
      <trkpt lat="45.98833" lon="4.82079">
        <ele>236</ele>
        <time>2018-08-18T10:03:47Z</time>
      </trkpt>
      <trkpt lat="45.98832" lon="4.82072">
        <ele>237</ele>
        <time>2018-08-18T10:03:48Z</time>
      </trkpt>
      <trkpt lat="45.98831" lon="4.82064">
        <ele>237</ele>
        <time>2018-08-18T10:03:49Z</time>
      </trkpt>
      <trkpt lat="45.98829" lon="4.82055">
        <ele>237</ele>
        <time>2018-08-18T10:03:50Z</time>
      </trkpt>
      <trkpt lat="45.98828" lon="4.82047">
        <ele>238</ele>
        <time>2018-08-18T10:03:51Z</time>
      </trkpt>
      <trkpt lat="45.98827" lon="4.82039">
        <ele>238</ele>
        <time>2018-08-18T10:03:52Z</time>
      </trkpt>
      <trkpt lat="45.98826" lon="4.82033">
        <ele>238</ele>
        <time>2018-08-18T10:03:53Z</time>
      </trkpt>
      <trkpt lat="45.98826" lon="4.82026">
        <ele>238</ele>
        <time>2018-08-18T10:03:54Z</time>
      </trkpt>
      <trkpt lat="45.98824" lon="4.82018">
        <ele>238</ele>
        <time>2018-08-18T10:03:55Z</time>
      </trkpt>
      <trkpt lat="45.98823" lon="4.8201">
        <ele>238</ele>
        <time>2018-08-18T10:03:56Z</time>
      </trkpt>
      <trkpt lat="45.98819" lon="4.82">
        <ele>238</ele>
        <time>2018-08-18T10:03:57Z</time>
      </trkpt>
      <trkpt lat="45.98818" lon="4.81992">
        <ele>238</ele>
        <time>2018-08-18T10:03:58Z</time>
      </trkpt>
      <trkpt lat="45.98815" lon="4.81984">
        <ele>238</ele>
        <time>2018-08-18T10:03:59Z</time>
      </trkpt>
      <trkpt lat="45.98815" lon="4.81977">
        <ele>239</ele>
        <time>2018-08-18T10:04:00Z</time>
      </trkpt>
      <trkpt lat="45.98814" lon="4.81968">
        <ele>239</ele>
        <time>2018-08-18T10:04:01Z</time>
      </trkpt>
      <trkpt lat="45.98811" lon="4.81959">
        <ele>239</ele>
        <time>2018-08-18T10:04:02Z</time>
      </trkpt>
      <trkpt lat="45.9881" lon="4.81947">
        <ele>239</ele>
        <time>2018-08-18T10:04:04Z</time>
      </trkpt>
      <trkpt lat="45.98811" lon="4.8194">
        <ele>239</ele>
        <time>2018-08-18T10:04:05Z</time>
      </trkpt>
      <trkpt lat="45.98809" lon="4.81934">
        <ele>239</ele>
        <time>2018-08-18T10:04:06Z</time>
      </trkpt>
      <trkpt lat="45.98808" lon="4.81925">
        <ele>239</ele>
        <time>2018-08-18T10:04:07Z</time>
      </trkpt>
      <trkpt lat="45.98807" lon="4.81917">
        <ele>239</ele>
        <time>2018-08-18T10:04:08Z</time>
      </trkpt>
      <trkpt lat="45.98806" lon="4.81909">
        <ele>239</ele>
        <time>2018-08-18T10:04:09Z</time>
      </trkpt>
      <trkpt lat="45.98804" lon="4.81903">
        <ele>239</ele>
        <time>2018-08-18T10:04:10Z</time>
      </trkpt>
      <trkpt lat="45.98803" lon="4.81895">
        <ele>239</ele>
        <time>2018-08-18T10:04:11Z</time>
      </trkpt>
      <trkpt lat="45.98802" lon="4.81887">
        <ele>239</ele>
        <time>2018-08-18T10:04:12Z</time>
      </trkpt>
      <trkpt lat="45.98799" lon="4.8188">
        <ele>239</ele>
        <time>2018-08-18T10:04:13Z</time>
      </trkpt>
      <trkpt lat="45.98796" lon="4.81871">
        <ele>239</ele>
        <time>2018-08-18T10:04:14Z</time>
      </trkpt>
      <trkpt lat="45.98793" lon="4.81863">
        <ele>239</ele>
        <time>2018-08-18T10:04:15Z</time>
      </trkpt>
      <trkpt lat="45.98791" lon="4.81852">
        <ele>239</ele>
        <time>2018-08-18T10:04:17Z</time>
      </trkpt>
      <trkpt lat="45.98789" lon="4.81848">
        <ele>239</ele>
        <time>2018-08-18T10:04:18Z</time>
      </trkpt>
      <trkpt lat="45.98788" lon="4.81842">
        <ele>239</ele>
        <time>2018-08-18T10:04:19Z</time>
      </trkpt>
      <trkpt lat="45.98783" lon="4.81835">
        <ele>239</ele>
        <time>2018-08-18T10:04:20Z</time>
      </trkpt>
      <trkpt lat="45.9878" lon="4.81828">
        <ele>240</ele>
        <time>2018-08-18T10:04:21Z</time>
      </trkpt>
      <trkpt lat="45.98778" lon="4.8182">
        <ele>240</ele>
        <time>2018-08-18T10:04:22Z</time>
      </trkpt>
      <trkpt lat="45.98775" lon="4.81814">
        <ele>240</ele>
        <time>2018-08-18T10:04:23Z</time>
      </trkpt>
      <trkpt lat="45.98771" lon="4.81806">
        <ele>240</ele>
        <time>2018-08-18T10:04:24Z</time>
      </trkpt>
      <trkpt lat="45.98767" lon="4.81798">
        <ele>240</ele>
        <time>2018-08-18T10:04:25Z</time>
      </trkpt>
      <trkpt lat="45.98762" lon="4.81792">
        <ele>241</ele>
        <time>2018-08-18T10:04:26Z</time>
      </trkpt>
      <trkpt lat="45.98758" lon="4.81783">
        <ele>241</ele>
        <time>2018-08-18T10:04:28Z</time>
      </trkpt>
      <trkpt lat="45.98756" lon="4.81779">
        <ele>241</ele>
        <time>2018-08-18T10:04:29Z</time>
      </trkpt>
      <trkpt lat="45.98753" lon="4.81771">
        <ele>241</ele>
        <time>2018-08-18T10:04:31Z</time>
      </trkpt>
      <trkpt lat="45.98751" lon="4.81767">
        <ele>241</ele>
        <time>2018-08-18T10:04:32Z</time>
      </trkpt>
      <trkpt lat="45.98749" lon="4.81757">
        <ele>241</ele>
        <time>2018-08-18T10:04:34Z</time>
      </trkpt>
      <trkpt lat="45.98746" lon="4.81749">
        <ele>241</ele>
        <time>2018-08-18T10:04:35Z</time>
      </trkpt>
      <trkpt lat="45.9874" lon="4.8174">
        <ele>240</ele>
        <time>2018-08-18T10:04:36Z</time>
      </trkpt>
      <trkpt lat="45.98737" lon="4.81735">
        <ele>240</ele>
        <time>2018-08-18T10:04:37Z</time>
      </trkpt>
      <trkpt lat="45.98732" lon="4.81727">
        <ele>239</ele>
        <time>2018-08-18T10:04:39Z</time>
      </trkpt>
      <trkpt lat="45.98728" lon="4.81726">
        <ele>239</ele>
        <time>2018-08-18T10:04:40Z</time>
      </trkpt>
      <trkpt lat="45.98723" lon="4.81723">
        <ele>239</ele>
        <time>2018-08-18T10:04:41Z</time>
      </trkpt>
      <trkpt lat="45.98717" lon="4.81719">
        <ele>239</ele>
        <time>2018-08-18T10:04:42Z</time>
      </trkpt>
      <trkpt lat="45.98712" lon="4.81719">
        <ele>239</ele>
        <time>2018-08-18T10:04:43Z</time>
      </trkpt>
      <trkpt lat="45.98707" lon="4.81722">
        <ele>239</ele>
        <time>2018-08-18T10:04:44Z</time>
      </trkpt>
      <trkpt lat="45.98702" lon="4.81721">
        <ele>239</ele>
        <time>2018-08-18T10:04:45Z</time>
      </trkpt>
      <trkpt lat="45.98696" lon="4.81722">
        <ele>238</ele>
        <time>2018-08-18T10:04:46Z</time>
      </trkpt>
      <trkpt lat="45.98688" lon="4.81727">
        <ele>238</ele>
        <time>2018-08-18T10:04:48Z</time>
      </trkpt>
      <trkpt lat="45.98683" lon="4.81729">
        <ele>238</ele>
        <time>2018-08-18T10:04:49Z</time>
      </trkpt>
      <trkpt lat="45.98678" lon="4.81735">
        <ele>238</ele>
        <time>2018-08-18T10:04:51Z</time>
      </trkpt>
      <trkpt lat="45.98675" lon="4.81739">
        <ele>238</ele>
        <time>2018-08-18T10:04:52Z</time>
      </trkpt>
      <trkpt lat="45.9867" lon="4.81742">
        <ele>238</ele>
        <time>2018-08-18T10:04:53Z</time>
      </trkpt>
      <trkpt lat="45.98665" lon="4.81743">
        <ele>238</ele>
        <time>2018-08-18T10:04:54Z</time>
      </trkpt>
      <trkpt lat="45.98661" lon="4.81745">
        <ele>238</ele>
        <time>2018-08-18T10:04:55Z</time>
      </trkpt>
      <trkpt lat="45.98655" lon="4.81745">
        <ele>237</ele>
        <time>2018-08-18T10:04:56Z</time>
      </trkpt>
      <trkpt lat="45.98649" lon="4.81745">
        <ele>237</ele>
        <time>2018-08-18T10:04:57Z</time>
      </trkpt>
      <trkpt lat="45.98643" lon="4.81746">
        <ele>237</ele>
        <time>2018-08-18T10:04:58Z</time>
      </trkpt>
      <trkpt lat="45.98637" lon="4.81747">
        <ele>237</ele>
        <time>2018-08-18T10:04:59Z</time>
      </trkpt>
      <trkpt lat="45.9863" lon="4.81747">
        <ele>237</ele>
        <time>2018-08-18T10:05:00Z</time>
      </trkpt>
      <trkpt lat="45.98625" lon="4.81749">
        <ele>237</ele>
        <time>2018-08-18T10:05:01Z</time>
      </trkpt>
      <trkpt lat="45.9862" lon="4.81753">
        <ele>238</ele>
        <time>2018-08-18T10:05:02Z</time>
      </trkpt>
      <trkpt lat="45.98615" lon="4.81756">
        <ele>238</ele>
        <time>2018-08-18T10:05:03Z</time>
      </trkpt>
      <trkpt lat="45.98608" lon="4.81757">
        <ele>238</ele>
        <time>2018-08-18T10:05:04Z</time>
      </trkpt>
      <trkpt lat="45.98602" lon="4.81758">
        <ele>238</ele>
        <time>2018-08-18T10:05:05Z</time>
      </trkpt>
      <trkpt lat="45.98595" lon="4.81762">
        <ele>237</ele>
        <time>2018-08-18T10:05:06Z</time>
      </trkpt>
      <trkpt lat="45.98586" lon="4.81766">
        <ele>237</ele>
        <time>2018-08-18T10:05:07Z</time>
      </trkpt>
      <trkpt lat="45.9858" lon="4.81769">
        <ele>237</ele>
        <time>2018-08-18T10:05:08Z</time>
      </trkpt>
      <trkpt lat="45.98575" lon="4.81774">
        <ele>237</ele>
        <time>2018-08-18T10:05:09Z</time>
      </trkpt>
      <trkpt lat="45.98571" lon="4.81781">
        <ele>238</ele>
        <time>2018-08-18T10:05:10Z</time>
      </trkpt>
      <trkpt lat="45.98567" lon="4.81787">
        <ele>238</ele>
        <time>2018-08-18T10:05:11Z</time>
      </trkpt>
      <trkpt lat="45.98564" lon="4.81793">
        <ele>238</ele>
        <time>2018-08-18T10:05:12Z</time>
      </trkpt>
      <trkpt lat="45.98559" lon="4.81796">
        <ele>238</ele>
        <time>2018-08-18T10:05:13Z</time>
      </trkpt>
      <trkpt lat="45.98554" lon="4.81799">
        <ele>238</ele>
        <time>2018-08-18T10:05:14Z</time>
      </trkpt>
      <trkpt lat="45.98549" lon="4.81802">
        <ele>238</ele>
        <time>2018-08-18T10:05:15Z</time>
      </trkpt>
      <trkpt lat="45.98544" lon="4.81803">
        <ele>238</ele>
        <time>2018-08-18T10:05:16Z</time>
      </trkpt>
      <trkpt lat="45.98539" lon="4.818">
        <ele>238</ele>
        <time>2018-08-18T10:05:17Z</time>
      </trkpt>
      <trkpt lat="45.98535" lon="4.81797">
        <ele>238</ele>
        <time>2018-08-18T10:05:18Z</time>
      </trkpt>
      <trkpt lat="45.9853" lon="4.81793">
        <ele>238</ele>
        <time>2018-08-18T10:05:19Z</time>
      </trkpt>
      <trkpt lat="45.98525" lon="4.81787">
        <ele>238</ele>
        <time>2018-08-18T10:05:20Z</time>
      </trkpt>
      <trkpt lat="45.98521" lon="4.81782">
        <ele>238</ele>
        <time>2018-08-18T10:05:21Z</time>
      </trkpt>
      <trkpt lat="45.98518" lon="4.81779">
        <ele>238</ele>
        <time>2018-08-18T10:05:22Z</time>
      </trkpt>
      <trkpt lat="45.98513" lon="4.81774">
        <ele>238</ele>
        <time>2018-08-18T10:05:23Z</time>
      </trkpt>
      <trkpt lat="45.98507" lon="4.81766">
        <ele>237</ele>
        <time>2018-08-18T10:05:25Z</time>
      </trkpt>
      <trkpt lat="45.98503" lon="4.8176">
        <ele>237</ele>
        <time>2018-08-18T10:05:26Z</time>
      </trkpt>
      <trkpt lat="45.985" lon="4.81756">
        <ele>238</ele>
        <time>2018-08-18T10:05:27Z</time>
      </trkpt>
      <trkpt lat="45.98496" lon="4.81752">
        <ele>238</ele>
        <time>2018-08-18T10:05:28Z</time>
      </trkpt>
      <trkpt lat="45.98491" lon="4.81743">
        <ele>238</ele>
        <time>2018-08-18T10:05:30Z</time>
      </trkpt>
      <trkpt lat="45.98488" lon="4.81739">
        <ele>238</ele>
        <time>2018-08-18T10:05:31Z</time>
      </trkpt>
      <trkpt lat="45.98482" lon="4.81735">
        <ele>238</ele>
        <time>2018-08-18T10:05:33Z</time>
      </trkpt>
      <trkpt lat="45.98479" lon="4.81732">
        <ele>238</ele>
        <time>2018-08-18T10:05:34Z</time>
      </trkpt>
      <trkpt lat="45.98473" lon="4.81729">
        <ele>239</ele>
        <time>2018-08-18T10:05:35Z</time>
      </trkpt>
      <trkpt lat="45.9847" lon="4.81725">
        <ele>239</ele>
        <time>2018-08-18T10:05:36Z</time>
      </trkpt>
      <trkpt lat="45.98465" lon="4.81719">
        <ele>239</ele>
        <time>2018-08-18T10:05:39Z</time>
      </trkpt>
      <trkpt lat="45.98463" lon="4.81717">
        <ele>239</ele>
        <time>2018-08-18T10:05:40Z</time>
      </trkpt>
      <trkpt lat="45.98458" lon="4.81708">
        <ele>239</ele>
        <time>2018-08-18T10:05:43Z</time>
      </trkpt>
      <trkpt lat="45.98457" lon="4.81704">
        <ele>239</ele>
        <time>2018-08-18T10:05:44Z</time>
      </trkpt>
      <trkpt lat="45.98452" lon="4.81693">
        <ele>239</ele>
        <time>2018-08-18T10:05:47Z</time>
      </trkpt>
      <trkpt lat="45.98451" lon="4.81689">
        <ele>239</ele>
        <time>2018-08-18T10:05:48Z</time>
      </trkpt>
      <trkpt lat="45.98445" lon="4.81678">
        <ele>239</ele>
        <time>2018-08-18T10:05:49Z</time>
      </trkpt>
      <trkpt lat="45.98438" lon="4.8167">
        <ele>240</ele>
        <time>2018-08-18T10:05:51Z</time>
      </trkpt>
      <trkpt lat="45.98435" lon="4.81667">
        <ele>240</ele>
        <time>2018-08-18T10:05:52Z</time>
      </trkpt>
      <trkpt lat="45.98431" lon="4.81664">
        <ele>239</ele>
        <time>2018-08-18T10:05:53Z</time>
      </trkpt>
      <trkpt lat="45.98425" lon="4.81664">
        <ele>240</ele>
        <time>2018-08-18T10:05:54Z</time>
      </trkpt>
      <trkpt lat="45.9842" lon="4.81664">
        <ele>240</ele>
        <time>2018-08-18T10:05:55Z</time>
      </trkpt>
      <trkpt lat="45.98415" lon="4.81663">
        <ele>241</ele>
        <time>2018-08-18T10:05:56Z</time>
      </trkpt>
      <trkpt lat="45.98412" lon="4.81662">
        <ele>241</ele>
        <time>2018-08-18T10:05:57Z</time>
      </trkpt>
      <trkpt lat="45.98406" lon="4.81667">
        <ele>242</ele>
        <time>2018-08-18T10:05:58Z</time>
      </trkpt>
      <trkpt lat="45.98401" lon="4.81668">
        <ele>242</ele>
        <time>2018-08-18T10:05:59Z</time>
      </trkpt>
      <trkpt lat="45.98396" lon="4.81669">
        <ele>243</ele>
        <time>2018-08-18T10:06:00Z</time>
      </trkpt>
      <trkpt lat="45.98387" lon="4.81671">
        <ele>243</ele>
        <time>2018-08-18T10:06:02Z</time>
      </trkpt>
      <trkpt lat="45.98381" lon="4.81672">
        <ele>244</ele>
        <time>2018-08-18T10:06:03Z</time>
      </trkpt>
      <trkpt lat="45.98372" lon="4.81674">
        <ele>244</ele>
        <time>2018-08-18T10:06:05Z</time>
      </trkpt>
      <trkpt lat="45.9837" lon="4.81679">
        <ele>244</ele>
        <time>2018-08-18T10:06:06Z</time>
      </trkpt>
      <trkpt lat="45.98362" lon="4.8168">
        <ele>244</ele>
        <time>2018-08-18T10:06:08Z</time>
      </trkpt>
      <trkpt lat="45.98357" lon="4.81678">
        <ele>245</ele>
        <time>2018-08-18T10:06:09Z</time>
      </trkpt>
      <trkpt lat="45.98352" lon="4.81675">
        <ele>245</ele>
        <time>2018-08-18T10:06:10Z</time>
      </trkpt>
      <trkpt lat="45.98346" lon="4.81675">
        <ele>245</ele>
        <time>2018-08-18T10:06:11Z</time>
      </trkpt>
      <trkpt lat="45.98342" lon="4.81675">
        <ele>245</ele>
        <time>2018-08-18T10:06:12Z</time>
      </trkpt>
      <trkpt lat="45.98337" lon="4.81673">
        <ele>245</ele>
        <time>2018-08-18T10:06:13Z</time>
      </trkpt>
      <trkpt lat="45.98332" lon="4.81671">
        <ele>246</ele>
        <time>2018-08-18T10:06:14Z</time>
      </trkpt>
      <trkpt lat="45.98326" lon="4.81669">
        <ele>246</ele>
        <time>2018-08-18T10:06:15Z</time>
      </trkpt>
      <trkpt lat="45.98321" lon="4.81667">
        <ele>247</ele>
        <time>2018-08-18T10:06:16Z</time>
      </trkpt>
      <trkpt lat="45.98318" lon="4.81662">
        <ele>246</ele>
        <time>2018-08-18T10:06:17Z</time>
      </trkpt>
      <trkpt lat="45.98312" lon="4.81656">
        <ele>246</ele>
        <time>2018-08-18T10:06:18Z</time>
      </trkpt>
      <trkpt lat="45.98308" lon="4.81653">
        <ele>246</ele>
        <time>2018-08-18T10:06:19Z</time>
      </trkpt>
      <trkpt lat="45.98304" lon="4.81648">
        <ele>246</ele>
        <time>2018-08-18T10:06:20Z</time>
      </trkpt>
      <trkpt lat="45.98299" lon="4.81645">
        <ele>247</ele>
        <time>2018-08-18T10:06:21Z</time>
      </trkpt>
      <trkpt lat="45.98293" lon="4.81639">
        <ele>247</ele>
        <time>2018-08-18T10:06:23Z</time>
      </trkpt>
      <trkpt lat="45.98289" lon="4.81635">
        <ele>247</ele>
        <time>2018-08-18T10:06:24Z</time>
      </trkpt>
      <trkpt lat="45.98283" lon="4.81627">
        <ele>247</ele>
        <time>2018-08-18T10:06:26Z</time>
      </trkpt>
      <trkpt lat="45.98278" lon="4.81621">
        <ele>247</ele>
        <time>2018-08-18T10:06:27Z</time>
      </trkpt>
      <trkpt lat="45.98275" lon="4.81616">
        <ele>247</ele>
        <time>2018-08-18T10:06:28Z</time>
      </trkpt>
      <trkpt lat="45.98272" lon="4.81609">
        <ele>247</ele>
        <time>2018-08-18T10:06:29Z</time>
      </trkpt>
      <trkpt lat="45.9827" lon="4.81601">
        <ele>247</ele>
        <time>2018-08-18T10:06:30Z</time>
      </trkpt>
      <trkpt lat="45.98266" lon="4.81594">
        <ele>247</ele>
        <time>2018-08-18T10:06:31Z</time>
      </trkpt>
      <trkpt lat="45.98265" lon="4.81588">
        <ele>247</ele>
        <time>2018-08-18T10:06:32Z</time>
      </trkpt>
      <trkpt lat="45.98263" lon="4.8158">
        <ele>247</ele>
        <time>2018-08-18T10:06:33Z</time>
      </trkpt>
      <trkpt lat="45.9826" lon="4.81573">
        <ele>247</ele>
        <time>2018-08-18T10:06:34Z</time>
      </trkpt>
      <trkpt lat="45.98258" lon="4.81567">
        <ele>247</ele>
        <time>2018-08-18T10:06:35Z</time>
      </trkpt>
      <trkpt lat="45.98256" lon="4.81559">
        <ele>247</ele>
        <time>2018-08-18T10:06:36Z</time>
      </trkpt>
      <trkpt lat="45.98256" lon="4.81552">
        <ele>247</ele>
        <time>2018-08-18T10:06:37Z</time>
      </trkpt>
      <trkpt lat="45.98254" lon="4.81545">
        <ele>247</ele>
        <time>2018-08-18T10:06:38Z</time>
      </trkpt>
      <trkpt lat="45.98251" lon="4.81538">
        <ele>247</ele>
        <time>2018-08-18T10:06:39Z</time>
      </trkpt>
      <trkpt lat="45.98249" lon="4.81532">
        <ele>249</ele>
        <time>2018-08-18T10:06:40Z</time>
      </trkpt>
      <trkpt lat="45.98247" lon="4.81525">
        <ele>249</ele>
        <time>2018-08-18T10:06:41Z</time>
      </trkpt>
      <trkpt lat="45.98244" lon="4.81514">
        <ele>249</ele>
        <time>2018-08-18T10:06:43Z</time>
      </trkpt>
      <trkpt lat="45.98242" lon="4.81507">
        <ele>249</ele>
        <time>2018-08-18T10:06:44Z</time>
      </trkpt>
      <trkpt lat="45.9824" lon="4.81501">
        <ele>249</ele>
        <time>2018-08-18T10:06:45Z</time>
      </trkpt>
      <trkpt lat="45.98238" lon="4.81494">
        <ele>249</ele>
        <time>2018-08-18T10:06:46Z</time>
      </trkpt>
      <trkpt lat="45.98236" lon="4.81482">
        <ele>249</ele>
        <time>2018-08-18T10:06:48Z</time>
      </trkpt>
      <trkpt lat="45.98234" lon="4.81476">
        <ele>249</ele>
        <time>2018-08-18T10:06:49Z</time>
      </trkpt>
      <trkpt lat="45.98231" lon="4.81464">
        <ele>249</ele>
        <time>2018-08-18T10:06:51Z</time>
      </trkpt>
      <trkpt lat="45.98229" lon="4.81457">
        <ele>249</ele>
        <time>2018-08-18T10:06:52Z</time>
      </trkpt>
      <trkpt lat="45.98227" lon="4.81452">
        <ele>249</ele>
        <time>2018-08-18T10:06:53Z</time>
      </trkpt>
      <trkpt lat="45.98226" lon="4.81445">
        <ele>249</ele>
        <time>2018-08-18T10:06:54Z</time>
      </trkpt>
      <trkpt lat="45.98223" lon="4.81439">
        <ele>249</ele>
        <time>2018-08-18T10:06:55Z</time>
      </trkpt>
      <trkpt lat="45.98221" lon="4.81433">
        <ele>249</ele>
        <time>2018-08-18T10:06:56Z</time>
      </trkpt>
      <trkpt lat="45.98217" lon="4.81424">
        <ele>249</ele>
        <time>2018-08-18T10:06:58Z</time>
      </trkpt>
      <trkpt lat="45.98216" lon="4.81419">
        <ele>249</ele>
        <time>2018-08-18T10:06:59Z</time>
      </trkpt>
      <trkpt lat="45.98214" lon="4.81412">
        <ele>248</ele>
        <time>2018-08-18T10:07:00Z</time>
      </trkpt>
      <trkpt lat="45.98213" lon="4.81407">
        <ele>248</ele>
        <time>2018-08-18T10:07:01Z</time>
      </trkpt>
      <trkpt lat="45.9821" lon="4.81401">
        <ele>248</ele>
        <time>2018-08-18T10:07:02Z</time>
      </trkpt>
      <trkpt lat="45.98208" lon="4.81395">
        <ele>248</ele>
        <time>2018-08-18T10:07:03Z</time>
      </trkpt>
      <trkpt lat="45.98205" lon="4.81385">
        <ele>248</ele>
        <time>2018-08-18T10:07:05Z</time>
      </trkpt>
      <trkpt lat="45.98201" lon="4.8138">
        <ele>248</ele>
        <time>2018-08-18T10:07:06Z</time>
      </trkpt>
      <trkpt lat="45.982" lon="4.81373">
        <ele>248</ele>
        <time>2018-08-18T10:07:07Z</time>
      </trkpt>
      <trkpt lat="45.982" lon="4.81367">
        <ele>248</ele>
        <time>2018-08-18T10:07:08Z</time>
      </trkpt>
      <trkpt lat="45.98199" lon="4.81355">
        <ele>248</ele>
        <time>2018-08-18T10:07:10Z</time>
      </trkpt>
      <trkpt lat="45.982" lon="4.8135">
        <ele>248</ele>
        <time>2018-08-18T10:07:11Z</time>
      </trkpt>
      <trkpt lat="45.98198" lon="4.81344">
        <ele>248</ele>
        <time>2018-08-18T10:07:12Z</time>
      </trkpt>
      <trkpt lat="45.98196" lon="4.81338">
        <ele>248</ele>
        <time>2018-08-18T10:07:13Z</time>
      </trkpt>
      <trkpt lat="45.98194" lon="4.81331">
        <ele>247</ele>
        <time>2018-08-18T10:07:14Z</time>
      </trkpt>
      <trkpt lat="45.98192" lon="4.81326">
        <ele>247</ele>
        <time>2018-08-18T10:07:15Z</time>
      </trkpt>
      <trkpt lat="45.9819" lon="4.8132">
        <ele>247</ele>
        <time>2018-08-18T10:07:16Z</time>
      </trkpt>
      <trkpt lat="45.9819" lon="4.81312">
        <ele>247</ele>
        <time>2018-08-18T10:07:17Z</time>
      </trkpt>
      <trkpt lat="45.98187" lon="4.81304">
        <ele>247</ele>
        <time>2018-08-18T10:07:18Z</time>
      </trkpt>
      <trkpt lat="45.98183" lon="4.81294">
        <ele>247</ele>
        <time>2018-08-18T10:07:19Z</time>
      </trkpt>
      <trkpt lat="45.98182" lon="4.81286">
        <ele>247</ele>
        <time>2018-08-18T10:07:20Z</time>
      </trkpt>
      <trkpt lat="45.9818" lon="4.81278">
        <ele>247</ele>
        <time>2018-08-18T10:07:21Z</time>
      </trkpt>
      <trkpt lat="45.98178" lon="4.81271">
        <ele>247</ele>
        <time>2018-08-18T10:07:22Z</time>
      </trkpt>
      <trkpt lat="45.98176" lon="4.81263">
        <ele>247</ele>
        <time>2018-08-18T10:07:23Z</time>
      </trkpt>
      <trkpt lat="45.98175" lon="4.81255">
        <ele>247</ele>
        <time>2018-08-18T10:07:24Z</time>
      </trkpt>
      <trkpt lat="45.98175" lon="4.81247">
        <ele>247</ele>
        <time>2018-08-18T10:07:25Z</time>
      </trkpt>
      <trkpt lat="45.98173" lon="4.8124">
        <ele>247</ele>
        <time>2018-08-18T10:07:26Z</time>
      </trkpt>
      <trkpt lat="45.98171" lon="4.81231">
        <ele>246</ele>
        <time>2018-08-18T10:07:27Z</time>
      </trkpt>
      <trkpt lat="45.98171" lon="4.81224">
        <ele>246</ele>
        <time>2018-08-18T10:07:28Z</time>
      </trkpt>
      <trkpt lat="45.98171" lon="4.81216">
        <ele>246</ele>
        <time>2018-08-18T10:07:29Z</time>
      </trkpt>
      <trkpt lat="45.98169" lon="4.81208">
        <ele>246</ele>
        <time>2018-08-18T10:07:30Z</time>
      </trkpt>
      <trkpt lat="45.98167" lon="4.81198">
        <ele>245</ele>
        <time>2018-08-18T10:07:31Z</time>
      </trkpt>
      <trkpt lat="45.98166" lon="4.81191">
        <ele>246</ele>
        <time>2018-08-18T10:07:32Z</time>
      </trkpt>
      <trkpt lat="45.98165" lon="4.81183">
        <ele>246</ele>
        <time>2018-08-18T10:07:33Z</time>
      </trkpt>
      <trkpt lat="45.98165" lon="4.81176">
        <ele>246</ele>
        <time>2018-08-18T10:07:34Z</time>
      </trkpt>
      <trkpt lat="45.98165" lon="4.81169">
        <ele>245</ele>
        <time>2018-08-18T10:07:35Z</time>
      </trkpt>
      <trkpt lat="45.98162" lon="4.81158">
        <ele>245</ele>
        <time>2018-08-18T10:07:36Z</time>
      </trkpt>
      <trkpt lat="45.98159" lon="4.81149">
        <ele>245</ele>
        <time>2018-08-18T10:07:37Z</time>
      </trkpt>
      <trkpt lat="45.98155" lon="4.81142">
        <ele>245</ele>
        <time>2018-08-18T10:07:38Z</time>
      </trkpt>
      <trkpt lat="45.98151" lon="4.81134">
        <ele>245</ele>
        <time>2018-08-18T10:07:39Z</time>
      </trkpt>
      <trkpt lat="45.98147" lon="4.81127">
        <ele>245</ele>
        <time>2018-08-18T10:07:40Z</time>
      </trkpt>
      <trkpt lat="45.98143" lon="4.8112">
        <ele>245</ele>
        <time>2018-08-18T10:07:41Z</time>
      </trkpt>
      <trkpt lat="45.9814" lon="4.81113">
        <ele>245</ele>
        <time>2018-08-18T10:07:42Z</time>
      </trkpt>
      <trkpt lat="45.98137" lon="4.81105">
        <ele>245</ele>
        <time>2018-08-18T10:07:43Z</time>
      </trkpt>
      <trkpt lat="45.98134" lon="4.81097">
        <ele>245</ele>
        <time>2018-08-18T10:07:44Z</time>
      </trkpt>
      <trkpt lat="45.98132" lon="4.81089">
        <ele>245</ele>
        <time>2018-08-18T10:07:45Z</time>
      </trkpt>
      <trkpt lat="45.98129" lon="4.81082">
        <ele>243</ele>
        <time>2018-08-18T10:07:46Z</time>
      </trkpt>
      <trkpt lat="45.98127" lon="4.81076">
        <ele>243</ele>
        <time>2018-08-18T10:07:47Z</time>
      </trkpt>
      <trkpt lat="45.98125" lon="4.81068">
        <ele>243</ele>
        <time>2018-08-18T10:07:48Z</time>
      </trkpt>
      <trkpt lat="45.98122" lon="4.8106">
        <ele>243</ele>
        <time>2018-08-18T10:07:49Z</time>
      </trkpt>
      <trkpt lat="45.9812" lon="4.81051">
        <ele>243</ele>
        <time>2018-08-18T10:07:50Z</time>
      </trkpt>
      <trkpt lat="45.98117" lon="4.81042">
        <ele>242</ele>
        <time>2018-08-18T10:07:51Z</time>
      </trkpt>
      <trkpt lat="45.98114" lon="4.81034">
        <ele>242</ele>
        <time>2018-08-18T10:07:52Z</time>
      </trkpt>
      <trkpt lat="45.98112" lon="4.81027">
        <ele>242</ele>
        <time>2018-08-18T10:07:53Z</time>
      </trkpt>
      <trkpt lat="45.98109" lon="4.8102">
        <ele>242</ele>
        <time>2018-08-18T10:07:54Z</time>
      </trkpt>
      <trkpt lat="45.98107" lon="4.81012">
        <ele>242</ele>
        <time>2018-08-18T10:07:55Z</time>
      </trkpt>
      <trkpt lat="45.98104" lon="4.81004">
        <ele>242</ele>
        <time>2018-08-18T10:07:56Z</time>
      </trkpt>
      <trkpt lat="45.98101" lon="4.80997">
        <ele>240</ele>
        <time>2018-08-18T10:07:57Z</time>
      </trkpt>
      <trkpt lat="45.981" lon="4.80986">
        <ele>239</ele>
        <time>2018-08-18T10:07:59Z</time>
      </trkpt>
      <trkpt lat="45.98099" lon="4.8098">
        <ele>239</ele>
        <time>2018-08-18T10:08:00Z</time>
      </trkpt>
      <trkpt lat="45.98096" lon="4.80974">
        <ele>239</ele>
        <time>2018-08-18T10:08:01Z</time>
      </trkpt>
      <trkpt lat="45.98093" lon="4.80968">
        <ele>239</ele>
        <time>2018-08-18T10:08:02Z</time>
      </trkpt>
      <trkpt lat="45.98091" lon="4.80962">
        <ele>239</ele>
        <time>2018-08-18T10:08:03Z</time>
      </trkpt>
      <trkpt lat="45.98087" lon="4.80954">
        <ele>238</ele>
        <time>2018-08-18T10:08:04Z</time>
      </trkpt>
      <trkpt lat="45.98084" lon="4.80946">
        <ele>238</ele>
        <time>2018-08-18T10:08:05Z</time>
      </trkpt>
      <trkpt lat="45.98081" lon="4.80935">
        <ele>240</ele>
        <time>2018-08-18T10:08:06Z</time>
      </trkpt>
      <trkpt lat="45.98078" lon="4.80926">
        <ele>240</ele>
        <time>2018-08-18T10:08:07Z</time>
      </trkpt>
      <trkpt lat="45.98077" lon="4.80916">
        <ele>239</ele>
        <time>2018-08-18T10:08:08Z</time>
      </trkpt>
      <trkpt lat="45.98074" lon="4.80904">
        <ele>238</ele>
        <time>2018-08-18T10:08:09Z</time>
      </trkpt>
      <trkpt lat="45.98074" lon="4.80895">
        <ele>238</ele>
        <time>2018-08-18T10:08:10Z</time>
      </trkpt>
      <trkpt lat="45.98072" lon="4.80881">
        <ele>237</ele>
        <time>2018-08-18T10:08:11Z</time>
      </trkpt>
      <trkpt lat="45.98069" lon="4.8087">
        <ele>237</ele>
        <time>2018-08-18T10:08:12Z</time>
      </trkpt>
      <trkpt lat="45.98067" lon="4.80859">
        <ele>236</ele>
        <time>2018-08-18T10:08:13Z</time>
      </trkpt>
      <trkpt lat="45.98065" lon="4.80845">
        <ele>236</ele>
        <time>2018-08-18T10:08:14Z</time>
      </trkpt>
      <trkpt lat="45.98062" lon="4.80834">
        <ele>236</ele>
        <time>2018-08-18T10:08:15Z</time>
      </trkpt>
      <trkpt lat="45.9806" lon="4.80823">
        <ele>234</ele>
        <time>2018-08-18T10:08:16Z</time>
      </trkpt>
      <trkpt lat="45.98057" lon="4.80813">
        <ele>234</ele>
        <time>2018-08-18T10:08:17Z</time>
      </trkpt>
      <trkpt lat="45.98057" lon="4.80803">
        <ele>234</ele>
        <time>2018-08-18T10:08:18Z</time>
      </trkpt>
      <trkpt lat="45.98053" lon="4.80792">
        <ele>233</ele>
        <time>2018-08-18T10:08:19Z</time>
      </trkpt>
      <trkpt lat="45.98051" lon="4.80782">
        <ele>233</ele>
        <time>2018-08-18T10:08:20Z</time>
      </trkpt>
      <trkpt lat="45.98048" lon="4.80774">
        <ele>233</ele>
        <time>2018-08-18T10:08:21Z</time>
      </trkpt>
      <trkpt lat="45.98046" lon="4.80763">
        <ele>233</ele>
        <time>2018-08-18T10:08:22Z</time>
      </trkpt>
      <trkpt lat="45.98044" lon="4.80754">
        <ele>233</ele>
        <time>2018-08-18T10:08:23Z</time>
      </trkpt>
      <trkpt lat="45.98042" lon="4.80744">
        <ele>231</ele>
        <time>2018-08-18T10:08:24Z</time>
      </trkpt>
      <trkpt lat="45.9804" lon="4.80737">
        <ele>231</ele>
        <time>2018-08-18T10:08:25Z</time>
      </trkpt>
      <trkpt lat="45.98036" lon="4.8073">
        <ele>231</ele>
        <time>2018-08-18T10:08:26Z</time>
      </trkpt>
      <trkpt lat="45.98034" lon="4.80719">
        <ele>231</ele>
        <time>2018-08-18T10:08:28Z</time>
      </trkpt>
      <trkpt lat="45.98033" lon="4.80716">
        <ele>231</ele>
        <time>2018-08-18T10:08:29Z</time>
      </trkpt>
      <trkpt lat="45.9803" lon="4.80706">
        <ele>231</ele>
        <time>2018-08-18T10:08:31Z</time>
      </trkpt>
      <trkpt lat="45.98031" lon="4.80703">
        <ele>231</ele>
        <time>2018-08-18T10:08:32Z</time>
      </trkpt>
      <trkpt lat="45.98038" lon="4.80698">
        <ele>230</ele>
        <time>2018-08-18T10:08:33Z</time>
      </trkpt>
      <trkpt lat="45.9804" lon="4.80696">
        <ele>230</ele>
        <time>2018-08-18T10:08:34Z</time>
      </trkpt>
      <trkpt lat="45.98049" lon="4.80696">
        <ele>230</ele>
        <time>2018-08-18T10:08:36Z</time>
      </trkpt>
      <trkpt lat="45.98054" lon="4.80693">
        <ele>230</ele>
        <time>2018-08-18T10:08:37Z</time>
      </trkpt>
      <trkpt lat="45.98063" lon="4.80692">
        <ele>230</ele>
        <time>2018-08-18T10:08:38Z</time>
      </trkpt>
      <trkpt lat="45.98069" lon="4.8069">
        <ele>230</ele>
        <time>2018-08-18T10:08:39Z</time>
      </trkpt>
      <trkpt lat="45.98075" lon="4.80691">
        <ele>230</ele>
        <time>2018-08-18T10:08:40Z</time>
      </trkpt>
      <trkpt lat="45.98081" lon="4.80691">
        <ele>230</ele>
        <time>2018-08-18T10:08:41Z</time>
      </trkpt>
      <trkpt lat="45.98088" lon="4.80691">
        <ele>228</ele>
        <time>2018-08-18T10:08:42Z</time>
      </trkpt>
      <trkpt lat="45.98094" lon="4.8069">
        <ele>228</ele>
        <time>2018-08-18T10:08:43Z</time>
      </trkpt>
      <trkpt lat="45.981" lon="4.80688">
        <ele>228</ele>
        <time>2018-08-18T10:08:44Z</time>
      </trkpt>
      <trkpt lat="45.98106" lon="4.80689">
        <ele>228</ele>
        <time>2018-08-18T10:08:45Z</time>
      </trkpt>
      <trkpt lat="45.98112" lon="4.80689">
        <ele>228</ele>
        <time>2018-08-18T10:08:46Z</time>
      </trkpt>
      <trkpt lat="45.98117" lon="4.80687">
        <ele>228</ele>
        <time>2018-08-18T10:08:47Z</time>
      </trkpt>
      <trkpt lat="45.98123" lon="4.80686">
        <ele>228</ele>
        <time>2018-08-18T10:08:48Z</time>
      </trkpt>
      <trkpt lat="45.9813" lon="4.80686">
        <ele>228</ele>
        <time>2018-08-18T10:08:49Z</time>
      </trkpt>
      <trkpt lat="45.98136" lon="4.80686">
        <ele>228</ele>
        <time>2018-08-18T10:08:50Z</time>
      </trkpt>
      <trkpt lat="45.98142" lon="4.80685">
        <ele>228</ele>
        <time>2018-08-18T10:08:51Z</time>
      </trkpt>
      <trkpt lat="45.98148" lon="4.80684">
        <ele>227</ele>
        <time>2018-08-18T10:08:52Z</time>
      </trkpt>
      <trkpt lat="45.98154" lon="4.80681">
        <ele>227</ele>
        <time>2018-08-18T10:08:53Z</time>
      </trkpt>
      <trkpt lat="45.9816" lon="4.80682">
        <ele>227</ele>
        <time>2018-08-18T10:08:54Z</time>
      </trkpt>
      <trkpt lat="45.98166" lon="4.80681">
        <ele>227</ele>
        <time>2018-08-18T10:08:55Z</time>
      </trkpt>
      <trkpt lat="45.98171" lon="4.80681">
        <ele>225</ele>
        <time>2018-08-18T10:08:56Z</time>
      </trkpt>
      <trkpt lat="45.98177" lon="4.80682">
        <ele>225</ele>
        <time>2018-08-18T10:08:57Z</time>
      </trkpt>
      <trkpt lat="45.98182" lon="4.8068">
        <ele>225</ele>
        <time>2018-08-18T10:08:58Z</time>
      </trkpt>
      <trkpt lat="45.98187" lon="4.80677">
        <ele>225</ele>
        <time>2018-08-18T10:08:59Z</time>
      </trkpt>
      <trkpt lat="45.98193" lon="4.80675">
        <ele>225</ele>
        <time>2018-08-18T10:09:00Z</time>
      </trkpt>
      <trkpt lat="45.98199" lon="4.80672">
        <ele>225</ele>
        <time>2018-08-18T10:09:01Z</time>
      </trkpt>
      <trkpt lat="45.98204" lon="4.8067">
        <ele>224</ele>
        <time>2018-08-18T10:09:02Z</time>
      </trkpt>
      <trkpt lat="45.98209" lon="4.80666">
        <ele>224</ele>
        <time>2018-08-18T10:09:03Z</time>
      </trkpt>
      <trkpt lat="45.98214" lon="4.80662">
        <ele>224</ele>
        <time>2018-08-18T10:09:04Z</time>
      </trkpt>
      <trkpt lat="45.98218" lon="4.80657">
        <ele>224</ele>
        <time>2018-08-18T10:09:05Z</time>
      </trkpt>
      <trkpt lat="45.98221" lon="4.80651">
        <ele>224</ele>
        <time>2018-08-18T10:09:06Z</time>
      </trkpt>
      <trkpt lat="45.98226" lon="4.80644">
        <ele>224</ele>
        <time>2018-08-18T10:09:07Z</time>
      </trkpt>
      <trkpt lat="45.98229" lon="4.80636">
        <ele>224</ele>
        <time>2018-08-18T10:09:08Z</time>
      </trkpt>
      <trkpt lat="45.98232" lon="4.80628">
        <ele>224</ele>
        <time>2018-08-18T10:09:09Z</time>
      </trkpt>
      <trkpt lat="45.98235" lon="4.80619">
        <ele>224</ele>
        <time>2018-08-18T10:09:10Z</time>
      </trkpt>
      <trkpt lat="45.98238" lon="4.80611">
        <ele>224</ele>
        <time>2018-08-18T10:09:11Z</time>
      </trkpt>
      <trkpt lat="45.98241" lon="4.806">
        <ele>224</ele>
        <time>2018-08-18T10:09:12Z</time>
      </trkpt>
      <trkpt lat="45.98244" lon="4.80591">
        <ele>224</ele>
        <time>2018-08-18T10:09:13Z</time>
      </trkpt>
      <trkpt lat="45.98246" lon="4.80582">
        <ele>224</ele>
        <time>2018-08-18T10:09:14Z</time>
      </trkpt>
      <trkpt lat="45.98249" lon="4.80575">
        <ele>224</ele>
        <time>2018-08-18T10:09:15Z</time>
      </trkpt>
      <trkpt lat="45.98252" lon="4.80567">
        <ele>224</ele>
        <time>2018-08-18T10:09:16Z</time>
      </trkpt>
      <trkpt lat="45.98255" lon="4.80559">
        <ele>224</ele>
        <time>2018-08-18T10:09:17Z</time>
      </trkpt>
      <trkpt lat="45.98257" lon="4.8055">
        <ele>224</ele>
        <time>2018-08-18T10:09:18Z</time>
      </trkpt>
      <trkpt lat="45.9826" lon="4.8054">
        <ele>224</ele>
        <time>2018-08-18T10:09:19Z</time>
      </trkpt>
      <trkpt lat="45.98263" lon="4.80532">
        <ele>224</ele>
        <time>2018-08-18T10:09:20Z</time>
      </trkpt>
      <trkpt lat="45.98264" lon="4.80526">
        <ele>224</ele>
        <time>2018-08-18T10:09:21Z</time>
      </trkpt>
      <trkpt lat="45.98267" lon="4.80518">
        <ele>223</ele>
        <time>2018-08-18T10:09:22Z</time>
      </trkpt>
      <trkpt lat="45.98269" lon="4.8051">
        <ele>223</ele>
        <time>2018-08-18T10:09:23Z</time>
      </trkpt>
      <trkpt lat="45.98271" lon="4.80503">
        <ele>223</ele>
        <time>2018-08-18T10:09:24Z</time>
      </trkpt>
      <trkpt lat="45.98273" lon="4.80497">
        <ele>223</ele>
        <time>2018-08-18T10:09:25Z</time>
      </trkpt>
      <trkpt lat="45.98275" lon="4.80489">
        <ele>223</ele>
        <time>2018-08-18T10:09:26Z</time>
      </trkpt>
      <trkpt lat="45.98277" lon="4.80484">
        <ele>223</ele>
        <time>2018-08-18T10:09:27Z</time>
      </trkpt>
      <trkpt lat="45.98278" lon="4.80477">
        <ele>223</ele>
        <time>2018-08-18T10:09:28Z</time>
      </trkpt>
      <trkpt lat="45.98281" lon="4.80469">
        <ele>223</ele>
        <time>2018-08-18T10:09:29Z</time>
      </trkpt>
      <trkpt lat="45.98282" lon="4.80459">
        <ele>223</ele>
        <time>2018-08-18T10:09:30Z</time>
      </trkpt>
      <trkpt lat="45.98284" lon="4.80453">
        <ele>223</ele>
        <time>2018-08-18T10:09:31Z</time>
      </trkpt>
      <trkpt lat="45.98285" lon="4.80445">
        <ele>224</ele>
        <time>2018-08-18T10:09:32Z</time>
      </trkpt>
      <trkpt lat="45.98287" lon="4.80439">
        <ele>224</ele>
        <time>2018-08-18T10:09:33Z</time>
      </trkpt>
      <trkpt lat="45.98288" lon="4.80431">
        <ele>224</ele>
        <time>2018-08-18T10:09:34Z</time>
      </trkpt>
      <trkpt lat="45.9829" lon="4.80424">
        <ele>224</ele>
        <time>2018-08-18T10:09:35Z</time>
      </trkpt>
      <trkpt lat="45.98293" lon="4.80417">
        <ele>224</ele>
        <time>2018-08-18T10:09:36Z</time>
      </trkpt>
      <trkpt lat="45.98295" lon="4.80411">
        <ele>224</ele>
        <time>2018-08-18T10:09:37Z</time>
      </trkpt>
      <trkpt lat="45.98296" lon="4.80405">
        <ele>224</ele>
        <time>2018-08-18T10:09:38Z</time>
      </trkpt>
      <trkpt lat="45.98297" lon="4.80397">
        <ele>225</ele>
        <time>2018-08-18T10:09:39Z</time>
      </trkpt>
      <trkpt lat="45.98301" lon="4.80391">
        <ele>225</ele>
        <time>2018-08-18T10:09:40Z</time>
      </trkpt>
      <trkpt lat="45.98302" lon="4.80384">
        <ele>225</ele>
        <time>2018-08-18T10:09:41Z</time>
      </trkpt>
      <trkpt lat="45.98303" lon="4.80377">
        <ele>225</ele>
        <time>2018-08-18T10:09:42Z</time>
      </trkpt>
      <trkpt lat="45.98304" lon="4.8037">
        <ele>225</ele>
        <time>2018-08-18T10:09:43Z</time>
      </trkpt>
      <trkpt lat="45.98305" lon="4.8036">
        <ele>225</ele>
        <time>2018-08-18T10:09:45Z</time>
      </trkpt>
      <trkpt lat="45.98307" lon="4.80353">
        <ele>226</ele>
        <time>2018-08-18T10:09:46Z</time>
      </trkpt>
      <trkpt lat="45.9831" lon="4.80342">
        <ele>226</ele>
        <time>2018-08-18T10:09:48Z</time>
      </trkpt>
      <trkpt lat="45.98312" lon="4.80337">
        <ele>226</ele>
        <time>2018-08-18T10:09:49Z</time>
      </trkpt>
      <trkpt lat="45.98313" lon="4.80329">
        <ele>227</ele>
        <time>2018-08-18T10:09:52Z</time>
      </trkpt>
      <trkpt lat="45.98314" lon="4.80317">
        <ele>227</ele>
        <time>2018-08-18T10:09:53Z</time>
      </trkpt>
      <trkpt lat="45.98316" lon="4.80305">
        <ele>226</ele>
        <time>2018-08-18T10:09:55Z</time>
      </trkpt>
      <trkpt lat="45.98317" lon="4.80298">
        <ele>226</ele>
        <time>2018-08-18T10:09:56Z</time>
      </trkpt>
      <trkpt lat="45.98321" lon="4.80288">
        <ele>227</ele>
        <time>2018-08-18T10:09:58Z</time>
      </trkpt>
      <trkpt lat="45.98322" lon="4.80283">
        <ele>227</ele>
        <time>2018-08-18T10:09:59Z</time>
      </trkpt>
      <trkpt lat="45.98324" lon="4.80275">
        <ele>227</ele>
        <time>2018-08-18T10:10:01Z</time>
      </trkpt>
      <trkpt lat="45.98325" lon="4.80266">
        <ele>228</ele>
        <time>2018-08-18T10:10:02Z</time>
      </trkpt>
      <trkpt lat="45.98327" lon="4.80255">
        <ele>229</ele>
        <time>2018-08-18T10:10:04Z</time>
      </trkpt>
      <trkpt lat="45.98327" lon="4.80249">
        <ele>229</ele>
        <time>2018-08-18T10:10:05Z</time>
      </trkpt>
      <trkpt lat="45.9833" lon="4.80239">
        <ele>229</ele>
        <time>2018-08-18T10:10:07Z</time>
      </trkpt>
      <trkpt lat="45.98331" lon="4.80236">
        <ele>228</ele>
        <time>2018-08-18T10:10:08Z</time>
      </trkpt>
      <trkpt lat="45.98331" lon="4.80233">
        <ele>228</ele>
        <time>2018-08-18T10:10:09Z</time>
      </trkpt>
      <trkpt lat="45.98332" lon="4.80223">
        <ele>228</ele>
        <time>2018-08-18T10:10:10Z</time>
      </trkpt>
      <trkpt lat="45.98331" lon="4.80212">
        <ele>227</ele>
        <time>2018-08-18T10:10:12Z</time>
      </trkpt>
      <trkpt lat="45.9833" lon="4.80206">
        <ele>227</ele>
        <time>2018-08-18T10:10:13Z</time>
      </trkpt>
      <trkpt lat="45.98326" lon="4.80194">
        <ele>227</ele>
        <time>2018-08-18T10:10:15Z</time>
      </trkpt>
      <trkpt lat="45.98324" lon="4.80189">
        <ele>227</ele>
        <time>2018-08-18T10:10:16Z</time>
      </trkpt>
      <trkpt lat="45.98322" lon="4.80183">
        <ele>227</ele>
        <time>2018-08-18T10:10:17Z</time>
      </trkpt>
      <trkpt lat="45.9832" lon="4.80177">
        <ele>227</ele>
        <time>2018-08-18T10:10:18Z</time>
      </trkpt>
      <trkpt lat="45.98317" lon="4.80171">
        <ele>227</ele>
        <time>2018-08-18T10:10:19Z</time>
      </trkpt>
      <trkpt lat="45.98315" lon="4.80166">
        <ele>228</ele>
        <time>2018-08-18T10:10:20Z</time>
      </trkpt>
      <trkpt lat="45.98312" lon="4.8016">
        <ele>228</ele>
        <time>2018-08-18T10:10:21Z</time>
      </trkpt>
      <trkpt lat="45.98309" lon="4.80152">
        <ele>228</ele>
        <time>2018-08-18T10:10:22Z</time>
      </trkpt>
      <trkpt lat="45.98307" lon="4.80146">
        <ele>228</ele>
        <time>2018-08-18T10:10:23Z</time>
      </trkpt>
      <trkpt lat="45.98305" lon="4.80139">
        <ele>228</ele>
        <time>2018-08-18T10:10:24Z</time>
      </trkpt>
      <trkpt lat="45.98301" lon="4.80132">
        <ele>228</ele>
        <time>2018-08-18T10:10:25Z</time>
      </trkpt>
      <trkpt lat="45.98298" lon="4.80125">
        <ele>228</ele>
        <time>2018-08-18T10:10:26Z</time>
      </trkpt>
      <trkpt lat="45.98296" lon="4.80118">
        <ele>228</ele>
        <time>2018-08-18T10:10:27Z</time>
      </trkpt>
      <trkpt lat="45.98295" lon="4.80111">
        <ele>228</ele>
        <time>2018-08-18T10:10:28Z</time>
      </trkpt>
      <trkpt lat="45.98293" lon="4.80105">
        <ele>228</ele>
        <time>2018-08-18T10:10:29Z</time>
      </trkpt>
      <trkpt lat="45.98289" lon="4.801">
        <ele>228</ele>
        <time>2018-08-18T10:10:30Z</time>
      </trkpt>
      <trkpt lat="45.98286" lon="4.80088">
        <ele>228</ele>
        <time>2018-08-18T10:10:32Z</time>
      </trkpt>
      <trkpt lat="45.98282" lon="4.80082">
        <ele>229</ele>
        <time>2018-08-18T10:10:33Z</time>
      </trkpt>
      <trkpt lat="45.9828" lon="4.80076">
        <ele>229</ele>
        <time>2018-08-18T10:10:34Z</time>
      </trkpt>
      <trkpt lat="45.98277" lon="4.80069">
        <ele>229</ele>
        <time>2018-08-18T10:10:35Z</time>
      </trkpt>
      <trkpt lat="45.98275" lon="4.80063">
        <ele>229</ele>
        <time>2018-08-18T10:10:36Z</time>
      </trkpt>
      <trkpt lat="45.98272" lon="4.80057">
        <ele>229</ele>
        <time>2018-08-18T10:10:37Z</time>
      </trkpt>
      <trkpt lat="45.9827" lon="4.80045">
        <ele>229</ele>
        <time>2018-08-18T10:10:39Z</time>
      </trkpt>
      <trkpt lat="45.98268" lon="4.80039">
        <ele>229</ele>
        <time>2018-08-18T10:10:40Z</time>
      </trkpt>
      <trkpt lat="45.98265" lon="4.80031">
        <ele>228</ele>
        <time>2018-08-18T10:10:41Z</time>
      </trkpt>
      <trkpt lat="45.98262" lon="4.80025">
        <ele>228</ele>
        <time>2018-08-18T10:10:42Z</time>
      </trkpt>
      <trkpt lat="45.9826" lon="4.80017">
        <ele>228</ele>
        <time>2018-08-18T10:10:43Z</time>
      </trkpt>
      <trkpt lat="45.98259" lon="4.80012">
        <ele>228</ele>
        <time>2018-08-18T10:10:44Z</time>
      </trkpt>
      <trkpt lat="45.98256" lon="4.80006">
        <ele>227</ele>
        <time>2018-08-18T10:10:45Z</time>
      </trkpt>
      <trkpt lat="45.98253" lon="4.8">
        <ele>226</ele>
        <time>2018-08-18T10:10:46Z</time>
      </trkpt>
      <trkpt lat="45.9825" lon="4.79989">
        <ele>227</ele>
        <time>2018-08-18T10:10:48Z</time>
      </trkpt>
      <trkpt lat="45.98248" lon="4.79982">
        <ele>225</ele>
        <time>2018-08-18T10:10:49Z</time>
      </trkpt>
      <trkpt lat="45.98245" lon="4.79975">
        <ele>225</ele>
        <time>2018-08-18T10:10:50Z</time>
      </trkpt>
      <trkpt lat="45.98243" lon="4.79969">
        <ele>225</ele>
        <time>2018-08-18T10:10:51Z</time>
      </trkpt>
      <trkpt lat="45.98241" lon="4.79959">
        <ele>225</ele>
        <time>2018-08-18T10:10:53Z</time>
      </trkpt>
      <trkpt lat="45.98239" lon="4.79954">
        <ele>225</ele>
        <time>2018-08-18T10:10:54Z</time>
      </trkpt>
      <trkpt lat="45.98232" lon="4.79947">
        <ele>225</ele>
        <time>2018-08-18T10:10:55Z</time>
      </trkpt>
      <trkpt lat="45.9823" lon="4.7994">
        <ele>225</ele>
        <time>2018-08-18T10:10:56Z</time>
      </trkpt>
      <trkpt lat="45.98227" lon="4.79932">
        <ele>225</ele>
        <time>2018-08-18T10:10:57Z</time>
      </trkpt>
      <trkpt lat="45.98224" lon="4.79925">
        <ele>225</ele>
        <time>2018-08-18T10:10:58Z</time>
      </trkpt>
      <trkpt lat="45.98222" lon="4.79919">
        <ele>225</ele>
        <time>2018-08-18T10:10:59Z</time>
      </trkpt>
      <trkpt lat="45.98221" lon="4.79912">
        <ele>225</ele>
        <time>2018-08-18T10:11:00Z</time>
      </trkpt>
      <trkpt lat="45.98218" lon="4.79901">
        <ele>225</ele>
        <time>2018-08-18T10:11:02Z</time>
      </trkpt>
      <trkpt lat="45.98216" lon="4.79896">
        <ele>225</ele>
        <time>2018-08-18T10:11:03Z</time>
      </trkpt>
      <trkpt lat="45.98213" lon="4.79884">
        <ele>225</ele>
        <time>2018-08-18T10:11:05Z</time>
      </trkpt>
      <trkpt lat="45.9821" lon="4.79878">
        <ele>225</ele>
        <time>2018-08-18T10:11:06Z</time>
      </trkpt>
      <trkpt lat="45.9821" lon="4.79869">
        <ele>225</ele>
        <time>2018-08-18T10:11:07Z</time>
      </trkpt>
      <trkpt lat="45.98208" lon="4.79862">
        <ele>225</ele>
        <time>2018-08-18T10:11:08Z</time>
      </trkpt>
      <trkpt lat="45.98203" lon="4.79853">
        <ele>225</ele>
        <time>2018-08-18T10:11:10Z</time>
      </trkpt>
      <trkpt lat="45.98201" lon="4.79847">
        <ele>225</ele>
        <time>2018-08-18T10:11:11Z</time>
      </trkpt>
      <trkpt lat="45.98199" lon="4.79842">
        <ele>225</ele>
        <time>2018-08-18T10:11:12Z</time>
      </trkpt>
      <trkpt lat="45.98197" lon="4.79834">
        <ele>225</ele>
        <time>2018-08-18T10:11:13Z</time>
      </trkpt>
      <trkpt lat="45.98195" lon="4.79827">
        <ele>225</ele>
        <time>2018-08-18T10:11:14Z</time>
      </trkpt>
      <trkpt lat="45.98192" lon="4.79822">
        <ele>225</ele>
        <time>2018-08-18T10:11:15Z</time>
      </trkpt>
      <trkpt lat="45.98188" lon="4.79817">
        <ele>225</ele>
        <time>2018-08-18T10:11:17Z</time>
      </trkpt>
      <trkpt lat="45.98187" lon="4.79811">
        <ele>225</ele>
        <time>2018-08-18T10:11:18Z</time>
      </trkpt>
      <trkpt lat="45.98187" lon="4.79799">
        <ele>226</ele>
        <time>2018-08-18T10:11:22Z</time>
      </trkpt>
      <trkpt lat="45.98186" lon="4.79796">
        <ele>226</ele>
        <time>2018-08-18T10:11:23Z</time>
      </trkpt>
      <trkpt lat="45.98187" lon="4.79784">
        <ele>226</ele>
        <time>2018-08-18T10:11:26Z</time>
      </trkpt>
      <trkpt lat="45.98187" lon="4.79779">
        <ele>226</ele>
        <time>2018-08-18T10:11:27Z</time>
      </trkpt>
      <trkpt lat="45.98189" lon="4.7977">
        <ele>226</ele>
        <time>2018-08-18T10:11:29Z</time>
      </trkpt>
      <trkpt lat="45.9819" lon="4.79766">
        <ele>226</ele>
        <time>2018-08-18T10:11:30Z</time>
      </trkpt>
      <trkpt lat="45.98195" lon="4.79757">
        <ele>226</ele>
        <time>2018-08-18T10:11:33Z</time>
      </trkpt>
      <trkpt lat="45.98197" lon="4.79755">
        <ele>226</ele>
        <time>2018-08-18T10:11:34Z</time>
      </trkpt>
      <trkpt lat="45.98203" lon="4.79752">
        <ele>226</ele>
        <time>2018-08-18T10:11:36Z</time>
      </trkpt>
      <trkpt lat="45.98206" lon="4.79751">
        <ele>226</ele>
        <time>2018-08-18T10:11:37Z</time>
      </trkpt>
      <trkpt lat="45.98212" lon="4.79749">
        <ele>228</ele>
        <time>2018-08-18T10:11:39Z</time>
      </trkpt>
      <trkpt lat="45.98215" lon="4.79748">
        <ele>228</ele>
        <time>2018-08-18T10:11:40Z</time>
      </trkpt>
      <trkpt lat="45.98221" lon="4.79746">
        <ele>228</ele>
        <time>2018-08-18T10:11:42Z</time>
      </trkpt>
      <trkpt lat="45.98224" lon="4.79746">
        <ele>228</ele>
        <time>2018-08-18T10:11:43Z</time>
      </trkpt>
      <trkpt lat="45.9823" lon="4.79744">
        <ele>228</ele>
        <time>2018-08-18T10:11:45Z</time>
      </trkpt>
      <trkpt lat="45.98233" lon="4.79743">
        <ele>228</ele>
        <time>2018-08-18T10:11:46Z</time>
      </trkpt>
      <trkpt lat="45.98241" lon="4.79741">
        <ele>228</ele>
        <time>2018-08-18T10:11:49Z</time>
      </trkpt>
      <trkpt lat="45.98245" lon="4.7974">
        <ele>228</ele>
        <time>2018-08-18T10:11:50Z</time>
      </trkpt>
      <trkpt lat="45.98253" lon="4.79739">
        <ele>231</ele>
        <time>2018-08-18T10:11:53Z</time>
      </trkpt>
      <trkpt lat="45.98256" lon="4.79738">
        <ele>231</ele>
        <time>2018-08-18T10:11:54Z</time>
      </trkpt>
      <trkpt lat="45.98262" lon="4.79737">
        <ele>232</ele>
        <time>2018-08-18T10:11:56Z</time>
      </trkpt>
      <trkpt lat="45.98265" lon="4.79736">
        <ele>232</ele>
        <time>2018-08-18T10:11:57Z</time>
      </trkpt>
      <trkpt lat="45.98274" lon="4.79732">
        <ele>233</ele>
        <time>2018-08-18T10:12:00Z</time>
      </trkpt>
      <trkpt lat="45.98277" lon="4.79731">
        <ele>233</ele>
        <time>2018-08-18T10:12:01Z</time>
      </trkpt>
      <trkpt lat="45.98285" lon="4.79728">
        <ele>234</ele>
        <time>2018-08-18T10:12:04Z</time>
      </trkpt>
      <trkpt lat="45.98288" lon="4.79727">
        <ele>234</ele>
        <time>2018-08-18T10:12:05Z</time>
      </trkpt>
      <trkpt lat="45.98296" lon="4.79726">
        <ele>235</ele>
        <time>2018-08-18T10:12:08Z</time>
      </trkpt>
      <trkpt lat="45.98299" lon="4.79725">
        <ele>235</ele>
        <time>2018-08-18T10:12:09Z</time>
      </trkpt>
      <trkpt lat="45.98307" lon="4.79723">
        <ele>236</ele>
        <time>2018-08-18T10:12:12Z</time>
      </trkpt>
      <trkpt lat="45.98309" lon="4.79722">
        <ele>236</ele>
        <time>2018-08-18T10:12:13Z</time>
      </trkpt>
      <trkpt lat="45.98316" lon="4.7972">
        <ele>236</ele>
        <time>2018-08-18T10:12:16Z</time>
      </trkpt>
      <trkpt lat="45.9832" lon="4.7972">
        <ele>236</ele>
        <time>2018-08-18T10:12:17Z</time>
      </trkpt>
      <trkpt lat="45.98326" lon="4.79721">
        <ele>236</ele>
        <time>2018-08-18T10:12:19Z</time>
      </trkpt>
      <trkpt lat="45.98329" lon="4.79721">
        <ele>236</ele>
        <time>2018-08-18T10:12:20Z</time>
      </trkpt>
      <trkpt lat="45.98338" lon="4.7972">
        <ele>240</ele>
        <time>2018-08-18T10:12:23Z</time>
      </trkpt>
      <trkpt lat="45.9834" lon="4.7972">
        <ele>240</ele>
        <time>2018-08-18T10:12:24Z</time>
      </trkpt>
      <trkpt lat="45.98348" lon="4.79718">
        <ele>240</ele>
        <time>2018-08-18T10:12:27Z</time>
      </trkpt>
      <trkpt lat="45.98351" lon="4.79717">
        <ele>240</ele>
        <time>2018-08-18T10:12:28Z</time>
      </trkpt>
      <trkpt lat="45.9836" lon="4.79716">
        <ele>241</ele>
        <time>2018-08-18T10:12:31Z</time>
      </trkpt>
      <trkpt lat="45.98363" lon="4.79715">
        <ele>241</ele>
        <time>2018-08-18T10:12:32Z</time>
      </trkpt>
      <trkpt lat="45.98371" lon="4.79713">
        <ele>241</ele>
        <time>2018-08-18T10:12:35Z</time>
      </trkpt>
      <trkpt lat="45.98373" lon="4.79713">
        <ele>241</ele>
        <time>2018-08-18T10:12:36Z</time>
      </trkpt>
      <trkpt lat="45.98381" lon="4.79711">
        <ele>241</ele>
        <time>2018-08-18T10:12:39Z</time>
      </trkpt>
      <trkpt lat="45.98384" lon="4.79711">
        <ele>241</ele>
        <time>2018-08-18T10:12:40Z</time>
      </trkpt>
      <trkpt lat="45.98392" lon="4.79708">
        <ele>241</ele>
        <time>2018-08-18T10:12:43Z</time>
      </trkpt>
      <trkpt lat="45.98395" lon="4.79708">
        <ele>241</ele>
        <time>2018-08-18T10:12:44Z</time>
      </trkpt>
      <trkpt lat="45.98403" lon="4.79707">
        <ele>241</ele>
        <time>2018-08-18T10:12:47Z</time>
      </trkpt>
      <trkpt lat="45.98406" lon="4.79707">
        <ele>241</ele>
        <time>2018-08-18T10:12:48Z</time>
      </trkpt>
      <trkpt lat="45.98415" lon="4.79707">
        <ele>241</ele>
        <time>2018-08-18T10:12:51Z</time>
      </trkpt>
      <trkpt lat="45.98418" lon="4.79707">
        <ele>242</ele>
        <time>2018-08-18T10:12:52Z</time>
      </trkpt>
      <trkpt lat="45.98424" lon="4.79708">
        <ele>243</ele>
        <time>2018-08-18T10:12:54Z</time>
      </trkpt>
      <trkpt lat="45.98427" lon="4.79708">
        <ele>243</ele>
        <time>2018-08-18T10:12:55Z</time>
      </trkpt>
      <trkpt lat="45.98436" lon="4.79707">
        <ele>243</ele>
        <time>2018-08-18T10:12:58Z</time>
      </trkpt>
      <trkpt lat="45.98438" lon="4.79708">
        <ele>243</ele>
        <time>2018-08-18T10:12:59Z</time>
      </trkpt>
      <trkpt lat="45.98447" lon="4.79707">
        <ele>243</ele>
        <time>2018-08-18T10:13:02Z</time>
      </trkpt>
      <trkpt lat="45.9845" lon="4.79707">
        <ele>243</ele>
        <time>2018-08-18T10:13:03Z</time>
      </trkpt>
      <trkpt lat="45.98456" lon="4.79706">
        <ele>243</ele>
        <time>2018-08-18T10:13:05Z</time>
      </trkpt>
      <trkpt lat="45.98459" lon="4.79707">
        <ele>243</ele>
        <time>2018-08-18T10:13:06Z</time>
      </trkpt>
      <trkpt lat="45.98465" lon="4.79707">
        <ele>243</ele>
        <time>2018-08-18T10:13:08Z</time>
      </trkpt>
      <trkpt lat="45.98468" lon="4.79707">
        <ele>243</ele>
        <time>2018-08-18T10:13:09Z</time>
      </trkpt>
      <trkpt lat="45.98477" lon="4.79707">
        <ele>243</ele>
        <time>2018-08-18T10:13:12Z</time>
      </trkpt>
      <trkpt lat="45.9848" lon="4.79707">
        <ele>243</ele>
        <time>2018-08-18T10:13:13Z</time>
      </trkpt>
      <trkpt lat="45.98489" lon="4.79708">
        <ele>243</ele>
        <time>2018-08-18T10:13:16Z</time>
      </trkpt>
      <trkpt lat="45.98492" lon="4.79708">
        <ele>243</ele>
        <time>2018-08-18T10:13:17Z</time>
      </trkpt>
      <trkpt lat="45.985" lon="4.79709">
        <ele>244</ele>
        <time>2018-08-18T10:13:20Z</time>
      </trkpt>
      <trkpt lat="45.98503" lon="4.79709">
        <ele>244</ele>
        <time>2018-08-18T10:13:21Z</time>
      </trkpt>
      <trkpt lat="45.98507" lon="4.7971">
        <ele>244</ele>
        <time>2018-08-18T10:13:22Z</time>
      </trkpt>
      <trkpt lat="45.98518" lon="4.79708">
        <ele>244</ele>
        <time>2018-08-18T10:13:23Z</time>
      </trkpt>
      <trkpt lat="45.98526" lon="4.79709">
        <ele>244</ele>
        <time>2018-08-18T10:13:28Z</time>
      </trkpt>
      <trkpt lat="45.98528" lon="4.79709">
        <ele>244</ele>
        <time>2018-08-18T10:13:29Z</time>
      </trkpt>
      <trkpt lat="45.98535" lon="4.79707">
        <ele>244</ele>
        <time>2018-08-18T10:13:32Z</time>
      </trkpt>
      <trkpt lat="45.98538" lon="4.79705">
        <ele>244</ele>
        <time>2018-08-18T10:13:33Z</time>
      </trkpt>
      <trkpt lat="45.98544" lon="4.797">
        <ele>244</ele>
        <time>2018-08-18T10:13:35Z</time>
      </trkpt>
      <trkpt lat="45.98547" lon="4.79698">
        <ele>244</ele>
        <time>2018-08-18T10:13:36Z</time>
      </trkpt>
      <trkpt lat="45.98555" lon="4.79693">
        <ele>244</ele>
        <time>2018-08-18T10:13:39Z</time>
      </trkpt>
      <trkpt lat="45.98557" lon="4.7969">
        <ele>244</ele>
        <time>2018-08-18T10:13:40Z</time>
      </trkpt>
      <trkpt lat="45.98564" lon="4.79684">
        <ele>244</ele>
        <time>2018-08-18T10:13:43Z</time>
      </trkpt>
      <trkpt lat="45.98566" lon="4.79682">
        <ele>244</ele>
        <time>2018-08-18T10:13:44Z</time>
      </trkpt>
      <trkpt lat="45.98573" lon="4.79674">
        <ele>245</ele>
        <time>2018-08-18T10:13:47Z</time>
      </trkpt>
      <trkpt lat="45.98575" lon="4.79672">
        <ele>245</ele>
        <time>2018-08-18T10:13:48Z</time>
      </trkpt>
      <trkpt lat="45.98581" lon="4.79662">
        <ele>245</ele>
        <time>2018-08-18T10:13:51Z</time>
      </trkpt>
      <trkpt lat="45.98582" lon="4.79658">
        <ele>245</ele>
        <time>2018-08-18T10:13:52Z</time>
      </trkpt>
      <trkpt lat="45.98586" lon="4.79647">
        <ele>245</ele>
        <time>2018-08-18T10:13:55Z</time>
      </trkpt>
      <trkpt lat="45.98587" lon="4.79644">
        <ele>245</ele>
        <time>2018-08-18T10:13:56Z</time>
      </trkpt>
      <trkpt lat="45.98592" lon="4.79634">
        <ele>245</ele>
        <time>2018-08-18T10:13:59Z</time>
      </trkpt>
      <trkpt lat="45.98594" lon="4.79632">
        <ele>245</ele>
        <time>2018-08-18T10:14:00Z</time>
      </trkpt>
      <trkpt lat="45.98601" lon="4.79624">
        <ele>245</ele>
        <time>2018-08-18T10:14:03Z</time>
      </trkpt>
      <trkpt lat="45.98604" lon="4.79622">
        <ele>245</ele>
        <time>2018-08-18T10:14:04Z</time>
      </trkpt>
      <trkpt lat="45.98609" lon="4.79619">
        <ele>245</ele>
        <time>2018-08-18T10:14:06Z</time>
      </trkpt>
      <trkpt lat="45.98612" lon="4.79618">
        <ele>245</ele>
        <time>2018-08-18T10:14:07Z</time>
      </trkpt>
      <trkpt lat="45.98621" lon="4.79613">
        <ele>245</ele>
        <time>2018-08-18T10:14:08Z</time>
      </trkpt>
      <trkpt lat="45.98627" lon="4.79605">
        <ele>245</ele>
        <time>2018-08-18T10:14:10Z</time>
      </trkpt>
      <trkpt lat="45.98629" lon="4.79601">
        <ele>245</ele>
        <time>2018-08-18T10:14:11Z</time>
      </trkpt>
      <trkpt lat="45.9863" lon="4.79591">
        <ele>245</ele>
        <time>2018-08-18T10:14:13Z</time>
      </trkpt>
      <trkpt lat="45.98629" lon="4.79586">
        <ele>245</ele>
        <time>2018-08-18T10:14:14Z</time>
      </trkpt>
      <trkpt lat="45.98621" lon="4.79581">
        <ele>245</ele>
        <time>2018-08-18T10:14:16Z</time>
      </trkpt>
      <trkpt lat="45.98617" lon="4.79578">
        <ele>245</ele>
        <time>2018-08-18T10:14:17Z</time>
      </trkpt>
      <trkpt lat="45.98612" lon="4.79576">
        <ele>245</ele>
        <time>2018-08-18T10:14:18Z</time>
      </trkpt>
      <trkpt lat="45.98607" lon="4.79576">
        <ele>245</ele>
        <time>2018-08-18T10:14:19Z</time>
      </trkpt>
      <trkpt lat="45.98602" lon="4.79578">
        <ele>245</ele>
        <time>2018-08-18T10:14:20Z</time>
      </trkpt>
      <trkpt lat="45.98598" lon="4.79581">
        <ele>245</ele>
        <time>2018-08-18T10:14:21Z</time>
      </trkpt>
      <trkpt lat="45.98589" lon="4.79579">
        <ele>245</ele>
        <time>2018-08-18T10:14:23Z</time>
      </trkpt>
      <trkpt lat="45.98583" lon="4.79578">
        <ele>245</ele>
        <time>2018-08-18T10:14:24Z</time>
      </trkpt>
      <trkpt lat="45.98578" lon="4.79576">
        <ele>245</ele>
        <time>2018-08-18T10:14:25Z</time>
      </trkpt>
      <trkpt lat="45.98572" lon="4.79574">
        <ele>245</ele>
        <time>2018-08-18T10:14:26Z</time>
      </trkpt>
      <trkpt lat="45.98568" lon="4.79569">
        <ele>244</ele>
        <time>2018-08-18T10:14:27Z</time>
      </trkpt>
      <trkpt lat="45.98563" lon="4.79565">
        <ele>244</ele>
        <time>2018-08-18T10:14:28Z</time>
      </trkpt>
      <trkpt lat="45.98559" lon="4.79561">
        <ele>244</ele>
        <time>2018-08-18T10:14:29Z</time>
      </trkpt>
      <trkpt lat="45.98554" lon="4.79556">
        <ele>244</ele>
        <time>2018-08-18T10:14:30Z</time>
      </trkpt>
      <trkpt lat="45.9855" lon="4.7955">
        <ele>244</ele>
        <time>2018-08-18T10:14:31Z</time>
      </trkpt>
      <trkpt lat="45.98546" lon="4.79544">
        <ele>244</ele>
        <time>2018-08-18T10:14:32Z</time>
      </trkpt>
      <trkpt lat="45.98543" lon="4.79538">
        <ele>244</ele>
        <time>2018-08-18T10:14:33Z</time>
      </trkpt>
      <trkpt lat="45.9854" lon="4.79532">
        <ele>244</ele>
        <time>2018-08-18T10:14:34Z</time>
      </trkpt>
      <trkpt lat="45.98536" lon="4.79526">
        <ele>244</ele>
        <time>2018-08-18T10:14:35Z</time>
      </trkpt>
      <trkpt lat="45.98534" lon="4.79519">
        <ele>244</ele>
        <time>2018-08-18T10:14:36Z</time>
      </trkpt>
      <trkpt lat="45.98532" lon="4.79509">
        <ele>244</ele>
        <time>2018-08-18T10:14:37Z</time>
      </trkpt>
      <trkpt lat="45.98531" lon="4.79498">
        <ele>244</ele>
        <time>2018-08-18T10:14:38Z</time>
      </trkpt>
      <trkpt lat="45.98529" lon="4.79491">
        <ele>244</ele>
        <time>2018-08-18T10:14:39Z</time>
      </trkpt>
      <trkpt lat="45.98528" lon="4.79483">
        <ele>244</ele>
        <time>2018-08-18T10:14:40Z</time>
      </trkpt>
      <trkpt lat="45.98526" lon="4.79476">
        <ele>244</ele>
        <time>2018-08-18T10:14:41Z</time>
      </trkpt>
      <trkpt lat="45.98527" lon="4.79466">
        <ele>244</ele>
        <time>2018-08-18T10:14:42Z</time>
      </trkpt>
      <trkpt lat="45.98522" lon="4.79458">
        <ele>244</ele>
        <time>2018-08-18T10:14:43Z</time>
      </trkpt>
      <trkpt lat="45.98523" lon="4.79449">
        <ele>244</ele>
        <time>2018-08-18T10:14:44Z</time>
      </trkpt>
      <trkpt lat="45.98523" lon="4.79441">
        <ele>244</ele>
        <time>2018-08-18T10:14:45Z</time>
      </trkpt>
      <trkpt lat="45.98525" lon="4.79435">
        <ele>244</ele>
        <time>2018-08-18T10:14:46Z</time>
      </trkpt>
      <trkpt lat="45.98523" lon="4.79428">
        <ele>244</ele>
        <time>2018-08-18T10:14:47Z</time>
      </trkpt>
      <trkpt lat="45.98523" lon="4.79421">
        <ele>244</ele>
        <time>2018-08-18T10:14:48Z</time>
      </trkpt>
      <trkpt lat="45.98522" lon="4.79414">
        <ele>244</ele>
        <time>2018-08-18T10:14:49Z</time>
      </trkpt>
      <trkpt lat="45.98522" lon="4.79406">
        <ele>244</ele>
        <time>2018-08-18T10:14:50Z</time>
      </trkpt>
      <trkpt lat="45.98521" lon="4.79398">
        <ele>244</ele>
        <time>2018-08-18T10:14:51Z</time>
      </trkpt>
      <trkpt lat="45.9852" lon="4.79389">
        <ele>244</ele>
        <time>2018-08-18T10:14:52Z</time>
      </trkpt>
      <trkpt lat="45.98518" lon="4.7938">
        <ele>244</ele>
        <time>2018-08-18T10:14:53Z</time>
      </trkpt>
      <trkpt lat="45.98516" lon="4.7937">
        <ele>243</ele>
        <time>2018-08-18T10:14:54Z</time>
      </trkpt>
      <trkpt lat="45.98515" lon="4.7936">
        <ele>243</ele>
        <time>2018-08-18T10:14:55Z</time>
      </trkpt>
      <trkpt lat="45.98513" lon="4.79354">
        <ele>243</ele>
        <time>2018-08-18T10:14:56Z</time>
      </trkpt>
      <trkpt lat="45.98511" lon="4.79347">
        <ele>243</ele>
        <time>2018-08-18T10:14:57Z</time>
      </trkpt>
      <trkpt lat="45.98508" lon="4.79337">
        <ele>243</ele>
        <time>2018-08-18T10:14:58Z</time>
      </trkpt>
      <trkpt lat="45.98506" lon="4.7933">
        <ele>243</ele>
        <time>2018-08-18T10:14:59Z</time>
      </trkpt>
      <trkpt lat="45.98505" lon="4.79322">
        <ele>243</ele>
        <time>2018-08-18T10:15:00Z</time>
      </trkpt>
      <trkpt lat="45.98502" lon="4.79314">
        <ele>243</ele>
        <time>2018-08-18T10:15:01Z</time>
      </trkpt>
      <trkpt lat="45.985" lon="4.79307">
        <ele>243</ele>
        <time>2018-08-18T10:15:02Z</time>
      </trkpt>
      <trkpt lat="45.98495" lon="4.793">
        <ele>243</ele>
        <time>2018-08-18T10:15:03Z</time>
      </trkpt>
      <trkpt lat="45.98491" lon="4.79292">
        <ele>243</ele>
        <time>2018-08-18T10:15:04Z</time>
      </trkpt>
      <trkpt lat="45.98487" lon="4.79285">
        <ele>243</ele>
        <time>2018-08-18T10:15:05Z</time>
      </trkpt>
      <trkpt lat="45.98485" lon="4.79279">
        <ele>243</ele>
        <time>2018-08-18T10:15:06Z</time>
      </trkpt>
      <trkpt lat="45.98482" lon="4.79275">
        <ele>243</ele>
        <time>2018-08-18T10:15:07Z</time>
      </trkpt>
      <trkpt lat="45.98479" lon="4.79268">
        <ele>243</ele>
        <time>2018-08-18T10:15:08Z</time>
      </trkpt>
      <trkpt lat="45.98476" lon="4.7926">
        <ele>243</ele>
        <time>2018-08-18T10:15:09Z</time>
      </trkpt>
      <trkpt lat="45.98473" lon="4.79254">
        <ele>243</ele>
        <time>2018-08-18T10:15:10Z</time>
      </trkpt>
      <trkpt lat="45.98467" lon="4.79247">
        <ele>243</ele>
        <time>2018-08-18T10:15:11Z</time>
      </trkpt>
      <trkpt lat="45.98462" lon="4.7924">
        <ele>243</ele>
        <time>2018-08-18T10:15:12Z</time>
      </trkpt>
      <trkpt lat="45.98458" lon="4.79234">
        <ele>243</ele>
        <time>2018-08-18T10:15:13Z</time>
      </trkpt>
      <trkpt lat="45.98454" lon="4.79228">
        <ele>243</ele>
        <time>2018-08-18T10:15:14Z</time>
      </trkpt>
      <trkpt lat="45.98451" lon="4.79221">
        <ele>243</ele>
        <time>2018-08-18T10:15:15Z</time>
      </trkpt>
      <trkpt lat="45.98448" lon="4.79215">
        <ele>242</ele>
        <time>2018-08-18T10:15:16Z</time>
      </trkpt>
      <trkpt lat="45.98446" lon="4.79208">
        <ele>242</ele>
        <time>2018-08-18T10:15:17Z</time>
      </trkpt>
      <trkpt lat="45.98443" lon="4.79202">
        <ele>242</ele>
        <time>2018-08-18T10:15:18Z</time>
      </trkpt>
      <trkpt lat="45.9844" lon="4.79195">
        <ele>242</ele>
        <time>2018-08-18T10:15:19Z</time>
      </trkpt>
      <trkpt lat="45.98439" lon="4.79191">
        <ele>242</ele>
        <time>2018-08-18T10:15:20Z</time>
      </trkpt>
      <trkpt lat="45.98435" lon="4.79184">
        <ele>242</ele>
        <time>2018-08-18T10:15:21Z</time>
      </trkpt>
      <trkpt lat="45.98431" lon="4.79178">
        <ele>242</ele>
        <time>2018-08-18T10:15:22Z</time>
      </trkpt>
      <trkpt lat="45.98429" lon="4.79171">
        <ele>242</ele>
        <time>2018-08-18T10:15:23Z</time>
      </trkpt>
      <trkpt lat="45.98427" lon="4.79165">
        <ele>242</ele>
        <time>2018-08-18T10:15:24Z</time>
      </trkpt>
      <trkpt lat="45.98422" lon="4.79161">
        <ele>242</ele>
        <time>2018-08-18T10:15:25Z</time>
      </trkpt>
      <trkpt lat="45.98418" lon="4.79155">
        <ele>242</ele>
        <time>2018-08-18T10:15:26Z</time>
      </trkpt>
      <trkpt lat="45.98414" lon="4.79148">
        <ele>242</ele>
        <time>2018-08-18T10:15:27Z</time>
      </trkpt>
      <trkpt lat="45.98409" lon="4.7914">
        <ele>242</ele>
        <time>2018-08-18T10:15:28Z</time>
      </trkpt>
      <trkpt lat="45.98406" lon="4.79133">
        <ele>242</ele>
        <time>2018-08-18T10:15:29Z</time>
      </trkpt>
      <trkpt lat="45.98402" lon="4.79124">
        <ele>242</ele>
        <time>2018-08-18T10:15:30Z</time>
      </trkpt>
      <trkpt lat="45.98399" lon="4.79117">
        <ele>242</ele>
        <time>2018-08-18T10:15:31Z</time>
      </trkpt>
      <trkpt lat="45.98396" lon="4.79112">
        <ele>242</ele>
        <time>2018-08-18T10:15:32Z</time>
      </trkpt>
      <trkpt lat="45.98392" lon="4.79105">
        <ele>242</ele>
        <time>2018-08-18T10:15:33Z</time>
      </trkpt>
      <trkpt lat="45.98388" lon="4.79097">
        <ele>242</ele>
        <time>2018-08-18T10:15:34Z</time>
      </trkpt>
      <trkpt lat="45.98384" lon="4.79091">
        <ele>242</ele>
        <time>2018-08-18T10:15:35Z</time>
      </trkpt>
      <trkpt lat="45.9838" lon="4.79084">
        <ele>242</ele>
        <time>2018-08-18T10:15:36Z</time>
      </trkpt>
      <trkpt lat="45.98376" lon="4.79077">
        <ele>242</ele>
        <time>2018-08-18T10:15:37Z</time>
      </trkpt>
      <trkpt lat="45.98372" lon="4.7907">
        <ele>242</ele>
        <time>2018-08-18T10:15:38Z</time>
      </trkpt>
      <trkpt lat="45.98369" lon="4.79063">
        <ele>242</ele>
        <time>2018-08-18T10:15:39Z</time>
      </trkpt>
      <trkpt lat="45.98366" lon="4.79056">
        <ele>242</ele>
        <time>2018-08-18T10:15:40Z</time>
      </trkpt>
      <trkpt lat="45.98362" lon="4.7905">
        <ele>242</ele>
        <time>2018-08-18T10:15:41Z</time>
      </trkpt>
      <trkpt lat="45.98358" lon="4.79043">
        <ele>242</ele>
        <time>2018-08-18T10:15:42Z</time>
      </trkpt>
      <trkpt lat="45.98354" lon="4.79036">
        <ele>242</ele>
        <time>2018-08-18T10:15:43Z</time>
      </trkpt>
      <trkpt lat="45.9835" lon="4.79029">
        <ele>242</ele>
        <time>2018-08-18T10:15:44Z</time>
      </trkpt>
      <trkpt lat="45.98344" lon="4.79023">
        <ele>242</ele>
        <time>2018-08-18T10:15:45Z</time>
      </trkpt>
      <trkpt lat="45.98338" lon="4.79017">
        <ele>242</ele>
        <time>2018-08-18T10:15:46Z</time>
      </trkpt>
      <trkpt lat="45.98333" lon="4.79013">
        <ele>242</ele>
        <time>2018-08-18T10:15:47Z</time>
      </trkpt>
      <trkpt lat="45.98327" lon="4.79011">
        <ele>242</ele>
        <time>2018-08-18T10:15:48Z</time>
      </trkpt>
      <trkpt lat="45.9832" lon="4.79007">
        <ele>242</ele>
        <time>2018-08-18T10:15:49Z</time>
      </trkpt>
      <trkpt lat="45.98316" lon="4.79001">
        <ele>242</ele>
        <time>2018-08-18T10:15:50Z</time>
      </trkpt>
      <trkpt lat="45.98309" lon="4.78996">
        <ele>241</ele>
        <time>2018-08-18T10:15:51Z</time>
      </trkpt>
      <trkpt lat="45.98303" lon="4.78992">
        <ele>241</ele>
        <time>2018-08-18T10:15:52Z</time>
      </trkpt>
      <trkpt lat="45.98296" lon="4.78989">
        <ele>241</ele>
        <time>2018-08-18T10:15:53Z</time>
      </trkpt>
      <trkpt lat="45.98288" lon="4.78985">
        <ele>241</ele>
        <time>2018-08-18T10:15:54Z</time>
      </trkpt>
      <trkpt lat="45.98281" lon="4.78981">
        <ele>241</ele>
        <time>2018-08-18T10:15:55Z</time>
      </trkpt>
      <trkpt lat="45.98275" lon="4.78976">
        <ele>241</ele>
        <time>2018-08-18T10:15:56Z</time>
      </trkpt>
      <trkpt lat="45.98268" lon="4.78973">
        <ele>241</ele>
        <time>2018-08-18T10:15:57Z</time>
      </trkpt>
      <trkpt lat="45.98263" lon="4.78968">
        <ele>241</ele>
        <time>2018-08-18T10:15:58Z</time>
      </trkpt>
      <trkpt lat="45.98257" lon="4.78964">
        <ele>241</ele>
        <time>2018-08-18T10:15:59Z</time>
      </trkpt>
      <trkpt lat="45.98252" lon="4.78958">
        <ele>241</ele>
        <time>2018-08-18T10:16:00Z</time>
      </trkpt>
      <trkpt lat="45.98245" lon="4.78955">
        <ele>241</ele>
        <time>2018-08-18T10:16:01Z</time>
      </trkpt>
      <trkpt lat="45.98236" lon="4.78953">
        <ele>241</ele>
        <time>2018-08-18T10:16:02Z</time>
      </trkpt>
      <trkpt lat="45.98229" lon="4.78949">
        <ele>241</ele>
        <time>2018-08-18T10:16:03Z</time>
      </trkpt>
      <trkpt lat="45.98221" lon="4.78946">
        <ele>241</ele>
        <time>2018-08-18T10:16:04Z</time>
      </trkpt>
      <trkpt lat="45.98216" lon="4.78942">
        <ele>241</ele>
        <time>2018-08-18T10:16:05Z</time>
      </trkpt>
      <trkpt lat="45.9821" lon="4.78937">
        <ele>241</ele>
        <time>2018-08-18T10:16:06Z</time>
      </trkpt>
      <trkpt lat="45.98203" lon="4.78934">
        <ele>241</ele>
        <time>2018-08-18T10:16:07Z</time>
      </trkpt>
      <trkpt lat="45.98195" lon="4.7893">
        <ele>241</ele>
        <time>2018-08-18T10:16:08Z</time>
      </trkpt>
      <trkpt lat="45.98189" lon="4.78926">
        <ele>241</ele>
        <time>2018-08-18T10:16:09Z</time>
      </trkpt>
      <trkpt lat="45.98183" lon="4.78923">
        <ele>240</ele>
        <time>2018-08-18T10:16:10Z</time>
      </trkpt>
      <trkpt lat="45.98177" lon="4.7892">
        <ele>240</ele>
        <time>2018-08-18T10:16:11Z</time>
      </trkpt>
      <trkpt lat="45.98172" lon="4.78916">
        <ele>240</ele>
        <time>2018-08-18T10:16:12Z</time>
      </trkpt>
      <trkpt lat="45.98165" lon="4.78913">
        <ele>240</ele>
        <time>2018-08-18T10:16:13Z</time>
      </trkpt>
      <trkpt lat="45.9816" lon="4.7891">
        <ele>240</ele>
        <time>2018-08-18T10:16:14Z</time>
      </trkpt>
      <trkpt lat="45.98152" lon="4.78907">
        <ele>240</ele>
        <time>2018-08-18T10:16:15Z</time>
      </trkpt>
      <trkpt lat="45.98147" lon="4.78904">
        <ele>240</ele>
        <time>2018-08-18T10:16:16Z</time>
      </trkpt>
      <trkpt lat="45.98141" lon="4.78901">
        <ele>240</ele>
        <time>2018-08-18T10:16:17Z</time>
      </trkpt>
      <trkpt lat="45.98134" lon="4.78897">
        <ele>240</ele>
        <time>2018-08-18T10:16:18Z</time>
      </trkpt>
      <trkpt lat="45.98128" lon="4.78897">
        <ele>240</ele>
        <time>2018-08-18T10:16:19Z</time>
      </trkpt>
      <trkpt lat="45.98122" lon="4.78893">
        <ele>240</ele>
        <time>2018-08-18T10:16:20Z</time>
      </trkpt>
      <trkpt lat="45.98117" lon="4.78888">
        <ele>240</ele>
        <time>2018-08-18T10:16:21Z</time>
      </trkpt>
      <trkpt lat="45.98111" lon="4.78884">
        <ele>240</ele>
        <time>2018-08-18T10:16:22Z</time>
      </trkpt>
      <trkpt lat="45.98105" lon="4.7888">
        <ele>240</ele>
        <time>2018-08-18T10:16:23Z</time>
      </trkpt>
      <trkpt lat="45.981" lon="4.78876">
        <ele>240</ele>
        <time>2018-08-18T10:16:24Z</time>
      </trkpt>
      <trkpt lat="45.98095" lon="4.78873">
        <ele>239</ele>
        <time>2018-08-18T10:16:25Z</time>
      </trkpt>
      <trkpt lat="45.98088" lon="4.78867">
        <ele>239</ele>
        <time>2018-08-18T10:16:26Z</time>
      </trkpt>
      <trkpt lat="45.98083" lon="4.78863">
        <ele>239</ele>
        <time>2018-08-18T10:16:27Z</time>
      </trkpt>
      <trkpt lat="45.98078" lon="4.78859">
        <ele>239</ele>
        <time>2018-08-18T10:16:28Z</time>
      </trkpt>
      <trkpt lat="45.98072" lon="4.78855">
        <ele>239</ele>
        <time>2018-08-18T10:16:29Z</time>
      </trkpt>
      <trkpt lat="45.98066" lon="4.78851">
        <ele>239</ele>
        <time>2018-08-18T10:16:30Z</time>
      </trkpt>
      <trkpt lat="45.9806" lon="4.78846">
        <ele>239</ele>
        <time>2018-08-18T10:16:31Z</time>
      </trkpt>
      <trkpt lat="45.98054" lon="4.78841">
        <ele>238</ele>
        <time>2018-08-18T10:16:32Z</time>
      </trkpt>
      <trkpt lat="45.98046" lon="4.78842">
        <ele>239</ele>
        <time>2018-08-18T10:16:33Z</time>
      </trkpt>
      <trkpt lat="45.9804" lon="4.78837">
        <ele>238</ele>
        <time>2018-08-18T10:16:34Z</time>
      </trkpt>
      <trkpt lat="45.98031" lon="4.78831">
        <ele>238</ele>
        <time>2018-08-18T10:16:35Z</time>
      </trkpt>
      <trkpt lat="45.98021" lon="4.78825">
        <ele>238</ele>
        <time>2018-08-18T10:16:36Z</time>
      </trkpt>
      <trkpt lat="45.98014" lon="4.78819">
        <ele>238</ele>
        <time>2018-08-18T10:16:37Z</time>
      </trkpt>
      <trkpt lat="45.98008" lon="4.78814">
        <ele>238</ele>
        <time>2018-08-18T10:16:38Z</time>
      </trkpt>
      <trkpt lat="45.97997" lon="4.7881">
        <ele>238</ele>
        <time>2018-08-18T10:16:39Z</time>
      </trkpt>
      <trkpt lat="45.97991" lon="4.78806">
        <ele>238</ele>
        <time>2018-08-18T10:16:40Z</time>
      </trkpt>
      <trkpt lat="45.97983" lon="4.78802">
        <ele>238</ele>
        <time>2018-08-18T10:16:41Z</time>
      </trkpt>
      <trkpt lat="45.97978" lon="4.78797">
        <ele>238</ele>
        <time>2018-08-18T10:16:42Z</time>
      </trkpt>
      <trkpt lat="45.97971" lon="4.78792">
        <ele>238</ele>
        <time>2018-08-18T10:16:43Z</time>
      </trkpt>
      <trkpt lat="45.97963" lon="4.78787">
        <ele>238</ele>
        <time>2018-08-18T10:16:44Z</time>
      </trkpt>
      <trkpt lat="45.97957" lon="4.78781">
        <ele>238</ele>
        <time>2018-08-18T10:16:45Z</time>
      </trkpt>
      <trkpt lat="45.9795" lon="4.78775">
        <ele>238</ele>
        <time>2018-08-18T10:16:46Z</time>
      </trkpt>
      <trkpt lat="45.97944" lon="4.7877">
        <ele>238</ele>
        <time>2018-08-18T10:16:47Z</time>
      </trkpt>
      <trkpt lat="45.97938" lon="4.78764">
        <ele>238</ele>
        <time>2018-08-18T10:16:48Z</time>
      </trkpt>
      <trkpt lat="45.97932" lon="4.78757">
        <ele>238</ele>
        <time>2018-08-18T10:16:49Z</time>
      </trkpt>
      <trkpt lat="45.97924" lon="4.78752">
        <ele>237</ele>
        <time>2018-08-18T10:16:50Z</time>
      </trkpt>
      <trkpt lat="45.97917" lon="4.78747">
        <ele>237</ele>
        <time>2018-08-18T10:16:51Z</time>
      </trkpt>
      <trkpt lat="45.9791" lon="4.78741">
        <ele>237</ele>
        <time>2018-08-18T10:16:52Z</time>
      </trkpt>
      <trkpt lat="45.97903" lon="4.78737">
        <ele>237</ele>
        <time>2018-08-18T10:16:53Z</time>
      </trkpt>
      <trkpt lat="45.97896" lon="4.78731">
        <ele>237</ele>
        <time>2018-08-18T10:16:54Z</time>
      </trkpt>
      <trkpt lat="45.97889" lon="4.78725">
        <ele>236</ele>
        <time>2018-08-18T10:16:55Z</time>
      </trkpt>
      <trkpt lat="45.97881" lon="4.7872">
        <ele>236</ele>
        <time>2018-08-18T10:16:56Z</time>
      </trkpt>
      <trkpt lat="45.97875" lon="4.78714">
        <ele>236</ele>
        <time>2018-08-18T10:16:57Z</time>
      </trkpt>
      <trkpt lat="45.97868" lon="4.78708">
        <ele>236</ele>
        <time>2018-08-18T10:16:58Z</time>
      </trkpt>
      <trkpt lat="45.97862" lon="4.78702">
        <ele>236</ele>
        <time>2018-08-18T10:16:59Z</time>
      </trkpt>
      <trkpt lat="45.97854" lon="4.78698">
        <ele>236</ele>
        <time>2018-08-18T10:17:00Z</time>
      </trkpt>
      <trkpt lat="45.97848" lon="4.78693">
        <ele>236</ele>
        <time>2018-08-18T10:17:01Z</time>
      </trkpt>
      <trkpt lat="45.9784" lon="4.78688">
        <ele>236</ele>
        <time>2018-08-18T10:17:02Z</time>
      </trkpt>
      <trkpt lat="45.97833" lon="4.78684">
        <ele>235</ele>
        <time>2018-08-18T10:17:03Z</time>
      </trkpt>
      <trkpt lat="45.97826" lon="4.7868">
        <ele>235</ele>
        <time>2018-08-18T10:17:04Z</time>
      </trkpt>
      <trkpt lat="45.97815" lon="4.78677">
        <ele>235</ele>
        <time>2018-08-18T10:17:05Z</time>
      </trkpt>
      <trkpt lat="45.97807" lon="4.78674">
        <ele>235</ele>
        <time>2018-08-18T10:17:06Z</time>
      </trkpt>
      <trkpt lat="45.978" lon="4.7867">
        <ele>235</ele>
        <time>2018-08-18T10:17:07Z</time>
      </trkpt>
      <trkpt lat="45.97793" lon="4.78667">
        <ele>235</ele>
        <time>2018-08-18T10:17:08Z</time>
      </trkpt>
      <trkpt lat="45.97784" lon="4.78664">
        <ele>235</ele>
        <time>2018-08-18T10:17:09Z</time>
      </trkpt>
      <trkpt lat="45.97777" lon="4.78661">
        <ele>235</ele>
        <time>2018-08-18T10:17:10Z</time>
      </trkpt>
      <trkpt lat="45.9777" lon="4.7866">
        <ele>235</ele>
        <time>2018-08-18T10:17:11Z</time>
      </trkpt>
      <trkpt lat="45.97764" lon="4.78657">
        <ele>235</ele>
        <time>2018-08-18T10:17:12Z</time>
      </trkpt>
      <trkpt lat="45.97757" lon="4.78653">
        <ele>235</ele>
        <time>2018-08-18T10:17:13Z</time>
      </trkpt>
      <trkpt lat="45.97749" lon="4.78653">
        <ele>234</ele>
        <time>2018-08-18T10:17:14Z</time>
      </trkpt>
      <trkpt lat="45.97741" lon="4.7865">
        <ele>234</ele>
        <time>2018-08-18T10:17:15Z</time>
      </trkpt>
      <trkpt lat="45.97732" lon="4.78647">
        <ele>234</ele>
        <time>2018-08-18T10:17:16Z</time>
      </trkpt>
      <trkpt lat="45.97725" lon="4.78642">
        <ele>234</ele>
        <time>2018-08-18T10:17:17Z</time>
      </trkpt>
      <trkpt lat="45.97715" lon="4.7864">
        <ele>234</ele>
        <time>2018-08-18T10:17:18Z</time>
      </trkpt>
      <trkpt lat="45.97707" lon="4.78637">
        <ele>234</ele>
        <time>2018-08-18T10:17:19Z</time>
      </trkpt>
      <trkpt lat="45.97698" lon="4.78634">
        <ele>234</ele>
        <time>2018-08-18T10:17:20Z</time>
      </trkpt>
      <trkpt lat="45.9769" lon="4.7863">
        <ele>234</ele>
        <time>2018-08-18T10:17:21Z</time>
      </trkpt>
      <trkpt lat="45.97682" lon="4.78627">
        <ele>234</ele>
        <time>2018-08-18T10:17:22Z</time>
      </trkpt>
      <trkpt lat="45.97674" lon="4.78623">
        <ele>234</ele>
        <time>2018-08-18T10:17:23Z</time>
      </trkpt>
      <trkpt lat="45.97666" lon="4.7862">
        <ele>233</ele>
        <time>2018-08-18T10:17:24Z</time>
      </trkpt>
      <trkpt lat="45.9766" lon="4.78615">
        <ele>233</ele>
        <time>2018-08-18T10:17:25Z</time>
      </trkpt>
      <trkpt lat="45.97652" lon="4.78612">
        <ele>233</ele>
        <time>2018-08-18T10:17:26Z</time>
      </trkpt>
      <trkpt lat="45.97644" lon="4.78609">
        <ele>233</ele>
        <time>2018-08-18T10:17:27Z</time>
      </trkpt>
      <trkpt lat="45.97637" lon="4.78606">
        <ele>233</ele>
        <time>2018-08-18T10:17:28Z</time>
      </trkpt>
      <trkpt lat="45.9763" lon="4.78603">
        <ele>233</ele>
        <time>2018-08-18T10:17:29Z</time>
      </trkpt>
      <trkpt lat="45.97623" lon="4.78599">
        <ele>233</ele>
        <time>2018-08-18T10:17:30Z</time>
      </trkpt>
      <trkpt lat="45.97617" lon="4.78597">
        <ele>233</ele>
        <time>2018-08-18T10:17:31Z</time>
      </trkpt>
      <trkpt lat="45.9761" lon="4.78595">
        <ele>233</ele>
        <time>2018-08-18T10:17:32Z</time>
      </trkpt>
      <trkpt lat="45.97601" lon="4.78594">
        <ele>233</ele>
        <time>2018-08-18T10:17:33Z</time>
      </trkpt>
      <trkpt lat="45.97593" lon="4.78589">
        <ele>233</ele>
        <time>2018-08-18T10:17:34Z</time>
      </trkpt>
      <trkpt lat="45.97585" lon="4.78586">
        <ele>233</ele>
        <time>2018-08-18T10:17:35Z</time>
      </trkpt>
      <trkpt lat="45.97576" lon="4.78583">
        <ele>233</ele>
        <time>2018-08-18T10:17:36Z</time>
      </trkpt>
      <trkpt lat="45.97568" lon="4.78579">
        <ele>233</ele>
        <time>2018-08-18T10:17:37Z</time>
      </trkpt>
      <trkpt lat="45.9756" lon="4.78575">
        <ele>233</ele>
        <time>2018-08-18T10:17:38Z</time>
      </trkpt>
      <trkpt lat="45.97552" lon="4.78572">
        <ele>234</ele>
        <time>2018-08-18T10:17:39Z</time>
      </trkpt>
      <trkpt lat="45.97544" lon="4.78568">
        <ele>234</ele>
        <time>2018-08-18T10:17:40Z</time>
      </trkpt>
      <trkpt lat="45.97535" lon="4.78563">
        <ele>234</ele>
        <time>2018-08-18T10:17:41Z</time>
      </trkpt>
      <trkpt lat="45.97527" lon="4.78559">
        <ele>234</ele>
        <time>2018-08-18T10:17:42Z</time>
      </trkpt>
      <trkpt lat="45.97518" lon="4.78555">
        <ele>234</ele>
        <time>2018-08-18T10:17:43Z</time>
      </trkpt>
      <trkpt lat="45.97511" lon="4.78551">
        <ele>234</ele>
        <time>2018-08-18T10:17:44Z</time>
      </trkpt>
      <trkpt lat="45.97504" lon="4.78547">
        <ele>234</ele>
        <time>2018-08-18T10:17:45Z</time>
      </trkpt>
      <trkpt lat="45.97497" lon="4.78541">
        <ele>233</ele>
        <time>2018-08-18T10:17:46Z</time>
      </trkpt>
      <trkpt lat="45.97489" lon="4.78536">
        <ele>233</ele>
        <time>2018-08-18T10:17:47Z</time>
      </trkpt>
      <trkpt lat="45.97481" lon="4.7853">
        <ele>233</ele>
        <time>2018-08-18T10:17:48Z</time>
      </trkpt>
      <trkpt lat="45.97473" lon="4.78524">
        <ele>233</ele>
        <time>2018-08-18T10:17:49Z</time>
      </trkpt>
      <trkpt lat="45.97466" lon="4.78517">
        <ele>233</ele>
        <time>2018-08-18T10:17:50Z</time>
      </trkpt>
      <trkpt lat="45.97458" lon="4.7851">
        <ele>233</ele>
        <time>2018-08-18T10:17:51Z</time>
      </trkpt>
      <trkpt lat="45.9745" lon="4.78504">
        <ele>234</ele>
        <time>2018-08-18T10:17:52Z</time>
      </trkpt>
      <trkpt lat="45.97442" lon="4.78498">
        <ele>234</ele>
        <time>2018-08-18T10:17:53Z</time>
      </trkpt>
      <trkpt lat="45.97436" lon="4.78492">
        <ele>234</ele>
        <time>2018-08-18T10:17:54Z</time>
      </trkpt>
      <trkpt lat="45.97429" lon="4.78486">
        <ele>234</ele>
        <time>2018-08-18T10:17:55Z</time>
      </trkpt>
      <trkpt lat="45.97423" lon="4.7848">
        <ele>234</ele>
        <time>2018-08-18T10:17:56Z</time>
      </trkpt>
      <trkpt lat="45.97415" lon="4.78473">
        <ele>233</ele>
        <time>2018-08-18T10:17:57Z</time>
      </trkpt>
      <trkpt lat="45.97409" lon="4.78467">
        <ele>233</ele>
        <time>2018-08-18T10:17:58Z</time>
      </trkpt>
      <trkpt lat="45.97403" lon="4.78461">
        <ele>233</ele>
        <time>2018-08-18T10:17:59Z</time>
      </trkpt>
      <trkpt lat="45.97395" lon="4.78454">
        <ele>233</ele>
        <time>2018-08-18T10:18:00Z</time>
      </trkpt>
      <trkpt lat="45.97389" lon="4.78448">
        <ele>233</ele>
        <time>2018-08-18T10:18:01Z</time>
      </trkpt>
      <trkpt lat="45.97382" lon="4.78441">
        <ele>233</ele>
        <time>2018-08-18T10:18:02Z</time>
      </trkpt>
      <trkpt lat="45.97376" lon="4.78436">
        <ele>233</ele>
        <time>2018-08-18T10:18:03Z</time>
      </trkpt>
      <trkpt lat="45.9737" lon="4.7843">
        <ele>233</ele>
        <time>2018-08-18T10:18:04Z</time>
      </trkpt>
      <trkpt lat="45.97364" lon="4.78423">
        <ele>233</ele>
        <time>2018-08-18T10:18:05Z</time>
      </trkpt>
      <trkpt lat="45.97358" lon="4.78417">
        <ele>233</ele>
        <time>2018-08-18T10:18:06Z</time>
      </trkpt>
      <trkpt lat="45.97351" lon="4.78411">
        <ele>232</ele>
        <time>2018-08-18T10:18:07Z</time>
      </trkpt>
      <trkpt lat="45.97343" lon="4.78405">
        <ele>232</ele>
        <time>2018-08-18T10:18:08Z</time>
      </trkpt>
      <trkpt lat="45.97337" lon="4.78398">
        <ele>232</ele>
        <time>2018-08-18T10:18:09Z</time>
      </trkpt>
      <trkpt lat="45.97332" lon="4.78391">
        <ele>232</ele>
        <time>2018-08-18T10:18:10Z</time>
      </trkpt>
      <trkpt lat="45.97327" lon="4.78383">
        <ele>232</ele>
        <time>2018-08-18T10:18:11Z</time>
      </trkpt>
      <trkpt lat="45.97322" lon="4.78376">
        <ele>232</ele>
        <time>2018-08-18T10:18:12Z</time>
      </trkpt>
      <trkpt lat="45.97316" lon="4.7837">
        <ele>232</ele>
        <time>2018-08-18T10:18:13Z</time>
      </trkpt>
      <trkpt lat="45.97311" lon="4.78362">
        <ele>232</ele>
        <time>2018-08-18T10:18:14Z</time>
      </trkpt>
      <trkpt lat="45.97305" lon="4.78353">
        <ele>232</ele>
        <time>2018-08-18T10:18:15Z</time>
      </trkpt>
      <trkpt lat="45.97298" lon="4.78346">
        <ele>232</ele>
        <time>2018-08-18T10:18:16Z</time>
      </trkpt>
      <trkpt lat="45.97293" lon="4.78338">
        <ele>232</ele>
        <time>2018-08-18T10:18:17Z</time>
      </trkpt>
      <trkpt lat="45.97288" lon="4.7833">
        <ele>232</ele>
        <time>2018-08-18T10:18:18Z</time>
      </trkpt>
      <trkpt lat="45.97281" lon="4.78323">
        <ele>232</ele>
        <time>2018-08-18T10:18:19Z</time>
      </trkpt>
      <trkpt lat="45.97277" lon="4.78315">
        <ele>232</ele>
        <time>2018-08-18T10:18:20Z</time>
      </trkpt>
      <trkpt lat="45.97272" lon="4.78307">
        <ele>232</ele>
        <time>2018-08-18T10:18:21Z</time>
      </trkpt>
      <trkpt lat="45.97267" lon="4.78299">
        <ele>232</ele>
        <time>2018-08-18T10:18:22Z</time>
      </trkpt>
      <trkpt lat="45.97262" lon="4.78294">
        <ele>232</ele>
        <time>2018-08-18T10:18:23Z</time>
      </trkpt>
      <trkpt lat="45.97257" lon="4.78284">
        <ele>232</ele>
        <time>2018-08-18T10:18:24Z</time>
      </trkpt>
      <trkpt lat="45.97251" lon="4.78279">
        <ele>232</ele>
        <time>2018-08-18T10:18:25Z</time>
      </trkpt>
      <trkpt lat="45.97246" lon="4.7827">
        <ele>231</ele>
        <time>2018-08-18T10:18:26Z</time>
      </trkpt>
      <trkpt lat="45.97241" lon="4.78263">
        <ele>231</ele>
        <time>2018-08-18T10:18:27Z</time>
      </trkpt>
      <trkpt lat="45.97236" lon="4.78255">
        <ele>231</ele>
        <time>2018-08-18T10:18:28Z</time>
      </trkpt>
      <trkpt lat="45.97232" lon="4.78248">
        <ele>231</ele>
        <time>2018-08-18T10:18:29Z</time>
      </trkpt>
      <trkpt lat="45.97227" lon="4.78239">
        <ele>231</ele>
        <time>2018-08-18T10:18:30Z</time>
      </trkpt>
      <trkpt lat="45.97222" lon="4.78233">
        <ele>231</ele>
        <time>2018-08-18T10:18:31Z</time>
      </trkpt>
      <trkpt lat="45.97218" lon="4.78225">
        <ele>231</ele>
        <time>2018-08-18T10:18:32Z</time>
      </trkpt>
      <trkpt lat="45.97213" lon="4.78218">
        <ele>231</ele>
        <time>2018-08-18T10:18:33Z</time>
      </trkpt>
      <trkpt lat="45.97208" lon="4.78209">
        <ele>231</ele>
        <time>2018-08-18T10:18:34Z</time>
      </trkpt>
      <trkpt lat="45.97204" lon="4.78202">
        <ele>231</ele>
        <time>2018-08-18T10:18:35Z</time>
      </trkpt>
      <trkpt lat="45.972" lon="4.78195">
        <ele>231</ele>
        <time>2018-08-18T10:18:36Z</time>
      </trkpt>
      <trkpt lat="45.97196" lon="4.78188">
        <ele>231</ele>
        <time>2018-08-18T10:18:37Z</time>
      </trkpt>
      <trkpt lat="45.97192" lon="4.7818">
        <ele>231</ele>
        <time>2018-08-18T10:18:38Z</time>
      </trkpt>
      <trkpt lat="45.9719" lon="4.78171">
        <ele>231</ele>
        <time>2018-08-18T10:18:39Z</time>
      </trkpt>
      <trkpt lat="45.97185" lon="4.78163">
        <ele>231</ele>
        <time>2018-08-18T10:18:40Z</time>
      </trkpt>
      <trkpt lat="45.97179" lon="4.78158">
        <ele>231</ele>
        <time>2018-08-18T10:18:41Z</time>
      </trkpt>
      <trkpt lat="45.97175" lon="4.78149">
        <ele>231</ele>
        <time>2018-08-18T10:18:42Z</time>
      </trkpt>
      <trkpt lat="45.97169" lon="4.7814">
        <ele>231</ele>
        <time>2018-08-18T10:18:43Z</time>
      </trkpt>
      <trkpt lat="45.97164" lon="4.78131">
        <ele>230</ele>
        <time>2018-08-18T10:18:44Z</time>
      </trkpt>
      <trkpt lat="45.97159" lon="4.78123">
        <ele>230</ele>
        <time>2018-08-18T10:18:45Z</time>
      </trkpt>
      <trkpt lat="45.97155" lon="4.78113">
        <ele>230</ele>
        <time>2018-08-18T10:18:46Z</time>
      </trkpt>
      <trkpt lat="45.97149" lon="4.78103">
        <ele>230</ele>
        <time>2018-08-18T10:18:47Z</time>
      </trkpt>
      <trkpt lat="45.97145" lon="4.78094">
        <ele>230</ele>
        <time>2018-08-18T10:18:48Z</time>
      </trkpt>
      <trkpt lat="45.9714" lon="4.78086">
        <ele>230</ele>
        <time>2018-08-18T10:18:49Z</time>
      </trkpt>
      <trkpt lat="45.97134" lon="4.78078">
        <ele>230</ele>
        <time>2018-08-18T10:18:50Z</time>
      </trkpt>
      <trkpt lat="45.97129" lon="4.7807">
        <ele>230</ele>
        <time>2018-08-18T10:18:51Z</time>
      </trkpt>
      <trkpt lat="45.97123" lon="4.78062">
        <ele>229</ele>
        <time>2018-08-18T10:18:52Z</time>
      </trkpt>
      <trkpt lat="45.97118" lon="4.78055">
        <ele>229</ele>
        <time>2018-08-18T10:18:53Z</time>
      </trkpt>
      <trkpt lat="45.97112" lon="4.78048">
        <ele>229</ele>
        <time>2018-08-18T10:18:54Z</time>
      </trkpt>
      <trkpt lat="45.97105" lon="4.78041">
        <ele>229</ele>
        <time>2018-08-18T10:18:55Z</time>
      </trkpt>
      <trkpt lat="45.97098" lon="4.78036">
        <ele>229</ele>
        <time>2018-08-18T10:18:56Z</time>
      </trkpt>
      <trkpt lat="45.97093" lon="4.78028">
        <ele>229</ele>
        <time>2018-08-18T10:18:57Z</time>
      </trkpt>
      <trkpt lat="45.97085" lon="4.78022">
        <ele>229</ele>
        <time>2018-08-18T10:18:58Z</time>
      </trkpt>
      <trkpt lat="45.97079" lon="4.78015">
        <ele>229</ele>
        <time>2018-08-18T10:18:59Z</time>
      </trkpt>
      <trkpt lat="45.97071" lon="4.78008">
        <ele>229</ele>
        <time>2018-08-18T10:19:00Z</time>
      </trkpt>
      <trkpt lat="45.97065" lon="4.78001">
        <ele>229</ele>
        <time>2018-08-18T10:19:01Z</time>
      </trkpt>
      <trkpt lat="45.97058" lon="4.77993">
        <ele>229</ele>
        <time>2018-08-18T10:19:02Z</time>
      </trkpt>
      <trkpt lat="45.97051" lon="4.77986">
        <ele>229</ele>
        <time>2018-08-18T10:19:03Z</time>
      </trkpt>
      <trkpt lat="45.97044" lon="4.7798">
        <ele>229</ele>
        <time>2018-08-18T10:19:04Z</time>
      </trkpt>
      <trkpt lat="45.97037" lon="4.77972">
        <ele>229</ele>
        <time>2018-08-18T10:19:05Z</time>
      </trkpt>
      <trkpt lat="45.9703" lon="4.77965">
        <ele>228</ele>
        <time>2018-08-18T10:19:06Z</time>
      </trkpt>
      <trkpt lat="45.97023" lon="4.77958">
        <ele>228</ele>
        <time>2018-08-18T10:19:07Z</time>
      </trkpt>
      <trkpt lat="45.97017" lon="4.7795">
        <ele>228</ele>
        <time>2018-08-18T10:19:08Z</time>
      </trkpt>
      <trkpt lat="45.9701" lon="4.77942">
        <ele>228</ele>
        <time>2018-08-18T10:19:09Z</time>
      </trkpt>
      <trkpt lat="45.97004" lon="4.77935">
        <ele>228</ele>
        <time>2018-08-18T10:19:10Z</time>
      </trkpt>
      <trkpt lat="45.96997" lon="4.77927">
        <ele>227</ele>
        <time>2018-08-18T10:19:11Z</time>
      </trkpt>
      <trkpt lat="45.96992" lon="4.77919">
        <ele>227</ele>
        <time>2018-08-18T10:19:12Z</time>
      </trkpt>
      <trkpt lat="45.96988" lon="4.77911">
        <ele>227</ele>
        <time>2018-08-18T10:19:13Z</time>
      </trkpt>
      <trkpt lat="45.96983" lon="4.77904">
        <ele>227</ele>
        <time>2018-08-18T10:19:14Z</time>
      </trkpt>
      <trkpt lat="45.96978" lon="4.77896">
        <ele>228</ele>
        <time>2018-08-18T10:19:15Z</time>
      </trkpt>
      <trkpt lat="45.9697" lon="4.77892">
        <ele>228</ele>
        <time>2018-08-18T10:19:16Z</time>
      </trkpt>
      <trkpt lat="45.96965" lon="4.77885">
        <ele>228</ele>
        <time>2018-08-18T10:19:17Z</time>
      </trkpt>
      <trkpt lat="45.9696" lon="4.77877">
        <ele>228</ele>
        <time>2018-08-18T10:19:18Z</time>
      </trkpt>
      <trkpt lat="45.96954" lon="4.77869">
        <ele>228</ele>
        <time>2018-08-18T10:19:19Z</time>
      </trkpt>
      <trkpt lat="45.96947" lon="4.77864">
        <ele>228</ele>
        <time>2018-08-18T10:19:20Z</time>
      </trkpt>
      <trkpt lat="45.9694" lon="4.77856">
        <ele>228</ele>
        <time>2018-08-18T10:19:21Z</time>
      </trkpt>
      <trkpt lat="45.96934" lon="4.77849">
        <ele>228</ele>
        <time>2018-08-18T10:19:22Z</time>
      </trkpt>
      <trkpt lat="45.96927" lon="4.77838">
        <ele>228</ele>
        <time>2018-08-18T10:19:23Z</time>
      </trkpt>
      <trkpt lat="45.9692" lon="4.7783">
        <ele>228</ele>
        <time>2018-08-18T10:19:24Z</time>
      </trkpt>
      <trkpt lat="45.96912" lon="4.77823">
        <ele>228</ele>
        <time>2018-08-18T10:19:25Z</time>
      </trkpt>
      <trkpt lat="45.96905" lon="4.77817">
        <ele>228</ele>
        <time>2018-08-18T10:19:26Z</time>
      </trkpt>
      <trkpt lat="45.96897" lon="4.77811">
        <ele>228</ele>
        <time>2018-08-18T10:19:27Z</time>
      </trkpt>
      <trkpt lat="45.9689" lon="4.77803">
        <ele>228</ele>
        <time>2018-08-18T10:19:28Z</time>
      </trkpt>
      <trkpt lat="45.96883" lon="4.77796">
        <ele>228</ele>
        <time>2018-08-18T10:19:29Z</time>
      </trkpt>
      <trkpt lat="45.96876" lon="4.7779">
        <ele>228</ele>
        <time>2018-08-18T10:19:30Z</time>
      </trkpt>
      <trkpt lat="45.9687" lon="4.77783">
        <ele>228</ele>
        <time>2018-08-18T10:19:31Z</time>
      </trkpt>
      <trkpt lat="45.96864" lon="4.77776">
        <ele>228</ele>
        <time>2018-08-18T10:19:32Z</time>
      </trkpt>
      <trkpt lat="45.96858" lon="4.7777">
        <ele>228</ele>
        <time>2018-08-18T10:19:33Z</time>
      </trkpt>
      <trkpt lat="45.96852" lon="4.77763">
        <ele>228</ele>
        <time>2018-08-18T10:19:34Z</time>
      </trkpt>
      <trkpt lat="45.96845" lon="4.77758">
        <ele>228</ele>
        <time>2018-08-18T10:19:35Z</time>
      </trkpt>
      <trkpt lat="45.96839" lon="4.77751">
        <ele>228</ele>
        <time>2018-08-18T10:19:36Z</time>
      </trkpt>
      <trkpt lat="45.96833" lon="4.77745">
        <ele>228</ele>
        <time>2018-08-18T10:19:37Z</time>
      </trkpt>
      <trkpt lat="45.96827" lon="4.77739">
        <ele>228</ele>
        <time>2018-08-18T10:19:38Z</time>
      </trkpt>
      <trkpt lat="45.9682" lon="4.77733">
        <ele>228</ele>
        <time>2018-08-18T10:19:39Z</time>
      </trkpt>
      <trkpt lat="45.96814" lon="4.77728">
        <ele>228</ele>
        <time>2018-08-18T10:19:40Z</time>
      </trkpt>
      <trkpt lat="45.96807" lon="4.7772">
        <ele>228</ele>
        <time>2018-08-18T10:19:41Z</time>
      </trkpt>
      <trkpt lat="45.96802" lon="4.77713">
        <ele>228</ele>
        <time>2018-08-18T10:19:42Z</time>
      </trkpt>
      <trkpt lat="45.96795" lon="4.77709">
        <ele>228</ele>
        <time>2018-08-18T10:19:43Z</time>
      </trkpt>
      <trkpt lat="45.96789" lon="4.77703">
        <ele>227</ele>
        <time>2018-08-18T10:19:44Z</time>
      </trkpt>
      <trkpt lat="45.96781" lon="4.77694">
        <ele>227</ele>
        <time>2018-08-18T10:19:45Z</time>
      </trkpt>
      <trkpt lat="45.96775" lon="4.77686">
        <ele>227</ele>
        <time>2018-08-18T10:19:46Z</time>
      </trkpt>
      <trkpt lat="45.96769" lon="4.77678">
        <ele>227</ele>
        <time>2018-08-18T10:19:47Z</time>
      </trkpt>
      <trkpt lat="45.96761" lon="4.77669">
        <ele>227</ele>
        <time>2018-08-18T10:19:48Z</time>
      </trkpt>
      <trkpt lat="45.96754" lon="4.7766">
        <ele>227</ele>
        <time>2018-08-18T10:19:49Z</time>
      </trkpt>
      <trkpt lat="45.96747" lon="4.77651">
        <ele>227</ele>
        <time>2018-08-18T10:19:50Z</time>
      </trkpt>
      <trkpt lat="45.9674" lon="4.77645">
        <ele>227</ele>
        <time>2018-08-18T10:19:51Z</time>
      </trkpt>
      <trkpt lat="45.96733" lon="4.77636">
        <ele>226</ele>
        <time>2018-08-18T10:19:52Z</time>
      </trkpt>
      <trkpt lat="45.96727" lon="4.77626">
        <ele>226</ele>
        <time>2018-08-18T10:19:53Z</time>
      </trkpt>
      <trkpt lat="45.9672" lon="4.77618">
        <ele>226</ele>
        <time>2018-08-18T10:19:54Z</time>
      </trkpt>
      <trkpt lat="45.96713" lon="4.77609">
        <ele>226</ele>
        <time>2018-08-18T10:19:55Z</time>
      </trkpt>
      <trkpt lat="45.96708" lon="4.77599">
        <ele>226</ele>
        <time>2018-08-18T10:19:56Z</time>
      </trkpt>
      <trkpt lat="45.96702" lon="4.77594">
        <ele>226</ele>
        <time>2018-08-18T10:19:57Z</time>
      </trkpt>
      <trkpt lat="45.96697" lon="4.77586">
        <ele>226</ele>
        <time>2018-08-18T10:19:58Z</time>
      </trkpt>
      <trkpt lat="45.96689" lon="4.77577">
        <ele>225</ele>
        <time>2018-08-18T10:19:59Z</time>
      </trkpt>
      <trkpt lat="45.96681" lon="4.77569">
        <ele>225</ele>
        <time>2018-08-18T10:20:00Z</time>
      </trkpt>
      <trkpt lat="45.96675" lon="4.77562">
        <ele>225</ele>
        <time>2018-08-18T10:20:01Z</time>
      </trkpt>
      <trkpt lat="45.96667" lon="4.77557">
        <ele>225</ele>
        <time>2018-08-18T10:20:02Z</time>
      </trkpt>
      <trkpt lat="45.9666" lon="4.77551">
        <ele>224</ele>
        <time>2018-08-18T10:20:03Z</time>
      </trkpt>
      <trkpt lat="45.96651" lon="4.77546">
        <ele>224</ele>
        <time>2018-08-18T10:20:04Z</time>
      </trkpt>
      <trkpt lat="45.96644" lon="4.77544">
        <ele>224</ele>
        <time>2018-08-18T10:20:05Z</time>
      </trkpt>
      <trkpt lat="45.96631" lon="4.7754">
        <ele>224</ele>
        <time>2018-08-18T10:20:06Z</time>
      </trkpt>
      <trkpt lat="45.96623" lon="4.77533">
        <ele>224</ele>
        <time>2018-08-18T10:20:07Z</time>
      </trkpt>
      <trkpt lat="45.96617" lon="4.77528">
        <ele>224</ele>
        <time>2018-08-18T10:20:08Z</time>
      </trkpt>
      <trkpt lat="45.9661" lon="4.77522">
        <ele>224</ele>
        <time>2018-08-18T10:20:09Z</time>
      </trkpt>
      <trkpt lat="45.96602" lon="4.77519">
        <ele>224</ele>
        <time>2018-08-18T10:20:10Z</time>
      </trkpt>
      <trkpt lat="45.96593" lon="4.77512">
        <ele>224</ele>
        <time>2018-08-18T10:20:11Z</time>
      </trkpt>
      <trkpt lat="45.96585" lon="4.77506">
        <ele>224</ele>
        <time>2018-08-18T10:20:12Z</time>
      </trkpt>
      <trkpt lat="45.96576" lon="4.775">
        <ele>224</ele>
        <time>2018-08-18T10:20:13Z</time>
      </trkpt>
      <trkpt lat="45.96568" lon="4.77495">
        <ele>224</ele>
        <time>2018-08-18T10:20:14Z</time>
      </trkpt>
      <trkpt lat="45.9656" lon="4.77489">
        <ele>224</ele>
        <time>2018-08-18T10:20:15Z</time>
      </trkpt>
      <trkpt lat="45.96552" lon="4.77484">
        <ele>223</ele>
        <time>2018-08-18T10:20:16Z</time>
      </trkpt>
      <trkpt lat="45.96542" lon="4.77478">
        <ele>223</ele>
        <time>2018-08-18T10:20:17Z</time>
      </trkpt>
      <trkpt lat="45.96535" lon="4.77472">
        <ele>223</ele>
        <time>2018-08-18T10:20:18Z</time>
      </trkpt>
      <trkpt lat="45.96527" lon="4.77467">
        <ele>223</ele>
        <time>2018-08-18T10:20:19Z</time>
      </trkpt>
      <trkpt lat="45.96519" lon="4.77461">
        <ele>223</ele>
        <time>2018-08-18T10:20:20Z</time>
      </trkpt>
      <trkpt lat="45.96511" lon="4.77455">
        <ele>223</ele>
        <time>2018-08-18T10:20:21Z</time>
      </trkpt>
      <trkpt lat="45.96502" lon="4.77451">
        <ele>223</ele>
        <time>2018-08-18T10:20:22Z</time>
      </trkpt>
      <trkpt lat="45.96494" lon="4.77445">
        <ele>222</ele>
        <time>2018-08-18T10:20:23Z</time>
      </trkpt>
      <trkpt lat="45.96487" lon="4.77438">
        <ele>222</ele>
        <time>2018-08-18T10:20:24Z</time>
      </trkpt>
      <trkpt lat="45.96478" lon="4.77433">
        <ele>222</ele>
        <time>2018-08-18T10:20:25Z</time>
      </trkpt>
      <trkpt lat="45.96469" lon="4.77427">
        <ele>221</ele>
        <time>2018-08-18T10:20:26Z</time>
      </trkpt>
      <trkpt lat="45.96461" lon="4.77424">
        <ele>221</ele>
        <time>2018-08-18T10:20:27Z</time>
      </trkpt>
      <trkpt lat="45.96451" lon="4.77418">
        <ele>221</ele>
        <time>2018-08-18T10:20:28Z</time>
      </trkpt>
      <trkpt lat="45.96443" lon="4.77412">
        <ele>222</ele>
        <time>2018-08-18T10:20:29Z</time>
      </trkpt>
      <trkpt lat="45.96434" lon="4.77407">
        <ele>222</ele>
        <time>2018-08-18T10:20:30Z</time>
      </trkpt>
      <trkpt lat="45.96424" lon="4.77402">
        <ele>222</ele>
        <time>2018-08-18T10:20:31Z</time>
      </trkpt>
      <trkpt lat="45.96416" lon="4.77397">
        <ele>220</ele>
        <time>2018-08-18T10:20:32Z</time>
      </trkpt>
      <trkpt lat="45.96404" lon="4.77389">
        <ele>220</ele>
        <time>2018-08-18T10:20:33Z</time>
      </trkpt>
      <trkpt lat="45.96398" lon="4.77385">
        <ele>220</ele>
        <time>2018-08-18T10:20:34Z</time>
      </trkpt>
      <trkpt lat="45.9639" lon="4.77381">
        <ele>220</ele>
        <time>2018-08-18T10:20:35Z</time>
      </trkpt>
      <trkpt lat="45.96381" lon="4.77374">
        <ele>220</ele>
        <time>2018-08-18T10:20:36Z</time>
      </trkpt>
      <trkpt lat="45.96373" lon="4.77369">
        <ele>220</ele>
        <time>2018-08-18T10:20:37Z</time>
      </trkpt>
      <trkpt lat="45.96365" lon="4.77366">
        <ele>219</ele>
        <time>2018-08-18T10:20:38Z</time>
      </trkpt>
      <trkpt lat="45.96359" lon="4.77361">
        <ele>219</ele>
        <time>2018-08-18T10:20:39Z</time>
      </trkpt>
      <trkpt lat="45.96352" lon="4.77357">
        <ele>219</ele>
        <time>2018-08-18T10:20:40Z</time>
      </trkpt>
      <trkpt lat="45.96343" lon="4.77352">
        <ele>220</ele>
        <time>2018-08-18T10:20:41Z</time>
      </trkpt>
      <trkpt lat="45.96335" lon="4.77348">
        <ele>220</ele>
        <time>2018-08-18T10:20:42Z</time>
      </trkpt>
      <trkpt lat="45.96328" lon="4.77344">
        <ele>218</ele>
        <time>2018-08-18T10:20:43Z</time>
      </trkpt>
      <trkpt lat="45.96319" lon="4.7734">
        <ele>218</ele>
        <time>2018-08-18T10:20:44Z</time>
      </trkpt>
      <trkpt lat="45.96311" lon="4.77336">
        <ele>218</ele>
        <time>2018-08-18T10:20:45Z</time>
      </trkpt>
      <trkpt lat="45.96304" lon="4.77331">
        <ele>219</ele>
        <time>2018-08-18T10:20:46Z</time>
      </trkpt>
      <trkpt lat="45.96296" lon="4.77326">
        <ele>219</ele>
        <time>2018-08-18T10:20:47Z</time>
      </trkpt>
      <trkpt lat="45.96288" lon="4.77322">
        <ele>219</ele>
        <time>2018-08-18T10:20:48Z</time>
      </trkpt>
      <trkpt lat="45.9628" lon="4.77317">
        <ele>219</ele>
        <time>2018-08-18T10:20:49Z</time>
      </trkpt>
      <trkpt lat="45.96273" lon="4.77313">
        <ele>219</ele>
        <time>2018-08-18T10:20:50Z</time>
      </trkpt>
      <trkpt lat="45.96267" lon="4.77308">
        <ele>219</ele>
        <time>2018-08-18T10:20:51Z</time>
      </trkpt>
      <trkpt lat="45.96259" lon="4.77303">
        <ele>219</ele>
        <time>2018-08-18T10:20:52Z</time>
      </trkpt>
      <trkpt lat="45.96251" lon="4.77299">
        <ele>219</ele>
        <time>2018-08-18T10:20:53Z</time>
      </trkpt>
      <trkpt lat="45.96239" lon="4.77296">
        <ele>217</ele>
        <time>2018-08-18T10:20:54Z</time>
      </trkpt>
      <trkpt lat="45.96231" lon="4.77292">
        <ele>217</ele>
        <time>2018-08-18T10:20:55Z</time>
      </trkpt>
      <trkpt lat="45.96224" lon="4.77289">
        <ele>217</ele>
        <time>2018-08-18T10:20:56Z</time>
      </trkpt>
      <trkpt lat="45.96215" lon="4.77284">
        <ele>217</ele>
        <time>2018-08-18T10:20:57Z</time>
      </trkpt>
      <trkpt lat="45.96207" lon="4.7728">
        <ele>217</ele>
        <time>2018-08-18T10:20:58Z</time>
      </trkpt>
      <trkpt lat="45.962" lon="4.77276">
        <ele>216</ele>
        <time>2018-08-18T10:20:59Z</time>
      </trkpt>
      <trkpt lat="45.96193" lon="4.77269">
        <ele>216</ele>
        <time>2018-08-18T10:21:00Z</time>
      </trkpt>
      <trkpt lat="45.96185" lon="4.77265">
        <ele>216</ele>
        <time>2018-08-18T10:21:01Z</time>
      </trkpt>
      <trkpt lat="45.96177" lon="4.77261">
        <ele>216</ele>
        <time>2018-08-18T10:21:02Z</time>
      </trkpt>
      <trkpt lat="45.96171" lon="4.77256">
        <ele>216</ele>
        <time>2018-08-18T10:21:03Z</time>
      </trkpt>
      <trkpt lat="45.96161" lon="4.7725">
        <ele>216</ele>
        <time>2018-08-18T10:21:04Z</time>
      </trkpt>
      <trkpt lat="45.96153" lon="4.77245">
        <ele>215</ele>
        <time>2018-08-18T10:21:05Z</time>
      </trkpt>
      <trkpt lat="45.96146" lon="4.77243">
        <ele>215</ele>
        <time>2018-08-18T10:21:06Z</time>
      </trkpt>
      <trkpt lat="45.96138" lon="4.77241">
        <ele>215</ele>
        <time>2018-08-18T10:21:07Z</time>
      </trkpt>
      <trkpt lat="45.9613" lon="4.77238">
        <ele>215</ele>
        <time>2018-08-18T10:21:08Z</time>
      </trkpt>
      <trkpt lat="45.96122" lon="4.77237">
        <ele>214</ele>
        <time>2018-08-18T10:21:09Z</time>
      </trkpt>
      <trkpt lat="45.96114" lon="4.77237">
        <ele>214</ele>
        <time>2018-08-18T10:21:10Z</time>
      </trkpt>
      <trkpt lat="45.96106" lon="4.77237">
        <ele>213</ele>
        <time>2018-08-18T10:21:11Z</time>
      </trkpt>
      <trkpt lat="45.96096" lon="4.77238">
        <ele>213</ele>
        <time>2018-08-18T10:21:12Z</time>
      </trkpt>
      <trkpt lat="45.96088" lon="4.77238">
        <ele>212</ele>
        <time>2018-08-18T10:21:13Z</time>
      </trkpt>
      <trkpt lat="45.96079" lon="4.77239">
        <ele>210</ele>
        <time>2018-08-18T10:21:14Z</time>
      </trkpt>
      <trkpt lat="45.96071" lon="4.77242">
        <ele>210</ele>
        <time>2018-08-18T10:21:15Z</time>
      </trkpt>
      <trkpt lat="45.96062" lon="4.77243">
        <ele>209</ele>
        <time>2018-08-18T10:21:16Z</time>
      </trkpt>
      <trkpt lat="45.96053" lon="4.77243">
        <ele>209</ele>
        <time>2018-08-18T10:21:17Z</time>
      </trkpt>
      <trkpt lat="45.96042" lon="4.77245">
        <ele>208</ele>
        <time>2018-08-18T10:21:18Z</time>
      </trkpt>
      <trkpt lat="45.96033" lon="4.77246">
        <ele>208</ele>
        <time>2018-08-18T10:21:19Z</time>
      </trkpt>
      <trkpt lat="45.96023" lon="4.77246">
        <ele>207</ele>
        <time>2018-08-18T10:21:20Z</time>
      </trkpt>
      <trkpt lat="45.96014" lon="4.77245">
        <ele>206</ele>
        <time>2018-08-18T10:21:21Z</time>
      </trkpt>
      <trkpt lat="45.96004" lon="4.77244">
        <ele>205</ele>
        <time>2018-08-18T10:21:22Z</time>
      </trkpt>
      <trkpt lat="45.95993" lon="4.77241">
        <ele>202</ele>
        <time>2018-08-18T10:21:23Z</time>
      </trkpt>
      <trkpt lat="45.95984" lon="4.77236">
        <ele>202</ele>
        <time>2018-08-18T10:21:24Z</time>
      </trkpt>
      <trkpt lat="45.95973" lon="4.77227">
        <ele>202</ele>
        <time>2018-08-18T10:21:25Z</time>
      </trkpt>
      <trkpt lat="45.95965" lon="4.77217">
        <ele>201</ele>
        <time>2018-08-18T10:21:26Z</time>
      </trkpt>
      <trkpt lat="45.95956" lon="4.77206">
        <ele>201</ele>
        <time>2018-08-18T10:21:27Z</time>
      </trkpt>
      <trkpt lat="45.9595" lon="4.77193">
        <ele>201</ele>
        <time>2018-08-18T10:21:28Z</time>
      </trkpt>
      <trkpt lat="45.95945" lon="4.77179">
        <ele>200</ele>
        <time>2018-08-18T10:21:29Z</time>
      </trkpt>
      <trkpt lat="45.95941" lon="4.77164">
        <ele>200</ele>
        <time>2018-08-18T10:21:30Z</time>
      </trkpt>
      <trkpt lat="45.9594" lon="4.77152">
        <ele>201</ele>
        <time>2018-08-18T10:21:31Z</time>
      </trkpt>
      <trkpt lat="45.95938" lon="4.77136">
        <ele>201</ele>
        <time>2018-08-18T10:21:32Z</time>
      </trkpt>
      <trkpt lat="45.95936" lon="4.77121">
        <ele>201</ele>
        <time>2018-08-18T10:21:33Z</time>
      </trkpt>
      <trkpt lat="45.95939" lon="4.77108">
        <ele>201</ele>
        <time>2018-08-18T10:21:34Z</time>
      </trkpt>
      <trkpt lat="45.9594" lon="4.77093">
        <ele>201</ele>
        <time>2018-08-18T10:21:35Z</time>
      </trkpt>
      <trkpt lat="45.95944" lon="4.77079">
        <ele>200</ele>
        <time>2018-08-18T10:21:36Z</time>
      </trkpt>
      <trkpt lat="45.95948" lon="4.77067">
        <ele>200</ele>
        <time>2018-08-18T10:21:37Z</time>
      </trkpt>
      <trkpt lat="45.95952" lon="4.77054">
        <ele>200</ele>
        <time>2018-08-18T10:21:38Z</time>
      </trkpt>
      <trkpt lat="45.95958" lon="4.77041">
        <ele>200</ele>
        <time>2018-08-18T10:21:39Z</time>
      </trkpt>
      <trkpt lat="45.95963" lon="4.77028">
        <ele>200</ele>
        <time>2018-08-18T10:21:40Z</time>
      </trkpt>
      <trkpt lat="45.95968" lon="4.77016">
        <ele>200</ele>
        <time>2018-08-18T10:21:41Z</time>
      </trkpt>
      <trkpt lat="45.95975" lon="4.77006">
        <ele>200</ele>
        <time>2018-08-18T10:21:42Z</time>
      </trkpt>
      <trkpt lat="45.9598" lon="4.76994">
        <ele>198</ele>
        <time>2018-08-18T10:21:43Z</time>
      </trkpt>
      <trkpt lat="45.95982" lon="4.7698">
        <ele>197</ele>
        <time>2018-08-18T10:21:44Z</time>
      </trkpt>
      <trkpt lat="45.95983" lon="4.76967">
        <ele>197</ele>
        <time>2018-08-18T10:21:45Z</time>
      </trkpt>
      <trkpt lat="45.95983" lon="4.76955">
        <ele>196</ele>
        <time>2018-08-18T10:21:46Z</time>
      </trkpt>
      <trkpt lat="45.95981" lon="4.7694">
        <ele>196</ele>
        <time>2018-08-18T10:21:47Z</time>
      </trkpt>
      <trkpt lat="45.95978" lon="4.76935">
        <ele>196</ele>
        <time>2018-08-18T10:21:48Z</time>
      </trkpt>
      <trkpt lat="45.95974" lon="4.76924">
        <ele>195</ele>
        <time>2018-08-18T10:21:49Z</time>
      </trkpt>
      <trkpt lat="45.95964" lon="4.76914">
        <ele>193</ele>
        <time>2018-08-18T10:21:50Z</time>
      </trkpt>
      <trkpt lat="45.95955" lon="4.76902">
        <ele>193</ele>
        <time>2018-08-18T10:21:51Z</time>
      </trkpt>
      <trkpt lat="45.95935" lon="4.76891">
        <ele>192</ele>
        <time>2018-08-18T10:21:52Z</time>
      </trkpt>
      <trkpt lat="45.95928" lon="4.76887">
        <ele>192</ele>
        <time>2018-08-18T10:21:53Z</time>
      </trkpt>
      <trkpt lat="45.95919" lon="4.76882">
        <ele>192</ele>
        <time>2018-08-18T10:21:54Z</time>
      </trkpt>
      <trkpt lat="45.95912" lon="4.76872">
        <ele>191</ele>
        <time>2018-08-18T10:21:55Z</time>
      </trkpt>
      <trkpt lat="45.95904" lon="4.76862">
        <ele>191</ele>
        <time>2018-08-18T10:21:56Z</time>
      </trkpt>
      <trkpt lat="45.95893" lon="4.76853">
        <ele>191</ele>
        <time>2018-08-18T10:21:57Z</time>
      </trkpt>
      <trkpt lat="45.95883" lon="4.76844">
        <ele>191</ele>
        <time>2018-08-18T10:21:58Z</time>
      </trkpt>
      <trkpt lat="45.95876" lon="4.76835">
        <ele>191</ele>
        <time>2018-08-18T10:21:59Z</time>
      </trkpt>
      <trkpt lat="45.95869" lon="4.76828">
        <ele>191</ele>
        <time>2018-08-18T10:22:00Z</time>
      </trkpt>
      <trkpt lat="45.95862" lon="4.76819">
        <ele>191</ele>
        <time>2018-08-18T10:22:01Z</time>
      </trkpt>
      <trkpt lat="45.95855" lon="4.7681">
        <ele>191</ele>
        <time>2018-08-18T10:22:02Z</time>
      </trkpt>
      <trkpt lat="45.95845" lon="4.76802">
        <ele>191</ele>
        <time>2018-08-18T10:22:03Z</time>
      </trkpt>
      <trkpt lat="45.95838" lon="4.76791">
        <ele>191</ele>
        <time>2018-08-18T10:22:04Z</time>
      </trkpt>
      <trkpt lat="45.95831" lon="4.76781">
        <ele>190</ele>
        <time>2018-08-18T10:22:05Z</time>
      </trkpt>
      <trkpt lat="45.95827" lon="4.76771">
        <ele>190</ele>
        <time>2018-08-18T10:22:06Z</time>
      </trkpt>
      <trkpt lat="45.95824" lon="4.76758">
        <ele>191</ele>
        <time>2018-08-18T10:22:07Z</time>
      </trkpt>
      <trkpt lat="45.95822" lon="4.76745">
        <ele>190</ele>
        <time>2018-08-18T10:22:08Z</time>
      </trkpt>
      <trkpt lat="45.9582" lon="4.76734">
        <ele>190</ele>
        <time>2018-08-18T10:22:09Z</time>
      </trkpt>
      <trkpt lat="45.95819" lon="4.76721">
        <ele>189</ele>
        <time>2018-08-18T10:22:10Z</time>
      </trkpt>
      <trkpt lat="45.95817" lon="4.76709">
        <ele>189</ele>
        <time>2018-08-18T10:22:11Z</time>
      </trkpt>
      <trkpt lat="45.95814" lon="4.76699">
        <ele>189</ele>
        <time>2018-08-18T10:22:12Z</time>
      </trkpt>
      <trkpt lat="45.95812" lon="4.76687">
        <ele>189</ele>
        <time>2018-08-18T10:22:13Z</time>
      </trkpt>
      <trkpt lat="45.95811" lon="4.76676">
        <ele>189</ele>
        <time>2018-08-18T10:22:14Z</time>
      </trkpt>
      <trkpt lat="45.9581" lon="4.76666">
        <ele>188</ele>
        <time>2018-08-18T10:22:15Z</time>
      </trkpt>
      <trkpt lat="45.95809" lon="4.76656">
        <ele>188</ele>
        <time>2018-08-18T10:22:16Z</time>
      </trkpt>
      <trkpt lat="45.95807" lon="4.76645">
        <ele>188</ele>
        <time>2018-08-18T10:22:17Z</time>
      </trkpt>
      <trkpt lat="45.95805" lon="4.76636">
        <ele>188</ele>
        <time>2018-08-18T10:22:18Z</time>
      </trkpt>
      <trkpt lat="45.95804" lon="4.76626">
        <ele>188</ele>
        <time>2018-08-18T10:22:19Z</time>
      </trkpt>
      <trkpt lat="45.95803" lon="4.76617">
        <ele>188</ele>
        <time>2018-08-18T10:22:20Z</time>
      </trkpt>
      <trkpt lat="45.958" lon="4.76608">
        <ele>187</ele>
        <time>2018-08-18T10:22:21Z</time>
      </trkpt>
      <trkpt lat="45.95798" lon="4.766">
        <ele>187</ele>
        <time>2018-08-18T10:22:22Z</time>
      </trkpt>
      <trkpt lat="45.95796" lon="4.76591">
        <ele>187</ele>
        <time>2018-08-18T10:22:23Z</time>
      </trkpt>
      <trkpt lat="45.95795" lon="4.76584">
        <ele>187</ele>
        <time>2018-08-18T10:22:24Z</time>
      </trkpt>
      <trkpt lat="45.95793" lon="4.76575">
        <ele>187</ele>
        <time>2018-08-18T10:22:25Z</time>
      </trkpt>
      <trkpt lat="45.95793" lon="4.76568">
        <ele>187</ele>
        <time>2018-08-18T10:22:26Z</time>
      </trkpt>
      <trkpt lat="45.95791" lon="4.76559">
        <ele>187</ele>
        <time>2018-08-18T10:22:27Z</time>
      </trkpt>
      <trkpt lat="45.95789" lon="4.7655">
        <ele>187</ele>
        <time>2018-08-18T10:22:28Z</time>
      </trkpt>
      <trkpt lat="45.95789" lon="4.76541">
        <ele>187</ele>
        <time>2018-08-18T10:22:29Z</time>
      </trkpt>
      <trkpt lat="45.95787" lon="4.76531">
        <ele>187</ele>
        <time>2018-08-18T10:22:30Z</time>
      </trkpt>
      <trkpt lat="45.95787" lon="4.76523">
        <ele>187</ele>
        <time>2018-08-18T10:22:31Z</time>
      </trkpt>
      <trkpt lat="45.95786" lon="4.76514">
        <ele>187</ele>
        <time>2018-08-18T10:22:32Z</time>
      </trkpt>
      <trkpt lat="45.95787" lon="4.76506">
        <ele>187</ele>
        <time>2018-08-18T10:22:33Z</time>
      </trkpt>
      <trkpt lat="45.95785" lon="4.76497">
        <ele>186</ele>
        <time>2018-08-18T10:22:34Z</time>
      </trkpt>
      <trkpt lat="45.95783" lon="4.76488">
        <ele>186</ele>
        <time>2018-08-18T10:22:35Z</time>
      </trkpt>
      <trkpt lat="45.95782" lon="4.76479">
        <ele>186</ele>
        <time>2018-08-18T10:22:36Z</time>
      </trkpt>
      <trkpt lat="45.95781" lon="4.7647">
        <ele>186</ele>
        <time>2018-08-18T10:22:37Z</time>
      </trkpt>
      <trkpt lat="45.9578" lon="4.76463">
        <ele>186</ele>
        <time>2018-08-18T10:22:38Z</time>
      </trkpt>
      <trkpt lat="45.95779" lon="4.76452">
        <ele>186</ele>
        <time>2018-08-18T10:22:39Z</time>
      </trkpt>
      <trkpt lat="45.95777" lon="4.76444">
        <ele>186</ele>
        <time>2018-08-18T10:22:40Z</time>
      </trkpt>
      <trkpt lat="45.95777" lon="4.76435">
        <ele>186</ele>
        <time>2018-08-18T10:22:41Z</time>
      </trkpt>
      <trkpt lat="45.95776" lon="4.76427">
        <ele>186</ele>
        <time>2018-08-18T10:22:42Z</time>
      </trkpt>
      <trkpt lat="45.95775" lon="4.76419">
        <ele>186</ele>
        <time>2018-08-18T10:22:43Z</time>
      </trkpt>
      <trkpt lat="45.95775" lon="4.7641">
        <ele>186</ele>
        <time>2018-08-18T10:22:44Z</time>
      </trkpt>
      <trkpt lat="45.95776" lon="4.76402">
        <ele>186</ele>
        <time>2018-08-18T10:22:45Z</time>
      </trkpt>
      <trkpt lat="45.95775" lon="4.76394">
        <ele>186</ele>
        <time>2018-08-18T10:22:46Z</time>
      </trkpt>
      <trkpt lat="45.95774" lon="4.76385">
        <ele>186</ele>
        <time>2018-08-18T10:22:47Z</time>
      </trkpt>
      <trkpt lat="45.95773" lon="4.76376">
        <ele>186</ele>
        <time>2018-08-18T10:22:48Z</time>
      </trkpt>
      <trkpt lat="45.95773" lon="4.76367">
        <ele>186</ele>
        <time>2018-08-18T10:22:49Z</time>
      </trkpt>
      <trkpt lat="45.95773" lon="4.76358">
        <ele>186</ele>
        <time>2018-08-18T10:22:50Z</time>
      </trkpt>
      <trkpt lat="45.95772" lon="4.76349">
        <ele>186</ele>
        <time>2018-08-18T10:22:51Z</time>
      </trkpt>
      <trkpt lat="45.95771" lon="4.76341">
        <ele>186</ele>
        <time>2018-08-18T10:22:52Z</time>
      </trkpt>
      <trkpt lat="45.95772" lon="4.76334">
        <ele>186</ele>
        <time>2018-08-18T10:22:53Z</time>
      </trkpt>
      <trkpt lat="45.95771" lon="4.76324">
        <ele>185</ele>
        <time>2018-08-18T10:22:54Z</time>
      </trkpt>
      <trkpt lat="45.95772" lon="4.76315">
        <ele>185</ele>
        <time>2018-08-18T10:22:55Z</time>
      </trkpt>
      <trkpt lat="45.95772" lon="4.76305">
        <ele>186</ele>
        <time>2018-08-18T10:22:56Z</time>
      </trkpt>
      <trkpt lat="45.9577" lon="4.76296">
        <ele>186</ele>
        <time>2018-08-18T10:22:57Z</time>
      </trkpt>
      <trkpt lat="45.95769" lon="4.76286">
        <ele>186</ele>
        <time>2018-08-18T10:22:58Z</time>
      </trkpt>
      <trkpt lat="45.95768" lon="4.76277">
        <ele>186</ele>
        <time>2018-08-18T10:22:59Z</time>
      </trkpt>
      <trkpt lat="45.9577" lon="4.76269">
        <ele>186</ele>
        <time>2018-08-18T10:23:00Z</time>
      </trkpt>
      <trkpt lat="45.9577" lon="4.76261">
        <ele>185</ele>
        <time>2018-08-18T10:23:01Z</time>
      </trkpt>
      <trkpt lat="45.95768" lon="4.76252">
        <ele>185</ele>
        <time>2018-08-18T10:23:02Z</time>
      </trkpt>
      <trkpt lat="45.95766" lon="4.76242">
        <ele>186</ele>
        <time>2018-08-18T10:23:03Z</time>
      </trkpt>
      <trkpt lat="45.95766" lon="4.76234">
        <ele>186</ele>
        <time>2018-08-18T10:23:04Z</time>
      </trkpt>
      <trkpt lat="45.95765" lon="4.76226">
        <ele>186</ele>
        <time>2018-08-18T10:23:05Z</time>
      </trkpt>
      <trkpt lat="45.95764" lon="4.76217">
        <ele>186</ele>
        <time>2018-08-18T10:23:06Z</time>
      </trkpt>
      <trkpt lat="45.95764" lon="4.76206">
        <ele>186</ele>
        <time>2018-08-18T10:23:07Z</time>
      </trkpt>
      <trkpt lat="45.95764" lon="4.76197">
        <ele>186</ele>
        <time>2018-08-18T10:23:08Z</time>
      </trkpt>
      <trkpt lat="45.95768" lon="4.76194">
        <ele>186</ele>
        <time>2018-08-18T10:23:09Z</time>
      </trkpt>
      <trkpt lat="45.95767" lon="4.76185">
        <ele>186</ele>
        <time>2018-08-18T10:23:10Z</time>
      </trkpt>
      <trkpt lat="45.95766" lon="4.76176">
        <ele>186</ele>
        <time>2018-08-18T10:23:11Z</time>
      </trkpt>
      <trkpt lat="45.95766" lon="4.76168">
        <ele>185</ele>
        <time>2018-08-18T10:23:12Z</time>
      </trkpt>
      <trkpt lat="45.95765" lon="4.76159">
        <ele>186</ele>
        <time>2018-08-18T10:23:13Z</time>
      </trkpt>
      <trkpt lat="45.95763" lon="4.76151">
        <ele>186</ele>
        <time>2018-08-18T10:23:14Z</time>
      </trkpt>
      <trkpt lat="45.95763" lon="4.76143">
        <ele>186</ele>
        <time>2018-08-18T10:23:15Z</time>
      </trkpt>
      <trkpt lat="45.95761" lon="4.76134">
        <ele>186</ele>
        <time>2018-08-18T10:23:16Z</time>
      </trkpt>
      <trkpt lat="45.9576" lon="4.76125">
        <ele>186</ele>
        <time>2018-08-18T10:23:17Z</time>
      </trkpt>
      <trkpt lat="45.95759" lon="4.76117">
        <ele>186</ele>
        <time>2018-08-18T10:23:18Z</time>
      </trkpt>
      <trkpt lat="45.95757" lon="4.76108">
        <ele>186</ele>
        <time>2018-08-18T10:23:19Z</time>
      </trkpt>
      <trkpt lat="45.95756" lon="4.761">
        <ele>186</ele>
        <time>2018-08-18T10:23:20Z</time>
      </trkpt>
      <trkpt lat="45.95754" lon="4.76091">
        <ele>185</ele>
        <time>2018-08-18T10:23:21Z</time>
      </trkpt>
      <trkpt lat="45.95751" lon="4.76082">
        <ele>185</ele>
        <time>2018-08-18T10:23:22Z</time>
      </trkpt>
      <trkpt lat="45.95748" lon="4.76073">
        <ele>185</ele>
        <time>2018-08-18T10:23:23Z</time>
      </trkpt>
      <trkpt lat="45.95745" lon="4.76065">
        <ele>185</ele>
        <time>2018-08-18T10:23:24Z</time>
      </trkpt>
      <trkpt lat="45.9574" lon="4.76056">
        <ele>184</ele>
        <time>2018-08-18T10:23:25Z</time>
      </trkpt>
      <trkpt lat="45.95736" lon="4.76047">
        <ele>184</ele>
        <time>2018-08-18T10:23:26Z</time>
      </trkpt>
      <trkpt lat="45.95732" lon="4.76039">
        <ele>184</ele>
        <time>2018-08-18T10:23:27Z</time>
      </trkpt>
      <trkpt lat="45.95728" lon="4.7603">
        <ele>184</ele>
        <time>2018-08-18T10:23:28Z</time>
      </trkpt>
      <trkpt lat="45.95724" lon="4.76022">
        <ele>184</ele>
        <time>2018-08-18T10:23:29Z</time>
      </trkpt>
      <trkpt lat="45.95719" lon="4.76015">
        <ele>184</ele>
        <time>2018-08-18T10:23:30Z</time>
      </trkpt>
      <trkpt lat="45.95716" lon="4.76007">
        <ele>184</ele>
        <time>2018-08-18T10:23:31Z</time>
      </trkpt>
      <trkpt lat="45.95712" lon="4.75999">
        <ele>185</ele>
        <time>2018-08-18T10:23:32Z</time>
      </trkpt>
      <trkpt lat="45.95707" lon="4.7599">
        <ele>185</ele>
        <time>2018-08-18T10:23:33Z</time>
      </trkpt>
      <trkpt lat="45.95704" lon="4.75982">
        <ele>185</ele>
        <time>2018-08-18T10:23:34Z</time>
      </trkpt>
      <trkpt lat="45.95701" lon="4.75974">
        <ele>185</ele>
        <time>2018-08-18T10:23:35Z</time>
      </trkpt>
      <trkpt lat="45.95697" lon="4.75966">
        <ele>185</ele>
        <time>2018-08-18T10:23:36Z</time>
      </trkpt>
      <trkpt lat="45.95694" lon="4.75959">
        <ele>185</ele>
        <time>2018-08-18T10:23:37Z</time>
      </trkpt>
      <trkpt lat="45.95689" lon="4.75951">
        <ele>185</ele>
        <time>2018-08-18T10:23:38Z</time>
      </trkpt>
      <trkpt lat="45.95686" lon="4.75943">
        <ele>185</ele>
        <time>2018-08-18T10:23:39Z</time>
      </trkpt>
      <trkpt lat="45.95683" lon="4.75934">
        <ele>185</ele>
        <time>2018-08-18T10:23:40Z</time>
      </trkpt>
      <trkpt lat="45.9568" lon="4.75927">
        <ele>185</ele>
        <time>2018-08-18T10:23:41Z</time>
      </trkpt>
      <trkpt lat="45.95677" lon="4.75919">
        <ele>184</ele>
        <time>2018-08-18T10:23:42Z</time>
      </trkpt>
      <trkpt lat="45.95673" lon="4.75911">
        <ele>185</ele>
        <time>2018-08-18T10:23:43Z</time>
      </trkpt>
      <trkpt lat="45.9567" lon="4.75903">
        <ele>185</ele>
        <time>2018-08-18T10:23:44Z</time>
      </trkpt>
      <trkpt lat="45.95668" lon="4.75894">
        <ele>186</ele>
        <time>2018-08-18T10:23:45Z</time>
      </trkpt>
      <trkpt lat="45.95666" lon="4.75887">
        <ele>184</ele>
        <time>2018-08-18T10:23:46Z</time>
      </trkpt>
      <trkpt lat="45.95663" lon="4.75878">
        <ele>184</ele>
        <time>2018-08-18T10:23:47Z</time>
      </trkpt>
      <trkpt lat="45.95661" lon="4.75869">
        <ele>184</ele>
        <time>2018-08-18T10:23:48Z</time>
      </trkpt>
      <trkpt lat="45.9566" lon="4.7586">
        <ele>184</ele>
        <time>2018-08-18T10:23:49Z</time>
      </trkpt>
      <trkpt lat="45.95658" lon="4.75848">
        <ele>185</ele>
        <time>2018-08-18T10:23:50Z</time>
      </trkpt>
      <trkpt lat="45.95654" lon="4.75839">
        <ele>185</ele>
        <time>2018-08-18T10:23:51Z</time>
      </trkpt>
      <trkpt lat="45.95653" lon="4.75834">
        <ele>185</ele>
        <time>2018-08-18T10:23:52Z</time>
      </trkpt>
      <trkpt lat="45.95649" lon="4.75825">
        <ele>185</ele>
        <time>2018-08-18T10:23:53Z</time>
      </trkpt>
      <trkpt lat="45.95651" lon="4.75818">
        <ele>185</ele>
        <time>2018-08-18T10:23:54Z</time>
      </trkpt>
      <trkpt lat="45.95653" lon="4.7581">
        <ele>185</ele>
        <time>2018-08-18T10:23:55Z</time>
      </trkpt>
      <trkpt lat="45.95651" lon="4.75802">
        <ele>185</ele>
        <time>2018-08-18T10:23:56Z</time>
      </trkpt>
      <trkpt lat="45.9565" lon="4.75794">
        <ele>186</ele>
        <time>2018-08-18T10:23:57Z</time>
      </trkpt>
      <trkpt lat="45.95648" lon="4.75783">
        <ele>186</ele>
        <time>2018-08-18T10:23:58Z</time>
      </trkpt>
      <trkpt lat="45.95646" lon="4.75775">
        <ele>186</ele>
        <time>2018-08-18T10:23:59Z</time>
      </trkpt>
      <trkpt lat="45.95645" lon="4.75767">
        <ele>186</ele>
        <time>2018-08-18T10:24:00Z</time>
      </trkpt>
      <trkpt lat="45.95644" lon="4.75759">
        <ele>186</ele>
        <time>2018-08-18T10:24:01Z</time>
      </trkpt>
      <trkpt lat="45.95639" lon="4.75749">
        <ele>187</ele>
        <time>2018-08-18T10:24:02Z</time>
      </trkpt>
      <trkpt lat="45.95637" lon="4.7574">
        <ele>187</ele>
        <time>2018-08-18T10:24:03Z</time>
      </trkpt>
      <trkpt lat="45.95636" lon="4.75732">
        <ele>187</ele>
        <time>2018-08-18T10:24:04Z</time>
      </trkpt>
      <trkpt lat="45.95633" lon="4.75722">
        <ele>187</ele>
        <time>2018-08-18T10:24:05Z</time>
      </trkpt>
      <trkpt lat="45.95632" lon="4.75712">
        <ele>187</ele>
        <time>2018-08-18T10:24:06Z</time>
      </trkpt>
      <trkpt lat="45.9563" lon="4.75702">
        <ele>187</ele>
        <time>2018-08-18T10:24:07Z</time>
      </trkpt>
      <trkpt lat="45.95627" lon="4.75693">
        <ele>187</ele>
        <time>2018-08-18T10:24:08Z</time>
      </trkpt>
      <trkpt lat="45.95626" lon="4.75684">
        <ele>187</ele>
        <time>2018-08-18T10:24:09Z</time>
      </trkpt>
      <trkpt lat="45.95625" lon="4.75676">
        <ele>187</ele>
        <time>2018-08-18T10:24:10Z</time>
      </trkpt>
      <trkpt lat="45.95623" lon="4.75667">
        <ele>187</ele>
        <time>2018-08-18T10:24:11Z</time>
      </trkpt>
      <trkpt lat="45.95622" lon="4.7566">
        <ele>188</ele>
        <time>2018-08-18T10:24:12Z</time>
      </trkpt>
      <trkpt lat="45.95618" lon="4.7565">
        <ele>188</ele>
        <time>2018-08-18T10:24:13Z</time>
      </trkpt>
      <trkpt lat="45.95617" lon="4.75644">
        <ele>188</ele>
        <time>2018-08-18T10:24:14Z</time>
      </trkpt>
      <trkpt lat="45.95615" lon="4.75637">
        <ele>188</ele>
        <time>2018-08-18T10:24:15Z</time>
      </trkpt>
      <trkpt lat="45.95613" lon="4.7563">
        <ele>188</ele>
        <time>2018-08-18T10:24:16Z</time>
      </trkpt>
      <trkpt lat="45.95611" lon="4.75623">
        <ele>188</ele>
        <time>2018-08-18T10:24:17Z</time>
      </trkpt>
      <trkpt lat="45.95609" lon="4.75616">
        <ele>188</ele>
        <time>2018-08-18T10:24:18Z</time>
      </trkpt>
      <trkpt lat="45.95608" lon="4.7561">
        <ele>188</ele>
        <time>2018-08-18T10:24:19Z</time>
      </trkpt>
      <trkpt lat="45.95605" lon="4.75604">
        <ele>187</ele>
        <time>2018-08-18T10:24:20Z</time>
      </trkpt>
      <trkpt lat="45.95602" lon="4.75596">
        <ele>187</ele>
        <time>2018-08-18T10:24:21Z</time>
      </trkpt>
      <trkpt lat="45.95598" lon="4.75588">
        <ele>187</ele>
        <time>2018-08-18T10:24:22Z</time>
      </trkpt>
      <trkpt lat="45.95596" lon="4.7558">
        <ele>187</ele>
        <time>2018-08-18T10:24:23Z</time>
      </trkpt>
      <trkpt lat="45.95594" lon="4.75571">
        <ele>188</ele>
        <time>2018-08-18T10:24:24Z</time>
      </trkpt>
      <trkpt lat="45.95592" lon="4.75565">
        <ele>188</ele>
        <time>2018-08-18T10:24:25Z</time>
      </trkpt>
      <trkpt lat="45.95588" lon="4.75558">
        <ele>188</ele>
        <time>2018-08-18T10:24:26Z</time>
      </trkpt>
      <trkpt lat="45.95583" lon="4.75551">
        <ele>186</ele>
        <time>2018-08-18T10:24:27Z</time>
      </trkpt>
      <trkpt lat="45.95576" lon="4.75546">
        <ele>186</ele>
        <time>2018-08-18T10:24:28Z</time>
      </trkpt>
      <trkpt lat="45.9557" lon="4.75539">
        <ele>186</ele>
        <time>2018-08-18T10:24:29Z</time>
      </trkpt>
      <trkpt lat="45.95564" lon="4.75533">
        <ele>186</ele>
        <time>2018-08-18T10:24:30Z</time>
      </trkpt>
      <trkpt lat="45.95558" lon="4.75527">
        <ele>186</ele>
        <time>2018-08-18T10:24:31Z</time>
      </trkpt>
      <trkpt lat="45.95553" lon="4.75521">
        <ele>186</ele>
        <time>2018-08-18T10:24:32Z</time>
      </trkpt>
      <trkpt lat="45.95548" lon="4.75514">
        <ele>186</ele>
        <time>2018-08-18T10:24:33Z</time>
      </trkpt>
      <trkpt lat="45.95542" lon="4.75506">
        <ele>186</ele>
        <time>2018-08-18T10:24:34Z</time>
      </trkpt>
      <trkpt lat="45.95538" lon="4.75501">
        <ele>186</ele>
        <time>2018-08-18T10:24:35Z</time>
      </trkpt>
      <trkpt lat="45.95536" lon="4.75493">
        <ele>187</ele>
        <time>2018-08-18T10:24:36Z</time>
      </trkpt>
      <trkpt lat="45.95534" lon="4.75484">
        <ele>187</ele>
        <time>2018-08-18T10:24:37Z</time>
      </trkpt>
      <trkpt lat="45.95536" lon="4.75477">
        <ele>187</ele>
        <time>2018-08-18T10:24:38Z</time>
      </trkpt>
      <trkpt lat="45.95536" lon="4.75469">
        <ele>187</ele>
        <time>2018-08-18T10:24:39Z</time>
      </trkpt>
      <trkpt lat="45.95535" lon="4.75463">
        <ele>187</ele>
        <time>2018-08-18T10:24:40Z</time>
      </trkpt>
      <trkpt lat="45.9553" lon="4.75454">
        <ele>187</ele>
        <time>2018-08-18T10:24:41Z</time>
      </trkpt>
      <trkpt lat="45.95525" lon="4.75446">
        <ele>187</ele>
        <time>2018-08-18T10:24:42Z</time>
      </trkpt>
      <trkpt lat="45.9552" lon="4.7544">
        <ele>187</ele>
        <time>2018-08-18T10:24:43Z</time>
      </trkpt>
      <trkpt lat="45.95517" lon="4.75429">
        <ele>186</ele>
        <time>2018-08-18T10:24:44Z</time>
      </trkpt>
      <trkpt lat="45.95512" lon="4.7542">
        <ele>186</ele>
        <time>2018-08-18T10:24:45Z</time>
      </trkpt>
      <trkpt lat="45.9551" lon="4.75412">
        <ele>187</ele>
        <time>2018-08-18T10:24:46Z</time>
      </trkpt>
      <trkpt lat="45.95508" lon="4.75403">
        <ele>187</ele>
        <time>2018-08-18T10:24:47Z</time>
      </trkpt>
      <trkpt lat="45.95505" lon="4.75396">
        <ele>188</ele>
        <time>2018-08-18T10:24:48Z</time>
      </trkpt>
      <trkpt lat="45.95501" lon="4.75388">
        <ele>188</ele>
        <time>2018-08-18T10:24:49Z</time>
      </trkpt>
      <trkpt lat="45.95497" lon="4.7538">
        <ele>185</ele>
        <time>2018-08-18T10:24:50Z</time>
      </trkpt>
      <trkpt lat="45.95496" lon="4.75373">
        <ele>185</ele>
        <time>2018-08-18T10:24:51Z</time>
      </trkpt>
      <trkpt lat="45.9549" lon="4.75365">
        <ele>186</ele>
        <time>2018-08-18T10:24:52Z</time>
      </trkpt>
      <trkpt lat="45.95486" lon="4.75357">
        <ele>186</ele>
        <time>2018-08-18T10:24:53Z</time>
      </trkpt>
      <trkpt lat="45.9548" lon="4.7535">
        <ele>186</ele>
        <time>2018-08-18T10:24:54Z</time>
      </trkpt>
      <trkpt lat="45.95476" lon="4.75344">
        <ele>186</ele>
        <time>2018-08-18T10:24:55Z</time>
      </trkpt>
      <trkpt lat="45.95473" lon="4.75338">
        <ele>186</ele>
        <time>2018-08-18T10:24:56Z</time>
      </trkpt>
      <trkpt lat="45.95468" lon="4.75331">
        <ele>188</ele>
        <time>2018-08-18T10:24:57Z</time>
      </trkpt>
      <trkpt lat="45.95466" lon="4.75325">
        <ele>188</ele>
        <time>2018-08-18T10:24:58Z</time>
      </trkpt>
      <trkpt lat="45.95462" lon="4.75317">
        <ele>188</ele>
        <time>2018-08-18T10:24:59Z</time>
      </trkpt>
      <trkpt lat="45.9546" lon="4.7531">
        <ele>188</ele>
        <time>2018-08-18T10:25:00Z</time>
      </trkpt>
      <trkpt lat="45.95457" lon="4.75304">
        <ele>188</ele>
        <time>2018-08-18T10:25:01Z</time>
      </trkpt>
      <trkpt lat="45.95454" lon="4.75296">
        <ele>188</ele>
        <time>2018-08-18T10:25:02Z</time>
      </trkpt>
      <trkpt lat="45.95448" lon="4.75286">
        <ele>188</ele>
        <time>2018-08-18T10:25:04Z</time>
      </trkpt>
      <trkpt lat="45.95445" lon="4.75281">
        <ele>188</ele>
        <time>2018-08-18T10:25:05Z</time>
      </trkpt>
      <trkpt lat="45.95443" lon="4.75276">
        <ele>189</ele>
        <time>2018-08-18T10:25:06Z</time>
      </trkpt>
      <trkpt lat="45.9544" lon="4.7527">
        <ele>189</ele>
        <time>2018-08-18T10:25:07Z</time>
      </trkpt>
      <trkpt lat="45.95437" lon="4.75264">
        <ele>189</ele>
        <time>2018-08-18T10:25:08Z</time>
      </trkpt>
      <trkpt lat="45.95433" lon="4.75258">
        <ele>189</ele>
        <time>2018-08-18T10:25:09Z</time>
      </trkpt>
      <trkpt lat="45.9543" lon="4.75248">
        <ele>190</ele>
        <time>2018-08-18T10:25:11Z</time>
      </trkpt>
      <trkpt lat="45.95427" lon="4.7524">
        <ele>190</ele>
        <time>2018-08-18T10:25:12Z</time>
      </trkpt>
      <trkpt lat="45.95423" lon="4.75235">
        <ele>190</ele>
        <time>2018-08-18T10:25:13Z</time>
      </trkpt>
      <trkpt lat="45.95419" lon="4.75229">
        <ele>191</ele>
        <time>2018-08-18T10:25:14Z</time>
      </trkpt>
      <trkpt lat="45.95415" lon="4.75219">
        <ele>189</ele>
        <time>2018-08-18T10:25:16Z</time>
      </trkpt>
      <trkpt lat="45.95411" lon="4.75213">
        <ele>189</ele>
        <time>2018-08-18T10:25:17Z</time>
      </trkpt>
      <trkpt lat="45.95408" lon="4.75207">
        <ele>189</ele>
        <time>2018-08-18T10:25:18Z</time>
      </trkpt>
      <trkpt lat="45.95404" lon="4.75201">
        <ele>189</ele>
        <time>2018-08-18T10:25:19Z</time>
      </trkpt>
      <trkpt lat="45.95404" lon="4.75193">
        <ele>189</ele>
        <time>2018-08-18T10:25:20Z</time>
      </trkpt>
      <trkpt lat="45.95403" lon="4.75186">
        <ele>189</ele>
        <time>2018-08-18T10:25:21Z</time>
      </trkpt>
      <trkpt lat="45.95399" lon="4.75175">
        <ele>189</ele>
        <time>2018-08-18T10:25:23Z</time>
      </trkpt>
      <trkpt lat="45.95395" lon="4.75169">
        <ele>189</ele>
        <time>2018-08-18T10:25:24Z</time>
      </trkpt>
      <trkpt lat="45.95392" lon="4.75163">
        <ele>191</ele>
        <time>2018-08-18T10:25:25Z</time>
      </trkpt>
      <trkpt lat="45.95384" lon="4.75156">
        <ele>191</ele>
        <time>2018-08-18T10:25:26Z</time>
      </trkpt>
      <trkpt lat="45.95381" lon="4.7515">
        <ele>191</ele>
        <time>2018-08-18T10:25:27Z</time>
      </trkpt>
      <trkpt lat="45.95375" lon="4.75146">
        <ele>191</ele>
        <time>2018-08-18T10:25:28Z</time>
      </trkpt>
      <trkpt lat="45.95372" lon="4.75141">
        <ele>191</ele>
        <time>2018-08-18T10:25:29Z</time>
      </trkpt>
      <trkpt lat="45.95368" lon="4.75135">
        <ele>191</ele>
        <time>2018-08-18T10:25:30Z</time>
      </trkpt>
      <trkpt lat="45.95365" lon="4.7513">
        <ele>191</ele>
        <time>2018-08-18T10:25:31Z</time>
      </trkpt>
      <trkpt lat="45.95362" lon="4.75125">
        <ele>191</ele>
        <time>2018-08-18T10:25:32Z</time>
      </trkpt>
      <trkpt lat="45.95358" lon="4.75122">
        <ele>191</ele>
        <time>2018-08-18T10:25:33Z</time>
      </trkpt>
      <trkpt lat="45.95352" lon="4.75114">
        <ele>192</ele>
        <time>2018-08-18T10:25:34Z</time>
      </trkpt>
      <trkpt lat="45.95349" lon="4.7511">
        <ele>192</ele>
        <time>2018-08-18T10:25:35Z</time>
      </trkpt>
      <trkpt lat="45.95345" lon="4.75105">
        <ele>192</ele>
        <time>2018-08-18T10:25:36Z</time>
      </trkpt>
      <trkpt lat="45.95341" lon="4.75098">
        <ele>192</ele>
        <time>2018-08-18T10:25:37Z</time>
      </trkpt>
      <trkpt lat="45.95338" lon="4.75092">
        <ele>192</ele>
        <time>2018-08-18T10:25:38Z</time>
      </trkpt>
      <trkpt lat="45.95329" lon="4.75083">
        <ele>193</ele>
        <time>2018-08-18T10:25:39Z</time>
      </trkpt>
      <trkpt lat="45.95323" lon="4.75074">
        <ele>192</ele>
        <time>2018-08-18T10:25:41Z</time>
      </trkpt>
      <trkpt lat="45.95319" lon="4.75069">
        <ele>192</ele>
        <time>2018-08-18T10:25:42Z</time>
      </trkpt>
      <trkpt lat="45.95316" lon="4.75059">
        <ele>192</ele>
        <time>2018-08-18T10:25:44Z</time>
      </trkpt>
      <trkpt lat="45.95312" lon="4.75053">
        <ele>192</ele>
        <time>2018-08-18T10:25:45Z</time>
      </trkpt>
      <trkpt lat="45.95307" lon="4.75047">
        <ele>192</ele>
        <time>2018-08-18T10:25:46Z</time>
      </trkpt>
      <trkpt lat="45.95303" lon="4.75041">
        <ele>191</ele>
        <time>2018-08-18T10:25:47Z</time>
      </trkpt>
      <trkpt lat="45.95297" lon="4.75037">
        <ele>191</ele>
        <time>2018-08-18T10:25:48Z</time>
      </trkpt>
      <trkpt lat="45.95293" lon="4.75032">
        <ele>191</ele>
        <time>2018-08-18T10:25:49Z</time>
      </trkpt>
      <trkpt lat="45.95286" lon="4.75025">
        <ele>191</ele>
        <time>2018-08-18T10:25:50Z</time>
      </trkpt>
      <trkpt lat="45.95283" lon="4.75019">
        <ele>191</ele>
        <time>2018-08-18T10:25:51Z</time>
      </trkpt>
      <trkpt lat="45.95281" lon="4.75014">
        <ele>191</ele>
        <time>2018-08-18T10:25:52Z</time>
      </trkpt>
      <trkpt lat="45.95277" lon="4.75008">
        <ele>191</ele>
        <time>2018-08-18T10:25:53Z</time>
      </trkpt>
      <trkpt lat="45.95273" lon="4.75002">
        <ele>191</ele>
        <time>2018-08-18T10:25:54Z</time>
      </trkpt>
      <trkpt lat="45.9527" lon="4.74996">
        <ele>192</ele>
        <time>2018-08-18T10:25:55Z</time>
      </trkpt>
      <trkpt lat="45.95267" lon="4.74989">
        <ele>192</ele>
        <time>2018-08-18T10:25:56Z</time>
      </trkpt>
      <trkpt lat="45.95263" lon="4.74985">
        <ele>192</ele>
        <time>2018-08-18T10:25:57Z</time>
      </trkpt>
      <trkpt lat="45.95258" lon="4.74979">
        <ele>192</ele>
        <time>2018-08-18T10:25:58Z</time>
      </trkpt>
      <trkpt lat="45.95255" lon="4.74974">
        <ele>192</ele>
        <time>2018-08-18T10:25:59Z</time>
      </trkpt>
      <trkpt lat="45.95251" lon="4.74968">
        <ele>192</ele>
        <time>2018-08-18T10:26:00Z</time>
      </trkpt>
      <trkpt lat="45.95247" lon="4.74961">
        <ele>191</ele>
        <time>2018-08-18T10:26:01Z</time>
      </trkpt>
      <trkpt lat="45.95242" lon="4.74954">
        <ele>192</ele>
        <time>2018-08-18T10:26:02Z</time>
      </trkpt>
      <trkpt lat="45.95239" lon="4.7495">
        <ele>192</ele>
        <time>2018-08-18T10:26:03Z</time>
      </trkpt>
      <trkpt lat="45.95234" lon="4.74945">
        <ele>192</ele>
        <time>2018-08-18T10:26:04Z</time>
      </trkpt>
      <trkpt lat="45.9523" lon="4.7494">
        <ele>192</ele>
        <time>2018-08-18T10:26:05Z</time>
      </trkpt>
      <trkpt lat="45.95227" lon="4.74934">
        <ele>192</ele>
        <time>2018-08-18T10:26:06Z</time>
      </trkpt>
      <trkpt lat="45.95223" lon="4.74928">
        <ele>192</ele>
        <time>2018-08-18T10:26:07Z</time>
      </trkpt>
      <trkpt lat="45.95219" lon="4.74922">
        <ele>192</ele>
        <time>2018-08-18T10:26:08Z</time>
      </trkpt>
      <trkpt lat="45.95216" lon="4.74917">
        <ele>192</ele>
        <time>2018-08-18T10:26:09Z</time>
      </trkpt>
      <trkpt lat="45.9521" lon="4.74908">
        <ele>193</ele>
        <time>2018-08-18T10:26:10Z</time>
      </trkpt>
      <trkpt lat="45.95208" lon="4.74901">
        <ele>194</ele>
        <time>2018-08-18T10:26:11Z</time>
      </trkpt>
      <trkpt lat="45.95205" lon="4.74896">
        <ele>194</ele>
        <time>2018-08-18T10:26:12Z</time>
      </trkpt>
      <trkpt lat="45.95202" lon="4.74889">
        <ele>194</ele>
        <time>2018-08-18T10:26:13Z</time>
      </trkpt>
      <trkpt lat="45.952" lon="4.74885">
        <ele>194</ele>
        <time>2018-08-18T10:26:14Z</time>
      </trkpt>
      <trkpt lat="45.95197" lon="4.74879">
        <ele>194</ele>
        <time>2018-08-18T10:26:15Z</time>
      </trkpt>
      <trkpt lat="45.95194" lon="4.74872">
        <ele>194</ele>
        <time>2018-08-18T10:26:16Z</time>
      </trkpt>
      <trkpt lat="45.9519" lon="4.74866">
        <ele>194</ele>
        <time>2018-08-18T10:26:17Z</time>
      </trkpt>
      <trkpt lat="45.95186" lon="4.74855">
        <ele>194</ele>
        <time>2018-08-18T10:26:19Z</time>
      </trkpt>
      <trkpt lat="45.95184" lon="4.7485">
        <ele>194</ele>
        <time>2018-08-18T10:26:20Z</time>
      </trkpt>
      <trkpt lat="45.95181" lon="4.74843">
        <ele>194</ele>
        <time>2018-08-18T10:26:21Z</time>
      </trkpt>
      <trkpt lat="45.95177" lon="4.74838">
        <ele>194</ele>
        <time>2018-08-18T10:26:22Z</time>
      </trkpt>
      <trkpt lat="45.95174" lon="4.74831">
        <ele>194</ele>
        <time>2018-08-18T10:26:23Z</time>
      </trkpt>
      <trkpt lat="45.95169" lon="4.74825">
        <ele>194</ele>
        <time>2018-08-18T10:26:24Z</time>
      </trkpt>
      <trkpt lat="45.95165" lon="4.74818">
        <ele>194</ele>
        <time>2018-08-18T10:26:25Z</time>
      </trkpt>
      <trkpt lat="45.9516" lon="4.7481">
        <ele>194</ele>
        <time>2018-08-18T10:26:26Z</time>
      </trkpt>
      <trkpt lat="45.95155" lon="4.74804">
        <ele>194</ele>
        <time>2018-08-18T10:26:27Z</time>
      </trkpt>
      <trkpt lat="45.9515" lon="4.74797">
        <ele>194</ele>
        <time>2018-08-18T10:26:28Z</time>
      </trkpt>
      <trkpt lat="45.95145" lon="4.74791">
        <ele>194</ele>
        <time>2018-08-18T10:26:29Z</time>
      </trkpt>
      <trkpt lat="45.9514" lon="4.74785">
        <ele>194</ele>
        <time>2018-08-18T10:26:30Z</time>
      </trkpt>
      <trkpt lat="45.95136" lon="4.7478">
        <ele>194</ele>
        <time>2018-08-18T10:26:31Z</time>
      </trkpt>
      <trkpt lat="45.95132" lon="4.74774">
        <ele>194</ele>
        <time>2018-08-18T10:26:32Z</time>
      </trkpt>
      <trkpt lat="45.95128" lon="4.74767">
        <ele>194</ele>
        <time>2018-08-18T10:26:33Z</time>
      </trkpt>
      <trkpt lat="45.95124" lon="4.7476">
        <ele>194</ele>
        <time>2018-08-18T10:26:34Z</time>
      </trkpt>
      <trkpt lat="45.95119" lon="4.74753">
        <ele>194</ele>
        <time>2018-08-18T10:26:35Z</time>
      </trkpt>
      <trkpt lat="45.95115" lon="4.74745">
        <ele>194</ele>
        <time>2018-08-18T10:26:36Z</time>
      </trkpt>
      <trkpt lat="45.95112" lon="4.74738">
        <ele>194</ele>
        <time>2018-08-18T10:26:37Z</time>
      </trkpt>
      <trkpt lat="45.95108" lon="4.74728">
        <ele>194</ele>
        <time>2018-08-18T10:26:38Z</time>
      </trkpt>
      <trkpt lat="45.95104" lon="4.74721">
        <ele>194</ele>
        <time>2018-08-18T10:26:39Z</time>
      </trkpt>
      <trkpt lat="45.95099" lon="4.74717">
        <ele>194</ele>
        <time>2018-08-18T10:26:40Z</time>
      </trkpt>
      <trkpt lat="45.95096" lon="4.7471">
        <ele>194</ele>
        <time>2018-08-18T10:26:41Z</time>
      </trkpt>
      <trkpt lat="45.95092" lon="4.74705">
        <ele>194</ele>
        <time>2018-08-18T10:26:42Z</time>
      </trkpt>
      <trkpt lat="45.95089" lon="4.74698">
        <ele>194</ele>
        <time>2018-08-18T10:26:43Z</time>
      </trkpt>
      <trkpt lat="45.95086" lon="4.74692">
        <ele>195</ele>
        <time>2018-08-18T10:26:44Z</time>
      </trkpt>
      <trkpt lat="45.95082" lon="4.74686">
        <ele>194</ele>
        <time>2018-08-18T10:26:45Z</time>
      </trkpt>
      <trkpt lat="45.95078" lon="4.74679">
        <ele>194</ele>
        <time>2018-08-18T10:26:46Z</time>
      </trkpt>
      <trkpt lat="45.95073" lon="4.74673">
        <ele>194</ele>
        <time>2018-08-18T10:26:47Z</time>
      </trkpt>
      <trkpt lat="45.95069" lon="4.74666">
        <ele>195</ele>
        <time>2018-08-18T10:26:48Z</time>
      </trkpt>
      <trkpt lat="45.95064" lon="4.74658">
        <ele>195</ele>
        <time>2018-08-18T10:26:49Z</time>
      </trkpt>
      <trkpt lat="45.9506" lon="4.74652">
        <ele>194</ele>
        <time>2018-08-18T10:26:50Z</time>
      </trkpt>
      <trkpt lat="45.95055" lon="4.74643">
        <ele>194</ele>
        <time>2018-08-18T10:26:51Z</time>
      </trkpt>
      <trkpt lat="45.95051" lon="4.74635">
        <ele>194</ele>
        <time>2018-08-18T10:26:52Z</time>
      </trkpt>
      <trkpt lat="45.95047" lon="4.74628">
        <ele>194</ele>
        <time>2018-08-18T10:26:53Z</time>
      </trkpt>
      <trkpt lat="45.95044" lon="4.7462">
        <ele>194</ele>
        <time>2018-08-18T10:26:54Z</time>
      </trkpt>
      <trkpt lat="45.9504" lon="4.74615">
        <ele>194</ele>
        <time>2018-08-18T10:26:55Z</time>
      </trkpt>
      <trkpt lat="45.95037" lon="4.74608">
        <ele>194</ele>
        <time>2018-08-18T10:26:56Z</time>
      </trkpt>
      <trkpt lat="45.95033" lon="4.74601">
        <ele>194</ele>
        <time>2018-08-18T10:26:57Z</time>
      </trkpt>
      <trkpt lat="45.95028" lon="4.74595">
        <ele>194</ele>
        <time>2018-08-18T10:26:58Z</time>
      </trkpt>
      <trkpt lat="45.95028" lon="4.74582">
        <ele>194</ele>
        <time>2018-08-18T10:27:00Z</time>
      </trkpt>
      <trkpt lat="45.95024" lon="4.74574">
        <ele>194</ele>
        <time>2018-08-18T10:27:01Z</time>
      </trkpt>
      <trkpt lat="45.95021" lon="4.74567">
        <ele>194</ele>
        <time>2018-08-18T10:27:02Z</time>
      </trkpt>
      <trkpt lat="45.95018" lon="4.74562">
        <ele>194</ele>
        <time>2018-08-18T10:27:03Z</time>
      </trkpt>
      <trkpt lat="45.95015" lon="4.74554">
        <ele>194</ele>
        <time>2018-08-18T10:27:04Z</time>
      </trkpt>
      <trkpt lat="45.95012" lon="4.74548">
        <ele>194</ele>
        <time>2018-08-18T10:27:05Z</time>
      </trkpt>
      <trkpt lat="45.95007" lon="4.74538">
        <ele>194</ele>
        <time>2018-08-18T10:27:06Z</time>
      </trkpt>
      <trkpt lat="45.95002" lon="4.74529">
        <ele>194</ele>
        <time>2018-08-18T10:27:07Z</time>
      </trkpt>
      <trkpt lat="45.94997" lon="4.74523">
        <ele>193</ele>
        <time>2018-08-18T10:27:08Z</time>
      </trkpt>
      <trkpt lat="45.94997" lon="4.74514">
        <ele>193</ele>
        <time>2018-08-18T10:27:09Z</time>
      </trkpt>
      <trkpt lat="45.94994" lon="4.74505">
        <ele>193</ele>
        <time>2018-08-18T10:27:10Z</time>
      </trkpt>
      <trkpt lat="45.94988" lon="4.74497">
        <ele>193</ele>
        <time>2018-08-18T10:27:11Z</time>
      </trkpt>
      <trkpt lat="45.94981" lon="4.7449">
        <ele>193</ele>
        <time>2018-08-18T10:27:12Z</time>
      </trkpt>
      <trkpt lat="45.94978" lon="4.74482">
        <ele>193</ele>
        <time>2018-08-18T10:27:13Z</time>
      </trkpt>
      <trkpt lat="45.94971" lon="4.74477">
        <ele>193</ele>
        <time>2018-08-18T10:27:14Z</time>
      </trkpt>
      <trkpt lat="45.94968" lon="4.74469">
        <ele>193</ele>
        <time>2018-08-18T10:27:15Z</time>
      </trkpt>
      <trkpt lat="45.94964" lon="4.74461">
        <ele>193</ele>
        <time>2018-08-18T10:27:16Z</time>
      </trkpt>
      <trkpt lat="45.9496" lon="4.74454">
        <ele>192</ele>
        <time>2018-08-18T10:27:17Z</time>
      </trkpt>
      <trkpt lat="45.94956" lon="4.74447">
        <ele>192</ele>
        <time>2018-08-18T10:27:18Z</time>
      </trkpt>
      <trkpt lat="45.94952" lon="4.74439">
        <ele>192</ele>
        <time>2018-08-18T10:27:19Z</time>
      </trkpt>
      <trkpt lat="45.94948" lon="4.74433">
        <ele>192</ele>
        <time>2018-08-18T10:27:20Z</time>
      </trkpt>
      <trkpt lat="45.94945" lon="4.74426">
        <ele>192</ele>
        <time>2018-08-18T10:27:21Z</time>
      </trkpt>
      <trkpt lat="45.94941" lon="4.74419">
        <ele>192</ele>
        <time>2018-08-18T10:27:22Z</time>
      </trkpt>
      <trkpt lat="45.94937" lon="4.74411">
        <ele>192</ele>
        <time>2018-08-18T10:27:23Z</time>
      </trkpt>
      <trkpt lat="45.94933" lon="4.74403">
        <ele>192</ele>
        <time>2018-08-18T10:27:24Z</time>
      </trkpt>
      <trkpt lat="45.94927" lon="4.74396">
        <ele>192</ele>
        <time>2018-08-18T10:27:25Z</time>
      </trkpt>
      <trkpt lat="45.94923" lon="4.74388">
        <ele>192</ele>
        <time>2018-08-18T10:27:26Z</time>
      </trkpt>
      <trkpt lat="45.9492" lon="4.74381">
        <ele>192</ele>
        <time>2018-08-18T10:27:27Z</time>
      </trkpt>
      <trkpt lat="45.94917" lon="4.74371">
        <ele>192</ele>
        <time>2018-08-18T10:27:28Z</time>
      </trkpt>
      <trkpt lat="45.94914" lon="4.74361">
        <ele>191</ele>
        <time>2018-08-18T10:27:29Z</time>
      </trkpt>
      <trkpt lat="45.94911" lon="4.74354">
        <ele>191</ele>
        <time>2018-08-18T10:27:30Z</time>
      </trkpt>
      <trkpt lat="45.94906" lon="4.74346">
        <ele>191</ele>
        <time>2018-08-18T10:27:31Z</time>
      </trkpt>
      <trkpt lat="45.94902" lon="4.74338">
        <ele>191</ele>
        <time>2018-08-18T10:27:32Z</time>
      </trkpt>
      <trkpt lat="45.94898" lon="4.7433">
        <ele>191</ele>
        <time>2018-08-18T10:27:33Z</time>
      </trkpt>
      <trkpt lat="45.94893" lon="4.74322">
        <ele>191</ele>
        <time>2018-08-18T10:27:34Z</time>
      </trkpt>
      <trkpt lat="45.94889" lon="4.74314">
        <ele>191</ele>
        <time>2018-08-18T10:27:35Z</time>
      </trkpt>
      <trkpt lat="45.94886" lon="4.74307">
        <ele>191</ele>
        <time>2018-08-18T10:27:36Z</time>
      </trkpt>
      <trkpt lat="45.94883" lon="4.74299">
        <ele>191</ele>
        <time>2018-08-18T10:27:37Z</time>
      </trkpt>
      <trkpt lat="45.94879" lon="4.74293">
        <ele>191</ele>
        <time>2018-08-18T10:27:38Z</time>
      </trkpt>
      <trkpt lat="45.94875" lon="4.74287">
        <ele>191</ele>
        <time>2018-08-18T10:27:39Z</time>
      </trkpt>
      <trkpt lat="45.9487" lon="4.7428">
        <ele>191</ele>
        <time>2018-08-18T10:27:40Z</time>
      </trkpt>
      <trkpt lat="45.94866" lon="4.74274">
        <ele>191</ele>
        <time>2018-08-18T10:27:41Z</time>
      </trkpt>
      <trkpt lat="45.94863" lon="4.74265">
        <ele>190</ele>
        <time>2018-08-18T10:27:42Z</time>
      </trkpt>
      <trkpt lat="45.94857" lon="4.74258">
        <ele>190</ele>
        <time>2018-08-18T10:27:43Z</time>
      </trkpt>
      <trkpt lat="45.94854" lon="4.7425">
        <ele>190</ele>
        <time>2018-08-18T10:27:44Z</time>
      </trkpt>
      <trkpt lat="45.9485" lon="4.74241">
        <ele>190</ele>
        <time>2018-08-18T10:27:45Z</time>
      </trkpt>
      <trkpt lat="45.94846" lon="4.74233">
        <ele>190</ele>
        <time>2018-08-18T10:27:46Z</time>
      </trkpt>
      <trkpt lat="45.94842" lon="4.74225">
        <ele>190</ele>
        <time>2018-08-18T10:27:47Z</time>
      </trkpt>
      <trkpt lat="45.94838" lon="4.74217">
        <ele>190</ele>
        <time>2018-08-18T10:27:48Z</time>
      </trkpt>
      <trkpt lat="45.94835" lon="4.7421">
        <ele>190</ele>
        <time>2018-08-18T10:27:49Z</time>
      </trkpt>
      <trkpt lat="45.94828" lon="4.74203">
        <ele>189</ele>
        <time>2018-08-18T10:27:50Z</time>
      </trkpt>
      <trkpt lat="45.94825" lon="4.74195">
        <ele>189</ele>
        <time>2018-08-18T10:27:51Z</time>
      </trkpt>
      <trkpt lat="45.94819" lon="4.74189">
        <ele>189</ele>
        <time>2018-08-18T10:27:52Z</time>
      </trkpt>
      <trkpt lat="45.94815" lon="4.74181">
        <ele>189</ele>
        <time>2018-08-18T10:27:53Z</time>
      </trkpt>
      <trkpt lat="45.94812" lon="4.74175">
        <ele>189</ele>
        <time>2018-08-18T10:27:54Z</time>
      </trkpt>
      <trkpt lat="45.9481" lon="4.74168">
        <ele>189</ele>
        <time>2018-08-18T10:27:55Z</time>
      </trkpt>
      <trkpt lat="45.94805" lon="4.74163">
        <ele>189</ele>
        <time>2018-08-18T10:27:56Z</time>
      </trkpt>
      <trkpt lat="45.948" lon="4.74155">
        <ele>189</ele>
        <time>2018-08-18T10:27:57Z</time>
      </trkpt>
      <trkpt lat="45.94796" lon="4.74149">
        <ele>189</ele>
        <time>2018-08-18T10:27:58Z</time>
      </trkpt>
      <trkpt lat="45.94793" lon="4.74144">
        <ele>189</ele>
        <time>2018-08-18T10:27:59Z</time>
      </trkpt>
      <trkpt lat="45.9479" lon="4.74138">
        <ele>189</ele>
        <time>2018-08-18T10:28:00Z</time>
      </trkpt>
      <trkpt lat="45.94786" lon="4.74132">
        <ele>189</ele>
        <time>2018-08-18T10:28:01Z</time>
      </trkpt>
      <trkpt lat="45.94783" lon="4.74126">
        <ele>189</ele>
        <time>2018-08-18T10:28:02Z</time>
      </trkpt>
      <trkpt lat="45.94779" lon="4.7412">
        <ele>189</ele>
        <time>2018-08-18T10:28:03Z</time>
      </trkpt>
      <trkpt lat="45.94774" lon="4.74113">
        <ele>189</ele>
        <time>2018-08-18T10:28:04Z</time>
      </trkpt>
      <trkpt lat="45.94769" lon="4.74107">
        <ele>189</ele>
        <time>2018-08-18T10:28:05Z</time>
      </trkpt>
      <trkpt lat="45.94768" lon="4.74099">
        <ele>189</ele>
        <time>2018-08-18T10:28:06Z</time>
      </trkpt>
      <trkpt lat="45.94761" lon="4.74095">
        <ele>189</ele>
        <time>2018-08-18T10:28:07Z</time>
      </trkpt>
      <trkpt lat="45.94756" lon="4.7409">
        <ele>189</ele>
        <time>2018-08-18T10:28:08Z</time>
      </trkpt>
      <trkpt lat="45.94751" lon="4.74084">
        <ele>189</ele>
        <time>2018-08-18T10:28:09Z</time>
      </trkpt>
      <trkpt lat="45.94748" lon="4.74076">
        <ele>189</ele>
        <time>2018-08-18T10:28:10Z</time>
      </trkpt>
      <trkpt lat="45.94744" lon="4.74068">
        <ele>188</ele>
        <time>2018-08-18T10:28:11Z</time>
      </trkpt>
      <trkpt lat="45.94738" lon="4.7406">
        <ele>188</ele>
        <time>2018-08-18T10:28:12Z</time>
      </trkpt>
      <trkpt lat="45.94734" lon="4.74055">
        <ele>188</ele>
        <time>2018-08-18T10:28:13Z</time>
      </trkpt>
      <trkpt lat="45.94728" lon="4.7405">
        <ele>188</ele>
        <time>2018-08-18T10:28:14Z</time>
      </trkpt>
      <trkpt lat="45.94723" lon="4.74044">
        <ele>187</ele>
        <time>2018-08-18T10:28:15Z</time>
      </trkpt>
      <trkpt lat="45.94718" lon="4.74037">
        <ele>187</ele>
        <time>2018-08-18T10:28:16Z</time>
      </trkpt>
      <trkpt lat="45.94713" lon="4.7403">
        <ele>187</ele>
        <time>2018-08-18T10:28:17Z</time>
      </trkpt>
      <trkpt lat="45.94709" lon="4.74024">
        <ele>187</ele>
        <time>2018-08-18T10:28:18Z</time>
      </trkpt>
      <trkpt lat="45.94701" lon="4.74018">
        <ele>187</ele>
        <time>2018-08-18T10:28:19Z</time>
      </trkpt>
      <trkpt lat="45.94695" lon="4.74012">
        <ele>187</ele>
        <time>2018-08-18T10:28:20Z</time>
      </trkpt>
      <trkpt lat="45.94691" lon="4.74006">
        <ele>187</ele>
        <time>2018-08-18T10:28:21Z</time>
      </trkpt>
      <trkpt lat="45.94687" lon="4.74001">
        <ele>187</ele>
        <time>2018-08-18T10:28:22Z</time>
      </trkpt>
      <trkpt lat="45.94682" lon="4.73996">
        <ele>187</ele>
        <time>2018-08-18T10:28:23Z</time>
      </trkpt>
      <trkpt lat="45.94677" lon="4.73989">
        <ele>187</ele>
        <time>2018-08-18T10:28:24Z</time>
      </trkpt>
      <trkpt lat="45.94673" lon="4.73983">
        <ele>187</ele>
        <time>2018-08-18T10:28:25Z</time>
      </trkpt>
      <trkpt lat="45.94668" lon="4.73976">
        <ele>187</ele>
        <time>2018-08-18T10:28:26Z</time>
      </trkpt>
      <trkpt lat="45.94664" lon="4.73968">
        <ele>187</ele>
        <time>2018-08-18T10:28:27Z</time>
      </trkpt>
      <trkpt lat="45.94659" lon="4.7396">
        <ele>187</ele>
        <time>2018-08-18T10:28:28Z</time>
      </trkpt>
      <trkpt lat="45.94654" lon="4.73954">
        <ele>187</ele>
        <time>2018-08-18T10:28:29Z</time>
      </trkpt>
      <trkpt lat="45.94648" lon="4.73947">
        <ele>187</ele>
        <time>2018-08-18T10:28:30Z</time>
      </trkpt>
      <trkpt lat="45.94643" lon="4.73939">
        <ele>187</ele>
        <time>2018-08-18T10:28:31Z</time>
      </trkpt>
      <trkpt lat="45.94638" lon="4.73932">
        <ele>187</ele>
        <time>2018-08-18T10:28:32Z</time>
      </trkpt>
      <trkpt lat="45.94632" lon="4.73928">
        <ele>187</ele>
        <time>2018-08-18T10:28:33Z</time>
      </trkpt>
      <trkpt lat="45.94626" lon="4.7392">
        <ele>187</ele>
        <time>2018-08-18T10:28:34Z</time>
      </trkpt>
      <trkpt lat="45.9462" lon="4.73913">
        <ele>187</ele>
        <time>2018-08-18T10:28:35Z</time>
      </trkpt>
      <trkpt lat="45.94613" lon="4.73904">
        <ele>187</ele>
        <time>2018-08-18T10:28:36Z</time>
      </trkpt>
      <trkpt lat="45.94607" lon="4.73897">
        <ele>187</ele>
        <time>2018-08-18T10:28:37Z</time>
      </trkpt>
      <trkpt lat="45.94602" lon="4.73891">
        <ele>187</ele>
        <time>2018-08-18T10:28:38Z</time>
      </trkpt>
      <trkpt lat="45.94597" lon="4.73884">
        <ele>187</ele>
        <time>2018-08-18T10:28:39Z</time>
      </trkpt>
      <trkpt lat="45.94592" lon="4.73878">
        <ele>187</ele>
        <time>2018-08-18T10:28:40Z</time>
      </trkpt>
      <trkpt lat="45.94586" lon="4.73871">
        <ele>187</ele>
        <time>2018-08-18T10:28:41Z</time>
      </trkpt>
      <trkpt lat="45.94582" lon="4.73863">
        <ele>186</ele>
        <time>2018-08-18T10:28:42Z</time>
      </trkpt>
      <trkpt lat="45.94576" lon="4.73856">
        <ele>186</ele>
        <time>2018-08-18T10:28:43Z</time>
      </trkpt>
      <trkpt lat="45.9457" lon="4.7385">
        <ele>186</ele>
        <time>2018-08-18T10:28:44Z</time>
      </trkpt>
      <trkpt lat="45.94565" lon="4.73844">
        <ele>186</ele>
        <time>2018-08-18T10:28:45Z</time>
      </trkpt>
      <trkpt lat="45.9456" lon="4.73838">
        <ele>186</ele>
        <time>2018-08-18T10:28:46Z</time>
      </trkpt>
      <trkpt lat="45.94555" lon="4.73831">
        <ele>186</ele>
        <time>2018-08-18T10:28:47Z</time>
      </trkpt>
      <trkpt lat="45.94549" lon="4.73825">
        <ele>186</ele>
        <time>2018-08-18T10:28:48Z</time>
      </trkpt>
      <trkpt lat="45.94542" lon="4.7382">
        <ele>186</ele>
        <time>2018-08-18T10:28:49Z</time>
      </trkpt>
      <trkpt lat="45.94536" lon="4.73813">
        <ele>186</ele>
        <time>2018-08-18T10:28:50Z</time>
      </trkpt>
      <trkpt lat="45.94531" lon="4.73805">
        <ele>186</ele>
        <time>2018-08-18T10:28:51Z</time>
      </trkpt>
      <trkpt lat="45.94526" lon="4.73801">
        <ele>186</ele>
        <time>2018-08-18T10:28:52Z</time>
      </trkpt>
      <trkpt lat="45.9452" lon="4.73797">
        <ele>186</ele>
        <time>2018-08-18T10:28:53Z</time>
      </trkpt>
      <trkpt lat="45.94516" lon="4.7379">
        <ele>186</ele>
        <time>2018-08-18T10:28:54Z</time>
      </trkpt>
      <trkpt lat="45.94512" lon="4.73787">
        <ele>186</ele>
        <time>2018-08-18T10:28:55Z</time>
      </trkpt>
      <trkpt lat="45.94505" lon="4.73781">
        <ele>186</ele>
        <time>2018-08-18T10:28:59Z</time>
      </trkpt>
      <trkpt lat="45.94504" lon="4.73779">
        <ele>186</ele>
        <time>2018-08-18T10:29:00Z</time>
      </trkpt>
      <trkpt lat="45.94501" lon="4.73774">
        <ele>186</ele>
        <time>2018-08-18T10:29:02Z</time>
      </trkpt>
      <trkpt lat="45.94495" lon="4.73764">
        <ele>186</ele>
        <time>2018-08-18T10:29:03Z</time>
      </trkpt>
      <trkpt lat="45.9449" lon="4.73754">
        <ele>186</ele>
        <time>2018-08-18T10:29:05Z</time>
      </trkpt>
      <trkpt lat="45.9449" lon="4.73747">
        <ele>186</ele>
        <time>2018-08-18T10:29:06Z</time>
      </trkpt>
      <trkpt lat="45.9449" lon="4.7374">
        <ele>186</ele>
        <time>2018-08-18T10:29:07Z</time>
      </trkpt>
      <trkpt lat="45.94489" lon="4.73733">
        <ele>186</ele>
        <time>2018-08-18T10:29:08Z</time>
      </trkpt>
      <trkpt lat="45.9449" lon="4.73725">
        <ele>186</ele>
        <time>2018-08-18T10:29:09Z</time>
      </trkpt>
      <trkpt lat="45.9449" lon="4.73716">
        <ele>186</ele>
        <time>2018-08-18T10:29:10Z</time>
      </trkpt>
      <trkpt lat="45.94492" lon="4.73709">
        <ele>186</ele>
        <time>2018-08-18T10:29:11Z</time>
      </trkpt>
      <trkpt lat="45.94493" lon="4.73702">
        <ele>186</ele>
        <time>2018-08-18T10:29:12Z</time>
      </trkpt>
      <trkpt lat="45.94494" lon="4.73694">
        <ele>186</ele>
        <time>2018-08-18T10:29:13Z</time>
      </trkpt>
      <trkpt lat="45.94495" lon="4.73688">
        <ele>186</ele>
        <time>2018-08-18T10:29:14Z</time>
      </trkpt>
      <trkpt lat="45.94496" lon="4.73681">
        <ele>185</ele>
        <time>2018-08-18T10:29:15Z</time>
      </trkpt>
      <trkpt lat="45.94498" lon="4.73673">
        <ele>185</ele>
        <time>2018-08-18T10:29:16Z</time>
      </trkpt>
      <trkpt lat="45.94499" lon="4.73663">
        <ele>185</ele>
        <time>2018-08-18T10:29:17Z</time>
      </trkpt>
      <trkpt lat="45.94499" lon="4.73655">
        <ele>185</ele>
        <time>2018-08-18T10:29:18Z</time>
      </trkpt>
      <trkpt lat="45.945" lon="4.73647">
        <ele>185</ele>
        <time>2018-08-18T10:29:19Z</time>
      </trkpt>
      <trkpt lat="45.94501" lon="4.73638">
        <ele>184</ele>
        <time>2018-08-18T10:29:20Z</time>
      </trkpt>
      <trkpt lat="45.94502" lon="4.73627">
        <ele>184</ele>
        <time>2018-08-18T10:29:21Z</time>
      </trkpt>
      <trkpt lat="45.94502" lon="4.73619">
        <ele>184</ele>
        <time>2018-08-18T10:29:22Z</time>
      </trkpt>
      <trkpt lat="45.94503" lon="4.73611">
        <ele>184</ele>
        <time>2018-08-18T10:29:23Z</time>
      </trkpt>
      <trkpt lat="45.94503" lon="4.73602">
        <ele>184</ele>
        <time>2018-08-18T10:29:24Z</time>
      </trkpt>
      <trkpt lat="45.94504" lon="4.73594">
        <ele>184</ele>
        <time>2018-08-18T10:29:25Z</time>
      </trkpt>
      <trkpt lat="45.94504" lon="4.73585">
        <ele>185</ele>
        <time>2018-08-18T10:29:26Z</time>
      </trkpt>
      <trkpt lat="45.94505" lon="4.73576">
        <ele>184</ele>
        <time>2018-08-18T10:29:27Z</time>
      </trkpt>
      <trkpt lat="45.94504" lon="4.73567">
        <ele>184</ele>
        <time>2018-08-18T10:29:28Z</time>
      </trkpt>
      <trkpt lat="45.94505" lon="4.73558">
        <ele>184</ele>
        <time>2018-08-18T10:29:29Z</time>
      </trkpt>
      <trkpt lat="45.94505" lon="4.73549">
        <ele>183</ele>
        <time>2018-08-18T10:29:30Z</time>
      </trkpt>
      <trkpt lat="45.94506" lon="4.73542">
        <ele>183</ele>
        <time>2018-08-18T10:29:31Z</time>
      </trkpt>
      <trkpt lat="45.94506" lon="4.73532">
        <ele>183</ele>
        <time>2018-08-18T10:29:32Z</time>
      </trkpt>
      <trkpt lat="45.94506" lon="4.73522">
        <ele>183</ele>
        <time>2018-08-18T10:29:33Z</time>
      </trkpt>
      <trkpt lat="45.94505" lon="4.73512">
        <ele>183</ele>
        <time>2018-08-18T10:29:34Z</time>
      </trkpt>
      <trkpt lat="45.94501" lon="4.735">
        <ele>183</ele>
        <time>2018-08-18T10:29:35Z</time>
      </trkpt>
      <trkpt lat="45.945" lon="4.73489">
        <ele>182</ele>
        <time>2018-08-18T10:29:36Z</time>
      </trkpt>
      <trkpt lat="45.94502" lon="4.73482">
        <ele>182</ele>
        <time>2018-08-18T10:29:37Z</time>
      </trkpt>
      <trkpt lat="45.94502" lon="4.7347">
        <ele>182</ele>
        <time>2018-08-18T10:29:38Z</time>
      </trkpt>
      <trkpt lat="45.94502" lon="4.73459">
        <ele>181</ele>
        <time>2018-08-18T10:29:39Z</time>
      </trkpt>
      <trkpt lat="45.94502" lon="4.73448">
        <ele>181</ele>
        <time>2018-08-18T10:29:40Z</time>
      </trkpt>
      <trkpt lat="45.94502" lon="4.73438">
        <ele>181</ele>
        <time>2018-08-18T10:29:41Z</time>
      </trkpt>
      <trkpt lat="45.94503" lon="4.73429">
        <ele>180</ele>
        <time>2018-08-18T10:29:42Z</time>
      </trkpt>
      <trkpt lat="45.94501" lon="4.73418">
        <ele>180</ele>
        <time>2018-08-18T10:29:43Z</time>
      </trkpt>
      <trkpt lat="45.945" lon="4.73408">
        <ele>179</ele>
        <time>2018-08-18T10:29:44Z</time>
      </trkpt>
      <trkpt lat="45.94501" lon="4.73399">
        <ele>179</ele>
        <time>2018-08-18T10:29:45Z</time>
      </trkpt>
      <trkpt lat="45.94503" lon="4.73388">
        <ele>179</ele>
        <time>2018-08-18T10:29:46Z</time>
      </trkpt>
      <trkpt lat="45.94502" lon="4.73377">
        <ele>178</ele>
        <time>2018-08-18T10:29:47Z</time>
      </trkpt>
      <trkpt lat="45.94504" lon="4.73369">
        <ele>178</ele>
        <time>2018-08-18T10:29:48Z</time>
      </trkpt>
      <trkpt lat="45.94503" lon="4.73358">
        <ele>178</ele>
        <time>2018-08-18T10:29:49Z</time>
      </trkpt>
      <trkpt lat="45.94501" lon="4.73347">
        <ele>178</ele>
        <time>2018-08-18T10:29:50Z</time>
      </trkpt>
      <trkpt lat="45.945" lon="4.73337">
        <ele>177</ele>
        <time>2018-08-18T10:29:51Z</time>
      </trkpt>
      <trkpt lat="45.94499" lon="4.73325">
        <ele>177</ele>
        <time>2018-08-18T10:29:52Z</time>
      </trkpt>
      <trkpt lat="45.94497" lon="4.73313">
        <ele>177</ele>
        <time>2018-08-18T10:29:53Z</time>
      </trkpt>
      <trkpt lat="45.94496" lon="4.73301">
        <ele>177</ele>
        <time>2018-08-18T10:29:54Z</time>
      </trkpt>
      <trkpt lat="45.94493" lon="4.73287">
        <ele>177</ele>
        <time>2018-08-18T10:29:55Z</time>
      </trkpt>
      <trkpt lat="45.94491" lon="4.73273">
        <ele>177</ele>
        <time>2018-08-18T10:29:56Z</time>
      </trkpt>
      <trkpt lat="45.94489" lon="4.7326">
        <ele>176</ele>
        <time>2018-08-18T10:29:57Z</time>
      </trkpt>
      <trkpt lat="45.94487" lon="4.73246">
        <ele>175</ele>
        <time>2018-08-18T10:29:58Z</time>
      </trkpt>
      <trkpt lat="45.94485" lon="4.73233">
        <ele>175</ele>
        <time>2018-08-18T10:29:59Z</time>
      </trkpt>
      <trkpt lat="45.94485" lon="4.73224">
        <ele>175</ele>
        <time>2018-08-18T10:30:00Z</time>
      </trkpt>
      <trkpt lat="45.94483" lon="4.73212">
        <ele>175</ele>
        <time>2018-08-18T10:30:01Z</time>
      </trkpt>
      <trkpt lat="45.9448" lon="4.732">
        <ele>174</ele>
        <time>2018-08-18T10:30:02Z</time>
      </trkpt>
      <trkpt lat="45.94478" lon="4.73187">
        <ele>174</ele>
        <time>2018-08-18T10:30:03Z</time>
      </trkpt>
      <trkpt lat="45.94476" lon="4.73174">
        <ele>174</ele>
        <time>2018-08-18T10:30:04Z</time>
      </trkpt>
      <trkpt lat="45.94476" lon="4.73162">
        <ele>173</ele>
        <time>2018-08-18T10:30:05Z</time>
      </trkpt>
      <trkpt lat="45.94475" lon="4.73148">
        <ele>172</ele>
        <time>2018-08-18T10:30:06Z</time>
      </trkpt>
      <trkpt lat="45.94472" lon="4.73137">
        <ele>172</ele>
        <time>2018-08-18T10:30:07Z</time>
      </trkpt>
      <trkpt lat="45.94471" lon="4.73128">
        <ele>172</ele>
        <time>2018-08-18T10:30:08Z</time>
      </trkpt>
      <trkpt lat="45.9447" lon="4.73119">
        <ele>172</ele>
        <time>2018-08-18T10:30:09Z</time>
      </trkpt>
      <trkpt lat="45.94469" lon="4.73112">
        <ele>172</ele>
        <time>2018-08-18T10:30:10Z</time>
      </trkpt>
      <trkpt lat="45.94469" lon="4.73105">
        <ele>172</ele>
        <time>2018-08-18T10:30:11Z</time>
      </trkpt>
      <trkpt lat="45.94467" lon="4.73098">
        <ele>172</ele>
        <time>2018-08-18T10:30:12Z</time>
      </trkpt>
      <trkpt lat="45.94466" lon="4.7309">
        <ele>171</ele>
        <time>2018-08-18T10:30:13Z</time>
      </trkpt>
      <trkpt lat="45.94465" lon="4.73084">
        <ele>171</ele>
        <time>2018-08-18T10:30:14Z</time>
      </trkpt>
      <trkpt lat="45.94464" lon="4.73076">
        <ele>170</ele>
        <time>2018-08-18T10:30:15Z</time>
      </trkpt>
      <trkpt lat="45.94463" lon="4.73068">
        <ele>170</ele>
        <time>2018-08-18T10:30:16Z</time>
      </trkpt>
      <trkpt lat="45.94461" lon="4.73061">
        <ele>170</ele>
        <time>2018-08-18T10:30:17Z</time>
      </trkpt>
      <trkpt lat="45.94461" lon="4.73055">
        <ele>170</ele>
        <time>2018-08-18T10:30:18Z</time>
      </trkpt>
      <trkpt lat="45.9446" lon="4.73048">
        <ele>170</ele>
        <time>2018-08-18T10:30:19Z</time>
      </trkpt>
      <trkpt lat="45.9446" lon="4.73041">
        <ele>170</ele>
        <time>2018-08-18T10:30:20Z</time>
      </trkpt>
      <trkpt lat="45.94459" lon="4.73028">
        <ele>169</ele>
        <time>2018-08-18T10:30:22Z</time>
      </trkpt>
      <trkpt lat="45.94457" lon="4.73021">
        <ele>169</ele>
        <time>2018-08-18T10:30:23Z</time>
      </trkpt>
      <trkpt lat="45.94456" lon="4.73015">
        <ele>169</ele>
        <time>2018-08-18T10:30:24Z</time>
      </trkpt>
      <trkpt lat="45.94455" lon="4.73008">
        <ele>169</ele>
        <time>2018-08-18T10:30:25Z</time>
      </trkpt>
      <trkpt lat="45.94456" lon="4.72999">
        <ele>168</ele>
        <time>2018-08-18T10:30:27Z</time>
      </trkpt>
      <trkpt lat="45.94453" lon="4.72994">
        <ele>167</ele>
        <time>2018-08-18T10:30:28Z</time>
      </trkpt>
      <trkpt lat="45.94452" lon="4.72986">
        <ele>167</ele>
        <time>2018-08-18T10:30:29Z</time>
      </trkpt>
      <trkpt lat="45.94449" lon="4.72981">
        <ele>167</ele>
        <time>2018-08-18T10:30:30Z</time>
      </trkpt>
      <trkpt lat="45.94449" lon="4.72974">
        <ele>167</ele>
        <time>2018-08-18T10:30:31Z</time>
      </trkpt>
      <trkpt lat="45.94448" lon="4.72968">
        <ele>167</ele>
        <time>2018-08-18T10:30:32Z</time>
      </trkpt>
      <trkpt lat="45.94446" lon="4.72955">
        <ele>167</ele>
        <time>2018-08-18T10:30:34Z</time>
      </trkpt>
      <trkpt lat="45.94445" lon="4.72949">
        <ele>167</ele>
        <time>2018-08-18T10:30:35Z</time>
      </trkpt>
      <trkpt lat="45.94443" lon="4.72937">
        <ele>167</ele>
        <time>2018-08-18T10:30:37Z</time>
      </trkpt>
      <trkpt lat="45.94441" lon="4.72931">
        <ele>167</ele>
        <time>2018-08-18T10:30:38Z</time>
      </trkpt>
      <trkpt lat="45.9444" lon="4.72919">
        <ele>167</ele>
        <time>2018-08-18T10:30:40Z</time>
      </trkpt>
      <trkpt lat="45.9444" lon="4.72911">
        <ele>166</ele>
        <time>2018-08-18T10:30:41Z</time>
      </trkpt>
      <trkpt lat="45.94439" lon="4.72899">
        <ele>166</ele>
        <time>2018-08-18T10:30:43Z</time>
      </trkpt>
      <trkpt lat="45.94437" lon="4.72889">
        <ele>166</ele>
        <time>2018-08-18T10:30:44Z</time>
      </trkpt>
      <trkpt lat="45.94436" lon="4.72882">
        <ele>166</ele>
        <time>2018-08-18T10:30:45Z</time>
      </trkpt>
      <trkpt lat="45.94435" lon="4.72873">
        <ele>166</ele>
        <time>2018-08-18T10:30:46Z</time>
      </trkpt>
      <trkpt lat="45.94434" lon="4.72865">
        <ele>166</ele>
        <time>2018-08-18T10:30:47Z</time>
      </trkpt>
      <trkpt lat="45.94434" lon="4.72858">
        <ele>166</ele>
        <time>2018-08-18T10:30:48Z</time>
      </trkpt>
      <trkpt lat="45.94433" lon="4.7285">
        <ele>166</ele>
        <time>2018-08-18T10:30:49Z</time>
      </trkpt>
      <trkpt lat="45.94432" lon="4.72841">
        <ele>166</ele>
        <time>2018-08-18T10:30:50Z</time>
      </trkpt>
      <trkpt lat="45.94431" lon="4.72832">
        <ele>167</ele>
        <time>2018-08-18T10:30:51Z</time>
      </trkpt>
      <trkpt lat="45.9443" lon="4.72822">
        <ele>167</ele>
        <time>2018-08-18T10:30:52Z</time>
      </trkpt>
      <trkpt lat="45.94429" lon="4.72813">
        <ele>167</ele>
        <time>2018-08-18T10:30:53Z</time>
      </trkpt>
      <trkpt lat="45.94428" lon="4.72803">
        <ele>167</ele>
        <time>2018-08-18T10:30:54Z</time>
      </trkpt>
      <trkpt lat="45.94427" lon="4.72794">
        <ele>168</ele>
        <time>2018-08-18T10:30:55Z</time>
      </trkpt>
      <trkpt lat="45.94427" lon="4.72785">
        <ele>168</ele>
        <time>2018-08-18T10:30:56Z</time>
      </trkpt>
      <trkpt lat="45.94425" lon="4.72775">
        <ele>168</ele>
        <time>2018-08-18T10:30:57Z</time>
      </trkpt>
      <trkpt lat="45.94422" lon="4.72765">
        <ele>169</ele>
        <time>2018-08-18T10:30:58Z</time>
      </trkpt>
      <trkpt lat="45.94421" lon="4.72754">
        <ele>170</ele>
        <time>2018-08-18T10:30:59Z</time>
      </trkpt>
      <trkpt lat="45.9442" lon="4.72742">
        <ele>171</ele>
        <time>2018-08-18T10:31:00Z</time>
      </trkpt>
      <trkpt lat="45.94419" lon="4.72731">
        <ele>171</ele>
        <time>2018-08-18T10:31:01Z</time>
      </trkpt>
      <trkpt lat="45.94418" lon="4.7272">
        <ele>171</ele>
        <time>2018-08-18T10:31:02Z</time>
      </trkpt>
      <trkpt lat="45.94417" lon="4.7271">
        <ele>172</ele>
        <time>2018-08-18T10:31:03Z</time>
      </trkpt>
      <trkpt lat="45.94416" lon="4.72698">
        <ele>172</ele>
        <time>2018-08-18T10:31:04Z</time>
      </trkpt>
      <trkpt lat="45.94413" lon="4.72689">
        <ele>173</ele>
        <time>2018-08-18T10:31:05Z</time>
      </trkpt>
      <trkpt lat="45.94412" lon="4.72678">
        <ele>173</ele>
        <time>2018-08-18T10:31:06Z</time>
      </trkpt>
      <trkpt lat="45.94409" lon="4.72667">
        <ele>173</ele>
        <time>2018-08-18T10:31:07Z</time>
      </trkpt>
      <trkpt lat="45.94408" lon="4.72657">
        <ele>174</ele>
        <time>2018-08-18T10:31:08Z</time>
      </trkpt>
      <trkpt lat="45.94406" lon="4.72647">
        <ele>174</ele>
        <time>2018-08-18T10:31:09Z</time>
      </trkpt>
      <trkpt lat="45.94405" lon="4.72636">
        <ele>174</ele>
        <time>2018-08-18T10:31:10Z</time>
      </trkpt>
      <trkpt lat="45.94404" lon="4.72628">
        <ele>174</ele>
        <time>2018-08-18T10:31:11Z</time>
      </trkpt>
      <trkpt lat="45.94404" lon="4.72618">
        <ele>173</ele>
        <time>2018-08-18T10:31:12Z</time>
      </trkpt>
      <trkpt lat="45.94403" lon="4.72609">
        <ele>173</ele>
        <time>2018-08-18T10:31:13Z</time>
      </trkpt>
      <trkpt lat="45.94402" lon="4.72598">
        <ele>173</ele>
        <time>2018-08-18T10:31:14Z</time>
      </trkpt>
      <trkpt lat="45.94401" lon="4.7259">
        <ele>173</ele>
        <time>2018-08-18T10:31:15Z</time>
      </trkpt>
      <trkpt lat="45.944" lon="4.72581">
        <ele>173</ele>
        <time>2018-08-18T10:31:16Z</time>
      </trkpt>
      <trkpt lat="45.94399" lon="4.72572">
        <ele>173</ele>
        <time>2018-08-18T10:31:17Z</time>
      </trkpt>
      <trkpt lat="45.94396" lon="4.72564">
        <ele>173</ele>
        <time>2018-08-18T10:31:18Z</time>
      </trkpt>
      <trkpt lat="45.94394" lon="4.72555">
        <ele>173</ele>
        <time>2018-08-18T10:31:19Z</time>
      </trkpt>
      <trkpt lat="45.94393" lon="4.72549">
        <ele>173</ele>
        <time>2018-08-18T10:31:20Z</time>
      </trkpt>
      <trkpt lat="45.94391" lon="4.72541">
        <ele>174</ele>
        <time>2018-08-18T10:31:21Z</time>
      </trkpt>
      <trkpt lat="45.94389" lon="4.72532">
        <ele>174</ele>
        <time>2018-08-18T10:31:22Z</time>
      </trkpt>
      <trkpt lat="45.94387" lon="4.72524">
        <ele>174</ele>
        <time>2018-08-18T10:31:23Z</time>
      </trkpt>
      <trkpt lat="45.94385" lon="4.72516">
        <ele>174</ele>
        <time>2018-08-18T10:31:24Z</time>
      </trkpt>
      <trkpt lat="45.94381" lon="4.72508">
        <ele>174</ele>
        <time>2018-08-18T10:31:25Z</time>
      </trkpt>
      <trkpt lat="45.94379" lon="4.725">
        <ele>174</ele>
        <time>2018-08-18T10:31:26Z</time>
      </trkpt>
      <trkpt lat="45.94376" lon="4.72492">
        <ele>173</ele>
        <time>2018-08-18T10:31:27Z</time>
      </trkpt>
      <trkpt lat="45.94371" lon="4.72483">
        <ele>173</ele>
        <time>2018-08-18T10:31:28Z</time>
      </trkpt>
      <trkpt lat="45.94367" lon="4.72475">
        <ele>173</ele>
        <time>2018-08-18T10:31:29Z</time>
      </trkpt>
      <trkpt lat="45.94364" lon="4.72466">
        <ele>173</ele>
        <time>2018-08-18T10:31:30Z</time>
      </trkpt>
      <trkpt lat="45.9436" lon="4.72458">
        <ele>173</ele>
        <time>2018-08-18T10:31:31Z</time>
      </trkpt>
      <trkpt lat="45.94359" lon="4.72448">
        <ele>173</ele>
        <time>2018-08-18T10:31:32Z</time>
      </trkpt>
      <trkpt lat="45.94356" lon="4.72441">
        <ele>173</ele>
        <time>2018-08-18T10:31:33Z</time>
      </trkpt>
      <trkpt lat="45.94354" lon="4.72432">
        <ele>173</ele>
        <time>2018-08-18T10:31:34Z</time>
      </trkpt>
      <trkpt lat="45.94351" lon="4.72425">
        <ele>173</ele>
        <time>2018-08-18T10:31:35Z</time>
      </trkpt>
      <trkpt lat="45.94345" lon="4.72417">
        <ele>173</ele>
        <time>2018-08-18T10:31:36Z</time>
      </trkpt>
      <trkpt lat="45.94342" lon="4.72408">
        <ele>173</ele>
        <time>2018-08-18T10:31:37Z</time>
      </trkpt>
      <trkpt lat="45.94337" lon="4.72401">
        <ele>173</ele>
        <time>2018-08-18T10:31:38Z</time>
      </trkpt>
      <trkpt lat="45.94333" lon="4.72394">
        <ele>172</ele>
        <time>2018-08-18T10:31:39Z</time>
      </trkpt>
      <trkpt lat="45.9433" lon="4.72387">
        <ele>172</ele>
        <time>2018-08-18T10:31:40Z</time>
      </trkpt>
      <trkpt lat="45.94327" lon="4.7238">
        <ele>172</ele>
        <time>2018-08-18T10:31:41Z</time>
      </trkpt>
      <trkpt lat="45.94324" lon="4.72373">
        <ele>172</ele>
        <time>2018-08-18T10:31:42Z</time>
      </trkpt>
      <trkpt lat="45.9432" lon="4.72366">
        <ele>172</ele>
        <time>2018-08-18T10:31:43Z</time>
      </trkpt>
      <trkpt lat="45.94317" lon="4.72359">
        <ele>172</ele>
        <time>2018-08-18T10:31:44Z</time>
      </trkpt>
      <trkpt lat="45.94313" lon="4.72353">
        <ele>172</ele>
        <time>2018-08-18T10:31:45Z</time>
      </trkpt>
      <trkpt lat="45.94311" lon="4.72346">
        <ele>172</ele>
        <time>2018-08-18T10:31:46Z</time>
      </trkpt>
      <trkpt lat="45.94308" lon="4.72339">
        <ele>172</ele>
        <time>2018-08-18T10:31:47Z</time>
      </trkpt>
      <trkpt lat="45.94305" lon="4.72331">
        <ele>171</ele>
        <time>2018-08-18T10:31:48Z</time>
      </trkpt>
      <trkpt lat="45.94303" lon="4.72324">
        <ele>171</ele>
        <time>2018-08-18T10:31:49Z</time>
      </trkpt>
      <trkpt lat="45.94299" lon="4.72316">
        <ele>171</ele>
        <time>2018-08-18T10:31:50Z</time>
      </trkpt>
      <trkpt lat="45.94295" lon="4.72307">
        <ele>171</ele>
        <time>2018-08-18T10:31:51Z</time>
      </trkpt>
      <trkpt lat="45.94293" lon="4.72299">
        <ele>171</ele>
        <time>2018-08-18T10:31:52Z</time>
      </trkpt>
      <trkpt lat="45.9429" lon="4.72293">
        <ele>171</ele>
        <time>2018-08-18T10:31:53Z</time>
      </trkpt>
      <trkpt lat="45.94289" lon="4.72287">
        <ele>171</ele>
        <time>2018-08-18T10:31:54Z</time>
      </trkpt>
      <trkpt lat="45.94285" lon="4.7228">
        <ele>171</ele>
        <time>2018-08-18T10:31:55Z</time>
      </trkpt>
      <trkpt lat="45.94282" lon="4.72273">
        <ele>171</ele>
        <time>2018-08-18T10:31:56Z</time>
      </trkpt>
      <trkpt lat="45.94275" lon="4.72266">
        <ele>171</ele>
        <time>2018-08-18T10:31:58Z</time>
      </trkpt>
      <trkpt lat="45.94271" lon="4.72265">
        <ele>171</ele>
        <time>2018-08-18T10:31:59Z</time>
      </trkpt>
      <trkpt lat="45.94263" lon="4.72268">
        <ele>171</ele>
        <time>2018-08-18T10:32:01Z</time>
      </trkpt>
      <trkpt lat="45.94259" lon="4.72272">
        <ele>171</ele>
        <time>2018-08-18T10:32:02Z</time>
      </trkpt>
      <trkpt lat="45.94252" lon="4.72275">
        <ele>171</ele>
        <time>2018-08-18T10:32:03Z</time>
      </trkpt>
      <trkpt lat="45.94247" lon="4.72277">
        <ele>171</ele>
        <time>2018-08-18T10:32:04Z</time>
      </trkpt>
      <trkpt lat="45.94243" lon="4.7228">
        <ele>171</ele>
        <time>2018-08-18T10:32:05Z</time>
      </trkpt>
      <trkpt lat="45.94238" lon="4.72281">
        <ele>171</ele>
        <time>2018-08-18T10:32:06Z</time>
      </trkpt>
      <trkpt lat="45.94231" lon="4.72282">
        <ele>171</ele>
        <time>2018-08-18T10:32:07Z</time>
      </trkpt>
      <trkpt lat="45.94225" lon="4.72282">
        <ele>171</ele>
        <time>2018-08-18T10:32:08Z</time>
      </trkpt>
      <trkpt lat="45.94219" lon="4.72283">
        <ele>171</ele>
        <time>2018-08-18T10:32:09Z</time>
      </trkpt>
      <trkpt lat="45.94214" lon="4.72286">
        <ele>171</ele>
        <time>2018-08-18T10:32:10Z</time>
      </trkpt>
      <trkpt lat="45.94209" lon="4.72285">
        <ele>171</ele>
        <time>2018-08-18T10:32:11Z</time>
      </trkpt>
      <trkpt lat="45.94204" lon="4.72285">
        <ele>171</ele>
        <time>2018-08-18T10:32:12Z</time>
      </trkpt>
      <trkpt lat="45.94198" lon="4.72288">
        <ele>171</ele>
        <time>2018-08-18T10:32:13Z</time>
      </trkpt>
      <trkpt lat="45.94192" lon="4.72286">
        <ele>171</ele>
        <time>2018-08-18T10:32:14Z</time>
      </trkpt>
      <trkpt lat="45.94187" lon="4.72288">
        <ele>171</ele>
        <time>2018-08-18T10:32:15Z</time>
      </trkpt>
      <trkpt lat="45.9418" lon="4.72287">
        <ele>171</ele>
        <time>2018-08-18T10:32:16Z</time>
      </trkpt>
      <trkpt lat="45.94173" lon="4.72286">
        <ele>171</ele>
        <time>2018-08-18T10:32:17Z</time>
      </trkpt>
      <trkpt lat="45.94167" lon="4.72284">
        <ele>171</ele>
        <time>2018-08-18T10:32:18Z</time>
      </trkpt>
      <trkpt lat="45.94161" lon="4.72283">
        <ele>171</ele>
        <time>2018-08-18T10:32:19Z</time>
      </trkpt>
      <trkpt lat="45.94155" lon="4.72281">
        <ele>171</ele>
        <time>2018-08-18T10:32:20Z</time>
      </trkpt>
      <trkpt lat="45.94149" lon="4.72279">
        <ele>171</ele>
        <time>2018-08-18T10:32:21Z</time>
      </trkpt>
      <trkpt lat="45.94146" lon="4.72279">
        <ele>171</ele>
        <time>2018-08-18T10:32:22Z</time>
      </trkpt>
      <trkpt lat="45.94141" lon="4.72277">
        <ele>171</ele>
        <time>2018-08-18T10:32:23Z</time>
      </trkpt>
      <trkpt lat="45.94136" lon="4.72275">
        <ele>171</ele>
        <time>2018-08-18T10:32:24Z</time>
      </trkpt>
      <trkpt lat="45.9413" lon="4.72272">
        <ele>171</ele>
        <time>2018-08-18T10:32:25Z</time>
      </trkpt>
      <trkpt lat="45.94123" lon="4.7227">
        <ele>171</ele>
        <time>2018-08-18T10:32:26Z</time>
      </trkpt>
      <trkpt lat="45.9412" lon="4.72266">
        <ele>171</ele>
        <time>2018-08-18T10:32:27Z</time>
      </trkpt>
      <trkpt lat="45.94114" lon="4.72265">
        <ele>171</ele>
        <time>2018-08-18T10:32:28Z</time>
      </trkpt>
      <trkpt lat="45.94107" lon="4.72265">
        <ele>171</ele>
        <time>2018-08-18T10:32:29Z</time>
      </trkpt>
      <trkpt lat="45.94099" lon="4.72265">
        <ele>171</ele>
        <time>2018-08-18T10:32:30Z</time>
      </trkpt>
      <trkpt lat="45.94093" lon="4.72265">
        <ele>171</ele>
        <time>2018-08-18T10:32:31Z</time>
      </trkpt>
      <trkpt lat="45.94085" lon="4.72268">
        <ele>171</ele>
        <time>2018-08-18T10:32:32Z</time>
      </trkpt>
      <trkpt lat="45.94079" lon="4.72269">
        <ele>171</ele>
        <time>2018-08-18T10:32:33Z</time>
      </trkpt>
      <trkpt lat="45.94073" lon="4.72272">
        <ele>171</ele>
        <time>2018-08-18T10:32:34Z</time>
      </trkpt>
      <trkpt lat="45.94067" lon="4.72278">
        <ele>171</ele>
        <time>2018-08-18T10:32:35Z</time>
      </trkpt>
      <trkpt lat="45.94061" lon="4.72284">
        <ele>171</ele>
        <time>2018-08-18T10:32:36Z</time>
      </trkpt>
      <trkpt lat="45.94056" lon="4.72288">
        <ele>171</ele>
        <time>2018-08-18T10:32:37Z</time>
      </trkpt>
      <trkpt lat="45.94051" lon="4.72296">
        <ele>171</ele>
        <time>2018-08-18T10:32:38Z</time>
      </trkpt>
      <trkpt lat="45.94045" lon="4.72301">
        <ele>171</ele>
        <time>2018-08-18T10:32:39Z</time>
      </trkpt>
      <trkpt lat="45.94041" lon="4.72306">
        <ele>171</ele>
        <time>2018-08-18T10:32:40Z</time>
      </trkpt>
      <trkpt lat="45.94038" lon="4.72315">
        <ele>171</ele>
        <time>2018-08-18T10:32:41Z</time>
      </trkpt>
      <trkpt lat="45.94033" lon="4.72322">
        <ele>171</ele>
        <time>2018-08-18T10:32:42Z</time>
      </trkpt>
      <trkpt lat="45.94028" lon="4.72328">
        <ele>171</ele>
        <time>2018-08-18T10:32:43Z</time>
      </trkpt>
      <trkpt lat="45.94023" lon="4.72334">
        <ele>171</ele>
        <time>2018-08-18T10:32:44Z</time>
      </trkpt>
      <trkpt lat="45.94019" lon="4.7234">
        <ele>171</ele>
        <time>2018-08-18T10:32:45Z</time>
      </trkpt>
      <trkpt lat="45.94014" lon="4.72345">
        <ele>171</ele>
        <time>2018-08-18T10:32:46Z</time>
      </trkpt>
      <trkpt lat="45.94009" lon="4.72351">
        <ele>171</ele>
        <time>2018-08-18T10:32:47Z</time>
      </trkpt>
      <trkpt lat="45.94004" lon="4.72356">
        <ele>171</ele>
        <time>2018-08-18T10:32:48Z</time>
      </trkpt>
      <trkpt lat="45.93999" lon="4.72361">
        <ele>171</ele>
        <time>2018-08-18T10:32:49Z</time>
      </trkpt>
      <trkpt lat="45.93995" lon="4.72367">
        <ele>171</ele>
        <time>2018-08-18T10:32:50Z</time>
      </trkpt>
      <trkpt lat="45.9399" lon="4.72373">
        <ele>171</ele>
        <time>2018-08-18T10:32:51Z</time>
      </trkpt>
      <trkpt lat="45.93987" lon="4.72379">
        <ele>171</ele>
        <time>2018-08-18T10:32:52Z</time>
      </trkpt>
      <trkpt lat="45.93982" lon="4.72384">
        <ele>171</ele>
        <time>2018-08-18T10:32:53Z</time>
      </trkpt>
      <trkpt lat="45.93978" lon="4.72389">
        <ele>171</ele>
        <time>2018-08-18T10:32:54Z</time>
      </trkpt>
      <trkpt lat="45.93975" lon="4.72397">
        <ele>171</ele>
        <time>2018-08-18T10:32:55Z</time>
      </trkpt>
      <trkpt lat="45.93971" lon="4.72403">
        <ele>171</ele>
        <time>2018-08-18T10:32:56Z</time>
      </trkpt>
      <trkpt lat="45.93967" lon="4.72408">
        <ele>171</ele>
        <time>2018-08-18T10:32:57Z</time>
      </trkpt>
      <trkpt lat="45.93963" lon="4.7241">
        <ele>171</ele>
        <time>2018-08-18T10:32:58Z</time>
      </trkpt>
      <trkpt lat="45.93959" lon="4.72415">
        <ele>171</ele>
        <time>2018-08-18T10:32:59Z</time>
      </trkpt>
      <trkpt lat="45.93954" lon="4.7242">
        <ele>171</ele>
        <time>2018-08-18T10:33:00Z</time>
      </trkpt>
      <trkpt lat="45.9395" lon="4.72425">
        <ele>171</ele>
        <time>2018-08-18T10:33:01Z</time>
      </trkpt>
      <trkpt lat="45.93945" lon="4.7243">
        <ele>171</ele>
        <time>2018-08-18T10:33:02Z</time>
      </trkpt>
      <trkpt lat="45.93941" lon="4.72435">
        <ele>171</ele>
        <time>2018-08-18T10:33:03Z</time>
      </trkpt>
      <trkpt lat="45.93938" lon="4.72437">
        <ele>171</ele>
        <time>2018-08-18T10:33:04Z</time>
      </trkpt>
      <trkpt lat="45.93933" lon="4.72442">
        <ele>171</ele>
        <time>2018-08-18T10:33:05Z</time>
      </trkpt>
      <trkpt lat="45.9393" lon="4.72446">
        <ele>171</ele>
        <time>2018-08-18T10:33:06Z</time>
      </trkpt>
      <trkpt lat="45.93927" lon="4.7245">
        <ele>171</ele>
        <time>2018-08-18T10:33:07Z</time>
      </trkpt>
      <trkpt lat="45.93923" lon="4.72455">
        <ele>171</ele>
        <time>2018-08-18T10:33:08Z</time>
      </trkpt>
      <trkpt lat="45.93917" lon="4.72462">
        <ele>172</ele>
        <time>2018-08-18T10:33:10Z</time>
      </trkpt>
      <trkpt lat="45.93915" lon="4.72464">
        <ele>172</ele>
        <time>2018-08-18T10:33:11Z</time>
      </trkpt>
      <trkpt lat="45.93913" lon="4.72465">
        <ele>172</ele>
        <time>2018-08-18T10:33:12Z</time>
      </trkpt>
      <trkpt lat="45.93907" lon="4.72471">
        <ele>172</ele>
        <time>2018-08-18T10:33:13Z</time>
      </trkpt>
      <trkpt lat="45.93904" lon="4.72475">
        <ele>172</ele>
        <time>2018-08-18T10:33:14Z</time>
      </trkpt>
      <trkpt lat="45.93901" lon="4.72481">
        <ele>172</ele>
        <time>2018-08-18T10:33:15Z</time>
      </trkpt>
      <trkpt lat="45.93895" lon="4.72489">
        <ele>172</ele>
        <time>2018-08-18T10:33:17Z</time>
      </trkpt>
      <trkpt lat="45.93891" lon="4.72494">
        <ele>172</ele>
        <time>2018-08-18T10:33:18Z</time>
      </trkpt>
      <trkpt lat="45.93888" lon="4.72499">
        <ele>172</ele>
        <time>2018-08-18T10:33:19Z</time>
      </trkpt>
      <trkpt lat="45.93884" lon="4.72503">
        <ele>173</ele>
        <time>2018-08-18T10:33:20Z</time>
      </trkpt>
      <trkpt lat="45.93879" lon="4.72507">
        <ele>173</ele>
        <time>2018-08-18T10:33:21Z</time>
      </trkpt>
      <trkpt lat="45.93875" lon="4.7251">
        <ele>173</ele>
        <time>2018-08-18T10:33:22Z</time>
      </trkpt>
      <trkpt lat="45.93866" lon="4.7251">
        <ele>173</ele>
        <time>2018-08-18T10:33:24Z</time>
      </trkpt>
      <trkpt lat="45.93861" lon="4.72508">
        <ele>173</ele>
        <time>2018-08-18T10:33:25Z</time>
      </trkpt>
      <trkpt lat="45.93855" lon="4.725">
        <ele>173</ele>
        <time>2018-08-18T10:33:27Z</time>
      </trkpt>
      <trkpt lat="45.93852" lon="4.72498">
        <ele>173</ele>
        <time>2018-08-18T10:33:28Z</time>
      </trkpt>
      <trkpt lat="45.93821" lon="4.72472">
        <ele>172</ele>
        <time>2018-08-18T10:33:36Z</time>
      </trkpt>
      <trkpt lat="45.93813" lon="4.72463">
        <ele>172</ele>
        <time>2018-08-18T10:33:37Z</time>
      </trkpt>
      <trkpt lat="45.93809" lon="4.72459">
        <ele>172</ele>
        <time>2018-08-18T10:33:38Z</time>
      </trkpt>
      <trkpt lat="45.93805" lon="4.72455">
        <ele>172</ele>
        <time>2018-08-18T10:33:39Z</time>
      </trkpt>
      <trkpt lat="45.93798" lon="4.72448">
        <ele>172</ele>
        <time>2018-08-18T10:33:41Z</time>
      </trkpt>
      <trkpt lat="45.93793" lon="4.72447">
        <ele>172</ele>
        <time>2018-08-18T10:33:42Z</time>
      </trkpt>
      <trkpt lat="45.93788" lon="4.72442">
        <ele>172</ele>
        <time>2018-08-18T10:33:43Z</time>
      </trkpt>
      <trkpt lat="45.93784" lon="4.72439">
        <ele>172</ele>
        <time>2018-08-18T10:33:44Z</time>
      </trkpt>
      <trkpt lat="45.93781" lon="4.72434">
        <ele>172</ele>
        <time>2018-08-18T10:33:45Z</time>
      </trkpt>
      <trkpt lat="45.93777" lon="4.72429">
        <ele>171</ele>
        <time>2018-08-18T10:33:46Z</time>
      </trkpt>
      <trkpt lat="45.93771" lon="4.72425">
        <ele>171</ele>
        <time>2018-08-18T10:33:47Z</time>
      </trkpt>
      <trkpt lat="45.93767" lon="4.7242">
        <ele>171</ele>
        <time>2018-08-18T10:33:48Z</time>
      </trkpt>
      <trkpt lat="45.93763" lon="4.72414">
        <ele>171</ele>
        <time>2018-08-18T10:33:49Z</time>
      </trkpt>
      <trkpt lat="45.93759" lon="4.7241">
        <ele>171</ele>
        <time>2018-08-18T10:33:50Z</time>
      </trkpt>
      <trkpt lat="45.93754" lon="4.72404">
        <ele>171</ele>
        <time>2018-08-18T10:33:51Z</time>
      </trkpt>
      <trkpt lat="45.93748" lon="4.724">
        <ele>171</ele>
        <time>2018-08-18T10:33:52Z</time>
      </trkpt>
      <trkpt lat="45.93744" lon="4.72395">
        <ele>171</ele>
        <time>2018-08-18T10:33:53Z</time>
      </trkpt>
      <trkpt lat="45.93739" lon="4.72391">
        <ele>171</ele>
        <time>2018-08-18T10:33:54Z</time>
      </trkpt>
      <trkpt lat="45.93735" lon="4.72386">
        <ele>171</ele>
        <time>2018-08-18T10:33:55Z</time>
      </trkpt>
      <trkpt lat="45.9373" lon="4.72381">
        <ele>171</ele>
        <time>2018-08-18T10:33:56Z</time>
      </trkpt>
      <trkpt lat="45.93726" lon="4.72371">
        <ele>172</ele>
        <time>2018-08-18T10:33:58Z</time>
      </trkpt>
      <trkpt lat="45.93722" lon="4.72367">
        <ele>172</ele>
        <time>2018-08-18T10:33:59Z</time>
      </trkpt>
      <trkpt lat="45.93718" lon="4.72363">
        <ele>172</ele>
        <time>2018-08-18T10:34:00Z</time>
      </trkpt>
      <trkpt lat="45.93713" lon="4.72358">
        <ele>172</ele>
        <time>2018-08-18T10:34:01Z</time>
      </trkpt>
      <trkpt lat="45.93706" lon="4.72354">
        <ele>171</ele>
        <time>2018-08-18T10:34:02Z</time>
      </trkpt>
      <trkpt lat="45.93701" lon="4.72349">
        <ele>171</ele>
        <time>2018-08-18T10:34:03Z</time>
      </trkpt>
      <trkpt lat="45.93697" lon="4.72344">
        <ele>171</ele>
        <time>2018-08-18T10:34:04Z</time>
      </trkpt>
      <trkpt lat="45.93692" lon="4.7234">
        <ele>171</ele>
        <time>2018-08-18T10:34:05Z</time>
      </trkpt>
      <trkpt lat="45.9368" lon="4.72333">
        <ele>171</ele>
        <time>2018-08-18T10:34:07Z</time>
      </trkpt>
      <trkpt lat="45.93676" lon="4.72327">
        <ele>171</ele>
        <time>2018-08-18T10:34:08Z</time>
      </trkpt>
      <trkpt lat="45.9367" lon="4.72324">
        <ele>171</ele>
        <time>2018-08-18T10:34:09Z</time>
      </trkpt>
      <trkpt lat="45.93663" lon="4.72316">
        <ele>172</ele>
        <time>2018-08-18T10:34:11Z</time>
      </trkpt>
      <trkpt lat="45.93659" lon="4.72313">
        <ele>172</ele>
        <time>2018-08-18T10:34:12Z</time>
      </trkpt>
      <trkpt lat="45.93655" lon="4.72309">
        <ele>172</ele>
        <time>2018-08-18T10:34:13Z</time>
      </trkpt>
      <trkpt lat="45.9365" lon="4.72305">
        <ele>172</ele>
        <time>2018-08-18T10:34:14Z</time>
      </trkpt>
      <trkpt lat="45.93646" lon="4.72302">
        <ele>172</ele>
        <time>2018-08-18T10:34:15Z</time>
      </trkpt>
      <trkpt lat="45.93642" lon="4.72298">
        <ele>172</ele>
        <time>2018-08-18T10:34:16Z</time>
      </trkpt>
      <trkpt lat="45.93637" lon="4.72294">
        <ele>172</ele>
        <time>2018-08-18T10:34:17Z</time>
      </trkpt>
      <trkpt lat="45.93633" lon="4.72289">
        <ele>172</ele>
        <time>2018-08-18T10:34:18Z</time>
      </trkpt>
      <trkpt lat="45.93628" lon="4.72281">
        <ele>172</ele>
        <time>2018-08-18T10:34:20Z</time>
      </trkpt>
      <trkpt lat="45.93624" lon="4.72275">
        <ele>172</ele>
        <time>2018-08-18T10:34:21Z</time>
      </trkpt>
      <trkpt lat="45.9362" lon="4.72271">
        <ele>172</ele>
        <time>2018-08-18T10:34:22Z</time>
      </trkpt>
      <trkpt lat="45.93616" lon="4.72266">
        <ele>172</ele>
        <time>2018-08-18T10:34:23Z</time>
      </trkpt>
      <trkpt lat="45.93611" lon="4.72264">
        <ele>172</ele>
        <time>2018-08-18T10:34:26Z</time>
      </trkpt>
      <trkpt lat="45.93605" lon="4.72258">
        <ele>173</ele>
        <time>2018-08-18T10:34:27Z</time>
      </trkpt>
      <trkpt lat="45.936" lon="4.72252">
        <ele>173</ele>
        <time>2018-08-18T10:34:29Z</time>
      </trkpt>
      <trkpt lat="45.93596" lon="4.72247">
        <ele>173</ele>
        <time>2018-08-18T10:34:30Z</time>
      </trkpt>
      <trkpt lat="45.93592" lon="4.72244">
        <ele>173</ele>
        <time>2018-08-18T10:34:31Z</time>
      </trkpt>
      <trkpt lat="45.93588" lon="4.72239">
        <ele>173</ele>
        <time>2018-08-18T10:34:32Z</time>
      </trkpt>
      <trkpt lat="45.93581" lon="4.72234">
        <ele>173</ele>
        <time>2018-08-18T10:34:34Z</time>
      </trkpt>
      <trkpt lat="45.93577" lon="4.72231">
        <ele>173</ele>
        <time>2018-08-18T10:34:35Z</time>
      </trkpt>
      <trkpt lat="45.9357" lon="4.72224">
        <ele>173</ele>
        <time>2018-08-18T10:34:37Z</time>
      </trkpt>
      <trkpt lat="45.93568" lon="4.72222">
        <ele>173</ele>
        <time>2018-08-18T10:34:38Z</time>
      </trkpt>
      <trkpt lat="45.93561" lon="4.72216">
        <ele>173</ele>
        <time>2018-08-18T10:34:42Z</time>
      </trkpt>
      <trkpt lat="45.9356" lon="4.72215">
        <ele>173</ele>
        <time>2018-08-18T10:34:43Z</time>
      </trkpt>
      <trkpt lat="45.93551" lon="4.72214">
        <ele>173</ele>
        <time>2018-08-18T10:35:13Z</time>
      </trkpt>
      <trkpt lat="45.9355" lon="4.72216">
        <ele>173</ele>
        <time>2018-08-18T10:35:14Z</time>
      </trkpt>
      <trkpt lat="45.93545" lon="4.72223">
        <ele>172</ele>
        <time>2018-08-18T10:35:17Z</time>
      </trkpt>
      <trkpt lat="45.93544" lon="4.72226">
        <ele>172</ele>
        <time>2018-08-18T10:35:18Z</time>
      </trkpt>
      <trkpt lat="45.9354" lon="4.72238">
        <ele>172</ele>
        <time>2018-08-18T10:35:21Z</time>
      </trkpt>
      <trkpt lat="45.93539" lon="4.72241">
        <ele>172</ele>
        <time>2018-08-18T10:35:22Z</time>
      </trkpt>
      <trkpt lat="45.93536" lon="4.72253">
        <ele>172</ele>
        <time>2018-08-18T10:35:25Z</time>
      </trkpt>
      <trkpt lat="45.93535" lon="4.72257">
        <ele>172</ele>
        <time>2018-08-18T10:35:26Z</time>
      </trkpt>
      <trkpt lat="45.93532" lon="4.72264">
        <ele>172</ele>
        <time>2018-08-18T10:35:28Z</time>
      </trkpt>
      <trkpt lat="45.93528" lon="4.72274">
        <ele>172</ele>
        <time>2018-08-18T10:35:29Z</time>
      </trkpt>
      <trkpt lat="45.93524" lon="4.72285">
        <ele>172</ele>
        <time>2018-08-18T10:35:31Z</time>
      </trkpt>
      <trkpt lat="45.93523" lon="4.72292">
        <ele>172</ele>
        <time>2018-08-18T10:35:32Z</time>
      </trkpt>
      <trkpt lat="45.93519" lon="4.72297">
        <ele>172</ele>
        <time>2018-08-18T10:35:33Z</time>
      </trkpt>
      <trkpt lat="45.93517" lon="4.72303">
        <ele>173</ele>
        <time>2018-08-18T10:35:34Z</time>
      </trkpt>
      <trkpt lat="45.93512" lon="4.72307">
        <ele>173</ele>
        <time>2018-08-18T10:35:35Z</time>
      </trkpt>
      <trkpt lat="45.93508" lon="4.72312">
        <ele>173</ele>
        <time>2018-08-18T10:35:36Z</time>
      </trkpt>
      <trkpt lat="45.93505" lon="4.72318">
        <ele>173</ele>
        <time>2018-08-18T10:35:37Z</time>
      </trkpt>
      <trkpt lat="45.93503" lon="4.72328">
        <ele>173</ele>
        <time>2018-08-18T10:35:38Z</time>
      </trkpt>
      <trkpt lat="45.93499" lon="4.72334">
        <ele>173</ele>
        <time>2018-08-18T10:35:39Z</time>
      </trkpt>
      <trkpt lat="45.93495" lon="4.72339">
        <ele>173</ele>
        <time>2018-08-18T10:35:40Z</time>
      </trkpt>
      <trkpt lat="45.9349" lon="4.72344">
        <ele>173</ele>
        <time>2018-08-18T10:35:41Z</time>
      </trkpt>
      <trkpt lat="45.93486" lon="4.72352">
        <ele>173</ele>
        <time>2018-08-18T10:35:42Z</time>
      </trkpt>
      <trkpt lat="45.93482" lon="4.72357">
        <ele>173</ele>
        <time>2018-08-18T10:35:43Z</time>
      </trkpt>
      <trkpt lat="45.93478" lon="4.72363">
        <ele>173</ele>
        <time>2018-08-18T10:35:44Z</time>
      </trkpt>
      <trkpt lat="45.93474" lon="4.72367">
        <ele>173</ele>
        <time>2018-08-18T10:35:45Z</time>
      </trkpt>
      <trkpt lat="45.93469" lon="4.72374">
        <ele>173</ele>
        <time>2018-08-18T10:35:46Z</time>
      </trkpt>
      <trkpt lat="45.93465" lon="4.72376">
        <ele>173</ele>
        <time>2018-08-18T10:35:47Z</time>
      </trkpt>
      <trkpt lat="45.9346" lon="4.72379">
        <ele>173</ele>
        <time>2018-08-18T10:35:48Z</time>
      </trkpt>
      <trkpt lat="45.93456" lon="4.72384">
        <ele>173</ele>
        <time>2018-08-18T10:35:49Z</time>
      </trkpt>
      <trkpt lat="45.93451" lon="4.72387">
        <ele>173</ele>
        <time>2018-08-18T10:35:50Z</time>
      </trkpt>
      <trkpt lat="45.93447" lon="4.72391">
        <ele>173</ele>
        <time>2018-08-18T10:35:51Z</time>
      </trkpt>
      <trkpt lat="45.93441" lon="4.72394">
        <ele>173</ele>
        <time>2018-08-18T10:35:52Z</time>
      </trkpt>
      <trkpt lat="45.93435" lon="4.72396">
        <ele>173</ele>
        <time>2018-08-18T10:35:53Z</time>
      </trkpt>
      <trkpt lat="45.93429" lon="4.72396">
        <ele>174</ele>
        <time>2018-08-18T10:35:54Z</time>
      </trkpt>
      <trkpt lat="45.9342" lon="4.72399">
        <ele>174</ele>
        <time>2018-08-18T10:35:56Z</time>
      </trkpt>
      <trkpt lat="45.93417" lon="4.72401">
        <ele>174</ele>
        <time>2018-08-18T10:35:57Z</time>
      </trkpt>
      <trkpt lat="45.93409" lon="4.72404">
        <ele>174</ele>
        <time>2018-08-18T10:35:59Z</time>
      </trkpt>
      <trkpt lat="45.93404" lon="4.72405">
        <ele>174</ele>
        <time>2018-08-18T10:36:00Z</time>
      </trkpt>
      <trkpt lat="45.93399" lon="4.72404">
        <ele>174</ele>
        <time>2018-08-18T10:36:01Z</time>
      </trkpt>
      <trkpt lat="45.93393" lon="4.72405">
        <ele>174</ele>
        <time>2018-08-18T10:36:02Z</time>
      </trkpt>
      <trkpt lat="45.93388" lon="4.72407">
        <ele>174</ele>
        <time>2018-08-18T10:36:03Z</time>
      </trkpt>
      <trkpt lat="45.93386" lon="4.72415">
        <ele>174</ele>
        <time>2018-08-18T10:36:04Z</time>
      </trkpt>
      <trkpt lat="45.93385" lon="4.72423">
        <ele>173</ele>
        <time>2018-08-18T10:36:05Z</time>
      </trkpt>
      <trkpt lat="45.93387" lon="4.7243">
        <ele>173</ele>
        <time>2018-08-18T10:36:06Z</time>
      </trkpt>
      <trkpt lat="45.93389" lon="4.72437">
        <ele>173</ele>
        <time>2018-08-18T10:36:07Z</time>
      </trkpt>
      <trkpt lat="45.93391" lon="4.72442">
        <ele>173</ele>
        <time>2018-08-18T10:36:08Z</time>
      </trkpt>
      <trkpt lat="45.93393" lon="4.72449">
        <ele>173</ele>
        <time>2018-08-18T10:36:09Z</time>
      </trkpt>
      <trkpt lat="45.93393" lon="4.72457">
        <ele>173</ele>
        <time>2018-08-18T10:36:10Z</time>
      </trkpt>
      <trkpt lat="45.9339" lon="4.72461">
        <ele>173</ele>
        <time>2018-08-18T10:36:11Z</time>
      </trkpt>
      <trkpt lat="45.93387" lon="4.72467">
        <ele>173</ele>
        <time>2018-08-18T10:36:12Z</time>
      </trkpt>
      <trkpt lat="45.93382" lon="4.72473">
        <ele>173</ele>
        <time>2018-08-18T10:36:13Z</time>
      </trkpt>
      <trkpt lat="45.93377" lon="4.72478">
        <ele>173</ele>
        <time>2018-08-18T10:36:14Z</time>
      </trkpt>
      <trkpt lat="45.93372" lon="4.72483">
        <ele>173</ele>
        <time>2018-08-18T10:36:15Z</time>
      </trkpt>
      <trkpt lat="45.93368" lon="4.72488">
        <ele>173</ele>
        <time>2018-08-18T10:36:16Z</time>
      </trkpt>
      <trkpt lat="45.93363" lon="4.72492">
        <ele>173</ele>
        <time>2018-08-18T10:36:17Z</time>
      </trkpt>
      <trkpt lat="45.93359" lon="4.72497">
        <ele>173</ele>
        <time>2018-08-18T10:36:18Z</time>
      </trkpt>
      <trkpt lat="45.93356" lon="4.72503">
        <ele>172</ele>
        <time>2018-08-18T10:36:19Z</time>
      </trkpt>
      <trkpt lat="45.93352" lon="4.72508">
        <ele>172</ele>
        <time>2018-08-18T10:36:20Z</time>
      </trkpt>
      <trkpt lat="45.93347" lon="4.72514">
        <ele>172</ele>
        <time>2018-08-18T10:36:21Z</time>
      </trkpt>
      <trkpt lat="45.93343" lon="4.7252">
        <ele>172</ele>
        <time>2018-08-18T10:36:22Z</time>
      </trkpt>
      <trkpt lat="45.93338" lon="4.72526">
        <ele>172</ele>
        <time>2018-08-18T10:36:23Z</time>
      </trkpt>
      <trkpt lat="45.93333" lon="4.72532">
        <ele>172</ele>
        <time>2018-08-18T10:36:24Z</time>
      </trkpt>
      <trkpt lat="45.93329" lon="4.72537">
        <ele>172</ele>
        <time>2018-08-18T10:36:25Z</time>
      </trkpt>
      <trkpt lat="45.93324" lon="4.72542">
        <ele>172</ele>
        <time>2018-08-18T10:36:26Z</time>
      </trkpt>
      <trkpt lat="45.93319" lon="4.72547">
        <ele>172</ele>
        <time>2018-08-18T10:36:27Z</time>
      </trkpt>
      <trkpt lat="45.93313" lon="4.72552">
        <ele>172</ele>
        <time>2018-08-18T10:36:28Z</time>
      </trkpt>
      <trkpt lat="45.93308" lon="4.72555">
        <ele>172</ele>
        <time>2018-08-18T10:36:29Z</time>
      </trkpt>
      <trkpt lat="45.93304" lon="4.72562">
        <ele>172</ele>
        <time>2018-08-18T10:36:30Z</time>
      </trkpt>
      <trkpt lat="45.93299" lon="4.72565">
        <ele>172</ele>
        <time>2018-08-18T10:36:31Z</time>
      </trkpt>
      <trkpt lat="45.93294" lon="4.72569">
        <ele>172</ele>
        <time>2018-08-18T10:36:32Z</time>
      </trkpt>
      <trkpt lat="45.93289" lon="4.72575">
        <ele>172</ele>
        <time>2018-08-18T10:36:33Z</time>
      </trkpt>
      <trkpt lat="45.93285" lon="4.7258">
        <ele>171</ele>
        <time>2018-08-18T10:36:34Z</time>
      </trkpt>
      <trkpt lat="45.93282" lon="4.72584">
        <ele>170</ele>
        <time>2018-08-18T10:36:35Z</time>
      </trkpt>
      <trkpt lat="45.93278" lon="4.72589">
        <ele>170</ele>
        <time>2018-08-18T10:36:36Z</time>
      </trkpt>
      <trkpt lat="45.93274" lon="4.72595">
        <ele>170</ele>
        <time>2018-08-18T10:36:37Z</time>
      </trkpt>
      <trkpt lat="45.9327" lon="4.72599">
        <ele>170</ele>
        <time>2018-08-18T10:36:38Z</time>
      </trkpt>
      <trkpt lat="45.93264" lon="4.72604">
        <ele>170</ele>
        <time>2018-08-18T10:36:39Z</time>
      </trkpt>
      <trkpt lat="45.93259" lon="4.72612">
        <ele>170</ele>
        <time>2018-08-18T10:36:40Z</time>
      </trkpt>
      <trkpt lat="45.93254" lon="4.72618">
        <ele>170</ele>
        <time>2018-08-18T10:36:41Z</time>
      </trkpt>
      <trkpt lat="45.93249" lon="4.72625">
        <ele>170</ele>
        <time>2018-08-18T10:36:42Z</time>
      </trkpt>
      <trkpt lat="45.93244" lon="4.72631">
        <ele>170</ele>
        <time>2018-08-18T10:36:43Z</time>
      </trkpt>
      <trkpt lat="45.93238" lon="4.72638">
        <ele>170</ele>
        <time>2018-08-18T10:36:44Z</time>
      </trkpt>
      <trkpt lat="45.93233" lon="4.72644">
        <ele>170</ele>
        <time>2018-08-18T10:36:45Z</time>
      </trkpt>
      <trkpt lat="45.93229" lon="4.72649">
        <ele>170</ele>
        <time>2018-08-18T10:36:46Z</time>
      </trkpt>
      <trkpt lat="45.93224" lon="4.72655">
        <ele>170</ele>
        <time>2018-08-18T10:36:47Z</time>
      </trkpt>
      <trkpt lat="45.93217" lon="4.7266">
        <ele>170</ele>
        <time>2018-08-18T10:36:48Z</time>
      </trkpt>
      <trkpt lat="45.93212" lon="4.72666">
        <ele>170</ele>
        <time>2018-08-18T10:36:49Z</time>
      </trkpt>
      <trkpt lat="45.93208" lon="4.72671">
        <ele>169</ele>
        <time>2018-08-18T10:36:50Z</time>
      </trkpt>
      <trkpt lat="45.93204" lon="4.72677">
        <ele>169</ele>
        <time>2018-08-18T10:36:51Z</time>
      </trkpt>
      <trkpt lat="45.93198" lon="4.72682">
        <ele>169</ele>
        <time>2018-08-18T10:36:52Z</time>
      </trkpt>
      <trkpt lat="45.93193" lon="4.72688">
        <ele>169</ele>
        <time>2018-08-18T10:36:53Z</time>
      </trkpt>
      <trkpt lat="45.93189" lon="4.72696">
        <ele>169</ele>
        <time>2018-08-18T10:36:54Z</time>
      </trkpt>
      <trkpt lat="45.93184" lon="4.72703">
        <ele>169</ele>
        <time>2018-08-18T10:36:55Z</time>
      </trkpt>
      <trkpt lat="45.93179" lon="4.72709">
        <ele>169</ele>
        <time>2018-08-18T10:36:56Z</time>
      </trkpt>
      <trkpt lat="45.93177" lon="4.72722">
        <ele>170</ele>
        <time>2018-08-18T10:36:57Z</time>
      </trkpt>
      <trkpt lat="45.93172" lon="4.72729">
        <ele>170</ele>
        <time>2018-08-18T10:36:58Z</time>
      </trkpt>
      <trkpt lat="45.93166" lon="4.72735">
        <ele>170</ele>
        <time>2018-08-18T10:36:59Z</time>
      </trkpt>
      <trkpt lat="45.93161" lon="4.72741">
        <ele>170</ele>
        <time>2018-08-18T10:37:00Z</time>
      </trkpt>
      <trkpt lat="45.93156" lon="4.72745">
        <ele>170</ele>
        <time>2018-08-18T10:37:01Z</time>
      </trkpt>
      <trkpt lat="45.93151" lon="4.72752">
        <ele>170</ele>
        <time>2018-08-18T10:37:02Z</time>
      </trkpt>
      <trkpt lat="45.93146" lon="4.72757">
        <ele>171</ele>
        <time>2018-08-18T10:37:03Z</time>
      </trkpt>
      <trkpt lat="45.93142" lon="4.72763">
        <ele>171</ele>
        <time>2018-08-18T10:37:04Z</time>
      </trkpt>
      <trkpt lat="45.93136" lon="4.72767">
        <ele>171</ele>
        <time>2018-08-18T10:37:05Z</time>
      </trkpt>
      <trkpt lat="45.93131" lon="4.72773">
        <ele>171</ele>
        <time>2018-08-18T10:37:06Z</time>
      </trkpt>
      <trkpt lat="45.93126" lon="4.72779">
        <ele>171</ele>
        <time>2018-08-18T10:37:07Z</time>
      </trkpt>
      <trkpt lat="45.93121" lon="4.72783">
        <ele>171</ele>
        <time>2018-08-18T10:37:08Z</time>
      </trkpt>
      <trkpt lat="45.93117" lon="4.7279">
        <ele>171</ele>
        <time>2018-08-18T10:37:09Z</time>
      </trkpt>
      <trkpt lat="45.93113" lon="4.72796">
        <ele>171</ele>
        <time>2018-08-18T10:37:10Z</time>
      </trkpt>
      <trkpt lat="45.93107" lon="4.72801">
        <ele>171</ele>
        <time>2018-08-18T10:37:11Z</time>
      </trkpt>
      <trkpt lat="45.93102" lon="4.72807">
        <ele>171</ele>
        <time>2018-08-18T10:37:12Z</time>
      </trkpt>
      <trkpt lat="45.93098" lon="4.72812">
        <ele>172</ele>
        <time>2018-08-18T10:37:13Z</time>
      </trkpt>
      <trkpt lat="45.93093" lon="4.72817">
        <ele>172</ele>
        <time>2018-08-18T10:37:14Z</time>
      </trkpt>
      <trkpt lat="45.93088" lon="4.72822">
        <ele>172</ele>
        <time>2018-08-18T10:37:15Z</time>
      </trkpt>
      <trkpt lat="45.93083" lon="4.72826">
        <ele>173</ele>
        <time>2018-08-18T10:37:16Z</time>
      </trkpt>
      <trkpt lat="45.93079" lon="4.72831">
        <ele>173</ele>
        <time>2018-08-18T10:37:17Z</time>
      </trkpt>
      <trkpt lat="45.93074" lon="4.72835">
        <ele>173</ele>
        <time>2018-08-18T10:37:18Z</time>
      </trkpt>
      <trkpt lat="45.9307" lon="4.72839">
        <ele>173</ele>
        <time>2018-08-18T10:37:19Z</time>
      </trkpt>
      <trkpt lat="45.93066" lon="4.72843">
        <ele>172</ele>
        <time>2018-08-18T10:37:20Z</time>
      </trkpt>
      <trkpt lat="45.93061" lon="4.72848">
        <ele>172</ele>
        <time>2018-08-18T10:37:21Z</time>
      </trkpt>
      <trkpt lat="45.93056" lon="4.72854">
        <ele>172</ele>
        <time>2018-08-18T10:37:22Z</time>
      </trkpt>
      <trkpt lat="45.93051" lon="4.72859">
        <ele>172</ele>
        <time>2018-08-18T10:37:23Z</time>
      </trkpt>
      <trkpt lat="45.93045" lon="4.72865">
        <ele>172</ele>
        <time>2018-08-18T10:37:24Z</time>
      </trkpt>
      <trkpt lat="45.93039" lon="4.72872">
        <ele>172</ele>
        <time>2018-08-18T10:37:25Z</time>
      </trkpt>
      <trkpt lat="45.93033" lon="4.72874">
        <ele>172</ele>
        <time>2018-08-18T10:37:26Z</time>
      </trkpt>
      <trkpt lat="45.93028" lon="4.7288">
        <ele>172</ele>
        <time>2018-08-18T10:37:27Z</time>
      </trkpt>
      <trkpt lat="45.93023" lon="4.72883">
        <ele>172</ele>
        <time>2018-08-18T10:37:28Z</time>
      </trkpt>
      <trkpt lat="45.93019" lon="4.72888">
        <ele>172</ele>
        <time>2018-08-18T10:37:29Z</time>
      </trkpt>
      <trkpt lat="45.93016" lon="4.72894">
        <ele>172</ele>
        <time>2018-08-18T10:37:30Z</time>
      </trkpt>
      <trkpt lat="45.93011" lon="4.72898">
        <ele>172</ele>
        <time>2018-08-18T10:37:31Z</time>
      </trkpt>
      <trkpt lat="45.93008" lon="4.72903">
        <ele>171</ele>
        <time>2018-08-18T10:37:32Z</time>
      </trkpt>
      <trkpt lat="45.93004" lon="4.72906">
        <ele>171</ele>
        <time>2018-08-18T10:37:33Z</time>
      </trkpt>
      <trkpt lat="45.92997" lon="4.72913">
        <ele>171</ele>
        <time>2018-08-18T10:37:35Z</time>
      </trkpt>
      <trkpt lat="45.92993" lon="4.72917">
        <ele>171</ele>
        <time>2018-08-18T10:37:36Z</time>
      </trkpt>
      <trkpt lat="45.92988" lon="4.72918">
        <ele>171</ele>
        <time>2018-08-18T10:37:37Z</time>
      </trkpt>
      <trkpt lat="45.92983" lon="4.72924">
        <ele>171</ele>
        <time>2018-08-18T10:37:38Z</time>
      </trkpt>
      <trkpt lat="45.92979" lon="4.7293">
        <ele>171</ele>
        <time>2018-08-18T10:37:39Z</time>
      </trkpt>
      <trkpt lat="45.92974" lon="4.72938">
        <ele>171</ele>
        <time>2018-08-18T10:37:40Z</time>
      </trkpt>
      <trkpt lat="45.9297" lon="4.72944">
        <ele>171</ele>
        <time>2018-08-18T10:37:41Z</time>
      </trkpt>
      <trkpt lat="45.92965" lon="4.72948">
        <ele>171</ele>
        <time>2018-08-18T10:37:42Z</time>
      </trkpt>
      <trkpt lat="45.92966" lon="4.72961">
        <ele>171</ele>
        <time>2018-08-18T10:37:43Z</time>
      </trkpt>
      <trkpt lat="45.92961" lon="4.72967">
        <ele>171</ele>
        <time>2018-08-18T10:37:44Z</time>
      </trkpt>
      <trkpt lat="45.92957" lon="4.72973">
        <ele>171</ele>
        <time>2018-08-18T10:37:45Z</time>
      </trkpt>
      <trkpt lat="45.92952" lon="4.72978">
        <ele>171</ele>
        <time>2018-08-18T10:37:46Z</time>
      </trkpt>
      <trkpt lat="45.92949" lon="4.72982">
        <ele>171</ele>
        <time>2018-08-18T10:37:47Z</time>
      </trkpt>
      <trkpt lat="45.92944" lon="4.72988">
        <ele>171</ele>
        <time>2018-08-18T10:37:48Z</time>
      </trkpt>
      <trkpt lat="45.92941" lon="4.72993">
        <ele>171</ele>
        <time>2018-08-18T10:37:49Z</time>
      </trkpt>
      <trkpt lat="45.92937" lon="4.72999">
        <ele>171</ele>
        <time>2018-08-18T10:37:50Z</time>
      </trkpt>
      <trkpt lat="45.92934" lon="4.73005">
        <ele>171</ele>
        <time>2018-08-18T10:37:51Z</time>
      </trkpt>
      <trkpt lat="45.92929" lon="4.73011">
        <ele>172</ele>
        <time>2018-08-18T10:37:52Z</time>
      </trkpt>
      <trkpt lat="45.92924" lon="4.73017">
        <ele>172</ele>
        <time>2018-08-18T10:37:53Z</time>
      </trkpt>
      <trkpt lat="45.92918" lon="4.73023">
        <ele>172</ele>
        <time>2018-08-18T10:37:54Z</time>
      </trkpt>
      <trkpt lat="45.92914" lon="4.73029">
        <ele>172</ele>
        <time>2018-08-18T10:37:55Z</time>
      </trkpt>
      <trkpt lat="45.9291" lon="4.73035">
        <ele>172</ele>
        <time>2018-08-18T10:37:56Z</time>
      </trkpt>
      <trkpt lat="45.92905" lon="4.7304">
        <ele>172</ele>
        <time>2018-08-18T10:37:57Z</time>
      </trkpt>
      <trkpt lat="45.92902" lon="4.73045">
        <ele>172</ele>
        <time>2018-08-18T10:37:58Z</time>
      </trkpt>
      <trkpt lat="45.92898" lon="4.7305">
        <ele>172</ele>
        <time>2018-08-18T10:37:59Z</time>
      </trkpt>
      <trkpt lat="45.92895" lon="4.73056">
        <ele>172</ele>
        <time>2018-08-18T10:38:00Z</time>
      </trkpt>
      <trkpt lat="45.92891" lon="4.73061">
        <ele>172</ele>
        <time>2018-08-18T10:38:01Z</time>
      </trkpt>
      <trkpt lat="45.92885" lon="4.73069">
        <ele>172</ele>
        <time>2018-08-18T10:38:03Z</time>
      </trkpt>
      <trkpt lat="45.92882" lon="4.73074">
        <ele>172</ele>
        <time>2018-08-18T10:38:04Z</time>
      </trkpt>
      <trkpt lat="45.92879" lon="4.73079">
        <ele>172</ele>
        <time>2018-08-18T10:38:05Z</time>
      </trkpt>
      <trkpt lat="45.92877" lon="4.73087">
        <ele>172</ele>
        <time>2018-08-18T10:38:06Z</time>
      </trkpt>
      <trkpt lat="45.92874" lon="4.73093">
        <ele>172</ele>
        <time>2018-08-18T10:38:07Z</time>
      </trkpt>
      <trkpt lat="45.92869" lon="4.73096">
        <ele>172</ele>
        <time>2018-08-18T10:38:08Z</time>
      </trkpt>
      <trkpt lat="45.92865" lon="4.73101">
        <ele>171</ele>
        <time>2018-08-18T10:38:09Z</time>
      </trkpt>
      <trkpt lat="45.92862" lon="4.73105">
        <ele>171</ele>
        <time>2018-08-18T10:38:10Z</time>
      </trkpt>
      <trkpt lat="45.92855" lon="4.7311">
        <ele>171</ele>
        <time>2018-08-18T10:38:13Z</time>
      </trkpt>
      <trkpt lat="45.92852" lon="4.73107">
        <ele>171</ele>
        <time>2018-08-18T10:38:14Z</time>
      </trkpt>
      <trkpt lat="45.92847" lon="4.73097">
        <ele>171</ele>
        <time>2018-08-18T10:38:15Z</time>
      </trkpt>
      <trkpt lat="45.92845" lon="4.73091">
        <ele>171</ele>
        <time>2018-08-18T10:38:16Z</time>
      </trkpt>
      <trkpt lat="45.92845" lon="4.73084">
        <ele>171</ele>
        <time>2018-08-18T10:38:17Z</time>
      </trkpt>
      <trkpt lat="45.92844" lon="4.73075">
        <ele>171</ele>
        <time>2018-08-18T10:38:18Z</time>
      </trkpt>
      <trkpt lat="45.92843" lon="4.73066">
        <ele>171</ele>
        <time>2018-08-18T10:38:19Z</time>
      </trkpt>
      <trkpt lat="45.92842" lon="4.73059">
        <ele>171</ele>
        <time>2018-08-18T10:38:20Z</time>
      </trkpt>
      <trkpt lat="45.92841" lon="4.73052">
        <ele>171</ele>
        <time>2018-08-18T10:38:21Z</time>
      </trkpt>
      <trkpt lat="45.92839" lon="4.73045">
        <ele>171</ele>
        <time>2018-08-18T10:38:22Z</time>
      </trkpt>
      <trkpt lat="45.92838" lon="4.73039">
        <ele>171</ele>
        <time>2018-08-18T10:38:23Z</time>
      </trkpt>
      <trkpt lat="45.92836" lon="4.73031">
        <ele>171</ele>
        <time>2018-08-18T10:38:24Z</time>
      </trkpt>
      <trkpt lat="45.92833" lon="4.73023">
        <ele>170</ele>
        <time>2018-08-18T10:38:25Z</time>
      </trkpt>
      <trkpt lat="45.92832" lon="4.73015">
        <ele>170</ele>
        <time>2018-08-18T10:38:26Z</time>
      </trkpt>
      <trkpt lat="45.92831" lon="4.73008">
        <ele>170</ele>
        <time>2018-08-18T10:38:27Z</time>
      </trkpt>
      <trkpt lat="45.92829" lon="4.73">
        <ele>170</ele>
        <time>2018-08-18T10:38:28Z</time>
      </trkpt>
      <trkpt lat="45.92828" lon="4.72992">
        <ele>170</ele>
        <time>2018-08-18T10:38:29Z</time>
      </trkpt>
      <trkpt lat="45.92827" lon="4.72983">
        <ele>170</ele>
        <time>2018-08-18T10:38:30Z</time>
      </trkpt>
      <trkpt lat="45.92826" lon="4.72975">
        <ele>170</ele>
        <time>2018-08-18T10:38:31Z</time>
      </trkpt>
      <trkpt lat="45.92825" lon="4.72966">
        <ele>170</ele>
        <time>2018-08-18T10:38:32Z</time>
      </trkpt>
      <trkpt lat="45.92823" lon="4.72957">
        <ele>170</ele>
        <time>2018-08-18T10:38:33Z</time>
      </trkpt>
      <trkpt lat="45.92823" lon="4.72949">
        <ele>170</ele>
        <time>2018-08-18T10:38:34Z</time>
      </trkpt>
      <trkpt lat="45.92824" lon="4.72942">
        <ele>170</ele>
        <time>2018-08-18T10:38:35Z</time>
      </trkpt>
      <trkpt lat="45.92822" lon="4.72935">
        <ele>170</ele>
        <time>2018-08-18T10:38:36Z</time>
      </trkpt>
      <trkpt lat="45.92823" lon="4.72928">
        <ele>170</ele>
        <time>2018-08-18T10:38:37Z</time>
      </trkpt>
      <trkpt lat="45.92822" lon="4.7292">
        <ele>170</ele>
        <time>2018-08-18T10:38:38Z</time>
      </trkpt>
      <trkpt lat="45.9282" lon="4.72912">
        <ele>170</ele>
        <time>2018-08-18T10:38:39Z</time>
      </trkpt>
      <trkpt lat="45.92818" lon="4.72904">
        <ele>170</ele>
        <time>2018-08-18T10:38:40Z</time>
      </trkpt>
      <trkpt lat="45.92816" lon="4.72898">
        <ele>170</ele>
        <time>2018-08-18T10:38:41Z</time>
      </trkpt>
      <trkpt lat="45.92816" lon="4.72892">
        <ele>170</ele>
        <time>2018-08-18T10:38:42Z</time>
      </trkpt>
      <trkpt lat="45.92815" lon="4.72884">
        <ele>170</ele>
        <time>2018-08-18T10:38:43Z</time>
      </trkpt>
      <trkpt lat="45.9281" lon="4.72879">
        <ele>170</ele>
        <time>2018-08-18T10:38:44Z</time>
      </trkpt>
      <trkpt lat="45.92808" lon="4.72871">
        <ele>170</ele>
        <time>2018-08-18T10:38:45Z</time>
      </trkpt>
      <trkpt lat="45.92806" lon="4.72862">
        <ele>170</ele>
        <time>2018-08-18T10:38:46Z</time>
      </trkpt>
      <trkpt lat="45.92807" lon="4.72856">
        <ele>170</ele>
        <time>2018-08-18T10:38:47Z</time>
      </trkpt>
      <trkpt lat="45.92807" lon="4.72848">
        <ele>170</ele>
        <time>2018-08-18T10:38:48Z</time>
      </trkpt>
      <trkpt lat="45.92807" lon="4.7284">
        <ele>170</ele>
        <time>2018-08-18T10:38:49Z</time>
      </trkpt>
      <trkpt lat="45.92809" lon="4.72832">
        <ele>171</ele>
        <time>2018-08-18T10:38:50Z</time>
      </trkpt>
      <trkpt lat="45.92808" lon="4.72824">
        <ele>171</ele>
        <time>2018-08-18T10:38:51Z</time>
      </trkpt>
      <trkpt lat="45.92807" lon="4.72817">
        <ele>171</ele>
        <time>2018-08-18T10:38:52Z</time>
      </trkpt>
      <trkpt lat="45.92804" lon="4.72808">
        <ele>171</ele>
        <time>2018-08-18T10:38:53Z</time>
      </trkpt>
      <trkpt lat="45.92803" lon="4.72801">
        <ele>171</ele>
        <time>2018-08-18T10:38:54Z</time>
      </trkpt>
      <trkpt lat="45.92798" lon="4.72791">
        <ele>171</ele>
        <time>2018-08-18T10:38:56Z</time>
      </trkpt>
      <trkpt lat="45.92795" lon="4.72789">
        <ele>171</ele>
        <time>2018-08-18T10:38:57Z</time>
      </trkpt>
      <trkpt lat="45.92788" lon="4.7279">
        <ele>170</ele>
        <time>2018-08-18T10:38:59Z</time>
      </trkpt>
      <trkpt lat="45.92784" lon="4.72793">
        <ele>170</ele>
        <time>2018-08-18T10:39:00Z</time>
      </trkpt>
      <trkpt lat="45.92778" lon="4.72799">
        <ele>170</ele>
        <time>2018-08-18T10:39:02Z</time>
      </trkpt>
      <trkpt lat="45.92773" lon="4.72801">
        <ele>170</ele>
        <time>2018-08-18T10:39:03Z</time>
      </trkpt>
      <trkpt lat="45.9277" lon="4.72803">
        <ele>170</ele>
        <time>2018-08-18T10:39:04Z</time>
      </trkpt>
      <trkpt lat="45.92765" lon="4.72807">
        <ele>170</ele>
        <time>2018-08-18T10:39:05Z</time>
      </trkpt>
      <trkpt lat="45.9276" lon="4.7281">
        <ele>170</ele>
        <time>2018-08-18T10:39:06Z</time>
      </trkpt>
      <trkpt lat="45.92756" lon="4.72814">
        <ele>170</ele>
        <time>2018-08-18T10:39:07Z</time>
      </trkpt>
      <trkpt lat="45.92753" lon="4.7282">
        <ele>170</ele>
        <time>2018-08-18T10:39:08Z</time>
      </trkpt>
      <trkpt lat="45.92749" lon="4.72823">
        <ele>169</ele>
        <time>2018-08-18T10:39:09Z</time>
      </trkpt>
      <trkpt lat="45.92744" lon="4.72827">
        <ele>169</ele>
        <time>2018-08-18T10:39:10Z</time>
      </trkpt>
      <trkpt lat="45.92741" lon="4.72835">
        <ele>169</ele>
        <time>2018-08-18T10:39:11Z</time>
      </trkpt>
      <trkpt lat="45.92736" lon="4.72838">
        <ele>169</ele>
        <time>2018-08-18T10:39:12Z</time>
      </trkpt>
      <trkpt lat="45.92731" lon="4.72844">
        <ele>169</ele>
        <time>2018-08-18T10:39:13Z</time>
      </trkpt>
      <trkpt lat="45.92726" lon="4.72847">
        <ele>169</ele>
        <time>2018-08-18T10:39:14Z</time>
      </trkpt>
      <trkpt lat="45.92722" lon="4.72853">
        <ele>169</ele>
        <time>2018-08-18T10:39:15Z</time>
      </trkpt>
      <trkpt lat="45.92716" lon="4.72855">
        <ele>169</ele>
        <time>2018-08-18T10:39:16Z</time>
      </trkpt>
      <trkpt lat="45.92712" lon="4.72859">
        <ele>169</ele>
        <time>2018-08-18T10:39:17Z</time>
      </trkpt>
      <trkpt lat="45.92707" lon="4.72864">
        <ele>169</ele>
        <time>2018-08-18T10:39:18Z</time>
      </trkpt>
      <trkpt lat="45.927" lon="4.72866">
        <ele>169</ele>
        <time>2018-08-18T10:39:19Z</time>
      </trkpt>
      <trkpt lat="45.92694" lon="4.72867">
        <ele>169</ele>
        <time>2018-08-18T10:39:20Z</time>
      </trkpt>
      <trkpt lat="45.92689" lon="4.72875">
        <ele>170</ele>
        <time>2018-08-18T10:39:21Z</time>
      </trkpt>
      <trkpt lat="45.92683" lon="4.7288">
        <ele>170</ele>
        <time>2018-08-18T10:39:22Z</time>
      </trkpt>
      <trkpt lat="45.92678" lon="4.72884">
        <ele>170</ele>
        <time>2018-08-18T10:39:23Z</time>
      </trkpt>
      <trkpt lat="45.92672" lon="4.72891">
        <ele>170</ele>
        <time>2018-08-18T10:39:24Z</time>
      </trkpt>
      <trkpt lat="45.92666" lon="4.72894">
        <ele>170</ele>
        <time>2018-08-18T10:39:25Z</time>
      </trkpt>
      <trkpt lat="45.9266" lon="4.72897">
        <ele>170</ele>
        <time>2018-08-18T10:39:26Z</time>
      </trkpt>
      <trkpt lat="45.92654" lon="4.72902">
        <ele>170</ele>
        <time>2018-08-18T10:39:27Z</time>
      </trkpt>
      <trkpt lat="45.92649" lon="4.72908">
        <ele>170</ele>
        <time>2018-08-18T10:39:28Z</time>
      </trkpt>
      <trkpt lat="45.92644" lon="4.72913">
        <ele>170</ele>
        <time>2018-08-18T10:39:29Z</time>
      </trkpt>
      <trkpt lat="45.92638" lon="4.72918">
        <ele>170</ele>
        <time>2018-08-18T10:39:30Z</time>
      </trkpt>
      <trkpt lat="45.92633" lon="4.72922">
        <ele>170</ele>
        <time>2018-08-18T10:39:31Z</time>
      </trkpt>
      <trkpt lat="45.92626" lon="4.72926">
        <ele>170</ele>
        <time>2018-08-18T10:39:32Z</time>
      </trkpt>
      <trkpt lat="45.92621" lon="4.72931">
        <ele>169</ele>
        <time>2018-08-18T10:39:33Z</time>
      </trkpt>
      <trkpt lat="45.92616" lon="4.72935">
        <ele>169</ele>
        <time>2018-08-18T10:39:34Z</time>
      </trkpt>
      <trkpt lat="45.92611" lon="4.7294">
        <ele>169</ele>
        <time>2018-08-18T10:39:35Z</time>
      </trkpt>
      <trkpt lat="45.92606" lon="4.72946">
        <ele>169</ele>
        <time>2018-08-18T10:39:36Z</time>
      </trkpt>
      <trkpt lat="45.926" lon="4.72951">
        <ele>169</ele>
        <time>2018-08-18T10:39:37Z</time>
      </trkpt>
      <trkpt lat="45.92596" lon="4.72957">
        <ele>169</ele>
        <time>2018-08-18T10:39:38Z</time>
      </trkpt>
      <trkpt lat="45.92591" lon="4.72961">
        <ele>169</ele>
        <time>2018-08-18T10:39:39Z</time>
      </trkpt>
      <trkpt lat="45.92586" lon="4.72967">
        <ele>169</ele>
        <time>2018-08-18T10:39:40Z</time>
      </trkpt>
      <trkpt lat="45.92581" lon="4.72972">
        <ele>169</ele>
        <time>2018-08-18T10:39:41Z</time>
      </trkpt>
      <trkpt lat="45.92577" lon="4.72978">
        <ele>169</ele>
        <time>2018-08-18T10:39:42Z</time>
      </trkpt>
      <trkpt lat="45.92572" lon="4.72982">
        <ele>169</ele>
        <time>2018-08-18T10:39:43Z</time>
      </trkpt>
      <trkpt lat="45.92566" lon="4.72986">
        <ele>169</ele>
        <time>2018-08-18T10:39:44Z</time>
      </trkpt>
      <trkpt lat="45.9256" lon="4.7299">
        <ele>169</ele>
        <time>2018-08-18T10:39:45Z</time>
      </trkpt>
      <trkpt lat="45.92556" lon="4.72995">
        <ele>169</ele>
        <time>2018-08-18T10:39:46Z</time>
      </trkpt>
      <trkpt lat="45.92551" lon="4.73">
        <ele>169</ele>
        <time>2018-08-18T10:39:47Z</time>
      </trkpt>
      <trkpt lat="45.92546" lon="4.73004">
        <ele>169</ele>
        <time>2018-08-18T10:39:48Z</time>
      </trkpt>
      <trkpt lat="45.92542" lon="4.73007">
        <ele>169</ele>
        <time>2018-08-18T10:39:49Z</time>
      </trkpt>
      <trkpt lat="45.92537" lon="4.73011">
        <ele>169</ele>
        <time>2018-08-18T10:39:50Z</time>
      </trkpt>
      <trkpt lat="45.92533" lon="4.73016">
        <ele>169</ele>
        <time>2018-08-18T10:39:51Z</time>
      </trkpt>
      <trkpt lat="45.92528" lon="4.73021">
        <ele>169</ele>
        <time>2018-08-18T10:39:52Z</time>
      </trkpt>
      <trkpt lat="45.92524" lon="4.73021">
        <ele>169</ele>
        <time>2018-08-18T10:39:53Z</time>
      </trkpt>
      <trkpt lat="45.92519" lon="4.73024">
        <ele>169</ele>
        <time>2018-08-18T10:39:54Z</time>
      </trkpt>
      <trkpt lat="45.92516" lon="4.73032">
        <ele>169</ele>
        <time>2018-08-18T10:39:55Z</time>
      </trkpt>
      <trkpt lat="45.9251" lon="4.73034">
        <ele>169</ele>
        <time>2018-08-18T10:39:56Z</time>
      </trkpt>
      <trkpt lat="45.92505" lon="4.73038">
        <ele>169</ele>
        <time>2018-08-18T10:39:57Z</time>
      </trkpt>
      <trkpt lat="45.92501" lon="4.73045">
        <ele>170</ele>
        <time>2018-08-18T10:39:58Z</time>
      </trkpt>
      <trkpt lat="45.92495" lon="4.73046">
        <ele>170</ele>
        <time>2018-08-18T10:39:59Z</time>
      </trkpt>
      <trkpt lat="45.9249" lon="4.73053">
        <ele>170</ele>
        <time>2018-08-18T10:40:00Z</time>
      </trkpt>
      <trkpt lat="45.92485" lon="4.73059">
        <ele>170</ele>
        <time>2018-08-18T10:40:01Z</time>
      </trkpt>
      <trkpt lat="45.92481" lon="4.73065">
        <ele>170</ele>
        <time>2018-08-18T10:40:02Z</time>
      </trkpt>
      <trkpt lat="45.92476" lon="4.73069">
        <ele>170</ele>
        <time>2018-08-18T10:40:03Z</time>
      </trkpt>
      <trkpt lat="45.92471" lon="4.73074">
        <ele>170</ele>
        <time>2018-08-18T10:40:04Z</time>
      </trkpt>
      <trkpt lat="45.92466" lon="4.73079">
        <ele>170</ele>
        <time>2018-08-18T10:40:05Z</time>
      </trkpt>
      <trkpt lat="45.92463" lon="4.73085">
        <ele>170</ele>
        <time>2018-08-18T10:40:06Z</time>
      </trkpt>
      <trkpt lat="45.92458" lon="4.73089">
        <ele>170</ele>
        <time>2018-08-18T10:40:07Z</time>
      </trkpt>
      <trkpt lat="45.92454" lon="4.73093">
        <ele>170</ele>
        <time>2018-08-18T10:40:08Z</time>
      </trkpt>
      <trkpt lat="45.92449" lon="4.73096">
        <ele>170</ele>
        <time>2018-08-18T10:40:09Z</time>
      </trkpt>
      <trkpt lat="45.92445" lon="4.731">
        <ele>170</ele>
        <time>2018-08-18T10:40:10Z</time>
      </trkpt>
      <trkpt lat="45.92439" lon="4.73103">
        <ele>170</ele>
        <time>2018-08-18T10:40:11Z</time>
      </trkpt>
      <trkpt lat="45.92435" lon="4.73107">
        <ele>170</ele>
        <time>2018-08-18T10:40:12Z</time>
      </trkpt>
      <trkpt lat="45.92431" lon="4.73109">
        <ele>170</ele>
        <time>2018-08-18T10:40:13Z</time>
      </trkpt>
      <trkpt lat="45.92426" lon="4.73112">
        <ele>170</ele>
        <time>2018-08-18T10:40:14Z</time>
      </trkpt>
      <trkpt lat="45.92421" lon="4.73113">
        <ele>170</ele>
        <time>2018-08-18T10:40:15Z</time>
      </trkpt>
      <trkpt lat="45.92417" lon="4.73118">
        <ele>170</ele>
        <time>2018-08-18T10:40:16Z</time>
      </trkpt>
      <trkpt lat="45.92415" lon="4.73123">
        <ele>171</ele>
        <time>2018-08-18T10:40:17Z</time>
      </trkpt>
      <trkpt lat="45.92413" lon="4.7313">
        <ele>171</ele>
        <time>2018-08-18T10:40:18Z</time>
      </trkpt>
      <trkpt lat="45.92411" lon="4.73135">
        <ele>171</ele>
        <time>2018-08-18T10:40:19Z</time>
      </trkpt>
      <trkpt lat="45.9241" lon="4.73143">
        <ele>171</ele>
        <time>2018-08-18T10:40:20Z</time>
      </trkpt>
      <trkpt lat="45.9241" lon="4.73149">
        <ele>171</ele>
        <time>2018-08-18T10:40:21Z</time>
      </trkpt>
      <trkpt lat="45.9241" lon="4.73156">
        <ele>170</ele>
        <time>2018-08-18T10:40:22Z</time>
      </trkpt>
      <trkpt lat="45.9241" lon="4.73164">
        <ele>170</ele>
        <time>2018-08-18T10:40:23Z</time>
      </trkpt>
      <trkpt lat="45.92409" lon="4.73172">
        <ele>170</ele>
        <time>2018-08-18T10:40:24Z</time>
      </trkpt>
      <trkpt lat="45.92409" lon="4.7318">
        <ele>171</ele>
        <time>2018-08-18T10:40:25Z</time>
      </trkpt>
      <trkpt lat="45.9241" lon="4.73186">
        <ele>171</ele>
        <time>2018-08-18T10:40:26Z</time>
      </trkpt>
      <trkpt lat="45.92411" lon="4.73194">
        <ele>171</ele>
        <time>2018-08-18T10:40:27Z</time>
      </trkpt>
      <trkpt lat="45.92411" lon="4.73201">
        <ele>171</ele>
        <time>2018-08-18T10:40:28Z</time>
      </trkpt>
      <trkpt lat="45.92412" lon="4.73209">
        <ele>171</ele>
        <time>2018-08-18T10:40:29Z</time>
      </trkpt>
      <trkpt lat="45.92411" lon="4.73217">
        <ele>171</ele>
        <time>2018-08-18T10:40:30Z</time>
      </trkpt>
      <trkpt lat="45.92412" lon="4.73225">
        <ele>171</ele>
        <time>2018-08-18T10:40:31Z</time>
      </trkpt>
      <trkpt lat="45.92413" lon="4.73231">
        <ele>171</ele>
        <time>2018-08-18T10:40:32Z</time>
      </trkpt>
      <trkpt lat="45.92413" lon="4.73239">
        <ele>171</ele>
        <time>2018-08-18T10:40:33Z</time>
      </trkpt>
      <trkpt lat="45.92414" lon="4.73247">
        <ele>171</ele>
        <time>2018-08-18T10:40:34Z</time>
      </trkpt>
      <trkpt lat="45.92414" lon="4.73255">
        <ele>171</ele>
        <time>2018-08-18T10:40:35Z</time>
      </trkpt>
      <trkpt lat="45.92415" lon="4.73265">
        <ele>171</ele>
        <time>2018-08-18T10:40:36Z</time>
      </trkpt>
      <trkpt lat="45.92415" lon="4.73273">
        <ele>171</ele>
        <time>2018-08-18T10:40:37Z</time>
      </trkpt>
      <trkpt lat="45.92416" lon="4.7328">
        <ele>171</ele>
        <time>2018-08-18T10:40:38Z</time>
      </trkpt>
      <trkpt lat="45.92416" lon="4.7329">
        <ele>171</ele>
        <time>2018-08-18T10:40:39Z</time>
      </trkpt>
      <trkpt lat="45.92415" lon="4.73301">
        <ele>171</ele>
        <time>2018-08-18T10:40:41Z</time>
      </trkpt>
      <trkpt lat="45.92415" lon="4.73306">
        <ele>171</ele>
        <time>2018-08-18T10:40:42Z</time>
      </trkpt>
      <trkpt lat="45.92416" lon="4.73314">
        <ele>171</ele>
        <time>2018-08-18T10:40:43Z</time>
      </trkpt>
      <trkpt lat="45.92417" lon="4.73319">
        <ele>171</ele>
        <time>2018-08-18T10:40:44Z</time>
      </trkpt>
      <trkpt lat="45.92418" lon="4.73327">
        <ele>171</ele>
        <time>2018-08-18T10:40:45Z</time>
      </trkpt>
      <trkpt lat="45.92419" lon="4.73334">
        <ele>171</ele>
        <time>2018-08-18T10:40:46Z</time>
      </trkpt>
      <trkpt lat="45.9242" lon="4.73341">
        <ele>171</ele>
        <time>2018-08-18T10:40:47Z</time>
      </trkpt>
      <trkpt lat="45.92421" lon="4.73348">
        <ele>171</ele>
        <time>2018-08-18T10:40:48Z</time>
      </trkpt>
      <trkpt lat="45.92422" lon="4.73356">
        <ele>171</ele>
        <time>2018-08-18T10:40:49Z</time>
      </trkpt>
      <trkpt lat="45.92423" lon="4.73363">
        <ele>172</ele>
        <time>2018-08-18T10:40:50Z</time>
      </trkpt>
      <trkpt lat="45.92424" lon="4.73371">
        <ele>172</ele>
        <time>2018-08-18T10:40:51Z</time>
      </trkpt>
      <trkpt lat="45.92425" lon="4.73379">
        <ele>172</ele>
        <time>2018-08-18T10:40:52Z</time>
      </trkpt>
      <trkpt lat="45.92427" lon="4.73386">
        <ele>172</ele>
        <time>2018-08-18T10:40:53Z</time>
      </trkpt>
      <trkpt lat="45.9243" lon="4.73393">
        <ele>172</ele>
        <time>2018-08-18T10:40:54Z</time>
      </trkpt>
      <trkpt lat="45.92433" lon="4.73401">
        <ele>172</ele>
        <time>2018-08-18T10:40:55Z</time>
      </trkpt>
      <trkpt lat="45.92437" lon="4.73407">
        <ele>172</ele>
        <time>2018-08-18T10:40:56Z</time>
      </trkpt>
      <trkpt lat="45.92444" lon="4.73413">
        <ele>172</ele>
        <time>2018-08-18T10:40:58Z</time>
      </trkpt>
      <trkpt lat="45.92449" lon="4.73417">
        <ele>173</ele>
        <time>2018-08-18T10:40:59Z</time>
      </trkpt>
      <trkpt lat="45.92453" lon="4.73421">
        <ele>173</ele>
        <time>2018-08-18T10:41:00Z</time>
      </trkpt>
      <trkpt lat="45.92457" lon="4.73426">
        <ele>173</ele>
        <time>2018-08-18T10:41:01Z</time>
      </trkpt>
      <trkpt lat="45.92461" lon="4.73431">
        <ele>173</ele>
        <time>2018-08-18T10:41:02Z</time>
      </trkpt>
      <trkpt lat="45.92464" lon="4.73437">
        <ele>173</ele>
        <time>2018-08-18T10:41:03Z</time>
      </trkpt>
      <trkpt lat="45.92467" lon="4.73445">
        <ele>173</ele>
        <time>2018-08-18T10:41:04Z</time>
      </trkpt>
      <trkpt lat="45.92469" lon="4.73451">
        <ele>173</ele>
        <time>2018-08-18T10:41:05Z</time>
      </trkpt>
      <trkpt lat="45.9247" lon="4.73457">
        <ele>173</ele>
        <time>2018-08-18T10:41:06Z</time>
      </trkpt>
      <trkpt lat="45.92471" lon="4.73465">
        <ele>173</ele>
        <time>2018-08-18T10:41:07Z</time>
      </trkpt>
      <trkpt lat="45.92471" lon="4.73472">
        <ele>173</ele>
        <time>2018-08-18T10:41:08Z</time>
      </trkpt>
      <trkpt lat="45.9247" lon="4.73481">
        <ele>173</ele>
        <time>2018-08-18T10:41:09Z</time>
      </trkpt>
      <trkpt lat="45.92469" lon="4.73491">
        <ele>173</ele>
        <time>2018-08-18T10:41:10Z</time>
      </trkpt>
      <trkpt lat="45.92469" lon="4.73499">
        <ele>173</ele>
        <time>2018-08-18T10:41:11Z</time>
      </trkpt>
      <trkpt lat="45.92468" lon="4.73508">
        <ele>174</ele>
        <time>2018-08-18T10:41:12Z</time>
      </trkpt>
      <trkpt lat="45.92469" lon="4.73515">
        <ele>174</ele>
        <time>2018-08-18T10:41:13Z</time>
      </trkpt>
      <trkpt lat="45.92469" lon="4.73522">
        <ele>174</ele>
        <time>2018-08-18T10:41:14Z</time>
      </trkpt>
      <trkpt lat="45.92469" lon="4.7353">
        <ele>174</ele>
        <time>2018-08-18T10:41:15Z</time>
      </trkpt>
      <trkpt lat="45.92468" lon="4.73537">
        <ele>174</ele>
        <time>2018-08-18T10:41:16Z</time>
      </trkpt>
      <trkpt lat="45.92468" lon="4.73544">
        <ele>173</ele>
        <time>2018-08-18T10:41:17Z</time>
      </trkpt>
      <trkpt lat="45.92467" lon="4.73557">
        <ele>173</ele>
        <time>2018-08-18T10:41:19Z</time>
      </trkpt>
      <trkpt lat="45.92467" lon="4.73564">
        <ele>173</ele>
        <time>2018-08-18T10:41:20Z</time>
      </trkpt>
      <trkpt lat="45.92467" lon="4.73572">
        <ele>173</ele>
        <time>2018-08-18T10:41:21Z</time>
      </trkpt>
      <trkpt lat="45.92467" lon="4.73579">
        <ele>173</ele>
        <time>2018-08-18T10:41:22Z</time>
      </trkpt>
      <trkpt lat="45.92468" lon="4.73586">
        <ele>174</ele>
        <time>2018-08-18T10:41:23Z</time>
      </trkpt>
      <trkpt lat="45.92468" lon="4.73595">
        <ele>174</ele>
        <time>2018-08-18T10:41:24Z</time>
      </trkpt>
      <trkpt lat="45.92469" lon="4.73602">
        <ele>174</ele>
        <time>2018-08-18T10:41:25Z</time>
      </trkpt>
      <trkpt lat="45.92469" lon="4.7361">
        <ele>174</ele>
        <time>2018-08-18T10:41:26Z</time>
      </trkpt>
      <trkpt lat="45.9247" lon="4.73619">
        <ele>174</ele>
        <time>2018-08-18T10:41:27Z</time>
      </trkpt>
      <trkpt lat="45.92471" lon="4.73626">
        <ele>174</ele>
        <time>2018-08-18T10:41:28Z</time>
      </trkpt>
      <trkpt lat="45.92472" lon="4.73633">
        <ele>174</ele>
        <time>2018-08-18T10:41:29Z</time>
      </trkpt>
      <trkpt lat="45.92472" lon="4.7364">
        <ele>174</ele>
        <time>2018-08-18T10:41:30Z</time>
      </trkpt>
      <trkpt lat="45.9247" lon="4.73652">
        <ele>174</ele>
        <time>2018-08-18T10:41:32Z</time>
      </trkpt>
      <trkpt lat="45.92469" lon="4.73659">
        <ele>174</ele>
        <time>2018-08-18T10:41:33Z</time>
      </trkpt>
      <trkpt lat="45.92467" lon="4.73672">
        <ele>174</ele>
        <time>2018-08-18T10:41:35Z</time>
      </trkpt>
      <trkpt lat="45.92467" lon="4.73678">
        <ele>174</ele>
        <time>2018-08-18T10:41:36Z</time>
      </trkpt>
      <trkpt lat="45.92466" lon="4.73689">
        <ele>174</ele>
        <time>2018-08-18T10:41:38Z</time>
      </trkpt>
      <trkpt lat="45.92465" lon="4.73692">
        <ele>174</ele>
        <time>2018-08-18T10:41:39Z</time>
      </trkpt>
      <trkpt lat="45.92464" lon="4.73704">
        <ele>174</ele>
        <time>2018-08-18T10:41:46Z</time>
      </trkpt>
      <trkpt lat="45.92464" lon="4.73705">
        <ele>174</ele>
        <time>2018-08-18T10:41:47Z</time>
      </trkpt>
      <trkpt lat="45.92462" lon="4.73704">
        <ele>174</ele>
        <time>2018-08-18T10:42:18.337Z</time>
      </trkpt>
    </trkseg>
  </trk>
</gpx>